
Distance (Route):
Temperature : 22.5°C
Humidity : 57.0%
Pressure : 951.8hPa| Receiver | Frames | First received | Last received |
|---|---|---|---|
| DK7TD | 1000 | 2026-08-30 11:00:40 | 2026-08-30 13:46:39 |
| DO3MHA-11 | 660 | 2026-08-30 11:51:46 | 2026-08-30 14:18:02 |
| DL1NUX | 408 | 2026-08-30 11:59:51 | 2026-08-30 13:44:45 |
| DM0DOS-11 | 204 | 2026-08-30 11:51:39 | 2026-08-30 13:29:03 |
| NBG1-10 | 195 | 2026-08-30 11:51:44 | 2026-08-30 14:18:45 |
| DL1XH-west | 153 | 2026-08-30 12:18:44 | 2026-08-30 12:52:51 |
| HSKMA3-T | 150 | 2026-08-30 12:31:15 | 2026-08-30 13:05:38 |
| BIOWL1-15 | 148 | 2026-08-30 11:27:36 | 2026-08-30 13:28:15 |
| DJ8HS-15 | 108 | 2026-08-30 11:52:42 | 2026-08-30 13:35:38 |
| DG9SBQ-11 | 105 | 2026-08-30 11:28:16 | 2026-08-30 12:59:20 |
| DK5PH-5 | 102 | 2026-08-30 11:51:41 | 2026-08-30 14:05:45 |
| DO9HM | 99 | 2026-08-30 11:53:07 | 2026-08-30 14:01:41 |
| DL6DJ-15 | 85 | 2026-08-30 11:40:44 | 2026-08-30 14:11:56 |
| DB0ND-19 | 69 | 2026-08-30 11:04:50 | 2026-08-30 13:54:29 |
| DL9SK-14 | 66 | 2026-08-30 11:13:50 | 2026-08-30 13:59:30 |
| DF7PN | 63 | 2026-08-30 11:07:46 | 2026-08-30 13:52:24 |
| DL0LBS | 60 | 2026-08-30 13:16:40 | 2026-08-30 14:10:05 |
| DB0UT-7 | 59 | 2026-08-30 11:51:45 | 2026-08-30 13:51:26 |
| DL1ZP-14 | 56 | 2026-08-30 11:19:46 | 2026-08-30 13:33:22 |
| DF3TZ-5 | 52 | 2026-08-30 11:09:45 | 2026-08-30 14:05:10 |
| OE5DXL-15 | 43 | 2026-08-30 11:52:38 | 2026-08-30 13:24:05 |
| DN1GJH-1 | 38 | 2026-08-30 12:48:20 | 2026-08-30 13:38:38 |
| IW2NTF | 37 | 2026-08-30 12:02:01 | 2026-08-30 12:56:23 |
| SO1NDE-10 | 31 | 2026-08-30 12:09:28 | 2026-08-30 13:38:43 |
| AZAK | 30 | 2026-08-30 12:40:23 | 2026-08-30 13:16:47 |
| OE5DRO-10 | 28 | 2026-08-30 11:52:47 | 2026-08-30 13:04:08 |
| DL1XH1-15 | 27 | 2026-08-30 12:45:52 | 2026-08-30 12:52:25 |
| DM7RM-13 | 27 | 2026-08-30 13:13:07 | 2026-08-30 13:55:04 |
| SONCRA | 26 | 2026-08-30 12:05:56 | 2026-08-30 13:11:09 |
| PG1ADW-2 | 21 | 2026-08-30 11:53:04 | 2026-08-30 13:08:00 |
| OE9MKV-15 | 20 | 2026-08-30 11:53:10 | 2026-08-30 12:57:26 |
| DJTTGO | 15 | 2026-08-30 12:13:31 | 2026-08-30 13:24:22 |
| DG1MJG | 14 | 2026-08-30 12:11:36 | 2026-08-30 13:51:18 |
| DJ2DS-15 | 12 | 2026-08-30 12:45:44 | 2026-08-30 12:51:35 |
| DF1GD-15 | 11 | 2026-08-30 13:12:35 | 2026-08-30 13:27:34 |
| OE5WHR-10 | 9 | 2026-08-30 12:07:54 | 2026-08-30 12:57:46 |
| BIOWL9-15 | 8 | 2026-08-30 11:35:46 | 2026-08-30 13:24:57 |
| DL8DAS-14 | 8 | 2026-08-30 12:31:56 | 2026-08-30 12:51:04 |
| DF8AY | 8 | 2026-08-30 12:52:24 | 2026-08-30 12:55:06 |
| AU51GT2 | 5 | 2026-08-30 12:24:16 | 2026-08-30 12:34:37 |
| HEMX73-6 | 4 | 2026-08-30 12:19:24 | 2026-08-30 12:33:06 |
| OM5KV | 4 | 2026-08-30 12:37:36 | 2026-08-30 12:39:13 |
| OE3JTB-15 | 4 | 2026-08-30 13:18:07 | 2026-08-30 13:27:48 |
| DL8DAS-15 | 3 | 2026-08-30 12:10:39 | 2026-08-30 12:20:14 |
| KANTATE | 1 | 2026-08-30 12:13:57 | 2026-08-30 12:13:57 |
| DL1XH-15 | 1 | 2026-08-30 12:44:49 | 2026-08-30 12:44:49 |
| DO9LL-15 | 1 | 2026-08-30 12:46:54 | 2026-08-30 12:46:54 |
| Receiver | Date | Latitude | Longitude | Direction | Speed | Altitude | Climb | Temperature | Humidity | Pressure | Voltage | Killtimer | Uptime | BKT | XDATA |
|---|---|---|---|---|---|---|---|---|---|---|---|---|---|---|---|
| NBG1-10 | 2026-08-30 14:18:45 | 49.09930 | 11.20910 | 105° | 18km/h | 590m | -2.4m/s | 22.5°C | 57.0% | 951.8hPa | 2.7V | 06:55:00 | 03:34:21 | 00:00:00 | |
| NBG1-10 | 2026-08-30 14:18:43 | 49.09932 | 11.20896 | 102° | 18km/h | 596m | -3.3m/s | 22.5°C | 57.3% | 951.2hPa | 2.7V | 00:00:00 | 03:34:19 | 00:00:00 | |
| NBG1-10 | 2026-08-30 14:18:41 | 49.09934 | 11.20883 | 103° | 16km/h | 602m | -3.2m/s | 22.4°C | 57.4% | 950.4hPa | 2.7V | 00:00:00 | 03:34:17 | 00:00:00 | |
| NBG1-10 | 2026-08-30 14:18:39 | 49.09936 | 11.20870 | 105° | 18km/h | 609m | -3.6m/s | 22.3°C | 57.4% | 949.8hPa | 2.7V | 00:00:00 | 03:34:15 | 00:00:00 | |
| NBG1-10 | 2026-08-30 14:18:37 | 49.09938 | 11.20855 | 97° | 18km/h | 616m | -3.2m/s | 22.3°C | 57.6% | 949.1hPa | 2.7V | 00:00:00 | 03:34:13 | 00:00:00 | |
| NBG1-10 | 2026-08-30 14:18:35 | 49.09939 | 11.20841 | 101° | 18km/h | 621m | -2.6m/s | 22.2°C | 57.9% | 948.3hPa | 2.7V | 00:00:00 | 03:34:11 | 00:00:00 | |
| NBG1-10 | 2026-08-30 14:18:33 | 49.09941 | 11.20827 | 102° | 20km/h | 627m | -2.8m/s | 22.2°C | 57.9% | 947.8hPa | 2.7V | 00:00:00 | 03:34:09 | 00:00:00 | |
| NBG1-10 | 2026-08-30 14:18:31 | 49.09943 | 11.20812 | 107° | 18km/h | 632m | -2.6m/s | 22.1°C | 58.3% | 947.0hPa | 2.7V | 06:55:00 | 03:34:07 | 00:00:00 | |
| NBG1-10 | 2026-08-30 14:18:29 | 49.09947 | 11.20798 | 108° | 20km/h | 638m | -3.1m/s | 22.0°C | 58.3% | 946.6hPa | 2.7V | 00:00:00 | 03:34:05 | 00:00:00 | |
| NBG1-10 | 2026-08-30 14:18:27 | 49.09949 | 11.20783 | 104° | 20km/h | 643m | -2.4m/s | 22.0°C | 58.5% | 945.8hPa | 2.7V | 00:00:00 | 03:34:03 | 00:00:00 | |
| NBG1-10 | 2026-08-30 14:18:25 | 49.09952 | 11.20767 | 106° | 22km/h | 649m | -2.8m/s | 21.9°C | 58.8% | 945.3hPa | 2.7V | 00:00:00 | 03:34:01 | 00:00:00 | |
| NBG1-10 | 2026-08-30 14:18:23 | 49.09954 | 11.20751 | 95° | 22km/h | 654m | -2.1m/s | 21.9°C | 58.8% | 944.5hPa | 2.7V | 00:00:00 | 03:33:59 | 00:00:00 | |
| NBG1-10 | 2026-08-30 14:18:21 | 49.09954 | 11.20735 | 90° | 20km/h | 658m | -1.9m/s | 21.8°C | 59.1% | 944.1hPa | 2.7V | 00:00:00 | 03:33:57 | 00:00:00 | |
| NBG1-10 | 2026-08-30 14:18:19 | 49.09955 | 11.20720 | 93° | 20km/h | 663m | -2.5m/s | 21.8°C | 59.0% | 943.4hPa | 2.7V | 00:00:00 | 03:33:55 | 00:00:00 | |
| NBG1-10 | 2026-08-30 14:18:15 | 49.09957 | 11.20689 | 97° | 20km/h | 673m | -2.5m/s | 21.7°C | 59.3% | 942.6hPa | 2.7V | 00:00:00 | 03:33:51 | 00:00:00 | |
| NBG1-10 | 2026-08-30 14:18:13 | 49.09958 | 11.20673 | 100° | 20km/h | 678m | -2.2m/s | 21.7°C | 59.7% | 942.0hPa | 2.7V | 00:00:00 | 03:33:49 | 00:00:00 | |
| NBG1-10 | 2026-08-30 14:18:11 | 49.09961 | 11.20657 | 103° | 20km/h | 683m | -2.4m/s | 21.6°C | 59.8% | 941.4hPa | 2.7V | 00:00:00 | 03:33:47 | 00:00:00 | |
| NBG1-10 | 2026-08-30 14:18:06 | 49.09965 | 11.20618 | 101° | 22km/h | 696m | -2.9m/s | 21.5°C | 60.1% | 940.0hPa | 2.7V | 00:00:00 | 03:33:42 | 00:00:00 | |
| NBG1-10 | 2026-08-30 14:18:04 | 49.09967 | 11.20602 | 99° | 20km/h | 701m | -2.3m/s | 21.5°C | 60.2% | 939.6hPa | 2.7V | 00:00:00 | 03:33:40 | 00:00:00 | |
| NBG1-10 | 2026-08-30 14:18:02 | 49.09969 | 11.20586 | 99° | 22km/h | 706m | -2.5m/s | 21.4°C | 60.4% | 939.0hPa | 2.7V | 00:00:00 | 03:33:38 | 00:00:00 | |
| DO3MHA-11 | 2026-08-30 14:18:02 | 49.09969 | 11.20586 | 99° | 22km/h | 706m | -2.5m/s | 21.4°C | 60.4% | 939.0hPa | 2.7V | 00:00:00 | 03:33:38 | 00:00:00 | |
| NBG1-10 | 2026-08-30 14:18:00 | 49.09970 | 11.20570 | 96° | 20km/h | 711m | -2.2m/s | 21.4°C | 60.3% | 938.5hPa | 2.7V | 06:56:00 | 03:33:36 | 00:00:00 | |
| DO3MHA-11 | 2026-08-30 14:18:00 | 49.09970 | 11.20570 | 96° | 20km/h | 711m | -2.2m/s | 21.4°C | 60.3% | 938.5hPa | 2.7V | 00:00:00 | 03:33:36 | 00:00:00 | |
| NBG1-10 | 2026-08-30 14:17:58 | 49.09971 | 11.20554 | 95° | 22km/h | 715m | -2.1m/s | 21.4°C | 60.4% | 938.0hPa | 2.7V | 00:00:00 | 03:33:34 | 00:00:00 | |
| DO3MHA-11 | 2026-08-30 14:17:58 | 49.09971 | 11.20554 | 95° | 22km/h | 715m | -2.1m/s | 21.4°C | 60.4% | 938.0hPa | 2.7V | 00:00:00 | 03:33:34 | 00:00:00 | |
| NBG1-10 | 2026-08-30 14:17:54 | 49.09971 | 11.20522 | 95° | 22km/h | 724m | -2.1m/s | 21.3°C | 61.1% | 937.0hPa | 2.7V | 00:00:00 | 03:33:30 | 00:00:00 | |
| NBG1-10 | 2026-08-30 14:17:52 | 49.09972 | 11.20504 | 92° | 22km/h | 728m | -2.2m/s | 21.2°C | 61.1% | 936.6hPa | 2.7V | 00:00:00 | 03:33:28 | 00:00:00 | |
| DO3MHA-11 | 2026-08-30 14:17:52 | 49.09972 | 11.20504 | 92° | 22km/h | 728m | -2.2m/s | 21.2°C | 61.1% | 936.6hPa | 2.7V | 06:56:00 | 03:33:28 | 00:00:00 | |
| DO3MHA-11 | 2026-08-30 14:17:49 | 49.09973 | 11.20480 | 91° | 22km/h | 736m | -2.5m/s | 21.2°C | 61.4% | 935.8hPa | 2.7V | 00:00:00 | 03:33:25 | 00:00:00 | |
| NBG1-10 | 2026-08-30 14:17:48 | 49.09973 | 11.20471 | 87° | 20km/h | 738m | -2.4m/s | 21.2°C | 61.3% | 935.6hPa | 2.7V | 00:00:00 | 03:33:24 | 00:00:00 | |
| NBG1-10 | 2026-08-30 14:17:46 | 49.09972 | 11.20456 | 89° | 18km/h | 742m | -1.8m/s | 21.1°C | 61.6% | 935.2hPa | 2.7V | 06:56:00 | 03:33:22 | 00:00:00 | |
| DO3MHA-11 | 2026-08-30 14:17:46 | 49.09972 | 11.20456 | 89° | 18km/h | 742m | -1.8m/s | 21.1°C | 61.6% | 935.2hPa | 2.7V | 00:00:00 | 03:33:22 | 00:00:00 | |
| NBG1-10 | 2026-08-30 14:17:44 | 49.09972 | 11.20442 | 88° | 18km/h | 746m | -1.9m/s | 21.1°C | 61.8% | 934.7hPa | 2.7V | 00:00:00 | 03:33:20 | 00:00:00 | |
| DO3MHA-11 | 2026-08-30 14:17:44 | 49.09972 | 11.20442 | 88° | 20km/h | 746m | -1.9m/s | 21.1°C | 61.8% | 934.7hPa | 2.7V | 00:00:00 | 03:33:20 | 00:00:00 | |
| NBG1-10 | 2026-08-30 14:17:42 | 49.09971 | 11.20427 | 89° | 18km/h | 750m | -2.0m/s | 21.0°C | 61.8% | 934.3hPa | 2.7V | 00:00:00 | 03:33:18 | 00:00:00 | |
| DO3MHA-11 | 2026-08-30 14:17:42 | 49.09971 | 11.20427 | 89° | 18km/h | 750m | -2.0m/s | 21.0°C | 61.8% | 934.3hPa | 2.7V | 00:00:00 | 03:33:18 | 00:00:00 | |
| NBG1-10 | 2026-08-30 14:17:40 | 49.09971 | 11.20412 | 89° | 20km/h | 754m | -1.9m/s | 21.0°C | 62.0% | 934.0hPa | 2.7V | 00:00:00 | 03:33:16 | 00:00:00 | |
| DO3MHA-11 | 2026-08-30 14:17:40 | 49.09971 | 11.20412 | 89° | 20km/h | 754m | -1.9m/s | 21.0°C | 62.0% | 934.0hPa | 2.7V | 00:00:00 | 03:33:16 | 00:00:00 | |
| NBG1-10 | 2026-08-30 14:17:38 | 49.09971 | 11.20397 | 88° | 18km/h | 758m | -1.7m/s | 20.9°C | 62.0% | 933.5hPa | 2.7V | 00:00:00 | 03:33:14 | 00:00:00 | |
| DO3MHA-11 | 2026-08-30 14:17:38 | 49.09971 | 11.20397 | 88° | 18km/h | 758m | -1.7m/s | 20.9°C | 62.0% | 933.5hPa | 2.7V | 00:00:00 | 03:33:14 | 00:00:00 | |
| NBG1-10 | 2026-08-30 14:17:36 | 49.09971 | 11.20383 | 95° | 20km/h | 761m | -1.5m/s | 20.9°C | 62.0% | 933.1hPa | 2.7V | 00:00:00 | 03:33:12 | 00:00:00 | |
| DO3MHA-11 | 2026-08-30 14:17:36 | 49.09971 | 11.20383 | 95° | 20km/h | 761m | -1.5m/s | 20.9°C | 62.0% | 933.1hPa | 2.7V | 06:56:00 | 03:33:12 | 00:00:00 | |
| NBG1-10 | 2026-08-30 14:17:34 | 49.09972 | 11.20368 | 95° | 20km/h | 764m | -1.7m/s | 20.9°C | 62.1% | 932.8hPa | 2.7V | 00:00:00 | 03:33:10 | 00:00:00 | |
| DO3MHA-11 | 2026-08-30 14:17:34 | 49.09972 | 11.20368 | 95° | 20km/h | 764m | -1.7m/s | 20.9°C | 62.1% | 932.8hPa | 2.7V | 00:00:00 | 03:33:10 | 00:00:00 | |
| NBG1-10 | 2026-08-30 14:17:32 | 49.09973 | 11.20353 | 103° | 20km/h | 768m | -1.5m/s | 20.9°C | 62.2% | 932.3hPa | 2.7V | 06:56:00 | 03:33:08 | 00:00:00 | |
| DO3MHA-11 | 2026-08-30 14:17:32 | 49.09973 | 11.20353 | 103° | 20km/h | 768m | -1.5m/s | 20.9°C | 62.2% | 932.3hPa | 2.7V | 00:00:00 | 03:33:08 | 00:00:00 | |
| NBG1-10 | 2026-08-30 14:17:28 | 49.09978 | 11.20321 | 102° | 22km/h | 774m | -1.8m/s | 20.8°C | 62.6% | 931.7hPa | 2.7V | 00:00:00 | 03:33:04 | 00:00:00 | |
| DO3MHA-11 | 2026-08-30 14:17:28 | 49.09978 | 11.20321 | 102° | 22km/h | 774m | -1.8m/s | 20.8°C | 62.6% | 931.7hPa | 2.7V | 00:00:00 | 03:33:04 | 00:00:00 | |
| NBG1-10 | 2026-08-30 14:17:26 | 49.09980 | 11.20305 | 99° | 22km/h | 778m | -2.1m/s | 20.8°C | 62.5% | 931.3hPa | 2.7V | 00:00:00 | 03:33:02 | 00:00:00 | |
| DO3MHA-11 | 2026-08-30 14:17:26 | 49.09980 | 11.20305 | 99° | 22km/h | 778m | -2.1m/s | 20.8°C | 62.5% | 931.3hPa | 2.7V | 00:00:00 | 03:33:02 | 00:00:00 | |
| NBG1-10 | 2026-08-30 14:17:24 | 49.09981 | 11.20289 | 92° | 18km/h | 782m | -1.4m/s | 20.8°C | 62.6% | 930.8hPa | 2.7V | 00:00:00 | 03:33:00 | 00:00:00 | |
| DO3MHA-11 | 2026-08-30 14:17:24 | 49.09981 | 11.20289 | 92° | 18km/h | 782m | -1.4m/s | 20.8°C | 62.6% | 930.8hPa | 2.7V | 00:00:00 | 03:33:00 | 00:00:00 | |
| NBG1-10 | 2026-08-30 14:17:22 | 49.09981 | 11.20275 | 95° | 18km/h | 785m | -1.6m/s | 20.7°C | 62.9% | 930.5hPa | 2.7V | 00:00:00 | 03:32:58 | 00:00:00 | |
| DO3MHA-11 | 2026-08-30 14:17:22 | 49.09981 | 11.20275 | 95° | 18km/h | 785m | -1.6m/s | 20.7°C | 62.9% | 930.5hPa | 2.7V | 06:57:00 | 03:32:58 | 00:00:00 | |
| NBG1-10 | 2026-08-30 14:17:20 | 49.09982 | 11.20260 | 93° | 18km/h | 789m | -1.7m/s | 20.7°C | 63.1% | 930.1hPa | 2.7V | 00:00:00 | 03:32:56 | 00:00:00 | |
| DO3MHA-11 | 2026-08-30 14:17:20 | 49.09982 | 11.20260 | 93° | 18km/h | 789m | -1.7m/s | 20.7°C | 63.1% | 930.1hPa | 2.7V | 00:00:00 | 03:32:56 | 00:00:00 | |
| NBG1-10 | 2026-08-30 14:17:18 | 49.09982 | 11.20246 | 99° | 20km/h | 792m | -1.7m/s | 20.6°C | 63.2% | 929.7hPa | 2.7V | 06:57:00 | 03:32:54 | 00:00:00 | |
| DO3MHA-11 | 2026-08-30 14:17:18 | 49.09982 | 11.20246 | 99° | 20km/h | 792m | -1.7m/s | 20.6°C | 63.2% | 929.7hPa | 2.7V | 00:00:00 | 03:32:54 | 00:00:00 | |
| NBG1-10 | 2026-08-30 14:17:16 | 49.09984 | 11.20231 | 97° | 20km/h | 796m | -1.8m/s | 20.6°C | 63.3% | 929.4hPa | 2.7V | 00:00:00 | 03:32:52 | 00:00:00 | |
| DO3MHA-11 | 2026-08-30 14:17:16 | 49.09984 | 11.20231 | 97° | 20km/h | 796m | -1.8m/s | 20.6°C | 63.3% | 929.4hPa | 2.7V | 00:00:00 | 03:32:52 | 00:00:00 | |
| NBG1-10 | 2026-08-30 14:17:14 | 49.09985 | 11.20215 | 96° | 20km/h | 799m | -1.7m/s | 20.5°C | 63.4% | 929.0hPa | 2.7V | 00:00:00 | 03:32:50 | 00:00:00 | |
| DO3MHA-11 | 2026-08-30 14:17:14 | 49.09985 | 11.20215 | 96° | 20km/h | 799m | -1.7m/s | 20.5°C | 63.4% | 929.0hPa | 2.7V | 00:00:00 | 03:32:50 | 00:00:00 | |
| NBG1-10 | 2026-08-30 14:17:12 | 49.09986 | 11.20200 | 93° | 22km/h | 803m | -1.9m/s | 20.5°C | 63.4% | 928.7hPa | 2.7V | 00:00:00 | 03:32:48 | 00:00:00 | |
| DO3MHA-11 | 2026-08-30 14:17:12 | 49.09986 | 11.20200 | 93° | 20km/h | 803m | -1.9m/s | 20.5°C | 63.4% | 928.7hPa | 2.7V | 00:00:00 | 03:32:48 | 00:00:00 | |
| NBG1-10 | 2026-08-30 14:17:10 | 49.09986 | 11.20184 | 90° | 20km/h | 806m | -1.6m/s | 20.5°C | 63.6% | 928.1hPa | 2.7V | 00:00:00 | 03:32:46 | 00:00:00 | |
| DO3MHA-11 | 2026-08-30 14:17:09 | 49.09986 | 11.20176 | 91° | 20km/h | 808m | -1.6m/s | 20.5°C | 63.6% | 928.1hPa | 2.7V | 00:00:00 | 03:32:45 | 00:00:00 | |
| NBG1-10 | 2026-08-30 14:17:08 | 49.09986 | 11.20168 | 93° | 22km/h | 810m | -2.0m/s | 20.5°C | 63.7% | 927.8hPa | 2.7V | 00:00:00 | 03:32:44 | 00:00:00 | |
| DO3MHA-11 | 2026-08-30 14:17:07 | 49.09986 | 11.20160 | 92° | 20km/h | 811m | -1.8m/s | 20.5°C | 63.8% | 927.6hPa | 2.7V | 06:57:00 | 03:32:43 | 00:00:00 | |
| NBG1-10 | 2026-08-30 14:17:06 | 49.09987 | 11.20151 | 95° | 20km/h | 813m | -1.6m/s | 20.4°C | 63.8% | 927.4hPa | 2.7V | 00:00:00 | 03:32:42 | 00:00:00 | |
| DO3MHA-11 | 2026-08-30 14:17:05 | 49.09987 | 11.20144 | 100° | 20km/h | 815m | -1.6m/s | 20.4°C | 63.8% | 927.3hPa | 2.7V | 00:00:00 | 03:32:41 | 00:00:00 | |
| NBG1-10 | 2026-08-30 14:17:04 | 49.09988 | 11.20136 | 103° | 20km/h | 817m | -1.7m/s | 20.4°C | 64.1% | 927.0hPa | 2.7V | 06:57:00 | 03:32:40 | 00:00:00 | |
| DO3MHA-11 | 2026-08-30 14:17:03 | 49.09989 | 11.20129 | 102° | 20km/h | 819m | -2.1m/s | 20.3°C | 64.0% | 926.8hPa | 2.7V | 00:00:00 | 03:32:39 | 00:00:00 | |
| NBG1-10 | 2026-08-30 14:17:02 | 49.09990 | 11.20121 | 100° | 20km/h | 821m | -1.7m/s | 20.3°C | 64.1% | 926.6hPa | 2.7V | 00:00:00 | 03:32:38 | 00:00:00 | |
| DO3MHA-11 | 2026-08-30 14:17:01 | 49.09991 | 11.20113 | 100° | 20km/h | 822m | -1.6m/s | 20.3°C | 64.2% | 926.3hPa | 2.7V | 00:00:00 | 03:32:37 | 00:00:00 | |
| NBG1-10 | 2026-08-30 14:17:00 | 49.09992 | 11.20105 | 103° | 22km/h | 824m | -1.9m/s | 20.3°C | 64.2% | 926.1hPa | 2.7V | 00:00:00 | 03:32:36 | 00:00:00 | |
| DO3MHA-11 | 2026-08-30 14:16:59 | 49.09993 | 11.20097 | 103° | 22km/h | 826m | -1.8m/s | 20.3°C | 64.3% | 925.9hPa | 2.7V | 00:00:00 | 03:32:35 | 00:00:00 | |
| NBG1-10 | 2026-08-30 14:16:58 | 49.09994 | 11.20089 | 101° | 22km/h | 828m | -1.8m/s | 20.2°C | 64.3% | 925.7hPa | 2.7V | 00:00:00 | 03:32:34 | 00:00:00 | |
| DO3MHA-11 | 2026-08-30 14:16:57 | 49.09995 | 11.20080 | 102° | 22km/h | 830m | -1.9m/s | 20.2°C | 64.6% | 925.5hPa | 2.7V | 00:00:00 | 03:32:33 | 00:00:00 | |
| NBG1-10 | 2026-08-30 14:16:56 | 49.09997 | 11.20072 | 106° | 22km/h | 832m | -2.1m/s | 20.2°C | 64.6% | 925.5hPa | 2.7V | 00:00:00 | 03:32:32 | 00:00:00 | |
| DO3MHA-11 | 2026-08-30 14:16:55 | 49.09998 | 11.20064 | 107° | 24km/h | 834m | -2.0m/s | 20.2°C | 64.5% | 925.1hPa | 2.7V | 00:00:00 | 03:32:31 | 00:00:00 | |
| NBG1-10 | 2026-08-30 14:16:54 | 49.10000 | 11.20055 | 104° | 24km/h | 836m | -1.9m/s | 20.1°C | 64.8% | 924.9hPa | 2.7V | 00:00:00 | 03:32:30 | 00:00:00 | |
| DO3MHA-11 | 2026-08-30 14:16:53 | 49.10001 | 11.20047 | 102° | 22km/h | 838m | -1.8m/s | 20.1°C | 64.6% | 924.7hPa | 2.7V | 06:57:00 | 03:32:29 | 00:00:00 | |
| NBG1-10 | 2026-08-30 14:16:52 | 49.10002 | 11.20038 | 103° | 22km/h | 840m | -2.2m/s | 20.1°C | 64.8% | 924.4hPa | 2.7V | 00:00:00 | 03:32:28 | 00:00:00 | |
| DO3MHA-11 | 2026-08-30 14:16:51 | 49.10003 | 11.20030 | 106° | 20km/h | 842m | -2.1m/s | 20.1°C | 64.7% | 924.5hPa | 2.7V | 00:00:00 | 03:32:27 | 00:00:00 | |
| NBG1-10 | 2026-08-30 14:16:50 | 49.10005 | 11.20023 | 106° | 20km/h | 844m | -2.3m/s | 20.1°C | 64.8% | 924.0hPa | 2.7V | 06:57:00 | 03:32:26 | 00:00:00 | |
| DO3MHA-11 | 2026-08-30 14:16:49 | 49.10006 | 11.20015 | 104° | 20km/h | 846m | -2.3m/s | 20.1°C | 65.0% | 923.8hPa | 2.7V | 00:00:00 | 03:32:25 | 00:00:00 | |
| NBG1-10 | 2026-08-30 14:16:48 | 49.10007 | 11.20007 | 101° | 18km/h | 849m | -2.1m/s | 20.0°C | 65.1% | 923.6hPa | 2.7V | 00:00:00 | 03:32:24 | 00:00:00 | |
| DO3MHA-11 | 2026-08-30 14:16:47 | 49.10008 | 11.20000 | 103° | 18km/h | 851m | -2.1m/s | 20.0°C | 65.0% | 923.3hPa | 2.7V | 00:00:00 | 03:32:23 | 00:00:00 | |
| NBG1-10 | 2026-08-30 14:16:46 | 49.10009 | 11.19994 | 105° | 18km/h | 853m | -2.3m/s | 20.0°C | 65.2% | 923.0hPa | 2.7V | 00:00:00 | 03:32:22 | 00:00:00 | |
| DO3MHA-11 | 2026-08-30 14:16:45 | 49.10010 | 11.19986 | 103° | 20km/h | 856m | -2.2m/s | 19.9°C | 65.2% | 922.8hPa | 2.7V | 00:00:00 | 03:32:21 | 00:00:00 | |
| NBG1-10 | 2026-08-30 14:16:44 | 49.10011 | 11.19979 | 100° | 20km/h | 857m | -1.8m/s | 19.9°C | 65.2% | 922.6hPa | 2.7V | 00:00:00 | 03:32:20 | 00:00:00 | |
| DO3MHA-11 | 2026-08-30 14:16:43 | 49.10012 | 11.19972 | 100° | 20km/h | 860m | -2.2m/s | 19.9°C | 65.2% | 922.4hPa | 2.7V | 00:00:00 | 03:32:19 | 00:00:00 | |
| NBG1-10 | 2026-08-30 14:16:42 | 49.10013 | 11.19964 | 103° | 22km/h | 862m | -2.3m/s | 19.9°C | 65.7% | 922.0hPa | 2.7V | 00:00:00 | 03:32:18 | 00:00:00 | |
| DO3MHA-11 | 2026-08-30 14:16:41 | 49.10014 | 11.19956 | 106° | 22km/h | 864m | -1.8m/s | 19.9°C | 65.7% | 922.0hPa | 2.7V | 00:00:00 | 03:32:17 | 00:00:00 | |
| NBG1-10 | 2026-08-30 14:16:40 | 49.10016 | 11.19947 | 102° | 24km/h | 866m | -2.4m/s | 19.9°C | 65.8% | 921.7hPa | 2.7V | 00:00:00 | 03:32:16 | 00:00:00 | |
| DO3MHA-11 | 2026-08-30 14:16:39 | 49.10017 | 11.19939 | 101° | 22km/h | 868m | -2.1m/s | 19.8°C | 65.7% | 921.2hPa | 2.7V | 06:57:00 | 03:32:15 | 00:00:00 | |
| NBG1-10 | 2026-08-30 14:16:38 | 49.10018 | 11.19930 | 101° | 22km/h | 871m | -2.3m/s | 19.8°C | 66.2% | 921.3hPa | 2.7V | 00:00:00 | 03:32:14 | 00:00:00 | |
| DO3MHA-11 | 2026-08-30 14:16:37 | 49.10019 | 11.19922 | 104° | 22km/h | 873m | -2.3m/s | 19.8°C | 66.0% | 920.8hPa | 2.7V | 00:00:00 | 03:32:13 | 00:00:00 | |
| NBG1-10 | 2026-08-30 14:16:36 | 49.10020 | 11.19914 | 103° | 22km/h | 875m | -3.0m/s | 19.8°C | 66.1% | 920.7hPa | 2.7V | 06:57:00 | 03:32:12 | 00:00:00 | |
| DO3MHA-11 | 2026-08-30 14:16:35 | 49.10021 | 11.19906 | 101° | 20km/h | 879m | -3.2m/s | 19.7°C | 66.2% | 920.4hPa | 2.7V | 00:00:00 | 03:32:11 | 00:00:00 | |
| NBG1-10 | 2026-08-30 14:16:34 | 49.10022 | 11.19898 | 97° | 20km/h | 882m | -3.0m/s | 19.7°C | 66.3% | 920.0hPa | 2.7V | 00:00:00 | 03:32:10 | 00:00:00 | |
| DO3MHA-11 | 2026-08-30 14:16:33 | 49.10023 | 11.19890 | 100° | 20km/h | 885m | -3.0m/s | 19.7°C | 66.5% | 919.6hPa | 2.7V | 00:00:00 | 03:32:09 | 00:00:00 | |
| NBG1-10 | 2026-08-30 14:16:32 | 49.10024 | 11.19882 | 101° | 22km/h | 888m | -2.9m/s | 19.7°C | 66.6% | 919.4hPa | 2.7V | 00:00:00 | 03:32:08 | 00:00:00 | |
| DO3MHA-11 | 2026-08-30 14:16:31 | 49.10025 | 11.19874 | 100° | 22km/h | 891m | -3.0m/s | 19.6°C | 66.6% | 919.1hPa | 2.7V | 00:00:00 | 03:32:07 | 00:00:00 | |
| NBG1-10 | 2026-08-30 14:16:30 | 49.10025 | 11.19865 | 98° | 22km/h | 894m | -2.5m/s | 19.6°C | 66.7% | 918.9hPa | 2.7V | 00:00:00 | 03:32:06 | 00:00:00 | |
| DO3MHA-11 | 2026-08-30 14:16:29 | 49.10026 | 11.19857 | 98° | 22km/h | 897m | -3.3m/s | 19.6°C | 66.9% | 918.3hPa | 2.7V | 00:00:00 | 03:32:05 | 00:00:00 | |
| NBG1-10 | 2026-08-30 14:16:28 | 49.10027 | 11.19849 | 102° | 22km/h | 900m | -3.2m/s | 19.5°C | 67.0% | 918.0hPa | 2.7V | 00:00:00 | 03:32:04 | 00:00:00 | |
| DO3MHA-11 | 2026-08-30 14:16:27 | 49.10028 | 11.19841 | 104° | 22km/h | 903m | -2.7m/s | 19.5°C | 67.1% | 917.9hPa | 2.7V | 00:00:00 | 03:32:03 | 00:00:00 | |
| DO3MHA-11 | 2026-08-30 14:16:25 | 49.10031 | 11.19824 | 106° | 22km/h | 908m | -2.5m/s | 19.5°C | 67.3% | 917.2hPa | 2.7V | 06:58:00 | 03:32:01 | 00:00:00 | |
| NBG1-10 | 2026-08-30 14:16:24 | 49.10033 | 11.19816 | 106° | 22km/h | 911m | -2.7m/s | 19.5°C | 67.4% | 917.0hPa | 2.7V | 00:00:00 | 03:32:00 | 00:00:00 | |
| DO3MHA-11 | 2026-08-30 14:16:23 | 49.10034 | 11.19808 | 109° | 22km/h | 913m | -2.4m/s | 19.4°C | 67.5% | 916.5hPa | 2.7V | 00:00:00 | 03:31:59 | 00:00:00 | |
| DO3MHA-11 | 2026-08-30 14:16:21 | 49.10038 | 11.19792 | 107° | 22km/h | 919m | -2.7m/s | 19.4°C | 67.6% | 916.2hPa | 2.7V | 00:00:00 | 03:31:57 | 00:00:00 | |
| DO3MHA-11 | 2026-08-30 14:16:19 | 49.10040 | 11.19776 | 100° | 20km/h | 924m | -2.3m/s | 19.3°C | 67.7% | 915.5hPa | 2.7V | 00:00:00 | 03:31:55 | 00:00:00 | |
| NBG1-10 | 2026-08-30 14:16:17 | 49.10042 | 11.19761 | 100° | 22km/h | 929m | -2.3m/s | 19.3°C | 67.8% | 914.9hPa | 2.7V | 00:00:00 | 03:31:53 | 00:00:00 | |
| DO3MHA-11 | 2026-08-30 14:16:17 | 49.10042 | 11.19761 | 100° | 20km/h | 929m | -2.3m/s | 19.3°C | 67.8% | 914.9hPa | 2.7V | 00:00:00 | 03:31:53 | 00:00:00 | |
| DO3MHA-11 | 2026-08-30 14:16:15 | 49.10043 | 11.19745 | 94° | 22km/h | 934m | -1.8m/s | 19.2°C | 67.9% | 914.7hPa | 2.7V | 00:00:00 | 03:31:51 | 00:00:00 | |
| DO3MHA-11 | 2026-08-30 14:16:13 | 49.10044 | 11.19728 | 96° | 22km/h | 937m | -1.7m/s | 19.2°C | 67.8% | 914.1hPa | 2.7V | 00:00:00 | 03:31:49 | 00:00:00 | |
| DO3MHA-11 | 2026-08-30 14:16:11 | 49.10045 | 11.19711 | 99° | 22km/h | 941m | -1.7m/s | 19.2°C | 68.0% | 913.8hPa | 2.7V | 06:58:00 | 03:31:47 | 00:00:00 | |
| NBG1-10 | 2026-08-30 14:16:10 | 49.10046 | 11.19703 | 100° | 22km/h | 943m | -1.9m/s | 19.1°C | 68.1% | 913.5hPa | 2.7V | 06:58:00 | 03:31:46 | 00:00:00 | |
| DO3MHA-11 | 2026-08-30 14:16:09 | 49.10047 | 11.19695 | 102° | 22km/h | 945m | -2.1m/s | 19.1°C | 68.1% | 913.3hPa | 2.7V | 00:00:00 | 03:31:45 | 00:00:00 | |
| DO3MHA-11 | 2026-08-30 14:16:07 | 49.10050 | 11.19678 | 103° | 22km/h | 949m | -2.0m/s | 19.1°C | 68.3% | 912.9hPa | 2.7V | 00:00:00 | 03:31:43 | 00:00:00 | |
| DO3MHA-11 | 2026-08-30 14:16:05 | 49.10052 | 11.19662 | 103° | 20km/h | 953m | -2.5m/s | 19.0°C | 68.2% | 912.6hPa | 2.7V | 00:00:00 | 03:31:41 | 00:00:00 | |
| NBG1-10 | 2026-08-30 14:16:03 | 49.10054 | 11.19647 | 103° | 20km/h | 958m | -2.3m/s | 19.0°C | 68.3% | 912.0hPa | 2.7V | 00:00:00 | 03:31:39 | 00:00:00 | |
| DO3MHA-11 | 2026-08-30 14:16:03 | 49.10054 | 11.19647 | 103° | 22km/h | 958m | -2.3m/s | 19.0°C | 68.3% | 912.0hPa | 2.7V | 00:00:00 | 03:31:39 | 00:00:00 | |
| DO3MHA-11 | 2026-08-30 14:16:01 | 49.10056 | 11.19631 | 96° | 20km/h | 962m | -2.0m/s | 19.0°C | 68.3% | 911.6hPa | 2.7V | 00:00:00 | 03:31:37 | 00:00:00 | |
| DO3MHA-11 | 2026-08-30 14:15:59 | 49.10057 | 11.19616 | 97° | 20km/h | 967m | -2.2m/s | 18.9°C | 68.5% | 911.1hPa | 2.7V | 00:00:00 | 03:31:35 | 00:00:00 | |
| DO3MHA-11 | 2026-08-30 14:15:57 | 49.10058 | 11.19600 | 95° | 20km/h | 971m | -2.2m/s | 18.9°C | 68.8% | 910.8hPa | 2.7V | 06:58:00 | 03:31:33 | 00:00:00 | |
| NBG1-10 | 2026-08-30 14:15:56 | 49.10058 | 11.19592 | 96° | 22km/h | 973m | -1.8m/s | 18.9°C | 69.0% | 910.3hPa | 2.7V | 00:00:00 | 03:31:32 | 00:00:00 | |
| DO3MHA-11 | 2026-08-30 14:15:55 | 49.10059 | 11.19584 | 99° | 22km/h | 975m | -2.1m/s | 18.8°C | 69.1% | 910.3hPa | 2.7V | 00:00:00 | 03:31:31 | 00:00:00 | |
| DO3MHA-11 | 2026-08-30 14:15:53 | 49.10060 | 11.19567 | 95° | 22km/h | 979m | -1.9m/s | 18.8°C | 69.2% | 909.6hPa | 2.7V | 00:00:00 | 03:31:29 | 00:00:00 | |
| DO3MHA-11 | 2026-08-30 14:15:51 | 49.10062 | 11.19551 | 99° | 22km/h | 983m | -2.3m/s | 18.7°C | 69.5% | 909.2hPa | 2.7V | 00:00:00 | 03:31:27 | 00:00:00 | |
| NBG1-10 | 2026-08-30 14:15:49 | 49.10063 | 11.19534 | 99° | 22km/h | 988m | -2.6m/s | 18.7°C | 69.5% | 908.6hPa | 2.7V | 00:00:00 | 03:31:25 | 00:00:00 | |
| DO3MHA-11 | 2026-08-30 14:15:49 | 49.10063 | 11.19534 | 99° | 22km/h | 988m | -2.6m/s | 18.7°C | 69.5% | 908.6hPa | 2.7V | 00:00:00 | 03:31:25 | 00:00:00 | |
| DO3MHA-11 | 2026-08-30 14:15:47 | 49.10065 | 11.19516 | 98° | 22km/h | 993m | -2.8m/s | 18.6°C | 69.6% | 908.3hPa | 2.7V | 00:00:00 | 03:31:23 | 00:00:00 | |
| DO3MHA-11 | 2026-08-30 14:15:45 | 49.10067 | 11.19500 | 100° | 22km/h | 999m | -2.7m/s | 18.6°C | 69.9% | 907.7hPa | 2.7V | 00:00:00 | 03:31:21 | 00:00:00 | |
| DO3MHA-11 | 2026-08-30 14:15:43 | 49.10068 | 11.19483 | 96° | 22km/h | 1004m | -2.7m/s | 18.6°C | 70.3% | 907.1hPa | 2.7V | 06:58:00 | 03:31:19 | 00:00:00 | |
| NBG1-10 | 2026-08-30 14:15:42 | 49.10069 | 11.19474 | 97° | 22km/h | 1007m | -2.7m/s | 18.5°C | 70.4% | 906.9hPa | 2.7V | 00:00:00 | 03:31:18 | 00:00:00 | |
| DO3MHA-11 | 2026-08-30 14:15:41 | 49.10069 | 11.19467 | 98° | 20km/h | 1010m | -2.6m/s | 18.5°C | 70.5% | 906.7hPa | 2.7V | 00:00:00 | 03:31:17 | 00:00:00 | |
| DO3MHA-11 | 2026-08-30 14:15:39 | 49.10071 | 11.19451 | 98° | 22km/h | 1016m | -2.8m/s | 18.4°C | 70.5% | 906.1hPa | 2.7V | 00:00:00 | 03:31:15 | 00:00:00 | |
| DO3MHA-11 | 2026-08-30 14:15:37 | 49.10072 | 11.19434 | 95° | 22km/h | 1021m | -2.6m/s | 18.4°C | 70.7% | 905.4hPa | 2.7V | 00:00:00 | 03:31:13 | 00:00:00 | |
| NBG1-10 | 2026-08-30 14:15:35 | 49.10073 | 11.19417 | 91° | 24km/h | 1027m | -2.8m/s | 18.3°C | 70.8% | 904.9hPa | 2.7V | 00:00:00 | 03:31:11 | 00:00:00 | |
| DO3MHA-11 | 2026-08-30 14:15:35 | 49.10073 | 11.19417 | 91° | 24km/h | 1027m | -2.8m/s | 18.3°C | 70.8% | 904.9hPa | 2.7V | 00:00:00 | 03:31:11 | 00:00:00 | |
| DO3MHA-11 | 2026-08-30 14:15:33 | 49.10072 | 11.19399 | 87° | 24km/h | 1032m | -2.9m/s | 18.3°C | 70.8% | 904.1hPa | 2.7V | 00:00:00 | 03:31:09 | 00:00:00 | |
| DO3MHA-11 | 2026-08-30 14:15:31 | 49.10071 | 11.19380 | 89° | 26km/h | 1039m | -3.1m/s | 18.2°C | 71.1% | 903.5hPa | 2.7V | 00:00:00 | 03:31:07 | 00:00:00 | |
| DO3MHA-11 | 2026-08-30 14:15:29 | 49.10071 | 11.19361 | 87° | 24km/h | 1045m | -3.1m/s | 18.2°C | 71.1% | 903.0hPa | 2.7V | 06:58:00 | 03:31:05 | 00:00:00 | |
| NBG1-10 | 2026-08-30 14:15:28 | 49.10070 | 11.19352 | 87° | 24km/h | 1048m | -2.2m/s | 18.1°C | 71.2% | 902.6hPa | 2.7V | 00:00:00 | 03:31:04 | 00:00:00 | |
| DO3MHA-11 | 2026-08-30 14:15:27 | 49.10070 | 11.19343 | 89° | 24km/h | 1050m | -2.4m/s | 18.1°C | 71.2% | 902.4hPa | 2.7V | 00:00:00 | 03:31:03 | 00:00:00 | |
| DO3MHA-11 | 2026-08-30 14:15:25 | 49.10069 | 11.19324 | 86° | 24km/h | 1055m | -2.5m/s | 18.0°C | 71.4% | 901.9hPa | 2.7V | 00:00:00 | 03:31:01 | 00:00:00 | |
| DO3MHA-11 | 2026-08-30 14:15:23 | 49.10069 | 11.19306 | 87° | 24km/h | 1059m | -2.2m/s | 18.0°C | 71.6% | 901.2hPa | 2.7V | 00:00:00 | 03:30:59 | 00:00:00 | |
| NBG1-10 | 2026-08-30 14:15:21 | 49.10068 | 11.19288 | 84° | 24km/h | 1064m | -2.1m/s | 18.0°C | 71.7% | 900.9hPa | 2.7V | 06:59:00 | 03:30:57 | 00:00:00 | |
| DO3MHA-11 | 2026-08-30 14:15:21 | 49.10068 | 11.19288 | 84° | 24km/h | 1064m | -2.1m/s | 18.0°C | 71.7% | 900.9hPa | 2.7V | 00:00:00 | 03:30:57 | 00:00:00 | |
| DO3MHA-11 | 2026-08-30 14:15:19 | 49.10067 | 11.19270 | 87° | 24km/h | 1068m | -2.1m/s | 17.9°C | 72.1% | 900.4hPa | 2.7V | 00:00:00 | 03:30:55 | 00:00:00 | |
| DO3MHA-11 | 2026-08-30 14:15:17 | 49.10067 | 11.19251 | 89° | 26km/h | 1073m | -2.5m/s | 17.9°C | 72.2% | 899.8hPa | 2.7V | 00:00:00 | 03:30:53 | 00:00:00 | |
| DO3MHA-11 | 2026-08-30 14:15:15 | 49.10067 | 11.19232 | 94° | 26km/h | 1079m | -2.8m/s | 17.8°C | 72.4% | 899.3hPa | 2.7V | 06:59:00 | 03:30:51 | 00:00:00 | |
| NBG1-10 | 2026-08-30 14:15:14 | 49.10067 | 11.19222 | 92° | 24km/h | 1082m | -2.6m/s | 17.8°C | 72.4% | 898.9hPa | 2.7V | 00:00:00 | 03:30:50 | 00:00:00 | |
| DO3MHA-11 | 2026-08-30 14:15:13 | 49.10067 | 11.19212 | 91° | 24km/h | 1084m | -2.8m/s | 17.8°C | 72.5% | 898.7hPa | 2.7V | 00:00:00 | 03:30:49 | 00:00:00 | |
| DO3MHA-11 | 2026-08-30 14:15:11 | 49.10067 | 11.19194 | 90° | 24km/h | 1090m | -2.7m/s | 17.7°C | 72.6% | 897.9hPa | 2.7V | 00:00:00 | 03:30:47 | 00:00:00 | |
| DO3MHA-11 | 2026-08-30 14:15:09 | 49.10067 | 11.19175 | 87° | 24km/h | 1095m | -2.6m/s | 17.7°C | 72.8% | 897.5hPa | 2.7V | 00:00:00 | 03:30:45 | 00:00:00 | |
| DO3MHA-11 | 2026-08-30 14:15:07 | 49.10066 | 11.19157 | 88° | 24km/h | 1101m | -2.8m/s | 17.6°C | 72.9% | 897.1hPa | 2.7V | 00:00:00 | 03:30:43 | 00:00:00 | |
| NBG1-10 | 2026-08-30 14:15:07 | 49.10066 | 11.19157 | 88° | 24km/h | 1101m | -2.8m/s | 17.6°C | 72.9% | 897.1hPa | 2.7V | 00:00:00 | 03:30:43 | 00:00:00 | |
| DO3MHA-11 | 2026-08-30 14:15:05 | 49.10065 | 11.19139 | 83° | 22km/h | 1106m | -2.5m/s | 17.6°C | 73.2% | 896.4hPa | 2.7V | 00:00:00 | 03:30:41 | 00:00:00 | |
| DO3MHA-11 | 2026-08-30 14:15:03 | 49.10064 | 11.19122 | 86° | 24km/h | 1112m | -2.9m/s | 17.6°C | 73.4% | 895.8hPa | 2.7V | 00:00:00 | 03:30:39 | 00:00:00 | |
| DO3MHA-11 | 2026-08-30 14:15:01 | 49.10063 | 11.19104 | 87° | 24km/h | 1117m | -2.6m/s | 17.5°C | 73.5% | 895.4hPa | 2.7V | 06:59:00 | 03:30:37 | 00:00:00 | |
| NBG1-10 | 2026-08-30 14:15:00 | 49.10063 | 11.19095 | 87° | 24km/h | 1120m | -2.4m/s | 17.5°C | 73.6% | 895.0hPa | 2.7V | 00:00:00 | 03:30:36 | 00:00:00 | |
| DO3MHA-11 | 2026-08-30 14:14:59 | 49.10063 | 11.19086 | 90° | 24km/h | 1123m | -2.8m/s | 17.5°C | 73.7% | 894.8hPa | 2.7V | 00:00:00 | 03:30:35 | 00:00:00 | |
| DO3MHA-11 | 2026-08-30 14:14:57 | 49.10063 | 11.19067 | 89° | 24km/h | 1128m | -2.7m/s | 17.4°C | 74.1% | 894.2hPa | 2.7V | 00:00:00 | 03:30:33 | 00:00:00 | |
| DO3MHA-11 | 2026-08-30 14:14:55 | 49.10063 | 11.19048 | 90° | 24km/h | 1134m | -2.9m/s | 17.3°C | 74.6% | 893.6hPa | 2.7V | 00:00:00 | 03:30:31 | 00:00:00 | |
| NBG1-10 | 2026-08-30 14:14:53 | 49.10062 | 11.19030 | 85° | 22km/h | 1140m | -2.8m/s | 17.3°C | 74.7% | 893.0hPa | 2.7V | 00:00:00 | 03:30:29 | 00:00:00 | |
| DO3MHA-11 | 2026-08-30 14:14:53 | 49.10062 | 11.19030 | 85° | 22km/h | 1140m | -2.8m/s | 17.3°C | 74.7% | 893.0hPa | 2.7V | 00:00:00 | 03:30:29 | 00:00:00 | |
| DO3MHA-11 | 2026-08-30 14:14:51 | 49.10061 | 11.19013 | 89° | 22km/h | 1146m | -2.8m/s | 17.3°C | 74.6% | 892.4hPa | 2.7V | 00:00:00 | 03:30:27 | 00:00:00 | |
| DO3MHA-11 | 2026-08-30 14:14:49 | 49.10061 | 11.18996 | 86° | 22km/h | 1152m | -3.2m/s | 17.2°C | 74.8% | 891.8hPa | 2.7V | 00:00:00 | 03:30:25 | 00:00:00 | |
| DO3MHA-11 | 2026-08-30 14:14:47 | 49.10060 | 11.18979 | 90° | 22km/h | 1158m | -2.9m/s | 17.1°C | 75.1% | 891.0hPa | 2.7V | 06:59:00 | 03:30:23 | 00:00:00 | |
| NBG1-10 | 2026-08-30 14:14:46 | 49.10060 | 11.18970 | 89° | 24km/h | 1161m | -2.8m/s | 17.1°C | 75.7% | 890.8hPa | 2.7V | 00:00:00 | 03:30:22 | 00:00:00 | |
| DO3MHA-11 | 2026-08-30 14:14:45 | 49.10060 | 11.18961 | 88° | 22km/h | 1164m | -2.9m/s | 17.0°C | 75.8% | 890.5hPa | 2.7V | 00:00:00 | 03:30:21 | 00:00:00 | |
| DO3MHA-11 | 2026-08-30 14:14:43 | 49.10060 | 11.18944 | 92° | 24km/h | 1170m | -2.8m/s | 17.0°C | 75.4% | 889.9hPa | 2.7V | 00:00:00 | 03:30:19 | 00:00:00 | |
| DO3MHA-11 | 2026-08-30 14:14:41 | 49.10060 | 11.18926 | 91° | 24km/h | 1175m | -2.9m/s | 17.0°C | 75.4% | 889.3hPa | 2.7V | 00:00:00 | 03:30:17 | 00:00:00 | |
| NBG1-10 | 2026-08-30 14:14:39 | 49.10060 | 11.18908 | 95° | 24km/h | 1181m | -2.9m/s | 16.9°C | 75.7% | 888.8hPa | 2.7V | 00:00:00 | 03:30:15 | 00:00:00 | |
| DO3MHA-11 | 2026-08-30 14:14:39 | 49.10060 | 11.18908 | 95° | 24km/h | 1181m | -2.9m/s | 16.9°C | 75.7% | 888.8hPa | 2.7V | 00:00:00 | 03:30:15 | 00:00:00 | |
| DO3MHA-11 | 2026-08-30 14:14:37 | 49.10061 | 11.18890 | 92° | 24km/h | 1187m | -2.8m/s | 16.9°C | 75.8% | 888.0hPa | 2.7V | 00:00:00 | 03:30:13 | 00:00:00 | |
| DO3MHA-11 | 2026-08-30 14:14:35 | 49.10061 | 11.18872 | 92° | 24km/h | 1193m | -3.0m/s | 16.8°C | 76.3% | 887.7hPa | 2.7V | 00:00:00 | 03:30:11 | 00:00:00 | |
| DO3MHA-11 | 2026-08-30 14:14:33 | 49.10061 | 11.18854 | 86° | 24km/h | 1198m | -2.9m/s | 16.8°C | 76.7% | 886.9hPa | 2.7V | 06:59:00 | 03:30:09 | 00:00:00 | |
| NBG1-10 | 2026-08-30 14:14:32 | 49.10060 | 11.18845 | 84° | 24km/h | 1202m | -2.9m/s | 16.7°C | 76.9% | 886.4hPa | 2.7V | 06:59:00 | 03:30:08 | 00:00:00 | |
| DO3MHA-11 | 2026-08-30 14:14:31 | 49.10060 | 11.18836 | 84° | 22km/h | 1205m | -2.9m/s | 16.7°C | 77.0% | 886.3hPa | 2.7V | 00:00:00 | 03:30:07 | 00:00:00 | |
| DO3MHA-11 | 2026-08-30 14:14:29 | 49.10059 | 11.18818 | 84° | 24km/h | 1210m | -2.7m/s | 16.6°C | 77.2% | 885.4hPa | 2.7V | 00:00:00 | 03:30:05 | 00:00:00 | |
| DO3MHA-11 | 2026-08-30 14:14:27 | 49.10057 | 11.18801 | 84° | 22km/h | 1216m | -2.8m/s | 16.5°C | 77.3% | 884.9hPa | 2.7V | 00:00:00 | 03:30:03 | 00:00:00 | |
| NBG1-10 | 2026-08-30 14:14:25 | 49.10057 | 11.18783 | 90° | 24km/h | 1221m | -2.5m/s | 16.5°C | 77.5% | 884.3hPa | 2.7V | 00:00:00 | 03:30:01 | 00:00:00 | |
| DO3MHA-11 | 2026-08-30 14:14:25 | 49.10057 | 11.18783 | 90° | 24km/h | 1221m | -2.5m/s | 16.5°C | 77.5% | 884.3hPa | 2.7V | 07:00:00 | 03:30:01 | 00:00:00 | |
| DO3MHA-11 | 2026-08-30 14:14:23 | 49.10056 | 11.18766 | 90° | 22km/h | 1226m | -2.5m/s | 16.5°C | 77.6% | 884.0hPa | 2.7V | 00:00:00 | 03:29:59 | 00:00:00 | |
| DO3MHA-11 | 2026-08-30 14:14:21 | 49.10057 | 11.18748 | 94° | 24km/h | 1231m | -2.6m/s | 16.4°C | 77.9% | 883.2hPa | 2.7V | 00:00:00 | 03:29:57 | 00:00:00 | |
| DO3MHA-11 | 2026-08-30 14:14:19 | 49.10057 | 11.18730 | 88° | 24km/h | 1236m | -2.2m/s | 16.4°C | 78.1% | 882.7hPa | 2.7V | 00:00:00 | 03:29:55 | 00:00:00 | |
| NBG1-10 | 2026-08-30 14:14:18 | 49.10057 | 11.18721 | 89° | 24km/h | 1238m | -2.4m/s | 16.3°C | 78.0% | 882.7hPa | 2.7V | 00:00:00 | 03:29:54 | 00:00:00 | |
| DO3MHA-11 | 2026-08-30 14:14:17 | 49.10057 | 11.18712 | 89° | 24km/h | 1241m | -2.5m/s | 16.3°C | 78.2% | 882.3hPa | 2.7V | 00:00:00 | 03:29:53 | 00:00:00 | |
| DO3MHA-11 | 2026-08-30 14:14:15 | 49.10056 | 11.18693 | 86° | 22km/h | 1246m | -2.4m/s | 16.2°C | 78.5% | 882.0hPa | 2.7V | 00:00:00 | 03:29:51 | 00:00:00 | |
| DO3MHA-11 | 2026-08-30 14:14:13 | 49.10055 | 11.18676 | 89° | 24km/h | 1251m | -2.3m/s | 16.2°C | 78.8% | 881.4hPa | 2.7V | 00:00:00 | 03:29:49 | 00:00:00 | |
| NBG1-10 | 2026-08-30 14:14:11 | 49.10055 | 11.18658 | 85° | 24km/h | 1255m | -2.3m/s | 16.1°C | 79.1% | 880.9hPa | 2.7V | 00:00:00 | 03:29:47 | 00:00:00 | |
| DO3MHA-11 | 2026-08-30 14:14:11 | 49.10055 | 11.18658 | 85° | 24km/h | 1255m | -2.3m/s | 16.1°C | 79.0% | 880.9hPa | 2.7V | 00:00:00 | 03:29:47 | 00:00:00 | |
| DO3MHA-11 | 2026-08-30 14:14:09 | 49.10054 | 11.18640 | 88° | 24km/h | 1260m | -2.8m/s | 16.1°C | 79.2% | 880.4hPa | 2.7V | 07:00:00 | 03:29:45 | 00:00:00 | |
| DO3MHA-11 | 2026-08-30 14:14:07 | 49.10053 | 11.18621 | 86° | 24km/h | 1266m | -2.7m/s | 16.0°C | 79.2% | 879.8hPa | 2.7V | 00:00:00 | 03:29:43 | 00:00:00 | |
| DO3MHA-11 | 2026-08-30 14:14:05 | 49.10052 | 11.18603 | 86° | 24km/h | 1271m | -2.8m/s | 16.0°C | 78.8% | 879.2hPa | 2.7V | 00:00:00 | 03:29:41 | 00:00:00 | |
| NBG1-10 | 2026-08-30 14:14:04 | 49.10052 | 11.18594 | 88° | 24km/h | 1273m | -2.6m/s | 16.0°C | 79.4% | 879.2hPa | 2.7V | 00:00:00 | 03:29:40 | 00:00:00 | |
| DO3MHA-11 | 2026-08-30 14:14:03 | 49.10051 | 11.18584 | 87° | 24km/h | 1276m | -2.5m/s | 16.0°C | 78.9% | 878.7hPa | 2.7V | 00:00:00 | 03:29:39 | 00:00:00 | |
| DO3MHA-11 | 2026-08-30 14:14:01 | 49.10051 | 11.18567 | 88° | 22km/h | 1281m | -2.5m/s | 16.0°C | 79.0% | 878.1hPa | 2.7V | 00:00:00 | 03:29:37 | 00:00:00 | |
| DO3MHA-11 | 2026-08-30 14:13:59 | 49.10051 | 11.18550 | 90° | 22km/h | 1286m | -2.3m/s | 15.9°C | 79.0% | 877.6hPa | 2.7V | 00:00:00 | 03:29:35 | 00:00:00 | |
| NBG1-10 | 2026-08-30 14:13:57 | 49.10051 | 11.18532 | 93° | 24km/h | 1291m | -2.5m/s | 15.9°C | 79.0% | 877.2hPa | 2.7V | 00:00:00 | 03:29:33 | 00:00:00 | |
| DO3MHA-11 | 2026-08-30 14:13:57 | 49.10051 | 11.18532 | 93° | 22km/h | 1291m | -2.5m/s | 15.9°C | 79.0% | 877.2hPa | 2.7V | 00:00:00 | 03:29:33 | 00:00:00 | |
| DO3MHA-11 | 2026-08-30 14:13:55 | 49.10051 | 11.18514 | 92° | 24km/h | 1296m | -2.4m/s | 15.8°C | 79.1% | 876.7hPa | 2.7V | 00:00:00 | 03:29:31 | 00:00:00 | |
| DO3MHA-11 | 2026-08-30 14:13:53 | 49.10051 | 11.18496 | 89° | 24km/h | 1301m | -2.5m/s | 15.8°C | 79.1% | 876.2hPa | 2.7V | 07:00:00 | 03:29:29 | 00:00:00 | |
| DO3MHA-11 | 2026-08-30 14:13:51 | 49.10051 | 11.18478 | 87° | 24km/h | 1306m | -2.5m/s | 15.7°C | 79.2% | 875.6hPa | 2.7V | 00:00:00 | 03:29:27 | 00:00:00 | |
| NBG1-10 | 2026-08-30 14:13:50 | 49.10050 | 11.18469 | 85° | 22km/h | 1309m | -2.5m/s | 15.7°C | 79.4% | 875.3hPa | 2.7V | 00:00:00 | 03:29:26 | 00:00:00 | |
| DO3MHA-11 | 2026-08-30 14:13:49 | 49.10050 | 11.18460 | 87° | 24km/h | 1311m | -2.6m/s | 15.7°C | 79.5% | 875.0hPa | 2.7V | 00:00:00 | 03:29:25 | 00:00:00 | |
| DO3MHA-11 | 2026-08-30 14:13:47 | 49.10049 | 11.18442 | 86° | 22km/h | 1317m | -2.6m/s | 15.6°C | 79.7% | 874.8hPa | 2.7V | 00:00:00 | 03:29:23 | 00:00:00 | |
| DO3MHA-11 | 2026-08-30 14:13:45 | 49.10048 | 11.18425 | 87° | 22km/h | 1322m | -2.6m/s | 15.6°C | 79.8% | 874.0hPa | 2.7V | 00:00:00 | 03:29:21 | 00:00:00 | |
| NBG1-10 | 2026-08-30 14:13:43 | 49.10047 | 11.18408 | 87° | 24km/h | 1327m | -2.6m/s | 15.5°C | 80.4% | 873.5hPa | 2.7V | 07:00:00 | 03:29:19 | 00:00:00 | |
| DO3MHA-11 | 2026-08-30 14:13:43 | 49.10047 | 11.18408 | 87° | 24km/h | 1327m | -2.6m/s | 15.5°C | 80.4% | 873.5hPa | 2.7V | 00:00:00 | 03:29:19 | 00:00:00 | |
| DO3MHA-11 | 2026-08-30 14:13:41 | 49.10046 | 11.18390 | 86° | 22km/h | 1332m | -2.3m/s | 15.5°C | 81.1% | 873.0hPa | 2.7V | 00:00:00 | 03:29:17 | 00:00:00 | |
| DO3MHA-11 | 2026-08-30 14:13:39 | 49.10045 | 11.18372 | 86° | 26km/h | 1337m | -2.0m/s | 15.4°C | 81.5% | 872.5hPa | 2.7V | 00:00:00 | 03:29:15 | 00:00:00 | |
| DO3MHA-11 | 2026-08-30 14:13:37 | 49.10044 | 11.18353 | 84° | 26km/h | 1342m | -2.8m/s | 15.4°C | 81.5% | 872.0hPa | 2.7V | 07:00:00 | 03:29:13 | 00:00:00 | |
| NBG1-10 | 2026-08-30 14:13:36 | 49.10043 | 11.18344 | 85° | 26km/h | 1344m | -2.5m/s | 15.4°C | 81.5% | 871.8hPa | 2.7V | 00:00:00 | 03:29:12 | 00:00:00 | |
| DO3MHA-11 | 2026-08-30 14:13:35 | 49.10043 | 11.18334 | 84° | 26km/h | 1347m | -2.6m/s | 15.3°C | 81.2% | 871.4hPa | 2.7V | 00:00:00 | 03:29:11 | 00:00:00 | |
| DO3MHA-11 | 2026-08-30 14:13:33 | 49.10041 | 11.18314 | 82° | 24km/h | 1353m | -2.8m/s | 15.3°C | 81.4% | 870.8hPa | 2.7V | 00:00:00 | 03:29:09 | 00:00:00 | |
| DO3MHA-11 | 2026-08-30 14:13:31 | 49.10040 | 11.18296 | 85° | 24km/h | 1358m | -2.6m/s | 15.2°C | 81.6% | 870.5hPa | 2.7V | 00:00:00 | 03:29:07 | 00:00:00 | |
| NBG1-10 | 2026-08-30 14:13:29 | 49.10038 | 11.18277 | 81° | 24km/h | 1363m | -2.7m/s | 15.2°C | 81.6% | 869.9hPa | 2.7V | 00:00:00 | 03:29:05 | 00:00:00 | |
| DO3MHA-11 | 2026-08-30 14:13:29 | 49.10038 | 11.18277 | 81° | 24km/h | 1363m | -2.7m/s | 15.2°C | 81.6% | 869.9hPa | 2.7V | 00:00:00 | 03:29:05 | 00:00:00 | |
| DO3MHA-11 | 2026-08-30 14:13:27 | 49.10036 | 11.18260 | 82° | 22km/h | 1368m | -2.3m/s | 15.2°C | 81.7% | 869.3hPa | 2.7V | 00:00:00 | 03:29:03 | 00:00:00 | |
| DO3MHA-11 | 2026-08-30 14:13:25 | 49.10034 | 11.18242 | 81° | 24km/h | 1373m | -2.4m/s | 15.1°C | 82.1% | 868.7hPa | 2.7V | 00:00:00 | 03:29:01 | 00:00:00 | |
| DO3MHA-11 | 2026-08-30 14:13:23 | 49.10033 | 11.18225 | 83° | 24km/h | 1378m | -2.6m/s | 15.1°C | 82.3% | 868.3hPa | 2.7V | 00:00:00 | 03:28:59 | 00:00:00 | |
| NBG1-10 | 2026-08-30 14:13:22 | 49.10032 | 11.18215 | 83° | 26km/h | 1381m | -2.5m/s | 15.0°C | 82.4% | 867.9hPa | 2.7V | 00:00:00 | 03:28:58 | 00:00:00 | |
| DO3MHA-11 | 2026-08-30 14:13:21 | 49.10031 | 11.18206 | 81° | 26km/h | 1383m | -2.7m/s | 15.0°C | 82.2% | 867.7hPa | 2.7V | 07:01:00 | 03:28:57 | 00:00:00 | |
| DO3MHA-11 | 2026-08-30 14:13:19 | 49.10029 | 11.18186 | 81° | 26km/h | 1389m | -2.3m/s | 15.0°C | 82.0% | 867.2hPa | 2.7V | 00:00:00 | 03:28:55 | 00:00:00 | |
| DO3MHA-11 | 2026-08-30 14:13:17 | 49.10026 | 11.18167 | 79° | 26km/h | 1394m | -2.7m/s | 14.9°C | 82.1% | 866.6hPa | 2.7V | 00:00:00 | 03:28:53 | 00:00:00 | |
| NBG1-10 | 2026-08-30 14:13:15 | 49.10024 | 11.18147 | 79° | 24km/h | 1399m | -2.4m/s | 14.9°C | 82.4% | 866.0hPa | 2.7V | 00:00:00 | 03:28:51 | 00:00:00 | |
| DO3MHA-11 | 2026-08-30 14:13:15 | 49.10024 | 11.18147 | 79° | 24km/h | 1399m | -2.4m/s | 14.9°C | 82.4% | 866.0hPa | 2.7V | 00:00:00 | 03:28:51 | 00:00:00 | |
| DO3MHA-11 | 2026-08-30 14:13:13 | 49.10022 | 11.18129 | 81° | 24km/h | 1405m | -2.3m/s | 14.8°C | 82.4% | 865.6hPa | 2.7V | 00:00:00 | 03:28:49 | 00:00:00 | |
| DO3MHA-11 | 2026-08-30 14:13:11 | 49.10020 | 11.18110 | 86° | 24km/h | 1409m | -2.4m/s | 14.8°C | 82.6% | 865.1hPa | 2.7V | 00:00:00 | 03:28:47 | 00:00:00 | |
| DO3MHA-11 | 2026-08-30 14:13:09 | 49.10019 | 11.18092 | 87° | 24km/h | 1414m | -2.2m/s | 14.8°C | 82.8% | 864.5hPa | 2.7V | 00:00:00 | 03:28:45 | 00:00:00 | |
| NBG1-10 | 2026-08-30 14:13:08 | 49.10019 | 11.18083 | 85° | 24km/h | 1416m | -2.1m/s | 14.7°C | 83.1% | 864.5hPa | 2.7V | 00:00:00 | 03:28:44 | 00:00:00 | |
| DO3MHA-11 | 2026-08-30 14:13:07 | 49.10018 | 11.18074 | 86° | 24km/h | 1419m | -2.4m/s | 14.7°C | 83.2% | 864.1hPa | 2.7V | 00:00:00 | 03:28:43 | 00:00:00 | |
| DO3MHA-11 | 2026-08-30 14:13:05 | 49.10018 | 11.18056 | 86° | 26km/h | 1424m | -2.5m/s | 14.6°C | 83.5% | 863.7hPa | 2.7V | 07:01:00 | 03:28:41 | 00:00:00 | |
| DO3MHA-11 | 2026-08-30 14:13:03 | 49.10016 | 11.18037 | 83° | 24km/h | 1429m | -2.5m/s | 14.6°C | 83.7% | 863.2hPa | 2.7V | 00:00:00 | 03:28:39 | 00:00:00 | |
| NBG1-10 | 2026-08-30 14:13:01 | 49.10015 | 11.18019 | 88° | 24km/h | 1434m | -2.5m/s | 14.5°C | 83.8% | 862.8hPa | 2.7V | 00:00:00 | 03:28:37 | 00:00:00 | |
| DO3MHA-11 | 2026-08-30 14:13:01 | 49.10015 | 11.18019 | 88° | 26km/h | 1434m | -2.5m/s | 14.5°C | 83.8% | 862.8hPa | 2.7V | 00:00:00 | 03:28:37 | 00:00:00 | |
| DO3MHA-11 | 2026-08-30 14:12:59 | 49.10014 | 11.17999 | 85° | 24km/h | 1439m | -2.4m/s | 14.5°C | 84.1% | 862.0hPa | 2.7V | 00:00:00 | 03:28:35 | 00:00:00 | |
| DO3MHA-11 | 2026-08-30 14:12:57 | 49.10014 | 11.17981 | 88° | 26km/h | 1444m | -2.7m/s | 14.4°C | 84.5% | 861.6hPa | 2.7V | 00:00:00 | 03:28:33 | 00:00:00 | |
| DO3MHA-11 | 2026-08-30 14:12:55 | 49.10012 | 11.17962 | 84° | 24km/h | 1449m | -2.5m/s | 14.4°C | 84.7% | 861.4hPa | 2.7V | 00:00:00 | 03:28:31 | 00:00:00 | |
| NBG1-10 | 2026-08-30 14:12:54 | 49.10012 | 11.17953 | 85° | 24km/h | 1452m | -2.3m/s | 14.4°C | 84.7% | 860.8hPa | 2.7V | 00:00:00 | 03:28:30 | 00:00:00 | |
| DO3MHA-11 | 2026-08-30 14:12:53 | 49.10011 | 11.17943 | 87° | 26km/h | 1454m | -2.4m/s | 14.3°C | 84.8% | 860.5hPa | 2.7V | 00:00:00 | 03:28:29 | 00:00:00 | |
| DO3MHA-11 | 2026-08-30 14:12:51 | 49.10010 | 11.17924 | 83° | 24km/h | 1459m | -2.3m/s | 14.3°C | 85.1% | 859.9hPa | 2.7V | 00:00:00 | 03:28:27 | 00:00:00 | |
| DO3MHA-11 | 2026-08-30 14:12:49 | 49.10009 | 11.17906 | 86° | 24km/h | 1463m | -1.9m/s | 14.3°C | 85.3% | 859.6hPa | 2.7V | 07:01:00 | 03:28:25 | 00:00:00 | |
| NBG1-10 | 2026-08-30 14:12:47 | 49.10008 | 11.17887 | 85° | 27km/h | 1467m | -1.8m/s | 14.2°C | 85.5% | 859.1hPa | 2.7V | 07:01:00 | 03:28:23 | 00:00:00 | |
| DO3MHA-11 | 2026-08-30 14:12:47 | 49.10008 | 11.17887 | 85° | 26km/h | 1467m | -1.8m/s | 14.2°C | 85.5% | 859.1hPa | 2.7V | 00:00:00 | 03:28:23 | 00:00:00 | |
| DO3MHA-11 | 2026-08-30 14:12:45 | 49.10006 | 11.17867 | 85° | 27km/h | 1471m | -2.1m/s | 14.2°C | 85.8% | 858.6hPa | 2.7V | 00:00:00 | 03:28:21 | 00:00:00 | |
| DO3MHA-11 | 2026-08-30 14:12:43 | 49.10006 | 11.17846 | 85° | 27km/h | 1476m | -2.2m/s | 14.1°C | 85.9% | 858.3hPa | 2.7V | 00:00:00 | 03:28:19 | 00:00:00 | |
| DO3MHA-11 | 2026-08-30 14:12:41 | 49.10004 | 11.17825 | 85° | 27km/h | 1480m | -2.4m/s | 14.1°C | 86.2% | 857.9hPa | 2.7V | 00:00:00 | 03:28:17 | 00:00:00 | |
| NBG1-10 | 2026-08-30 14:12:40 | 49.10004 | 11.17815 | 85° | 27km/h | 1483m | -2.1m/s | 14.0°C | 86.3% | 857.5hPa | 2.7V | 00:00:00 | 03:28:16 | 00:00:00 | |
| DO3MHA-11 | 2026-08-30 14:12:39 | 49.10003 | 11.17804 | 83° | 27km/h | 1485m | -2.3m/s | 14.0°C | 86.8% | 857.2hPa | 2.7V | 00:00:00 | 03:28:15 | 00:00:00 | |
| DO3MHA-11 | 2026-08-30 14:12:37 | 49.10001 | 11.17783 | 83° | 27km/h | 1490m | -2.1m/s | 14.0°C | 86.6% | 856.8hPa | 2.7V | 00:00:00 | 03:28:13 | 00:00:00 | |
| DO3MHA-11 | 2026-08-30 14:12:35 | 49.09999 | 11.17761 | 81° | 29km/h | 1494m | -2.3m/s | 13.9°C | 87.1% | 856.3hPa | 2.7V | 00:00:00 | 03:28:11 | 00:00:00 | |
| NBG1-10 | 2026-08-30 14:12:33 | 49.09997 | 11.17740 | 79° | 26km/h | 1499m | -2.4m/s | 13.9°C | 87.0% | 855.8hPa | 2.7V | 00:00:00 | 03:28:09 | 00:00:00 | |
| DO3MHA-11 | 2026-08-30 14:12:33 | 49.09997 | 11.17740 | 79° | 26km/h | 1499m | -2.4m/s | 13.9°C | 87.0% | 855.8hPa | 2.7V | 07:01:00 | 03:28:09 | 00:00:00 | |
| DO3MHA-11 | 2026-08-30 14:12:28 | 49.09990 | 11.17691 | 82° | 24km/h | 1510m | -2.0m/s | 13.8°C | 87.9% | 854.7hPa | 2.7V | 00:00:00 | 03:28:04 | 00:00:00 | |
| NBG1-10 | 2026-08-30 14:12:26 | 49.09989 | 11.17672 | 82° | 26km/h | 1514m | -1.8m/s | 13.7°C | 88.2% | 854.1hPa | 2.7V | 00:00:00 | 03:28:02 | 00:00:00 | |
| DO3MHA-11 | 2026-08-30 14:12:23 | 49.09986 | 11.17644 | 85° | 26km/h | 1521m | -2.3m/s | 13.7°C | 88.3% | 853.7hPa | 2.7V | 00:00:00 | 03:27:59 | 00:00:00 | |
| DO3MHA-11 | 2026-08-30 14:12:18 | 49.09981 | 11.17596 | 81° | 26km/h | 1531m | -2.2m/s | 13.6°C | 88.9% | 852.6hPa | 2.7V | 00:00:00 | 03:27:54 | 00:00:00 | |
| DO3MHA-11 | 2026-08-30 14:12:13 | 49.09976 | 11.17548 | 79° | 24km/h | 1541m | -1.5m/s | 13.5°C | 89.2% | 851.6hPa | 2.7V | 00:00:00 | 03:27:49 | 00:00:00 | |
| DO3MHA-11 | 2026-08-30 14:12:08 | 49.09972 | 11.17503 | 83° | 26km/h | 1550m | -2.0m/s | 13.4°C | 89.7% | 850.8hPa | 2.7V | 00:00:00 | 03:27:44 | 00:00:00 | |
| NBG1-10 | 2026-08-30 14:12:04 | 49.09969 | 11.17464 | 81° | 24km/h | 1558m | -1.7m/s | 13.3°C | 90.1% | 850.1hPa | 2.7V | 00:00:00 | 03:27:40 | 00:00:00 | |
| DO3MHA-11 | 2026-08-30 14:12:03 | 49.09968 | 11.17455 | 83° | 24km/h | 1559m | -1.6m/s | 13.3°C | 90.0% | 849.8hPa | 2.7V | 00:00:00 | 03:27:39 | 00:00:00 | |
| DL6DJ-15 | 2026-08-30 14:11:56 | 49.09958 | 11.17383 | 80° | 22km/h | 1573m | -2.1m/s | 13.2°C | 89.4% | 848.6hPa | 2.7V | 00:00:00 | 00:00:00 | 00:00:00 | |
| DO3MHA-11 | 2026-08-30 14:11:53 | 49.09956 | 11.17365 | 81° | 26km/h | 1578m | -1.9m/s | 13.1°C | 90.5% | 848.0hPa | 2.7V | 07:02:00 | 03:27:29 | 00:00:00 | |
| DO3MHA-11 | 2026-08-30 14:11:48 | 49.09951 | 11.17316 | 78° | 24km/h | 1586m | -1.5m/s | 13.1°C | 91.2% | 847.3hPa | 2.7V | 00:00:00 | 03:27:24 | 00:00:00 | |
| DO3MHA-11 | 2026-08-30 14:11:43 | 49.09945 | 11.17272 | 78° | 22km/h | 1594m | -1.7m/s | 13.0°C | 91.5% | 846.4hPa | 2.7V | 00:00:00 | 03:27:19 | 00:00:00 | |
| NBG1-10 | 2026-08-30 14:11:42 | 49.09944 | 11.17263 | 80° | 24km/h | 1596m | -1.7m/s | 13.0°C | 91.4% | 846.1hPa | 2.7V | 00:00:00 | 03:27:18 | 00:00:00 | |
| DO3MHA-11 | 2026-08-30 14:11:38 | 49.09940 | 11.17229 | 81° | 24km/h | 1602m | -1.4m/s | 12.9°C | 92.0% | 845.6hPa | 2.7V | 00:00:00 | 03:27:14 | 00:00:00 | |
| DO3MHA-11 | 2026-08-30 14:11:33 | 49.09934 | 11.17185 | 78° | 24km/h | 1610m | -1.8m/s | 12.8°C | 92.2% | 844.8hPa | 2.7V | 00:00:00 | 03:27:09 | 00:00:00 | |
| DO3MHA-11 | 2026-08-30 14:11:28 | 49.09926 | 11.17139 | 72° | 24km/h | 1619m | -1.8m/s | 12.7°C | 92.6% | 843.8hPa | 2.7V | 00:00:00 | 03:27:04 | 00:00:00 | |
| DO3MHA-11 | 2026-08-30 14:11:23 | 49.09916 | 11.17096 | 70° | 24km/h | 1626m | -1.6m/s | 12.6°C | 93.6% | 843.0hPa | 2.7V | 00:00:00 | 03:26:59 | 00:00:00 | |
| NBG1-10 | 2026-08-30 14:11:20 | 49.09911 | 11.17071 | 71° | 22km/h | 1630m | -1.2m/s | 12.6°C | 93.5% | 842.6hPa | 2.7V | 00:00:00 | 03:26:56 | 00:00:00 | |
| DO3MHA-11 | 2026-08-30 14:11:18 | 49.09906 | 11.17053 | 72° | 24km/h | 1633m | -1.7m/s | 12.6°C | 93.6% | 842.4hPa | 2.7V | 00:00:00 | 03:26:54 | 00:00:00 | |
| DO3MHA-11 | 2026-08-30 14:11:13 | 49.09897 | 11.17009 | 71° | 22km/h | 1643m | -2.3m/s | 12.5°C | 94.4% | 841.4hPa | 2.7V | 07:03:00 | 03:26:49 | 00:00:00 | |
| DO3MHA-11 | 2026-08-30 14:11:08 | 49.09890 | 11.16970 | 77° | 20km/h | 1653m | -2.3m/s | 12.4°C | 95.6% | 840.4hPa | 2.7V | 00:00:00 | 03:26:44 | 00:00:00 | |
| DO3MHA-11 | 2026-08-30 14:11:03 | 49.09885 | 11.16932 | 84° | 22km/h | 1664m | -2.2m/s | 12.3°C | 96.3% | 839.3hPa | 2.7V | 00:00:00 | 03:26:39 | 00:00:00 | |
| NBG1-10 | 2026-08-30 14:10:58 | 49.09881 | 11.16890 | 81° | 22km/h | 1675m | -2.4m/s | 12.2°C | 97.1% | 838.2hPa | 2.7V | 00:00:00 | 03:26:34 | 00:00:00 | |
| DO3MHA-11 | 2026-08-30 14:10:58 | 49.09881 | 11.16890 | 81° | 22km/h | 1675m | -2.4m/s | 12.2°C | 97.1% | 838.2hPa | 2.7V | 00:00:00 | 03:26:34 | 00:00:00 | |
| DO3MHA-11 | 2026-08-30 14:10:53 | 49.09876 | 11.16848 | 77° | 22km/h | 1686m | -2.2m/s | 12.2°C | 94.2% | 837.2hPa | 2.7V | 00:00:00 | 03:26:29 | 00:00:00 | |
| DO3MHA-11 | 2026-08-30 14:10:48 | 49.09869 | 11.16806 | 76° | 22km/h | 1696m | -1.6m/s | 12.1°C | 94.5% | 836.3hPa | 2.7V | 00:00:00 | 03:26:24 | 00:00:00 | |
| DO3MHA-11 | 2026-08-30 14:10:43 | 49.09863 | 11.16765 | 79° | 20km/h | 1704m | -1.6m/s | 12.0°C | 95.5% | 835.3hPa | 2.7V | 00:00:00 | 03:26:19 | 00:00:00 | |
| DO3MHA-11 | 2026-08-30 14:10:38 | 49.09856 | 11.16725 | 78° | 22km/h | 1713m | -1.6m/s | 11.8°C | 95.7% | 834.6hPa | 2.7V | 00:00:00 | 03:26:14 | 00:00:00 | |
| NBG1-10 | 2026-08-30 14:10:36 | 49.09854 | 11.16708 | 76° | 24km/h | 1716m | -1.8m/s | 11.8°C | 98.1% | 834.2hPa | 2.7V | 07:03:00 | 03:26:12 | 00:00:00 | |
| DO3MHA-11 | 2026-08-30 14:10:33 | 49.09850 | 11.16682 | 78° | 22km/h | 1722m | -1.9m/s | 11.7°C | 98.4% | 833.6hPa | 2.7V | 07:03:00 | 03:26:09 | 00:00:00 | |
| DO3MHA-11 | 2026-08-30 14:10:28 | 49.09845 | 11.16641 | 82° | 20km/h | 1732m | -1.5m/s | 11.6°C | 98.8% | 832.7hPa | 2.7V | 00:00:00 | 03:26:04 | 00:00:00 | |
| DO3MHA-11 | 2026-08-30 14:10:23 | 49.09841 | 11.16601 | 82° | 24km/h | 1740m | -1.5m/s | 11.5°C | 99.4% | 831.7hPa | 2.7V | 00:00:00 | 03:25:59 | 00:00:00 | |
| DO3MHA-11 | 2026-08-30 14:10:18 | 49.09833 | 11.16555 | 72° | 27km/h | 1749m | -1.5m/s | 11.4°C | 99.1% | 831.0hPa | 2.7V | 00:00:00 | 03:25:54 | 00:00:00 | |
| NBG1-10 | 2026-08-30 14:10:14 | 49.09823 | 11.16516 | 72° | 27km/h | 1754m | -1.4m/s | 11.4°C | 0% | 830.3hPa | 2.7V | 00:00:00 | 03:25:50 | 00:00:00 | |
| DO3MHA-11 | 2026-08-30 14:10:13 | 49.09821 | 11.16506 | 71° | 27km/h | 1756m | -1.9m/s | 11.3°C | 0% | 830.1hPa | 2.7V | 00:00:00 | 03:25:49 | 00:00:00 | |
| DO3MHA-11 | 2026-08-30 14:10:08 | 49.09812 | 11.16457 | 84° | 26km/h | 1768m | -3.0m/s | 11.2°C | 0% | 829.0hPa | 2.7V | 00:00:00 | 03:25:44 | 00:00:00 | |
| DL0LBS | 2026-08-30 14:10:05 | 49.09811 | 11.16438 | 87° | 26km/h | 1773m | -2.2m/s | 11.2°C | 99.1% | 828.5hPa | 2.7V | 07:04:00 | 00:00:00 | 00:00:00 | |
| DO3MHA-11 | 2026-08-30 14:10:03 | 49.09810 | 11.16408 | 82° | 27km/h | 1780m | -2.5m/s | 11.1°C | 0% | 827.9hPa | 2.7V | 00:00:00 | 03:25:39 | 00:00:00 | |
| DO3MHA-11 | 2026-08-30 14:09:58 | 49.09802 | 11.16356 | 78° | 27km/h | 1791m | -2.4m/s | 11.0°C | 0% | 827.0hPa | 2.7V | 00:00:00 | 03:25:34 | 00:00:00 | |
| DO3MHA-11 | 2026-08-30 14:09:53 | 49.09795 | 11.16303 | 80° | 29km/h | 1803m | -2.2m/s | 10.9°C | 0% | 825.5hPa | 2.7V | 07:04:00 | 03:25:29 | 00:00:00 | |
| NBG1-10 | 2026-08-30 14:09:52 | 49.09793 | 11.16292 | 77° | 29km/h | 1805m | -2.5m/s | 10.9°C | 0% | 825.4hPa | 2.7V | 00:00:00 | 03:25:28 | 00:00:00 | |
| DO3MHA-11 | 2026-08-30 14:09:48 | 49.09785 | 11.16249 | 76° | 27km/h | 1814m | -2.2m/s | 10.8°C | 0% | 824.5hPa | 2.7V | 00:00:00 | 03:25:24 | 00:00:00 | |
| DL0LBS | 2026-08-30 14:09:43 | 49.09777 | 11.16208 | 76° | 27km/h | 1825m | -2.7m/s | 10.8°C | 98.9% | 823.5hPa | 2.7V | 00:00:00 | 00:00:00 | 00:00:00 | |
| DO3MHA-11 | 2026-08-30 14:09:43 | 49.09775 | 11.16197 | 77° | 29km/h | 1828m | -3.9m/s | 10.7°C | 0% | 823.2hPa | 2.7V | 00:00:00 | 03:25:19 | 00:00:00 | |
| DO3MHA-11 | 2026-08-30 14:09:38 | 49.09766 | 11.16142 | 78° | 29km/h | 1843m | -3.6m/s | 10.6°C | 0% | 821.6hPa | 2.7V | 00:00:00 | 03:25:14 | 00:00:00 | |
| DO3MHA-11 | 2026-08-30 14:09:33 | 49.09758 | 11.16087 | 77° | 27km/h | 1855m | -1.4m/s | 10.5°C | 0% | 820.3hPa | 2.7V | 00:00:00 | 03:25:09 | 00:00:00 | |
| NBG1-10 | 2026-08-30 14:09:30 | 49.09752 | 11.16057 | 73° | 27km/h | 1860m | -1.9m/s | 10.4°C | 0% | 819.9hPa | 2.7V | 00:00:00 | 03:25:06 | 00:00:00 | |
| DO3MHA-11 | 2026-08-30 14:09:28 | 49.09749 | 11.16037 | 82° | 29km/h | 1864m | -2.2m/s | 10.4°C | 0% | 819.4hPa | 2.7V | 00:00:00 | 03:25:04 | 00:00:00 | |
| DO3MHA-11 | 2026-08-30 14:09:23 | 49.09746 | 11.15982 | 84° | 27km/h | 1876m | -2.1m/s | 10.4°C | 0% | 818.3hPa | 2.7V | 00:00:00 | 03:24:59 | 00:00:00 | |
| DO3MHA-11 | 2026-08-30 14:09:18 | 49.09743 | 11.15930 | 89° | 27km/h | 1883m | -1.4m/s | 10.3°C | 0% | 817.7hPa | 2.7V | 00:00:00 | 03:24:54 | 00:00:00 | |
| DL0LBS | 2026-08-30 14:09:17 | 49.09743 | 11.15930 | 89° | 27km/h | 1883m | -1.5m/s | 10.4°C | 100.6% | 817.8hPa | 2.7V | 00:00:00 | 00:00:00 | 00:00:00 | |
| DO3MHA-11 | 2026-08-30 14:09:13 | 49.09742 | 11.15877 | 86° | 29km/h | 1891m | -2.2m/s | 10.2°C | 0% | 816.9hPa | 2.7V | 07:05:00 | 03:24:49 | 00:00:00 | |
| NBG1-10 | 2026-08-30 14:09:08 | 49.09738 | 11.15822 | 85° | 26km/h | 1901m | -1.3m/s | 10.2°C | 0% | 816.0hPa | 2.7V | 00:00:00 | 03:24:44 | 00:00:00 | |
| DO3MHA-11 | 2026-08-30 14:09:08 | 49.09738 | 11.15822 | 85° | 27km/h | 1901m | -1.3m/s | 10.2°C | 0% | 816.0hPa | 2.7V | 00:00:00 | 03:24:44 | 00:00:00 | |
| DO3MHA-11 | 2026-08-30 14:09:03 | 49.09734 | 11.15769 | 82° | 27km/h | 1909m | -1.8m/s | 10.2°C | 0% | 815.2hPa | 2.7V | 00:00:00 | 03:24:39 | 00:00:00 | |
| DO3MHA-11 | 2026-08-30 14:08:58 | 49.09728 | 11.15717 | 82° | 27km/h | 1916m | -1.0m/s | 10.2°C | 0% | 814.5hPa | 2.7V | 00:00:00 | 03:24:34 | 00:00:00 | |
| DL0LBS | 2026-08-30 14:08:56 | 49.09727 | 11.15707 | 83° | 27km/h | 1917m | -1.5m/s | 10.2°C | 101.6% | 814.4hPa | 2.7V | 00:00:00 | 00:00:00 | 00:00:00 | |
| DO3MHA-11 | 2026-08-30 14:08:53 | 49.09723 | 11.15666 | 83° | 24km/h | 1922m | -1.1m/s | 10.3°C | 0% | 813.8hPa | 2.7V | 00:00:00 | 03:24:29 | 00:00:00 | |
| DO3MHA-11 | 2026-08-30 14:08:48 | 49.09717 | 11.15621 | 77° | 24km/h | 1927m | -0.8m/s | 10.3°C | 0% | 813.3hPa | 2.7V | 00:00:00 | 03:24:24 | 00:00:00 | |
| NBG1-10 | 2026-08-30 14:08:46 | 49.09713 | 11.15604 | 72° | 27km/h | 1928m | -0.6m/s | 10.2°C | 0% | 813.4hPa | 2.7V | 00:00:00 | 03:24:22 | 00:00:00 | |
| DO3MHA-11 | 2026-08-30 14:08:43 | 49.09708 | 11.15579 | 74° | 27km/h | 1929m | -0.4m/s | 10.2°C | 0% | 813.3hPa | 2.7V | 00:00:00 | 03:24:19 | 00:00:00 | |
| DO3MHA-11 | 2026-08-30 14:08:38 | 49.09699 | 11.15528 | 74° | 27km/h | 1930m | -0.4m/s | 10.3°C | 0% | 813.0hPa | 2.7V | 00:00:00 | 03:24:14 | 00:00:00 | |
| DL0LBS | 2026-08-30 14:08:36 | 49.09697 | 11.15518 | 72° | 29km/h | 1931m | -0.7m/s | 10.4°C | 105.2% | 812.9hPa | 2.7V | 00:00:00 | 00:00:00 | 00:00:00 | |
| DO3MHA-11 | 2026-08-30 14:08:33 | 49.09687 | 11.15479 | 68° | 27km/h | 1934m | -1.5m/s | 10.3°C | 0% | 812.5hPa | 2.7V | 07:05:00 | 03:24:09 | 00:00:00 | |
| DO3MHA-11 | 2026-08-30 14:08:28 | 49.09671 | 11.15430 | 63° | 33km/h | 1939m | -0.7m/s | 10.2°C | 0% | 812.0hPa | 2.7V | 00:00:00 | 03:24:04 | 00:00:00 | |
| NBG1-10 | 2026-08-30 14:08:24 | 49.09659 | 11.15384 | 67° | 38km/h | 1943m | -1.3m/s | 10.0°C | 0% | 811.3hPa | 2.7V | 00:00:00 | 03:24:00 | 00:00:00 | |
| DO3MHA-11 | 2026-08-30 14:08:23 | 49.09655 | 11.15372 | 67° | 37km/h | 1945m | -2.1m/s | 10.0°C | 0% | 811.2hPa | 2.7V | 00:00:00 | 03:23:59 | 00:00:00 | |
| DO3MHA-11 | 2026-08-30 14:08:18 | 49.09640 | 11.15304 | 73° | 38km/h | 1952m | -2.0m/s | 10.1°C | 0% | 810.5hPa | 2.7V | 00:00:00 | 03:23:54 | 00:00:00 | |
| DL0LBS | 2026-08-30 14:08:16 | 49.09637 | 11.15290 | 72° | 37km/h | 1954m | -1.9m/s | 10.2°C | 101.1% | 810.2hPa | 2.7V | 07:06:00 | 00:00:00 | 00:00:00 | |
| DO3MHA-11 | 2026-08-30 14:08:13 | 49.09626 | 11.15233 | 72° | 40km/h | 1959m | -0.9m/s | 10.2°C | 0% | 810.0hPa | 2.7V | 00:00:00 | 03:23:49 | 00:00:00 | |
| DO3MHA-11 | 2026-08-30 14:08:08 | 49.09614 | 11.15161 | 75° | 37km/h | 1965m | -2.0m/s | 10.5°C | 90.1% | 809.5hPa | 2.7V | 00:00:00 | 03:23:44 | 00:00:00 | |
| DO3MHA-11 | 2026-08-30 14:08:03 | 49.09600 | 11.15094 | 74° | 40km/h | 1968m | -0.9m/s | 10.0°C | 94.7% | 809.1hPa | 2.7V | 00:00:00 | 03:23:39 | 00:00:00 | |
| NBG1-10 | 2026-08-30 14:08:02 | 49.09597 | 11.15079 | 75° | 38km/h | 1969m | -1.0m/s | 10.0°C | 0% | 809.1hPa | 2.7V | 00:00:00 | 03:23:38 | 00:00:00 | |
| DO3MHA-11 | 2026-08-30 14:07:58 | 49.09588 | 11.15020 | 72° | 37km/h | 1970m | -0.8m/s | 10.0°C | 0% | 809.1hPa | 2.7V | 00:00:00 | 03:23:34 | 00:00:00 | |
| DL0LBS | 2026-08-30 14:07:55 | 49.09582 | 11.14993 | 70° | 35km/h | 1971m | -0.3m/s | 10.2°C | 107.3% | 809.3hPa | 2.7V | 07:06:00 | 00:00:00 | 00:00:00 | |
| DO3MHA-11 | 2026-08-30 14:07:53 | 49.09573 | 11.14955 | 70° | 38km/h | 1973m | -0.6m/s | 10.1°C | 0% | 809.0hPa | 2.7V | 07:06:00 | 03:23:29 | 00:00:00 | |
| DO3MHA-11 | 2026-08-30 14:07:47 | 49.09556 | 11.14870 | 74° | 38km/h | 1975m | -0.6m/s | 10.5°C | 89.9% | 808.6hPa | 2.7V | 00:00:00 | 03:23:23 | 00:00:00 | |
| DO3MHA-11 | 2026-08-30 14:07:42 | 49.09542 | 11.14799 | 72° | 38km/h | 1980m | -0.9m/s | 10.4°C | 90.1% | 808.1hPa | 2.7V | 00:00:00 | 03:23:18 | 00:00:00 | |
| NBG1-10 | 2026-08-30 14:07:38 | 49.09528 | 11.14745 | 69° | 38km/h | 1985m | -1.2m/s | 10.4°C | 89.5% | 807.7hPa | 2.7V | 07:06:00 | 03:23:14 | 00:00:00 | |
| DO3MHA-11 | 2026-08-30 14:07:37 | 49.09524 | 11.14731 | 70° | 37km/h | 1986m | -1.2m/s | 10.4°C | 90.7% | 807.7hPa | 2.7V | 00:00:00 | 03:23:13 | 00:00:00 | |
| DL0LBS | 2026-08-30 14:07:32 | 49.09511 | 11.14677 | 71° | 37km/h | 1991m | -1.6m/s | 10.4°C | 88.7% | 807.2hPa | 2.7V | 07:06:00 | 00:00:00 | 00:00:00 | |
| DO3MHA-11 | 2026-08-30 14:07:32 | 49.09508 | 11.14664 | 70° | 38km/h | 1992m | -1.4m/s | 10.3°C | 90.4% | 807.0hPa | 2.7V | 00:00:00 | 03:23:08 | 00:00:00 | |
| DO3MHA-11 | 2026-08-30 14:07:27 | 49.09491 | 11.14596 | 70° | 40km/h | 2000m | -1.5m/s | 10.4°C | 88.4% | 806.2hPa | 2.7V | 00:00:00 | 03:23:03 | 00:00:00 | |
| DO3MHA-11 | 2026-08-30 14:07:22 | 49.09473 | 11.14524 | 69° | 40km/h | 2009m | -1.9m/s | 10.5°C | 85.8% | 805.4hPa | 2.7V | 00:00:00 | 03:22:58 | 00:00:00 | |
| DO3MHA-11 | 2026-08-30 14:07:17 | 49.09453 | 11.14451 | 67° | 42km/h | 2018m | -1.5m/s | 10.5°C | 86.3% | 804.6hPa | 2.7V | 00:00:00 | 03:22:53 | 00:00:00 | |
| NBG1-10 | 2026-08-30 14:07:16 | 49.09448 | 11.14437 | 65° | 42km/h | 2019m | -1.7m/s | 10.4°C | 86.9% | 804.5hPa | 2.7V | 00:00:00 | 03:22:52 | 00:00:00 | |
| DO3MHA-11 | 2026-08-30 14:07:12 | 49.09431 | 11.14379 | 66° | 40km/h | 2026m | -1.6m/s | 10.6°C | 82.5% | 803.8hPa | 2.7V | 07:07:00 | 03:22:48 | 00:00:00 | |
| DO3MHA-11 | 2026-08-30 14:07:07 | 49.09411 | 11.14308 | 68° | 42km/h | 2035m | -1.8m/s | 10.5°C | 83.3% | 802.8hPa | 2.7V | 00:00:00 | 03:22:43 | 00:00:00 | |
| DO3MHA-11 | 2026-08-30 14:07:02 | 49.09390 | 11.14234 | 67° | 42km/h | 2045m | -2.2m/s | 10.4°C | 83.3% | 801.8hPa | 2.7V | 00:00:00 | 03:22:38 | 00:00:00 | |
| DO3MHA-11 | 2026-08-30 14:06:57 | 49.09370 | 11.14160 | 69° | 42km/h | 2056m | -2.2m/s | 10.2°C | 85.5% | 800.9hPa | 2.7V | 00:00:00 | 03:22:33 | 00:00:00 | |
| NBG1-10 | 2026-08-30 14:06:54 | 49.09358 | 11.14116 | 67° | 42km/h | 2063m | -2.2m/s | 10.2°C | 84.6% | 800.2hPa | 2.7V | 00:00:00 | 03:22:30 | 00:00:00 | |
| DO3MHA-11 | 2026-08-30 14:06:52 | 49.09350 | 11.14087 | 68° | 42km/h | 2068m | -2.2m/s | 10.2°C | 84.8% | 799.9hPa | 2.7V | 00:00:00 | 03:22:28 | 00:00:00 | |
| DO3MHA-11 | 2026-08-30 14:06:47 | 49.09328 | 11.14012 | 66° | 42km/h | 2080m | -2.4m/s | 10.1°C | 84.3% | 798.7hPa | 2.7V | 00:00:00 | 03:22:23 | 00:00:00 | |
| DL6DJ-15 | 2026-08-30 14:06:46 | 49.09311 | 11.13953 | 65° | 40km/h | 2090m | -2.6m/s | 10.1°C | 83.1% | 797.7hPa | 2.7V | 00:00:00 | 00:00:00 | 00:00:00 | |
| DO3MHA-11 | 2026-08-30 14:06:42 | 49.09307 | 11.13938 | 67° | 40km/h | 2092m | -2.4m/s | 10.0°C | 84.9% | 797.4hPa | 2.7V | 00:00:00 | 03:22:18 | 00:00:00 | |
| DO3MHA-11 | 2026-08-30 14:06:37 | 49.09287 | 11.13866 | 69° | 42km/h | 2106m | -2.6m/s | 9.8°C | 86.0% | 796.3hPa | 2.7V | 00:00:00 | 03:22:13 | 00:00:00 | |
| DO3MHA-11 | 2026-08-30 14:06:32 | 49.09266 | 11.13790 | 68° | 46km/h | 2118m | -2.5m/s | 9.9°C | 83.9% | 795.1hPa | 2.7V | 07:07:00 | 03:22:08 | 00:00:00 | |
| DL0LBS | 2026-08-30 14:06:30 | 49.09262 | 11.13774 | 68° | 44km/h | 2121m | -2.7m/s | 10.0°C | 81.6% | 794.8hPa | 2.7V | 07:08:00 | 00:00:00 | 00:00:00 | |
| DO3MHA-11 | 2026-08-30 14:06:27 | 49.09244 | 11.13710 | 67° | 46km/h | 2132m | -2.6m/s | 10.0°C | 80.6% | 793.8hPa | 2.7V | 00:00:00 | 03:22:03 | 00:00:00 | |
| DO3MHA-11 | 2026-08-30 14:06:22 | 49.09223 | 11.13629 | 70° | 46km/h | 2146m | -2.4m/s | 9.9°C | 81.0% | 792.5hPa | 2.7V | 00:00:00 | 03:21:58 | 00:00:00 | |
| DO3MHA-11 | 2026-08-30 14:06:17 | 49.09202 | 11.13547 | 70° | 46km/h | 2160m | -2.5m/s | 9.8°C | 81.2% | 791.1hPa | 2.7V | 00:00:00 | 03:21:53 | 00:00:00 | |
| DL6DJ-15 | 2026-08-30 14:06:15 | 49.09189 | 11.13497 | 68° | 46km/h | 2167m | -2.4m/s | 9.8°C | 79.6% | 790.6hPa | 2.7V | 00:00:00 | 00:00:00 | 00:00:00 | |
| DO3MHA-11 | 2026-08-30 14:06:12 | 49.09180 | 11.13463 | 69° | 47km/h | 2172m | -2.5m/s | 9.8°C | 80.7% | 789.7hPa | 2.7V | 00:00:00 | 03:21:48 | 00:00:00 | |
| NBG1-10 | 2026-08-30 14:06:10 | 49.09172 | 11.13430 | 69° | 49km/h | 2177m | -2.8m/s | 9.8°C | 79.7% | 789.4hPa | 2.7V | 00:00:00 | 03:21:46 | 00:00:00 | |
| DL0LBS | 2026-08-30 14:06:09 | 49.09172 | 11.13430 | 70° | 46km/h | 2177m | -2.8m/s | 9.9°C | 78.4% | 789.5hPa | 2.7V | 07:08:00 | 00:00:00 | 00:00:00 | |
| DO3MHA-11 | 2026-08-30 14:06:07 | 49.09159 | 11.13380 | 69° | 47km/h | 2186m | -2.8m/s | 9.8°C | 79.2% | 788.2hPa | 2.7V | 00:00:00 | 03:21:43 | 00:00:00 | |
| DO3MHA-11 | 2026-08-30 14:06:02 | 49.09136 | 11.13292 | 69° | 49km/h | 2200m | -2.7m/s | 9.7°C | 79.4% | 787.1hPa | 2.7V | 00:00:00 | 03:21:38 | 00:00:00 | |
| DO3MHA-11 | 2026-08-30 14:05:57 | 49.09113 | 11.13203 | 70° | 49km/h | 2215m | -3.3m/s | 9.8°C | 77.3% | 785.6hPa | 2.7V | 00:00:00 | 03:21:33 | 00:00:00 | |
| DO3MHA-11 | 2026-08-30 14:05:52 | 49.09090 | 11.13113 | 69° | 51km/h | 2231m | -3.0m/s | 9.7°C | 77.6% | 784.2hPa | 2.7V | 07:08:00 | 03:21:28 | 00:00:00 | |
| DL0LBS | 2026-08-30 14:05:49 | 49.09081 | 11.13077 | 70° | 49km/h | 2238m | -3.1m/s | 9.7°C | 75.6% | 783.7hPa | 2.7V | 07:09:00 | 00:00:00 | 00:00:00 | |
| NBG1-10 | 2026-08-30 14:05:48 | 49.09072 | 11.13040 | 69° | 51km/h | 2244m | -3.1m/s | 9.6°C | 77.1% | 782.9hPa | 2.7V | 00:00:00 | 03:21:24 | 00:00:00 | |
| DO3MHA-11 | 2026-08-30 14:05:47 | 49.09067 | 11.13021 | 69° | 51km/h | 2247m | -3.0m/s | 9.6°C | 77.3% | 782.8hPa | 2.7V | 00:00:00 | 03:21:23 | 00:00:00 | |
| DK5PH-5 | 2026-08-30 14:05:45 | 49.09058 | 11.12985 | 70° | 53km/h | 2253m | -3.1m/s | 9.5°C | 77.3% | 782.0hPa | 2.7V | 00:00:00 | 03:21:21 | 00:00:00 | |
| DO3MHA-11 | 2026-08-30 14:05:42 | 49.09044 | 11.12930 | 71° | 51km/h | 2262m | -2.9m/s | 9.5°C | 77.5% | 781.3hPa | 2.7V | 00:00:00 | 03:21:18 | 00:00:00 | |
| DO3MHA-11 | 2026-08-30 14:05:37 | 49.09022 | 11.12836 | 70° | 51km/h | 2277m | -3.1m/s | 9.3°C | 78.5% | 779.9hPa | 2.7V | 00:00:00 | 03:21:13 | 00:00:00 | |
| DO3MHA-11 | 2026-08-30 14:05:32 | 49.08999 | 11.12743 | 71° | 53km/h | 2292m | -2.9m/s | 9.2°C | 78.7% | 778.5hPa | 2.7V | 00:00:00 | 03:21:08 | 00:00:00 | |
| DL0LBS | 2026-08-30 14:05:29 | 49.08991 | 11.12706 | 72° | 53km/h | 2298m | -3.1m/s | 9.2°C | 77.6% | 778.0hPa | 2.7V | 07:09:00 | 00:00:00 | 00:00:00 | |
| DO3MHA-11 | 2026-08-30 14:05:27 | 49.08977 | 11.12648 | 72° | 53km/h | 2308m | -3.1m/s | 9.1°C | 79.4% | 777.0hPa | 2.7V | 00:00:00 | 03:21:03 | 00:00:00 | |
| NBG1-10 | 2026-08-30 14:05:26 | 49.08973 | 11.12628 | 71° | 53km/h | 2311m | -2.9m/s | 9.0°C | 79.7% | 776.8hPa | 2.7V | 00:00:00 | 03:21:02 | 00:00:00 | |
| DK5PH-5 | 2026-08-30 14:05:23 | 49.08960 | 11.12571 | 73° | 53km/h | 2320m | -3.1m/s | 9.0°C | 79.7% | 775.9hPa | 2.7V | 00:00:00 | 03:20:59 | 00:00:00 | |
| DO3MHA-11 | 2026-08-30 14:05:22 | 49.08956 | 11.12551 | 72° | 53km/h | 2323m | -3.1m/s | 8.9°C | 79.7% | 775.5hPa | 2.7V | 00:00:00 | 03:20:58 | 00:00:00 | |
| DO3MHA-11 | 2026-08-30 14:05:17 | 49.08935 | 11.12454 | 73° | 53km/h | 2338m | -3.0m/s | 8.8°C | 81.0% | 774.1hPa | 2.7V | 00:00:00 | 03:20:53 | 00:00:00 | |
| DO3MHA-11 | 2026-08-30 14:05:12 | 49.08916 | 11.12357 | 74° | 53km/h | 2354m | -3.1m/s | 8.7°C | 81.5% | 772.8hPa | 2.7V | 07:09:00 | 03:20:48 | 00:00:00 | |
| DF3TZ-5 | 2026-08-30 14:05:10 | 49.08908 | 11.12318 | 72° | 51km/h | 2359m | -3.2m/s | 8.7°C | 80.2% | 772.3hPa | 2.7V | 00:00:00 | 00:00:00 | 00:00:00 | |
| DL0LBS | 2026-08-30 14:05:08 | 49.08904 | 11.12298 | 74° | 53km/h | 2363m | -3.2m/s | 8.6°C | 80.7% | 771.9hPa | 2.7V | 07:09:00 | 00:00:00 | 00:00:00 | |
| DO3MHA-11 | 2026-08-30 14:05:07 | 49.08896 | 11.12259 | 73° | 53km/h | 2369m | -3.2m/s | 8.6°C | 82.1% | 771.3hPa | 2.7V | 00:00:00 | 03:20:43 | 00:00:00 | |
| NBG1-10 | 2026-08-30 14:05:04 | 49.08884 | 11.12201 | 73° | 53km/h | 2379m | -3.1m/s | 8.5°C | 82.4% | 770.5hPa | 2.7V | 00:00:00 | 03:20:40 | 00:00:00 | |
| DK5PH-5 | 2026-08-30 14:05:03 | 49.08881 | 11.12182 | 74° | 53km/h | 2382m | -3.1m/s | 8.5°C | 82.3% | 770.2hPa | 2.7V | 07:09:00 | 03:20:39 | 00:00:00 | |
| DO3MHA-11 | 2026-08-30 14:05:02 | 49.08877 | 11.12162 | 75° | 53km/h | 2385m | -3.2m/s | 8.4°C | 82.6% | 769.9hPa | 2.7V | 00:00:00 | 03:20:38 | 00:00:00 | |
| DO3MHA-11 | 2026-08-30 14:04:57 | 49.08858 | 11.12064 | 73° | 53km/h | 2401m | -3.0m/s | 8.3°C | 82.9% | 768.4hPa | 2.7V | 00:00:00 | 03:20:33 | 00:00:00 | |
| DO3MHA-11 | 2026-08-30 14:04:52 | 49.08839 | 11.11966 | 74° | 53km/h | 2416m | -3.0m/s | 8.2°C | 83.4% | 766.9hPa | 2.7V | 00:00:00 | 03:20:28 | 00:00:00 | |
| DL0LBS | 2026-08-30 14:04:48 | 49.08827 | 11.11908 | 74° | 51km/h | 2425m | -3.2m/s | 8.1°C | 81.9% | 766.2hPa | 2.7V | 07:10:00 | 00:00:00 | 00:00:00 | |
| DO3MHA-11 | 2026-08-30 14:04:47 | 49.08820 | 11.11869 | 74° | 53km/h | 2432m | -3.0m/s | 8.1°C | 83.3% | 765.5hPa | 2.7V | 00:00:00 | 03:20:23 | 00:00:00 | |
| DO3MHA-11 | 2026-08-30 14:04:42 | 49.08801 | 11.11771 | 74° | 53km/h | 2447m | -3.0m/s | 8.0°C | 83.3% | 764.1hPa | 2.7V | 00:00:00 | 03:20:18 | 00:00:00 | |
| DL6DJ-15 | 2026-08-30 14:04:41 | 49.08798 | 11.11751 | 74° | 51km/h | 2450m | -3.2m/s | 8.0°C | 81.8% | 763.8hPa | 2.7V | 00:00:00 | 00:00:00 | 00:00:00 | |
| DF3TZ-5 | 2026-08-30 14:04:39 | 49.08790 | 11.11712 | 72° | 51km/h | 2456m | -3.1m/s | 8.0°C | 81.3% | 763.3hPa | 2.7V | 00:00:00 | 00:00:00 | 00:00:00 | |
| DO3MHA-11 | 2026-08-30 14:04:37 | 49.08782 | 11.11673 | 75° | 53km/h | 2462m | -2.9m/s | 7.9°C | 83.6% | 762.7hPa | 2.7V | 00:00:00 | 03:20:13 | 00:00:00 | |
| DO3MHA-11 | 2026-08-30 14:04:32 | 49.08764 | 11.11575 | 74° | 53km/h | 2477m | -2.9m/s | 7.8°C | 83.7% | 761.2hPa | 2.7V | 07:09:00 | 03:20:08 | 00:00:00 | |
| DO3MHA-11 | 2026-08-30 14:04:27 | 49.08745 | 11.11476 | 74° | 53km/h | 2492m | -3.0m/s | 7.5°C | 85.3% | 759.9hPa | 2.7V | 00:00:00 | 03:20:03 | 00:00:00 | |
| DO3MHA-11 | 2026-08-30 14:04:22 | 49.08726 | 11.11378 | 75° | 53km/h | 2508m | -3.1m/s | 7.4°C | 85.6% | 758.5hPa | 2.7V | 00:00:00 | 03:19:58 | 00:00:00 | |
| NBG1-10 | 2026-08-30 14:04:20 | 49.08719 | 11.11339 | 74° | 53km/h | 2514m | -3.1m/s | 7.4°C | 85.8% | 758.0hPa | 2.7V | 00:00:00 | 03:19:56 | 00:00:00 | |
| DO3MHA-11 | 2026-08-30 14:04:17 | 49.08707 | 11.11280 | 74° | 53km/h | 2523m | -3.0m/s | 7.2°C | 86.5% | 757.0hPa | 2.7V | 00:00:00 | 03:19:53 | 00:00:00 | |
| DO3MHA-11 | 2026-08-30 14:04:12 | 49.08689 | 11.11180 | 75° | 53km/h | 2539m | -3.0m/s | 7.1°C | 87.0% | 755.7hPa | 2.7V | 00:00:00 | 03:19:48 | 00:00:00 | |
| DL6DJ-15 | 2026-08-30 14:04:10 | 49.08682 | 11.11140 | 73° | 53km/h | 2545m | -3.1m/s | 7.2°C | 85.4% | 755.1hPa | 2.7V | 00:00:00 | 00:00:00 | 00:00:00 | |
| DF3TZ-5 | 2026-08-30 14:04:08 | 49.08674 | 11.11101 | 73° | 53km/h | 2551m | -3.2m/s | 7.1°C | 85.8% | 754.7hPa | 2.7V | 00:00:00 | 00:00:00 | 00:00:00 | |
| DO3MHA-11 | 2026-08-30 14:04:07 | 49.08670 | 11.11081 | 74° | 53km/h | 2554m | -3.0m/s | 7.0°C | 87.6% | 754.2hPa | 2.7V | 00:00:00 | 03:19:43 | 00:00:00 | |
| DL0LBS | 2026-08-30 14:04:06 | 49.08669 | 11.11081 | 75° | 55km/h | 2554m | -3.0m/s | 7.1°C | 85.8% | 754.3hPa | 2.7V | 07:11:00 | 00:00:00 | 00:00:00 | |
| DO3MHA-11 | 2026-08-30 14:04:02 | 49.08651 | 11.10982 | 74° | 55km/h | 2569m | -3.0m/s | 6.8°C | 88.5% | 752.8hPa | 2.7V | 00:00:00 | 03:19:38 | 00:00:00 | |
| NBG1-10 | 2026-08-30 14:03:58 | 49.08635 | 11.10901 | 73° | 55km/h | 2581m | -2.9m/s | 6.7°C | 88.8% | 751.8hPa | 2.7V | 00:00:00 | 03:19:34 | 00:00:00 | |
| DO3MHA-11 | 2026-08-30 14:03:57 | 49.08631 | 11.10882 | 73° | 55km/h | 2584m | -2.9m/s | 6.7°C | 88.9% | 751.4hPa | 2.7V | 00:00:00 | 03:19:33 | 00:00:00 | |
| DO3MHA-11 | 2026-08-30 14:03:52 | 49.08610 | 11.10782 | 73° | 55km/h | 2599m | -2.9m/s | 6.5°C | 89.7% | 750.1hPa | 2.7V | 07:10:00 | 03:19:28 | 00:00:00 | |
| DO3MHA-11 | 2026-08-30 14:03:47 | 49.08589 | 11.10682 | 72° | 55km/h | 2615m | -3.1m/s | 6.4°C | 90.2% | 748.4hPa | 2.7V | 00:00:00 | 03:19:23 | 00:00:00 | |
| DL0LBS | 2026-08-30 14:03:45 | 49.08585 | 11.10662 | 74° | 55km/h | 2618m | -3.2m/s | 6.5°C | 88.5% | 748.4hPa | 2.7V | 07:11:00 | 00:00:00 | 00:00:00 | |
| DO3MHA-11 | 2026-08-30 14:03:42 | 49.08568 | 11.10582 | 72° | 55km/h | 2630m | -3.1m/s | 6.3°C | 90.7% | 747.3hPa | 2.7V | 00:00:00 | 03:19:18 | 00:00:00 | |
| DK5PH-5 | 2026-08-30 14:03:41 | 49.08564 | 11.10562 | 72° | 55km/h | 2633m | -3.0m/s | 6.2°C | 90.9% | 747.0hPa | 2.7V | 00:00:00 | 03:19:17 | 00:00:00 | |
| DL6DJ-15 | 2026-08-30 14:03:39 | 49.08555 | 11.10522 | 71° | 53km/h | 2640m | -3.3m/s | 6.3°C | 88.6% | 746.5hPa | 2.7V | 00:00:00 | 00:00:00 | 00:00:00 | |
| DO3MHA-11 | 2026-08-30 14:03:37 | 49.08546 | 11.10483 | 73° | 53km/h | 2646m | -3.2m/s | 6.2°C | 91.3% | 745.8hPa | 2.7V | 00:00:00 | 03:19:13 | 00:00:00 | |
| NBG1-10 | 2026-08-30 14:03:36 | 49.08542 | 11.10463 | 72° | 53km/h | 2649m | -3.1m/s | 6.1°C | 91.3% | 745.5hPa | 2.7V | 00:00:00 | 03:19:12 | 00:00:00 | |
| DO3MHA-11 | 2026-08-30 14:03:32 | 49.08525 | 11.10385 | 72° | 53km/h | 2662m | -2.9m/s | 6.0°C | 92.0% | 744.4hPa | 2.7V | 00:00:00 | 03:19:08 | 00:00:00 | |
| DO3MHA-11 | 2026-08-30 14:03:27 | 49.08504 | 11.10286 | 73° | 55km/h | 2677m | -2.8m/s | 6.0°C | 89.5% | 743.0hPa | 2.7V | 00:00:00 | 03:19:03 | 00:00:00 | |
| DL0LBS | 2026-08-30 14:03:25 | 49.08500 | 11.10267 | 73° | 55km/h | 2680m | -2.9m/s | 6.0°C | 87.9% | 742.9hPa | 2.7V | 07:11:00 | 00:00:00 | 00:00:00 | |
| DO3MHA-11 | 2026-08-30 14:03:22 | 49.08482 | 11.10187 | 72° | 53km/h | 2692m | -2.9m/s | 5.8°C | 90.1% | 741.7hPa | 2.7V | 00:00:00 | 03:18:58 | 00:00:00 | |
| DK5PH-5 | 2026-08-30 14:03:21 | 49.08478 | 11.10168 | 72° | 55km/h | 2695m | -2.8m/s | 5.8°C | 90.2% | 741.5hPa | 2.7V | 00:00:00 | 03:18:57 | 00:00:00 | |
| DO3MHA-11 | 2026-08-30 14:03:17 | 49.08461 | 11.10090 | 73° | 55km/h | 2706m | -2.9m/s | 5.7°C | 90.6% | 740.6hPa | 2.7V | 00:00:00 | 03:18:53 | 00:00:00 | |
| NBG1-10 | 2026-08-30 14:03:14 | 49.08448 | 11.10030 | 70° | 55km/h | 2714m | -2.7m/s | 5.7°C | 89.9% | 739.6hPa | 2.7V | 00:00:00 | 03:18:50 | 00:00:00 | |
| DO3MHA-11 | 2026-08-30 14:03:12 | 49.08439 | 11.09990 | 71° | 55km/h | 2720m | -2.7m/s | 5.6°C | 90.5% | 739.3hPa | 2.7V | 07:11:00 | 03:18:48 | 00:00:00 | |
| DL6DJ-15 | 2026-08-30 14:03:08 | 49.08420 | 11.09912 | 70° | 53km/h | 2731m | -2.8m/s | 5.6°C | 88.6% | 738.0hPa | 2.7V | 00:00:00 | 00:00:00 | 00:00:00 | |
| DO3MHA-11 | 2026-08-30 14:03:07 | 49.08416 | 11.09892 | 71° | 55km/h | 2734m | -2.7m/s | 5.5°C | 90.7% | 738.0hPa | 2.7V | 00:00:00 | 03:18:43 | 00:00:00 | |
| DF3TZ-5 | 2026-08-30 14:03:06 | 49.08411 | 11.09872 | 70° | 53km/h | 2736m | -2.8m/s | 5.6°C | 88.6% | 737.8hPa | 2.7V | 00:00:00 | 00:00:00 | 00:00:00 | |
| DL0LBS | 2026-08-30 14:03:04 | 49.08407 | 11.09852 | 73° | 55km/h | 2740m | -2.7m/s | 5.5°C | 89.0% | 737.5hPa | 2.7V | 07:11:00 | 00:00:00 | 00:00:00 | |
| DO3MHA-11 | 2026-08-30 14:03:02 | 49.08393 | 11.09793 | 73° | 55km/h | 2748m | -2.6m/s | 5.4°C | 91.2% | 736.8hPa | 2.7V | 00:00:00 | 03:18:38 | 00:00:00 | |
| DK5PH-5 | 2026-08-30 14:03:01 | 49.08389 | 11.09773 | 72° | 53km/h | 2751m | -2.7m/s | 5.4°C | 91.3% | 736.4hPa | 2.7V | 00:00:00 | 03:18:37 | 00:00:00 | |
| DO3MHA-11 | 2026-08-30 14:02:57 | 49.08371 | 11.09695 | 70° | 53km/h | 2761m | -2.7m/s | 5.2°C | 92.4% | 735.4hPa | 2.7V | 00:00:00 | 03:18:33 | 00:00:00 | |
| DO3MHA-11 | 2026-08-30 14:02:52 | 49.08348 | 11.09599 | 69° | 53km/h | 2775m | -2.5m/s | 5.2°C | 91.9% | 734.3hPa | 2.7V | 00:00:00 | 03:18:28 | 00:00:00 | |
| DO3MHA-11 | 2026-08-30 14:02:47 | 49.08323 | 11.09504 | 69° | 53km/h | 2788m | -2.5m/s | 5.2°C | 91.6% | 733.2hPa | 2.7V | 00:00:00 | 03:18:23 | 00:00:00 | |
| DL0LBS | 2026-08-30 14:02:43 | 49.08308 | 11.09447 | 71° | 53km/h | 2795m | -2.4m/s | 5.2°C | 88.2% | 732.5hPa | 2.7V | 07:11:00 | 00:00:00 | 00:00:00 | |
| DO3MHA-11 | 2026-08-30 14:02:42 | 49.08299 | 11.09408 | 70° | 53km/h | 2801m | -2.5m/s | 5.2°C | 90.4% | 732.0hPa | 2.7V | 00:00:00 | 03:18:18 | 00:00:00 | |
| DK5PH-5 | 2026-08-30 14:02:41 | 49.08294 | 11.09389 | 70° | 49km/h | 2803m | -2.5m/s | 5.1°C | 90.7% | 731.8hPa | 2.7V | 00:00:00 | 03:18:17 | 00:00:00 | |
| DO3MHA-11 | 2026-08-30 14:02:37 | 49.08276 | 11.09312 | 70° | 51km/h | 2812m | -2.2m/s | 5.0°C | 90.8% | 730.9hPa | 2.7V | 00:00:00 | 03:18:13 | 00:00:00 | |
| DF3TZ-5 | 2026-08-30 14:02:35 | 49.08267 | 11.09275 | 69° | 51km/h | 2817m | -2.1m/s | 5.0°C | -1.0% | 730.6hPa | 2.7V | 00:00:00 | 00:00:00 | 00:00:00 | |
| DO3MHA-11 | 2026-08-30 14:02:32 | 49.08252 | 11.09220 | 69° | 49km/h | 2824m | -2.0m/s | 4.9°C | 91.2% | 729.8hPa | 2.7V | 07:11:00 | 03:18:08 | 00:00:00 | |
| NBG1-10 | 2026-08-30 14:02:30 | 49.08242 | 11.09184 | 66° | 47km/h | 2828m | -2.5m/s | 5.0°C | 89.9% | 729.6hPa | 2.7V | 00:00:00 | 03:18:06 | 00:00:00 | |
| DO3MHA-11 | 2026-08-30 14:02:27 | 49.08229 | 11.09132 | 68° | 47km/h | 2836m | -2.2m/s | 5.1°C | 89.2% | 728.8hPa | 2.7V | 00:00:00 | 03:18:03 | 00:00:00 | |
| DO3MHA-11 | 2026-08-30 14:02:22 | 49.08206 | 11.09047 | 69° | 47km/h | 2848m | -2.3m/s | 5.0°C | 89.3% | 727.7hPa | 2.7V | 00:00:00 | 03:17:58 | 00:00:00 | |
| DK5PH-5 | 2026-08-30 14:02:20 | 49.08198 | 11.09013 | 68° | 47km/h | 2853m | -2.4m/s | 5.0°C | 89.7% | 727.2hPa | 2.7V | 07:12:00 | 03:17:56 | 00:00:00 | |
| DO3MHA-11 | 2026-08-30 14:02:17 | 49.08183 | 11.08962 | 67° | 49km/h | 2860m | -2.6m/s | 4.9°C | 89.5% | 726.6hPa | 2.7V | 00:00:00 | 03:17:53 | 00:00:00 | |
| DO3MHA-11 | 2026-08-30 14:02:12 | 49.08158 | 11.08876 | 69° | 47km/h | 2872m | -2.4m/s | 4.8°C | 90.2% | 725.6hPa | 2.7V | 00:00:00 | 03:17:48 | 00:00:00 | |
| NBG1-10 | 2026-08-30 14:02:08 | 49.08140 | 11.08809 | 69° | 46km/h | 2882m | -2.9m/s | 4.9°C | 88.1% | 724.8hPa | 2.7V | 00:00:00 | 03:17:44 | 00:00:00 | |
| DO3MHA-11 | 2026-08-30 14:02:07 | 49.08136 | 11.08792 | 69° | 46km/h | 2885m | -2.9m/s | 5.0°C | 87.6% | 724.4hPa | 2.7V | 00:00:00 | 03:17:43 | 00:00:00 | |
| DF3TZ-5 | 2026-08-30 14:02:06 | 49.08124 | 11.08742 | 71° | 46km/h | 2894m | -3.0m/s | 0°C | -1.0% | -1.0hPa | 2.7V | 00:00:00 | 00:00:00 | 00:00:00 | |
| DO3MHA-11 | 2026-08-30 14:02:02 | 49.08117 | 11.08708 | 73° | 47km/h | 2900m | -3.1m/s | 5.0°C | 87.0% | 723.2hPa | 2.7V | 00:00:00 | 03:17:38 | 00:00:00 | |
| DK5PH-5 | 2026-08-30 14:02:00 | 49.08109 | 11.08673 | 73° | 46km/h | 2907m | -3.1m/s | 5.0°C | 86.5% | 722.5hPa | 2.7V | 00:00:00 | 03:17:36 | 00:00:00 | |
| DO3MHA-11 | 2026-08-30 14:01:57 | 49.08099 | 11.08622 | 72° | 46km/h | 2916m | -3.0m/s | 5.4°C | 82.5% | 721.8hPa | 2.7V | 00:00:00 | 03:17:33 | 00:00:00 | |
| DO3MHA-11 | 2026-08-30 14:01:52 | 49.08079 | 11.08541 | 67° | 44km/h | 2932m | -2.8m/s | 5.3°C | 82.2% | 720.3hPa | 2.7V | 07:12:00 | 03:17:28 | 00:00:00 | |
| DO3MHA-11 | 2026-08-30 14:01:47 | 49.08056 | 11.08464 | 65° | 46km/h | 2947m | -2.9m/s | 5.1°C | 84.1% | 719.1hPa | 2.7V | 00:00:00 | 03:17:23 | 00:00:00 | |
| NBG1-10 | 2026-08-30 14:01:46 | 49.08051 | 11.08448 | 68° | 46km/h | 2949m | -2.8m/s | 4.9°C | 86.9% | 718.7hPa | 2.7V | 07:12:00 | 03:17:22 | 00:00:00 | |
| DO3MHA-11 | 2026-08-30 14:01:42 | 49.08032 | 11.08382 | 68° | 46km/h | 2961m | -3.0m/s | 4.7°C | 88.8% | 717.7hPa | 2.7V | 00:00:00 | 03:17:18 | 00:00:00 | |
| DO9HM | 2026-08-30 14:01:41 | 49.08028 | 11.08366 | 67° | 47km/h | 2964m | -2.9m/s | 4.7°C | 86.7% | 717.5hPa | 2.7V | 07:12:00 | 00:00:00 | 00:00:00 | |
| DK5PH-5 | 2026-08-30 14:01:40 | 49.08023 | 11.08349 | 66° | 44km/h | 2967m | -2.8m/s | 4.6°C | 89.1% | 717.2hPa | 2.7V | 00:00:00 | 03:17:16 | 00:00:00 | |
| DO3MHA-11 | 2026-08-30 14:01:37 | 49.08009 | 11.08302 | 65° | 44km/h | 2975m | -2.8m/s | 4.5°C | 89.7% | 716.5hPa | 2.7V | 00:00:00 | 03:17:13 | 00:00:00 | |
| DL6DJ-15 | 2026-08-30 14:01:35 | 49.07995 | 11.08256 | 65° | 44km/h | 2985m | -3.2m/s | 4.5°C | 87.8% | 715.6hPa | 2.7V | 00:00:00 | 00:00:00 | 00:00:00 | |
| DO3MHA-11 | 2026-08-30 14:01:32 | 49.07986 | 11.08225 | 65° | 44km/h | 2991m | -3.1m/s | 4.4°C | 90.2% | 715.1hPa | 2.7V | 00:00:00 | 03:17:08 | 00:00:00 | |
| DO3MHA-11 | 2026-08-30 14:01:27 | 49.07962 | 11.08148 | 65° | 42km/h | 3007m | -3.1m/s | 4.3°C | 90.6% | 713.7hPa | 2.7V | 00:00:00 | 03:17:03 | 00:00:00 | |
| NBG1-10 | 2026-08-30 14:01:24 | 49.07948 | 11.08103 | 65° | 44km/h | 3016m | -3.0m/s | 4.6°C | 87.2% | 712.8hPa | 2.7V | 00:00:00 | 03:17:00 | 00:00:00 | |
| DO3MHA-11 | 2026-08-30 14:01:22 | 49.07939 | 11.08073 | 64° | 44km/h | 3022m | -2.9m/s | 4.5°C | 86.4% | 712.3hPa | 2.7V | 00:00:00 | 03:16:58 | 00:00:00 | |
| DL0LBS | 2026-08-30 14:01:21 | 49.07939 | 11.08073 | 65° | 44km/h | 3022m | -2.9m/s | 4.6°C | 84.3% | 712.4hPa | 2.7V | 07:13:00 | 00:00:00 | 00:00:00 | |
| DK5PH-5 | 2026-08-30 14:01:20 | 49.07929 | 11.08044 | 65° | 44km/h | 3028m | -3.0m/s | 4.5°C | 86.5% | 711.6hPa | 2.7V | 00:00:00 | 03:16:56 | 00:00:00 | |
| DO9HM | 2026-08-30 14:01:18 | 49.07924 | 11.08029 | 65° | 44km/h | 3032m | -3.0m/s | 4.4°C | 86.2% | 711.5hPa | 2.7V | 07:13:00 | 00:00:00 | 00:00:00 | |
| DO3MHA-11 | 2026-08-30 14:01:17 | 49.07914 | 11.07999 | 64° | 44km/h | 3038m | -2.9m/s | 4.3°C | 88.8% | 710.9hPa | 2.7V | 00:00:00 | 03:16:53 | 00:00:00 | |
| DO3MHA-11 | 2026-08-30 14:01:12 | 49.07891 | 11.07923 | 66° | 44km/h | 3053m | -2.8m/s | 4.4°C | 80.2% | 709.7hPa | 2.7V | 07:13:00 | 03:16:48 | 00:00:00 | |
| DO3MHA-11 | 2026-08-30 14:01:07 | 49.07866 | 11.07847 | 63° | 44km/h | 3068m | -2.9m/s | 4.2°C | 85.6% | 708.5hPa | 2.7V | 00:00:00 | 03:16:43 | 00:00:00 | |
| DL6DJ-15 | 2026-08-30 14:01:04 | 49.07847 | 11.07787 | 64° | 42km/h | 3079m | -2.8m/s | 4.3°C | 76.6% | 707.4hPa | 2.7V | 00:00:00 | 00:00:00 | 00:00:00 | |
| DO3MHA-11 | 2026-08-30 14:01:02 | 49.07842 | 11.07771 | 66° | 46km/h | 3082m | -2.8m/s | 4.2°C | 78.5% | 707.2hPa | 2.7V | 00:00:00 | 03:16:38 | 00:00:00 | |
| DL0LBS | 2026-08-30 14:01:00 | 49.07837 | 11.07755 | 66° | 46km/h | 3085m | -2.8m/s | 4.3°C | 76.4% | 707.0hPa | 2.7V | 07:13:00 | 00:00:00 | 00:00:00 | |
| DO9HM | 2026-08-30 14:00:58 | 49.07828 | 11.07724 | 68° | 46km/h | 3091m | -2.9m/s | 4.3°C | 76.6% | 706.4hPa | 2.7V | 07:13:00 | 00:00:00 | 00:00:00 | |
| DO3MHA-11 | 2026-08-30 14:00:57 | 49.07819 | 11.07692 | 66° | 46km/h | 3096m | -2.8m/s | 4.2°C | 78.4% | 705.9hPa | 2.7V | 00:00:00 | 03:16:33 | 00:00:00 | |
| DO3MHA-11 | 2026-08-30 14:00:52 | 49.07795 | 11.07613 | 65° | 46km/h | 3110m | -2.7m/s | 4.1°C | 79.0% | 704.8hPa | 2.7V | 00:00:00 | 03:16:28 | 00:00:00 | |
| DK5PH-5 | 2026-08-30 14:00:50 | 49.07785 | 11.07581 | 64° | 46km/h | 3116m | -2.6m/s | 4.0°C | 79.1% | 704.3hPa | 2.7V | 00:00:00 | 03:16:26 | 00:00:00 | |
| DO3MHA-11 | 2026-08-30 14:00:47 | 49.07770 | 11.07534 | 64° | 46km/h | 3124m | -2.6m/s | 4.0°C | 79.3% | 703.6hPa | 2.7V | 00:00:00 | 03:16:23 | 00:00:00 | |
| DO3MHA-11 | 2026-08-30 14:00:42 | 49.07745 | 11.07457 | 65° | 44km/h | 3137m | -2.6m/s | 3.9°C | 79.4% | 702.3hPa | 2.7V | 00:00:00 | 03:16:18 | 00:00:00 | |
| NBG1-10 | 2026-08-30 14:00:40 | 49.07734 | 11.07426 | 63° | 46km/h | 3142m | -2.7m/s | 3.8°C | 80.0% | 701.9hPa | 2.7V | 00:00:00 | 03:16:16 | 00:00:00 | |
| DL0LBS | 2026-08-30 14:00:39 | 49.07734 | 11.07426 | 64° | 46km/h | 3142m | -2.7m/s | 3.8°C | 77.9% | 701.9hPa | 2.7V | 07:14:00 | 00:00:00 | 00:00:00 | |
| DO3MHA-11 | 2026-08-30 14:00:37 | 49.07719 | 11.07380 | 64° | 44km/h | 3150m | -2.5m/s | 3.8°C | 80.3% | 701.3hPa | 2.7V | 00:00:00 | 03:16:13 | 00:00:00 | |
| DO9HM | 2026-08-30 14:00:34 | 49.07709 | 11.07350 | 65° | 44km/h | 3156m | -2.6m/s | 3.8°C | 77.9% | 700.9hPa | 2.7V | 07:14:00 | 00:00:00 | 00:00:00 | |
| DL6DJ-15 | 2026-08-30 14:00:33 | 49.07699 | 11.07319 | 62° | 44km/h | 3160m | -2.6m/s | 3.8°C | 76.8% | 700.4hPa | 2.7V | 00:00:00 | 00:00:00 | 00:00:00 | |
| DO3MHA-11 | 2026-08-30 14:00:32 | 49.07694 | 11.07304 | 64° | 46km/h | 3163m | -2.5m/s | 3.8°C | 78.6% | 700.1hPa | 2.7V | 07:13:00 | 03:16:08 | 00:00:00 | |
| DO3MHA-11 | 2026-08-30 14:00:27 | 49.07668 | 11.07225 | 64° | 49km/h | 3176m | -2.4m/s | 3.6°C | 78.7% | 699.1hPa | 2.7V | 00:00:00 | 03:16:03 | 00:00:00 | |
| DO3MHA-11 | 2026-08-30 14:00:22 | 49.07639 | 11.07142 | 61° | 51km/h | 3189m | -2.4m/s | 3.6°C | 78.3% | 697.9hPa | 2.7V | 00:00:00 | 03:15:58 | 00:00:00 | |
| DK5PH-5 | 2026-08-30 14:00:20 | 49.07627 | 11.07109 | 60° | 51km/h | 3193m | -2.3m/s | 3.5°C | 78.4% | 697.5hPa | 2.7V | 00:00:00 | 03:15:56 | 00:00:00 | |
| DL0LBS | 2026-08-30 14:00:19 | 49.07627 | 11.07109 | 61° | 51km/h | 3193m | -2.4m/s | 3.6°C | 76.3% | 697.5hPa | 2.7V | 07:14:00 | 00:00:00 | 00:00:00 | |
| NBG1-10 | 2026-08-30 14:00:18 | 49.07613 | 11.07075 | 58° | 51km/h | 3198m | -2.5m/s | 3.5°C | 78.2% | 697.1hPa | 2.7V | 00:00:00 | 03:15:54 | 00:00:00 | |
| DO3MHA-11 | 2026-08-30 14:00:17 | 49.07606 | 11.07059 | 58° | 51km/h | 3201m | -2.4m/s | 3.5°C | 78.1% | 696.9hPa | 2.7V | 00:00:00 | 03:15:53 | 00:00:00 | |
| DO3MHA-11 | 2026-08-30 14:00:12 | 49.07571 | 11.06977 | 57° | 51km/h | 3212m | -2.0m/s | 3.4°C | 78.3% | 695.8hPa | 2.7V | 00:00:00 | 03:15:48 | 00:00:00 | |
| DO3MHA-11 | 2026-08-30 14:00:07 | 49.07537 | 11.06895 | 58° | 51km/h | 3223m | -2.2m/s | 3.3°C | 78.9% | 694.9hPa | 2.7V | 00:00:00 | 03:15:43 | 00:00:00 | |
| DO3MHA-11 | 2026-08-30 14:00:02 | 49.07502 | 11.06813 | 57° | 49km/h | 3234m | -2.3m/s | 3.3°C | 79.4% | 694.0hPa | 2.7V | 00:00:00 | 03:15:38 | 00:00:00 | |
| DL0LBS | 2026-08-30 13:59:59 | 49.07489 | 11.06781 | 59° | 51km/h | 3239m | -2.3m/s | 3.4°C | 74.9% | 693.6hPa | 2.7V | 07:14:00 | 00:00:00 | 00:00:00 | |
| DO3MHA-11 | 2026-08-30 13:59:57 | 49.07468 | 11.06732 | 58° | 51km/h | 3246m | -2.2m/s | 3.5°C | 69.5% | 693.0hPa | 2.7V | 00:00:00 | 03:15:33 | 00:00:00 | |
| NBG1-10 | 2026-08-30 13:59:54 | 49.07447 | 11.06684 | 58° | 51km/h | 3253m | -2.1m/s | 3.8°C | 55.8% | 692.4hPa | 2.7V | 00:00:00 | 03:15:30 | 00:00:00 | |
| DO3MHA-11 | 2026-08-30 13:59:52 | 49.07433 | 11.06651 | 57° | 51km/h | 3257m | -2.2m/s | 4.0°C | 52.1% | 692.1hPa | 2.7V | 07:14:00 | 03:15:28 | 00:00:00 | |
| DK5PH-5 | 2026-08-30 13:59:50 | 49.07419 | 11.06618 | 58° | 49km/h | 3262m | -2.3m/s | 3.9°C | 52.8% | 691.8hPa | 2.7V | 00:00:00 | 03:15:26 | 00:00:00 | |
| DO3MHA-11 | 2026-08-30 13:59:47 | 49.07398 | 11.06569 | 58° | 51km/h | 3269m | -2.2m/s | 3.9°C | 52.4% | 691.2hPa | 2.7V | 00:00:00 | 03:15:23 | 00:00:00 | |
| DO9HM | 2026-08-30 13:59:46 | 49.07398 | 11.06569 | 58° | 51km/h | 3269m | -2.2m/s | 3.9°C | 51.1% | 691.3hPa | 2.7V | 07:15:00 | 00:00:00 | 00:00:00 | |
| DO3MHA-11 | 2026-08-30 13:59:42 | 49.07364 | 11.06487 | 58° | 51km/h | 3280m | -2.4m/s | 3.8°C | 50.1% | 690.2hPa | 2.7V | 00:00:00 | 03:15:18 | 00:00:00 | |
| DL0LBS | 2026-08-30 13:59:38 | 49.07343 | 11.06438 | 59° | 51km/h | 3287m | -2.4m/s | 3.8°C | 48.4% | 689.6hPa | 2.7V | 07:15:00 | 00:00:00 | 00:00:00 | |
| DO3MHA-11 | 2026-08-30 13:59:37 | 49.07329 | 11.06405 | 59° | 51km/h | 3292m | -2.4m/s | 3.7°C | 50.1% | 689.2hPa | 2.7V | 00:00:00 | 03:15:13 | 00:00:00 | |
| DO3MHA-11 | 2026-08-30 13:59:32 | 49.07295 | 11.06320 | 59° | 51km/h | 3304m | -2.3m/s | 3.6°C | 49.1% | 688.2hPa | 2.7V | 00:00:00 | 03:15:08 | 00:00:00 | |
| DL6DJ-15 | 2026-08-30 13:59:31 | 49.07281 | 11.06286 | 59° | 49km/h | 3309m | -2.2m/s | 3.6°C | 48.2% | 687.8hPa | 2.7V | 00:00:00 | 00:00:00 | 00:00:00 | |
| DL9SK-14 | 2026-08-30 13:59:30 | 49.07275 | 11.06270 | 59° | 49km/h | 3311m | -2.4m/s | 3.6°C | 48.3% | 687.6hPa | 2.7V | 00:00:00 | 00:00:00 | 00:00:00 | |
| DO3MHA-11 | 2026-08-30 13:59:27 | 49.07262 | 11.06237 | 60° | 47km/h | 3316m | -2.3m/s | 3.6°C | 49.9% | 687.2hPa | 2.7V | 00:00:00 | 03:15:03 | 00:00:00 | |
| DO9HM | 2026-08-30 13:59:25 | 49.07255 | 11.06221 | 61° | 49km/h | 3318m | -2.3m/s | 3.6°C | 49.8% | 686.8hPa | 2.7V | 07:15:00 | 00:00:00 | 00:00:00 | |
| DO3MHA-11 | 2026-08-30 13:59:22 | 49.07231 | 11.06157 | 61° | 47km/h | 3328m | -2.3m/s | 3.5°C | 52.0% | 686.1hPa | 2.7V | 00:00:00 | 03:14:58 | 00:00:00 | |
| NBG1-10 | 2026-08-30 13:59:21 | 49.07225 | 11.06141 | 61° | 46km/h | 3330m | -2.2m/s | 3.5°C | 51.8% | 685.9hPa | 2.7V | 00:00:00 | 03:14:57 | 00:00:00 | |
| DK5PH-5 | 2026-08-30 13:59:20 | 49.07219 | 11.06125 | 61° | 46km/h | 3332m | -2.3m/s | 3.5°C | 51.3% | 685.6hPa | 2.7V | 00:00:00 | 03:14:56 | 00:00:00 | |
| DL0LBS | 2026-08-30 13:59:18 | 49.07213 | 11.06109 | 63° | 47km/h | 3334m | -2.2m/s | 3.5°C | 49.8% | 685.6hPa | 2.7V | 07:15:00 | 00:00:00 | 00:00:00 | |
| DO3MHA-11 | 2026-08-30 13:59:17 | 49.07201 | 11.06076 | 61° | 47km/h | 3339m | -2.2m/s | 3.5°C | 49.9% | 685.1hPa | 2.7V | 00:00:00 | 03:14:53 | 00:00:00 | |
| DO3MHA-11 | 2026-08-30 13:59:12 | 49.07172 | 11.05996 | 62° | 47km/h | 3350m | -2.3m/s | 3.4°C | 48.3% | 684.2hPa | 2.7V | 07:15:00 | 03:14:48 | 00:00:00 | |
| DO3MHA-11 | 2026-08-30 13:59:07 | 49.07144 | 11.05916 | 63° | 46km/h | 3362m | -2.4m/s | 3.4°C | 44.6% | 683.1hPa | 2.7V | 00:00:00 | 03:14:43 | 00:00:00 | |
| DO3MHA-11 | 2026-08-30 13:59:02 | 49.07117 | 11.05836 | 64° | 46km/h | 3374m | -2.4m/s | 3.5°C | 40.7% | 682.2hPa | 2.7V | 00:00:00 | 03:14:38 | 00:00:00 | |
| DL6DJ-15 | 2026-08-30 13:59:00 | 49.07102 | 11.05789 | 63° | 44km/h | 3381m | -2.3m/s | 3.7°C | 34.6% | 681.6hPa | 2.7V | 00:00:00 | 00:00:00 | 00:00:00 | |
| DL0LBS | 2026-08-30 13:58:58 | 49.07102 | 11.05789 | 64° | 46km/h | 3381m | -2.3m/s | 3.7°C | 34.6% | 681.6hPa | 2.7V | 07:16:00 | 00:00:00 | 00:00:00 | |
| DO3MHA-11 | 2026-08-30 13:58:57 | 49.07092 | 11.05758 | 64° | 46km/h | 3386m | -2.4m/s | 3.6°C | 35.8% | 681.1hPa | 2.7V | 00:00:00 | 03:14:33 | 00:00:00 | |
| DO3MHA-11 | 2026-08-30 13:58:52 | 49.07067 | 11.05680 | 64° | 46km/h | 3398m | -2.4m/s | 3.5°C | 36.4% | 680.2hPa | 2.7V | 00:00:00 | 03:14:28 | 00:00:00 | |
| DK5PH-5 | 2026-08-30 13:58:50 | 49.07057 | 11.05649 | 65° | 46km/h | 3403m | -2.3m/s | 3.5°C | 36.4% | 679.8hPa | 2.7V | 07:15:00 | 03:14:26 | 00:00:00 | |
| NBG1-10 | 2026-08-30 13:58:48 | 49.07047 | 11.05618 | 64° | 46km/h | 3408m | -2.3m/s | 3.4°C | 36.9% | 679.3hPa | 2.7V | 00:00:00 | 03:14:24 | 00:00:00 | |
| DO3MHA-11 | 2026-08-30 13:58:47 | 49.07042 | 11.05602 | 65° | 46km/h | 3410m | -2.3m/s | 3.4°C | 36.8% | 679.2hPa | 2.7V | 00:00:00 | 03:14:23 | 00:00:00 | |
| DO9HM | 2026-08-30 13:58:45 | 49.07032 | 11.05570 | 64° | 46km/h | 3414m | -2.3m/s | 3.4°C | 35.9% | 678.8hPa | 2.7V | 07:16:00 | 00:00:00 | 00:00:00 | |
| DO3MHA-11 | 2026-08-30 13:58:42 | 49.07017 | 11.05522 | 64° | 46km/h | 3421m | -2.3m/s | 3.3°C | 36.9% | 678.2hPa | 2.7V | 00:00:00 | 03:14:18 | 00:00:00 | |
| DO3MHA-11 | 2026-08-30 13:58:37 | 49.06992 | 11.05443 | 65° | 46km/h | 3433m | -2.2m/s | 3.2°C | 39.8% | 677.3hPa | 2.7V | 00:00:00 | 03:14:13 | 00:00:00 | |
| DO3MHA-11 | 2026-08-30 13:58:32 | 49.06967 | 11.05364 | 65° | 46km/h | 3445m | -2.2m/s | 3.1°C | 37.9% | 676.2hPa | 2.7V | 07:15:00 | 03:14:08 | 00:00:00 | |
| DL6DJ-15 | 2026-08-30 13:58:29 | 49.06947 | 11.05301 | 63° | 44km/h | 3454m | -2.2m/s | 3.1°C | 37.2% | 675.5hPa | 2.7V | 00:00:00 | 00:00:00 | 00:00:00 | |
| DO3MHA-11 | 2026-08-30 13:58:27 | 49.06942 | 11.05286 | 65° | 46km/h | 3457m | -2.3m/s | 3.0°C | 38.3% | 675.3hPa | 2.7V | 00:00:00 | 03:14:03 | 00:00:00 | |
| DO9HM | 2026-08-30 13:58:25 | 49.06933 | 11.05254 | 66° | 46km/h | 3461m | -2.3m/s | 3.0°C | 37.8% | 675.0hPa | 2.7V | 07:16:00 | 00:00:00 | 00:00:00 | |
| DO3MHA-11 | 2026-08-30 13:58:22 | 49.06918 | 11.05207 | 66° | 46km/h | 3468m | -2.2m/s | 2.9°C | 37.9% | 674.3hPa | 2.7V | 00:00:00 | 03:13:58 | 00:00:00 | |
| DK5PH-5 | 2026-08-30 13:58:20 | 49.06908 | 11.05175 | 65° | 44km/h | 3473m | -2.2m/s | 2.9°C | 38.3% | 674.0hPa | 2.7V | 00:00:00 | 03:13:56 | 00:00:00 | |
| DO3MHA-11 | 2026-08-30 13:58:17 | 49.06893 | 11.05127 | 64° | 47km/h | 3480m | -2.3m/s | 2.8°C | 38.3% | 673.4hPa | 2.7V | 00:00:00 | 03:13:53 | 00:00:00 | |
| DL0LBS | 2026-08-30 13:58:16 | 49.06893 | 11.05127 | 65° | 47km/h | 3480m | -2.4m/s | 2.9°C | 37.2% | 673.4hPa | 2.7V | 07:16:00 | 00:00:00 | 00:00:00 | |
| NBG1-10 | 2026-08-30 13:58:15 | 49.06882 | 11.05094 | 65° | 44km/h | 3484m | -2.3m/s | 2.8°C | 38.0% | 672.9hPa | 2.7V | 07:16:00 | 03:13:51 | 00:00:00 | |
| DO3MHA-11 | 2026-08-30 13:58:12 | 49.06867 | 11.05045 | 66° | 46km/h | 3491m | -2.3m/s | 2.7°C | 37.4% | 672.4hPa | 2.7V | 00:00:00 | 03:13:48 | 00:00:00 | |
| DO3MHA-11 | 2026-08-30 13:58:07 | 49.06845 | 11.04966 | 67° | 44km/h | 3503m | -2.3m/s | 2.6°C | 37.0% | 671.5hPa | 2.7V | 00:00:00 | 03:13:43 | 00:00:00 | |
| DO9HM | 2026-08-30 13:58:04 | 49.06832 | 11.04920 | 68° | 44km/h | 3509m | -2.1m/s | 2.6°C | 35.8% | 671.0hPa | 2.7V | 07:17:00 | 00:00:00 | 00:00:00 | |
| DO3MHA-11 | 2026-08-30 13:58:02 | 49.06825 | 11.04890 | 69° | 44km/h | 3513m | -2.2m/s | 2.6°C | 36.9% | 670.6hPa | 2.7V | 00:00:00 | 03:13:38 | 00:00:00 | |
| DL6DJ-15 | 2026-08-30 13:57:57 | 49.06804 | 11.04812 | 68° | 44km/h | 3524m | -2.2m/s | 2.6°C | 35.6% | 669.7hPa | 2.7V | 00:00:00 | 00:00:00 | 00:00:00 | |
| DL9SK-14 | 2026-08-30 13:57:56 | 49.06800 | 11.04797 | 68° | 42km/h | 3526m | -2.2m/s | 2.5°C | 35.8% | 669.5hPa | 2.7V | 00:00:00 | 00:00:00 | 00:00:00 | |
| DL0LBS | 2026-08-30 13:57:55 | 49.06800 | 11.04797 | 69° | 44km/h | 3526m | -2.2m/s | 2.5°C | 35.8% | 669.5hPa | 2.7V | 07:17:00 | 00:00:00 | 00:00:00 | |
| DO3MHA-11 | 2026-08-30 13:57:52 | 49.06785 | 11.04735 | 70° | 44km/h | 3535m | -2.3m/s | 2.4°C | 37.0% | 668.8hPa | 2.7V | 07:16:00 | 03:13:28 | 00:00:00 | |
| DK5PH-5 | 2026-08-30 13:57:50 | 49.06777 | 11.04704 | 68° | 44km/h | 3539m | -2.0m/s | 2.4°C | 36.6% | 668.4hPa | 2.7V | 00:00:00 | 03:13:26 | 00:00:00 | |
| DO3MHA-11 | 2026-08-30 13:57:47 | 49.06765 | 11.04657 | 68° | 44km/h | 3546m | -2.1m/s | 2.5°C | 34.0% | 667.8hPa | 2.7V | 00:00:00 | 03:13:23 | 00:00:00 | |
| DO9HM | 2026-08-30 13:57:43 | 49.06753 | 11.04611 | 70° | 44km/h | 3552m | -2.3m/s | 2.7°C | 22.0% | 667.4hPa | 2.7V | 07:17:00 | 00:00:00 | 00:00:00 | |
| DO3MHA-11 | 2026-08-30 13:57:42 | 49.06745 | 11.04580 | 69° | 44km/h | 3557m | -2.0m/s | 2.7°C | 17.5% | 666.9hPa | 2.7V | 00:00:00 | 03:13:18 | 00:00:00 | |
| DO3MHA-11 | 2026-08-30 13:57:37 | 49.06724 | 11.04502 | 68° | 44km/h | 3568m | -2.2m/s | 2.7°C | 17.4% | 666.1hPa | 2.7V | 00:00:00 | 03:13:13 | 00:00:00 | |
| DL0LBS | 2026-08-30 13:57:35 | 49.06720 | 11.04487 | 68° | 42km/h | 3570m | -2.2m/s | 2.7°C | 16.8% | 665.9hPa | 2.7V | 07:17:00 | 00:00:00 | 00:00:00 | |
| DO3MHA-11 | 2026-08-30 13:57:32 | 49.06703 | 11.04425 | 69° | 44km/h | 3579m | -2.1m/s | 2.6°C | 17.4% | 665.1hPa | 2.7V | 00:00:00 | 03:13:08 | 00:00:00 | |
| DO3MHA-11 | 2026-08-30 13:57:27 | 49.06683 | 11.04348 | 68° | 44km/h | 3589m | -2.1m/s | 2.5°C | 17.3% | 664.2hPa | 2.7V | 00:00:00 | 03:13:03 | 00:00:00 | |
| DL6DJ-15 | 2026-08-30 13:57:26 | 49.06679 | 11.04333 | 68° | 42km/h | 3591m | -2.2m/s | 2.6°C | 16.7% | 664.1hPa | 2.7V | 00:00:00 | 00:00:00 | 00:00:00 | |
| DL9SK-14 | 2026-08-30 13:57:25 | 49.06676 | 11.04317 | 69° | 42km/h | 3594m | -2.1m/s | 2.6°C | 16.7% | 663.9hPa | 2.7V | 00:00:00 | 00:00:00 | 00:00:00 | |
| DO3MHA-11 | 2026-08-30 13:57:22 | 49.06663 | 11.04271 | 70° | 44km/h | 3600m | -2.3m/s | 2.5°C | 16.9% | 663.3hPa | 2.7V | 00:00:00 | 03:12:58 | 00:00:00 | |
| DK5PH-5 | 2026-08-30 13:57:20 | 49.06655 | 11.04240 | 67° | 44km/h | 3605m | -2.2m/s | 2.4°C | 17.1% | 663.0hPa | 2.7V | 00:00:00 | 03:12:56 | 00:00:00 | |
| DO3MHA-11 | 2026-08-30 13:57:17 | 49.06643 | 11.04193 | 68° | 44km/h | 3611m | -2.1m/s | 2.4°C | 17.0% | 662.5hPa | 2.7V | 00:00:00 | 03:12:53 | 00:00:00 | |
| DL0LBS | 2026-08-30 13:57:14 | 49.06634 | 11.04162 | 69° | 44km/h | 3616m | -2.1m/s | 2.4°C | 16.6% | 662.2hPa | 2.7V | 07:17:00 | 00:00:00 | 00:00:00 | |
| DO3MHA-11 | 2026-08-30 13:57:12 | 49.06622 | 11.04116 | 69° | 44km/h | 3622m | -2.2m/s | 2.3°C | 17.1% | 661.5hPa | 2.7V | 07:17:00 | 03:12:48 | 00:00:00 | |
| NBG1-10 | 2026-08-30 13:57:09 | 49.06610 | 11.04070 | 68° | 44km/h | 3629m | -2.2m/s | 2.1°C | 17.3% | 661.0hPa | 2.7V | 00:00:00 | 03:12:45 | 00:00:00 | |
| DO3MHA-11 | 2026-08-30 13:57:07 | 49.06601 | 11.04039 | 67° | 44km/h | 3633m | -2.2m/s | 2.2°C | 17.2% | 660.6hPa | 2.7V | 00:00:00 | 03:12:43 | 00:00:00 | |
| DO9HM | 2026-08-30 13:57:03 | 49.06584 | 11.03976 | 68° | 44km/h | 3642m | -2.2m/s | 2.2°C | 16.8% | 660.0hPa | 2.7V | 07:17:00 | 00:00:00 | 00:00:00 | |
| DO3MHA-11 | 2026-08-30 13:57:02 | 49.06580 | 11.03961 | 69° | 44km/h | 3644m | -2.2m/s | 2.1°C | 17.4% | 659.7hPa | 2.7V | 00:00:00 | 03:12:38 | 00:00:00 | |
| DL6DJ-15 | 2026-08-30 13:56:55 | 49.06549 | 11.03852 | 66° | 42km/h | 3660m | -2.2m/s | 1.9°C | 16.9% | 658.4hPa | 2.7V | 00:00:00 | 00:00:00 | 00:00:00 | |
| DL9SK-14 | 2026-08-30 13:56:54 | 49.06545 | 11.03836 | 65° | 42km/h | 3662m | -2.3m/s | 1.9°C | 16.9% | 658.4hPa | 2.7V | 00:00:00 | 00:00:00 | 00:00:00 | |
| DL0LBS | 2026-08-30 13:56:53 | 49.06544 | 11.03836 | 66° | 44km/h | 3662m | -2.3m/s | 1.9°C | 16.9% | 658.4hPa | 2.7V | 07:17:00 | 00:00:00 | 00:00:00 | |
| DO3MHA-11 | 2026-08-30 13:56:52 | 49.06536 | 11.03806 | 67° | 44km/h | 3667m | -2.3m/s | 1.8°C | 17.5% | 657.7hPa | 2.7V | 00:00:00 | 03:12:28 | 00:00:00 | |
| DK5PH-5 | 2026-08-30 13:56:50 | 49.06526 | 11.03775 | 66° | 46km/h | 3672m | -2.2m/s | 1.8°C | 17.5% | 657.4hPa | 2.7V | 00:00:00 | 03:12:26 | 00:00:00 | |
| DO3MHA-11 | 2026-08-30 13:56:47 | 49.06513 | 11.03729 | 66° | 46km/h | 3678m | -2.3m/s | 1.8°C | 17.4% | 656.9hPa | 2.7V | 00:00:00 | 03:12:23 | 00:00:00 | |
| DO3MHA-11 | 2026-08-30 13:56:42 | 49.06490 | 11.03649 | 68° | 46km/h | 3689m | -2.2m/s | 1.7°C | 17.5% | 656.1hPa | 2.7V | 00:00:00 | 03:12:18 | 00:00:00 | |
| DO3MHA-11 | 2026-08-30 13:56:37 | 49.06468 | 11.03569 | 67° | 46km/h | 3700m | -2.2m/s | 1.6°C | 17.8% | 655.1hPa | 2.7V | 00:00:00 | 03:12:13 | 00:00:00 | |
| NBG1-10 | 2026-08-30 13:56:36 | 49.06463 | 11.03552 | 68° | 46km/h | 3702m | -2.1m/s | 1.6°C | 18.0% | 655.0hPa | 2.7V | 00:00:00 | 03:12:12 | 00:00:00 | |
| DO3MHA-11 | 2026-08-30 13:56:32 | 49.06445 | 11.03486 | 68° | 46km/h | 3711m | -2.1m/s | 1.5°C | 19.6% | 654.3hPa | 2.7V | 07:17:00 | 03:12:08 | 00:00:00 | |
| DO3MHA-11 | 2026-08-30 13:56:27 | 49.06421 | 11.03405 | 65° | 46km/h | 3722m | -2.1m/s | 1.4°C | 22.6% | 653.4hPa | 2.7V | 00:00:00 | 03:12:03 | 00:00:00 | |
| DL6DJ-15 | 2026-08-30 13:56:24 | 49.06406 | 11.03357 | 64° | 46km/h | 3728m | -2.1m/s | 1.5°C | 19.8% | 652.9hPa | 2.7V | 00:00:00 | 00:00:00 | 00:00:00 | |
| DL9SK-14 | 2026-08-30 13:56:23 | 49.06401 | 11.03341 | 65° | 46km/h | 3730m | -2.2m/s | 1.4°C | 19.6% | 652.7hPa | 2.7V | 00:00:00 | 00:00:00 | 00:00:00 | |
| DO9HM | 2026-08-30 13:56:22 | 49.06396 | 11.03324 | 67° | 47km/h | 3732m | -2.1m/s | 1.4°C | 19.3% | 652.6hPa | 2.7V | 07:18:00 | 00:00:00 | 00:00:00 | |
| DK5PH-5 | 2026-08-30 13:56:20 | 49.06386 | 11.03292 | 66° | 47km/h | 3737m | -2.0m/s | 1.4°C | 19.9% | 652.2hPa | 2.7V | 00:00:00 | 03:11:56 | 00:00:00 | |
| DO3MHA-11 | 2026-08-30 13:56:17 | 49.06371 | 11.03242 | 65° | 46km/h | 3743m | -2.2m/s | 1.3°C | 19.0% | 651.6hPa | 2.7V | 00:00:00 | 03:11:53 | 00:00:00 | |
| DO3MHA-11 | 2026-08-30 13:56:12 | 49.06346 | 11.03161 | 65° | 47km/h | 3754m | -2.1m/s | 1.2°C | 16.9% | 650.7hPa | 2.7V | 00:00:00 | 03:11:48 | 00:00:00 | |
| DO3MHA-11 | 2026-08-30 13:56:07 | 49.06321 | 11.03080 | 66° | 46km/h | 3765m | -2.1m/s | 1.1°C | 18.0% | 649.9hPa | 2.7V | 00:00:00 | 03:11:43 | 00:00:00 | |
| NBG1-10 | 2026-08-30 13:56:03 | 49.06303 | 11.03015 | 67° | 49km/h | 3773m | -2.1m/s | 1.1°C | 20.3% | 649.2hPa | 2.7V | 00:00:00 | 03:11:39 | 00:00:00 | |
| DO3MHA-11 | 2026-08-30 13:56:02 | 49.06298 | 11.02998 | 67° | 47km/h | 3775m | -2.1m/s | 1.1°C | 20.2% | 648.9hPa | 2.7V | 00:00:00 | 03:11:38 | 00:00:00 | |
| DL6DJ-15 | 2026-08-30 13:55:53 | 49.06254 | 11.02849 | 65° | 47km/h | 3794m | -2.2m/s | 0.8°C | 31.5% | 647.4hPa | 2.7V | 00:00:00 | 00:00:00 | 00:00:00 | |
| DO3MHA-11 | 2026-08-30 13:55:52 | 49.06249 | 11.02832 | 65° | 49km/h | 3796m | -2.0m/s | 0.8°C | 32.5% | 647.4hPa | 2.7V | 07:18:00 | 03:11:28 | 00:00:00 | |
| DL0LBS | 2026-08-30 13:55:51 | 49.06249 | 11.02832 | 66° | 49km/h | 3796m | -2.1m/s | 0.9°C | 31.5% | 647.4hPa | 2.7V | 07:18:00 | 00:00:00 | 00:00:00 | |
| DK5PH-5 | 2026-08-30 13:55:50 | 49.06239 | 11.02799 | 65° | 49km/h | 3801m | -2.1m/s | 0.8°C | 32.0% | 647.0hPa | 2.7V | 00:00:00 | 03:11:26 | 00:00:00 | |
| DO3MHA-11 | 2026-08-30 13:55:47 | 49.06223 | 11.02748 | 65° | 49km/h | 3807m | -2.2m/s | 0.8°C | 26.6% | 646.6hPa | 2.7V | 00:00:00 | 03:11:23 | 00:00:00 | |
| DO3MHA-11 | 2026-08-30 13:55:42 | 49.06196 | 11.02664 | 64° | 49km/h | 3817m | -2.0m/s | 0.8°C | 22.2% | 645.5hPa | 2.7V | 00:00:00 | 03:11:18 | 00:00:00 | |
| DO9HM | 2026-08-30 13:55:41 | 49.06190 | 11.02647 | 64° | 49km/h | 3819m | -2.2m/s | 0.8°C | 20.9% | 645.5hPa | 2.7V | 07:18:00 | 00:00:00 | 00:00:00 | |
| DO3MHA-11 | 2026-08-30 13:55:37 | 49.06169 | 11.02579 | 64° | 49km/h | 3828m | -2.3m/s | 0.7°C | 22.6% | 644.6hPa | 2.7V | 00:00:00 | 03:11:13 | 00:00:00 | |
| DO3MHA-11 | 2026-08-30 13:55:32 | 49.06140 | 11.02493 | 64° | 51km/h | 3840m | -2.2m/s | 0.6°C | 28.9% | 643.8hPa | 2.7V | 00:00:00 | 03:11:08 | 00:00:00 | |
| DL0LBS | 2026-08-30 13:55:31 | 49.06140 | 11.02493 | 64° | 51km/h | 3840m | -2.3m/s | 0.7°C | 28.0% | 643.9hPa | 2.7V | 07:19:00 | 00:00:00 | 00:00:00 | |
| NBG1-10 | 2026-08-30 13:55:30 | 49.06128 | 11.02458 | 62° | 47km/h | 3844m | -2.3m/s | 0.6°C | 29.4% | 643.5hPa | 2.7V | 00:00:00 | 03:11:06 | 00:00:00 | |
| DO3MHA-11 | 2026-08-30 13:55:27 | 49.06110 | 11.02405 | 63° | 49km/h | 3852m | -2.6m/s | 0.5°C | 30.7% | 642.8hPa | 2.7V | 00:00:00 | 03:11:03 | 00:00:00 | |
| DO3MHA-11 | 2026-08-30 13:55:22 | 49.06083 | 11.02319 | 70° | 47km/h | 3863m | -2.1m/s | 0.4°C | 31.5% | 641.8hPa | 2.7V | 00:00:00 | 03:10:58 | 00:00:00 | |
| DL9SK-14 | 2026-08-30 13:55:21 | 49.06079 | 11.02302 | 70° | 49km/h | 3865m | -2.3m/s | 0.4°C | 30.5% | 641.7hPa | 2.7V | 00:00:00 | 00:00:00 | 00:00:00 | |
| DK5PH-5 | 2026-08-30 13:55:20 | 49.06075 | 11.02285 | 71° | 46km/h | 3868m | -2.6m/s | 0.4°C | 31.8% | 641.5hPa | 2.7V | 00:00:00 | 03:10:56 | 00:00:00 | |
| DO9HM | 2026-08-30 13:55:19 | 49.06075 | 11.02285 | 72° | 47km/h | 3868m | -2.7m/s | 0.4°C | 30.7% | 641.5hPa | 2.7V | 07:19:00 | 00:00:00 | 00:00:00 | |
| DO3MHA-11 | 2026-08-30 13:55:17 | 49.06063 | 11.02233 | 73° | 47km/h | 3875m | -2.5m/s | 0.3°C | 31.8% | 641.1hPa | 2.7V | 00:00:00 | 03:10:53 | 00:00:00 | |
| DO3MHA-11 | 2026-08-30 13:55:12 | 49.06043 | 11.02148 | 70° | 46km/h | 3887m | -2.0m/s | 0.3°C | 33.0% | 640.2hPa | 2.7V | 07:19:00 | 03:10:48 | 00:00:00 | |
| DL0LBS | 2026-08-30 13:55:11 | 49.06043 | 11.02148 | 71° | 46km/h | 3887m | -2.0m/s | 0.3°C | 31.9% | 640.3hPa | 2.7V | 07:19:00 | 00:00:00 | 00:00:00 | |
| DO3MHA-11 | 2026-08-30 13:55:07 | 49.06023 | 11.02064 | 71° | 46km/h | 3896m | -2.0m/s | 0.3°C | 34.0% | 639.4hPa | 2.7V | 00:00:00 | 03:10:43 | 00:00:00 | |
| DM7RM-13 | 2026-08-30 13:55:04 | 49.06015 | 11.02030 | 69° | 46km/h | 3900m | -2.0m/s | 0.4°C | 29.6% | 639.0hPa | 2.7V | 07:19:00 | 00:00:00 | 00:00:00 | |
| DO3MHA-11 | 2026-08-30 13:55:02 | 49.06003 | 11.01980 | 70° | 44km/h | 3907m | -2.4m/s | 0.4°C | 29.8% | 638.5hPa | 2.7V | 00:00:00 | 03:10:38 | 00:00:00 | |
| DL6DJ-15 | 2026-08-30 13:54:51 | 49.05966 | 11.01803 | 72° | 42km/h | 3933m | -2.2m/s | 0.6°C | 17.9% | 636.6hPa | 2.7V | 00:00:00 | 00:00:00 | 00:00:00 | |
| DK5PH-5 | 2026-08-30 13:54:50 | 49.05963 | 11.01787 | 75° | 44km/h | 3935m | -2.3m/s | 0.5°C | 19.0% | 636.3hPa | 2.7V | 07:19:00 | 03:10:26 | 00:00:00 | |
| DO3MHA-11 | 2026-08-30 13:54:47 | 49.05954 | 11.01738 | 76° | 44km/h | 3943m | -2.4m/s | 0.5°C | 16.8% | 635.8hPa | 2.7V | 00:00:00 | 03:10:23 | 00:00:00 | |
| DM7RM-13 | 2026-08-30 13:54:44 | 49.05949 | 11.01705 | 77° | 46km/h | 3947m | -2.2m/s | 0.5°C | 15.4% | 635.5hPa | 2.7V | 00:00:00 | 00:00:00 | 00:00:00 | |
| DO3MHA-11 | 2026-08-30 13:54:42 | 49.05942 | 11.01656 | 78° | 46km/h | 3954m | -2.3m/s | 0.4°C | 14.7% | 634.9hPa | 2.7V | 00:00:00 | 03:10:18 | 00:00:00 | |
| DO9HM | 2026-08-30 13:54:38 | 49.05934 | 11.01605 | 79° | 46km/h | 3961m | -2.3m/s | 0.4°C | 14.5% | 634.3hPa | 2.7V | 07:20:00 | 00:00:00 | 00:00:00 | |
| DO3MHA-11 | 2026-08-30 13:54:37 | 49.05930 | 11.01571 | 79° | 44km/h | 3966m | -2.2m/s | 0.3°C | 14.5% | 634.0hPa | 2.7V | 00:00:00 | 03:10:13 | 00:00:00 | |
| DO3MHA-11 | 2026-08-30 13:54:32 | 49.05918 | 11.01487 | 79° | 44km/h | 3977m | -2.2m/s | 0.4°C | 11.6% | 633.0hPa | 2.7V | 07:19:00 | 03:10:08 | 00:00:00 | |
| DL0LBS | 2026-08-30 13:54:30 | 49.05916 | 11.01471 | 79° | 44km/h | 3979m | -2.3m/s | 0.5°C | 10.8% | 632.9hPa | 2.7V | 00:00:00 | 00:00:00 | 00:00:00 | |
| DB0ND-19 | 2026-08-30 13:54:29 | 49.05912 | 11.01437 | 79° | 44km/h | 3984m | -2.3m/s | 0.4°C | 10.7% | 632.4hPa | 2.7V | 00:00:00 | 00:00:00 | 00:00:00 | |
| DO3MHA-11 | 2026-08-30 13:54:27 | 49.05908 | 11.01404 | 80° | 44km/h | 3989m | -2.2m/s | 0.3°C | 11.3% | 632.0hPa | 2.7V | 00:00:00 | 03:10:03 | 00:00:00 | |
| NBG1-10 | 2026-08-30 13:54:24 | 49.05902 | 11.01353 | 81° | 46km/h | 3995m | -2.2m/s | 0.3°C | 11.4% | 631.6hPa | 2.7V | 00:00:00 | 03:10:00 | 00:00:00 | |
| DM7RM-13 | 2026-08-30 13:54:23 | 49.05902 | 11.01353 | 81° | 44km/h | 3995m | -2.3m/s | 0.3°C | 11.0% | 631.6hPa | 2.7V | 00:00:00 | 00:00:00 | 00:00:00 | |
| DO3MHA-11 | 2026-08-30 13:54:22 | 49.05898 | 11.01320 | 81° | 44km/h | 4000m | -2.2m/s | 0.3°C | 10.7% | 631.2hPa | 2.7V | 00:00:00 | 03:09:58 | 00:00:00 | |
| DK5PH-5 | 2026-08-30 13:54:20 | 49.05895 | 11.01286 | 81° | 46km/h | 4004m | -2.3m/s | 0.3°C | 10.2% | 630.8hPa | 2.7V | 00:00:00 | 03:09:56 | 00:00:00 | |
| DL9SK-14 | 2026-08-30 13:54:19 | 49.05893 | 11.01269 | 80° | 44km/h | 4007m | -2.4m/s | 0.4°C | 9.7% | 630.7hPa | 2.7V | 00:00:00 | 00:00:00 | 00:00:00 | |
| DO3MHA-11 | 2026-08-30 13:54:17 | 49.05889 | 11.01235 | 81° | 44km/h | 4011m | -2.3m/s | 0.3°C | 9.9% | 630.3hPa | 2.7V | 00:00:00 | 03:09:53 | 00:00:00 | |
| DO3MHA-11 | 2026-08-30 13:54:12 | 49.05880 | 11.01150 | 81° | 46km/h | 4023m | -2.1m/s | 0.2°C | 9.7% | 629.4hPa | 2.7V | 00:00:00 | 03:09:48 | 00:00:00 | |
| DL0LBS | 2026-08-30 13:54:09 | 49.05876 | 11.01116 | 82° | 46km/h | 4027m | -2.3m/s | 0.2°C | 9.5% | 629.1hPa | 2.7V | 00:00:00 | 00:00:00 | 00:00:00 | |
| DO3MHA-11 | 2026-08-30 13:54:07 | 49.05870 | 11.01064 | 81° | 46km/h | 4034m | -2.3m/s | 0.1°C | 9.9% | 628.4hPa | 2.7V | 00:00:00 | 03:09:43 | 00:00:00 | |
| DM7RM-13 | 2026-08-30 13:54:03 | 49.05864 | 11.01012 | 81° | 46km/h | 4041m | -2.3m/s | 0.1°C | 9.5% | 628.0hPa | 2.7V | 00:00:00 | 00:00:00 | 00:00:00 | |
| DO3MHA-11 | 2026-08-30 13:54:02 | 49.05860 | 11.00977 | 80° | 46km/h | 4046m | -2.2m/s | 0.0°C | 9.9% | 627.6hPa | 2.7V | 00:00:00 | 03:09:38 | 00:00:00 | |
| DB0ND-19 | 2026-08-30 13:53:58 | 49.05853 | 11.00910 | 79° | 44km/h | 4055m | -2.2m/s | 0.1°C | 9.3% | 626.8hPa | 2.7V | 00:00:00 | 00:00:00 | 00:00:00 | |
| DL6DJ-15 | 2026-08-30 13:53:49 | 49.05835 | 11.00756 | 78° | 44km/h | 4076m | -2.3m/s | -0.1°C | 9.3% | 625.2hPa | 2.7V | 00:00:00 | 00:00:00 | 00:00:00 | |
| DL9SK-14 | 2026-08-30 13:53:48 | 49.05831 | 11.00722 | 80° | 44km/h | 4081m | -2.3m/s | -0.1°C | 9.3% | 624.9hPa | 2.7V | 00:00:00 | 00:00:00 | 00:00:00 | |
| DO3MHA-11 | 2026-08-30 13:53:47 | 49.05831 | 11.00722 | 81° | 46km/h | 4081m | -2.3m/s | -0.1°C | 9.6% | 624.9hPa | 2.7V | 00:00:00 | 03:09:23 | 00:00:00 | |
| DO3MHA-11 | 2026-08-30 13:53:42 | 49.05821 | 11.00637 | 79° | 44km/h | 4093m | -2.3m/s | -0.2°C | 9.5% | 623.9hPa | 2.7V | 00:00:00 | 03:09:18 | 00:00:00 | |
| DO3MHA-11 | 2026-08-30 13:53:37 | 49.05811 | 11.00554 | 81° | 44km/h | 4106m | -2.4m/s | -0.2°C | 9.6% | 622.9hPa | 2.7V | 00:00:00 | 03:09:13 | 00:00:00 | |
| DO9HM | 2026-08-30 13:53:34 | 49.05805 | 11.00503 | 81° | 44km/h | 4113m | -2.5m/s | -0.3°C | 9.1% | 622.4hPa | 2.7V | 07:21:00 | 00:00:00 | 00:00:00 | |
| DO3MHA-11 | 2026-08-30 13:53:32 | 49.05800 | 11.00470 | 78° | 44km/h | 4118m | -2.1m/s | -0.2°C | 9.2% | 622.0hPa | 2.7V | 00:00:00 | 03:09:08 | 00:00:00 | |
| DL0LBS | 2026-08-30 13:53:28 | 49.05793 | 11.00420 | 78° | 44km/h | 4125m | -2.6m/s | -0.4°C | 9.0% | 621.4hPa | 2.7V | 07:21:00 | 00:00:00 | 00:00:00 | |
| DO3MHA-11 | 2026-08-30 13:53:27 | 49.05788 | 11.00388 | 78° | 44km/h | 4130m | -2.5m/s | -0.4°C | 9.1% | 621.0hPa | 2.7V | 00:00:00 | 03:09:03 | 00:00:00 | |
| DO3MHA-11 | 2026-08-30 13:53:22 | 49.05776 | 11.00307 | 77° | 42km/h | 4143m | -2.3m/s | -0.4°C | 9.1% | 620.0hPa | 2.7V | 00:00:00 | 03:08:58 | 00:00:00 | |
| DK5PH-5 | 2026-08-30 13:53:20 | 49.05771 | 11.00275 | 77° | 42km/h | 4148m | -2.5m/s | -0.5°C | 9.2% | 619.8hPa | 2.7V | 00:00:00 | 03:08:56 | 00:00:00 | |
| NBG1-10 | 2026-08-30 13:53:18 | 49.05767 | 11.00244 | 78° | 42km/h | 4153m | -2.5m/s | -0.5°C | 9.1% | 619.2hPa | 2.7V | 00:00:00 | 03:08:54 | 00:00:00 | |
| DO3MHA-11 | 2026-08-30 13:53:17 | 49.05764 | 11.00228 | 78° | 42km/h | 4155m | -2.6m/s | -0.6°C | 9.2% | 619.1hPa | 2.7V | 00:00:00 | 03:08:53 | 00:00:00 | |
| DO9HM | 2026-08-30 13:53:13 | 49.05758 | 11.00181 | 80° | 42km/h | 4163m | -2.5m/s | -0.7°C | 8.9% | 618.5hPa | 2.7V | 07:21:00 | 00:00:00 | 00:00:00 | |
| DO3MHA-11 | 2026-08-30 13:53:12 | 49.05754 | 11.00149 | 81° | 42km/h | 4168m | -2.6m/s | -0.7°C | 9.1% | 618.1hPa | 2.7V | 07:21:00 | 03:08:48 | 00:00:00 | |
| DL0LBS | 2026-08-30 13:53:08 | 49.05749 | 11.00100 | 83° | 42km/h | 4175m | -2.4m/s | -0.7°C | 8.5% | 617.5hPa | 2.7V | 07:21:00 | 00:00:00 | 00:00:00 | |
| DO3MHA-11 | 2026-08-30 13:53:07 | 49.05746 | 11.00068 | 82° | 42km/h | 4181m | -2.6m/s | -0.7°C | 8.7% | 617.0hPa | 2.7V | 00:00:00 | 03:08:43 | 00:00:00 | |
| DO3MHA-11 | 2026-08-30 13:53:02 | 49.05740 | 10.99987 | 85° | 42km/h | 4194m | -2.5m/s | -0.7°C | 8.1% | 616.1hPa | 2.7V | 00:00:00 | 03:08:38 | 00:00:00 | |
| DB0ND-19 | 2026-08-30 13:52:56 | 49.05733 | 10.99891 | 83° | 40km/h | 4209m | -2.6m/s | -0.7°C | 5.5% | 614.9hPa | 2.7V | 00:00:00 | 00:00:00 | 00:00:00 | |
| DL6DJ-15 | 2026-08-30 13:52:47 | 49.05723 | 10.99749 | 83° | 40km/h | 4232m | -2.6m/s | -0.7°C | 5.0% | 613.0hPa | 2.7V | 00:00:00 | 00:00:00 | 00:00:00 | |
| DL9SK-14 | 2026-08-30 13:52:46 | 49.05721 | 10.99717 | 84° | 40km/h | 4238m | -2.6m/s | -0.8°C | 5.1% | 612.7hPa | 2.7V | 00:00:00 | 00:00:00 | 00:00:00 | |
| NBG1-10 | 2026-08-30 13:52:45 | 49.05721 | 10.99717 | 85° | 42km/h | 4238m | -2.5m/s | -0.7°C | 5.3% | 612.7hPa | 2.7V | 00:00:00 | 03:08:21 | 00:00:00 | |
| DO3MHA-11 | 2026-08-30 13:52:42 | 49.05718 | 10.99669 | 85° | 42km/h | 4246m | -2.7m/s | -0.6°C | 5.5% | 612.0hPa | 2.7V | 00:00:00 | 03:08:18 | 00:00:00 | |
| DO3MHA-11 | 2026-08-30 13:52:37 | 49.05712 | 10.99588 | 83° | 42km/h | 4259m | -2.5m/s | -0.6°C | 5.3% | 611.0hPa | 2.7V | 00:00:00 | 03:08:13 | 00:00:00 | |
| DO9HM | 2026-08-30 13:52:33 | 49.05706 | 10.99523 | 84° | 42km/h | 4269m | -2.5m/s | -0.6°C | 10.2% | 610.4hPa | 2.7V | 07:22:00 | 00:00:00 | 00:00:00 | |
| DO3MHA-11 | 2026-08-30 13:52:32 | 49.05705 | 10.99508 | 84° | 42km/h | 4271m | -2.5m/s | -0.7°C | 10.8% | 610.1hPa | 2.7V | 07:21:00 | 03:08:08 | 00:00:00 | |
| DO3MHA-11 | 2026-08-30 13:52:27 | 49.05699 | 10.99427 | 83° | 42km/h | 4284m | -2.5m/s | -0.7°C | 7.3% | 609.1hPa | 2.7V | 00:00:00 | 03:08:03 | 00:00:00 | |
| DB0ND-19 | 2026-08-30 13:52:25 | 49.05696 | 10.99396 | 83° | 42km/h | 4289m | -2.4m/s | -0.7°C | 5.2% | 608.7hPa | 2.7V | 00:00:00 | 00:00:00 | 00:00:00 | |
| DF7PN | 2026-08-30 13:52:24 | 49.05695 | 10.99380 | 82° | 40km/h | 4292m | -2.5m/s | -0.7°C | 5.2% | 608.5hPa | 2.7V | 00:00:00 | 00:00:00 | 00:00:00 | |
| DO3MHA-11 | 2026-08-30 13:52:22 | 49.05692 | 10.99348 | 84° | 42km/h | 4297m | -2.6m/s | -0.7°C | 5.3% | 608.1hPa | 2.7V | 00:00:00 | 03:07:58 | 00:00:00 | |
| DK5PH-5 | 2026-08-30 13:52:20 | 49.05690 | 10.99316 | 84° | 42km/h | 4302m | -2.5m/s | -0.7°C | 5.1% | 607.8hPa | 2.7V | 00:00:00 | 03:07:56 | 00:00:00 | |
| DO3MHA-11 | 2026-08-30 13:52:17 | 49.05686 | 10.99268 | 84° | 42km/h | 4310m | -2.6m/s | -0.7°C | 5.4% | 607.2hPa | 2.7V | 00:00:00 | 03:07:53 | 00:00:00 | |
| DL6DJ-15 | 2026-08-30 13:52:16 | 49.05684 | 10.99235 | 83° | 42km/h | 4314m | -2.5m/s | -0.9°C | 6.3% | 606.8hPa | 2.7V | 00:00:00 | 00:00:00 | 00:00:00 | |
| DL9SK-14 | 2026-08-30 13:52:15 | 49.05683 | 10.99219 | 83° | 40km/h | 4317m | -2.6m/s | -0.9°C | 6.9% | 606.7hPa | 2.7V | 00:00:00 | 00:00:00 | 00:00:00 | |
| DO3MHA-11 | 2026-08-30 13:52:12 | 49.05680 | 10.99187 | 84° | 42km/h | 4322m | -2.4m/s | -0.9°C | 7.9% | 606.2hPa | 2.7V | 00:00:00 | 03:07:48 | 00:00:00 | |
| DO9HM | 2026-08-30 13:52:11 | 49.05680 | 10.99187 | 85° | 42km/h | 4322m | -2.4m/s | -0.9°C | 7.6% | 606.2hPa | 2.7V | 07:23:00 | 00:00:00 | 00:00:00 | |
| DO3MHA-11 | 2026-08-30 13:52:07 | 49.05675 | 10.99107 | 84° | 42km/h | 4334m | -2.3m/s | -1.0°C | 9.1% | 605.3hPa | 2.7V | 00:00:00 | 03:07:43 | 00:00:00 | |
| DO3MHA-11 | 2026-08-30 13:52:02 | 49.05669 | 10.99025 | 84° | 42km/h | 4347m | -2.5m/s | -1.1°C | 9.3% | 604.2hPa | 2.7V | 00:00:00 | 03:07:38 | 00:00:00 | |
| DB0ND-19 | 2026-08-30 13:51:54 | 49.05659 | 10.98898 | 83° | 40km/h | 4366m | -2.4m/s | -1.2°C | 8.6% | 602.9hPa | 2.7V | 00:00:00 | 00:00:00 | 00:00:00 | |
| DL6DJ-15 | 2026-08-30 13:51:45 | 49.05644 | 10.98745 | 82° | 40km/h | 4391m | -2.4m/s | -1.6°C | 9.5% | 601.0hPa | 2.7V | 00:00:00 | 00:00:00 | 00:00:00 | |
| DL9SK-14 | 2026-08-30 13:51:44 | 49.05643 | 10.98729 | 80° | 40km/h | 4393m | -2.5m/s | -1.5°C | 9.5% | 600.8hPa | 2.7V | 00:00:00 | 00:00:00 | 00:00:00 | |
| DO3MHA-11 | 2026-08-30 13:51:42 | 49.05641 | 10.98714 | 81° | 40km/h | 4396m | -2.4m/s | -1.5°C | 10.0% | 600.6hPa | 2.7V | 00:00:00 | 03:07:18 | 00:00:00 | |
| NBG1-10 | 2026-08-30 13:51:39 | 49.05636 | 10.98667 | 81° | 40km/h | 4403m | -2.3m/s | -1.6°C | 10.4% | 600.1hPa | 2.7V | 00:00:00 | 03:07:15 | 00:00:00 | |
| DO3MHA-11 | 2026-08-30 13:51:37 | 49.05634 | 10.98636 | 83° | 40km/h | 4408m | -2.2m/s | -1.7°C | 10.4% | 599.7hPa | 2.7V | 00:00:00 | 03:07:13 | 00:00:00 | |
| DO3MHA-11 | 2026-08-30 13:51:32 | 49.05626 | 10.98559 | 83° | 40km/h | 4419m | -2.2m/s | -1.7°C | 10.5% | 598.8hPa | 2.7V | 00:00:00 | 03:07:08 | 00:00:00 | |
| DO3MHA-11 | 2026-08-30 13:51:27 | 49.05620 | 10.98482 | 84° | 40km/h | 4431m | -2.3m/s | -1.8°C | 10.5% | 598.0hPa | 2.7V | 00:00:00 | 03:07:03 | 00:00:00 | |
| DB0UT-7 | 2026-08-30 13:51:26 | 49.05619 | 10.98466 | 84° | 40km/h | 4433m | -2.3m/s | -1.8°C | 10.5% | 597.8hPa | 2.7V | 07:23:00 | 03:07:02 | 00:00:00 | |
| DL0LBS | 2026-08-30 13:51:25 | 49.05619 | 10.98466 | 84° | 40km/h | 4433m | -2.4m/s | -1.8°C | 10.0% | 597.8hPa | 2.7V | 07:23:00 | 00:00:00 | 00:00:00 | |
| DB0ND-19 | 2026-08-30 13:51:23 | 49.05616 | 10.98420 | 83° | 38km/h | 4440m | -2.3m/s | -1.9°C | 9.8% | 597.2hPa | 2.7V | 00:00:00 | 00:00:00 | 00:00:00 | |
| DO3MHA-11 | 2026-08-30 13:51:22 | 49.05614 | 10.98404 | 86° | 40km/h | 4442m | -2.2m/s | -1.8°C | 10.5% | 597.0hPa | 2.7V | 00:00:00 | 03:06:58 | 00:00:00 | |
| DK5PH-5 | 2026-08-30 13:51:20 | 49.05613 | 10.98373 | 84° | 42km/h | 4446m | -2.1m/s | -1.9°C | 10.5% | 596.6hPa | 2.7V | 00:00:00 | 03:06:56 | 00:00:00 | |
| DG1MJG | 2026-08-30 13:51:18 | 49.05612 | 10.98358 | 85° | 40km/h | 4449m | -2.1m/s | -1.9°C | 0% | 0hPa | 2.7V | 00:00:00 | 00:00:00 | 00:00:00 | |
| DO3MHA-11 | 2026-08-30 13:51:17 | 49.05610 | 10.98327 | 85° | 40km/h | 4453m | -2.4m/s | -1.9°C | 10.0% | 596.2hPa | 2.7V | 00:00:00 | 03:06:53 | 00:00:00 | |
| DL6DJ-15 | 2026-08-30 13:51:14 | 49.05606 | 10.98266 | 84° | 38km/h | 4462m | -2.4m/s | -2.1°C | 9.7% | 595.5hPa | 2.7V | 00:00:00 | 00:00:00 | 00:00:00 | |
| DL9SK-14 | 2026-08-30 13:51:13 | 49.05605 | 10.98251 | 84° | 40km/h | 4464m | -2.3m/s | -2.0°C | 9.9% | 595.5hPa | 2.7V | 00:00:00 | 00:00:00 | 00:00:00 | |
| DO3MHA-11 | 2026-08-30 13:51:12 | 49.05605 | 10.98251 | 85° | 42km/h | 4465m | -2.3m/s | -2.0°C | 10.3% | 595.4hPa | 2.7V | 07:23:00 | 03:06:48 | 00:00:00 | |
| DO9HM | 2026-08-30 13:51:10 | 49.05604 | 10.98235 | 85° | 42km/h | 4467m | -2.3m/s | -2.1°C | 10.1% | 595.2hPa | 2.7V | 07:23:00 | 00:00:00 | 00:00:00 | |
| NBG1-10 | 2026-08-30 13:51:06 | 49.05599 | 10.98155 | 85° | 44km/h | 4478m | -2.2m/s | -2.1°C | 11.8% | 594.3hPa | 2.7V | 00:00:00 | 03:06:42 | 00:00:00 | |
| DL0LBS | 2026-08-30 13:51:04 | 49.05598 | 10.98139 | 85° | 44km/h | 4480m | -2.0m/s | -2.2°C | 11.2% | 594.1hPa | 2.7V | 07:23:00 | 00:00:00 | 00:00:00 | |
| DO3MHA-11 | 2026-08-30 13:51:02 | 49.05594 | 10.98090 | 84° | 44km/h | 4486m | -1.9m/s | -2.2°C | 11.8% | 593.7hPa | 2.7V | 00:00:00 | 03:06:38 | 00:00:00 | |
| DM7RM-13 | 2026-08-30 13:51:01 | 49.05594 | 10.98090 | 84° | 44km/h | 4486m | -1.9m/s | -2.2°C | 11.3% | 593.8hPa | 2.7V | 07:23:00 | 00:00:00 | 00:00:00 | |
| DO3MHA-11 | 2026-08-30 13:50:57 | 49.05587 | 10.98006 | 83° | 44km/h | 4497m | -1.9m/s | -2.2°C | 11.8% | 592.8hPa | 2.7V | 00:00:00 | 03:06:33 | 00:00:00 | |
| DB0UT-7 | 2026-08-30 13:50:56 | 49.05586 | 10.97990 | 85° | 42km/h | 4499m | -1.9m/s | -2.3°C | 11.9% | 592.6hPa | 2.7V | 00:00:00 | 00:00:00 | 00:00:00 | |
| DO3MHA-11 | 2026-08-30 13:50:52 | 49.05580 | 10.97922 | 82° | 46km/h | 4507m | -2.2m/s | -2.3°C | 11.9% | 592.0hPa | 2.7V | 00:00:00 | 03:06:28 | 00:00:00 | |
| DO9HM | 2026-08-30 13:50:51 | 49.05578 | 10.97905 | 82° | 44km/h | 4509m | -2.1m/s | -2.4°C | 11.4% | 591.9hPa | 2.6V | 07:23:00 | 00:00:00 | 00:00:00 | |
| DO3MHA-11 | 2026-08-30 13:50:47 | 49.05571 | 10.97837 | 82° | 44km/h | 4517m | -2.0m/s | -2.4°C | 11.9% | 591.2hPa | 2.6V | 00:00:00 | 03:06:23 | 00:00:00 | |
| DL0LBS | 2026-08-30 13:50:44 | 49.05568 | 10.97803 | 81° | 44km/h | 4521m | -2.3m/s | -2.4°C | 10.9% | 591.0hPa | 2.6V | 07:23:00 | 00:00:00 | 00:00:00 | |
| DL6DJ-15 | 2026-08-30 13:50:43 | 49.05562 | 10.97752 | 80° | 44km/h | 4527m | -2.2m/s | -2.4°C | 10.7% | 590.5hPa | 2.6V | 00:00:00 | 00:00:00 | 00:00:00 | |
| DO3MHA-11 | 2026-08-30 13:50:42 | 49.05562 | 10.97752 | 81° | 44km/h | 4528m | -2.1m/s | -2.3°C | 11.2% | 590.4hPa | 2.6V | 00:00:00 | 03:06:18 | 00:00:00 | |
| DL9SK-14 | 2026-08-30 13:50:41 | 49.05560 | 10.97735 | 81° | 42km/h | 4530m | -2.0m/s | -2.4°C | 10.7% | 590.3hPa | 2.6V | 00:00:00 | 00:00:00 | 00:00:00 | |
| DM7RM-13 | 2026-08-30 13:50:40 | 49.05560 | 10.97735 | 82° | 44km/h | 4530m | -2.0m/s | -2.4°C | 10.7% | 590.3hPa | 2.6V | 07:23:00 | 00:00:00 | 00:00:00 | |
| DO3MHA-11 | 2026-08-30 13:50:37 | 49.05553 | 10.97669 | 83° | 42km/h | 4538m | -2.1m/s | -2.4°C | 11.1% | 589.7hPa | 2.6V | 00:00:00 | 03:06:13 | 00:00:00 | |
| NBG1-10 | 2026-08-30 13:50:33 | 49.05548 | 10.97604 | 83° | 42km/h | 4547m | -2.1m/s | -2.4°C | 11.2% | 589.1hPa | 2.7V | 00:00:00 | 03:06:09 | 00:00:00 | |
| DO3MHA-11 | 2026-08-30 13:50:32 | 49.05546 | 10.97588 | 83° | 42km/h | 4549m | -2.2m/s | -2.4°C | 11.2% | 588.9hPa | 2.7V | 07:23:00 | 03:06:08 | 00:00:00 | |
| DO9HM | 2026-08-30 13:50:30 | 49.05544 | 10.97556 | 84° | 42km/h | 4553m | -2.3m/s | -2.5°C | 10.7% | 588.6hPa | 2.7V | 07:24:00 | 00:00:00 | 00:00:00 | |
| DO3MHA-11 | 2026-08-30 13:50:27 | 49.05540 | 10.97507 | 85° | 42km/h | 4560m | -1.9m/s | -2.4°C | 10.9% | 588.2hPa | 2.7V | 00:00:00 | 03:06:03 | 00:00:00 | |
| DL0LBS | 2026-08-30 13:50:23 | 49.05536 | 10.97458 | 85° | 42km/h | 4566m | -2.2m/s | -2.5°C | 10.4% | 587.7hPa | 2.7V | 07:24:00 | 00:00:00 | 00:00:00 | |
| DO3MHA-11 | 2026-08-30 13:50:22 | 49.05534 | 10.97426 | 83° | 42km/h | 4570m | -2.2m/s | -2.4°C | 10.7% | 587.4hPa | 2.7V | 00:00:00 | 03:05:58 | 00:00:00 | |
| DB0ND-19 | 2026-08-30 13:50:21 | 49.05531 | 10.97394 | 83° | 42km/h | 4575m | -2.2m/s | -2.5°C | 9.9% | 587.0hPa | 2.7V | 00:00:00 | 00:00:00 | 00:00:00 | |
| DK5PH-5 | 2026-08-30 13:50:20 | 49.05531 | 10.97394 | 84° | 40km/h | 4575m | -2.1m/s | -2.5°C | 10.3% | 587.0hPa | 2.7V | 00:00:00 | 03:05:56 | 00:00:00 | |
| DM7RM-13 | 2026-08-30 13:50:19 | 49.05531 | 10.97394 | 84° | 42km/h | 4575m | -2.2m/s | -2.5°C | 9.9% | 587.0hPa | 2.7V | 07:24:00 | 00:00:00 | 00:00:00 | |
| DO3MHA-11 | 2026-08-30 13:50:17 | 49.05528 | 10.97345 | 85° | 42km/h | 4581m | -2.2m/s | -2.5°C | 9.8% | 586.5hPa | 2.7V | 00:00:00 | 03:05:53 | 00:00:00 | |
| DO3MHA-11 | 2026-08-30 13:50:12 | 49.05522 | 10.97266 | 86° | 40km/h | 4593m | -2.4m/s | -2.6°C | 9.6% | 585.8hPa | 2.7V | 00:00:00 | 03:05:48 | 00:00:00 | |
| DL6DJ-15 | 2026-08-30 13:50:11 | 49.05521 | 10.97250 | 85° | 40km/h | 4595m | -2.2m/s | -2.6°C | 9.1% | 585.6hPa | 2.7V | 00:00:00 | 00:00:00 | 00:00:00 | |
| DL9SK-14 | 2026-08-30 13:50:10 | 49.05521 | 10.97234 | 84° | 40km/h | 4597m | -2.2m/s | -2.6°C | 0% | 585.5hPa | 2.7V | 00:00:00 | 00:00:00 | 00:00:00 | |
| DO9HM | 2026-08-30 13:50:09 | 49.05521 | 10.97234 | 86° | 40km/h | 4597m | -2.2m/s | -2.6°C | 9.1% | 585.5hPa | 2.7V | 07:24:00 | 00:00:00 | 00:00:00 | |
| DO3MHA-11 | 2026-08-30 13:50:02 | 49.05516 | 10.97112 | 88° | 40km/h | 4615m | -2.4m/s | -2.7°C | 9.2% | 584.1hPa | 2.7V | 00:00:00 | 03:05:38 | 00:00:00 | |
| DB0ND-19 | 2026-08-30 13:49:50 | 49.05504 | 10.96907 | 86° | 40km/h | 4645m | -2.2m/s | -3.0°C | 8.5% | 581.9hPa | 2.7V | 00:00:00 | 00:00:00 | 00:00:00 | |
| DF7PN | 2026-08-30 13:49:49 | 49.05503 | 10.96891 | 86° | 40km/h | 4647m | -2.3m/s | -3.0°C | 8.4% | 581.7hPa | 2.7V | 00:00:00 | 00:00:00 | 00:00:00 | |
| DO3MHA-11 | 2026-08-30 13:49:47 | 49.05502 | 10.96875 | 87° | 40km/h | 4649m | -2.3m/s | -3.0°C | 8.7% | 581.5hPa | 2.7V | 00:00:00 | 03:05:23 | 00:00:00 | |
| DO3MHA-11 | 2026-08-30 13:49:42 | 49.05500 | 10.96797 | 87° | 42km/h | 4661m | -2.3m/s | -3.0°C | 8.3% | 580.8hPa | 2.7V | 00:00:00 | 03:05:18 | 00:00:00 | |
| DL6DJ-15 | 2026-08-30 13:49:40 | 49.05499 | 10.96766 | 87° | 40km/h | 4666m | -2.4m/s | -3.0°C | 7.4% | 580.3hPa | 2.7V | 00:00:00 | 00:00:00 | 00:00:00 | |
| DL9SK-14 | 2026-08-30 13:49:39 | 49.05498 | 10.96750 | 87° | 42km/h | 4668m | -2.5m/s | -3.0°C | 7.4% | 580.3hPa | 2.7V | 00:00:00 | 00:00:00 | 00:00:00 | |
| DL0LBS | 2026-08-30 13:49:38 | 49.05498 | 10.96750 | 89° | 42km/h | 4668m | -2.5m/s | -3.0°C | 7.4% | 580.3hPa | 2.7V | 07:25:00 | 00:00:00 | 00:00:00 | |
| DO3MHA-11 | 2026-08-30 13:49:37 | 49.05497 | 10.96717 | 88° | 44km/h | 4673m | -2.3m/s | -2.9°C | 7.6% | 579.8hPa | 2.7V | 00:00:00 | 03:05:13 | 00:00:00 | |
| DO3MHA-11 | 2026-08-30 13:49:32 | 49.05493 | 10.96635 | 85° | 42km/h | 4684m | -2.4m/s | -2.9°C | 7.8% | 579.0hPa | 2.7V | 00:00:00 | 03:05:08 | 00:00:00 | |
| DO9HM | 2026-08-30 13:49:28 | 49.05490 | 10.96585 | 85° | 44km/h | 4691m | -2.3m/s | -3.0°C | 7.8% | 578.5hPa | 2.7V | 07:25:00 | 00:00:00 | 00:00:00 | |
| DO3MHA-11 | 2026-08-30 13:49:27 | 49.05488 | 10.96553 | 85° | 42km/h | 4696m | -2.2m/s | -2.9°C | 8.3% | 578.1hPa | 2.7V | 00:00:00 | 03:05:03 | 00:00:00 | |
| DB0UT-7 | 2026-08-30 13:49:26 | 49.05487 | 10.96536 | 84° | 38km/h | 4698m | -2.3m/s | -2.9°C | 8.4% | 578.0hPa | 2.7V | 00:00:00 | 00:00:00 | 00:00:00 | |
| DK5PH-5 | 2026-08-30 13:49:20 | 49.05481 | 10.96439 | 85° | 40km/h | 4713m | -2.3m/s | -3.0°C | 9.6% | 577.0hPa | 2.7V | 00:00:00 | 03:04:56 | 00:00:00 | |
| DL0LBS | 2026-08-30 13:49:18 | 49.05479 | 10.96422 | 85° | 42km/h | 4715m | -2.3m/s | -3.1°C | 9.4% | 576.9hPa | 2.7V | 07:25:00 | 00:00:00 | 00:00:00 | |
| DO3MHA-11 | 2026-08-30 13:49:17 | 49.05477 | 10.96390 | 85° | 42km/h | 4720m | -2.3m/s | -3.0°C | 9.9% | 576.3hPa | 2.7V | 00:00:00 | 03:04:53 | 00:00:00 | |
| DM7RM-13 | 2026-08-30 13:49:16 | 49.05477 | 10.96390 | 86° | 42km/h | 4720m | -2.4m/s | -3.1°C | 9.5% | 576.4hPa | 2.7V | 07:25:00 | 00:00:00 | 00:00:00 | |
| DO3MHA-11 | 2026-08-30 13:49:12 | 49.05472 | 10.96311 | 85° | 40km/h | 4732m | -2.5m/s | -3.0°C | 9.7% | 575.5hPa | 2.7V | 07:25:00 | 03:04:48 | 00:00:00 | |
| DL6DJ-15 | 2026-08-30 13:49:09 | 49.05469 | 10.96265 | 84° | 40km/h | 4739m | -2.5m/s | -3.0°C | 8.7% | 575.0hPa | 2.7V | 00:00:00 | 00:00:00 | 00:00:00 | |
| DO9HM | 2026-08-30 13:49:08 | 49.05468 | 10.96249 | 86° | 40km/h | 4742m | -2.5m/s | -3.0°C | 8.5% | 574.9hPa | 2.7V | 07:25:00 | 00:00:00 | 00:00:00 | |
| DO3MHA-11 | 2026-08-30 13:49:07 | 49.05467 | 10.96234 | 85° | 40km/h | 4744m | -2.5m/s | -3.0°C | 8.8% | 574.6hPa | 2.7V | 00:00:00 | 03:04:43 | 00:00:00 | |
| DO3MHA-11 | 2026-08-30 13:49:02 | 49.05463 | 10.96156 | 87° | 40km/h | 4757m | -2.6m/s | -2.9°C | 7.5% | 573.8hPa | 2.7V | 00:00:00 | 03:04:38 | 00:00:00 | |
| DB0ND-19 | 2026-08-30 13:48:48 | 49.05457 | 10.95925 | 88° | 38km/h | 4794m | -2.7m/s | -3.1°C | 4.9% | 571.1hPa | 2.7V | 00:00:00 | 00:00:00 | 00:00:00 | |
| DO3MHA-11 | 2026-08-30 13:48:47 | 49.05457 | 10.95925 | 89° | 40km/h | 4794m | -2.6m/s | -3.1°C | 5.1% | 571.0hPa | 2.7V | 00:00:00 | 03:04:23 | 00:00:00 | |
| DO9HM | 2026-08-30 13:48:46 | 49.05456 | 10.95925 | 90° | 40km/h | 4794m | -2.7m/s | -3.1°C | 4.9% | 571.1hPa | 2.7V | 07:26:00 | 00:00:00 | 00:00:00 | |
| DO3MHA-11 | 2026-08-30 13:48:42 | 49.05455 | 10.95849 | 87° | 38km/h | 4807m | -2.5m/s | -3.1°C | 4.6% | 570.1hPa | 2.7V | 00:00:00 | 03:04:18 | 00:00:00 | |
| DL6DJ-15 | 2026-08-30 13:48:38 | 49.05454 | 10.95790 | 89° | 37km/h | 4818m | -2.7m/s | -3.2°C | 4.1% | 569.3hPa | 2.7V | 00:00:00 | 00:00:00 | 00:00:00 | |
| DO3MHA-11 | 2026-08-30 13:48:37 | 49.05453 | 10.95775 | 89° | 38km/h | 4820m | -2.6m/s | -3.1°C | 4.2% | 569.2hPa | 2.7V | 00:00:00 | 03:04:13 | 00:00:00 | |
| DL0LBS | 2026-08-30 13:48:36 | 49.05453 | 10.95775 | 89° | 38km/h | 4820m | -2.6m/s | -3.1°C | 4.0% | 569.3hPa | 2.7V | 07:26:00 | 00:00:00 | 00:00:00 | |
| DM7RM-13 | 2026-08-30 13:48:35 | 49.05453 | 10.95760 | 90° | 38km/h | 4823m | -2.8m/s | -3.1°C | 4.0% | 569.1hPa | 2.7V | 07:26:00 | 00:00:00 | 00:00:00 | |
| DO3MHA-11 | 2026-08-30 13:48:32 | 49.05453 | 10.95702 | 92° | 38km/h | 4834m | -2.6m/s | -3.1°C | 4.5% | 568.2hPa | 2.7V | 07:25:00 | 03:04:08 | 00:00:00 | |
| DO3MHA-11 | 2026-08-30 13:48:27 | 49.05454 | 10.95629 | 91° | 37km/h | 4847m | -2.7m/s | -3.2°C | 4.8% | 567.2hPa | 2.7V | 00:00:00 | 03:04:03 | 00:00:00 | |
| DO3MHA-11 | 2026-08-30 13:48:22 | 49.05455 | 10.95558 | 92° | 38km/h | 4860m | -2.7m/s | -3.3°C | 5.1% | 566.2hPa | 2.7V | 00:00:00 | 03:03:58 | 00:00:00 | |
| NBG1-10 | 2026-08-30 13:48:21 | 49.05455 | 10.95543 | 90° | 38km/h | 4863m | -2.6m/s | -3.3°C | 5.1% | 566.2hPa | 2.7V | 00:00:00 | 03:03:57 | 00:00:00 | |
| DK5PH-5 | 2026-08-30 13:48:20 | 49.05455 | 10.95529 | 91° | 38km/h | 4866m | -2.7m/s | -3.3°C | 5.1% | 565.8hPa | 2.7V | 00:00:00 | 03:03:56 | 00:00:00 | |
| DO3MHA-11 | 2026-08-30 13:48:17 | 49.05455 | 10.95485 | 91° | 38km/h | 4874m | -2.6m/s | -3.3°C | 5.2% | 565.3hPa | 2.7V | 00:00:00 | 03:03:53 | 00:00:00 | |
| DL0LBS | 2026-08-30 13:48:16 | 49.05455 | 10.95485 | 91° | 38km/h | 4874m | -2.7m/s | -3.4°C | 5.0% | 565.4hPa | 2.7V | 07:26:00 | 00:00:00 | 00:00:00 | |
| DM7RM-13 | 2026-08-30 13:48:15 | 49.05455 | 10.95470 | 93° | 38km/h | 4876m | -2.7m/s | -3.4°C | 5.0% | 565.2hPa | 2.7V | 07:26:00 | 00:00:00 | 00:00:00 | |
| DB0UT-7 | 2026-08-30 13:48:13 | 49.05456 | 10.95425 | 94° | 40km/h | 4885m | -2.8m/s | -3.4°C | 6.0% | 564.5hPa | 2.7V | 00:00:00 | 03:03:49 | 00:00:00 | |
| DO3MHA-11 | 2026-08-30 13:48:12 | 49.05457 | 10.95410 | 94° | 38km/h | 4887m | -2.7m/s | -3.4°C | 6.1% | 564.5hPa | 2.7V | 00:00:00 | 03:03:48 | 00:00:00 | |
| DO3MHA-11 | 2026-08-30 13:48:07 | 49.05460 | 10.95335 | 93° | 40km/h | 4901m | -2.7m/s | -3.5°C | 6.7% | 563.4hPa | 2.7V | 00:00:00 | 03:03:43 | 00:00:00 | |
| DL9SK-14 | 2026-08-30 13:48:06 | 49.05460 | 10.95320 | 93° | 38km/h | 4904m | -2.8m/s | -3.6°C | 6.4% | 563.2hPa | 2.6V | 00:00:00 | 00:00:00 | 00:00:00 | |
| DO9HM | 2026-08-30 13:48:05 | 49.05461 | 10.95304 | 93° | 40km/h | 4907m | -2.8m/s | -3.6°C | 6.4% | 563.0hPa | 2.6V | 07:26:00 | 00:00:00 | 00:00:00 | |
| DO3MHA-11 | 2026-08-30 13:48:02 | 49.05462 | 10.95259 | 93° | 40km/h | 4915m | -2.7m/s | -3.7°C | 7.1% | 562.4hPa | 2.6V | 00:00:00 | 03:03:38 | 00:00:00 | |
| DB0ND-19 | 2026-08-30 13:47:46 | 49.05462 | 10.95001 | 89° | 38km/h | 4962m | -2.9m/s | -4.1°C | 7.5% | 559.1hPa | 2.6V | 00:00:00 | 00:00:00 | 00:00:00 | |
| DO9HM | 2026-08-30 13:47:44 | 49.05462 | 10.94986 | 91° | 40km/h | 4965m | -2.9m/s | -4.1°C | 7.5% | 558.8hPa | 2.6V | 07:27:00 | 00:00:00 | 00:00:00 | |
| DB0UT-7 | 2026-08-30 13:47:43 | 49.05462 | 10.94971 | 90° | 42km/h | 4968m | -2.9m/s | -4.1°C | 8.1% | 558.7hPa | 2.6V | 00:00:00 | 00:00:00 | 00:00:00 | |
| DO3MHA-11 | 2026-08-30 13:47:42 | 49.05462 | 10.94956 | 90° | 38km/h | 4971m | -2.8m/s | -4.2°C | 8.3% | 558.4hPa | 2.6V | 00:00:00 | 03:03:18 | 00:00:00 | |
| DO3MHA-11 | 2026-08-30 13:47:37 | 49.05461 | 10.94881 | 90° | 40km/h | 4985m | -2.8m/s | -4.1°C | 8.1% | 557.5hPa | 2.6V | 00:00:00 | 03:03:13 | 00:00:00 | |
| DL6DJ-15 | 2026-08-30 13:47:36 | 49.05461 | 10.94866 | 88° | 38km/h | 4988m | -2.9m/s | -4.3°C | 8.3% | 557.2hPa | 2.7V | 00:00:00 | 00:00:00 | 00:00:00 | |
| DL9SK-14 | 2026-08-30 13:47:35 | 49.05461 | 10.94851 | 89° | 38km/h | 4991m | -2.9m/s | -4.3°C | 9.5% | 557.0hPa | 2.7V | 00:00:00 | 00:00:00 | 00:00:00 | |
| DM7RM-13 | 2026-08-30 13:47:34 | 49.05461 | 10.94851 | 90° | 40km/h | 4991m | -2.9m/s | -4.3°C | 9.5% | 557.0hPa | 2.7V | 07:27:00 | 00:00:00 | 00:00:00 | |
| DO3MHA-11 | 2026-08-30 13:47:32 | 49.05460 | 10.94804 | 90° | 40km/h | 5000m | -2.8m/s | -4.3°C | 11.3% | 556.4hPa | 2.7V | 00:00:00 | 03:03:08 | 00:00:00 | |
| DO9HM | 2026-08-30 13:47:24 | 49.05459 | 10.94679 | 90° | 40km/h | 5023m | -2.9m/s | -4.5°C | 11.9% | 554.8hPa | 2.7V | 07:27:00 | 00:00:00 | 00:00:00 | |
| DO3MHA-11 | 2026-08-30 13:47:23 | 49.05459 | 10.94663 | 90° | 42km/h | 5026m | -2.9m/s | -4.4°C | 12.6% | 554.6hPa | 2.7V | 00:00:00 | 03:02:59 | 00:00:00 | |
| DK5PH-5 | 2026-08-30 13:47:20 | 49.05458 | 10.94615 | 90° | 42km/h | 5034m | -2.9m/s | -4.6°C | 13.2% | 553.9hPa | 2.7V | 00:00:00 | 03:02:56 | 00:00:00 | |
| NBG1-10 | 2026-08-30 13:47:15 | 49.05457 | 10.94535 | 88° | 42km/h | 5050m | -3.0m/s | -4.7°C | 13.4% | 552.8hPa | 2.7V | 00:00:00 | 03:02:51 | 00:00:00 | |
| DL0LBS | 2026-08-30 13:47:14 | 49.05457 | 10.94535 | 88° | 42km/h | 5050m | -3.1m/s | -4.7°C | 12.7% | 552.9hPa | 2.7V | 07:27:00 | 00:00:00 | 00:00:00 | |
| DO3MHA-11 | 2026-08-30 13:47:13 | 49.05457 | 10.94503 | 89° | 42km/h | 5055m | -3.1m/s | -4.8°C | 13.5% | 552.4hPa | 2.7V | 00:00:00 | 03:02:49 | 00:00:00 | |
| DL6DJ-15 | 2026-08-30 13:47:05 | 49.05456 | 10.94375 | 89° | 40km/h | 5079m | -3.1m/s | -5.0°C | 12.9% | 550.8hPa | 2.7V | 00:00:00 | 00:00:00 | 00:00:00 | |
| DL9SK-14 | 2026-08-30 13:47:04 | 49.05456 | 10.94358 | 90° | 42km/h | 5083m | -3.1m/s | -5.1°C | 12.8% | 550.6hPa | 2.7V | 00:00:00 | 00:00:00 | 00:00:00 | |
| DO3MHA-11 | 2026-08-30 13:47:03 | 49.05456 | 10.94342 | 90° | 42km/h | 5086m | -3.0m/s | -5.1°C | 13.5% | 550.2hPa | 2.7V | 00:00:00 | 03:02:39 | 00:00:00 | |
| DO9HM | 2026-08-30 13:47:02 | 49.05456 | 10.94342 | 91° | 44km/h | 5086m | -3.1m/s | -5.1°C | 12.8% | 550.3hPa | 2.7V | 07:28:00 | 00:00:00 | 00:00:00 | |
| DK7TD | 2026-08-30 13:46:39 | 49.05463 | 10.93946 | 92° | 42km/h | 5161m | -3.1m/s | -5.7°C | 13% | 545.1hPa | 2.7V | 07:28:59 | 03:02:15 | 00:00:00 | |
| DK7TD | 2026-08-30 13:46:23 | 49.05469 | 10.93682 | 92° | 42km/h | 5211m | -3.1m/s | -6.1°C | 9.2% | 541.6hPa | 2.6V | 07:28:59 | 03:01:59 | 00:00:00 | |
| DK7TD | 2026-08-30 13:46:13 | 49.05474 | 10.93520 | 92° | 42km/h | 5243m | -3.3m/s | -6.3°C | 8.4% | 539.3hPa | 2.7V | 07:28:59 | 03:01:49 | 00:00:00 | |
| DK7TD | 2026-08-30 13:46:02 | 49.05477 | 10.93338 | 90° | 44km/h | 5279m | -3.2m/s | -6.7°C | 7% | 536.9hPa | 2.7V | 07:28:59 | 03:01:38 | 00:00:00 | |
| DK7TD | 2026-08-30 13:45:52 | 49.05479 | 10.93172 | 90° | 42km/h | 5311m | -3.3m/s | -6.9°C | 7.1% | 534.7hPa | 2.7V | 07:28:59 | 03:01:28 | 00:00:00 | |
| DK7TD | 2026-08-30 13:45:41 | 49.05481 | 10.92988 | 91° | 44km/h | 5347m | -3.3m/s | -7.2°C | 7.1% | 532.2hPa | 2.7V | 07:28:59 | 03:01:17 | 00:00:00 | |
| DK7TD | 2026-08-30 13:45:31 | 49.05479 | 10.92816 | 88° | 46km/h | 5379m | -3.2m/s | -7.4°C | 6.9% | 530.1hPa | 2.6V | 07:28:59 | 03:01:07 | 00:00:00 | |
| DK7TD | 2026-08-30 13:45:20 | 49.05474 | 10.92619 | 88° | 47km/h | 5415m | -3.1m/s | -7.7°C | 9% | 527.6hPa | 2.6V | 07:29:50 | 03:00:56 | 00:00:00 | |
| DK7TD | 2026-08-30 13:45:09 | 49.05465 | 10.92413 | 84° | 49km/h | 5452m | -3.3m/s | -7.9°C | 8.5% | 525.2hPa | 2.7V | 07:29:50 | 03:00:45 | 00:00:00 | |
| DK7TD | 2026-08-30 13:44:59 | 49.05454 | 10.92221 | 85° | 49km/h | 5484m | -3.2m/s | -8.2°C | 7.3% | 523hPa | 2.7V | 07:29:50 | 03:00:35 | 00:00:00 | |
| DK7TD | 2026-08-30 13:44:48 | 49.05444 | 10.92009 | 85° | 51km/h | 5520m | -3.3m/s | -8.3°C | 6.1% | 520.5hPa | 2.6V | 07:29:50 | 03:00:24 | 00:00:00 | |
| DL1NUX | 2026-08-30 13:44:45 | 49.05434 | 10.91857 | 84° | 49km/h | 5547m | -3.2m/s | -8.5°C | 6.9% | 518.8hPa | 2.7V | 07:29:46 | 03:00:16 | 00:00:00 | |
| DK7TD | 2026-08-30 13:44:37 | 49.05430 | 10.91800 | 85° | 49km/h | 5557m | -3.3m/s | -8.6°C | 6.3% | 518.1hPa | 2.6V | 07:29:50 | 03:00:13 | 00:00:00 | |
| DK7TD | 2026-08-30 13:44:26 | 49.05416 | 10.91590 | 84° | 49km/h | 5592m | -3.3m/s | -8.9°C | 7.9% | 515.7hPa | 2.7V | 07:30:41 | 03:00:02 | 00:00:00 | |
| DK7TD | 2026-08-30 13:44:15 | 49.05404 | 10.91378 | 84° | 51km/h | 5628m | -3.2m/s | -9.1°C | 10% | 513.3hPa | 2.7V | 07:30:41 | 02:59:51 | 00:00:00 | |
| DK7TD | 2026-08-30 13:44:04 | 49.05388 | 10.91163 | 83° | 49km/h | 5664m | -3.3m/s | -9.4°C | 10.1% | 510.9hPa | 2.7V | 07:30:41 | 02:59:40 | 00:00:00 | |
| DK7TD | 2026-08-30 13:43:53 | 49.05370 | 10.90950 | 82° | 51km/h | 5699m | -3.1m/s | -9.7°C | 10.5% | 508.6hPa | 2.7V | 07:30:41 | 02:59:29 | 00:00:00 | |
| DK7TD | 2026-08-30 13:43:43 | 49.05351 | 10.90759 | 81° | 51km/h | 5731m | -3.1m/s | -10°C | 10.9% | 506.6hPa | 2.6V | 07:31:32 | 02:59:19 | 00:00:00 | |
| DK7TD | 2026-08-30 13:43:32 | 49.05328 | 10.90543 | 80° | 53km/h | 5766m | -3.3m/s | -10.3°C | 10.9% | 504.3hPa | 2.7V | 07:31:32 | 02:59:08 | 00:00:00 | |
| DK7TD | 2026-08-30 13:43:21 | 49.05303 | 10.90327 | 80° | 51km/h | 5801m | -3.2m/s | -10.6°C | 10.4% | 501.9hPa | 2.7V | 07:31:32 | 02:58:57 | 00:00:00 | |
| DK7TD | 2026-08-30 13:43:10 | 49.05278 | 10.90109 | 80° | 53km/h | 5836m | -3.3m/s | -10.8°C | 11% | 499.6hPa | 2.7V | 07:31:32 | 02:58:46 | 00:00:00 | |
| DK7TD | 2026-08-30 13:42:59 | 49.05255 | 10.89890 | 81° | 53km/h | 5871m | -3.2m/s | -11.1°C | 11% | 497.4hPa | 2.7V | 07:31:32 | 02:58:35 | 00:00:00 | |
| DK7TD | 2026-08-30 13:42:48 | 49.05230 | 10.89669 | 81° | 53km/h | 5906m | -3.2m/s | -11.3°C | 11.2% | 495.1hPa | 2.7V | 07:32:23 | 02:58:24 | 00:00:00 | |
| DK7TD | 2026-08-30 13:42:38 | 49.05207 | 10.89467 | 81° | 55km/h | 5938m | -3.2m/s | -11.7°C | 11.4% | 493.1hPa | 2.6V | 07:32:23 | 02:58:14 | 00:00:00 | |
| DK7TD | 2026-08-30 13:42:28 | 49.05186 | 10.89262 | 81° | 53km/h | 5969m | -3.2m/s | -12°C | 11.6% | 491.1hPa | 2.6V | 07:32:23 | 02:58:04 | 00:00:00 | |
| DK7TD | 2026-08-30 13:42:18 | 49.05167 | 10.89058 | 83° | 53km/h | 6000m | -3.2m/s | -12.2°C | 11.3% | 489.1hPa | 2.7V | 07:32:23 | 02:57:54 | 00:00:00 | |
| NBG1-10 | 2026-08-30 13:42:18 | 49.05167 | 10.89058 | 84° | 55km/h | 6000m | -3.2m/s | -12.1°C | 10.7% | 489.1hPa | 2.7V | 00:00:00 | 02:57:54 | 00:00:00 | |
| DO9HM | 2026-08-30 13:42:14 | 49.05160 | 10.88975 | 84° | 55km/h | 6012m | -3.1m/s | -12.3°C | 9.0% | 488.4hPa | 2.7V | 07:32:00 | 00:00:00 | 00:00:00 | |
| DO3MHA-11 | 2026-08-30 13:42:13 | 49.05158 | 10.88954 | 83° | 55km/h | 6015m | -3.0m/s | -12.2°C | 9.5% | 488.0hPa | 2.7V | 00:00:00 | 02:57:49 | 00:00:00 | |
| DL1NUX | 2026-08-30 13:42:12 | 49.05148 | 10.88831 | 81° | 55km/h | 6034m | -3.1m/s | -12.4°C | 8.4% | 487hPa | 2.7V | 07:32:19 | 02:57:43 | 00:00:00 | |
| DK7TD | 2026-08-30 13:42:07 | 49.05147 | 10.88831 | 81° | 55km/h | 6034m | -3.1m/s | -12.4°C | 8.3% | 487hPa | 2.7V | 07:32:23 | 02:57:43 | 00:00:00 | |
| DK7TD | 2026-08-30 13:41:57 | 49.05127 | 10.88626 | 81° | 53km/h | 6064m | -3m/s | -12.6°C | 9.4% | 484.9hPa | 2.7V | 07:33:14 | 02:57:33 | 00:00:00 | |
| DK7TD | 2026-08-30 13:41:46 | 49.05100 | 10.88398 | 78° | 55km/h | 6098m | -3.1m/s | -12.9°C | 9.9% | 482.8hPa | 2.7V | 07:33:14 | 02:57:22 | 00:00:00 | |
| DK7TD | 2026-08-30 13:41:36 | 49.05074 | 10.88186 | 80° | 57km/h | 6130m | -3.1m/s | -13.2°C | 10.4% | 480.8hPa | 2.7V | 07:33:14 | 02:57:12 | 00:00:00 | |
| DK7TD | 2026-08-30 13:41:25 | 49.05047 | 10.87948 | 80° | 57km/h | 6163m | -3.1m/s | -13.4°C | 10.4% | 478.7hPa | 2.7V | 07:33:14 | 02:57:01 | 00:00:00 | |
| DK7TD | 2026-08-30 13:41:14 | 49.05018 | 10.87704 | 80° | 58km/h | 6197m | -3.2m/s | -13.7°C | 9.6% | 476.5hPa | 2.7V | 07:33:14 | 02:56:50 | 00:00:00 | |
| DO3MHA-11 | 2026-08-30 13:41:13 | 49.05015 | 10.87682 | 80° | 58km/h | 6200m | -3.0m/s | -13.6°C | 9.4% | 476.3hPa | 2.7V | 00:00:00 | 02:56:49 | 00:00:00 | |
| NBG1-10 | 2026-08-30 13:41:12 | 49.05013 | 10.87659 | 81° | 57km/h | 6203m | -3.0m/s | -13.7°C | 9.6% | 476.2hPa | 2.6V | 00:00:00 | 02:56:48 | 00:00:00 | |
| DO9HM | 2026-08-30 13:41:11 | 49.05013 | 10.87659 | 82° | 58km/h | 6203m | -3.0m/s | -13.7°C | 8.7% | 476.2hPa | 2.6V | 07:33:00 | 00:00:00 | 00:00:00 | |
| DL1NUX | 2026-08-30 13:41:09 | 49.04993 | 10.87483 | 80° | 57km/h | 6228m | -3.2m/s | -13.9°C | 10.8% | 474.6hPa | 2.6V | 07:33:22 | 02:56:40 | 00:00:00 | |
| DK7TD | 2026-08-30 13:41:04 | 49.04993 | 10.87483 | 81° | 57km/h | 6228m | -3.2m/s | -13.9°C | 11.2% | 474.6hPa | 2.6V | 07:34:05 | 02:56:40 | 00:00:00 | |
| DK7TD | 2026-08-30 13:40:53 | 49.04968 | 10.87244 | 81° | 57km/h | 6261m | -3.2m/s | -14.1°C | 9.9% | 472.5hPa | 2.6V | 07:34:05 | 02:56:29 | 00:00:00 | |
| DL6DJ-15 | 2026-08-30 13:40:52 | 49.04966 | 10.87223 | 80° | 55km/h | 6264m | -3.1m/s | -14.2°C | 8.8% | 472.3hPa | 2.6V | 00:00:00 | 00:00:00 | 00:00:00 | |
| DL9SK-14 | 2026-08-30 13:40:51 | 49.04964 | 10.87202 | 81° | 55km/h | 6267m | -3.1m/s | -14.2°C | 8.6% | 472.1hPa | 2.6V | 00:00:00 | 00:00:00 | 00:00:00 | |
| DK7TD | 2026-08-30 13:40:43 | 49.04948 | 10.87030 | 82° | 55km/h | 6291m | -3m/s | -14.4°C | 9.2% | 470.6hPa | 2.6V | 07:34:05 | 02:56:19 | 00:00:00 | |
| DK7TD | 2026-08-30 13:40:32 | 49.04928 | 10.86799 | 84° | 57km/h | 6325m | -3.1m/s | -14.7°C | 8.5% | 468.5hPa | 2.6V | 07:34:05 | 02:56:08 | 00:00:00 | |
| DK7TD | 2026-08-30 13:40:21 | 49.04916 | 10.86561 | 86° | 57km/h | 6359m | -3.2m/s | -14.9°C | 6.3% | 466.5hPa | 2.6V | 07:34:05 | 02:55:57 | 00:00:00 | |
| DL1NUX | 2026-08-30 13:40:20 | 49.04909 | 10.86429 | 84° | 58km/h | 6377m | -3.1m/s | -15.1°C | 6.6% | 465.3hPa | 2.7V | 07:34:11 | 02:55:51 | 00:00:00 | |
| DK7TD | 2026-08-30 13:40:10 | 49.04902 | 10.86320 | 85° | 57km/h | 6392m | -3.2m/s | -15.2°C | 4.9% | 464.4hPa | 2.7V | 07:34:56 | 02:55:46 | 00:00:00 | |
| DK7TD | 2026-08-30 13:40:00 | 49.04889 | 10.86102 | 85° | 58km/h | 6422m | -3m/s | -15.3°C | 3.3% | 462.7hPa | 2.6V | 07:34:56 | 02:55:36 | 00:00:00 | |
| DL1NUX | 2026-08-30 13:39:59 | 49.04878 | 10.85968 | 83° | 58km/h | 6440m | -3.2m/s | -15.4°C | 5.3% | 461.5hPa | 2.7V | 07:34:32 | 02:55:30 | 00:00:00 | |
| DK7TD | 2026-08-30 13:39:50 | 49.04871 | 10.85878 | 83° | 58km/h | 6452m | -3m/s | -15.5°C | 4.5% | 460.8hPa | 2.6V | 07:34:56 | 02:55:26 | 00:00:00 | |
| DL9SK-14 | 2026-08-30 13:39:49 | 49.04869 | 10.85856 | 83° | 57km/h | 6455m | -3.1m/s | -15.6°C | 5.0% | 460.6hPa | 2.6V | 00:00:00 | 00:00:00 | 00:00:00 | |
| DL1NUX | 2026-08-30 13:39:48 | 49.04858 | 10.85722 | 83° | 58km/h | 6474m | -3m/s | -15.7°C | 5.8% | 459.4hPa | 2.6V | 07:34:43 | 02:55:19 | 00:00:00 | |
| DK7TD | 2026-08-30 13:39:39 | 49.04851 | 10.85632 | 83° | 60km/h | 6486m | -3m/s | -15.8°C | 5% | 458.7hPa | 2.7V | 07:34:56 | 02:55:15 | 00:00:00 | |
| DL1NUX | 2026-08-30 13:39:38 | 49.04840 | 10.85497 | 82° | 60km/h | 6504m | -3.1m/s | -15.9°C | 6% | 457.6hPa | 2.6V | 07:34:53 | 02:55:09 | 00:00:00 | |
| DK7TD | 2026-08-30 13:39:28 | 49.04829 | 10.85382 | 82° | 60km/h | 6519m | -3m/s | -16°C | 5.3% | 456.8hPa | 2.6V | 07:35:47 | 02:55:04 | 00:00:00 | |
| DF7PN | 2026-08-30 13:39:28 | 49.04827 | 10.85359 | 79° | 60km/h | 6522m | -3.1m/s | -16.0°C | 5.5% | 456.6hPa | 2.6V | 00:00:00 | 00:00:00 | 00:00:00 | |
| DO3MHA-11 | 2026-08-30 13:39:23 | 49.04816 | 10.85269 | 80° | 60km/h | 6534m | -3.1m/s | -16.0°C | 6.4% | 455.8hPa | 2.6V | 00:00:00 | 02:54:59 | 00:00:00 | |
| DK5PH-5 | 2026-08-30 13:39:20 | 49.04809 | 10.85200 | 82° | 62km/h | 6544m | -3.1m/s | -16.1°C | 6.3% | 455.2hPa | 2.6V | 00:00:00 | 02:54:56 | 00:00:00 | |
| DL6DJ-15 | 2026-08-30 13:39:19 | 49.04807 | 10.85178 | 82° | 60km/h | 6546m | -2.9m/s | -16.2°C | 5.6% | 455.1hPa | 2.6V | 00:00:00 | 00:00:00 | 00:00:00 | |
| DL1NUX | 2026-08-30 13:39:18 | 49.04794 | 10.85038 | 81° | 62km/h | 6565m | -3m/s | -16.3°C | 6.3% | 453.9hPa | 2.6V | 07:35:13 | 02:54:49 | 00:00:00 | |
| DK7TD | 2026-08-30 13:39:18 | 49.04805 | 10.85154 | 81° | 60km/h | 6550m | -3m/s | -16.2°C | 5.5% | 454.8hPa | 2.6V | 07:35:47 | 02:54:54 | 00:00:00 | |
| DK7TD | 2026-08-30 13:39:07 | 49.04779 | 10.84897 | 81° | 62km/h | 6583m | -3.1m/s | -16.4°C | 5.6% | 452.8hPa | 2.6V | 07:35:47 | 02:54:43 | 00:00:00 | |
| DO3MHA-11 | 2026-08-30 13:39:03 | 49.04769 | 10.84803 | 82° | 62km/h | 6596m | -3.1m/s | -16.5°C | 6.5% | 452.1hPa | 2.7V | 00:00:00 | 02:54:39 | 00:00:00 | |
| NBG1-10 | 2026-08-30 13:39:00 | 49.04762 | 10.84732 | 82° | 64km/h | 6605m | -2.8m/s | -16.5°C | 6.5% | 451.6hPa | 2.7V | 00:00:00 | 02:54:36 | 00:00:00 | |
| DL1NUX | 2026-08-30 13:38:59 | 49.04747 | 10.84589 | 79° | 62km/h | 6622m | -3m/s | -16.8°C | 6.3% | 450.4hPa | 2.7V | 07:35:32 | 02:54:30 | 00:00:00 | |
| DK7TD | 2026-08-30 13:38:56 | 49.04753 | 10.84637 | 81° | 62km/h | 6617m | -3m/s | -16.7°C | 5.7% | 450.9hPa | 2.7V | 07:35:47 | 02:54:32 | 00:00:00 | |
| DO3MHA-11 | 2026-08-30 13:38:53 | 49.04744 | 10.84565 | 81° | 64km/h | 6625m | -2.9m/s | -16.7°C | 6.3% | 450.2hPa | 2.7V | 07:35:00 | 02:54:29 | 00:00:00 | |
| DK5PH-5 | 2026-08-30 13:38:50 | 49.04737 | 10.84493 | 82° | 64km/h | 6635m | -3.1m/s | -16.7°C | 6.4% | 449.7hPa | 2.7V | 07:35:00 | 02:54:26 | 00:00:00 | |
| DL1NUX | 2026-08-30 13:38:48 | 49.04720 | 10.84325 | 80° | 64km/h | 6656m | -3.1m/s | -16.9°C | 6.9% | 448.5hPa | 2.6V | 07:35:43 | 02:54:19 | 00:00:00 | |
| DK7TD | 2026-08-30 13:38:46 | 49.04727 | 10.84397 | 81° | 64km/h | 6647m | -3m/s | -16.9°C | 6% | 449.1hPa | 2.7V | 07:35:47 | 02:54:22 | 00:00:00 | |
| SO1NDE-10 | 2026-08-30 13:38:43 | 49.04719 | 10.84325 | 81° | 64km/h | 6656m | -3.0m/s | -16.9°C | 6.9% | 448.5hPa | 2.6V | 07:35:00 | 02:54:19 | 00:00:00 | |
| DN1GJH-1 | 2026-08-30 13:38:38 | 49.04708 | 10.84229 | 80° | 64km/h | 6668m | -3.2m/s | -17.0°C | 6.3% | 447.8hPa | 2.6V | 07:35:00 | 00:00:00 | 00:00:00 | |
| DL1NUX | 2026-08-30 13:38:37 | 49.04688 | 10.84060 | 80° | 64km/h | 6690m | -3.2m/s | -17.3°C | 7.5% | 446.4hPa | 2.6V | 07:35:54 | 02:54:08 | 00:00:00 | |
| DK7TD | 2026-08-30 13:38:35 | 49.04696 | 10.84132 | 79° | 64km/h | 6681m | -3.1m/s | -17.2°C | 6.8% | 446.9hPa | 2.7V | 07:36:38 | 02:54:11 | 00:00:00 | |
| DK7TD | 2026-08-30 13:38:24 | 49.04665 | 10.83861 | 81° | 66km/h | 6715m | -3.2m/s | -17.4°C | 7.4% | 445hPa | 2.7V | 07:36:38 | 02:54:00 | 00:00:00 | |
| DO3MHA-11 | 2026-08-30 13:38:23 | 49.04663 | 10.83836 | 82° | 64km/h | 6718m | -3.0m/s | -17.4°C | 7.7% | 444.7hPa | 2.7V | 00:00:00 | 02:53:59 | 00:00:00 | |
| DK5PH-5 | 2026-08-30 13:38:20 | 49.04655 | 10.83762 | 81° | 64km/h | 6727m | -3.1m/s | -17.5°C | 7.7% | 444.2hPa | 2.7V | 00:00:00 | 02:53:56 | 00:00:00 | |
| DL1NUX | 2026-08-30 13:38:18 | 49.04635 | 10.83591 | 80° | 64km/h | 6748m | -3.1m/s | -17.7°C | 8.3% | 443hPa | 2.7V | 07:36:13 | 02:53:49 | 00:00:00 | |
| DK7TD | 2026-08-30 13:38:13 | 49.04635 | 10.83591 | 80° | 64km/h | 6748m | -3.1m/s | -17.7°C | 8.1% | 443hPa | 2.7V | 07:36:38 | 02:53:49 | 00:00:00 | |
| DO3MHA-11 | 2026-08-30 13:38:13 | 49.04635 | 10.83591 | 81° | 64km/h | 6748m | -3.0m/s | -17.6°C | 8.3% | 442.9hPa | 2.7V | 00:00:00 | 02:53:49 | 00:00:00 | |
| DL1NUX | 2026-08-30 13:38:08 | 49.04609 | 10.83348 | 80° | 64km/h | 6780m | -3.1m/s | -17.8°C | 9% | 441.1hPa | 2.7V | 07:36:23 | 02:53:39 | 00:00:00 | |
| DK7TD | 2026-08-30 13:38:02 | 49.04606 | 10.83323 | 82° | 64km/h | 6783m | -3.1m/s | -17.9°C | 9.1% | 441hPa | 2.7V | 07:36:38 | 02:53:38 | 00:00:00 | |
| DK7TD | 2026-08-30 13:37:51 | 49.04580 | 10.83056 | 81° | 64km/h | 6817m | -3.2m/s | -18.1°C | 8.9% | 438.9hPa | 2.7V | 07:36:38 | 02:53:27 | 00:00:00 | |
| DL6DJ-15 | 2026-08-30 13:37:46 | 49.04569 | 10.82935 | 82° | 62km/h | 6832m | -3.2m/s | -18.2°C | 8.1% | 438.0hPa | 2.7V | 00:00:00 | 00:00:00 | 00:00:00 | |
| DL9SK-14 | 2026-08-30 13:37:45 | 49.04566 | 10.82911 | 82° | 62km/h | 6836m | -3.2m/s | -18.2°C | 8.1% | 437.8hPa | 2.7V | 00:00:00 | 00:00:00 | 00:00:00 | |
| DK7TD | 2026-08-30 13:37:41 | 49.04559 | 10.82814 | 84° | 64km/h | 6848m | -3.2m/s | -18.3°C | 9.1% | 437.1hPa | 2.7V | 07:37:29 | 02:53:17 | 00:00:00 | |
| DL1NUX | 2026-08-30 13:37:40 | 49.04548 | 10.82665 | 83° | 66km/h | 6867m | -3.2m/s | -18.4°C | 9.2% | 436hPa | 2.7V | 07:36:51 | 02:53:11 | 00:00:00 | |
| DK7TD | 2026-08-30 13:37:30 | 49.04538 | 10.82541 | 83° | 64km/h | 6883m | -3.2m/s | -18.6°C | 9.3% | 435hPa | 2.7V | 07:37:29 | 02:53:06 | 00:00:00 | |
| DK7TD | 2026-08-30 13:37:20 | 49.04516 | 10.82294 | 83° | 64km/h | 6915m | -3.1m/s | -18.8°C | 10.6% | 433.1hPa | 2.6V | 07:37:29 | 02:52:56 | 00:00:00 | |
| DK7TD | 2026-08-30 13:37:09 | 49.04489 | 10.82023 | 82° | 66km/h | 6950m | -3.2m/s | -19°C | 10.6% | 431.1hPa | 2.7V | 07:37:29 | 02:52:45 | 00:00:00 | |
| DK7TD | 2026-08-30 13:36:58 | 49.04462 | 10.81749 | 80° | 64km/h | 6986m | -3.3m/s | -19.2°C | 10.3% | 429hPa | 2.6V | 07:37:29 | 02:52:34 | 00:00:00 | |
| DL1NUX | 2026-08-30 13:36:58 | 49.04449 | 10.81628 | 81° | 66km/h | 7002m | -3.2m/s | -19.3°C | 10.1% | 428.2hPa | 2.6V | 07:37:33 | 02:52:29 | 00:00:00 | |
| DB0ND-19 | 2026-08-30 13:36:54 | 49.04452 | 10.81652 | 81° | 62km/h | 6999m | -3.4m/s | -19.3°C | 9.0% | 428.3hPa | 2.7V | 00:00:00 | 00:00:00 | 00:00:00 | |
| DF7PN | 2026-08-30 13:36:52 | 49.04447 | 10.81603 | 80° | 64km/h | 7005m | -3.2m/s | -19.4°C | 9.0% | 427.9hPa | 2.7V | 00:00:00 | 00:00:00 | 00:00:00 | |
| DK5PH-5 | 2026-08-30 13:36:50 | 49.04442 | 10.81554 | 82° | 68km/h | 7012m | -3.2m/s | -19.4°C | 10.2% | 427.5hPa | 2.7V | 00:00:00 | 02:52:26 | 00:00:00 | |
| DL1NUX | 2026-08-30 13:36:48 | 49.04422 | 10.81379 | 79° | 66km/h | 7035m | -3.2m/s | -19.6°C | 10.2% | 426.3hPa | 2.7V | 07:37:43 | 02:52:19 | 00:00:00 | |
| DK7TD | 2026-08-30 13:36:47 | 49.04434 | 10.81479 | 81° | 68km/h | 7022m | -3.4m/s | -19.5°C | 10.4% | 427hPa | 2.7V | 07:38:20 | 02:52:23 | 00:00:00 | |
| DB0UT-7 | 2026-08-30 13:36:45 | 49.04428 | 10.81429 | 81° | 69km/h | 7029m | -3.2m/s | -19.5°C | 10.3% | 426.6hPa | 2.7V | 00:00:00 | 00:00:00 | 00:00:00 | |
| DL6DJ-15 | 2026-08-30 13:36:44 | 49.04422 | 10.81379 | 79° | 64km/h | 7035m | -3.2m/s | -19.6°C | 9.1% | 426.3hPa | 2.7V | 00:00:00 | 00:00:00 | 00:00:00 | |
| DO3MHA-11 | 2026-08-30 13:36:43 | 49.04422 | 10.81379 | 80° | 68km/h | 7035m | -3.2m/s | -19.6°C | 10.2% | 426.2hPa | 2.7V | 00:00:00 | 02:52:19 | 00:00:00 | |
| DN1GJH-1 | 2026-08-30 13:36:42 | 49.04422 | 10.81379 | 80° | 66km/h | 7035m | -3.2m/s | -19.6°C | 9.1% | 426.3hPa | 2.7V | 07:38:00 | 00:00:00 | 00:00:00 | |
| DL1NUX | 2026-08-30 13:36:38 | 49.04391 | 10.81125 | 80° | 68km/h | 7068m | -3.2m/s | -19.9°C | 10.1% | 424.5hPa | 2.7V | 07:37:53 | 02:52:09 | 00:00:00 | |
| DK7TD | 2026-08-30 13:36:36 | 49.04400 | 10.81202 | 80° | 68km/h | 7058m | -3.3m/s | -19.8°C | 10.1% | 425hPa | 2.7V | 07:38:20 | 02:52:12 | 00:00:00 | |
| DO3MHA-11 | 2026-08-30 13:36:33 | 49.04391 | 10.81125 | 81° | 69km/h | 7068m | -3.2m/s | -19.8°C | 10.1% | 424.4hPa | 2.6V | 00:00:00 | 02:52:09 | 00:00:00 | |
| DM7RM-13 | 2026-08-30 13:36:32 | 49.04391 | 10.81125 | 82° | 68km/h | 7068m | -3.2m/s | -19.9°C | 8.9% | 424.5hPa | 2.6V | 07:38:00 | 00:00:00 | 00:00:00 | |
| DG1MJG | 2026-08-30 13:36:29 | 49.04383 | 10.81047 | 82° | 69km/h | 7078m | -3.3m/s | -20.0°C | 9.1% | 423.8hPa | 2.6V | 07:38:00 | 00:00:00 | 00:00:00 | |
| DL1NUX | 2026-08-30 13:36:28 | 49.04362 | 10.80861 | 79° | 71km/h | 7101m | -3.3m/s | -20.1°C | 10.3% | 422.5hPa | 2.6V | 07:38:03 | 02:51:59 | 00:00:00 | |
| DK7TD | 2026-08-30 13:36:26 | 49.04371 | 10.80941 | 80° | 71km/h | 7091m | -3.4m/s | -20.1°C | 10.4% | 423.1hPa | 2.7V | 07:38:20 | 02:52:02 | 00:00:00 | |
| DO3MHA-11 | 2026-08-30 13:36:23 | 49.04362 | 10.80861 | 80° | 71km/h | 7101m | -3.2m/s | -20.1°C | 10.3% | 422.5hPa | 2.7V | 00:00:00 | 02:51:59 | 00:00:00 | |
| DF7PN | 2026-08-30 13:36:21 | 49.04355 | 10.80808 | 80° | 69km/h | 7107m | -3.4m/s | -20.2°C | 9.1% | 422.2hPa | 2.7V | 00:00:00 | 00:00:00 | 00:00:00 | |
| DK5PH-5 | 2026-08-30 13:36:20 | 49.04352 | 10.80781 | 80° | 73km/h | 7111m | -3.2m/s | -20.1°C | 10.4% | 421.9hPa | 2.7V | 00:00:00 | 02:51:56 | 00:00:00 | |
| DL1NUX | 2026-08-30 13:36:18 | 49.04329 | 10.80591 | 80° | 71km/h | 7134m | -3.4m/s | -20.3°C | 10.2% | 420.7hPa | 2.7V | 07:38:13 | 02:51:49 | 00:00:00 | |
| DK7TD | 2026-08-30 13:36:16 | 49.04339 | 10.80673 | 79° | 71km/h | 7124m | -3.2m/s | -20.3°C | 10.8% | 421.1hPa | 2.6V | 07:38:20 | 02:51:52 | 00:00:00 | |
| NBG1-10 | 2026-08-30 13:36:15 | 49.04335 | 10.80646 | 81° | 73km/h | 7127m | -3.2m/s | -20.2°C | 10.3% | 421.0hPa | 2.7V | 07:38:00 | 02:51:51 | 00:00:00 | |
| DL6DJ-15 | 2026-08-30 13:36:13 | 49.04326 | 10.80564 | 80° | 71km/h | 7137m | -3.3m/s | -20.3°C | 8.9% | 420.5hPa | 2.7V | 00:00:00 | 00:00:00 | 00:00:00 | |
| DL9SK-14 | 2026-08-30 13:36:12 | 49.04323 | 10.80536 | 80° | 71km/h | 7140m | -3.4m/s | -20.4°C | 8.9% | 420.3hPa | 2.7V | 00:00:00 | 00:00:00 | 00:00:00 | |
| DL1NUX | 2026-08-30 13:36:08 | 49.04297 | 10.80318 | 79° | 73km/h | 7167m | -3.4m/s | -20.4°C | 9.6% | 418.7hPa | 2.7V | 07:38:23 | 02:51:39 | 00:00:00 | |
| DK7TD | 2026-08-30 13:36:05 | 49.04304 | 10.80373 | 79° | 71km/h | 7160m | -3.3m/s | -20.5°C | 9.9% | 419.1hPa | 2.6V | 07:39:11 | 02:51:41 | 00:00:00 | |
| DO3MHA-11 | 2026-08-30 13:36:03 | 49.04297 | 10.80318 | 80° | 73km/h | 7167m | -3.4m/s | -20.4°C | 9.6% | 418.7hPa | 2.7V | 00:00:00 | 02:51:39 | 00:00:00 | |
| DL0LBS | 2026-08-30 13:36:02 | 49.04297 | 10.80318 | 80° | 73km/h | 7167m | -3.4m/s | -20.5°C | 8.5% | 418.7hPa | 2.7V | 07:39:00 | 00:00:00 | 00:00:00 | |
| DN1GJH-1 | 2026-08-30 13:36:00 | 49.04290 | 10.80263 | 80° | 73km/h | 7173m | -3.3m/s | -20.6°C | 8.5% | 418.3hPa | 2.7V | 07:39:00 | 00:00:00 | 00:00:00 | |
| DL1NUX | 2026-08-30 13:35:58 | 49.04261 | 10.80041 | 78° | 73km/h | 7200m | -3.4m/s | -20.7°C | 9.4% | 416.9hPa | 2.7V | 07:38:33 | 02:51:29 | 00:00:00 | |
| DK7TD | 2026-08-30 13:35:54 | 49.04265 | 10.80069 | 78° | 75km/h | 7197m | -3.4m/s | -20.7°C | 9.5% | 417.1hPa | 2.7V | 07:39:11 | 02:51:30 | 00:00:00 | |
| DB0ND-19 | 2026-08-30 13:35:52 | 49.04257 | 10.80013 | 79° | 73km/h | 7203m | -3.3m/s | -20.8°C | 8.3% | 416.7hPa | 2.6V | 00:00:00 | 00:00:00 | 00:00:00 | |
| DM7RM-13 | 2026-08-30 13:35:51 | 49.04257 | 10.80013 | 80° | 75km/h | 7204m | -3.3m/s | -20.8°C | 8.3% | 416.7hPa | 2.6V | 07:39:00 | 00:00:00 | 00:00:00 | |
| DK5PH-5 | 2026-08-30 13:35:50 | 49.04250 | 10.79956 | 79° | 75km/h | 7210m | -3.3m/s | -20.8°C | 9.5% | 416.2hPa | 2.6V | 00:00:00 | 02:51:26 | 00:00:00 | |
| DO9HM | 2026-08-30 13:35:49 | 49.04250 | 10.79956 | 80° | 75km/h | 7210m | -3.4m/s | -20.8°C | 8.3% | 416.3hPa | 2.7V | 07:39:00 | 00:00:00 | 00:00:00 | |
| DL1NUX | 2026-08-30 13:35:48 | 49.04225 | 10.79757 | 79° | 75km/h | 7234m | -3.4m/s | -21°C | 9.4% | 415hPa | 2.7V | 07:38:43 | 02:51:19 | 00:00:00 | |
| DK7TD | 2026-08-30 13:35:43 | 49.04225 | 10.79757 | 79° | 75km/h | 7234m | -3.4m/s | -21°C | 9.5% | 415hPa | 2.7V | 07:39:11 | 02:51:19 | 00:00:00 | |
| DO3MHA-11 | 2026-08-30 13:35:43 | 49.04225 | 10.79757 | 80° | 75km/h | 7234m | -3.3m/s | -21.0°C | 9.4% | 415.0hPa | 2.7V | 00:00:00 | 02:51:19 | 00:00:00 | |
| DL6DJ-15 | 2026-08-30 13:35:42 | 49.04218 | 10.79700 | 79° | 75km/h | 7240m | -3.4m/s | -21.0°C | 8.3% | 414.6hPa | 2.6V | 00:00:00 | 00:00:00 | 00:00:00 | |
| DL9SK-14 | 2026-08-30 13:35:41 | 49.04214 | 10.79672 | 79° | 75km/h | 7244m | -3.2m/s | -21.1°C | 8.3% | 414.4hPa | 2.6V | 00:00:00 | 00:00:00 | 00:00:00 | |
| DN1GJH-1 | 2026-08-30 13:35:39 | 49.04214 | 10.79671 | 81° | 75km/h | 7244m | -3.2m/s | -21.1°C | 8.3% | 414.4hPa | 2.6V | 07:39:00 | 00:00:00 | 00:00:00 | |
| DJ8HS-15 | 2026-08-30 13:35:38 | 49.04207 | 10.79614 | 80° | 75km/h | 7250m | -3.3m/s | -21.0°C | 9.5% | 414.1hPa | 2.6V | 07:38:00 | 02:51:14 | 00:00:00 | |
| DL1NUX | 2026-08-30 13:35:37 | 49.04187 | 10.79443 | 79° | 75km/h | 7270m | -3.4m/s | -21.3°C | 9.9% | 413hPa | 2.6V | 07:38:54 | 02:51:08 | 00:00:00 | |
| DK7TD | 2026-08-30 13:35:33 | 49.04190 | 10.79471 | 80° | 75km/h | 7267m | -3.4m/s | -21.2°C | 10% | 413.1hPa | 2.6V | 07:39:11 | 02:51:09 | 00:00:00 | |
| DO3MHA-11 | 2026-08-30 13:35:33 | 49.04190 | 10.79471 | 80° | 75km/h | 7267m | -3.3m/s | -21.2°C | 9.8% | 413.1hPa | 2.6V | 00:00:00 | 02:51:09 | 00:00:00 | |
| DM7RM-13 | 2026-08-30 13:35:30 | 49.04183 | 10.79414 | 81° | 77km/h | 7274m | -3.5m/s | -21.3°C | 8.7% | 412.8hPa | 2.6V | 07:39:00 | 00:00:00 | 00:00:00 | |
| DO9HM | 2026-08-30 13:35:29 | 49.04180 | 10.79385 | 80° | 77km/h | 7277m | -3.4m/s | -21.3°C | 8.8% | 412.5hPa | 2.6V | 07:39:00 | 00:00:00 | 00:00:00 | |
| DL1NUX | 2026-08-30 13:35:26 | 49.04148 | 10.79128 | 79° | 75km/h | 7308m | -3.5m/s | -21.6°C | 11.4% | 410.9hPa | 2.6V | 07:39:05 | 02:50:57 | 00:00:00 | |
| DK7TD | 2026-08-30 13:35:23 | 49.04155 | 10.79185 | 80° | 75km/h | 7301m | -3.5m/s | -21.6°C | 11.5% | 411.2hPa | 2.7V | 07:39:11 | 02:50:59 | 00:00:00 | |
| DO3MHA-11 | 2026-08-30 13:35:23 | 49.04155 | 10.79185 | 80° | 75km/h | 7301m | -3.4m/s | -21.5°C | 11.1% | 411.2hPa | 2.7V | 00:00:00 | 02:50:59 | 00:00:00 | |
| DB0ND-19 | 2026-08-30 13:35:21 | 49.04148 | 10.79128 | 79° | 75km/h | 7308m | -3.5m/s | -21.6°C | 10.0% | 410.9hPa | 2.7V | 00:00:00 | 00:00:00 | 00:00:00 | |
| DK5PH-5 | 2026-08-30 13:35:20 | 49.04145 | 10.79099 | 81° | 77km/h | 7312m | -3.4m/s | -21.6°C | 11.7% | 410.6hPa | 2.7V | 00:00:00 | 02:50:56 | 00:00:00 | |
| DF7PN | 2026-08-30 13:35:19 | 49.04142 | 10.79070 | 80° | 75km/h | 7315m | -3.6m/s | -21.6°C | 10.5% | 410.4hPa | 2.7V | 00:00:00 | 00:00:00 | 00:00:00 | |
| DJ8HS-15 | 2026-08-30 13:35:18 | 49.04138 | 10.79042 | 81° | 75km/h | 7319m | -3.4m/s | -21.6°C | 12.4% | 410.2hPa | 2.7V | 00:00:00 | 02:50:54 | 00:00:00 | |
| DL1NUX | 2026-08-30 13:35:16 | 49.04116 | 10.78841 | 80° | 75km/h | 7342m | -3.4m/s | -21.9°C | 13.1% | 408.9hPa | 2.7V | 07:39:15 | 02:50:47 | 00:00:00 | |
| DK7TD | 2026-08-30 13:35:12 | 49.04119 | 10.78870 | 80° | 75km/h | 7339m | -3.5m/s | -21.9°C | 13.7% | 409.1hPa | 2.7V | 07:40:02 | 02:50:48 | 00:00:00 | |
| DL6DJ-15 | 2026-08-30 13:35:11 | 49.04113 | 10.78812 | 79° | 75km/h | 7345m | -3.5m/s | -21.9°C | 11.7% | 408.7hPa | 2.6V | 00:00:00 | 00:00:00 | 00:00:00 | |
| DL9SK-14 | 2026-08-30 13:35:10 | 49.04109 | 10.78784 | 79° | 75km/h | 7349m | -3.5m/s | -22.0°C | 11.7% | 408.6hPa | 2.6V | 00:00:00 | 00:00:00 | 00:00:00 | |
| NBG1-10 | 2026-08-30 13:35:09 | 49.04109 | 10.78784 | 80° | 77km/h | 7349m | -3.5m/s | -21.9°C | 13.3% | 408.6hPa | 2.6V | 00:00:00 | 02:50:45 | 00:00:00 | |
| DO9HM | 2026-08-30 13:35:08 | 49.04109 | 10.78784 | 81° | 75km/h | 7349m | -3.5m/s | -22.0°C | 11.7% | 408.6hPa | 2.6V | 07:40:00 | 00:00:00 | 00:00:00 | |
| DL1NUX | 2026-08-30 13:35:06 | 49.04082 | 10.78553 | 79° | 77km/h | 7376m | -3.4m/s | -22.2°C | 12.9% | 407hPa | 2.6V | 07:39:25 | 02:50:37 | 00:00:00 | |
| DK7TD | 2026-08-30 13:35:01 | 49.04082 | 10.78553 | 79° | 77km/h | 7377m | -3.4m/s | -22.2°C | 13.6% | 407hPa | 2.6V | 07:40:02 | 02:50:37 | 00:00:00 | |
| DJ8HS-15 | 2026-08-30 13:34:58 | 49.04071 | 10.78467 | 80° | 77km/h | 7387m | -3.6m/s | -22.2°C | 12.5% | 406.3hPa | 2.6V | 00:00:00 | 02:50:34 | 00:00:00 | |
| DN1GJH-1 | 2026-08-30 13:34:57 | 49.04071 | 10.78467 | 80° | 75km/h | 7387m | -3.6m/s | -22.3°C | 11.0% | 406.4hPa | 2.6V | 07:40:00 | 00:00:00 | 00:00:00 | |
| DL1NUX | 2026-08-30 13:34:55 | 49.04043 | 10.78237 | 78° | 77km/h | 7415m | -3.6m/s | -22.4°C | 16.4% | 404.9hPa | 2.6V | 07:39:36 | 02:50:26 | 00:00:00 | |
| DK7TD | 2026-08-30 13:34:51 | 49.04046 | 10.78266 | 80° | 77km/h | 7412m | -3.5m/s | -22.5°C | 17.2% | 405.1hPa | 2.6V | 07:40:02 | 02:50:27 | 00:00:00 | |
| DB0ND-19 | 2026-08-30 13:34:50 | 49.04043 | 10.78237 | 78° | 75km/h | 7415m | -3.6m/s | -22.4°C | 14.6% | 404.9hPa | 2.6V | 00:00:00 | 00:00:00 | 00:00:00 | |
| DF7PN | 2026-08-30 13:34:48 | 49.04036 | 10.78180 | 79° | 75km/h | 7422m | -3.6m/s | -22.5°C | 15.1% | 404.4hPa | 2.6V | 00:00:00 | 00:00:00 | 00:00:00 | |
| DO9HM | 2026-08-30 13:34:47 | 49.04036 | 10.78180 | 81° | 77km/h | 7422m | -3.6m/s | -22.5°C | 15.1% | 404.4hPa | 2.6V | 07:40:00 | 00:00:00 | 00:00:00 | |
| DL1NUX | 2026-08-30 13:34:45 | 49.04007 | 10.77949 | 79° | 75km/h | 7450m | -3.3m/s | -22.8°C | 17.4% | 403hPa | 2.6V | 07:39:46 | 02:50:16 | 00:00:00 | |
| DK7TD | 2026-08-30 13:34:40 | 49.04007 | 10.77949 | 80° | 75km/h | 7450m | -3.3m/s | -22.8°C | 18.7% | 403hPa | 2.6V | 07:40:02 | 02:50:16 | 00:00:00 | |
| DL6DJ-15 | 2026-08-30 13:34:40 | 49.04004 | 10.77920 | 79° | 75km/h | 7454m | -3.5m/s | -22.8°C | 15.0% | 402.8hPa | 2.6V | 00:00:00 | 00:00:00 | 00:00:00 | |
| DL9SK-14 | 2026-08-30 13:34:39 | 49.04000 | 10.77891 | 79° | 75km/h | 7457m | -3.6m/s | -22.9°C | 13.8% | 402.5hPa | 2.6V | 00:00:00 | 00:00:00 | 00:00:00 | |
| DN1GJH-1 | 2026-08-30 13:34:37 | 49.04000 | 10.77891 | 80° | 77km/h | 7457m | -3.6m/s | -22.9°C | 13.9% | 402.5hPa | 2.6V | 07:40:00 | 00:00:00 | 00:00:00 | |
| DJ8HS-15 | 2026-08-30 13:34:36 | 49.03993 | 10.77833 | 80° | 77km/h | 7464m | -3.4m/s | -22.8°C | 14.2% | 402.1hPa | 2.6V | 00:00:00 | 02:50:12 | 00:00:00 | |
| DL1NUX | 2026-08-30 13:34:35 | 49.03970 | 10.77660 | 78° | 77km/h | 7485m | -3.8m/s | -23.1°C | 13.3% | 401hPa | 2.6V | 07:39:56 | 02:50:06 | 00:00:00 | |
| DK7TD | 2026-08-30 13:34:29 | 49.03967 | 10.77632 | 78° | 77km/h | 7489m | -3.7m/s | -23.1°C | 14.3% | 400.7hPa | 2.6V | 07:40:02 | 02:50:05 | 00:00:00 | |
| DB0UT-7 | 2026-08-30 13:34:28 | 49.03963 | 10.77603 | 79° | 75km/h | 7493m | -3.5m/s | -23.1°C | 13.4% | 400.6hPa | 2.6V | 07:39:00 | 02:50:04 | 00:00:00 | |
| DO9HM | 2026-08-30 13:34:27 | 49.03963 | 10.77603 | 80° | 77km/h | 7493m | -3.5m/s | -23.1°C | 11.7% | 400.6hPa | 2.6V | 07:40:00 | 00:00:00 | 00:00:00 | |
| DL1NUX | 2026-08-30 13:34:25 | 49.03934 | 10.77375 | 79° | 75km/h | 7521m | -3.6m/s | -23.4°C | 17.4% | 399.1hPa | 2.6V | 07:40:06 | 02:49:56 | 00:00:00 | |
| DK7TD | 2026-08-30 13:34:18 | 49.03927 | 10.77318 | 79° | 75km/h | 7528m | -3.5m/s | -23.4°C | 19.6% | 398.7hPa | 2.6V | 07:40:53 | 02:49:54 | 00:00:00 | |
| DF7PN | 2026-08-30 13:34:17 | 49.03924 | 10.77289 | 79° | 73km/h | 7532m | -3.7m/s | -23.5°C | 17.1% | 398.5hPa | 2.7V | 00:00:00 | 00:00:00 | 00:00:00 | |
| DN1GJH-1 | 2026-08-30 13:34:16 | 49.03924 | 10.77289 | 81° | 75km/h | 7532m | -3.7m/s | -23.5°C | 17.1% | 398.5hPa | 2.7V | 07:40:00 | 00:00:00 | 00:00:00 | |
| DL1NUX | 2026-08-30 13:34:15 | 49.03900 | 10.77090 | 80° | 77km/h | 7557m | -3.4m/s | -23.6°C | 21.2% | 397.1hPa | 2.7V | 07:40:16 | 02:49:46 | 00:00:00 | |
| DK7TD | 2026-08-30 13:34:08 | 49.03893 | 10.77032 | 81° | 75km/h | 7564m | -3.5m/s | -23.8°C | 23.1% | 396.8hPa | 2.6V | 07:40:53 | 02:49:44 | 00:00:00 | |
| DL9SK-14 | 2026-08-30 13:34:07 | 49.03890 | 10.77004 | 80° | 75km/h | 7567m | -3.6m/s | -23.7°C | 19.4% | 396.6hPa | 2.7V | 00:00:00 | 00:00:00 | 00:00:00 | |
| DO9HM | 2026-08-30 13:34:06 | 49.03890 | 10.77004 | 82° | 77km/h | 7567m | -3.6m/s | -23.7°C | 19.4% | 396.6hPa | 2.7V | 07:40:00 | 00:00:00 | 00:00:00 | |
| DL1NUX | 2026-08-30 13:34:05 | 49.03870 | 10.76804 | 81° | 75km/h | 7592m | -3.5m/s | -23.9°C | 24.8% | 395.3hPa | 2.7V | 07:40:26 | 02:49:36 | 00:00:00 | |
| DK7TD | 2026-08-30 13:33:57 | 49.03861 | 10.76718 | 81° | 75km/h | 7603m | -3.6m/s | -24°C | 26.5% | 394.6hPa | 2.6V | 07:40:53 | 02:49:33 | 00:00:00 | |
| DN1GJH-1 | 2026-08-30 13:33:56 | 49.03861 | 10.76718 | 82° | 75km/h | 7603m | -3.6m/s | -24.0°C | 22.3% | 394.6hPa | 2.7V | 07:40:00 | 00:00:00 | 00:00:00 | |
| DL1NUX | 2026-08-30 13:33:55 | 49.03840 | 10.76517 | 81° | 75km/h | 7628m | -3.6m/s | -24.2°C | 25.5% | 393.3hPa | 2.7V | 07:40:36 | 02:49:26 | 00:00:00 | |
| DB0ND-19 | 2026-08-30 13:33:48 | 49.03831 | 10.76432 | 80° | 75km/h | 7639m | -3.5m/s | -24.3°C | 22.8% | 392.7hPa | 2.6V | 00:00:00 | 00:00:00 | 00:00:00 | |
| DF7PN | 2026-08-30 13:33:46 | 49.03828 | 10.76404 | 81° | 73km/h | 7642m | -3.5m/s | -24.4°C | 23.0% | 392.5hPa | 2.6V | 00:00:00 | 00:00:00 | 00:00:00 | |
| DK7TD | 2026-08-30 13:33:46 | 49.03828 | 10.76404 | 81° | 75km/h | 7642m | -3.5m/s | -24.4°C | 27.2% | 392.5hPa | 2.6V | 07:40:53 | 02:49:22 | 00:00:00 | |
| DK7TD | 2026-08-30 13:33:36 | 49.03800 | 10.76120 | 82° | 75km/h | 7678m | -3.6m/s | -24.7°C | 27.7% | 390.5hPa | 2.6V | 07:40:53 | 02:49:12 | 00:00:00 | |
| DJ8HS-15 | 2026-08-30 13:33:35 | 49.03797 | 10.76091 | 81° | 75km/h | 7681m | -3.5m/s | -24.7°C | 26.3% | 390.4hPa | 2.6V | 00:00:00 | 02:49:11 | 00:00:00 | |
| DO3MHA-11 | 2026-08-30 13:33:33 | 49.03792 | 10.76034 | 82° | 75km/h | 7688m | -3.5m/s | -24.7°C | 26.3% | 390.0hPa | 2.7V | 07:40:00 | 02:49:09 | 00:00:00 | |
| NBG1-10 | 2026-08-30 13:33:30 | 49.03783 | 10.75949 | 82° | 77km/h | 7699m | -3.5m/s | -24.8°C | 26.5% | 389.4hPa | 2.7V | 00:00:00 | 02:49:06 | 00:00:00 | |
| DM7RM-13 | 2026-08-30 13:33:27 | 49.03778 | 10.75893 | 83° | 73km/h | 7706m | -3.5m/s | -25.0°C | 23.9% | 389.1hPa | 2.6V | 07:41:00 | 00:00:00 | 00:00:00 | |
| DL1NUX | 2026-08-30 13:33:26 | 49.03758 | 10.75694 | 81° | 77km/h | 7730m | -3.8m/s | -25.2°C | 27.4% | 387.8hPa | 2.6V | 07:41:05 | 02:48:57 | 00:00:00 | |
| DK7TD | 2026-08-30 13:33:25 | 49.03769 | 10.75808 | 82° | 75km/h | 7716m | -3.6m/s | -25.1°C | 28.2% | 388.5hPa | 2.6V | 07:41:44 | 02:49:01 | 00:00:00 | |
| DO9HM | 2026-08-30 13:33:25 | 49.03769 | 10.75808 | 83° | 75km/h | 7716m | -3.6m/s | -25.1°C | 24.0% | 388.5hPa | 2.6V | 00:00:00 | 00:00:00 | 00:00:00 | |
| DO3MHA-11 | 2026-08-30 13:33:23 | 49.03764 | 10.75751 | 82° | 75km/h | 7723m | -3.5m/s | -25.1°C | 27.1% | 388.1hPa | 2.6V | 00:00:00 | 02:48:59 | 00:00:00 | |
| DL1ZP-14 | 2026-08-30 13:33:22 | 49.03761 | 10.75722 | 82° | 75km/h | 7727m | -3.6m/s | -25.2°C | 24.4% | 387.9hPa | 2.6V | 00:00:00 | 00:00:00 | 00:00:00 | |
| DK5PH-5 | 2026-08-30 13:33:20 | 49.03756 | 10.75665 | 82° | 77km/h | 7734m | -3.6m/s | -25.2°C | 27.5% | 387.5hPa | 2.6V | 00:00:00 | 02:48:56 | 00:00:00 | |
| DB0UT-7 | 2026-08-30 13:33:17 | 49.03747 | 10.75579 | 81° | 77km/h | 7745m | -3.5m/s | -25.3°C | 27.8% | 387.0hPa | 2.6V | 00:00:00 | 02:48:53 | 00:00:00 | |
| DL1NUX | 2026-08-30 13:33:16 | 49.03727 | 10.75406 | 80° | 77km/h | 7766m | -3.6m/s | -25.6°C | 27.9% | 385.8hPa | 2.6V | 07:41:15 | 02:48:47 | 00:00:00 | |
| DK7TD | 2026-08-30 13:33:14 | 49.03737 | 10.75493 | 80° | 75km/h | 7755m | -3.7m/s | -25.5°C | 29.3% | 386.4hPa | 2.6V | 07:41:44 | 02:48:50 | 00:00:00 | |
| DO3MHA-11 | 2026-08-30 13:33:13 | 49.03734 | 10.75464 | 81° | 77km/h | 7759m | -3.6m/s | -25.4°C | 27.9% | 386.2hPa | 2.6V | 00:00:00 | 02:48:49 | 00:00:00 | |
| DL0LBS | 2026-08-30 13:33:12 | 49.03734 | 10.75464 | 82° | 77km/h | 7759m | -3.6m/s | -25.5°C | 24.8% | 386.2hPa | 2.6V | 07:41:00 | 00:00:00 | 00:00:00 | |
| DL1NUX | 2026-08-30 13:33:06 | 49.03698 | 10.75113 | 81° | 77km/h | 7802m | -3.6m/s | -25.8°C | 25.1% | 383.9hPa | 2.6V | 07:41:25 | 02:48:37 | 00:00:00 | |
| DK7TD | 2026-08-30 13:33:03 | 49.03704 | 10.75171 | 81° | 77km/h | 7795m | -3.5m/s | -25.8°C | 26.9% | 384.3hPa | 2.6V | 07:41:44 | 02:48:39 | 00:00:00 | |
| SO1NDE-10 | 2026-08-30 13:33:00 | 49.03695 | 10.75084 | 82° | 78km/h | 7806m | -3.7m/s | -25.9°C | 24.6% | 383.7hPa | 2.6V | 00:00:00 | 02:48:36 | 00:00:00 | |
| NBG1-10 | 2026-08-30 13:32:57 | 49.03687 | 10.74996 | 83° | 78km/h | 7817m | -3.7m/s | -25.9°C | 25.6% | 383.2hPa | 2.6V | 00:00:00 | 02:48:33 | 00:00:00 | |
| DL1NUX | 2026-08-30 13:32:56 | 49.03671 | 10.74818 | 82° | 78km/h | 7838m | -3.6m/s | -26.1°C | 26.4% | 382.1hPa | 2.6V | 07:41:35 | 02:48:27 | 00:00:00 | |
| DK7TD | 2026-08-30 13:32:52 | 49.03674 | 10.74848 | 82° | 78km/h | 7835m | -3.5m/s | -26.1°C | 28% | 382.3hPa | 2.6V | 07:41:44 | 02:48:28 | 00:00:00 | |
| DL1ZP-14 | 2026-08-30 13:32:51 | 49.03661 | 10.74697 | 82° | 78km/h | 7852m | -3.5m/s | -26.3°C | 23.5% | 381.3hPa | 2.6V | 00:00:00 | 00:00:00 | 00:00:00 | |
| DF7PN | 2026-08-30 13:32:44 | 49.03653 | 10.74608 | 82° | 77km/h | 7863m | -3.3m/s | -26.3°C | 23.8% | 380.8hPa | 2.6V | 00:00:00 | 00:00:00 | 00:00:00 | |
| DK7TD | 2026-08-30 13:32:42 | 49.03648 | 10.74549 | 83° | 77km/h | 7870m | -3.4m/s | -26.5°C | 28.1% | 380.4hPa | 2.6V | 07:41:44 | 02:48:18 | 00:00:00 | |
| DL1NUX | 2026-08-30 13:32:40 | 49.03633 | 10.74339 | 84° | 80km/h | 7894m | -3.5m/s | -26.6°C | 27.2% | 379.2hPa | 2.6V | 07:41:51 | 02:48:11 | 00:00:00 | |
| DK7TD | 2026-08-30 13:32:32 | 49.03627 | 10.74246 | 84° | 82km/h | 7904m | -3.5m/s | -26.7°C | 28.7% | 378.6hPa | 2.6V | 07:42:35 | 02:48:08 | 00:00:00 | |
| DL0LBS | 2026-08-30 13:32:31 | 49.03627 | 10.74246 | 85° | 82km/h | 7904m | -3.5m/s | -26.7°C | 24.1% | 378.6hPa | 2.6V | 00:00:00 | 00:00:00 | 00:00:00 | |
| DL1NUX | 2026-08-30 13:32:30 | 49.03611 | 10.74027 | 83° | 80km/h | 7928m | -3.2m/s | -26.9°C | 27.5% | 377.4hPa | 2.6V | 07:42:01 | 02:48:01 | 00:00:00 | |
| DK7TD | 2026-08-30 13:32:21 | 49.03602 | 10.73902 | 84° | 82km/h | 7941m | -3.6m/s | -27°C | 28.8% | 376.6hPa | 2.6V | 07:42:35 | 02:47:57 | 00:00:00 | |
| DO9HM | 2026-08-30 13:32:21 | 49.03601 | 10.73901 | 85° | 82km/h | 7941m | -3.6m/s | -27.0°C | 24.3% | 376.6hPa | 2.6V | 07:42:00 | 00:00:00 | 00:00:00 | |
| DL1NUX | 2026-08-30 13:32:20 | 49.03590 | 10.73711 | 84° | 84km/h | 7962m | -3.5m/s | -27.1°C | 26.2% | 375.5hPa | 2.6V | 07:42:11 | 02:47:51 | 00:00:00 | |
| DK7TD | 2026-08-30 13:32:11 | 49.03582 | 10.73581 | 84° | 84km/h | 7975m | -3.3m/s | -27.2°C | 26.4% | 374.8hPa | 2.6V | 07:42:35 | 02:47:47 | 00:00:00 | |
| DL1NUX | 2026-08-30 13:32:10 | 49.03568 | 10.73388 | 84° | 82km/h | 7995m | -3.3m/s | -27.3°C | 24.1% | 373.8hPa | 2.6V | 07:42:21 | 02:47:41 | 00:00:00 | |
| DK7TD | 2026-08-30 13:32:01 | 49.03559 | 10.73260 | 84° | 84km/h | 8009m | -3.3m/s | -27.3°C | 23.9% | 373.1hPa | 2.6V | 07:42:35 | 02:47:37 | 00:00:00 | |
| DL1NUX | 2026-08-30 13:32:00 | 49.03547 | 10.73070 | 84° | 82km/h | 8029m | -3.5m/s | -27.4°C | 20.2% | 372.1hPa | 2.6V | 07:42:31 | 02:47:31 | 00:00:00 | |
| DK7TD | 2026-08-30 13:31:50 | 49.03536 | 10.72912 | 84° | 82km/h | 8046m | -3.3m/s | -27.5°C | 18.6% | 371.3hPa | 2.6V | 07:43:26 | 02:47:26 | 00:00:00 | |
| DL1ZP-14 | 2026-08-30 13:31:49 | 49.03533 | 10.72881 | 83° | 80km/h | 8049m | -3.2m/s | -27.4°C | 14.8% | 371.1hPa | 2.6V | 00:00:00 | 00:00:00 | 00:00:00 | |
| DK7TD | 2026-08-30 13:31:40 | 49.03516 | 10.72598 | 84° | 82km/h | 8079m | -3.3m/s | -27.7°C | 19.2% | 369.4hPa | 2.6V | 07:43:26 | 02:47:16 | 00:00:00 | |
| DK7TD | 2026-08-30 13:31:29 | 49.03492 | 10.72242 | 83° | 86km/h | 8116m | -3.4m/s | -28°C | 21% | 367.6hPa | 2.6V | 07:43:26 | 02:47:05 | 00:00:00 | |
| DL1NUX | 2026-08-30 13:31:29 | 49.03479 | 10.72079 | 82° | 86km/h | 8133m | -3.4m/s | -28°C | 18.6% | 366.7hPa | 2.6V | 07:43:02 | 02:47:00 | 00:00:00 | |
| DK7TD | 2026-08-30 13:31:18 | 49.03462 | 10.71885 | 82° | 86km/h | 8153m | -3.5m/s | -28.2°C | 18.3% | 365.7hPa | 2.6V | 07:43:26 | 02:46:54 | 00:00:00 | |
| NBG1-10 | 2026-08-30 13:31:18 | 49.03462 | 10.71885 | 83° | 84km/h | 8153m | -3.5m/s | -28.1°C | 17.3% | 365.6hPa | 2.6V | 00:00:00 | 02:46:54 | 00:00:00 | |
| DL1NUX | 2026-08-30 13:31:14 | 49.03437 | 10.71593 | 82° | 86km/h | 8185m | -3.4m/s | -28.1°C | 15.4% | 364hPa | 2.6V | 07:43:17 | 02:46:45 | 00:00:00 | |
| DK7TD | 2026-08-30 13:31:07 | 49.03431 | 10.71528 | 82° | 86km/h | 8192m | -3.5m/s | -28.1°C | 15.8% | 363.8hPa | 2.6V | 07:43:26 | 02:46:43 | 00:00:00 | |
| DL1NUX | 2026-08-30 13:31:04 | 49.03409 | 10.71271 | 83° | 84km/h | 8219m | -3.4m/s | -28.1°C | 19.7% | 362.3hPa | 2.5V | 07:43:27 | 02:46:35 | 00:00:00 | |
| DK7TD | 2026-08-30 13:30:57 | 49.03403 | 10.71207 | 83° | 84km/h | 8226m | -3.5m/s | -28.3°C | 21.4% | 362hPa | 2.6V | 07:44:17 | 02:46:33 | 00:00:00 | |
| DJ8HS-15 | 2026-08-30 13:30:55 | 49.03398 | 10.71142 | 83° | 84km/h | 8233m | -3.4m/s | -28.1°C | 20.2% | 361.6hPa | 2.6V | 00:00:00 | 02:46:31 | 00:00:00 | |
| DL1NUX | 2026-08-30 13:30:54 | 49.03382 | 10.70949 | 81° | 84km/h | 8253m | -3.5m/s | -28.4°C | 20.1% | 360.6hPa | 2.6V | 07:43:37 | 02:46:25 | 00:00:00 | |
| DK7TD | 2026-08-30 13:30:46 | 49.03374 | 10.70853 | 82° | 82km/h | 8263m | -3.5m/s | -28.5°C | 21.2% | 360.1hPa | 2.6V | 07:44:17 | 02:46:22 | 00:00:00 | |
| DL1NUX | 2026-08-30 13:30:44 | 49.03354 | 10.70629 | 82° | 86km/h | 8287m | -3.4m/s | -28.8°C | 19.5% | 358.9hPa | 2.6V | 07:43:47 | 02:46:15 | 00:00:00 | |
| DK7TD | 2026-08-30 13:30:35 | 49.03341 | 10.70498 | 81° | 86km/h | 8301m | -3.5m/s | -28.9°C | 20.8% | 358.2hPa | 2.6V | 07:44:17 | 02:46:11 | 00:00:00 | |
| DK7TD | 2026-08-30 13:30:24 | 49.03305 | 10.70140 | 81° | 86km/h | 8339m | -3.4m/s | -29.2°C | 21.4% | 356.3hPa | 2.6V | 07:44:17 | 02:46:00 | 00:00:00 | |
| DL1NUX | 2026-08-30 13:30:24 | 49.03288 | 10.69975 | 80° | 88km/h | 8356m | -3.3m/s | -29.3°C | 20.4% | 355.5hPa | 2.6V | 07:44:07 | 02:45:55 | 00:00:00 | |
| DO3MHA-11 | 2026-08-30 13:30:23 | 49.03301 | 10.70107 | 82° | 88km/h | 8343m | -3.3m/s | -29.2°C | 20.2% | 356.1hPa | 2.6V | 00:00:00 | 02:45:59 | 00:00:00 | |
| DK5PH-5 | 2026-08-30 13:30:20 | 49.03291 | 10.70008 | 82° | 89km/h | 8353m | -3.5m/s | -29.3°C | 20.4% | 355.5hPa | 2.6V | 00:00:00 | 02:45:56 | 00:00:00 | |
| DO9HM | 2026-08-30 13:30:17 | 49.03280 | 10.69908 | 83° | 88km/h | 8363m | -3.5m/s | -29.4°C | 17.7% | 355.1hPa | 2.6V | 07:44:00 | 00:00:00 | 00:00:00 | |
| DL1ZP-14 | 2026-08-30 13:30:16 | 49.03277 | 10.69874 | 81° | 88km/h | 8366m | -3.4m/s | -29.5°C | 17.6% | 354.9hPa | 2.6V | 00:00:00 | 00:00:00 | 00:00:00 | |
| DJ8HS-15 | 2026-08-30 13:30:15 | 49.03274 | 10.69841 | 82° | 89km/h | 8370m | -3.2m/s | -29.4°C | 20.3% | 354.7hPa | 2.6V | 07:44:00 | 02:45:51 | 00:00:00 | |
| DL1NUX | 2026-08-30 13:30:14 | 49.03254 | 10.69638 | 81° | 89km/h | 8391m | -3.5m/s | -29.6°C | 18.9% | 353.8hPa | 2.6V | 07:44:17 | 02:45:45 | 00:00:00 | |
| DK7TD | 2026-08-30 13:30:13 | 49.03267 | 10.69774 | 81° | 89km/h | 8377m | -3.6m/s | -29.5°C | 20.7% | 354.4hPa | 2.6V | 07:44:17 | 02:45:49 | 00:00:00 | |
| DO3MHA-11 | 2026-08-30 13:30:13 | 49.03267 | 10.69773 | 82° | 89km/h | 8377m | -3.5m/s | -29.5°C | 19.4% | 354.3hPa | 2.6V | 00:00:00 | 02:45:49 | 00:00:00 | |
| NBG1-10 | 2026-08-30 13:30:12 | 49.03264 | 10.69740 | 82° | 89km/h | 8380m | -3.6m/s | -29.5°C | 19.1% | 354.2hPa | 2.6V | 00:00:00 | 02:45:48 | 00:00:00 | |
| DB0ND-19 | 2026-08-30 13:30:10 | 49.03257 | 10.69672 | 80° | 88km/h | 8387m | -3.4m/s | -29.6°C | 16.2% | 353.9hPa | 2.6V | 00:00:00 | 00:00:00 | 00:00:00 | |
| DF7PN | 2026-08-30 13:30:09 | 49.03250 | 10.69604 | 81° | 89km/h | 8394m | -3.5m/s | -29.6°C | 16.1% | 353.6hPa | 2.6V | 00:00:00 | 00:00:00 | 00:00:00 | |
| DB0UT-7 | 2026-08-30 13:30:08 | 49.03250 | 10.69604 | 82° | 88km/h | 8394m | -3.4m/s | -29.6°C | 18.8% | 353.5hPa | 2.6V | 07:44:00 | 02:45:44 | 00:00:00 | |
| DL0LBS | 2026-08-30 13:30:06 | 49.03247 | 10.69570 | 81° | 89km/h | 8398m | -3.4m/s | -29.7°C | 16.3% | 353.4hPa | 2.5V | 07:45:00 | 00:00:00 | 00:00:00 | |
| DL1NUX | 2026-08-30 13:30:04 | 49.03217 | 10.69298 | 80° | 89km/h | 8425m | -3.5m/s | -29.9°C | 27.1% | 352hPa | 2.5V | 07:44:27 | 02:45:35 | 00:00:00 | |
| DK7TD | 2026-08-30 13:30:02 | 49.03228 | 10.69399 | 80° | 89km/h | 8415m | -3.5m/s | -29.8°C | 22.2% | 352.5hPa | 2.6V | 07:45:08 | 02:45:38 | 00:00:00 | |
| DL6DJ-15 | 2026-08-30 13:30:00 | 49.03217 | 10.69298 | 80° | 88km/h | 8425m | -3.5m/s | -29.9°C | 23.6% | 352.0hPa | 2.6V | 00:00:00 | 00:00:00 | 00:00:00 | |
| SO1NDE-10 | 2026-08-30 13:29:59 | 49.03217 | 10.69298 | 81° | 89km/h | 8426m | -3.4m/s | -29.8°C | 27.1% | 351.9hPa | 2.6V | 07:44:00 | 02:45:35 | 00:00:00 | |
| DJ8HS-15 | 2026-08-30 13:29:55 | 49.03203 | 10.69164 | 82° | 89km/h | 8439m | -3.2m/s | -29.9°C | 39.3% | 351.3hPa | 2.6V | 00:00:00 | 02:45:31 | 00:00:00 | |
| DL1NUX | 2026-08-30 13:29:53 | 49.03180 | 10.68925 | 80° | 91km/h | 8462m | -3.4m/s | -30.2°C | 47.4% | 350.2hPa | 2.6V | 07:44:38 | 02:45:24 | 00:00:00 | |
| DK7TD | 2026-08-30 13:29:52 | 49.03193 | 10.69063 | 82° | 89km/h | 8448m | -3.3m/s | -30.1°C | 42% | 350.9hPa | 2.5V | 07:45:08 | 02:45:28 | 00:00:00 | |
| DL1ZP-14 | 2026-08-30 13:29:45 | 49.03164 | 10.68789 | 79° | 88km/h | 8475m | -3.2m/s | -30.3°C | 43.7% | 349.6hPa | 2.6V | 00:00:00 | 00:00:00 | 00:00:00 | |
| DL1NUX | 2026-08-30 13:29:43 | 49.03142 | 10.68588 | 80° | 86km/h | 8495m | -3.5m/s | -30.5°C | 51.9% | 348.5hPa | 2.6V | 07:44:48 | 02:45:14 | 00:00:00 | |
| DK7TD | 2026-08-30 13:29:41 | 49.03153 | 10.68688 | 80° | 88km/h | 8485m | -3.4m/s | -30.5°C | 49.8% | 349hPa | 2.5V | 07:45:08 | 02:45:17 | 00:00:00 | |
| DK7TD | 2026-08-30 13:29:31 | 49.03117 | 10.68355 | 80° | 89km/h | 8520m | -3.2m/s | -30.8°C | 53.7% | 347.3hPa | 2.6V | 07:45:08 | 02:45:07 | 00:00:00 | |
| DL6DJ-15 | 2026-08-30 13:29:29 | 49.03106 | 10.68254 | 80° | 88km/h | 8530m | -3.3m/s | -30.8°C | 48.2% | 346.9hPa | 2.6V | 00:00:00 | 00:00:00 | 00:00:00 | |
| DL9SK-14 | 2026-08-30 13:29:28 | 49.03102 | 10.68220 | 79° | 88km/h | 8533m | -3.3m/s | -30.9°C | 48.9% | 346.7hPa | 2.6V | 00:00:00 | 00:00:00 | 00:00:00 | |
| DL1NUX | 2026-08-30 13:29:27 | 49.03083 | 10.68053 | 79° | 88km/h | 8550m | -3.3m/s | -31°C | 55.7% | 345.9hPa | 2.6V | 07:45:04 | 02:44:58 | 00:00:00 | |
| DK7TD | 2026-08-30 13:29:21 | 49.03079 | 10.68020 | 80° | 88km/h | 8553m | -3.4m/s | -31.1°C | 54.5% | 345.7hPa | 2.6V | 07:45:08 | 02:44:57 | 00:00:00 | |
| DK5PH-5 | 2026-08-30 13:29:20 | 49.03075 | 10.67987 | 81° | 86km/h | 8557m | -3.5m/s | -31.1°C | 55.8% | 345.5hPa | 2.5V | 00:00:00 | 02:44:56 | 00:00:00 | |
| DM7RM-13 | 2026-08-30 13:29:17 | 49.03068 | 10.67921 | 81° | 88km/h | 8564m | -3.4m/s | -31.2°C | 49.2% | 345.2hPa | 2.5V | 07:45:00 | 00:00:00 | 00:00:00 | |
| DL1NUX | 2026-08-30 13:29:16 | 49.03041 | 10.67689 | 79° | 88km/h | 8587m | -3.4m/s | -31.4°C | 56.1% | 344hPa | 2.5V | 07:45:15 | 02:44:47 | 00:00:00 | |
| DK7TD | 2026-08-30 13:29:10 | 49.03037 | 10.67656 | 80° | 86km/h | 8590m | -3.3m/s | -31.4°C | 54.5% | 343.9hPa | 2.6V | 07:45:59 | 02:44:46 | 00:00:00 | |
| DN1GJH-1 | 2026-08-30 13:29:08 | 49.03033 | 10.67624 | 81° | 86km/h | 8594m | -3.3m/s | -31.5°C | 50.2% | 343.7hPa | 2.6V | 07:45:00 | 00:00:00 | 00:00:00 | |
| DF7PN | 2026-08-30 13:29:07 | 49.03022 | 10.67526 | 80° | 84km/h | 8604m | -3.4m/s | -31.5°C | 50.5% | 343.2hPa | 2.6V | 00:00:00 | 00:00:00 | 00:00:00 | |
| DL1NUX | 2026-08-30 13:29:06 | 49.03005 | 10.67365 | 81° | 84km/h | 8621m | -3.4m/s | -31.7°C | 60.1% | 342.4hPa | 2.6V | 07:45:25 | 02:44:37 | 00:00:00 | |
| NBG1-10 | 2026-08-30 13:29:06 | 49.03022 | 10.67526 | 81° | 86km/h | 8604m | -3.4m/s | -31.5°C | 56.9% | 343.2hPa | 2.6V | 00:00:00 | 02:44:42 | 00:00:00 | |
| DL0LBS | 2026-08-30 13:29:05 | 49.03022 | 10.67526 | 81° | 86km/h | 8604m | -3.4m/s | -31.5°C | 50.5% | 343.2hPa | 2.6V | 00:00:00 | 00:00:00 | 00:00:00 | |
| DM0DOS-11 | 2026-08-30 13:29:03 | 49.03008 | 10.67397 | 80° | 84km/h | 8617m | -3.5m/s | -31.7°C | 60.2% | 342.5hPa | 2.6V | 07:45:24 | 02:44:38 | 00:00:00 | |
| DK7TD | 2026-08-30 13:29:00 | 49.03002 | 10.67333 | 81° | 86km/h | 8624m | -3.4m/s | -31.8°C | 58% | 342.2hPa | 2.5V | 07:45:59 | 02:44:36 | 00:00:00 | |
| DL6DJ-15 | 2026-08-30 13:28:58 | 49.02991 | 10.67236 | 79° | 86km/h | 8634m | -3.3m/s | -31.9°C | 56.1% | 341.8hPa | 2.6V | 00:00:00 | 00:00:00 | 00:00:00 | |
| DL9SK-14 | 2026-08-30 13:28:57 | 49.02987 | 10.67204 | 79° | 84km/h | 8638m | -3.5m/s | -31.8°C | 56.2% | 341.6hPa | 2.6V | 00:00:00 | 00:00:00 | 00:00:00 | |
| DL1NUX | 2026-08-30 13:28:55 | 49.02964 | 10.67008 | 80° | 86km/h | 8658m | -3.4m/s | -31.9°C | 68.7% | 340.6hPa | 2.6V | 07:45:36 | 02:44:26 | 00:00:00 | |
| DK7TD | 2026-08-30 13:28:49 | 49.02960 | 10.66975 | 81° | 88km/h | 8661m | -3.5m/s | -32°C | 64.9% | 340.5hPa | 2.5V | 07:45:59 | 02:44:25 | 00:00:00 | |
| DJ8HS-15 | 2026-08-30 13:28:49 | 49.02960 | 10.66975 | 81° | 88km/h | 8662m | -3.5m/s | -31.9°C | 68.5% | 340.4hPa | 2.5V | 00:00:00 | 02:44:25 | 00:00:00 | |
| DN1GJH-1 | 2026-08-30 13:28:47 | 49.02956 | 10.66942 | 81° | 86km/h | 8665m | -3.3m/s | -32.0°C | 60.7% | 340.3hPa | 2.5V | 07:45:00 | 00:00:00 | 00:00:00 | |
| DL1NUX | 2026-08-30 13:28:45 | 49.02927 | 10.66677 | 79° | 88km/h | 8691m | -3.3m/s | -32.2°C | 67.8% | 339.1hPa | 2.5V | 07:45:46 | 02:44:16 | 00:00:00 | |
| DK7TD | 2026-08-30 13:28:38 | 49.02920 | 10.66610 | 80° | 89km/h | 8697m | -3.3m/s | -32.3°C | 66.5% | 338.8hPa | 2.6V | 07:45:59 | 02:44:14 | 00:00:00 | |
| DK7TD | 2026-08-30 13:28:27 | 49.02877 | 10.66244 | 80° | 89km/h | 8732m | -3.3m/s | -32.6°C | 73.3% | 337.2hPa | 2.5V | 07:45:59 | 02:44:03 | 00:00:00 | |
| DL6DJ-15 | 2026-08-30 13:28:27 | 49.02873 | 10.66210 | 79° | 88km/h | 8735m | -3.1m/s | -32.6°C | 70.5% | 337.0hPa | 2.5V | 00:00:00 | 00:00:00 | 00:00:00 | |
| DL9SK-14 | 2026-08-30 13:28:26 | 49.02869 | 10.66176 | 79° | 89km/h | 8738m | -3.1m/s | -32.6°C | 70.7% | 336.8hPa | 2.5V | 00:00:00 | 00:00:00 | 00:00:00 | |
| DL1NUX | 2026-08-30 13:28:25 | 49.02848 | 10.66003 | 79° | 93km/h | 8754m | -3.1m/s | -32.7°C | 80.3% | 336.1hPa | 2.5V | 07:46:06 | 02:43:56 | 00:00:00 | |
| DK7TD | 2026-08-30 13:28:17 | 49.02836 | 10.65898 | 80° | 93km/h | 8763m | -3.2m/s | -32.8°C | 75.5% | 335.6hPa | 2.6V | 07:46:50 | 02:43:53 | 00:00:00 | |
| BIOWL1-15 | 2026-08-30 13:28:15 | 49.02824 | 10.65792 | 80° | 91km/h | 8773m | -3.1m/s | 0°C | 0% | 0hPa | 2.5V | 18:12:15 | 02:43:50 | 00:00:00 | |
| DL1NUX | 2026-08-30 13:28:13 | 49.02800 | 10.65586 | 80° | 89km/h | 8792m | -3.4m/s | -32.9°C | 81.3% | 334.2hPa | 2.5V | 07:46:18 | 02:43:44 | 00:00:00 | |
| DK7TD | 2026-08-30 13:28:06 | 49.02792 | 10.65517 | 79° | 91km/h | 8798m | -3.2m/s | -32.9°C | 75.4% | 333.9hPa | 2.5V | 07:46:50 | 02:43:42 | 00:00:00 | |
| DF7PN | 2026-08-30 13:28:04 | 49.02784 | 10.65447 | 80° | 93km/h | 8804m | -3.1m/s | -33.0°C | 71.9% | 333.7hPa | 2.5V | 00:00:00 | 00:00:00 | 00:00:00 | |
| DM0DOS-11 | 2026-08-30 13:28:03 | 49.02760 | 10.65234 | 79° | 95km/h | 8823m | -3.2m/s | -33.1°C | 81.4% | 332.7hPa | 2.5V | 07:46:28 | 02:43:34 | 00:00:00 | |
| DO3MHA-11 | 2026-08-30 13:28:03 | 49.02780 | 10.65411 | 80° | 93km/h | 8808m | -3.2m/s | -32.9°C | 80.8% | 333.4hPa | 2.5V | 00:00:00 | 02:43:39 | 00:00:00 | |
| NBG1-10 | 2026-08-30 13:28:00 | 49.02768 | 10.65305 | 81° | 95km/h | 8817m | -3.2m/s | -33.0°C | 81.2% | 333.0hPa | 2.5V | 00:00:00 | 02:43:36 | 00:00:00 | |
| DL1NUX | 2026-08-30 13:27:58 | 49.02740 | 10.65056 | 80° | 93km/h | 8839m | -3.1m/s | -33.2°C | 81.6% | 332.1hPa | 2.5V | 07:46:33 | 02:43:29 | 00:00:00 | |
| DK7TD | 2026-08-30 13:27:55 | 49.02748 | 10.65127 | 80° | 95km/h | 8833m | -3.2m/s | -33.1°C | 75.9% | 332.2hPa | 2.6V | 07:46:50 | 02:43:31 | 00:00:00 | |
| DL9SK-14 | 2026-08-30 13:27:55 | 49.02744 | 10.65091 | 80° | 91km/h | 8836m | -3.0m/s | -33.2°C | 72.6% | 332.2hPa | 2.6V | 00:00:00 | 00:00:00 | 00:00:00 | |
| DO3MHA-11 | 2026-08-30 13:27:53 | 49.02740 | 10.65056 | 81° | 95km/h | 8839m | -3.0m/s | -33.1°C | 81.6% | 332.0hPa | 2.6V | 00:00:00 | 02:43:29 | 00:00:00 | |
| DK5PH-5 | 2026-08-30 13:27:50 | 49.02728 | 10.64949 | 81° | 93km/h | 8848m | -2.9m/s | -33.2°C | 81.7% | 331.5hPa | 2.6V | 00:00:00 | 02:43:26 | 00:00:00 | |
| DJ8HS-15 | 2026-08-30 13:27:49 | 49.02724 | 10.64913 | 81° | 95km/h | 8851m | -3.1m/s | -33.2°C | 81.6% | 331.4hPa | 2.6V | 00:00:00 | 02:43:25 | 00:00:00 | |
| OE3JTB-15 | 2026-08-30 13:27:48 | 49.02720 | 10.64877 | 82° | 93km/h | 8854m | -3.1m/s | 0°C | 0% | 0hPa | 2.6V | 07:46:00 | 00:00:00 | 00:00:00 | |
| DL1NUX | 2026-08-30 13:27:46 | 49.02694 | 10.64624 | 80° | 97km/h | 8876m | -3.1m/s | -33.5°C | 81.6% | 330.2hPa | 2.6V | 07:46:45 | 02:43:17 | 00:00:00 | |
| DK7TD | 2026-08-30 13:27:45 | 49.02709 | 10.64769 | 81° | 95km/h | 8864m | -3.3m/s | -33.4°C | 75.4% | 330.8hPa | 2.6V | 07:46:50 | 02:43:21 | 00:00:00 | |
| DO3MHA-11 | 2026-08-30 13:27:43 | 49.02702 | 10.64697 | 81° | 95km/h | 8870m | -3.1m/s | -33.4°C | 81.2% | 330.5hPa | 2.5V | 00:00:00 | 02:43:19 | 00:00:00 | |
| DL1ZP-14 | 2026-08-30 13:27:41 | 49.02687 | 10.64551 | 80° | 95km/h | 8882m | -3.0m/s | -33.5°C | 72.2% | 329.9hPa | 2.6V | 00:00:00 | 00:00:00 | 00:00:00 | |
| DB0UT-7 | 2026-08-30 13:27:39 | 49.02687 | 10.64551 | 81° | 91km/h | 8882m | -2.9m/s | -33.5°C | 81.4% | 329.8hPa | 2.5V | 00:00:00 | 02:43:15 | 00:00:00 | |
| DM0DOS-11 | 2026-08-30 13:27:38 | 49.02676 | 10.64442 | 81° | 95km/h | 8891m | -3.1m/s | -33.7°C | 81.8% | 329.5hPa | 2.5V | 07:46:50 | 02:43:12 | 00:00:00 | |
| DK7TD | 2026-08-30 13:27:35 | 49.02672 | 10.64406 | 81° | 95km/h | 8894m | -3.2m/s | -33.7°C | 74.9% | 329.4hPa | 2.6V | 07:47:41 | 02:43:11 | 00:00:00 | |
| DF1GD-15 | 2026-08-30 13:27:34 | 49.02672 | 10.64406 | 82° | 95km/h | 8894m | -3.2m/s | -33.7°C | 72.4% | 329.4hPa | 2.6V | 00:00:00 | 00:00:00 | 00:00:00 | |
| DO3MHA-11 | 2026-08-30 13:27:33 | 49.02665 | 10.64335 | 82° | 93km/h | 8900m | -3.1m/s | -33.7°C | 81.7% | 329.1hPa | 2.6V | 00:00:00 | 02:43:09 | 00:00:00 | |
| DM0DOS-11 | 2026-08-30 13:27:28 | 49.02639 | 10.64054 | 82° | 91km/h | 8925m | -3.3m/s | -33.8°C | 82% | 327.9hPa | 2.6V | 07:47:01 | 02:43:01 | 00:00:00 | |
| DJ8HS-15 | 2026-08-30 13:27:28 | 49.02649 | 10.64158 | 84° | 91km/h | 8916m | -3.2m/s | -33.7°C | 81.9% | 328.4hPa | 2.5V | 07:46:00 | 02:43:04 | 00:00:00 | |
| NBG1-10 | 2026-08-30 13:27:27 | 49.02646 | 10.64123 | 83° | 89km/h | 8919m | -3.0m/s | -33.7°C | 81.7% | 328.1hPa | 2.5V | 07:46:00 | 02:43:03 | 00:00:00 | |
| DL1NUX | 2026-08-30 13:27:26 | 49.02628 | 10.63915 | 82° | 91km/h | 8938m | -3.2m/s | -33.9°C | 82% | 327.3hPa | 2.5V | 07:47:05 | 02:42:57 | 00:00:00 | |
| DK7TD | 2026-08-30 13:27:24 | 49.02636 | 10.64019 | 82° | 91km/h | 8929m | -3.2m/s | -33.8°C | 75.5% | 327.8hPa | 2.6V | 07:47:41 | 02:43:00 | 00:00:00 | |
| DL9SK-14 | 2026-08-30 13:27:24 | 49.02633 | 10.63984 | 82° | 89km/h | 8932m | -3.4m/s | -33.8°C | 72.6% | 327.6hPa | 2.5V | 00:00:00 | 00:00:00 | 00:00:00 | |
| DO3MHA-11 | 2026-08-30 13:27:23 | 49.02633 | 10.63984 | 83° | 91km/h | 8932m | -3.3m/s | -33.8°C | 81.9% | 327.6hPa | 2.5V | 00:00:00 | 02:42:59 | 00:00:00 | |
| SO1NDE-10 | 2026-08-30 13:27:21 | 49.02627 | 10.63915 | 83° | 89km/h | 8938m | -3.1m/s | -33.8°C | 82.0% | 327.3hPa | 2.5V | 00:00:00 | 02:42:57 | 00:00:00 | |
| DK5PH-5 | 2026-08-30 13:27:20 | 49.02624 | 10.63880 | 84° | 89km/h | 8942m | -3.3m/s | -33.8°C | 82.3% | 327.2hPa | 2.6V | 00:00:00 | 02:42:56 | 00:00:00 | |
| DL1NUX | 2026-08-30 13:27:16 | 49.02599 | 10.63570 | 82° | 89km/h | 8970m | -3.2m/s | -33.8°C | 82% | 325.8hPa | 2.6V | 07:47:15 | 02:42:47 | 00:00:00 | |
| DM7RM-13 | 2026-08-30 13:27:14 | 49.02610 | 10.63708 | 84° | 89km/h | 8957m | -3.3m/s | -33.8°C | 72.9% | 326.5hPa | 2.6V | 07:47:00 | 00:00:00 | 00:00:00 | |
| DM0DOS-11 | 2026-08-30 13:27:13 | 49.02597 | 10.63536 | 82° | 89km/h | 8973m | -3.2m/s | -33.8°C | 82.1% | 325.6hPa | 2.6V | 07:47:16 | 02:42:46 | 00:00:00 | |
| DK7TD | 2026-08-30 13:27:13 | 49.02605 | 10.63639 | 83° | 89km/h | 8964m | -3.3m/s | -33.8°C | 75.9% | 326.1hPa | 2.5V | 07:47:41 | 02:42:49 | 00:00:00 | |
| DK7TD | 2026-08-30 13:27:02 | 49.02573 | 10.63265 | 83° | 89km/h | 8999m | -3.3m/s | -34°C | 77.1% | 324.5hPa | 2.5V | 07:47:41 | 02:42:38 | 00:00:00 | |
| DK7TD | 2026-08-30 13:26:52 | 49.02548 | 10.62924 | 84° | 89km/h | 9032m | -3.4m/s | -34.2°C | 77.6% | 323.1hPa | 2.5V | 07:47:41 | 02:42:28 | 00:00:00 | |
| DK5PH-5 | 2026-08-30 13:26:50 | 49.02542 | 10.62855 | 83° | 91km/h | 9038m | -3.2m/s | -34.2°C | 83.2% | 322.6hPa | 2.5V | 07:47:00 | 02:42:26 | 00:00:00 | |
| DJ8HS-15 | 2026-08-30 13:26:48 | 49.02537 | 10.62786 | 83° | 89km/h | 9045m | -3.2m/s | -34.2°C | 82.5% | 322.4hPa | 2.5V | 00:00:00 | 02:42:24 | 00:00:00 | |
| DL1NUX | 2026-08-30 13:26:47 | 49.02518 | 10.62548 | 83° | 89km/h | 9067m | -3.4m/s | -34.3°C | 77.5% | 321.4hPa | 2.5V | 07:47:45 | 02:42:17 | 00:00:00 | |
| DK7TD | 2026-08-30 13:26:41 | 49.02518 | 10.62548 | 84° | 89km/h | 9067m | -3.4m/s | -34.3°C | 72.2% | 321.4hPa | 2.5V | 07:50:14 | 02:42:17 | 00:00:00 | |
| DL1ZP-14 | 2026-08-30 13:26:38 | 49.02510 | 10.62444 | 83° | 89km/h | 9078m | -3.5m/s | -34.3°C | 67.6% | 320.8hPa | 2.6V | 00:00:00 | 00:00:00 | 00:00:00 | |
| DL1NUX | 2026-08-30 13:26:36 | 49.02491 | 10.62201 | 82° | 91km/h | 9100m | -3.2m/s | -34.5°C | 77.1% | 319.8hPa | 2.6V | 07:47:55 | 02:42:07 | 00:00:00 | |
| DK7TD | 2026-08-30 13:26:31 | 49.02491 | 10.62201 | 82° | 91km/h | 9101m | -3.2m/s | -34.5°C | 72.5% | 319.8hPa | 2.6V | 07:50:14 | 02:42:07 | 00:00:00 | |
| DJ8HS-15 | 2026-08-30 13:26:28 | 49.02483 | 10.62096 | 83° | 91km/h | 9111m | -3.4m/s | -34.5°C | 77.7% | 319.3hPa | 2.5V | 00:00:00 | 02:42:04 | 00:00:00 | |
| DO9HM | 2026-08-30 13:26:26 | 49.02480 | 10.62062 | 85° | 89km/h | 9114m | -3.4m/s | -34.6°C | 68.6% | 319.3hPa | 2.5V | 07:48:00 | 00:00:00 | 00:00:00 | |
| DL1NUX | 2026-08-30 13:26:24 | 49.02459 | 10.61784 | 83° | 91km/h | 9140m | -3.6m/s | -34.8°C | 78.5% | 318.1hPa | 2.5V | 07:48:07 | 02:41:55 | 00:00:00 | |
| DK7TD | 2026-08-30 13:26:20 | 49.02462 | 10.61819 | 83° | 91km/h | 9137m | -3.2m/s | -34.8°C | 73.4% | 318.2hPa | 2.6V | 07:50:14 | 02:41:56 | 00:00:00 | |
| DK7TD | 2026-08-30 13:26:09 | 49.02432 | 10.61434 | 84° | 91km/h | 9175m | -3.5m/s | -35.1°C | 72.7% | 316.5hPa | 2.6V | 07:50:14 | 02:41:45 | 00:00:00 | |
| DJ8HS-15 | 2026-08-30 13:26:08 | 49.02430 | 10.61398 | 84° | 91km/h | 9178m | -3.5m/s | -35.1°C | 77.9% | 316.3hPa | 2.5V | 00:00:00 | 02:41:44 | 00:00:00 | |
| DL1ZP-14 | 2026-08-30 13:26:07 | 49.02427 | 10.61363 | 84° | 91km/h | 9181m | -3.4m/s | -35.2°C | 68.4% | 316.2hPa | 2.5V | 00:00:00 | 00:00:00 | 00:00:00 | |
| DO9HM | 2026-08-30 13:26:05 | 49.02425 | 10.61328 | 85° | 91km/h | 9185m | -3.5m/s | -35.2°C | 68.4% | 316.0hPa | 2.6V | 07:48:00 | 00:00:00 | 00:00:00 | |
| DL1NUX | 2026-08-30 13:26:03 | 49.02405 | 10.61051 | 83° | 91km/h | 9212m | -3.4m/s | -35.4°C | 75.9% | 314.8hPa | 2.6V | 07:48:28 | 02:41:34 | 00:00:00 | |
| DO3MHA-11 | 2026-08-30 13:26:03 | 49.02418 | 10.61224 | 84° | 91km/h | 9195m | -3.5m/s | -35.2°C | 76.3% | 315.5hPa | 2.5V | 00:00:00 | 02:41:39 | 00:00:00 | |
| DB0ND-19 | 2026-08-30 13:26:02 | 49.02415 | 10.61189 | 83° | 89km/h | 9199m | -3.6m/s | -35.3°C | 66.6% | 315.4hPa | 2.5V | 00:00:00 | 00:00:00 | 00:00:00 | |
| DF1GD-15 | 2026-08-30 13:26:01 | 49.02415 | 10.61189 | 85° | 89km/h | 9199m | -3.6m/s | -35.3°C | 66.6% | 315.4hPa | 2.5V | 07:48:00 | 00:00:00 | 00:00:00 | |
| DF7PN | 2026-08-30 13:26:00 | 49.02410 | 10.61120 | 83° | 89km/h | 9206m | -3.4m/s | -35.3°C | 66.5% | 315.1hPa | 2.5V | 00:00:00 | 00:00:00 | 00:00:00 | |
| DM0DOS-11 | 2026-08-30 13:25:58 | 49.02398 | 10.60947 | 83° | 91km/h | 9222m | -3.3m/s | -35.5°C | 76.1% | 314.4hPa | 2.5V | 07:48:31 | 02:41:31 | 00:00:00 | |
| DK7TD | 2026-08-30 13:25:56 | 49.02400 | 10.60982 | 85° | 89km/h | 9219m | -3.3m/s | -35.4°C | 71.2% | 314.5hPa | 2.6V | 07:50:14 | 02:41:32 | 00:00:00 | |
| DF3TZ-5 | 2026-08-30 13:25:51 | 49.02389 | 10.60809 | 84° | 89km/h | 9236m | -3.6m/s | -35.6°C | 66.4% | 313.7hPa | 2.5V | 00:00:00 | 00:00:00 | 00:00:00 | |
| DK5PH-5 | 2026-08-30 13:25:50 | 49.02387 | 10.60774 | 86° | 91km/h | 9239m | -3.5m/s | -35.6°C | 75.8% | 313.5hPa | 2.5V | 00:00:00 | 02:41:26 | 00:00:00 | |
| DM0DOS-11 | 2026-08-30 13:25:46 | 49.02376 | 10.60565 | 85° | 91km/h | 9259m | -3.1m/s | -35.8°C | 75.5% | 312.6hPa | 2.5V | 07:48:42 | 02:41:20 | 00:00:00 | |
| DO9HM | 2026-08-30 13:25:45 | 49.02379 | 10.60635 | 86° | 91km/h | 9253m | -3.3m/s | -35.8°C | 66.5% | 313.0hPa | 2.5V | 07:49:00 | 00:00:00 | 00:00:00 | |
| DO3MHA-11 | 2026-08-30 13:25:43 | 49.02374 | 10.60530 | 86° | 91km/h | 9263m | -3.2m/s | -35.8°C | 75.8% | 312.5hPa | 2.5V | 00:00:00 | 02:41:19 | 00:00:00 | |
| DF1GD-15 | 2026-08-30 13:25:41 | 49.02372 | 10.60496 | 87° | 91km/h | 9266m | -3.3m/s | -35.9°C | 66.4% | 312.4hPa | 2.6V | 07:49:00 | 00:00:00 | 00:00:00 | |
| DM0DOS-11 | 2026-08-30 13:25:39 | 49.02360 | 10.60215 | 86° | 91km/h | 9292m | -3.3m/s | -36.1°C | 72.2% | 311.1hPa | 2.6V | 07:48:52 | 02:41:10 | 00:00:00 | |
| DK7TD | 2026-08-30 13:25:32 | 49.02356 | 10.60144 | 85° | 91km/h | 9298m | -3.4m/s | -36.1°C | 67.8% | 310.9hPa | 2.5V | 07:50:14 | 02:41:08 | 00:00:00 | |
| DL1NUX | 2026-08-30 13:25:31 | 49.02346 | 10.59933 | 86° | 91km/h | 9319m | -3.5m/s | -36.3°C | 72.2% | 310hPa | 2.5V | 07:49:00 | 02:41:02 | 00:00:00 | |
| DM7RM-13 | 2026-08-30 13:25:30 | 49.02354 | 10.60109 | 87° | 91km/h | 9302m | -3.5m/s | -36.2°C | 63.1% | 310.7hPa | 2.5V | 07:49:00 | 00:00:00 | 00:00:00 | |
| DM0DOS-11 | 2026-08-30 13:25:29 | 49.02343 | 10.59863 | 86° | 93km/h | 9325m | -3.4m/s | -36.4°C | 72.3% | 309.7hPa | 2.5V | 07:49:02 | 02:41:00 | 00:00:00 | |
| DK7TD | 2026-08-30 13:25:20 | 49.02337 | 10.59721 | 86° | 91km/h | 9339m | -3.4m/s | -36.5°C | 68.2% | 309.1hPa | 2.6V | 07:50:14 | 02:40:56 | 00:00:00 | |
| DK7TD | 2026-08-30 13:25:09 | 49.02320 | 10.59332 | 86° | 91km/h | 9376m | -3.5m/s | -36.8°C | 68% | 307.4hPa | 2.5V | 07:50:14 | 02:40:45 | 00:00:00 | |
| BIOWL1-15 | 2026-08-30 13:25:07 | 49.02318 | 10.59261 | 86° | 93km/h | 9383m | -3.4m/s | 0°C | 0% | 0hPa | 2.6V | 07:49:23 | 02:40:43 | 00:00:00 | |
| DM0DOS-11 | 2026-08-30 13:25:06 | 49.02314 | 10.59154 | 86° | 93km/h | 9393m | -3.5m/s | -37°C | 71.8% | 306.7hPa | 2.5V | 07:49:22 | 02:40:40 | 00:00:00 | |
| DK7TD | 2026-08-30 13:24:57 | 49.02307 | 10.58905 | 88° | 91km/h | 9417m | -3.4m/s | -37.2°C | 67.5% | 305.6hPa | 2.6V | 07:50:14 | 02:40:33 | 00:00:00 | |
| BIOWL9-15 | 2026-08-30 13:24:57 | 49.02302 | 10.58695 | 88° | 89km/h | 9437m | -3.4m/s | -37.4°C | 63.4% | 304.7hPa | 2.5V | 00:00:00 | 00:00:00 | 00:00:00 | |
| DL1NUX | 2026-08-30 13:24:56 | 49.02302 | 10.58695 | 88° | 91km/h | 9437m | -3.4m/s | -37.4°C | 72.7% | 304.7hPa | 2.5V | 07:49:35 | 02:40:27 | 00:00:00 | |
| BIOWL1-15 | 2026-08-30 13:24:55 | 49.02305 | 10.58835 | 88° | 91km/h | 9424m | -3.2m/s | 0°C | 0% | 0hPa | 2.6V | 18:12:15 | 02:40:31 | 00:00:00 | |
| DM0DOS-11 | 2026-08-30 13:24:54 | 49.02305 | 10.58801 | 88° | 91km/h | 9427m | -3.3m/s | -37.3°C | 72.6% | 305.2hPa | 2.5V | 07:49:32 | 02:40:30 | 00:00:00 | |
| DO3MHA-11 | 2026-08-30 13:24:53 | 49.02304 | 10.58766 | 88° | 93km/h | 9430m | -3.3m/s | -37.3°C | 72.6% | 304.9hPa | 2.5V | 00:00:00 | 02:40:29 | 00:00:00 | |
| DK5PH-5 | 2026-08-30 13:24:50 | 49.02301 | 10.58660 | 89° | 93km/h | 9440m | -3.3m/s | -37.4°C | 73.0% | 304.5hPa | 2.5V | 00:00:00 | 02:40:26 | 00:00:00 | |
| DM0DOS-11 | 2026-08-30 13:24:49 | 49.02297 | 10.58446 | 87° | 93km/h | 9461m | -3.6m/s | -37.6°C | 72.7% | 303.6hPa | 2.5V | 07:49:42 | 02:40:20 | 00:00:00 | |
| DK7TD | 2026-08-30 13:24:47 | 49.02299 | 10.58553 | 88° | 93km/h | 9451m | -3.5m/s | -37.5°C | 68% | 304.1hPa | 2.5V | 07:50:14 | 02:40:23 | 00:00:00 | |
| BIOWL1-15 | 2026-08-30 13:24:42 | 49.02296 | 10.58375 | 89° | 93km/h | 9468m | -3.7m/s | 0°C | 0% | 0hPa | 2.6V | 18:12:15 | 02:40:18 | 00:00:00 | |
| NBG1-10 | 2026-08-30 13:24:42 | 49.02296 | 10.58375 | 89° | 93km/h | 9468m | -3.6m/s | -37.6°C | 71.9% | 303.3hPa | 2.6V | 00:00:00 | 02:40:18 | 00:00:00 | |
| DN1GJH-1 | 2026-08-30 13:24:41 | 49.02296 | 10.58375 | 89° | 93km/h | 9468m | -3.7m/s | -37.7°C | 62.6% | 303.3hPa | 2.6V | 07:50:00 | 00:00:00 | 00:00:00 | |
| DF1GD-15 | 2026-08-30 13:24:40 | 49.02295 | 10.58340 | 89° | 93km/h | 9472m | -3.6m/s | -37.7°C | 62.1% | 303.2hPa | 2.6V | 07:50:00 | 00:00:00 | 00:00:00 | |
| DM0DOS-11 | 2026-08-30 13:24:39 | 49.02290 | 10.58092 | 88° | 91km/h | 9496m | -3.4m/s | -37.9°C | 69.2% | 302.1hPa | 2.6V | 07:49:52 | 02:40:10 | 00:00:00 | |
| DK7TD | 2026-08-30 13:24:36 | 49.02291 | 10.58163 | 88° | 93km/h | 9489m | -3.5m/s | -37.8°C | 64.6% | 302.4hPa | 2.6V | 07:50:14 | 02:40:12 | 00:00:00 | |
| DO3MHA-11 | 2026-08-30 13:24:33 | 49.02289 | 10.58056 | 89° | 93km/h | 9500m | -3.4m/s | -37.8°C | 69.1% | 301.9hPa | 2.5V | 00:00:00 | 02:40:09 | 00:00:00 | |
| DL0LBS | 2026-08-30 13:24:32 | 49.02289 | 10.58056 | 89° | 93km/h | 9500m | -3.5m/s | -37.9°C | 60.0% | 302.0hPa | 2.5V | 07:50:00 | 00:00:00 | 00:00:00 | |
| DB0ND-19 | 2026-08-30 13:24:29 | 49.02286 | 10.57914 | 88° | 91km/h | 9513m | -3.4m/s | -38.0°C | 59.9% | 301.3hPa | 2.5V | 00:00:00 | 00:00:00 | 00:00:00 | |
| DM0DOS-11 | 2026-08-30 13:24:28 | 49.02283 | 10.57737 | 88° | 93km/h | 9531m | -3.5m/s | -38.1°C | 69.6% | 300.6hPa | 2.5V | 07:50:02 | 02:40:00 | 00:00:00 | |
| DK7TD | 2026-08-30 13:24:25 | 49.02284 | 10.57772 | 89° | 93km/h | 9527m | -3.6m/s | -38.2°C | 64.9% | 300.7hPa | 2.5V | 07:50:14 | 02:40:01 | 00:00:00 | |
| DO9HM | 2026-08-30 13:24:24 | 49.02283 | 10.57737 | 90° | 93km/h | 9531m | -3.5m/s | -38.1°C | 60.5% | 300.6hPa | 2.5V | 07:50:00 | 00:00:00 | 00:00:00 | |
| DO3MHA-11 | 2026-08-30 13:24:23 | 49.02283 | 10.57701 | 89° | 91km/h | 9535m | -3.6m/s | -38.2°C | 70.0% | 300.4hPa | 2.5V | 00:00:00 | 02:39:59 | 00:00:00 | |
| DJTTGO | 2026-08-30 13:24:22 | 49.02283 | 10.57701 | 90° | 91km/h | 9535m | -3.6m/s | -38.2°C | 60.7% | 300.4hPa | 2.5V | 07:50:00 | 00:00:00 | 00:00:00 | |
| DL1NUX | 2026-08-30 13:24:21 | 49.02280 | 10.57453 | 89° | 93km/h | 9559m | -3.6m/s | -38.4°C | 71.2% | 299.3hPa | 2.5V | 07:50:10 | 02:39:52 | 00:00:00 | |
| DK5PH-5 | 2026-08-30 13:24:20 | 49.02282 | 10.57595 | 90° | 93km/h | 9545m | -3.6m/s | -38.3°C | 70.5% | 299.9hPa | 2.6V | 00:00:00 | 02:39:56 | 00:00:00 | |
| DF1GD-15 | 2026-08-30 13:24:19 | 49.02282 | 10.57595 | 90° | 91km/h | 9545m | -3.7m/s | -38.3°C | 61.2% | 300.0hPa | 2.6V | 07:50:00 | 00:00:00 | 00:00:00 | |
| DF3TZ-5 | 2026-08-30 13:24:18 | 49.02280 | 10.57489 | 89° | 91km/h | 9556m | -3.5m/s | 0°C | -1.0% | 299.5hPa | 2.6V | 00:00:00 | 00:00:00 | 00:00:00 | |
| DL9SK-14 | 2026-08-30 13:24:17 | 49.02280 | 10.57489 | 89° | 91km/h | 9556m | -3.5m/s | -38.4°C | 61.5% | 299.5hPa | 2.6V | 00:00:00 | 00:00:00 | 00:00:00 | |
| DM0DOS-11 | 2026-08-30 13:24:16 | 49.02280 | 10.57382 | 90° | 91km/h | 9566m | -3.4m/s | -38.5°C | 71.2% | 299.1hPa | 2.6V | 07:50:12 | 02:39:50 | 00:00:00 | |
| DK7TD | 2026-08-30 13:24:14 | 49.02280 | 10.57382 | 90° | 91km/h | 9566m | -3.4m/s | -38.5°C | 66.4% | 299.1hPa | 2.6V | 07:50:14 | 02:39:50 | 00:00:00 | |
| BIOWL1-15 | 2026-08-30 13:24:11 | 49.02280 | 10.57239 | 90° | 93km/h | 9580m | -3.6m/s | 0°C | 0% | 0hPa | 2.5V | 18:12:15 | 02:39:46 | 00:00:00 | |
| NBG1-10 | 2026-08-30 13:24:09 | 49.02280 | 10.57204 | 90° | 93km/h | 9584m | -3.5m/s | -38.6°C | 72.3% | 298.2hPa | 2.5V | 00:00:00 | 02:39:45 | 00:00:00 | |
| DJ8HS-15 | 2026-08-30 13:24:08 | 49.02280 | 10.57168 | 91° | 93km/h | 9588m | -3.7m/s | -38.6°C | 72.8% | 298.0hPa | 2.5V | 00:00:00 | 02:39:44 | 00:00:00 | |
| DM7RM-13 | 2026-08-30 13:24:06 | 49.02280 | 10.57132 | 91° | 93km/h | 9591m | -3.5m/s | -38.7°C | 63.3% | 298.0hPa | 2.5V | 07:51:00 | 00:00:00 | 00:00:00 | |
| OE5DXL-15 | 2026-08-30 13:24:05 | 49.02280 | 10.57060 | 91° | 93km/h | 9598m | -3.5m/s | -38.7°C | 73.3% | 297.6hPa | 2.5V | 00:00:00 | 00:00:00 | 00:00:00 | |
| DM0DOS-11 | 2026-08-30 13:24:04 | 49.02280 | 10.56916 | 89° | 93km/h | 9613m | -3.7m/s | -38.9°C | 74.2% | 297hPa | 2.5V | 07:50:25 | 02:39:37 | 00:00:00 | |
| DK7TD | 2026-08-30 13:24:04 | 49.02280 | 10.57024 | 90° | 93km/h | 9602m | -3.8m/s | -38.8°C | 68.1% | 297.5hPa | 2.6V | 07:51:05 | 02:39:40 | 00:00:00 | |
| BIOWL1-15 | 2026-08-30 13:23:56 | 49.02280 | 10.56736 | 90° | 95km/h | 9632m | -3.6m/s | 0°C | 0% | 0hPa | 2.5V | 18:12:15 | 02:39:32 | 00:00:00 | |
| DK7TD | 2026-08-30 13:23:53 | 49.02279 | 10.56628 | 90° | 95km/h | 9643m | -3.7m/s | -39.1°C | 68.3% | 295.6hPa | 2.5V | 07:51:05 | 02:39:29 | 00:00:00 | |
| DO3MHA-11 | 2026-08-30 13:23:53 | 49.02279 | 10.56628 | 90° | 93km/h | 9644m | -3.6m/s | -39.0°C | 74.2% | 295.6hPa | 2.5V | 00:00:00 | 02:39:29 | 00:00:00 | |
| DM0DOS-11 | 2026-08-30 13:23:52 | 49.02279 | 10.56557 | 90° | 93km/h | 9651m | -3.7m/s | -39.2°C | 74.1% | 295.4hPa | 2.5V | 07:50:35 | 02:39:27 | 00:00:00 | |
| BIOWL1-15 | 2026-08-30 13:23:45 | 49.02280 | 10.56307 | 90° | 93km/h | 9677m | -3.8m/s | 0°C | 0% | 0hPa | 2.5V | 18:12:15 | 02:39:20 | 00:00:00 | |
| DM0DOS-11 | 2026-08-30 13:23:45 | 49.02280 | 10.56200 | 89° | 91km/h | 9688m | -3.8m/s | -39.5°C | 74% | 293.8hPa | 2.6V | 07:50:45 | 02:39:17 | 00:00:00 | |
| DK7TD | 2026-08-30 13:23:43 | 49.02280 | 10.56271 | 91° | 91km/h | 9680m | -3.8m/s | -39.4°C | 68% | 294.1hPa | 2.5V | 07:51:05 | 02:39:19 | 00:00:00 | |
| DO9HM | 2026-08-30 13:23:39 | 49.02280 | 10.56164 | 91° | 91km/h | 9692m | -3.8m/s | -39.5°C | 64.1% | 293.6hPa | 2.6V | 07:51:00 | 00:00:00 | 00:00:00 | |
| OE3JTB-15 | 2026-08-30 13:23:38 | 49.02281 | 10.56093 | 91° | 108km/h | 9699m | -3.8m/s | 0°C | 0% | 0hPa | 2.6V | 00:00:00 | 00:00:00 | 00:00:00 | |
| NBG1-10 | 2026-08-30 13:23:36 | 49.02281 | 10.56022 | 91° | 93km/h | 9707m | -3.9m/s | -39.6°C | 74.1% | 292.9hPa | 2.6V | 00:00:00 | 02:39:12 | 00:00:00 | |
| DM0DOS-11 | 2026-08-30 13:23:35 | 49.02282 | 10.55844 | 91° | 93km/h | 9726m | -3.9m/s | -39.8°C | 74.5% | 292.2hPa | 2.5V | 07:50:55 | 02:39:07 | 00:00:00 | |
| DK7TD | 2026-08-30 13:23:32 | 49.02282 | 10.55880 | 91° | 93km/h | 9722m | -3.7m/s | -39.8°C | 68.5% | 292.4hPa | 2.5V | 07:51:05 | 02:39:08 | 00:00:00 | |
| DL0LBS | 2026-08-30 13:23:30 | 49.02282 | 10.55844 | 92° | 93km/h | 9726m | -3.9m/s | -39.8°C | 64.4% | 292.2hPa | 2.6V | 07:51:00 | 00:00:00 | 00:00:00 | |
| DJ8HS-15 | 2026-08-30 13:23:28 | 49.02283 | 10.55735 | 92° | 95km/h | 9737m | -3.7m/s | -39.9°C | 74.8% | 291.6hPa | 2.6V | 00:00:00 | 02:39:04 | 00:00:00 | |
| DB0ND-19 | 2026-08-30 13:23:27 | 49.02284 | 10.55698 | 90° | 95km/h | 9741m | -3.6m/s | -40.0°C | 64.3% | 291.5hPa | 2.5V | 00:00:00 | 00:00:00 | 00:00:00 | |
| DM0DOS-11 | 2026-08-30 13:23:25 | 49.02284 | 10.55478 | 89° | 95km/h | 9764m | -3.8m/s | -40.2°C | 74.6% | 290.6hPa | 2.5V | 07:51:05 | 02:38:57 | 00:00:00 | |
| DK7TD | 2026-08-30 13:23:22 | 49.02284 | 10.55515 | 90° | 95km/h | 9760m | -3.9m/s | -40.2°C | 68.5% | 290.7hPa | 2.5V | 07:51:05 | 02:38:58 | 00:00:00 | |
| DK5PH-5 | 2026-08-30 13:23:20 | 49.02284 | 10.55442 | 90° | 93km/h | 9768m | -3.7m/s | -40.2°C | 74.6% | 290.3hPa | 2.6V | 00:00:00 | 02:38:56 | 00:00:00 | |
| DO9HM | 2026-08-30 13:23:19 | 49.02284 | 10.55442 | 91° | 95km/h | 9768m | -3.7m/s | -40.2°C | 64.3% | 290.3hPa | 2.6V | 07:51:00 | 00:00:00 | 00:00:00 | |
| DF1GD-15 | 2026-08-30 13:23:18 | 49.02284 | 10.55406 | 90° | 93km/h | 9771m | -3.7m/s | -40.2°C | 64.2% | 290.2hPa | 2.6V | 07:51:00 | 00:00:00 | 00:00:00 | |
| DF3TZ-5 | 2026-08-30 13:23:16 | 49.02283 | 10.55263 | 89° | 91km/h | 9786m | -3.7m/s | 0°C | -1.0% | -1.0hPa | 2.6V | 00:00:00 | 00:00:00 | 00:00:00 | |
| DL9SK-14 | 2026-08-30 13:23:15 | 49.02283 | 10.55263 | 89° | 91km/h | 9786m | -3.7m/s | -40.4°C | 63.9% | 289.6hPa | 2.6V | 00:00:00 | 00:00:00 | 00:00:00 | |
| DM0DOS-11 | 2026-08-30 13:23:13 | 49.02282 | 10.55120 | 90° | 93km/h | 9802m | -3.9m/s | -40.5°C | 73.3% | 288.9hPa | 2.6V | 07:51:15 | 02:38:47 | 00:00:00 | |
| DK7TD | 2026-08-30 13:23:12 | 49.02282 | 10.55156 | 90° | 93km/h | 9798m | -4m/s | -40.4°C | 67.3% | 289.1hPa | 2.6V | 07:51:56 | 02:38:48 | 00:00:00 | |
| DL0LBS | 2026-08-30 13:23:09 | 49.02282 | 10.55084 | 91° | 93km/h | 9806m | -4.0m/s | -40.6°C | 63.1% | 288.8hPa | 2.5V | 07:51:00 | 00:00:00 | 00:00:00 | |
| DJ8HS-15 | 2026-08-30 13:23:08 | 49.02282 | 10.55012 | 90° | 93km/h | 9814m | -3.8m/s | -40.6°C | 73.1% | 288.4hPa | 2.5V | 00:00:00 | 02:38:44 | 00:00:00 | |
| DL1NUX | 2026-08-30 13:23:03 | 49.02279 | 10.54651 | 88° | 91km/h | 9851m | -3.8m/s | -40.9°C | 71.5% | 286.8hPa | 2.5V | 07:51:28 | 02:38:34 | 00:00:00 | |
| DK7TD | 2026-08-30 13:23:01 | 49.02280 | 10.54759 | 89° | 93km/h | 9840m | -3.9m/s | -40.8°C | 66.2% | 287.3hPa | 2.6V | 07:51:56 | 02:38:37 | 00:00:00 | |
| DM0DOS-11 | 2026-08-30 13:22:58 | 49.02278 | 10.54509 | 89° | 93km/h | 9867m | -3.8m/s | -41°C | 71.1% | 286.2hPa | 2.6V | 07:51:32 | 02:38:30 | 00:00:00 | |
| DK7TD | 2026-08-30 13:22:51 | 49.02277 | 10.54402 | 89° | 93km/h | 9878m | -3.8m/s | -41.1°C | 65.3% | 285.6hPa | 2.5V | 07:51:56 | 02:38:27 | 00:00:00 | |
| DK5PH-5 | 2026-08-30 13:22:50 | 49.02277 | 10.54366 | 89° | 93km/h | 9882m | -3.8m/s | -41.1°C | 70.4% | 285.4hPa | 2.6V | 07:51:00 | 02:38:26 | 00:00:00 | |
| DL0LBS | 2026-08-30 13:22:49 | 49.02277 | 10.54366 | 90° | 93km/h | 9882m | -3.9m/s | -41.1°C | 60.3% | 285.5hPa | 2.6V | 07:51:00 | 00:00:00 | 00:00:00 | |
| DM0DOS-11 | 2026-08-30 13:22:48 | 49.02275 | 10.54151 | 88° | 93km/h | 9906m | -4m/s | -41.4°C | 69.8% | 284.5hPa | 2.6V | 07:51:42 | 02:38:20 | 00:00:00 | |
| DJ8HS-15 | 2026-08-30 13:22:48 | 49.02276 | 10.54294 | 90° | 93km/h | 9890m | -4.0m/s | -41.2°C | 70.5% | 285.2hPa | 2.6V | 00:00:00 | 02:38:24 | 00:00:00 | |
| DL1NUX | 2026-08-30 13:22:45 | 49.02273 | 10.54008 | 89° | 93km/h | 9922m | -4m/s | -41.5°C | 69.4% | 283.8hPa | 2.6V | 07:51:46 | 02:38:16 | 00:00:00 | |
| DL6DJ-15 | 2026-08-30 13:22:45 | 49.02275 | 10.54187 | 88° | 93km/h | 9902m | -4.1m/s | -41.3°C | 59.7% | 284.7hPa | 2.5V | 00:00:00 | 00:00:00 | 00:00:00 | |
| DK7TD | 2026-08-30 13:22:41 | 49.02273 | 10.54044 | 89° | 91km/h | 9918m | -4.2m/s | -41.5°C | 64.4% | 283.9hPa | 2.5V | 07:51:56 | 02:38:17 | 00:00:00 | |
| DM0DOS-11 | 2026-08-30 13:22:38 | 49.02271 | 10.53796 | 88° | 91km/h | 9946m | -3.9m/s | -41.7°C | 69.6% | 282.9hPa | 2.6V | 07:51:52 | 02:38:10 | 00:00:00 | |
| DK7TD | 2026-08-30 13:22:30 | 49.02270 | 10.53655 | 89° | 91km/h | 9962m | -4m/s | -41.8°C | 64.2% | 282.2hPa | 2.6V | 07:51:56 | 02:38:06 | 00:00:00 | |
| DL1ZP-14 | 2026-08-30 13:22:30 | 49.02270 | 10.53655 | 89° | 89km/h | 9962m | -4.0m/s | -41.8°C | 59.2% | 282.2hPa | 2.6V | 00:00:00 | 00:00:00 | 00:00:00 | |
| DM0DOS-11 | 2026-08-30 13:22:28 | 49.02268 | 10.53441 | 89° | 93km/h | 9986m | -4.1m/s | -42.1°C | 68.9% | 281.2hPa | 2.6V | 07:52:02 | 02:38:00 | 00:00:00 | |
| DK7TD | 2026-08-30 13:22:20 | 49.02267 | 10.53296 | 89° | 95km/h | 10002m | -4.1m/s | -42.2°C | 63.5% | 280.6hPa | 2.6V | 07:52:47 | 02:37:56 | 00:00:00 | |
| DK7TD | 2026-08-30 13:22:09 | 49.02267 | 10.52896 | 90° | 95km/h | 10045m | -4m/s | -42.6°C | 63.6% | 278.7hPa | 2.6V | 07:52:47 | 02:37:45 | 00:00:00 | |
| DK7TD | 2026-08-30 13:21:58 | 49.02267 | 10.52489 | 90° | 99km/h | 10090m | -4.1m/s | -42.9°C | 65.1% | 276.9hPa | 2.5V | 07:52:47 | 02:37:34 | 00:00:00 | |
| DM0DOS-11 | 2026-08-30 13:21:57 | 49.02267 | 10.52337 | 90° | 99km/h | 10107m | -4.2m/s | -43.1°C | 70.5% | 276.2hPa | 2.6V | 07:52:32 | 02:37:30 | 00:00:00 | |
| NBG1-10 | 2026-08-30 13:21:57 | 49.02267 | 10.52451 | 90° | 99km/h | 10094m | -4.0m/s | -42.9°C | 69.8% | 276.6hPa | 2.5V | 00:00:00 | 02:37:33 | 00:00:00 | |
| DL1NUX | 2026-08-30 13:21:56 | 49.02268 | 10.52223 | 91° | 99km/h | 10119m | -4.2m/s | -43.2°C | 70.2% | 275.7hPa | 2.5V | 07:52:35 | 02:37:27 | 00:00:00 | |
| DK7TD | 2026-08-30 13:21:48 | 49.02269 | 10.52110 | 91° | 99km/h | 10131m | -4.1m/s | -43.3°C | 65.6% | 275.2hPa | 2.5V | 07:52:47 | 02:37:24 | 00:00:00 | |
| DJ8HS-15 | 2026-08-30 13:21:48 | 49.02269 | 10.52110 | 92° | 99km/h | 10132m | -4.1m/s | -43.3°C | 71.5% | 275.1hPa | 2.6V | 00:00:00 | 02:37:24 | 00:00:00 | |
| DM0DOS-11 | 2026-08-30 13:21:47 | 49.02271 | 10.51959 | 90° | 99km/h | 10148m | -4.1m/s | -43.5°C | 71.4% | 274.5hPa | 2.6V | 07:52:42 | 02:37:20 | 00:00:00 | |
| DL1NUX | 2026-08-30 13:21:46 | 49.02272 | 10.51845 | 90° | 99km/h | 10160m | -4.2m/s | -43.5°C | 71.3% | 274hPa | 2.5V | 07:52:45 | 02:37:17 | 00:00:00 | |
| DL6DJ-15 | 2026-08-30 13:21:43 | 49.02272 | 10.51883 | 91° | 99km/h | 10156m | -4.1m/s | -43.5°C | 60.9% | 274.2hPa | 2.6V | 00:00:00 | 00:00:00 | 00:00:00 | |
| DM7RM-13 | 2026-08-30 13:21:41 | 49.02271 | 10.51883 | 92° | 99km/h | 10156m | -4.1m/s | -43.5°C | 60.9% | 274.2hPa | 2.6V | 07:52:00 | 00:00:00 | 00:00:00 | |
| DM0DOS-11 | 2026-08-30 13:21:37 | 49.02277 | 10.51578 | 91° | 100km/h | 10189m | -4.1m/s | -43.8°C | 71.1% | 272.8hPa | 2.6V | 07:52:52 | 02:37:10 | 00:00:00 | |
| DK7TD | 2026-08-30 13:21:37 | 49.02275 | 10.51693 | 92° | 100km/h | 10176m | -4.1m/s | -43.7°C | 66.1% | 273.3hPa | 2.5V | 07:53:38 | 02:37:13 | 00:00:00 | |
| DL1NUX | 2026-08-30 13:21:37 | 49.02279 | 10.51463 | 91° | 100km/h | 10201m | -4.2m/s | -43.8°C | 70.4% | 272.4hPa | 2.5V | 07:52:55 | 02:37:07 | 00:00:00 | |
| DN1GJH-1 | 2026-08-30 13:21:36 | 49.02275 | 10.51693 | 93° | 100km/h | 10177m | -4.1m/s | -43.7°C | 60.5% | 273.3hPa | 2.5V | 07:53:00 | 00:00:00 | 00:00:00 | |
| DO3MHA-11 | 2026-08-30 13:21:33 | 49.02278 | 10.51539 | 92° | 100km/h | 10193m | -4.2m/s | -43.7°C | 70.8% | 272.6hPa | 2.5V | 07:52:00 | 02:37:09 | 00:00:00 | |
| DJ8HS-15 | 2026-08-30 13:21:28 | 49.02280 | 10.51348 | 91° | 100km/h | 10214m | -3.9m/s | -43.8°C | 69.9% | 271.8hPa | 2.5V | 00:00:00 | 02:37:04 | 00:00:00 | |
| DM0DOS-11 | 2026-08-30 13:21:27 | 49.02281 | 10.51194 | 90° | 100km/h | 10230m | -4m/s | -44.1°C | 69.6% | 271.2hPa | 2.6V | 07:53:02 | 02:37:00 | 00:00:00 | |
| DK7TD | 2026-08-30 13:21:26 | 49.02281 | 10.51272 | 91° | 100km/h | 10222m | -4m/s | -44°C | 65.5% | 271.5hPa | 2.5V | 07:53:38 | 02:37:02 | 00:00:00 | |
| NBG1-10 | 2026-08-30 13:21:24 | 49.02281 | 10.51194 | 91° | 102km/h | 10230m | -4.0m/s | -44.0°C | 69.6% | 271.2hPa | 2.6V | 00:00:00 | 02:37:00 | 00:00:00 | |
| DO3MHA-11 | 2026-08-30 13:21:23 | 49.02282 | 10.51156 | 91° | 100km/h | 10234m | -4.0m/s | -44.0°C | 69.4% | 271.0hPa | 2.6V | 00:00:00 | 02:36:59 | 00:00:00 | |
| DG1MJG | 2026-08-30 13:21:22 | 49.02282 | 10.51156 | 92° | 100km/h | 10234m | -4.0m/s | -44.1°C | 58.6% | 271.0hPa | 2.6V | 07:53:00 | 00:00:00 | 00:00:00 | |
| DF7PN | 2026-08-30 13:21:21 | 49.02283 | 10.51039 | 91° | 100km/h | 10246m | -4.3m/s | -44.2°C | 59.4% | 270.5hPa | 2.6V | 00:00:00 | 00:00:00 | 00:00:00 | |
| DL1NUX | 2026-08-30 13:21:20 | 49.02286 | 10.50847 | 90° | 100km/h | 10266m | -4.1m/s | -44.4°C | 71.4% | 269.7hPa | 2.6V | 07:53:11 | 02:36:51 | 00:00:00 | |
| DK5PH-5 | 2026-08-30 13:21:20 | 49.02283 | 10.51039 | 92° | 102km/h | 10246m | -4.3m/s | -44.2°C | 70.4% | 270.4hPa | 2.6V | 00:00:00 | 02:36:56 | 00:00:00 | |
| DM0DOS-11 | 2026-08-30 13:21:17 | 49.02286 | 10.50808 | 90° | 100km/h | 10270m | -4m/s | -44.4°C | 71.4% | 269.5hPa | 2.6V | 07:53:12 | 02:36:50 | 00:00:00 | |
| DK7TD | 2026-08-30 13:21:16 | 49.02285 | 10.50885 | 91° | 99km/h | 10262m | -4.1m/s | -44.3°C | 65.6% | 269.9hPa | 2.5V | 07:53:38 | 02:36:52 | 00:00:00 | |
| DN1GJH-1 | 2026-08-30 13:21:15 | 49.02285 | 10.50885 | 92° | 99km/h | 10262m | -4.1m/s | -44.3°C | 60.5% | 269.9hPa | 2.5V | 07:53:00 | 00:00:00 | 00:00:00 | |
| DO3MHA-11 | 2026-08-30 13:21:13 | 49.02286 | 10.50769 | 91° | 102km/h | 10275m | -4.0m/s | -44.3°C | 70.6% | 269.3hPa | 2.5V | 00:00:00 | 02:36:49 | 00:00:00 | |
| DL6DJ-15 | 2026-08-30 13:21:12 | 49.02287 | 10.50691 | 90° | 100km/h | 10283m | -4.2m/s | -44.5°C | 59.8% | 269.1hPa | 2.6V | 00:00:00 | 00:00:00 | 00:00:00 | |
| DL9SK-14 | 2026-08-30 13:21:11 | 49.02287 | 10.50652 | 90° | 100km/h | 10287m | -4.1m/s | -44.6°C | 59.7% | 268.9hPa | 2.6V | 00:00:00 | 00:00:00 | 00:00:00 | |
| DJ8HS-15 | 2026-08-30 13:21:08 | 49.02287 | 10.50573 | 91° | 106km/h | 10295m | -4.0m/s | -44.6°C | 70.9% | 268.5hPa | 2.6V | 00:00:00 | 02:36:44 | 00:00:00 | |
| DM0DOS-11 | 2026-08-30 13:21:07 | 49.02290 | 10.50415 | 91° | 104km/h | 10311m | -4.1m/s | -44.8°C | 70.1% | 267.8hPa | 2.6V | 07:53:22 | 02:36:40 | 00:00:00 | |
| DK7TD | 2026-08-30 13:21:06 | 49.02288 | 10.50494 | 91° | 102km/h | 10303m | -4.2m/s | -44.7°C | 65.8% | 268.3hPa | 2.5V | 07:53:38 | 02:36:42 | 00:00:00 | |
| DK7TD | 2026-08-30 13:20:55 | 49.02297 | 10.50055 | 91° | 104km/h | 10348m | -3.9m/s | -45.1°C | 65.2% | 266.4hPa | 2.6V | 07:53:38 | 02:36:31 | 00:00:00 | |
| DB0ND-19 | 2026-08-30 13:20:52 | 49.02299 | 10.49934 | 90° | 104km/h | 10360m | -4.1m/s | -45.1°C | 60.4% | 265.9hPa | 2.6V | 00:00:00 | 00:00:00 | 00:00:00 | |
| DF7PN | 2026-08-30 13:20:50 | 49.02300 | 10.49812 | 91° | 104km/h | 10372m | -4.1m/s | -45.3°C | 61.3% | 265.4hPa | 2.6V | 00:00:00 | 00:00:00 | 00:00:00 | |
| BIOWL9-15 | 2026-08-30 13:20:48 | 49.02304 | 10.49607 | 91° | 106km/h | 10393m | -4.2m/s | -45.3°C | 61.8% | 264.6hPa | 2.6V | 00:00:00 | 00:00:00 | 00:00:00 | |
| DM0DOS-11 | 2026-08-30 13:20:47 | 49.02304 | 10.49607 | 91° | 108km/h | 10393m | -4.2m/s | -45.3°C | 73.5% | 264.6hPa | 2.6V | 07:53:42 | 02:36:20 | 00:00:00 | |
| DK7TD | 2026-08-30 13:20:45 | 49.02303 | 10.49648 | 92° | 108km/h | 10388m | -4.1m/s | -45.3°C | 67.7% | 264.8hPa | 2.6V | 07:54:29 | 02:36:21 | 00:00:00 | |
| BIOWL1-15 | 2026-08-30 13:20:41 | 49.02311 | 10.49358 | 92° | 108km/h | 10418m | -4.2m/s | -45.5°C | 66.8% | 0hPa | 2.5V | 07:54:29 | 02:36:14 | 00:00:00 | |
| DL6DJ-15 | 2026-08-30 13:20:41 | 49.02308 | 10.49441 | 92° | 106km/h | 10410m | -4.3m/s | -45.4°C | 61.4% | 264.0hPa | 2.6V | 00:00:00 | 00:00:00 | 00:00:00 | |
| DL9SK-14 | 2026-08-30 13:20:40 | 49.02310 | 10.49400 | 92° | 108km/h | 10414m | -4.2m/s | -45.4°C | 61.3% | 263.8hPa | 2.6V | 00:00:00 | 00:00:00 | 00:00:00 | |
| DM0DOS-11 | 2026-08-30 13:20:37 | 49.02315 | 10.49193 | 92° | 110km/h | 10435m | -4.2m/s | -45.6°C | 72.8% | 263hPa | 2.6V | 07:53:52 | 02:36:10 | 00:00:00 | |
| DK7TD | 2026-08-30 13:20:34 | 49.02315 | 10.49192 | 92° | 110km/h | 10435m | -4.2m/s | -45.6°C | 66.6% | 263hPa | 2.6V | 07:54:29 | 02:36:10 | 00:00:00 | |
| BIOWL1-15 | 2026-08-30 13:20:27 | 49.02320 | 10.48853 | 92° | 111km/h | 10467m | -4m/s | -45.8°C | 65.1% | 0hPa | 2.6V | 07:54:29 | 02:36:02 | 00:00:00 | |
| DM0DOS-11 | 2026-08-30 13:20:26 | 49.02322 | 10.48768 | 91° | 111km/h | 10476m | -4.2m/s | -45.9°C | 70.8% | 261.3hPa | 2.5V | 07:54:02 | 02:36:00 | 00:00:00 | |
| DK7TD | 2026-08-30 13:20:24 | 49.02322 | 10.48768 | 91° | 111km/h | 10476m | -4.2m/s | -45.9°C | 65.1% | 261.4hPa | 2.5V | 07:54:29 | 02:36:00 | 00:00:00 | |
| BIOWL1-15 | 2026-08-30 13:20:17 | 49.02328 | 10.48465 | 92° | 115km/h | 10505m | -4.1m/s | -46.1°C | 63.1% | 0hPa | 2.6V | 07:54:29 | 02:35:53 | 00:00:00 | |
| DM0DOS-11 | 2026-08-30 13:20:16 | 49.02331 | 10.48247 | 91° | 113km/h | 10526m | -4.2m/s | -46.1°C | 67.4% | 259.4hPa | 2.5V | 07:54:14 | 02:35:48 | 00:00:00 | |
| DK7TD | 2026-08-30 13:20:14 | 49.02330 | 10.48334 | 91° | 113km/h | 10517m | -4.3m/s | -46.1°C | 62.6% | 259.8hPa | 2.5V | 07:54:29 | 02:35:50 | 00:00:00 | |
| BIOWL1-15 | 2026-08-30 13:20:08 | 49.02335 | 10.47941 | 91° | 115km/h | 10555m | -4.2m/s | -46.3°C | 62.4% | 0hPa | 2.5V | 07:54:29 | 02:35:41 | 00:00:00 | |
| DK7TD | 2026-08-30 13:20:03 | 49.02336 | 10.47854 | 91° | 115km/h | 10564m | -4.3m/s | -46.5°C | 62.5% | 257.9hPa | 2.6V | 07:54:29 | 02:35:39 | 00:00:00 | |
| BIOWL1-15 | 2026-08-30 13:19:57 | 49.02337 | 10.47500 | 90° | 117km/h | 10598m | -4.4m/s | 0°C | 0% | 0hPa | 2.5V | 18:12:15 | 02:35:31 | 00:00:00 | |
| DK7TD | 2026-08-30 13:19:53 | 49.02337 | 10.47411 | 91° | 117km/h | 10607m | -4.3m/s | -46.8°C | 61.1% | 256.3hPa | 2.6V | 07:55:20 | 02:35:29 | 00:00:00 | |
| DB0ND-19 | 2026-08-30 13:19:50 | 49.02338 | 10.47276 | 91° | 117km/h | 10620m | -4.4m/s | -46.8°C | 53.8% | 255.7hPa | 2.5V | 00:00:00 | 00:00:00 | 00:00:00 | |
| DF7PN | 2026-08-30 13:19:48 | 49.02339 | 10.47140 | 91° | 117km/h | 10633m | -4.4m/s | -46.9°C | 53.1% | 255.2hPa | 2.5V | 00:00:00 | 00:00:00 | 00:00:00 | |
| BIOWL9-15 | 2026-08-30 13:19:46 | 49.02340 | 10.47095 | 90° | 117km/h | 10638m | -4.3m/s | -46.9°C | 52.7% | 255.1hPa | 2.5V | 00:00:00 | 00:00:00 | 00:00:00 | |
| DK7TD | 2026-08-30 13:19:42 | 49.02341 | 10.46914 | 91° | 117km/h | 10655m | -4.3m/s | -47.1°C | 57.9% | 254.4hPa | 2.5V | 07:55:20 | 02:35:18 | 00:00:00 | |
| DK7TD | 2026-08-30 13:19:32 | 49.02342 | 10.46463 | 90° | 119km/h | 10697m | -4.2m/s | -47.3°C | 57% | 252.8hPa | 2.5V | 07:55:20 | 02:35:08 | 00:00:00 | |
| DL1NUX | 2026-08-30 13:19:31 | 49.02342 | 10.46188 | 90° | 117km/h | 10723m | -4.3m/s | -47.5°C | 59.9% | 251.8hPa | 2.5V | 07:55:00 | 02:35:02 | 00:00:00 | |
| DK7TD | 2026-08-30 13:19:22 | 49.02341 | 10.46007 | 89° | 119km/h | 10741m | -4.4m/s | -47.6°C | 55.9% | 251.1hPa | 2.6V | 07:55:20 | 02:34:58 | 00:00:00 | |
| DM0DOS-11 | 2026-08-30 13:19:21 | 49.02340 | 10.45917 | 89° | 117km/h | 10749m | -4.4m/s | -47.7°C | 59% | 250.8hPa | 2.5V | 07:55:06 | 02:34:56 | 00:00:00 | |
| DK5PH-5 | 2026-08-30 13:19:20 | 49.02340 | 10.45917 | 90° | 117km/h | 10749m | -4.3m/s | -47.7°C | 59.0% | 250.7hPa | 2.5V | 00:00:00 | 02:34:56 | 00:00:00 | |
| DM7RM-13 | 2026-08-30 13:19:18 | 49.02340 | 10.45872 | 90° | 119km/h | 10754m | -4.4m/s | -47.7°C | 48.1% | 250.6hPa | 2.6V | 07:55:00 | 00:00:00 | 00:00:00 | |
| DF7PN | 2026-08-30 13:19:16 | 49.02338 | 10.45736 | 88° | 117km/h | 10767m | -4.5m/s | -47.9°C | 47.3% | 250.2hPa | 2.6V | 00:00:00 | 00:00:00 | 00:00:00 | |
| BIOWL9-15 | 2026-08-30 13:19:15 | 49.02337 | 10.45690 | 88° | 117km/h | 10772m | -4.5m/s | -47.9°C | 46.9% | 250.0hPa | 2.6V | 00:00:00 | 00:00:00 | 00:00:00 | |
| DO3MHA-11 | 2026-08-30 13:19:13 | 49.02336 | 10.45599 | 89° | 117km/h | 10781m | -4.3m/s | -48.0°C | 56.2% | 249.6hPa | 2.6V | 00:00:00 | 02:34:49 | 00:00:00 | |
| NBG1-10 | 2026-08-30 13:19:12 | 49.02335 | 10.45554 | 90° | 115km/h | 10785m | -4.2m/s | -48.0°C | 55.8% | 249.4hPa | 2.5V | 00:00:00 | 02:34:48 | 00:00:00 | |
| DM0DOS-11 | 2026-08-30 13:19:11 | 49.02335 | 10.45464 | 89° | 117km/h | 10794m | -4.3m/s | -48.1°C | 54.4% | 249.1hPa | 2.5V | 07:55:16 | 02:34:46 | 00:00:00 | |
| DK7TD | 2026-08-30 13:19:11 | 49.02335 | 10.45509 | 89° | 117km/h | 10789m | -4.4m/s | -48°C | 52.2% | 249.3hPa | 2.5V | 07:55:20 | 02:34:47 | 00:00:00 | |
| DF1GD-15 | 2026-08-30 13:19:08 | 49.02334 | 10.45419 | 90° | 117km/h | 10798m | -4.5m/s | -48.1°C | 43.5% | 249.0hPa | 2.5V | 07:55:00 | 00:00:00 | 00:00:00 | |
| DL6DJ-15 | 2026-08-30 13:19:07 | 49.02333 | 10.45330 | 89° | 115km/h | 10807m | -4.4m/s | -48.1°C | 42.5% | 248.7hPa | 2.5V | 00:00:00 | 00:00:00 | 00:00:00 | |
| DL9SK-14 | 2026-08-30 13:19:06 | 49.02333 | 10.45285 | 88° | 117km/h | 10811m | -4.4m/s | -48.1°C | 41.9% | 248.5hPa | 2.5V | 00:00:00 | 00:00:00 | 00:00:00 | |
| DB0UT-7 | 2026-08-30 13:19:05 | 49.02332 | 10.45240 | 89° | 115km/h | 10816m | -4.4m/s | -48.1°C | 51.5% | 248.3hPa | 2.5V | 00:00:00 | 00:00:00 | 00:00:00 | |
| DL0LBS | 2026-08-30 13:19:04 | 49.02332 | 10.45240 | 90° | 117km/h | 10816m | -4.5m/s | -48.2°C | 41.9% | 248.4hPa | 2.5V | 07:56:00 | 00:00:00 | 00:00:00 | |
| DO3MHA-11 | 2026-08-30 13:19:03 | 49.02331 | 10.45151 | 89° | 117km/h | 10824m | -4.3m/s | -48.1°C | 51.0% | 247.9hPa | 2.5V | 00:00:00 | 02:34:39 | 00:00:00 | |
| DM0DOS-11 | 2026-08-30 13:19:01 | 49.02328 | 10.45016 | 87° | 117km/h | 10837m | -4.5m/s | -48.3°C | 51% | 247.4hPa | 2.5V | 07:55:26 | 02:34:36 | 00:00:00 | |
| DK7TD | 2026-08-30 13:19:00 | 49.02328 | 10.45016 | 88° | 117km/h | 10838m | -4.5m/s | -48.3°C | 49.2% | 247.4hPa | 2.5V | 07:56:11 | 02:34:36 | 00:00:00 | |
| DL1ZP-14 | 2026-08-30 13:18:53 | 49.02321 | 10.44659 | 88° | 113km/h | 10874m | -4.6m/s | -48.7°C | 41.8% | 246.1hPa | 2.6V | 00:00:00 | 00:00:00 | 00:00:00 | |
| DN1GJH-1 | 2026-08-30 13:18:52 | 49.02322 | 10.44703 | 90° | 115km/h | 10869m | -4.5m/s | -48.7°C | 42.0% | 246.3hPa | 2.5V | 07:56:00 | 00:00:00 | 00:00:00 | |
| DM0DOS-11 | 2026-08-30 13:18:51 | 49.02320 | 10.44571 | 88° | 115km/h | 10883m | -4.3m/s | -48.7°C | 51.3% | 245.8hPa | 2.5V | 07:55:36 | 02:34:26 | 00:00:00 | |
| DK7TD | 2026-08-30 13:18:49 | 49.02319 | 10.44527 | 88° | 115km/h | 10887m | -4.6m/s | -48.9°C | 49.1% | 245.6hPa | 2.5V | 07:56:11 | 02:34:25 | 00:00:00 | |
| DJ8HS-15 | 2026-08-30 13:18:45 | 49.02316 | 10.44351 | 89° | 113km/h | 10905m | -4.4m/s | -49.0°C | 51.4% | 244.9hPa | 2.5V | 00:00:00 | 02:34:21 | 00:00:00 | |
| DO3MHA-11 | 2026-08-30 13:18:43 | 49.02314 | 10.44263 | 89° | 113km/h | 10914m | -4.4m/s | -49.1°C | 51.0% | 244.5hPa | 2.5V | 00:00:00 | 02:34:19 | 00:00:00 | |
| DM0DOS-11 | 2026-08-30 13:18:41 | 49.02312 | 10.44131 | 88° | 113km/h | 10927m | -4.5m/s | -49.2°C | 51.5% | 244.1hPa | 2.6V | 07:55:46 | 02:34:16 | 00:00:00 | |
| DK7TD | 2026-08-30 13:18:39 | 49.02312 | 10.44088 | 89° | 115km/h | 10932m | -4.6m/s | -49.2°C | 48.6% | 243.9hPa | 2.5V | 07:56:11 | 02:34:15 | 00:00:00 | |
| NBG1-10 | 2026-08-30 13:18:39 | 49.02312 | 10.44088 | 89° | 115km/h | 10932m | -4.5m/s | -49.2°C | 51.2% | 243.9hPa | 2.5V | 07:55:00 | 02:34:15 | 00:00:00 | |
| OE3JTB-15 | 2026-08-30 13:18:36 | 49.02310 | 10.43956 | 89° | 115km/h | 10946m | -4.4m/s | 0°C | 0% | 0hPa | 2.6V | 00:00:00 | 00:00:00 | 00:00:00 | |
| DB0UT-7 | 2026-08-30 13:18:35 | 49.02309 | 10.43912 | 89° | 117km/h | 10950m | -4.5m/s | -49.4°C | 51.1% | 243.2hPa | 2.6V | 00:00:00 | 02:34:11 | 00:00:00 | |
| DO3MHA-11 | 2026-08-30 13:18:33 | 49.02307 | 10.43825 | 88° | 113km/h | 10959m | -4.5m/s | -49.5°C | 50.6% | 242.9hPa | 2.6V | 00:00:00 | 02:34:09 | 00:00:00 | |
| DM0DOS-11 | 2026-08-30 13:18:31 | 49.02304 | 10.43694 | 87° | 113km/h | 10973m | -4.5m/s | -49.6°C | 49.9% | 242.4hPa | 2.6V | 07:55:56 | 02:34:06 | 00:00:00 | |
| DK7TD | 2026-08-30 13:18:28 | 49.02303 | 10.43606 | 88° | 115km/h | 10982m | -4.4m/s | -49.8°C | 48.5% | 242.1hPa | 2.5V | 07:56:11 | 02:34:04 | 00:00:00 | |
| DF1GD-15 | 2026-08-30 13:18:27 | 49.02303 | 10.43606 | 89° | 115km/h | 10982m | -4.4m/s | -49.8°C | 40.8% | 242.1hPa | 2.6V | 07:56:00 | 00:00:00 | 00:00:00 | |
| DJ8HS-15 | 2026-08-30 13:18:25 | 49.02300 | 10.43475 | 89° | 115km/h | 10995m | -4.4m/s | -49.8°C | 51.8% | 241.6hPa | 2.6V | 07:56:00 | 02:34:01 | 00:00:00 | |
| DO3MHA-11 | 2026-08-30 13:18:23 | 49.02298 | 10.43386 | 89° | 115km/h | 11004m | -4.5m/s | -49.9°C | 52.4% | 241.2hPa | 2.6V | 00:00:00 | 02:33:59 | 00:00:00 | |
| DM0DOS-11 | 2026-08-30 13:18:21 | 49.02295 | 10.43254 | 88° | 115km/h | 11017m | -4.3m/s | -50°C | 52.5% | 240.8hPa | 2.6V | 07:56:06 | 02:33:56 | 00:00:00 | |
| DL1NUX | 2026-08-30 13:18:21 | 49.02290 | 10.43077 | 87° | 115km/h | 11034m | -4.5m/s | -50.2°C | 51.6% | 240.1hPa | 2.5V | 07:56:10 | 02:33:52 | 00:00:00 | |
| DK7TD | 2026-08-30 13:18:18 | 49.02293 | 10.43166 | 88° | 115km/h | 11026m | -4.4m/s | -50.1°C | 49.5% | 240.5hPa | 2.5V | 07:56:11 | 02:33:54 | 00:00:00 | |
| DB0ND-19 | 2026-08-30 13:18:17 | 49.02290 | 10.43077 | 87° | 115km/h | 11034m | -4.5m/s | -50.2°C | 41.4% | 240.1hPa | 2.6V | 00:00:00 | 00:00:00 | 00:00:00 | |
| DM7RM-13 | 2026-08-30 13:18:15 | 49.02290 | 10.43077 | 89° | 117km/h | 11034m | -4.5m/s | -50.2°C | 41.4% | 240.1hPa | 2.6V | 07:56:00 | 00:00:00 | 00:00:00 | |
| DO3MHA-11 | 2026-08-30 13:18:13 | 49.02287 | 10.42943 | 88° | 115km/h | 11048m | -4.4m/s | -50.2°C | 51.6% | 239.6hPa | 2.6V | 00:00:00 | 02:33:49 | 00:00:00 | |
| DM0DOS-11 | 2026-08-30 13:18:11 | 49.02284 | 10.42810 | 87° | 115km/h | 11061m | -4.4m/s | -50.4°C | 51.6% | 239.2hPa | 2.5V | 07:56:16 | 02:33:46 | 00:00:00 | |
| DK7TD | 2026-08-30 13:18:08 | 49.02282 | 10.42721 | 87° | 117km/h | 11070m | -4.6m/s | -50.5°C | 48.9% | 238.9hPa | 2.6V | 07:57:02 | 02:33:44 | 00:00:00 | |
| OE3JTB-15 | 2026-08-30 13:18:07 | 49.02280 | 10.42677 | 88° | 117km/h | 11075m | -4.6m/s | 0°C | 0% | 0hPa | 2.5V | 00:00:00 | 02:33:43 | 00:00:00 | |
| NBG1-10 | 2026-08-30 13:18:06 | 49.02279 | 10.42632 | 88° | 117km/h | 11079m | -4.5m/s | -50.4°C | 51.9% | 238.4hPa | 2.5V | 00:00:00 | 02:33:42 | 00:00:00 | |
| DL9SK-14 | 2026-08-30 13:18:04 | 49.02276 | 10.42543 | 87° | 115km/h | 11088m | -4.6m/s | -50.6°C | 41.9% | 238.2hPa | 2.5V | 00:00:00 | 00:00:00 | 00:00:00 | |
| DO3MHA-11 | 2026-08-30 13:18:03 | 49.02275 | 10.42499 | 88° | 117km/h | 11093m | -4.4m/s | -50.6°C | 52.6% | 237.9hPa | 2.5V | 00:00:00 | 02:33:39 | 00:00:00 | |
| DL0LBS | 2026-08-30 13:18:02 | 49.02275 | 10.42499 | 89° | 117km/h | 11093m | -4.4m/s | -50.7°C | 42.2% | 238.0hPa | 2.5V | 07:57:00 | 00:00:00 | 00:00:00 | |
| DM0DOS-11 | 2026-08-30 13:18:01 | 49.02272 | 10.42364 | 88° | 119km/h | 11106m | -4.5m/s | -50.7°C | 53.1% | 237.5hPa | 2.5V | 07:56:26 | 02:33:36 | 00:00:00 | |
| DK7TD | 2026-08-30 13:17:57 | 49.02270 | 10.42228 | 88° | 119km/h | 11119m | -4.3m/s | -50.8°C | 51.1% | 237hPa | 2.6V | 07:57:02 | 02:33:33 | 00:00:00 | |
| BIOWL1-15 | 2026-08-30 13:17:52 | 49.02265 | 10.42003 | 88° | 117km/h | 11142m | -4.4m/s | -51°C | 52.7% | 236.2hPa | 2.6V | 07:57:02 | 02:33:28 | 00:00:00 | |
| DM0DOS-11 | 2026-08-30 13:17:51 | 49.02262 | 10.41913 | 87° | 117km/h | 11150m | -4.2m/s | -51.2°C | 57.1% | 235.9hPa | 2.5V | 07:56:36 | 02:33:26 | 00:00:00 | |
| DK7TD | 2026-08-30 13:17:46 | 49.02257 | 10.41734 | 88° | 119km/h | 11168m | -4.5m/s | -51.3°C | 54.1% | 235.2hPa | 2.5V | 07:57:02 | 02:33:22 | 00:00:00 | |
| BIOWL1-15 | 2026-08-30 13:17:41 | 49.02251 | 10.41507 | 89° | 119km/h | 11190m | -4.4m/s | -51.5°C | 54.4% | 234.4hPa | 2.6V | 07:57:02 | 02:33:17 | 00:00:00 | |
| DM0DOS-11 | 2026-08-30 13:17:41 | 49.02250 | 10.41461 | 88° | 119km/h | 11194m | -4.4m/s | -51.5°C | 58.1% | 234.3hPa | 2.5V | 07:56:46 | 02:33:16 | 00:00:00 | |
| DK7TD | 2026-08-30 13:17:36 | 49.02248 | 10.41279 | 89° | 119km/h | 11213m | -4.6m/s | -51.7°C | 54.8% | 233.7hPa | 2.6V | 07:57:02 | 02:33:12 | 00:00:00 | |
| DM7RM-13 | 2026-08-30 13:17:34 | 49.02247 | 10.41233 | 90° | 119km/h | 11217m | -4.5m/s | -51.7°C | 47.3% | 233.5hPa | 2.5V | 07:57:00 | 00:00:00 | 00:00:00 | |
| DO3MHA-11 | 2026-08-30 13:17:33 | 49.02246 | 10.41143 | 89° | 119km/h | 11226m | -4.6m/s | -51.8°C | 59.4% | 233.1hPa | 2.5V | 07:56:00 | 02:33:09 | 00:00:00 | |
| DM0DOS-11 | 2026-08-30 13:17:31 | 49.02244 | 10.41007 | 88° | 119km/h | 11240m | -4.6m/s | -52°C | 60.6% | 232.6hPa | 2.5V | 07:56:56 | 02:33:06 | 00:00:00 | |
| BIOWL1-15 | 2026-08-30 13:17:30 | 49.02242 | 10.40916 | 89° | 119km/h | 11249m | -4.5m/s | 0°C | 0% | 232.3hPa | 2.5V | 07:57:02 | 02:33:04 | 00:00:00 | |
| DK7TD | 2026-08-30 13:17:25 | 49.02239 | 10.40779 | 89° | 119km/h | 11262m | -4.5m/s | -52.1°C | 55.6% | 231.9hPa | 2.6V | 07:57:02 | 02:33:01 | 00:00:00 | |
| DJ8HS-15 | 2026-08-30 13:17:25 | 49.02239 | 10.40779 | 89° | 120km/h | 11263m | -4.5m/s | -52.1°C | 60.9% | 231.8hPa | 2.6V | 00:00:00 | 02:33:01 | 00:00:00 | |
| DL1NUX | 2026-08-30 13:17:24 | 49.02235 | 10.40503 | 88° | 120km/h | 11289m | -4.4m/s | -52.3°C | 58.8% | 230.9hPa | 2.5V | 07:57:07 | 02:32:55 | 00:00:00 | |
| BIOWL1-15 | 2026-08-30 13:17:18 | 49.02233 | 10.40457 | 88° | 120km/h | 11293m | -4.5m/s | 0°C | 0% | 230.8hPa | 2.5V | 07:58:44 | 02:32:54 | 00:00:00 | |
| DK7TD | 2026-08-30 13:17:15 | 49.02230 | 10.40317 | 88° | 120km/h | 11307m | -4.4m/s | -52.4°C | 54.5% | 230.3hPa | 2.6V | 07:57:53 | 02:32:51 | 00:00:00 | |
| DB0ND-19 | 2026-08-30 13:17:15 | 49.02229 | 10.40270 | 87° | 120km/h | 11311m | -4.5m/s | -52.5°C | 46.6% | 230.1hPa | 2.6V | 00:00:00 | 00:00:00 | 00:00:00 | |
| DL1NUX | 2026-08-30 13:17:14 | 49.02222 | 10.40037 | 87° | 120km/h | 11333m | -4.5m/s | -52.5°C | 60.6% | 229.3hPa | 2.6V | 07:57:17 | 02:32:45 | 00:00:00 | |
| BIOWL1-15 | 2026-08-30 13:17:07 | 49.02220 | 10.39944 | 88° | 120km/h | 11343m | -4.5m/s | 0°C | 0% | 228.9hPa | 2.5V | 07:58:44 | 02:32:43 | 00:00:00 | |
| DK7TD | 2026-08-30 13:17:04 | 49.02216 | 10.39804 | 88° | 120km/h | 11356m | -4.4m/s | -52.7°C | 56.2% | 228.5hPa | 2.6V | 07:57:53 | 02:32:40 | 00:00:00 | |
| BIOWL1-15 | 2026-08-30 13:16:57 | 49.02206 | 10.39476 | 87° | 124km/h | 11386m | -4.5m/s | 0°C | 0% | 227.4hPa | 2.5V | 07:58:44 | 02:32:33 | 00:00:00 | |
| DK7TD | 2026-08-30 13:16:54 | 49.02202 | 10.39335 | 87° | 122km/h | 11400m | -4.7m/s | -53°C | 57% | 227hPa | 2.6V | 07:57:53 | 02:32:30 | 00:00:00 | |
| DO3MHA-11 | 2026-08-30 13:16:53 | 49.02201 | 10.39289 | 88° | 120km/h | 11405m | -4.4m/s | -53.1°C | 62.4% | 226.7hPa | 2.5V | 00:00:00 | 02:32:29 | 00:00:00 | |
| DM0DOS-11 | 2026-08-30 13:16:50 | 49.02197 | 10.39150 | 88° | 120km/h | 11418m | -4.5m/s | -53.3°C | 62.8% | 226.3hPa | 2.5V | 07:57:36 | 02:32:26 | 00:00:00 | |
| DK5PH-5 | 2026-08-30 13:16:50 | 49.02197 | 10.39150 | 89° | 120km/h | 11418m | -4.5m/s | -53.2°C | 62.8% | 226.2hPa | 2.5V | 00:00:00 | 02:32:26 | 00:00:00 | |
| DN1GJH-1 | 2026-08-30 13:16:49 | 49.02197 | 10.39150 | 89° | 120km/h | 11418m | -4.5m/s | -53.3°C | 50.1% | 226.3hPa | 2.5V | 07:57:00 | 00:00:00 | 00:00:00 | |
| AZAK | 2026-08-30 13:16:47 | 49.02194 | 10.39012 | 89° | 120km/h | 11432m | -4.6m/s | -53.4°C | 49.8% | 225.8hPa | 2.5V | 07:57:00 | 00:00:00 | 00:00:00 | |
| DM0DOS-11 | 2026-08-30 13:16:45 | 49.02187 | 10.38691 | 88° | 119km/h | 11464m | -4.6m/s | -53.7°C | 63.4% | 224.7hPa | 2.5V | 07:57:46 | 02:32:16 | 00:00:00 | |
| SO1NDE-10 | 2026-08-30 13:16:45 | 49.02192 | 10.38920 | 89° | 120km/h | 11441m | -4.6m/s | -53.4°C | 62.0% | 225.5hPa | 2.5V | 00:00:00 | 02:32:21 | 00:00:00 | |
| DL1NUX | 2026-08-30 13:16:44 | 49.02186 | 10.38645 | 88° | 120km/h | 11468m | -4.4m/s | -53.7°C | 63.3% | 224.6hPa | 2.5V | 07:57:47 | 02:32:15 | 00:00:00 | |
| DK7TD | 2026-08-30 13:16:44 | 49.02191 | 10.38874 | 88° | 120km/h | 11446m | -4.6m/s | -53.5°C | 58.4% | 225.3hPa | 2.6V | 07:57:53 | 02:32:20 | 00:00:00 | |
| DO3MHA-11 | 2026-08-30 13:16:43 | 49.02190 | 10.38828 | 89° | 119km/h | 11450m | -4.5m/s | -53.6°C | 62.5% | 225.1hPa | 2.6V | 00:00:00 | 02:32:19 | 00:00:00 | |
| DB0UT-7 | 2026-08-30 13:16:42 | 49.02189 | 10.38782 | 89° | 119km/h | 11455m | -4.5m/s | -53.5°C | 62.4% | 225.0hPa | 2.5V | 00:00:00 | 00:00:00 | 00:00:00 | |
| DF7PN | 2026-08-30 13:16:41 | 49.02188 | 10.38737 | 87° | 119km/h | 11459m | -4.3m/s | -53.7°C | 50.0% | 224.9hPa | 2.5V | 00:00:00 | 00:00:00 | 00:00:00 | |
| DL0LBS | 2026-08-30 13:16:40 | 49.02188 | 10.38736 | 89° | 120km/h | 11459m | -4.3m/s | -53.7°C | 50.1% | 224.9hPa | 2.5V | 07:57:00 | 00:00:00 | 00:00:00 | |
| DJTTGO | 2026-08-30 13:16:36 | 49.02184 | 10.38552 | 89° | 119km/h | 11477m | -4.5m/s | -53.8°C | 51.5% | 224.2hPa | 2.5V | 00:00:00 | 00:00:00 | 00:00:00 | |
| DL1NUX | 2026-08-30 13:16:34 | 49.02176 | 10.38187 | 87° | 119km/h | 11513m | -4.5m/s | -54.1°C | 65.5% | 223hPa | 2.5V | 07:57:57 | 02:32:05 | 00:00:00 | |
| DM0DOS-11 | 2026-08-30 13:16:33 | 49.02177 | 10.38232 | 87° | 119km/h | 11509m | -4.5m/s | -54°C | 65.2% | 223.1hPa | 2.5V | 07:57:56 | 02:32:06 | 00:00:00 | |
| DK7TD | 2026-08-30 13:16:33 | 49.02180 | 10.38369 | 88° | 119km/h | 11495m | -4.6m/s | -53.9°C | 59.1% | 223.6hPa | 2.6V | 07:57:53 | 02:32:09 | 00:00:00 | |
| DO3MHA-11 | 2026-08-30 13:16:33 | 49.02180 | 10.38369 | 88° | 119km/h | 11495m | -4.5m/s | -53.9°C | 65.2% | 223.5hPa | 2.5V | 00:00:00 | 02:32:09 | 00:00:00 | |
| DL6DJ-15 | 2026-08-30 13:16:32 | 49.02179 | 10.38323 | 88° | 117km/h | 11499m | -4.5m/s | -54.0°C | 51.7% | 223.4hPa | 2.5V | 00:00:00 | 00:00:00 | 00:00:00 | |
| DL9SK-14 | 2026-08-30 13:16:31 | 49.02178 | 10.38278 | 87° | 119km/h | 11504m | -4.6m/s | -54.1°C | 52.1% | 223.3hPa | 2.5V | 00:00:00 | 00:00:00 | 00:00:00 | |
| DN1GJH-1 | 2026-08-30 13:16:28 | 49.02176 | 10.38186 | 89° | 119km/h | 11513m | -4.5m/s | -54.1°C | 52.1% | 223.0hPa | 2.5V | 07:58:00 | 00:00:00 | 00:00:00 | |
| NBG1-10 | 2026-08-30 13:16:27 | 49.02173 | 10.38095 | 88° | 119km/h | 11522m | -4.3m/s | -54.2°C | 65.6% | 222.6hPa | 2.5V | 00:00:00 | 02:32:03 | 00:00:00 | |
| AZAK | 2026-08-30 13:16:26 | 49.02173 | 10.38095 | 88° | 119km/h | 11522m | -4.3m/s | -54.2°C | 52.1% | 222.7hPa | 2.5V | 00:00:00 | 00:00:00 | 00:00:00 | |
| DJ8HS-15 | 2026-08-30 13:16:25 | 49.02171 | 10.38002 | 88° | 119km/h | 11531m | -4.1m/s | -54.3°C | 65.9% | 222.3hPa | 2.5V | 00:00:00 | 02:32:01 | 00:00:00 | |
| DM0DOS-11 | 2026-08-30 13:16:23 | 49.02164 | 10.37771 | 87° | 120km/h | 11552m | -4.5m/s | -54.6°C | 66.4% | 221.6hPa | 2.5V | 07:58:06 | 02:31:56 | 00:00:00 | |
| DK7TD | 2026-08-30 13:16:22 | 49.02167 | 10.37863 | 88° | 120km/h | 11543m | -4.3m/s | -54.5°C | 60.4% | 221.9hPa | 2.6V | 07:58:44 | 02:31:58 | 00:00:00 | |
| BIOWL1-15 | 2026-08-30 13:16:13 | 49.02133 | 10.36994 | 86° | 119km/h | 11629m | -4.5m/s | 0°C | 0% | 218.9hPa | 2.5V | 07:58:44 | 02:31:39 | 00:00:00 | |
| DB0ND-19 | 2026-08-30 13:16:13 | 49.02153 | 10.37406 | 86° | 119km/h | 11588m | -4.5m/s | -54.8°C | 53.3% | 220.4hPa | 2.6V | 00:00:00 | 00:00:00 | 00:00:00 | |
| DM0DOS-11 | 2026-08-30 13:16:12 | 49.02148 | 10.37314 | 85° | 119km/h | 11597m | -4.6m/s | -54.8°C | 67.5% | 220hPa | 2.6V | 07:58:16 | 02:31:46 | 00:00:00 | |
| DK7TD | 2026-08-30 13:16:12 | 49.02153 | 10.37406 | 87° | 119km/h | 11588m | -4.5m/s | -54.8°C | 61.5% | 220.4hPa | 2.5V | 07:58:44 | 02:31:48 | 00:00:00 | |
| DB0UT-7 | 2026-08-30 13:16:12 | 49.02153 | 10.37406 | 87° | 119km/h | 11588m | -4.4m/s | -54.7°C | 67.3% | 220.3hPa | 2.6V | 00:00:00 | 02:31:48 | 00:00:00 | |
| DM7RM-13 | 2026-08-30 13:16:11 | 49.02153 | 10.37406 | 87° | 119km/h | 11588m | -4.5m/s | -54.7°C | 53.4% | 220.4hPa | 2.6V | 07:58:00 | 00:00:00 | 00:00:00 | |
| DF7PN | 2026-08-30 13:16:10 | 49.02148 | 10.37314 | 85° | 117km/h | 11597m | -4.6m/s | -54.8°C | 53.5% | 220.1hPa | 2.6V | 00:00:00 | 00:00:00 | 00:00:00 | |
| DN1GJH-1 | 2026-08-30 13:16:08 | 49.02146 | 10.37268 | 87° | 120km/h | 11602m | -4.6m/s | -54.9°C | 54.0% | 219.9hPa | 2.6V | 07:58:00 | 00:00:00 | 00:00:00 | |
| AZAK | 2026-08-30 13:16:06 | 49.02139 | 10.37131 | 87° | 120km/h | 11616m | -4.6m/s | -55.0°C | 55.1% | 219.4hPa | 2.6V | 00:00:00 | 00:00:00 | 00:00:00 | |
| DJ8HS-15 | 2026-08-30 13:16:05 | 49.02137 | 10.37086 | 86° | 119km/h | 11620m | -4.6m/s | -55.0°C | 69.3% | 219.2hPa | 2.6V | 00:00:00 | 02:31:41 | 00:00:00 | |
| DJTTGO | 2026-08-30 13:16:04 | 49.02135 | 10.37040 | 87° | 119km/h | 11625m | -4.6m/s | -55.1°C | 54.9% | 219.1hPa | 2.6V | 07:58:00 | 00:00:00 | 00:00:00 | |
| DO3MHA-11 | 2026-08-30 13:16:03 | 49.02133 | 10.36994 | 87° | 119km/h | 11629m | -4.5m/s | -55.0°C | 69.3% | 218.9hPa | 2.6V | 00:00:00 | 02:31:39 | 00:00:00 | |
| DM0DOS-11 | 2026-08-30 13:16:02 | 49.02128 | 10.36857 | 86° | 119km/h | 11643m | -4.8m/s | -55.2°C | 68.8% | 218.5hPa | 2.6V | 07:58:26 | 02:31:36 | 00:00:00 | |
| DK7TD | 2026-08-30 13:16:01 | 49.02129 | 10.36903 | 87° | 120km/h | 11638m | -4.6m/s | -55.1°C | 63.1% | 218.6hPa | 2.6V | 07:58:44 | 02:31:37 | 00:00:00 | |
| BIOWL1-15 | 2026-08-30 13:15:54 | 49.02115 | 10.36537 | 86° | 120km/h | 11676m | -4.7m/s | 0°C | 0% | 217.4hPa | 2.5V | 07:58:44 | 02:31:29 | 00:00:00 | |
| NBG1-10 | 2026-08-30 13:15:54 | 49.02117 | 10.36583 | 87° | 120km/h | 11671m | -4.7m/s | -55.2°C | 69.3% | 217.4hPa | 2.6V | 00:00:00 | 02:31:30 | 00:00:00 | |
| DO3MHA-11 | 2026-08-30 13:15:53 | 49.02115 | 10.36537 | 86° | 120km/h | 11676m | -4.6m/s | -55.3°C | 69.5% | 217.3hPa | 2.6V | 00:00:00 | 02:31:29 | 00:00:00 | |
| DM0DOS-11 | 2026-08-30 13:15:52 | 49.02108 | 10.36400 | 85° | 119km/h | 11690m | -4.7m/s | -55.4°C | 69.5% | 216.8hPa | 2.6V | 07:58:36 | 02:31:26 | 00:00:00 | |
| OE5DXL-15 | 2026-08-30 13:15:52 | 49.02113 | 10.36492 | 86° | 119km/h | 11681m | -4.6m/s | -55.3°C | 69.3% | 217.2hPa | 2.6V | 00:00:00 | 00:00:00 | 00:00:00 | |
| DL1NUX | 2026-08-30 13:15:51 | 49.02099 | 10.36216 | 85° | 120km/h | 11709m | -4.7m/s | -55.6°C | 71.3% | 216.2hPa | 2.6V | 07:58:40 | 02:31:22 | 00:00:00 | |
| DK7TD | 2026-08-30 13:15:50 | 49.02108 | 10.36400 | 85° | 119km/h | 11690m | -4.7m/s | -55.4°C | 63.2% | 216.8hPa | 2.6V | 07:58:44 | 02:31:26 | 00:00:00 | |
| DL1ZP-14 | 2026-08-30 13:15:46 | 49.02099 | 10.36216 | 85° | 119km/h | 11709m | -4.7m/s | -55.6°C | 56.3% | 216.2hPa | 2.6V | 00:00:00 | 00:00:00 | 00:00:00 | |
| DM0DOS-11 | 2026-08-30 13:15:45 | 49.02085 | 10.35940 | 85° | 120km/h | 11737m | -4.8m/s | -55.9°C | 71% | 215.3hPa | 2.6V | 07:58:46 | 02:31:16 | 00:00:00 | |
| BIOWL1-15 | 2026-08-30 13:15:45 | 49.02092 | 10.36078 | 86° | 120km/h | 11723m | -4.7m/s | 0°C | 0% | 215.8hPa | 2.5V | 07:58:44 | 02:31:19 | 00:00:00 | |
| DJ8HS-15 | 2026-08-30 13:15:45 | 49.02096 | 10.36170 | 86° | 119km/h | 11714m | -4.7m/s | -55.6°C | 71.7% | 216.0hPa | 2.5V | 07:58:00 | 02:31:21 | 00:00:00 | |
| DO3MHA-11 | 2026-08-30 13:15:43 | 49.02092 | 10.36078 | 87° | 119km/h | 11723m | -4.7m/s | -55.7°C | 71.5% | 215.7hPa | 2.5V | 00:00:00 | 02:31:19 | 00:00:00 | |
| DB0ND-19 | 2026-08-30 13:15:42 | 49.02088 | 10.35986 | 86° | 119km/h | 11732m | -4.7m/s | -55.8°C | 56.1% | 215.4hPa | 2.5V | 00:00:00 | 00:00:00 | 00:00:00 | |
| DL1NUX | 2026-08-30 13:15:41 | 49.02076 | 10.35757 | 85° | 119km/h | 11756m | -4.7m/s | -56.1°C | 69.1% | 214.7hPa | 2.5V | 07:58:50 | 02:31:12 | 00:00:00 | |
| DK7TD | 2026-08-30 13:15:40 | 49.02085 | 10.35940 | 86° | 120km/h | 11737m | -4.8m/s | -55.9°C | 63.5% | 215.3hPa | 2.6V | 07:59:35 | 02:31:16 | 00:00:00 | |
| DF7PN | 2026-08-30 13:15:39 | 49.02083 | 10.35894 | 85° | 119km/h | 11742m | -4.7m/s | -55.9°C | 55.2% | 215.1hPa | 2.6V | 00:00:00 | 00:00:00 | 00:00:00 | |
| BIOWL9-15 | 2026-08-30 13:15:38 | 49.02081 | 10.35848 | 85° | 119km/h | 11747m | -4.7m/s | 0°C | -1.0% | -1.0hPa | 2.6V | 00:00:00 | 00:00:00 | 00:00:00 | |
| DO3MHA-11 | 2026-08-30 13:15:33 | 49.02068 | 10.35620 | 86° | 120km/h | 11770m | -4.6m/s | -56.0°C | 68.2% | 214.1hPa | 2.6V | 00:00:00 | 02:31:09 | 00:00:00 | |
| DM0DOS-11 | 2026-08-30 13:15:32 | 49.02061 | 10.35483 | 85° | 120km/h | 11784m | -4.7m/s | -56.2°C | 68.2% | 213.7hPa | 2.6V | 07:58:56 | 02:31:06 | 00:00:00 | |
| BIOWL1-15 | 2026-08-30 13:15:32 | 49.02066 | 10.35575 | 85° | 119km/h | 11775m | -4.7m/s | 0°C | 0% | 0hPa | 2.5V | 18:12:15 | 02:31:08 | 00:00:00 | |
| DK7TD | 2026-08-30 13:15:29 | 49.02058 | 10.35438 | 85° | 119km/h | 11789m | -4.7m/s | -56.2°C | 62.1% | 213.5hPa | 2.6V | 07:59:35 | 02:31:05 | 00:00:00 | |
| BIOWL1-15 | 2026-08-30 13:15:24 | 49.02039 | 10.35115 | 85° | 120km/h | 11822m | -4.7m/s | 0°C | 0% | 0hPa | 2.6V | 18:12:15 | 02:30:58 | 00:00:00 | |
| DO3MHA-11 | 2026-08-30 13:15:23 | 49.02042 | 10.35161 | 85° | 119km/h | 11818m | -4.6m/s | -56.4°C | 68.7% | 212.6hPa | 2.5V | 00:00:00 | 02:30:59 | 00:00:00 | |
| DM0DOS-11 | 2026-08-30 13:15:22 | 49.02033 | 10.35024 | 84° | 119km/h | 11832m | -4.7m/s | -56.6°C | 69.7% | 212.1hPa | 2.5V | 07:59:06 | 02:30:56 | 00:00:00 | |
| DK7TD | 2026-08-30 13:15:18 | 49.02028 | 10.34932 | 85° | 119km/h | 11841m | -4.8m/s | -56.7°C | 62.5% | 211.7hPa | 2.6V | 07:59:35 | 02:30:54 | 00:00:00 | |
| BIOWL1-15 | 2026-08-30 13:15:11 | 49.02009 | 10.34565 | 85° | 120km/h | 11879m | -4.7m/s | 0°C | 0% | 0hPa | 2.5V | 18:12:15 | 02:30:46 | 00:00:00 | |
| DM0DOS-11 | 2026-08-30 13:15:10 | 49.02009 | 10.34564 | 85° | 120km/h | 11879m | -4.7m/s | -57.2°C | 70.4% | 210.5hPa | 2.5V | 07:59:16 | 02:30:46 | 00:00:00 | |
| DK7TD | 2026-08-30 13:15:07 | 49.02001 | 10.34426 | 85° | 120km/h | 11894m | -4.8m/s | -57.1°C | 62.2% | 210hPa | 2.6V | 07:59:35 | 02:30:43 | 00:00:00 | |
| DO9HM | 2026-08-30 13:15:07 | 49.02001 | 10.34426 | 86° | 120km/h | 11894m | -4.8m/s | -57.1°C | 54.6% | 210.0hPa | 2.5V | 07:59:00 | 00:00:00 | 00:00:00 | |
| DN1GJH-1 | 2026-08-30 13:15:06 | 49.02001 | 10.34426 | 86° | 120km/h | 11894m | -4.8m/s | -57.1°C | 54.6% | 210.0hPa | 2.5V | 07:59:00 | 00:00:00 | 00:00:00 | |
| DJ8HS-15 | 2026-08-30 13:15:05 | 49.01995 | 10.34334 | 85° | 120km/h | 11903m | -4.8m/s | -57.2°C | 69.8% | 209.6hPa | 2.5V | 00:00:00 | 02:30:41 | 00:00:00 | |
| DM0DOS-11 | 2026-08-30 13:15:00 | 49.01982 | 10.34103 | 85° | 120km/h | 11927m | -4.8m/s | -57.5°C | 68.2% | 208.9hPa | 2.5V | 07:59:26 | 02:30:36 | 00:00:00 | |
| BIOWL1-15 | 2026-08-30 13:15:00 | 49.01982 | 10.34103 | 86° | 120km/h | 11927m | -4.8m/s | 0°C | 0% | 0hPa | 2.5V | 18:12:15 | 02:30:36 | 00:00:00 | |
| DK7TD | 2026-08-30 13:14:57 | 49.01975 | 10.33963 | 86° | 122km/h | 11941m | -4.8m/s | -57.7°C | 60.1% | 208.4hPa | 2.6V | 07:59:35 | 02:30:33 | 00:00:00 | |
| DJTTGO | 2026-08-30 13:14:57 | 49.01975 | 10.33963 | 87° | 122km/h | 11941m | -4.8m/s | -57.7°C | 52.6% | 208.4hPa | 2.6V | 00:00:00 | 00:00:00 | 00:00:00 | |
| DO3MHA-11 | 2026-08-30 13:14:53 | 49.01968 | 10.33774 | 87° | 120km/h | 11961m | -4.7m/s | -57.7°C | 65.7% | 207.8hPa | 2.6V | 07:59:00 | 02:30:29 | 00:00:00 | |
| DM0DOS-11 | 2026-08-30 13:14:50 | 49.01963 | 10.33634 | 86° | 120km/h | 11975m | -4.8m/s | -57.8°C | 64.7% | 207.3hPa | 2.6V | 07:59:36 | 02:30:26 | 00:00:00 | |
| DK7TD | 2026-08-30 13:14:47 | 49.01959 | 10.33496 | 87° | 119km/h | 11990m | -4.8m/s | -57.9°C | 57.7% | 206.8hPa | 2.6V | 08:00:26 | 02:30:23 | 00:00:00 | |
| DO9HM | 2026-08-30 13:14:46 | 49.01958 | 10.33450 | 89° | 119km/h | 11994m | -4.9m/s | -58.0°C | 48.9% | 206.7hPa | 2.6V | 08:00:00 | 00:00:00 | 00:00:00 | |
| DM0DOS-11 | 2026-08-30 13:14:45 | 49.01951 | 10.33173 | 87° | 122km/h | 12023m | -4.7m/s | -58.2°C | 63.3% | 205.7hPa | 2.6V | 07:59:46 | 02:30:16 | 00:00:00 | |
| DL1ZP-14 | 2026-08-30 13:14:44 | 49.01955 | 10.33358 | 87° | 119km/h | 12004m | -4.9m/s | -58.1°C | 49.2% | 206.4hPa | 2.5V | 00:00:00 | 00:00:00 | 00:00:00 | |
| DK7TD | 2026-08-30 13:14:36 | 49.01944 | 10.32985 | 87° | 122km/h | 12043m | -4.9m/s | -58.3°C | 55.6% | 205.1hPa | 2.6V | 08:00:26 | 02:30:12 | 00:00:00 | |
| DK7TD | 2026-08-30 13:14:25 | 49.01934 | 10.32483 | 91° | 117km/h | 12097m | -4.9m/s | -58.7°C | 52.7% | 203.4hPa | 2.6V | 08:00:26 | 02:30:01 | 00:00:00 | |
| DJ8HS-15 | 2026-08-30 13:14:25 | 49.01934 | 10.32483 | 91° | 113km/h | 12097m | -4.8m/s | -58.7°C | 60.1% | 203.3hPa | 2.6V | 00:00:00 | 02:30:01 | 00:00:00 | |
| DN1GJH-1 | 2026-08-30 13:14:24 | 49.01934 | 10.32483 | 92° | 117km/h | 12097m | -4.9m/s | -58.7°C | 45.8% | 203.4hPa | 2.5V | 00:00:00 | 00:00:00 | 00:00:00 | |
| DO3MHA-11 | 2026-08-30 13:14:23 | 49.01935 | 10.32394 | 91° | 115km/h | 12107m | -4.9m/s | -58.8°C | 58.9% | 203.0hPa | 2.5V | 00:00:00 | 02:29:59 | 00:00:00 | |
| DJTTGO | 2026-08-30 13:14:22 | 49.01935 | 10.32394 | 92° | 115km/h | 12107m | -4.9m/s | -58.8°C | 44.8% | 203.1hPa | 2.5V | 08:00:00 | 00:00:00 | 00:00:00 | |
| DL1NUX | 2026-08-30 13:14:20 | 49.01936 | 10.32040 | 90° | 113km/h | 12146m | -5m/s | -58.6°C | 55.9% | 201.7hPa | 2.5V | 08:00:11 | 02:29:51 | 00:00:00 | |
| DK7TD | 2026-08-30 13:14:14 | 49.01936 | 10.31996 | 90° | 115km/h | 12151m | -5m/s | -58.6°C | 48.6% | 201.6hPa | 2.6V | 08:00:26 | 02:29:50 | 00:00:00 | |
| DO3MHA-11 | 2026-08-30 13:14:13 | 49.01936 | 10.31952 | 91° | 111km/h | 12156m | -5.0m/s | -58.6°C | 55.3% | 201.4hPa | 2.6V | 08:00:00 | 02:29:49 | 00:00:00 | |
| AZAK | 2026-08-30 13:14:12 | 49.01936 | 10.31952 | 92° | 113km/h | 12156m | -5.0m/s | -58.7°C | 41.9% | 201.5hPa | 2.6V | 08:00:00 | 00:00:00 | 00:00:00 | |
| DL1NUX | 2026-08-30 13:14:09 | 49.01950 | 10.31565 | 95° | 110km/h | 12201m | -5.1m/s | -58.9°C | 50.4% | 200hPa | 2.6V | 08:00:22 | 02:29:40 | 00:00:00 | |
| DB0UT-7 | 2026-08-30 13:14:09 | 49.01940 | 10.31778 | 93° | 104km/h | 12176m | -5.0m/s | -58.7°C | 53.8% | 200.7hPa | 2.5V | 00:00:00 | 00:00:00 | 00:00:00 | |
| DB0ND-19 | 2026-08-30 13:14:08 | 49.01941 | 10.31735 | 93° | 111km/h | 12181m | -4.8m/s | -58.8°C | 39.8% | 200.6hPa | 2.5V | 00:00:00 | 00:00:00 | 00:00:00 | |
| DM7RM-13 | 2026-08-30 13:14:07 | 49.01941 | 10.31735 | 94° | 111km/h | 12181m | -4.8m/s | -58.8°C | 39.9% | 200.6hPa | 2.5V | 08:00:00 | 00:00:00 | 00:00:00 | |
| SO1NDE-10 | 2026-08-30 13:14:06 | 49.01945 | 10.31649 | 94° | 104km/h | 12191m | -5.1m/s | -58.8°C | 51.8% | 200.2hPa | 2.5V | 00:00:00 | 02:29:42 | 00:00:00 | |
| DM0DOS-11 | 2026-08-30 13:14:05 | 49.01961 | 10.31399 | 96° | 108km/h | 12221m | -5.3m/s | -59°C | 47.9% | 199.3hPa | 2.5V | 08:00:26 | 02:29:36 | 00:00:00 | |
| DK7TD | 2026-08-30 13:14:04 | 49.01950 | 10.31565 | 95° | 110km/h | 12201m | -5.1m/s | -58.9°C | 43.8% | 200hPa | 2.6V | 08:00:26 | 02:29:40 | 00:00:00 | |
| DO3MHA-11 | 2026-08-30 13:14:03 | 49.01952 | 10.31523 | 96° | 106km/h | 12206m | -5.0m/s | -58.9°C | 49.5% | 199.8hPa | 2.6V | 00:00:00 | 02:29:39 | 00:00:00 | |
| DL1NUX | 2026-08-30 13:13:58 | 49.01984 | 10.31118 | 96° | 102km/h | 12256m | -4.8m/s | -58.8°C | 40.8% | 198.3hPa | 2.6V | 08:00:33 | 02:29:29 | 00:00:00 | |
| DL6DJ-15 | 2026-08-30 13:13:57 | 49.01974 | 10.31237 | 96° | 106km/h | 12242m | -4.9m/s | -59.0°C | 32.7% | 198.7hPa | 2.6V | 00:00:00 | 00:00:00 | 00:00:00 | |
| DL9SK-14 | 2026-08-30 13:13:56 | 49.01977 | 10.31197 | 97° | 102km/h | 12247m | -5.0m/s | -59.0°C | 32.0% | 198.6hPa | 2.6V | 00:00:00 | 00:00:00 | 00:00:00 | |
| DM0DOS-11 | 2026-08-30 13:13:55 | 49.01994 | 10.31000 | 96° | 102km/h | 12271m | -5.1m/s | -58.7°C | 38.1% | 197.8hPa | 2.6V | 08:00:36 | 02:29:26 | 00:00:00 | |
| DK7TD | 2026-08-30 13:13:54 | 49.01980 | 10.31157 | 98° | 104km/h | 12251m | -5m/s | -58.9°C | 36.5% | 198.4hPa | 2.6V | 08:01:17 | 02:29:30 | 00:00:00 | |
| DO3MHA-11 | 2026-08-30 13:13:53 | 49.01984 | 10.31118 | 97° | 100km/h | 12257m | -4.8m/s | -58.7°C | 40.8% | 198.2hPa | 2.6V | 00:00:00 | 02:29:29 | 00:00:00 | |
| DK5PH-5 | 2026-08-30 13:13:50 | 49.01993 | 10.31000 | 97° | 99km/h | 12272m | -5.0m/s | -58.6°C | 38.1% | 197.7hPa | 2.6V | 00:00:00 | 02:29:26 | 00:00:00 | |
| OE5DXL-15 | 2026-08-30 13:13:49 | 49.01996 | 10.30961 | 97° | 99km/h | 12277m | -5.1m/s | -58.6°C | 37.4% | 197.6hPa | 2.6V | 08:00:00 | 00:00:00 | 00:00:00 | |
| DJTTGO | 2026-08-30 13:13:48 | 49.01997 | 10.30961 | 98° | 102km/h | 12277m | -5.1m/s | -58.6°C | 27.1% | 197.6hPa | 2.5V | 00:00:00 | 00:00:00 | 00:00:00 | |
| DM7RM-13 | 2026-08-30 13:13:47 | 49.01999 | 10.30922 | 97° | 100km/h | 12282m | -5.1m/s | -58.6°C | 26.4% | 197.5hPa | 2.5V | 08:01:00 | 00:00:00 | 00:00:00 | |
| DM0DOS-11 | 2026-08-30 13:13:45 | 49.02020 | 10.30618 | 94° | 99km/h | 12322m | -5.1m/s | -58.4°C | 31.7% | 196.2hPa | 2.5V | 08:00:46 | 02:29:16 | 00:00:00 | |
| DK7TD | 2026-08-30 13:13:43 | 49.02013 | 10.30732 | 95° | 99km/h | 12307m | -5m/s | -58.4°C | 29.8% | 196.7hPa | 2.6V | 08:01:17 | 02:29:19 | 00:00:00 | |
| NBG1-10 | 2026-08-30 13:13:42 | 49.02015 | 10.30694 | 96° | 99km/h | 12312m | -5.0m/s | -58.3°C | 32.6% | 196.5hPa | 2.6V | 08:00:00 | 02:29:18 | 00:00:00 | |
| DL1NUX | 2026-08-30 13:13:41 | 49.02027 | 10.30467 | 94° | 99km/h | 12342m | -4.9m/s | -58.4°C | 30.5% | 195.5hPa | 2.6V | 08:00:50 | 02:29:12 | 00:00:00 | |
| BIOWL1-15 | 2026-08-30 13:13:40 | 49.02019 | 10.30618 | 95° | 99km/h | 12322m | -5.1m/s | -58.4°C | 28.4% | 196.2hPa | 2.5V | 08:01:17 | 02:29:16 | 00:00:00 | |
| DB0UT-7 | 2026-08-30 13:13:39 | 49.02021 | 10.30580 | 95° | 99km/h | 12327m | -4.9m/s | -58.3°C | 31.3% | 196.0hPa | 2.5V | 00:00:00 | 02:29:15 | 00:00:00 | |
| DF1GD-15 | 2026-08-30 13:13:37 | 49.02024 | 10.30542 | 95° | 99km/h | 12333m | -5.0m/s | -58.4°C | 22.0% | 195.9hPa | 2.5V | 08:01:00 | 00:00:00 | 00:00:00 | |
| SO1NDE-10 | 2026-08-30 13:13:36 | 49.02027 | 10.30467 | 95° | 99km/h | 12342m | -4.8m/s | -58.3°C | 30.5% | 195.5hPa | 2.5V | 00:00:00 | 02:29:12 | 00:00:00 | |
| DM0DOS-11 | 2026-08-30 13:13:35 | 49.02034 | 10.30240 | 89° | 97km/h | 12372m | -5.1m/s | -58.4°C | 28.1% | 194.7hPa | 2.5V | 08:00:56 | 02:29:06 | 00:00:00 | |
| DK7TD | 2026-08-30 13:13:33 | 49.02032 | 10.30354 | 92° | 99km/h | 12357m | -4.8m/s | -58.4°C | 26% | 195.1hPa | 2.6V | 08:01:17 | 02:29:09 | 00:00:00 | |
| BIOWL1-15 | 2026-08-30 13:13:32 | 49.02034 | 10.30240 | 90° | 99km/h | 12372m | -5.1m/s | -58.4°C | 25% | 194.7hPa | 2.5V | 08:01:17 | 02:29:06 | 00:00:00 | |
| AZAK | 2026-08-30 13:13:28 | 49.02034 | 10.30203 | 91° | 99km/h | 12377m | -5.0m/s | -58.4°C | 19.3% | 194.5hPa | 2.6V | 08:01:00 | 00:00:00 | 00:00:00 | |
| DL1NUX | 2026-08-30 13:13:27 | 49.02029 | 10.29941 | 87° | 97km/h | 12411m | -4.9m/s | -58.5°C | 25.3% | 193.4hPa | 2.6V | 08:01:04 | 02:28:58 | 00:00:00 | |
| DL6DJ-15 | 2026-08-30 13:13:26 | 49.02032 | 10.30053 | 88° | 95km/h | 12397m | -5.2m/s | -58.5°C | 18.2% | 193.9hPa | 2.5V | 00:00:00 | 00:00:00 | 00:00:00 | |
| DM0DOS-11 | 2026-08-30 13:13:25 | 49.02026 | 10.29867 | 86° | 97km/h | 12422m | -5m/s | -58.5°C | 24.2% | 193.1hPa | 2.5V | 08:01:06 | 02:28:56 | 00:00:00 | |
| DK7TD | 2026-08-30 13:13:23 | 49.02030 | 10.29978 | 87° | 97km/h | 12407m | -5.1m/s | -58.5°C | 22.6% | 193.6hPa | 2.6V | 08:01:17 | 02:28:59 | 00:00:00 | |
| BIOWL1-15 | 2026-08-30 13:13:23 | 49.02025 | 10.29829 | 87° | 99km/h | 12427m | -4.9m/s | -58.6°C | 21.1% | 193hPa | 2.5V | 08:01:17 | 02:28:55 | 00:00:00 | |
| DO9HM | 2026-08-30 13:13:23 | 49.02030 | 10.29978 | 88° | 97km/h | 12407m | -5.1m/s | -58.5°C | 17.6% | 193.6hPa | 2.5V | 08:01:00 | 00:00:00 | 00:00:00 | |
| DN1GJH-1 | 2026-08-30 13:13:22 | 49.02030 | 10.29978 | 88° | 97km/h | 12407m | -5.1m/s | -58.5°C | 17.6% | 193.6hPa | 2.5V | 08:01:00 | 00:00:00 | 00:00:00 | |
| DK5PH-5 | 2026-08-30 13:13:20 | 49.02027 | 10.29867 | 87° | 100km/h | 12422m | -5.0m/s | -58.4°C | 24.2% | 193.0hPa | 2.5V | 08:01:00 | 02:28:56 | 00:00:00 | |
| OE5DXL-15 | 2026-08-30 13:13:19 | 49.02025 | 10.29829 | 87° | 100km/h | 12427m | -4.8m/s | -58.5°C | 24.2% | 192.9hPa | 2.5V | 00:00:00 | 00:00:00 | 00:00:00 | |
| DF1GD-15 | 2026-08-30 13:13:16 | 49.02022 | 10.29754 | 88° | 99km/h | 12436m | -4.8m/s | -58.4°C | 15.6% | 192.7hPa | 2.5V | 08:01:00 | 00:00:00 | 00:00:00 | |
| DM0DOS-11 | 2026-08-30 13:13:15 | 49.02003 | 10.29450 | 82° | 99km/h | 12475m | -4.7m/s | -58.2°C | 19.2% | 191.5hPa | 2.5V | 08:01:17 | 02:28:45 | 00:00:00 | |
| DG1MJG | 2026-08-30 13:13:15 | 49.02019 | 10.29678 | 86° | 99km/h | 12446m | -4.9m/s | -58.3°C | 14.9% | 192.4hPa | 2.5V | 08:01:00 | 00:00:00 | 00:00:00 | |
| DL1NUX | 2026-08-30 13:13:14 | 49.02003 | 10.29450 | 82° | 99km/h | 12475m | -4.7m/s | -58.2°C | 19.2% | 191.5hPa | 2.5V | 08:01:17 | 02:28:45 | 00:00:00 | |
| DK7TD | 2026-08-30 13:13:12 | 49.02012 | 10.29564 | 84° | 99km/h | 12461m | -4.6m/s | -58.3°C | 18% | 192hPa | 2.6V | 08:01:17 | 02:28:48 | 00:00:00 | |
| BIOWL1-15 | 2026-08-30 13:13:09 | 49.02004 | 10.29450 | 83° | 99km/h | 12475m | -4.7m/s | -58.2°C | 16.7% | 191.6hPa | 2.5V | 08:01:17 | 02:28:45 | 00:00:00 | |
| DB0UT-7 | 2026-08-30 13:13:09 | 49.02003 | 10.29450 | 83° | 106km/h | 12475m | -4.7m/s | -58.2°C | 19.2% | 191.5hPa | 2.5V | 08:01:00 | 00:00:00 | 00:00:00 | |
| DM7RM-13 | 2026-08-30 13:13:07 | 49.02000 | 10.29412 | 83° | 100km/h | 12479m | -4.8m/s | 0°C | 0% | 191.4hPa | 2.5V | 00:00:00 | 00:00:00 | 00:00:00 | |
| DB0ND-19 | 2026-08-30 13:13:06 | 49.01993 | 10.29337 | 81° | 99km/h | 12489m | -4.7m/s | -58.2°C | 11.8% | 191.1hPa | 2.5V | 00:00:00 | 00:00:00 | 00:00:00 | |
| DJ8HS-15 | 2026-08-30 13:13:05 | 49.01989 | 10.29300 | 81° | 102km/h | 12494m | -4.7m/s | -58.2°C | 18.1% | 190.9hPa | 2.5V | 00:00:00 | 02:28:41 | 00:00:00 | |
| DM0DOS-11 | 2026-08-30 13:13:04 | 49.01967 | 10.29071 | 82° | 102km/h | 12522m | -4.8m/s | -58.1°C | 16.6% | 190.1hPa | 2.5V | 08:01:27 | 02:28:35 | 00:00:00 | |
| DO9HM | 2026-08-30 13:13:04 | 49.01981 | 10.29225 | 82° | 100km/h | 12503m | -4.8m/s | -58.3°C | 11.5% | 190.6hPa | 2.5V | 08:02:00 | 00:00:00 | 00:00:00 | |
| DL1NUX | 2026-08-30 13:13:03 | 49.01964 | 10.29032 | 82° | 104km/h | 12527m | -4.6m/s | -58.2°C | 16.6% | 189.9hPa | 2.5V | 08:01:28 | 02:28:34 | 00:00:00 | |
| DK7TD | 2026-08-30 13:13:01 | 49.01974 | 10.29149 | 82° | 100km/h | 12513m | -4.6m/s | -58.2°C | 14.2% | 190.3hPa | 2.6V | 08:02:59 | 02:28:37 | 00:00:00 | |
| BIOWL1-15 | 2026-08-30 13:12:58 | 49.01964 | 10.29032 | 83° | 104km/h | 12527m | -4.6m/s | -58.2°C | 13.3% | 189.9hPa | 2.5V | 08:04:41 | 02:28:34 | 00:00:00 | |
| DL6DJ-15 | 2026-08-30 13:12:55 | 49.01949 | 10.28874 | 80° | 102km/h | 12546m | -4.7m/s | -58.2°C | 9.7% | 189.3hPa | 2.6V | 00:00:00 | 00:00:00 | 00:00:00 | |
| DM0DOS-11 | 2026-08-30 13:12:54 | 49.01926 | 10.28679 | 78° | 102km/h | 12569m | -4.8m/s | -58°C | 14.9% | 188.6hPa | 2.6V | 08:01:37 | 02:28:25 | 00:00:00 | |
| DK7TD | 2026-08-30 13:12:51 | 49.01936 | 10.28756 | 79° | 102km/h | 12560m | -4.6m/s | -58.1°C | 11.5% | 188.9hPa | 2.6V | 08:02:59 | 02:28:27 | 00:00:00 | |
| BIOWL1-15 | 2026-08-30 13:12:49 | 49.01903 | 10.28483 | 80° | 104km/h | 12594m | -4.9m/s | -57.6°C | 9.8% | 187.9hPa | 2.6V | 08:04:41 | 02:28:20 | 00:00:00 | |
| DK7TD | 2026-08-30 13:12:40 | 49.01884 | 10.28323 | 80° | 108km/h | 12613m | -4.8m/s | -57.2°C | 9.3% | 187.4hPa | 2.6V | 08:02:59 | 02:28:16 | 00:00:00 | |
| DL1ZP-14 | 2026-08-30 13:12:40 | 49.01879 | 10.28282 | 79° | 108km/h | 12618m | -4.8m/s | -57.1°C | 7.3% | 187.2hPa | 2.6V | 00:00:00 | 00:00:00 | 00:00:00 | |
| DL1NUX | 2026-08-30 13:12:37 | 49.01843 | 10.27994 | 79° | 110km/h | 12651m | -4.8m/s | -56.2°C | 11.3% | 186.2hPa | 2.5V | 08:01:54 | 02:28:08 | 00:00:00 | |
| BIOWL1-15 | 2026-08-30 13:12:37 | 49.01858 | 10.28118 | 80° | 110km/h | 12637m | -4.6m/s | -56.6°C | 8.8% | 186.6hPa | 2.6V | 08:04:41 | 02:28:11 | 00:00:00 | |
| NBG1-10 | 2026-08-30 13:12:36 | 49.01863 | 10.28159 | 79° | 110km/h | 12633m | -4.6m/s | -56.8°C | 12.2% | 186.7hPa | 2.6V | 00:00:00 | 02:28:12 | 00:00:00 | |
| DF1GD-15 | 2026-08-30 13:12:35 | 49.01863 | 10.28159 | 80° | 108km/h | 12633m | -4.7m/s | -56.9°C | 7.2% | 186.7hPa | 2.6V | 08:02:00 | 00:00:00 | 00:00:00 | |
| DM0DOS-11 | 2026-08-30 13:12:34 | 49.01826 | 10.27871 | 78° | 110km/h | 12666m | -4.7m/s | -56.2°C | 11.2% | 185.8hPa | 2.6V | 08:01:57 | 02:28:05 | 00:00:00 | |
| DK7TD | 2026-08-30 13:12:29 | 49.01827 | 10.27871 | 78° | 110km/h | 12666m | -4.7m/s | -56.3°C | 8.5% | 185.8hPa | 2.6V | 08:02:59 | 02:28:05 | 00:00:00 | |
| DL1NUX | 2026-08-30 13:12:26 | 49.01786 | 10.27546 | 78° | 110km/h | 12703m | -4.7m/s | -56.1°C | 11% | 184.7hPa | 2.6V | 08:02:05 | 02:27:57 | 00:00:00 | |
| BIOWL1-15 | 2026-08-30 13:12:24 | 49.01796 | 10.27627 | 79° | 106km/h | 12694m | -4.7m/s | -56.1°C | 8.3% | 185hPa | 2.6V | 08:04:41 | 02:27:59 | 00:00:00 | |
| DM0DOS-11 | 2026-08-30 13:12:24 | 49.01775 | 10.27464 | 78° | 110km/h | 12713m | -4.8m/s | -56°C | 11% | 184.4hPa | 2.6V | 08:02:07 | 02:27:55 | 00:00:00 | |
| DO3MHA-11 | 2026-08-30 13:12:23 | 49.01796 | 10.27627 | 80° | 110km/h | 12694m | -4.7m/s | -56.1°C | 10.8% | 185.0hPa | 2.6V | 00:00:00 | 02:27:59 | 00:00:00 | |
| DO9HM | 2026-08-30 13:12:21 | 49.01791 | 10.27586 | 81° | 108km/h | 12699m | -4.8m/s | -56.1°C | 6.4% | 184.8hPa | 2.6V | 08:02:00 | 00:00:00 | 00:00:00 | |
| DN1GJH-1 | 2026-08-30 13:12:20 | 49.01786 | 10.27546 | 80° | 110km/h | 12703m | -4.7m/s | -56.1°C | 6.4% | 184.7hPa | 2.6V | 08:02:00 | 00:00:00 | 00:00:00 | |
| OE5DXL-15 | 2026-08-30 13:12:18 | 49.01769 | 10.27422 | 78° | 113km/h | 12717m | -4.6m/s | -55.9°C | 11.1% | 184.2hPa | 2.6V | 00:00:00 | 00:00:00 | 00:00:00 | |
| DM0DOS-11 | 2026-08-30 13:12:14 | 49.01676 | 10.26748 | 79° | 115km/h | 12793m | -4.7m/s | -56.2°C | 11.7% | 182.1hPa | 2.6V | 08:02:24 | 02:27:38 | 00:00:00 | |
| DK7TD | 2026-08-30 13:12:12 | 49.01732 | 10.27174 | 77° | 111km/h | 12746m | -4.8m/s | -56.1°C | 8.7% | 183.4hPa | 2.6V | 08:02:59 | 02:27:48 | 00:00:00 | |
| BIOWL1-15 | 2026-08-30 13:12:12 | 49.01603 | 10.26140 | 81° | 115km/h | 12859m | -4.7m/s | -56°C | 8.9% | 180.2hPa | 2.6V | 08:04:41 | 02:27:24 | 00:00:00 | |
| DK7TD | 2026-08-30 13:12:10 | 49.01676 | 10.26748 | 80° | 115km/h | 12793m | -4.7m/s | -56.2°C | 9% | 182.1hPa | 2.6V | 08:02:59 | 02:27:38 | 00:00:00 | |
| DM0DOS-11 | 2026-08-30 13:12:09 | 49.01617 | 10.26270 | 80° | 115km/h | 12845m | -4.7m/s | -56.1°C | 11.4% | 180.6hPa | 2.6V | 08:02:35 | 02:27:27 | 00:00:00 | |
| DL1ZP-14 | 2026-08-30 13:12:09 | 49.01708 | 10.27005 | 78° | 111km/h | 12765m | -4.8m/s | -56.3°C | 6.7% | 182.9hPa | 2.6V | 00:00:00 | 00:00:00 | 00:00:00 | |
| DJ8HS-15 | 2026-08-30 13:12:05 | 49.01692 | 10.26877 | 80° | 115km/h | 12779m | -4.6m/s | -56.1°C | 11.5% | 182.4hPa | 2.6V | 00:00:00 | 02:27:41 | 00:00:00 | |
| DB0ND-19 | 2026-08-30 13:12:04 | 49.01687 | 10.26835 | 79° | 113km/h | 12784m | -4.6m/s | -56.1°C | 6.7% | 182.4hPa | 2.6V | 00:00:00 | 00:00:00 | 00:00:00 | |
| DO3MHA-11 | 2026-08-30 13:12:03 | 49.01681 | 10.26791 | 80° | 115km/h | 12788m | -4.8m/s | -56.2°C | 11.6% | 182.1hPa | 2.6V | 00:00:00 | 02:27:39 | 00:00:00 | |
| DO9HM | 2026-08-30 13:12:02 | 49.01676 | 10.26748 | 81° | 115km/h | 12793m | -4.7m/s | -56.2°C | 6.9% | 182.1hPa | 2.6V | 08:02:00 | 00:00:00 | 00:00:00 | |
| BIOWL9-15 | 2026-08-30 13:12:01 | 49.01665 | 10.26661 | 78° | 113km/h | 12803m | -4.6m/s | -56.2°C | 6.9% | 181.8hPa | 2.6V | 00:00:00 | 00:00:00 | 00:00:00 | |
| DM0DOS-11 | 2026-08-30 13:11:57 | 49.01598 | 10.26096 | 80° | 115km/h | 12864m | -4.8m/s | -56°C | 11.2% | 180.1hPa | 2.6V | 08:02:39 | 02:27:23 | 00:00:00 | |
| DK7TD | 2026-08-30 13:11:57 | 49.01617 | 10.26270 | 80° | 115km/h | 12845m | -4.7m/s | -56.1°C | 9% | 180.6hPa | 2.6V | 08:02:59 | 02:27:27 | 00:00:00 | |
| BIOWL1-15 | 2026-08-30 13:11:57 | 49.01598 | 10.26096 | 81° | 115km/h | 12864m | -4.8m/s | -56.1°C | 8.9% | 180.1hPa | 2.6V | 08:04:41 | 02:27:23 | 00:00:00 | |
| DL9SK-14 | 2026-08-30 13:11:52 | 49.01617 | 10.26270 | 80° | 113km/h | 12845m | -4.7m/s | -56.1°C | 6.7% | 180.6hPa | 2.6V | 00:00:00 | 00:00:00 | 00:00:00 | |
| DK5PH-5 | 2026-08-30 13:11:50 | 49.01612 | 10.26226 | 80° | 113km/h | 12850m | -4.8m/s | -56.0°C | 11.4% | 180.4hPa | 2.6V | 00:00:00 | 02:27:26 | 00:00:00 | |
| OE5DXL-15 | 2026-08-30 13:11:48 | 49.01603 | 10.26140 | 81° | 113km/h | 12860m | -4.7m/s | -56.0°C | 11.3% | 180.2hPa | 2.6V | 00:00:00 | 00:00:00 | 00:00:00 | |
| DJ8HS-15 | 2026-08-30 13:11:45 | 49.01589 | 10.26008 | 81° | 113km/h | 12874m | -4.8m/s | -55.9°C | 11.0% | 179.7hPa | 2.6V | 00:00:00 | 02:27:21 | 00:00:00 | |
| AZAK | 2026-08-30 13:11:43 | 49.01584 | 10.25965 | 83° | 115km/h | 12879m | -5.0m/s | -56.0°C | 6.4% | 179.7hPa | 2.6V | 08:02:00 | 00:00:00 | 00:00:00 | |
| DG1MJG | 2026-08-30 13:11:42 | 49.01580 | 10.25921 | 82° | 115km/h | 12884m | -5.0m/s | -56.1°C | 6.4% | 179.5hPa | 2.6V | 08:02:00 | 00:00:00 | 00:00:00 | |
| DL1NUX | 2026-08-30 13:11:41 | 49.01552 | 10.25623 | 82° | 111km/h | 12918m | -4.8m/s | -56.2°C | 10.8% | 178.5hPa | 2.6V | 08:02:50 | 02:27:12 | 00:00:00 | |
| DK7TD | 2026-08-30 13:11:40 | 49.01568 | 10.25792 | 82° | 113km/h | 12898m | -4.9m/s | -56.1°C | 8.5% | 179.1hPa | 2.6V | 08:02:59 | 02:27:16 | 00:00:00 | |
| DM0DOS-11 | 2026-08-30 13:11:38 | 49.01556 | 10.25665 | 81° | 110km/h | 12913m | -5m/s | -56.2°C | 10.9% | 178.7hPa | 2.6V | 08:02:49 | 02:27:13 | 00:00:00 | |
| BIOWL1-15 | 2026-08-30 13:11:37 | 49.01556 | 10.25665 | 82° | 110km/h | 12913m | -5m/s | -56.2°C | 8.3% | 178.7hPa | 2.6V | 08:04:41 | 02:27:13 | 00:00:00 | |
| DO3MHA-11 | 2026-08-30 13:11:33 | 49.01540 | 10.25496 | 82° | 113km/h | 12933m | -4.9m/s | -56.2°C | 10.8% | 178.1hPa | 2.5V | 00:00:00 | 02:27:09 | 00:00:00 | |
| DL1NUX | 2026-08-30 13:11:31 | 49.01511 | 10.25195 | 82° | 113km/h | 12968m | -5m/s | -56.3°C | 10.4% | 177.2hPa | 2.5V | 08:03:00 | 02:27:02 | 00:00:00 | |
| DK7TD | 2026-08-30 13:11:30 | 49.01528 | 10.25368 | 81° | 113km/h | 12948m | -4.9m/s | -56.3°C | 8% | 177.7hPa | 2.6V | 08:02:59 | 02:27:06 | 00:00:00 | |
| BIOWL1-15 | 2026-08-30 13:11:26 | 49.01504 | 10.25108 | 83° | 113km/h | 12978m | -5m/s | -56.4°C | 7.5% | 176.8hPa | 2.6V | 08:04:41 | 02:27:00 | 00:00:00 | |
| DK7TD | 2026-08-30 13:11:19 | 49.01486 | 10.24891 | 83° | 113km/h | 13003m | -5.1m/s | -56.5°C | 7.2% | 176.1hPa | 2.6V | 08:03:50 | 02:26:55 | 00:00:00 | |
| SO1NDE-10 | 2026-08-30 13:11:19 | 49.01486 | 10.24891 | 84° | 108km/h | 13003m | -5.0m/s | -56.5°C | 10.0% | 176.1hPa | 2.6V | 00:00:00 | 02:26:55 | 00:00:00 | |
| OE5DXL-15 | 2026-08-30 13:11:18 | 49.01483 | 10.24848 | 83° | 117km/h | 13009m | -5.2m/s | -56.5°C | 10.0% | 176.0hPa | 2.6V | 00:00:00 | 00:00:00 | 00:00:00 | |
| DM0DOS-11 | 2026-08-30 13:11:17 | 49.01476 | 10.24761 | 83° | 115km/h | 13019m | -5.2m/s | -56.5°C | 9.8% | 175.8hPa | 2.6V | 08:03:10 | 02:26:52 | 00:00:00 | |
| BIOWL1-15 | 2026-08-30 13:11:13 | 49.01465 | 10.24627 | 83° | 119km/h | 13034m | -5.1m/s | -56.6°C | 6.7% | 175.3hPa | 2.6V | 08:04:41 | 02:26:49 | 00:00:00 | |
| DK7TD | 2026-08-30 13:11:09 | 49.01450 | 10.24445 | 84° | 120km/h | 13055m | -5.2m/s | -56.5°C | 6.5% | 174.7hPa | 2.6V | 08:03:50 | 02:26:45 | 00:00:00 | |
| SONCRA | 2026-08-30 13:11:09 | 49.01447 | 10.24399 | 83° | 120km/h | 13060m | -5.0m/s | -56.5°C | 5.1% | 174.6hPa | 2.6V | 00:00:00 | 00:00:00 | 00:00:00 | |
| DM0DOS-11 | 2026-08-30 13:11:07 | 49.01437 | 10.24262 | 83° | 119km/h | 13075m | -5.4m/s | -56.4°C | 9.3% | 174.1hPa | 2.6V | 08:03:21 | 02:26:41 | 00:00:00 | |
| BIOWL1-15 | 2026-08-30 13:11:02 | 49.01428 | 10.24127 | 84° | 115km/h | 13091m | -5.3m/s | -56.4°C | 6.3% | 173.7hPa | 2.6V | 08:04:41 | 02:26:38 | 00:00:00 | |
| DK7TD | 2026-08-30 13:10:59 | 49.01420 | 10.23994 | 85° | 115km/h | 13107m | -5.4m/s | -56.5°C | 6.3% | 173.3hPa | 2.6V | 08:03:50 | 02:26:35 | 00:00:00 | |
| BIOWL1-15 | 2026-08-30 13:10:51 | 49.01401 | 10.23642 | 86° | 113km/h | 13150m | -5.2m/s | -56.5°C | 6.1% | 172.1hPa | 2.6V | 08:04:41 | 02:26:27 | 00:00:00 | |
| DK7TD | 2026-08-30 13:10:48 | 49.01396 | 10.23514 | 87° | 111km/h | 13166m | -5.3m/s | -56.5°C | 6.1% | 171.7hPa | 2.6V | 08:03:50 | 02:26:24 | 00:00:00 | |
| OE5DXL-15 | 2026-08-30 13:10:48 | 49.01396 | 10.23514 | 87° | 106km/h | 13166m | -5.3m/s | -56.4°C | 9.2% | 171.6hPa | 2.6V | 00:00:00 | 00:00:00 | 00:00:00 | |
| DL1NUX | 2026-08-30 13:10:46 | 49.01388 | 10.23218 | 89° | 111km/h | 13204m | -5.7m/s | -56.4°C | 9.1% | 170.6hPa | 2.6V | 08:03:45 | 02:26:17 | 00:00:00 | |
| DK7TD | 2026-08-30 13:10:38 | 49.01388 | 10.23091 | 90° | 110km/h | 13220m | -5.5m/s | -56.5°C | 5.9% | 170.2hPa | 2.6V | 08:03:50 | 02:26:14 | 00:00:00 | |
| DL1NUX | 2026-08-30 13:10:36 | 49.01390 | 10.22806 | 91° | 104km/h | 13260m | -5.5m/s | -56.1°C | 8.7% | 169.2hPa | 2.6V | 08:03:55 | 02:26:07 | 00:00:00 | |
| DK7TD | 2026-08-30 13:10:27 | 49.01391 | 10.22648 | 90° | 102km/h | 13282m | -5.7m/s | -56°C | 5.4% | 168.5hPa | 2.6V | 08:04:41 | 02:26:03 | 00:00:00 | |
| DL1NUX | 2026-08-30 13:10:27 | 49.01389 | 10.22415 | 89° | 100km/h | 13315m | -5.6m/s | -55.9°C | 8.1% | 167.7hPa | 2.6V | 08:04:05 | 02:25:57 | 00:00:00 | |
| DK7TD | 2026-08-30 13:10:17 | 49.01389 | 10.22263 | 90° | 99km/h | 13339m | -5.8m/s | -55.9°C | 5% | 167.1hPa | 2.6V | 08:04:41 | 02:25:53 | 00:00:00 | |
| DL1NUX | 2026-08-30 13:10:13 | 49.01390 | 10.21927 | 90° | 97km/h | 13390m | -5.7m/s | -56°C | 7.9% | 165.8hPa | 2.6V | 08:04:18 | 02:25:44 | 00:00:00 | |
| BIOWL1-15 | 2026-08-30 13:10:08 | 49.01390 | 10.21927 | 91° | 97km/h | 13390m | -5.7m/s | -56°C | 4.7% | 165.8hPa | 2.6V | 08:04:41 | 02:25:44 | 00:00:00 | |
| DK7TD | 2026-08-30 13:10:06 | 49.01391 | 10.21853 | 91° | 97km/h | 13401m | -5.8m/s | -55.9°C | 4.6% | 165.4hPa | 2.6V | 08:04:41 | 02:25:42 | 00:00:00 | |
| DJ8HS-15 | 2026-08-30 13:10:05 | 49.01391 | 10.21816 | 91° | 93km/h | 13407m | -5.5m/s | -55.8°C | 7.6% | 165.3hPa | 2.6V | 00:00:00 | 02:25:41 | 00:00:00 | |
| DL1ZP-14 | 2026-08-30 13:10:04 | 49.01391 | 10.21780 | 90° | 93km/h | 13413m | -5.7m/s | -55.9°C | 3.7% | 165.2hPa | 2.6V | 00:00:00 | 00:00:00 | 00:00:00 | |
| DO3MHA-11 | 2026-08-30 13:10:03 | 49.01391 | 10.21745 | 91° | 93km/h | 13419m | -5.7m/s | -55.8°C | 7.5% | 165.0hPa | 2.6V | 00:00:00 | 02:25:39 | 00:00:00 | |
| AZAK | 2026-08-30 13:10:01 | 49.01392 | 10.21673 | 91° | 93km/h | 13430m | -5.7m/s | -55.8°C | 3.6% | 164.7hPa | 2.6V | 08:04:00 | 00:00:00 | 00:00:00 | |
| DL1NUX | 2026-08-30 13:09:59 | 49.01391 | 10.21422 | 89° | 95km/h | 13469m | -5.6m/s | -55.8°C | 7.4% | 163.7hPa | 2.6V | 08:04:32 | 02:25:30 | 00:00:00 | |
| BIOWL1-15 | 2026-08-30 13:09:57 | 49.01390 | 10.21386 | 89° | 95km/h | 13475m | -5.6m/s | -55.9°C | 4.1% | 163.6hPa | 2.6V | 08:04:41 | 02:25:29 | 00:00:00 | |
| DK7TD | 2026-08-30 13:09:56 | 49.01391 | 10.21495 | 90° | 95km/h | 13458m | -5.6m/s | -55.8°C | 4.2% | 164hPa | 2.6V | 08:04:41 | 02:25:32 | 00:00:00 | |
| DO3MHA-11 | 2026-08-30 13:09:53 | 49.01390 | 10.21386 | 89° | 91km/h | 13476m | -5.5m/s | -55.8°C | 7.4% | 163.5hPa | 2.6V | 00:00:00 | 02:25:29 | 00:00:00 | |
| NBG1-10 | 2026-08-30 13:09:51 | 49.01390 | 10.21314 | 90° | 86km/h | 13487m | -5.7m/s | -55.8°C | 7.4% | 163.2hPa | 2.6V | 00:00:00 | 02:25:27 | 00:00:00 | |
| DK5PH-5 | 2026-08-30 13:09:50 | 49.01389 | 10.21278 | 89° | 86km/h | 13493m | -5.7m/s | -55.8°C | 7.4% | 163.1hPa | 2.6V | 00:00:00 | 02:25:26 | 00:00:00 | |
| DL1NUX | 2026-08-30 13:09:49 | 49.01388 | 10.21071 | 90° | 88km/h | 13526m | -5.2m/s | -56.1°C | 7.3% | 162.2hPa | 2.6V | 08:04:42 | 02:25:20 | 00:00:00 | |
| DK7TD | 2026-08-30 13:09:45 | 49.01388 | 10.21105 | 90° | 88km/h | 13520m | -5.5m/s | -56°C | 3.9% | 162.4hPa | 2.6V | 08:04:41 | 02:25:21 | 00:00:00 | |
| DJ8HS-15 | 2026-08-30 13:09:45 | 49.01388 | 10.21105 | 90° | 86km/h | 13521m | -5.4m/s | -55.9°C | 7.2% | 162.3hPa | 2.6V | 00:00:00 | 02:25:21 | 00:00:00 | |
| DO3MHA-11 | 2026-08-30 13:09:43 | 49.01388 | 10.21038 | 91° | 88km/h | 13531m | -5.3m/s | -56.1°C | 7.3% | 162.1hPa | 2.6V | 08:04:00 | 02:25:19 | 00:00:00 | |
| AZAK | 2026-08-30 13:09:41 | 49.01388 | 10.20970 | 92° | 88km/h | 13542m | -5.5m/s | -56.0°C | 3.3% | 161.9hPa | 2.6V | 08:05:00 | 00:00:00 | 00:00:00 | |
| DL1NUX | 2026-08-30 13:09:39 | 49.01386 | 10.20737 | 87° | 86km/h | 13581m | -5.6m/s | -55.8°C | 7.1% | 160.9hPa | 2.6V | 08:04:52 | 02:25:10 | 00:00:00 | |
| DK7TD | 2026-08-30 13:09:35 | 49.01387 | 10.20770 | 88° | 88km/h | 13575m | -5.6m/s | -55.9°C | 3.8% | 161hPa | 2.6V | 08:05:32 | 02:25:11 | 00:00:00 | |
| DO3MHA-11 | 2026-08-30 13:09:33 | 49.01385 | 10.20704 | 88° | 84km/h | 13586m | -5.6m/s | -55.8°C | 7.1% | 160.7hPa | 2.6V | 00:00:00 | 02:25:09 | 00:00:00 | |
| DL1NUX | 2026-08-30 13:09:29 | 49.01372 | 10.20414 | 85° | 80km/h | 13637m | -5.6m/s | -55.8°C | 7% | 159.4hPa | 2.6V | 08:05:02 | 02:25:00 | 00:00:00 | |
| DK7TD | 2026-08-30 13:09:24 | 49.01372 | 10.20414 | 86° | 80km/h | 13637m | -5.6m/s | -55.8°C | 3.6% | 159.4hPa | 2.6V | 08:05:32 | 02:25:00 | 00:00:00 | |
| BIOWL1-15 | 2026-08-30 13:09:22 | 49.01369 | 10.20352 | 85° | 80km/h | 13648m | -5.8m/s | -55.7°C | 3.6% | 159.2hPa | 2.6V | 08:06:23 | 02:24:58 | 00:00:00 | |
| DM0DOS-11 | 2026-08-30 13:09:21 | 49.01359 | 10.20199 | 82° | 80km/h | 13676m | -5.5m/s | -55.6°C | 6.8% | 158.5hPa | 2.6V | 08:05:09 | 02:24:53 | 00:00:00 | |
| DK5PH-5 | 2026-08-30 13:09:20 | 49.01366 | 10.20290 | 85° | 80km/h | 13660m | -5.6m/s | -55.6°C | 6.8% | 158.9hPa | 2.6V | 00:00:00 | 02:24:56 | 00:00:00 | |
| DL1NUX | 2026-08-30 13:09:19 | 49.01350 | 10.20106 | 80° | 80km/h | 13693m | -5.6m/s | -55.7°C | 6.8% | 158.1hPa | 2.6V | 08:05:12 | 02:24:50 | 00:00:00 | |
| DK7TD | 2026-08-30 13:09:13 | 49.01346 | 10.20075 | 80° | 82km/h | 13699m | -5.8m/s | -55.8°C | 3.6% | 157.9hPa | 2.6V | 08:05:32 | 02:24:49 | 00:00:00 | |
| BIOWL1-15 | 2026-08-30 13:09:12 | 49.01343 | 10.20044 | 79° | 82km/h | 13704m | -5.8m/s | -55.8°C | 3.6% | 157.8hPa | 2.6V | 08:06:23 | 02:24:48 | 00:00:00 | |
| DM0DOS-11 | 2026-08-30 13:09:09 | 49.01326 | 10.19893 | 81° | 78km/h | 13733m | -5.5m/s | -56°C | 7.1% | 157.1hPa | 2.6V | 08:05:19 | 02:24:43 | 00:00:00 | |
| DL1NUX | 2026-08-30 13:09:09 | 49.01318 | 10.19804 | 83° | 78km/h | 13750m | -5.8m/s | -56°C | 7.1% | 156.6hPa | 2.6V | 08:05:22 | 02:24:40 | 00:00:00 | |
| DK7TD | 2026-08-30 13:09:03 | 49.01316 | 10.19773 | 84° | 80km/h | 13756m | -5.7m/s | -56°C | 3.7% | 156.5hPa | 2.6V | 08:05:32 | 02:24:39 | 00:00:00 | |
| DO3MHA-11 | 2026-08-30 13:09:03 | 49.01316 | 10.19773 | 84° | 82km/h | 13756m | -5.6m/s | -56.0°C | 7.1% | 156.5hPa | 2.6V | 00:00:00 | 02:24:39 | 00:00:00 | |
| DL1ZP-14 | 2026-08-30 13:09:02 | 49.01314 | 10.19743 | 82° | 80km/h | 13761m | -5.6m/s | -56.0°C | 3.3% | 156.4hPa | 2.6V | 00:00:00 | 00:00:00 | 00:00:00 | |
| DM0DOS-11 | 2026-08-30 13:09:01 | 49.01297 | 10.19554 | 82° | 82km/h | 13794m | -5.5m/s | -55.9°C | 7% | 155.6hPa | 2.6V | 08:05:30 | 02:24:32 | 00:00:00 | |
| AZAK | 2026-08-30 13:09:01 | 49.01309 | 10.19680 | 84° | 82km/h | 13773m | -5.4m/s | -56.1°C | 3.3% | 156.1hPa | 2.6V | 08:05:00 | 00:00:00 | 00:00:00 | |
| DL1NUX | 2026-08-30 13:08:58 | 49.01289 | 10.19460 | 83° | 82km/h | 13811m | -5.5m/s | -55.9°C | 7% | 155.2hPa | 2.6V | 08:05:33 | 02:24:29 | 00:00:00 | |
| DK7TD | 2026-08-30 13:08:52 | 49.01287 | 10.19429 | 83° | 82km/h | 13817m | -5.8m/s | -55.9°C | 3.6% | 155hPa | 2.6V | 08:06:23 | 02:24:28 | 00:00:00 | |
| DK5PH-5 | 2026-08-30 13:08:50 | 49.01282 | 10.19367 | 83° | 82km/h | 13828m | -5.6m/s | -55.9°C | 6.9% | 154.7hPa | 2.6V | 08:05:00 | 02:24:26 | 00:00:00 | |
| DM0DOS-11 | 2026-08-30 13:08:48 | 49.01271 | 10.19245 | 81° | 78km/h | 13851m | -5.7m/s | -56°C | 6.9% | 154.2hPa | 2.6V | 08:05:40 | 02:24:22 | 00:00:00 | |
| BIOWL1-15 | 2026-08-30 13:08:46 | 49.01271 | 10.19245 | 82° | 78km/h | 13851m | -5.7m/s | -56°C | 3.5% | 154.2hPa | 2.6V | 08:06:23 | 02:24:22 | 00:00:00 | |
| DL9SK-14 | 2026-08-30 13:08:45 | 49.01268 | 10.19215 | 80° | 78km/h | 13857m | -5.7m/s | -56.0°C | 3.1% | 154.1hPa | 2.6V | 00:00:00 | 00:00:00 | 00:00:00 | |
| DK7TD | 2026-08-30 13:08:42 | 49.01258 | 10.19125 | 80° | 78km/h | 13874m | -5.6m/s | -56°C | 3.5% | 153.6hPa | 2.6V | 08:06:23 | 02:24:18 | 00:00:00 | |
| DM0DOS-11 | 2026-08-30 13:08:41 | 49.01241 | 10.18942 | 83° | 82km/h | 13907m | -5.5m/s | -56°C | 6.9% | 152.8hPa | 2.6V | 08:05:50 | 02:24:12 | 00:00:00 | |
| BIOWL1-15 | 2026-08-30 13:08:35 | 49.01239 | 10.18911 | 83° | 82km/h | 13913m | -5.6m/s | -56.1°C | 3.5% | 152.7hPa | 2.6V | 08:06:23 | 02:24:11 | 00:00:00 | |
| DO3MHA-11 | 2026-08-30 13:08:33 | 49.01233 | 10.18847 | 83° | 88km/h | 13924m | -5.2m/s | -56.1°C | 6.8% | 152.3hPa | 2.6V | 00:00:00 | 02:24:09 | 00:00:00 | |
| DL1NUX | 2026-08-30 13:08:32 | 49.01213 | 10.18650 | 80° | 89km/h | 13956m | -5.6m/s | -56.1°C | 6.8% | 151.7hPa | 2.6V | 08:05:59 | 02:24:03 | 00:00:00 | |
| DK7TD | 2026-08-30 13:08:32 | 49.01231 | 10.18815 | 81° | 84km/h | 13929m | -5.5m/s | -56.2°C | 3.2% | 152.2hPa | 2.6V | 08:06:23 | 02:24:08 | 00:00:00 | |
| BIOWL1-15 | 2026-08-30 13:08:25 | 49.01206 | 10.18582 | 81° | 89km/h | 13967m | -5.7m/s | -56.1°C | 3.2% | 151.3hPa | 2.6V | 08:06:23 | 02:24:01 | 00:00:00 | |
| DJ8HS-15 | 2026-08-30 13:08:25 | 49.01206 | 10.18582 | 82° | 86km/h | 13968m | -5.7m/s | -56.1°C | 6.8% | 151.3hPa | 2.6V | 00:00:00 | 02:24:01 | 00:00:00 | |
| DF7PN | 2026-08-30 13:08:24 | 49.01203 | 10.18548 | 82° | 88km/h | 13973m | -5.5m/s | -56.2°C | 2.9% | 151.2hPa | 2.6V | 00:00:00 | 00:00:00 | 00:00:00 | |
| DO3MHA-11 | 2026-08-30 13:08:23 | 49.01200 | 10.18514 | 84° | 88km/h | 13979m | -5.4m/s | -56.1°C | 6.7% | 151.1hPa | 2.6V | 00:00:00 | 02:23:59 | 00:00:00 | |
| DL1NUX | 2026-08-30 13:08:22 | 49.01187 | 10.18312 | 83° | 86km/h | 14012m | -5.5m/s | -56.1°C | 6.8% | 150.3hPa | 2.6V | 08:06:09 | 02:23:53 | 00:00:00 | |
| DK7TD | 2026-08-30 13:08:21 | 49.01195 | 10.18446 | 85° | 89km/h | 13990m | -5.5m/s | -56.2°C | 3.1% | 150.8hPa | 2.6V | 08:06:23 | 02:23:57 | 00:00:00 | |
| DK5PH-5 | 2026-08-30 13:08:20 | 49.01193 | 10.18412 | 85° | 80km/h | 13996m | -5.7m/s | -56.1°C | 6.8% | 150.6hPa | 2.6V | 00:00:00 | 02:23:56 | 00:00:00 | |
| AZAK | 2026-08-30 13:08:19 | 49.01191 | 10.18378 | 86° | 86km/h | 14001m | -5.3m/s | -56.1°C | 2.9% | 150.6hPa | 2.6V | 08:06:00 | 00:00:00 | 00:00:00 | |
| OE5DXL-15 | 2026-08-30 13:08:18 | 49.01189 | 10.18345 | 85° | 80km/h | 14006m | -5.7m/s | -56.1°C | 6.8% | 150.4hPa | 2.6V | 00:00:00 | 00:00:00 | 00:00:00 | |
| DF3TZ-5 | 2026-08-30 13:08:16 | 49.01182 | 10.18247 | 82° | 84km/h | 14023m | -5.5m/s | -56.0°C | -1.0% | 150.0hPa | 2.6V | 00:00:00 | 00:00:00 | 00:00:00 | |
| DL6DJ-15 | 2026-08-30 13:08:15 | 49.01182 | 10.18247 | 82° | 84km/h | 14023m | -5.5m/s | -56.0°C | 2.9% | 150.0hPa | 2.6V | 00:00:00 | 00:00:00 | 00:00:00 | |
| DB0UT-7 | 2026-08-30 13:08:14 | 49.01179 | 10.18215 | 83° | 78km/h | 14029m | -5.3m/s | -55.9°C | 6.7% | 149.9hPa | 2.6V | 08:06:00 | 02:23:50 | 00:00:00 | |
| SO1NDE-10 | 2026-08-30 13:08:13 | 49.01176 | 10.18184 | 82° | 80km/h | 14034m | -5.7m/s | -55.8°C | 6.5% | 149.7hPa | 2.7V | 00:00:00 | 02:23:49 | 00:00:00 | |
| DL1NUX | 2026-08-30 13:08:12 | 49.01154 | 10.17999 | 78° | 80km/h | 14068m | -5.8m/s | -55.7°C | 6.3% | 149hPa | 2.7V | 08:06:19 | 02:23:43 | 00:00:00 | |
| NBG1-10 | 2026-08-30 13:08:12 | 49.01173 | 10.18153 | 81° | 78km/h | 14040m | -5.6m/s | -55.8°C | 6.5% | 149.6hPa | 2.6V | 00:00:00 | 02:23:48 | 00:00:00 | |
| DM0DOS-11 | 2026-08-30 13:08:11 | 49.01151 | 10.17968 | 78° | 82km/h | 14074m | -5.5m/s | -55.7°C | 6.3% | 148.8hPa | 2.6V | 08:06:20 | 02:23:42 | 00:00:00 | |
| DK7TD | 2026-08-30 13:08:10 | 49.01166 | 10.18091 | 79° | 82km/h | 14051m | -5.6m/s | -55.8°C | 2.7% | 149.4hPa | 2.6V | 08:06:23 | 02:23:46 | 00:00:00 | |
| BIOWL1-15 | 2026-08-30 13:08:08 | 49.01108 | 10.17646 | 79° | 77km/h | 14137m | -5.7m/s | -55°C | 2.3% | 147.4hPa | 2.6V | 08:07:14 | 02:23:31 | 00:00:00 | |
| DJ8HS-15 | 2026-08-30 13:08:05 | 49.01146 | 10.17938 | 78° | 78km/h | 14079m | -5.8m/s | -55.6°C | 6.3% | 148.6hPa | 2.7V | 00:00:00 | 02:23:41 | 00:00:00 | |
| DO3MHA-11 | 2026-08-30 13:08:03 | 49.01138 | 10.17877 | 79° | 77km/h | 14091m | -5.7m/s | -55.6°C | 6.1% | 148.4hPa | 2.7V | 00:00:00 | 02:23:39 | 00:00:00 | |
| DL1NUX | 2026-08-30 13:08:02 | 49.01115 | 10.17703 | 79° | 75km/h | 14125m | -5.9m/s | -55.2°C | 5.9% | 147.7hPa | 2.7V | 08:06:29 | 02:23:33 | 00:00:00 | |
| DK7TD | 2026-08-30 13:08:00 | 49.01126 | 10.17789 | 78° | 77km/h | 14108m | -5.8m/s | -55.4°C | 2.4% | 148.1hPa | 2.6V | 08:07:14 | 02:23:36 | 00:00:00 | |
| PG1ADW-2 | 2026-08-30 13:08:00 | 49.01126 | 10.17789 | 79° | 77km/h | 14108m | -5.8m/s | -55.4°C | 6.0% | 148.0hPa | 2.6V | 00:00:00 | 02:23:36 | 00:00:00 | |
| AZAK | 2026-08-30 13:07:57 | 49.01119 | 10.17732 | 80° | 77km/h | 14119m | -5.8m/s | -55.2°C | 2.4% | 147.8hPa | 2.6V | 08:07:00 | 00:00:00 | 00:00:00 | |
| DM0DOS-11 | 2026-08-30 13:07:56 | 49.01112 | 10.17675 | 79° | 77km/h | 14131m | -5.7m/s | -55.1°C | 5.9% | 147.5hPa | 2.6V | 08:06:30 | 02:23:32 | 00:00:00 | |
| BIOWL9-15 | 2026-08-30 13:07:52 | 49.01097 | 10.17558 | 79° | 77km/h | 14154m | -5.5m/s | 0°C | -1.0% | -1.0hPa | 2.6V | 00:00:00 | 00:00:00 | 00:00:00 | |
| DM0DOS-11 | 2026-08-30 13:07:51 | 49.01073 | 10.17382 | 79° | 78km/h | 14188m | -5.7m/s | -54.6°C | 5.8% | 146.2hPa | 2.6V | 08:06:40 | 02:23:22 | 00:00:00 | |
| DK7TD | 2026-08-30 13:07:49 | 49.01085 | 10.17470 | 79° | 78km/h | 14170m | -5.6m/s | -54.8°C | 2.4% | 146.6hPa | 2.6V | 08:07:14 | 02:23:25 | 00:00:00 | |
| DF3TZ-5 | 2026-08-30 13:07:45 | 49.01067 | 10.17324 | 80° | 77km/h | 14199m | -5.8m/s | -54.6°C | -1.0% | 146.0hPa | 2.6V | 00:00:00 | 00:00:00 | 00:00:00 | |
| DL6DJ-15 | 2026-08-30 13:07:44 | 49.01067 | 10.17324 | 80° | 77km/h | 14199m | -5.8m/s | -54.6°C | 2.4% | 146.0hPa | 2.6V | 00:00:00 | 00:00:00 | 00:00:00 | |
| DO3MHA-11 | 2026-08-30 13:07:43 | 49.01063 | 10.17295 | 81° | 78km/h | 14205m | -5.7m/s | -54.6°C | 5.8% | 145.8hPa | 2.6V | 00:00:00 | 02:23:19 | 00:00:00 | |
| DM0DOS-11 | 2026-08-30 13:07:41 | 49.01041 | 10.17084 | 80° | 80km/h | 14245m | -5.6m/s | -54.9°C | 5.9% | 144.9hPa | 2.6V | 08:06:50 | 02:23:12 | 00:00:00 | |
| PG1ADW-2 | 2026-08-30 13:07:40 | 49.01054 | 10.17205 | 82° | 75km/h | 14222m | -5.6m/s | -54.8°C | 5.8% | 145.4hPa | 2.6V | 00:00:00 | 00:00:00 | 00:00:00 | |
| DL1NUX | 2026-08-30 13:07:38 | 49.01048 | 10.17145 | 80° | 80km/h | 14233m | -5.7m/s | -54.8°C | 5.9% | 145.2hPa | 2.6V | 08:06:48 | 02:23:14 | 00:00:00 | |
| DK7TD | 2026-08-30 13:07:38 | 49.01047 | 10.17145 | 81° | 80km/h | 14233m | -5.7m/s | -54.8°C | 2.5% | 145.2hPa | 2.6V | 08:07:14 | 02:23:14 | 00:00:00 | |
| BIOWL1-15 | 2026-08-30 13:07:36 | 49.01035 | 10.17025 | 80° | 78km/h | 14256m | -5.9m/s | -54.9°C | 2.4% | 144.6hPa | 2.6V | 08:07:14 | 02:23:10 | 00:00:00 | |
| DO9HM | 2026-08-30 13:07:34 | 49.01035 | 10.17025 | 81° | 78km/h | 14256m | -5.9m/s | -54.9°C | 2.5% | 144.6hPa | 2.6V | 08:07:00 | 00:00:00 | 00:00:00 | |
| DO3MHA-11 | 2026-08-30 13:07:33 | 49.01031 | 10.16996 | 80° | 73km/h | 14262m | -5.7m/s | -54.9°C | 6.0% | 144.5hPa | 2.6V | 00:00:00 | 02:23:09 | 00:00:00 | |
| SONCRA | 2026-08-30 13:07:31 | 49.01025 | 10.16939 | 79° | 73km/h | 14273m | -5.7m/s | -54.8°C | 2.4% | 144.3hPa | 2.6V | 00:00:00 | 00:00:00 | 00:00:00 | |
| DL1NUX | 2026-08-30 13:07:30 | 49.01007 | 10.16775 | 81° | 71km/h | 14308m | -5.8m/s | -54.9°C | 6% | 143.5hPa | 2.6V | 08:07:01 | 02:23:01 | 00:00:00 | |
| DK7TD | 2026-08-30 13:07:27 | 49.01013 | 10.16829 | 81° | 73km/h | 14296m | -5.8m/s | -54.9°C | 2.4% | 143.8hPa | 2.7V | 08:07:14 | 02:23:03 | 00:00:00 | |
| BIOWL1-15 | 2026-08-30 13:07:24 | 49.01005 | 10.16747 | 80° | 73km/h | 14313m | -5.7m/s | -54.9°C | 2.5% | 143.4hPa | 2.6V | 08:07:14 | 02:23:00 | 00:00:00 | |
| DO3MHA-11 | 2026-08-30 13:07:23 | 49.01001 | 10.16720 | 81° | 71km/h | 14319m | -5.6m/s | -54.9°C | 6.1% | 143.2hPa | 2.6V | 00:00:00 | 02:22:59 | 00:00:00 | |
| DF7PN | 2026-08-30 13:07:22 | 49.00998 | 10.16692 | 80° | 71km/h | 14325m | -5.6m/s | -54.8°C | 2.5% | 143.1hPa | 2.6V | 00:00:00 | 00:00:00 | 00:00:00 | |
| DM0DOS-11 | 2026-08-30 13:07:21 | 49.00978 | 10.16532 | 77° | 69km/h | 14358m | -5.7m/s | -54.6°C | 5.9% | 142.4hPa | 2.6V | 08:07:10 | 02:22:52 | 00:00:00 | |
| DL1NUX | 2026-08-30 13:07:20 | 49.00975 | 10.16506 | 78° | 68km/h | 14364m | -5.8m/s | -54.6°C | 5.9% | 142.2hPa | 2.6V | 08:07:11 | 02:22:51 | 00:00:00 | |
| DK7TD | 2026-08-30 13:07:17 | 49.00982 | 10.16558 | 79° | 69km/h | 14352m | -5.6m/s | -54.7°C | 2.5% | 142.5hPa | 2.6V | 08:07:14 | 02:22:53 | 00:00:00 | |
| BIOWL1-15 | 2026-08-30 13:07:13 | 49.00956 | 10.16380 | 77° | 68km/h | 14393m | -5.7m/s | -54.6°C | 2.6% | 141.6hPa | 2.6V | 08:08:05 | 02:22:46 | 00:00:00 | |
| DO3MHA-11 | 2026-08-30 13:07:13 | 49.00967 | 10.16455 | 78° | 66km/h | 14376m | -5.8m/s | -54.6°C | 6.0% | 141.9hPa | 2.6V | 00:00:00 | 02:22:49 | 00:00:00 | |
| DL9SK-14 | 2026-08-30 13:07:12 | 49.00964 | 10.16430 | 77° | 68km/h | 14381m | -5.8m/s | -54.6°C | 2.5% | 141.9hPa | 2.6V | 00:00:00 | 00:00:00 | 00:00:00 | |
| DM0DOS-11 | 2026-08-30 13:07:11 | 49.00938 | 10.16282 | 73° | 64km/h | 14416m | -5.9m/s | -54.7°C | 6.2% | 141.1hPa | 2.6V | 08:07:20 | 02:22:42 | 00:00:00 | |
| DL1NUX | 2026-08-30 13:07:10 | 49.00934 | 10.16257 | 73° | 66km/h | 14422m | -6m/s | -54.7°C | 6.1% | 140.9hPa | 2.6V | 08:07:21 | 02:22:41 | 00:00:00 | |
| DK7TD | 2026-08-30 13:07:07 | 49.00943 | 10.16306 | 75° | 66km/h | 14410m | -5.8m/s | -54.7°C | 2.8% | 141.2hPa | 2.7V | 08:08:05 | 02:22:43 | 00:00:00 | |
| BIOWL1-15 | 2026-08-30 13:07:03 | 49.00914 | 10.16162 | 72° | 64km/h | 14446m | -5.9m/s | -54.6°C | 2.9% | 140.4hPa | 2.6V | 08:08:05 | 02:22:37 | 00:00:00 | |
| DO3MHA-11 | 2026-08-30 13:07:03 | 49.00924 | 10.16209 | 73° | 66km/h | 14434m | -6.0m/s | -54.5°C | 6.2% | 140.6hPa | 2.6V | 00:00:00 | 02:22:39 | 00:00:00 | |
| DM0DOS-11 | 2026-08-30 13:07:01 | 49.00891 | 10.16040 | 76° | 66km/h | 14474m | -5.8m/s | -54.8°C | 6.3% | 139.8hPa | 2.6V | 08:07:30 | 02:22:32 | 00:00:00 | |
| DK7TD | 2026-08-30 13:06:57 | 49.00896 | 10.16064 | 75° | 68km/h | 14469m | -5.7m/s | -54.7°C | 2.9% | 139.9hPa | 2.7V | 08:08:05 | 02:22:33 | 00:00:00 | |
| BIOWL1-15 | 2026-08-30 13:06:52 | 49.00857 | 10.15846 | 74° | 64km/h | 14520m | -5.6m/s | -55.1°C | 3.2% | 138.7hPa | 2.6V | 08:08:05 | 02:22:24 | 00:00:00 | |
| DM0DOS-11 | 2026-08-30 13:06:51 | 49.00843 | 10.15774 | 73° | 66km/h | 14538m | -6m/s | -55°C | 6.5% | 138.4hPa | 2.6V | 08:07:41 | 02:22:21 | 00:00:00 | |
| DK7TD | 2026-08-30 13:06:47 | 49.00852 | 10.15822 | 73° | 66km/h | 14526m | -6m/s | -54.9°C | 3.1% | 138.7hPa | 2.7V | 08:08:05 | 02:22:23 | 00:00:00 | |
| DJ8HS-15 | 2026-08-30 13:06:45 | 49.00843 | 10.15774 | 74° | 66km/h | 14538m | -5.9m/s | -54.9°C | 6.5% | 138.4hPa | 2.6V | 00:00:00 | 02:22:21 | 00:00:00 | |
| DO3MHA-11 | 2026-08-30 13:06:43 | 49.00834 | 10.15725 | 76° | 66km/h | 14551m | -5.7m/s | -54.8°C | 6.5% | 138.1hPa | 2.6V | 08:07:00 | 02:22:19 | 00:00:00 | |
| DL6DJ-15 | 2026-08-30 13:06:42 | 49.00825 | 10.15675 | 75° | 66km/h | 14562m | -5.7m/s | -54.8°C | 2.9% | 137.9hPa | 2.6V | 00:00:00 | 00:00:00 | 00:00:00 | |
| DB0UT-7 | 2026-08-30 13:06:41 | 49.00825 | 10.15675 | 76° | 64km/h | 14562m | -5.7m/s | -54.8°C | 6.5% | 137.9hPa | 2.6V | 00:00:00 | 00:00:00 | 00:00:00 | |
| DM0DOS-11 | 2026-08-30 13:06:40 | 49.00797 | 10.15529 | 71° | 66km/h | 14596m | -5.7m/s | -54.9°C | 6.7% | 137.1hPa | 2.6V | 08:07:51 | 02:22:11 | 00:00:00 | |
| BIOWL1-15 | 2026-08-30 13:06:39 | 49.00807 | 10.15577 | 73° | 66km/h | 14585m | -5.6m/s | -54.9°C | 3.3% | 137.4hPa | 2.7V | 08:08:05 | 02:22:13 | 00:00:00 | |
| DK7TD | 2026-08-30 13:06:36 | 49.00802 | 10.15553 | 73° | 66km/h | 14590m | -5.7m/s | -54.9°C | 3.3% | 137.3hPa | 2.6V | 08:08:05 | 02:22:12 | 00:00:00 | |
| DO3MHA-11 | 2026-08-30 13:06:33 | 49.00786 | 10.15482 | 72° | 64km/h | 14608m | -5.9m/s | -54.8°C | 6.7% | 136.8hPa | 2.6V | 00:00:00 | 02:22:09 | 00:00:00 | |
| DM0DOS-11 | 2026-08-30 13:06:30 | 49.00738 | 10.15298 | 64° | 64km/h | 14654m | -6m/s | -54.4°C | 6.6% | 135.9hPa | 2.6V | 08:08:01 | 02:22:01 | 00:00:00 | |
| BIOWL1-15 | 2026-08-30 13:06:29 | 49.00764 | 10.15389 | 69° | 64km/h | 14630m | -5.9m/s | -54.5°C | 3.3% | 136.4hPa | 2.6V | 08:08:05 | 02:22:05 | 00:00:00 | |
| SONCRA | 2026-08-30 13:06:29 | 49.00758 | 10.15366 | 67° | 64km/h | 14636m | -6.1m/s | -54.6°C | 3.0% | 136.3hPa | 2.7V | 00:00:00 | 00:00:00 | 00:00:00 | |
| DL1NUX | 2026-08-30 13:06:27 | 49.00717 | 10.15231 | 64° | 64km/h | 14672m | -6.1m/s | -54.4°C | 6.6% | 135.5hPa | 2.7V | 08:08:04 | 02:21:58 | 00:00:00 | |
| DK7TD | 2026-08-30 13:06:26 | 49.00745 | 10.15320 | 67° | 64km/h | 14648m | -6m/s | -54.4°C | 3.4% | 136hPa | 2.6V | 08:08:05 | 02:22:02 | 00:00:00 | |
| DJ8HS-15 | 2026-08-30 13:06:25 | 49.00738 | 10.15297 | 65° | 62km/h | 14654m | -5.9m/s | -54.3°C | 6.6% | 135.8hPa | 2.6V | 00:00:00 | 02:22:01 | 00:00:00 | |
| DO3MHA-11 | 2026-08-30 13:06:23 | 49.00724 | 10.15253 | 65° | 64km/h | 14666m | -5.8m/s | -54.3°C | 6.6% | 135.6hPa | 2.6V | 00:00:00 | 02:21:59 | 00:00:00 | |
| DO9HM | 2026-08-30 13:06:21 | 49.00717 | 10.15231 | 65° | 64km/h | 14672m | -6.1m/s | -54.4°C | 3.1% | 135.5hPa | 2.6V | 08:08:00 | 00:00:00 | 00:00:00 | |
| DM0DOS-11 | 2026-08-30 13:06:20 | 49.00671 | 10.15076 | 66° | 60km/h | 14714m | -6m/s | -54.5°C | 6.7% | 134.6hPa | 2.6V | 08:08:11 | 02:21:51 | 00:00:00 | |
| BIOWL1-15 | 2026-08-30 13:06:18 | 49.00683 | 10.15120 | 67° | 62km/h | 14702m | -6m/s | -54.6°C | 3.5% | 134.9hPa | 2.7V | 08:14:02 | 02:21:53 | 00:00:00 | |
| DK7TD | 2026-08-30 13:06:16 | 49.00677 | 10.15098 | 67° | 62km/h | 14708m | -6m/s | -54.6°C | 3.5% | 134.8hPa | 2.6V | 08:08:56 | 02:21:52 | 00:00:00 | |
| DL1NUX | 2026-08-30 13:06:14 | 49.00652 | 10.15012 | 67° | 60km/h | 14732m | -6.1m/s | -54.1°C | 6.5% | 134.3hPa | 2.7V | 08:08:14 | 02:21:48 | 00:00:00 | |
| DO3MHA-11 | 2026-08-30 13:06:13 | 49.00658 | 10.15033 | 66° | 62km/h | 14726m | -5.9m/s | -54.2°C | 6.5% | 134.3hPa | 2.6V | 00:00:00 | 02:21:49 | 00:00:00 | |
| DF3TZ-5 | 2026-08-30 13:06:12 | 49.00646 | 10.14990 | 65° | 60km/h | 14738m | -6.1m/s | 0°C | -1.0% | -1.0hPa | 2.6V | 00:00:00 | 00:00:00 | 00:00:00 | |
| DB0UT-7 | 2026-08-30 13:06:11 | 49.00646 | 10.14990 | 66° | 64km/h | 14739m | -6.0m/s | -54.1°C | 6.4% | 134.1hPa | 2.6V | 00:00:00 | 02:21:47 | 00:00:00 | |
| DM0DOS-11 | 2026-08-30 13:06:10 | 49.00608 | 10.14858 | 68° | 64km/h | 14775m | -6.2m/s | -54.2°C | 6.5% | 133.4hPa | 2.6V | 08:08:21 | 02:21:41 | 00:00:00 | |
| BIOWL1-15 | 2026-08-30 13:06:08 | 49.00627 | 10.14925 | 65° | 62km/h | 14756m | -6.2m/s | -54.3°C | 3.5% | 133.8hPa | 2.6V | 08:14:02 | 02:21:44 | 00:00:00 | |
| DK7TD | 2026-08-30 13:06:05 | 49.00608 | 10.14858 | 68° | 64km/h | 14775m | -6.2m/s | -54.2°C | 3.4% | 133.4hPa | 2.6V | 08:08:56 | 02:21:41 | 00:00:00 | |
| BIOWL1-15 | 2026-08-30 13:05:57 | 49.00546 | 10.14634 | 68° | 62km/h | 14836m | -6.2m/s | -54.4°C | 3.3% | 132.2hPa | 2.6V | 08:14:02 | 02:21:31 | 00:00:00 | |
| DK7TD | 2026-08-30 13:05:54 | 49.00540 | 10.14612 | 68° | 62km/h | 14842m | -6.2m/s | -54.4°C | 3.3% | 132hPa | 2.6V | 08:08:56 | 02:21:30 | 00:00:00 | |
| DL1NUX | 2026-08-30 13:05:54 | 49.00524 | 10.14545 | 70° | 62km/h | 14860m | -6.2m/s | -54.5°C | 6.4% | 131.6hPa | 2.7V | 08:08:35 | 02:21:27 | 00:00:00 | |
| DB0ND-19 | 2026-08-30 13:05:52 | 49.00529 | 10.14568 | 69° | 62km/h | 14854m | -6.1m/s | -54.5°C | 2.8% | 131.7hPa | 2.6V | 00:00:00 | 00:00:00 | 00:00:00 | |
| DF7PN | 2026-08-30 13:05:49 | 49.00514 | 10.14500 | 71° | 62km/h | 14872m | -6.2m/s | -54.5°C | 2.8% | 131.3hPa | 2.6V | 00:00:00 | 00:00:00 | 00:00:00 | |
| OE5DXL-15 | 2026-08-30 13:05:48 | 49.00508 | 10.14477 | 73° | 68km/h | 14879m | -6.0m/s | -54.4°C | 6.3% | 131.1hPa | 2.6V | 00:00:00 | 00:00:00 | 00:00:00 | |
| DJ8HS-15 | 2026-08-30 13:05:45 | 49.00494 | 10.14407 | 73° | 69km/h | 14897m | -6.0m/s | -54.3°C | 6.3% | 130.8hPa | 2.6V | 00:00:00 | 02:21:21 | 00:00:00 | |
| DL1NUX | 2026-08-30 13:05:44 | 49.00475 | 10.14313 | 74° | 64km/h | 14921m | -6.3m/s | -54.5°C | 6.2% | 130.4hPa | 2.6V | 08:08:45 | 02:21:17 | 00:00:00 | |
| DK7TD | 2026-08-30 13:05:43 | 49.00485 | 10.14360 | 73° | 66km/h | 14909m | -6.2m/s | -54.5°C | 3% | 130.6hPa | 2.6V | 08:08:56 | 02:21:19 | 00:00:00 | |
| HSKMA3-T | 2026-08-30 13:05:38 | 49.00462 | 10.14242 | 73° | 66km/h | 14940m | -6.3m/s | -54.6°C | 3% | 129.9hPa | 2.6V | 08:08:56 | 02:21:14 | 00:00:00 | |
| DB0UT-7 | 2026-08-30 13:05:37 | 49.00457 | 10.14218 | 75° | 69km/h | 14946m | -6.0m/s | -54.6°C | 6.2% | 129.8hPa | 2.7V | 00:00:00 | 00:00:00 | 00:00:00 | |
| DG1MJG | 2026-08-30 13:05:36 | 49.00457 | 10.14218 | 76° | 64km/h | 14946m | -6.1m/s | -54.6°C | 2.7% | 129.8hPa | 2.7V | 08:08:00 | 00:00:00 | 00:00:00 | |
| DL1NUX | 2026-08-30 13:05:34 | 49.00433 | 10.14065 | 77° | 73km/h | 14982m | -6m/s | -54.7°C | 6.2% | 129.1hPa | 2.7V | 08:08:55 | 02:21:07 | 00:00:00 | |
| DK7TD | 2026-08-30 13:05:33 | 49.00441 | 10.14118 | 76° | 69km/h | 14971m | -6m/s | 0°C | 0% | 129.3hPa | 2.6V | 08:08:56 | 02:21:09 | 00:00:00 | |
| DO3MHA-11 | 2026-08-30 13:05:33 | 49.00440 | 10.14118 | 76° | 71km/h | 14971m | -6.0m/s | -54.6°C | 6.2% | 129.3hPa | 2.6V | 00:00:00 | 02:21:09 | 00:00:00 | |
| AZAK | 2026-08-30 13:05:32 | 49.00440 | 10.14118 | 77° | 69km/h | 14971m | -6.0m/s | -54.7°C | 2.6% | 129.3hPa | 2.6V | 08:08:00 | 00:00:00 | 00:00:00 | |
| DN1GJH-1 | 2026-08-30 13:05:31 | 49.00436 | 10.14091 | 79° | 69km/h | 14977m | -6.1m/s | -54.7°C | 2.6% | 129.3hPa | 2.6V | 08:08:00 | 00:00:00 | 00:00:00 | |
| DM0DOS-11 | 2026-08-30 13:05:29 | 49.00409 | 10.13874 | 79° | 71km/h | 15026m | -6.1m/s | -54.9°C | 6.2% | 128.2hPa | 2.6V | 08:09:02 | 02:21:00 | 00:00:00 | |
| HSKMA3-T | 2026-08-30 13:05:28 | 49.00422 | 10.13983 | 78° | 71km/h | 15001m | -6.1m/s | -54.8°C | 2.8% | 128.7hPa | 2.6V | 08:13:11 | 02:21:04 | 00:00:00 | |
| NBG1-10 | 2026-08-30 13:05:27 | 49.00418 | 10.13956 | 80° | 66km/h | 15008m | -6.1m/s | -54.8°C | 6.2% | 128.6hPa | 2.7V | 00:00:00 | 02:21:03 | 00:00:00 | |
| DL1ZP-14 | 2026-08-30 13:05:25 | 49.00408 | 10.13874 | 79° | 71km/h | 15026m | -6.1m/s | -54.9°C | 2.6% | 128.2hPa | 2.6V | 00:00:00 | 00:00:00 | 00:00:00 | |
| DL1NUX | 2026-08-30 13:05:24 | 49.00400 | 10.13794 | 81° | 71km/h | 15045m | -6.3m/s | -54.9°C | 6.1% | 127.8hPa | 2.7V | 08:09:05 | 02:20:57 | 00:00:00 | |
| DK7TD | 2026-08-30 13:05:23 | 49.00405 | 10.13848 | 80° | 69km/h | 15032m | -6.2m/s | 0°C | 0% | 128.1hPa | 2.6V | 18:12:15 | 02:20:59 | 00:00:00 | |
| DO3MHA-11 | 2026-08-30 13:05:23 | 49.00405 | 10.13847 | 81° | 69km/h | 15032m | -6.2m/s | -54.8°C | 6.1% | 128.1hPa | 2.6V | 00:00:00 | 02:20:59 | 00:00:00 | |
| DB0ND-19 | 2026-08-30 13:05:21 | 49.00400 | 10.13794 | 81° | 69km/h | 15045m | -6.3m/s | -54.9°C | 2.5% | 127.8hPa | 2.6V | 00:00:00 | 00:00:00 | 00:00:00 | |
| PG1ADW-2 | 2026-08-30 13:05:20 | 49.00397 | 10.13767 | 84° | 66km/h | 15051m | -6.6m/s | -54.8°C | 6.1% | 127.7hPa | 2.6V | 00:00:00 | 02:20:56 | 00:00:00 | |
| DM0DOS-11 | 2026-08-30 13:05:19 | 49.00385 | 10.13610 | 83° | 66km/h | 15089m | -6.3m/s | -54.5°C | 5.8% | 127hPa | 2.6V | 08:09:12 | 02:20:50 | 00:00:00 | |
| HSKMA3-T | 2026-08-30 13:05:18 | 49.00393 | 10.13713 | 84° | 69km/h | 15064m | -6.4m/s | -54.7°C | 2.5% | 127.5hPa | 2.6V | 08:13:11 | 02:20:54 | 00:00:00 | |
| OE5DXL-15 | 2026-08-30 13:05:18 | 49.00393 | 10.13713 | 85° | 60km/h | 15064m | -6.4m/s | -54.7°C | 6.0% | 127.4hPa | 2.7V | 00:00:00 | 00:00:00 | 00:00:00 | |
| DL1NUX | 2026-08-30 13:05:14 | 49.00380 | 10.13535 | 84° | 64km/h | 15109m | -6.6m/s | -54.5°C | 5.8% | 126.6hPa | 2.7V | 08:09:15 | 02:20:47 | 00:00:00 | |
| DK7TD | 2026-08-30 13:05:13 | 49.00383 | 10.13585 | 83° | 66km/h | 15096m | -6.5m/s | 0°C | 0% | 0hPa | 2.6V | 18:12:15 | 02:20:49 | 00:00:00 | |
| HSKMA3-T | 2026-08-30 13:05:07 | 49.00375 | 10.13437 | 88° | 64km/h | 15135m | -6.5m/s | -54.6°C | 2.3% | 126.1hPa | 2.7V | 08:13:11 | 02:20:43 | 00:00:00 | |
| DK7TD | 2026-08-30 13:05:02 | 49.00375 | 10.13317 | 92° | 60km/h | 15168m | -6.8m/s | 0°C | 0% | 0hPa | 2.7V | 18:12:15 | 02:20:38 | 00:00:00 | |
| BIOWL1-15 | 2026-08-30 13:04:56 | 49.00387 | 10.12978 | 93° | 49km/h | 15276m | -6.9m/s | -54.3°C | 2% | 123.3hPa | 2.7V | 08:14:02 | 02:20:22 | 00:00:00 | |
| SONCRA | 2026-08-30 13:04:56 | 49.00379 | 10.13183 | 91° | 55km/h | 15208m | -6.7m/s | -54.6°C | 2.2% | 124.6hPa | 2.6V | 00:00:00 | 00:00:00 | 00:00:00 | |
| DM0DOS-11 | 2026-08-30 13:04:55 | 49.00380 | 10.13140 | 92° | 57km/h | 15222m | -6.7m/s | -54.6°C | 5.6% | 124.4hPa | 2.6V | 08:09:32 | 02:20:30 | 00:00:00 | |
| DK7TD | 2026-08-30 13:04:52 | 49.00382 | 10.13097 | 94° | 55km/h | 15235m | -6.9m/s | 0°C | 0% | 0hPa | 2.7V | 18:12:15 | 02:20:28 | 00:00:00 | |
| DB0ND-19 | 2026-08-30 13:04:50 | 49.00384 | 10.13056 | 94° | 53km/h | 15249m | -6.7m/s | -54.3°C | 2.1% | 123.8hPa | 2.6V | 00:00:00 | 00:00:00 | 00:00:00 | |
| DM0DOS-11 | 2026-08-30 13:04:49 | 49.00388 | 10.12939 | 90° | 47km/h | 15289m | -6.7m/s | -54.4°C | 5.4% | 123hPa | 2.6V | 08:09:42 | 02:20:20 | 00:00:00 | |
| HSKMA3-T | 2026-08-30 13:04:48 | 49.00385 | 10.13017 | 95° | 51km/h | 15263m | -6.5m/s | -54.2°C | 2% | 123.6hPa | 2.6V | 08:13:11 | 02:20:24 | 00:00:00 | |
| DF7PN | 2026-08-30 13:04:47 | 49.00386 | 10.12997 | 92° | 49km/h | 15269m | -6.7m/s | -54.3°C | 2.1% | 123.5hPa | 2.6V | 00:00:00 | 00:00:00 | 00:00:00 | |
| BIOWL1-15 | 2026-08-30 13:04:47 | 49.00387 | 10.12958 | 92° | 51km/h | 15282m | -6.8m/s | -54.3°C | 2% | 123.2hPa | 2.6V | 08:14:02 | 02:20:21 | 00:00:00 | |
| DO3MHA-11 | 2026-08-30 13:04:43 | 49.00388 | 10.12921 | 92° | 47km/h | 15296m | -6.8m/s | -54.4°C | 5.4% | 122.9hPa | 2.6V | 00:00:00 | 02:20:19 | 00:00:00 | |
| PG1ADW-2 | 2026-08-30 13:04:40 | 49.00388 | 10.12865 | 90° | 15km/h | 15316m | -6.4m/s | -54.5°C | 5.4% | 122.5hPa | 2.6V | 00:00:00 | 00:00:00 | 00:00:00 | |
| DO9HM | 2026-08-30 13:04:39 | 49.00388 | 10.12847 | 92° | 46km/h | 15323m | -6.6m/s | -54.6°C | 2.2% | 122.5hPa | 2.6V | 08:09:00 | 00:00:00 | 00:00:00 | |
| DL6DJ-15 | 2026-08-30 13:04:38 | 49.00388 | 10.12811 | 89° | 46km/h | 15336m | -6.6m/s | -54.7°C | 2.1% | 122.1hPa | 2.6V | 00:00:00 | 00:00:00 | 00:00:00 | |
| DB0UT-7 | 2026-08-30 13:04:37 | 49.00388 | 10.12811 | 90° | 42km/h | 15336m | -6.6m/s | -54.6°C | 5.5% | 122.1hPa | 2.6V | 00:00:00 | 00:00:00 | 00:00:00 | |
| DM0DOS-11 | 2026-08-30 13:04:36 | 49.00388 | 10.12757 | 89° | 46km/h | 15356m | -7m/s | -54.8°C | 5.5% | 121.8hPa | 2.6V | 08:09:52 | 02:20:10 | 00:00:00 | |
| BIOWL1-15 | 2026-08-30 13:04:34 | 49.00387 | 10.12722 | 86° | 44km/h | 15370m | -6.9m/s | -54.9°C | 2% | 121.5hPa | 2.7V | 08:14:02 | 02:20:08 | 00:00:00 | |
| DO3MHA-11 | 2026-08-30 13:04:33 | 49.00388 | 10.12740 | 88° | 44km/h | 15363m | -6.9m/s | -54.8°C | 5.5% | 121.6hPa | 2.6V | 00:00:00 | 02:20:09 | 00:00:00 | |
| AZAK | 2026-08-30 13:04:31 | 49.00387 | 10.12722 | 87° | 44km/h | 15370m | -6.9m/s | -54.8°C | 2.1% | 121.5hPa | 2.6V | 08:10:00 | 00:00:00 | 00:00:00 | |
| DM0DOS-11 | 2026-08-30 13:04:25 | 49.00378 | 10.12590 | 82° | 44km/h | 15427m | -7.2m/s | -55.3°C | 5.6% | 120.4hPa | 2.6V | 08:10:02 | 02:20:00 | 00:00:00 | |
| HSKMA3-T | 2026-08-30 13:04:21 | 49.00373 | 10.12542 | 78° | 42km/h | 15449m | -7.1m/s | -55.5°C | 2% | 120hPa | 2.7V | 08:13:11 | 02:19:57 | 00:00:00 | |
| BIOWL1-15 | 2026-08-30 13:04:19 | 49.00368 | 10.12510 | 75° | 42km/h | 15464m | -7.7m/s | -55.6°C | 2% | 119.7hPa | 2.6V | 08:14:02 | 02:19:55 | 00:00:00 | |
| DM0DOS-11 | 2026-08-30 13:04:19 | 49.00354 | 10.12436 | 71° | 37km/h | 15502m | -7.3m/s | -55.6°C | 5.6% | 119hPa | 2.6V | 08:10:12 | 02:19:50 | 00:00:00 | |
| DB0ND-19 | 2026-08-30 13:04:19 | 49.00368 | 10.12510 | 75° | 42km/h | 15464m | -7.7m/s | -55.6°C | 2.1% | 119.7hPa | 2.7V | 00:00:00 | 00:00:00 | 00:00:00 | |
| OE5DXL-15 | 2026-08-30 13:04:18 | 49.00365 | 10.12495 | 77° | 38km/h | 15472m | -7.7m/s | -55.6°C | 5.6% | 119.5hPa | 2.7V | 00:00:00 | 00:00:00 | 00:00:00 | |
| DO9HM | 2026-08-30 13:04:17 | 49.00365 | 10.12495 | 78° | 40km/h | 15472m | -7.8m/s | -55.7°C | 2.2% | 119.6hPa | 2.7V | 08:10:00 | 00:00:00 | 00:00:00 | |
| DF7PN | 2026-08-30 13:04:16 | 49.00357 | 10.12450 | 73° | 38km/h | 15494m | -7.4m/s | -55.6°C | 2.1% | 119.2hPa | 2.7V | 00:00:00 | 00:00:00 | 00:00:00 | |
| DL1NUX | 2026-08-30 13:04:12 | 49.00349 | 10.12409 | 70° | 37km/h | 15516m | -7.3m/s | -55.7°C | 5.6% | 118.8hPa | 2.7V | 08:10:14 | 02:19:48 | 00:00:00 | |
| HSKMA3-T | 2026-08-30 13:04:11 | 49.00346 | 10.12396 | 73° | 35km/h | 15523m | -7m/s | -55.7°C | 2% | 118.6hPa | 2.7V | 08:13:11 | 02:19:47 | 00:00:00 | |
| AZAK | 2026-08-30 13:04:10 | 49.00346 | 10.12396 | 74° | 35km/h | 15523m | -7.0m/s | -55.7°C | 2.1% | 118.6hPa | 2.6V | 08:10:00 | 00:00:00 | 00:00:00 | |
| DK5PH-5 | 2026-08-30 13:04:09 | 49.00340 | 10.12369 | 73° | 37km/h | 15538m | -7.1m/s | -55.7°C | 5.7% | 118.3hPa | 2.6V | 08:10:00 | 02:19:45 | 00:00:00 | |
| OE5DRO-10 | 2026-08-30 13:04:08 | 49.00337 | 10.12356 | 72° | 38km/h | 15545m | -7.0m/s | -55.7°C | 5.8% | 118.1hPa | 2.6V | 00:00:00 | 00:00:00 | 00:00:00 | |
| DL6DJ-15 | 2026-08-30 13:04:07 | 49.00331 | 10.12328 | 71° | 38km/h | 15559m | -7.1m/s | -55.9°C | 2.1% | 118.0hPa | 2.6V | 00:00:00 | 00:00:00 | 00:00:00 | |
| SO1NDE-10 | 2026-08-30 13:04:06 | 49.00331 | 10.12328 | 72° | 38km/h | 15559m | -7.0m/s | -55.8°C | 5.7% | 117.9hPa | 2.6V | 00:00:00 | 02:19:42 | 00:00:00 | |
| DM0DOS-11 | 2026-08-30 13:04:05 | 49.00323 | 10.12299 | 68° | 40km/h | 15573m | -7.4m/s | -56°C | 5.7% | 117.7hPa | 2.6V | 08:10:22 | 02:19:40 | 00:00:00 | |
| DO3MHA-11 | 2026-08-30 13:04:03 | 49.00319 | 10.12285 | 65° | 38km/h | 15580m | -6.9m/s | -55.9°C | 5.7% | 117.5hPa | 2.7V | 00:00:00 | 02:19:39 | 00:00:00 | |
| DL1NUX | 2026-08-30 13:04:02 | 49.00311 | 10.12257 | 62° | 42km/h | 15594m | -7.4m/s | -56°C | 5.7% | 117.3hPa | 2.7V | 08:10:25 | 02:19:37 | 00:00:00 | |
| DM0DOS-11 | 2026-08-30 13:03:59 | 49.00278 | 10.12167 | 62° | 37km/h | 15646m | -7.3m/s | -56.4°C | 5.7% | 116.3hPa | 2.6V | 08:10:32 | 02:19:30 | 00:00:00 | |
| HSKMA3-T | 2026-08-30 13:03:54 | 49.00278 | 10.12167 | 62° | 37km/h | 15646m | -7.3m/s | -56.4°C | 1.9% | 116.3hPa | 2.6V | 08:13:11 | 02:19:30 | 00:00:00 | |
| DL1ZP-14 | 2026-08-30 13:03:51 | 49.00266 | 10.12130 | 61° | 35km/h | 15668m | -7.1m/s | -56.4°C | 2.2% | 115.9hPa | 2.7V | 00:00:00 | 00:00:00 | 00:00:00 | |
| DJTTGO | 2026-08-30 13:03:50 | 49.00266 | 10.12130 | 63° | 35km/h | 15668m | -7.1m/s | -56.4°C | 2.2% | 115.9hPa | 2.6V | 00:00:00 | 00:00:00 | 00:00:00 | |
| OE5DRO-10 | 2026-08-30 13:03:49 | 49.00257 | 10.12106 | 59° | 33km/h | 15683m | -7.2m/s | -55.9°C | 5.7% | 115.6hPa | 2.6V | 08:10:00 | 00:00:00 | 00:00:00 | |
| OE5DXL-15 | 2026-08-30 13:03:48 | 49.00253 | 10.12094 | 61° | 37km/h | 15690m | -7.3m/s | -55.8°C | 5.6% | 115.5hPa | 2.6V | 00:00:00 | 00:00:00 | 00:00:00 | |
| DN1GJH-1 | 2026-08-30 13:03:47 | 49.00253 | 10.12094 | 61° | 35km/h | 15690m | -7.3m/s | -55.9°C | 2.0% | 115.6hPa | 2.6V | 08:10:00 | 00:00:00 | 00:00:00 | |
| DM0DOS-11 | 2026-08-30 13:03:45 | 49.00233 | 10.12048 | 54° | 35km/h | 15719m | -7.1m/s | -55.8°C | 5.6% | 115.1hPa | 2.6V | 08:10:42 | 02:19:20 | 00:00:00 | |
| DF7PN | 2026-08-30 13:03:45 | 49.00233 | 10.12048 | 54° | 33km/h | 15719m | -7.1m/s | -55.8°C | 2.0% | 115.1hPa | 2.6V | 00:00:00 | 00:00:00 | 00:00:00 | |
| DO3MHA-11 | 2026-08-30 13:03:43 | 49.00229 | 10.12037 | 58° | 33km/h | 15726m | -7.2m/s | -55.9°C | 5.6% | 114.9hPa | 2.6V | 08:10:00 | 02:19:19 | 00:00:00 | |
| DL1NUX | 2026-08-30 13:03:42 | 49.00211 | 10.11995 | 58° | 31km/h | 15755m | -7.3m/s | -55.9°C | 5.6% | 114.4hPa | 2.6V | 08:10:47 | 02:19:15 | 00:00:00 | |
| DM0DOS-11 | 2026-08-30 13:03:39 | 49.00190 | 10.11942 | 62° | 33km/h | 15792m | -7.5m/s | -56°C | 5.7% | 113.7hPa | 2.6V | 08:10:52 | 02:19:10 | 00:00:00 | |
| BIOWL1-15 | 2026-08-30 13:03:38 | 49.00190 | 10.11942 | 62° | 33km/h | 15792m | -7.5m/s | -56°C | 1.9% | 113.7hPa | 2.6V | 08:14:02 | 02:19:10 | 00:00:00 | |
| DB0UT-7 | 2026-08-30 13:03:37 | 49.00202 | 10.11974 | 59° | 42km/h | 15770m | -7.2m/s | -55.9°C | 5.7% | 114.0hPa | 2.7V | 08:10:00 | 00:00:00 | 00:00:00 | |
| DL6DJ-15 | 2026-08-30 13:03:36 | 49.00194 | 10.11953 | 59° | 33km/h | 15784m | -7.4m/s | -56.0°C | 2.1% | 113.8hPa | 2.7V | 00:00:00 | 00:00:00 | 00:00:00 | |
| DG1MJG | 2026-08-30 13:03:34 | 49.00194 | 10.11953 | 60° | 33km/h | 15785m | -7.4m/s | -56.0°C | 2.1% | 113.8hPa | 2.7V | 08:11:00 | 00:00:00 | 00:00:00 | |
| DO3MHA-11 | 2026-08-30 13:03:33 | 49.00186 | 10.11930 | 60° | 38km/h | 15799m | -7.3m/s | -55.9°C | 5.7% | 113.6hPa | 2.7V | 00:00:00 | 02:19:09 | 00:00:00 | |
| DL1NUX | 2026-08-30 13:03:31 | 49.00152 | 10.11841 | 61° | 40km/h | 15852m | -7.5m/s | -55.9°C | 5.5% | 112.7hPa | 2.7V | 08:11:00 | 02:19:02 | 00:00:00 | |
| AZAK | 2026-08-30 13:03:31 | 49.00171 | 10.11893 | 59° | 38km/h | 15822m | -7.6m/s | -56.0°C | 2.0% | 113.2hPa | 2.6V | 08:11:00 | 00:00:00 | 00:00:00 | |
| OE5DRO-10 | 2026-08-30 13:03:30 | 49.00171 | 10.11894 | 59° | 42km/h | 15822m | -7.5m/s | -56.0°C | 5.6% | 113.2hPa | 2.6V | 00:00:00 | 00:00:00 | 00:00:00 | |
| SO1NDE-10 | 2026-08-30 13:03:26 | 49.00152 | 10.11841 | 62° | 55km/h | 15852m | -7.5m/s | -55.9°C | 5.5% | 112.6hPa | 2.6V | 00:00:00 | 02:19:02 | 00:00:00 | |
| DM0DOS-11 | 2026-08-30 13:03:25 | 49.00144 | 10.11814 | 65° | 40km/h | 15867m | -7.6m/s | -55.9°C | 5.6% | 112.3hPa | 2.6V | 08:11:02 | 02:19:00 | 00:00:00 | |
| BIOWL1-15 | 2026-08-30 13:03:25 | 49.00148 | 10.11828 | 65° | 38km/h | 15859m | -7.3m/s | -56°C | 1.8% | 112.5hPa | 2.6V | 08:14:02 | 02:19:01 | 00:00:00 | |
| DO3MHA-11 | 2026-08-30 13:03:23 | 49.00140 | 10.11800 | 67° | 44km/h | 15874m | -7.6m/s | -55.9°C | 5.5% | 112.2hPa | 2.6V | 00:00:00 | 02:18:59 | 00:00:00 | |
| DL1ZP-14 | 2026-08-30 13:03:20 | 49.00127 | 10.11755 | 67° | 42km/h | 15897m | -7.6m/s | -56.0°C | 2.0% | 111.9hPa | 2.6V | 00:00:00 | 00:00:00 | 00:00:00 | |
| DM0DOS-11 | 2026-08-30 13:03:19 | 49.00099 | 10.11662 | 63° | 46km/h | 15944m | -7.8m/s | -55.8°C | 5.4% | 111hPa | 2.6V | 08:11:12 | 02:18:50 | 00:00:00 | |
| HSKMA3-T | 2026-08-30 13:03:15 | 49.00104 | 10.11677 | 63° | 46km/h | 15936m | -7.8m/s | -55.7°C | 1.6% | 111.2hPa | 2.6V | 08:13:11 | 02:18:51 | 00:00:00 | |
| BIOWL1-15 | 2026-08-30 13:03:13 | 49.00094 | 10.11646 | 63° | 47km/h | 15952m | -7.7m/s | -55.9°C | 1.7% | 110.9hPa | 2.6V | 08:14:02 | 02:18:49 | 00:00:00 | |
| DO3MHA-11 | 2026-08-30 13:03:13 | 49.00093 | 10.11645 | 64° | 51km/h | 15952m | -7.7m/s | -55.8°C | 5.4% | 110.9hPa | 2.6V | 00:00:00 | 02:18:49 | 00:00:00 | |
| OE5DRO-10 | 2026-08-30 13:03:11 | 49.00083 | 10.11613 | 64° | 51km/h | 15968m | -7.6m/s | -55.9°C | 5.5% | 110.6hPa | 2.6V | 00:00:00 | 00:00:00 | 00:00:00 | |
| DK5PH-5 | 2026-08-30 13:03:09 | 49.00072 | 10.11580 | 66° | 53km/h | 15983m | -7.5m/s | -56.0°C | 5.6% | 110.3hPa | 2.6V | 00:00:00 | 02:18:45 | 00:00:00 | |
| DL1NUX | 2026-08-30 13:03:08 | 49.00039 | 10.11467 | 67° | 57km/h | 16029m | -7.9m/s | -56.2°C | 5.7% | 109.6hPa | 2.6V | 08:11:23 | 02:18:39 | 00:00:00 | |
| DB0UT-7 | 2026-08-30 13:03:07 | 49.00061 | 10.11544 | 67° | 55km/h | 15998m | -7.9m/s | -56.0°C | 5.6% | 110.1hPa | 2.6V | 00:00:00 | 02:18:43 | 00:00:00 | |
| DN1GJH-1 | 2026-08-30 13:03:06 | 49.00060 | 10.11544 | 67° | 53km/h | 15998m | -7.9m/s | -56.0°C | 2.0% | 110.1hPa | 2.6V | 08:11:00 | 00:00:00 | 00:00:00 | |
| DM0DOS-11 | 2026-08-30 13:03:05 | 49.00044 | 10.11487 | 67° | 57km/h | 16022m | -7.8m/s | -56.2°C | 5.7% | 109.7hPa | 2.6V | 08:11:22 | 02:18:40 | 00:00:00 | |
| DG1MJG | 2026-08-30 13:03:05 | 49.00050 | 10.11506 | 69° | 55km/h | 16014m | -7.9m/s | -56.2°C | 2.0% | 109.8hPa | 2.6V | 08:11:00 | 00:00:00 | 00:00:00 | |
| DL9SK-14 | 2026-08-30 13:03:04 | 49.00039 | 10.11467 | 67° | 55km/h | 16029m | -7.9m/s | -56.2°C | 2.0% | 109.6hPa | 2.6V | 00:00:00 | 00:00:00 | 00:00:00 | |
| DO3MHA-11 | 2026-08-30 13:03:03 | 49.00039 | 10.11467 | 68° | 57km/h | 16030m | -7.9m/s | -56.2°C | 5.7% | 109.5hPa | 2.6V | 00:00:00 | 02:18:39 | 00:00:00 | |
| DM0DOS-11 | 2026-08-30 13:02:59 | 48.99995 | 10.11281 | 70° | 55km/h | 16100m | -7.6m/s | -56°C | 5.7% | 108.4hPa | 2.6V | 08:11:32 | 02:18:30 | 00:00:00 | |
| DL1NUX | 2026-08-30 13:02:58 | 48.99990 | 10.11261 | 70° | 55km/h | 16107m | -7.5m/s | -56°C | 5.7% | 108.2hPa | 2.6V | 08:11:33 | 02:18:29 | 00:00:00 | |
| HSKMA3-T | 2026-08-30 13:02:55 | 48.99999 | 10.11301 | 70° | 57km/h | 16092m | -7.7m/s | -56°C | 1.7% | 108.5hPa | 2.6V | 08:13:11 | 02:18:31 | 00:00:00 | |
| SONCRA | 2026-08-30 13:02:52 | 48.99986 | 10.11242 | 70° | 53km/h | 16115m | -7.4m/s | -56.1°C | 2.0% | 108.1hPa | 2.6V | 00:00:00 | 00:00:00 | 00:00:00 | |
| DL1ZP-14 | 2026-08-30 13:02:49 | 48.99973 | 10.11184 | 72° | 49km/h | 16138m | -7.7m/s | -55.7°C | 1.9% | 107.7hPa | 2.6V | 00:00:00 | 00:00:00 | 00:00:00 | |
| DB0ND-19 | 2026-08-30 13:02:46 | 48.99957 | 10.11113 | 72° | 46km/h | 16168m | -7.7m/s | -55.2°C | 1.8% | 107.2hPa | 2.6V | 00:00:00 | 00:00:00 | 00:00:00 | |
| DK7TD | 2026-08-30 13:02:43 | 48.99950 | 10.11079 | 73° | 44km/h | 16183m | -7.6m/s | -55.3°C | 1.5% | 107hPa | 2.6V | 08:13:11 | 02:18:19 | 00:00:00 | |
| DF7PN | 2026-08-30 13:02:43 | 48.99947 | 10.11063 | 75° | 44km/h | 16191m | -7.6m/s | -55.3°C | 1.8% | 106.8hPa | 2.6V | 00:00:00 | 00:00:00 | 00:00:00 | |
| DL1NUX | 2026-08-30 13:02:42 | 48.99937 | 10.11000 | 76° | 40km/h | 16221m | -7.3m/s | -55.3°C | 5.3% | 106.3hPa | 2.6V | 08:11:48 | 02:18:14 | 00:00:00 | |
| HSKMA3-T | 2026-08-30 13:02:40 | 48.99942 | 10.11031 | 77° | 42km/h | 16206m | -7.5m/s | -55.4°C | 1.6% | 106.6hPa | 2.7V | 08:13:11 | 02:18:16 | 00:00:00 | |
| DK5PH-5 | 2026-08-30 13:02:39 | 48.99939 | 10.11015 | 76° | 38km/h | 16214m | -7.4m/s | -55.3°C | 5.4% | 106.5hPa | 2.7V | 00:00:00 | 02:18:15 | 00:00:00 | |
| DB0UT-7 | 2026-08-30 13:02:37 | 48.99934 | 10.10985 | 75° | 40km/h | 16228m | -7.4m/s | -55.3°C | 5.3% | 106.2hPa | 2.7V | 00:00:00 | 00:00:00 | 00:00:00 | |
| DO9HM | 2026-08-30 13:02:36 | 48.99931 | 10.10970 | 73° | 38km/h | 16236m | -7.4m/s | -55.3°C | 1.8% | 106.1hPa | 2.7V | 08:12:00 | 00:00:00 | 00:00:00 | |
| DM0DOS-11 | 2026-08-30 13:02:35 | 48.99926 | 10.10943 | 69° | 37km/h | 16250m | -7.3m/s | -55.2°C | 5.3% | 105.8hPa | 2.7V | 08:11:52 | 02:18:10 | 00:00:00 | |
| DL6DJ-15 | 2026-08-30 13:02:34 | 48.99922 | 10.10929 | 71° | 37km/h | 16258m | -7.4m/s | -55.3°C | 1.8% | 105.7hPa | 2.7V | 00:00:00 | 00:00:00 | 00:00:00 | |
| DO3MHA-11 | 2026-08-30 13:02:33 | 48.99922 | 10.10929 | 72° | 38km/h | 16258m | -7.3m/s | -55.3°C | 5.4% | 105.7hPa | 2.7V | 00:00:00 | 02:18:09 | 00:00:00 | |
| DM0DOS-11 | 2026-08-30 13:02:29 | 48.99887 | 10.10809 | 61° | 40km/h | 16324m | -7.2m/s | -54.9°C | 5.1% | 104.6hPa | 2.7V | 08:12:02 | 02:18:00 | 00:00:00 | |
| HSKMA3-T | 2026-08-30 13:02:28 | 48.99905 | 10.10863 | 67° | 38km/h | 16294m | -7.3m/s | -55.3°C | 1.5% | 105.1hPa | 2.6V | 08:13:11 | 02:18:04 | 00:00:00 | |
| BIOWL1-15 | 2026-08-30 13:02:21 | 48.99861 | 10.10744 | 60° | 38km/h | 16360m | -7.2m/s | -54.7°C | 1.3% | 104hPa | 2.7V | 08:14:02 | 02:17:55 | 00:00:00 | |
| SONCRA | 2026-08-30 13:02:21 | 48.99866 | 10.10757 | 57° | 38km/h | 16353m | -7.2m/s | -54.7°C | 1.7% | 104.2hPa | 2.6V | 00:00:00 | 00:00:00 | 00:00:00 | |
| SO1NDE-10 | 2026-08-30 13:02:20 | 48.99866 | 10.10757 | 58° | 47km/h | 16353m | -7.1m/s | -54.6°C | 5.1% | 104.1hPa | 2.6V | 00:00:00 | 02:17:56 | 00:00:00 | |
| OE5DXL-15 | 2026-08-30 13:02:18 | 48.99856 | 10.10732 | 58° | 40km/h | 16368m | -7.2m/s | -54.7°C | 5.0% | 103.9hPa | 2.6V | 00:00:00 | 00:00:00 | 00:00:00 | |
| DL1NUX | 2026-08-30 13:02:17 | 48.99828 | 10.10653 | 65° | 40km/h | 16411m | -7.2m/s | -54.8°C | 5% | 103.2hPa | 2.6V | 08:12:14 | 02:17:48 | 00:00:00 | |
| DM0DOS-11 | 2026-08-30 13:02:15 | 48.99837 | 10.10680 | 63° | 40km/h | 16396m | -7.2m/s | -54.8°C | 5% | 103.5hPa | 2.7V | 08:12:12 | 02:17:50 | 00:00:00 | |
| HSKMA3-T | 2026-08-30 13:02:11 | 48.99824 | 10.10639 | 64° | 40km/h | 16418m | -7.2m/s | -54.9°C | 1.3% | 103.1hPa | 2.6V | 08:13:11 | 02:17:47 | 00:00:00 | |
| DM0DOS-11 | 2026-08-30 13:02:10 | 48.99795 | 10.10541 | 66° | 40km/h | 16470m | -7.7m/s | -54.9°C | 4.9% | 102.3hPa | 2.6V | 08:12:22 | 02:17:40 | 00:00:00 | |
| BIOWL1-15 | 2026-08-30 13:02:09 | 48.99815 | 10.10611 | 65° | 40km/h | 16433m | -7.4m/s | -54.9°C | 1.3% | 102.9hPa | 2.7V | 08:14:02 | 02:17:45 | 00:00:00 | |
| DK7TD | 2026-08-30 13:02:02 | 48.99786 | 10.10511 | 67° | 42km/h | 16486m | -7.6m/s | -54.9°C | 1.2% | 102hPa | 2.7V | 08:13:11 | 02:17:38 | 00:00:00 | |
| HSKMA3-T | 2026-08-30 13:02:00 | 48.99779 | 10.10481 | 68° | 42km/h | 16500m | -7m/s | -54.9°C | 1.3% | 101.8hPa | 2.6V | 08:13:11 | 02:17:36 | 00:00:00 | |
| DM0DOS-11 | 2026-08-30 13:01:55 | 48.99759 | 10.10393 | 72° | 40km/h | 16544m | -7.6m/s | -55.3°C | 5.1% | 101.1hPa | 2.6V | 08:12:32 | 02:17:30 | 00:00:00 | |
| BIOWL1-15 | 2026-08-30 13:01:53 | 48.99748 | 10.10349 | 69° | 42km/h | 16567m | -7.5m/s | -55.5°C | 1.4% | 0hPa | 2.6V | 08:14:02 | 02:17:27 | 00:00:00 | |
| DK7TD | 2026-08-30 13:01:52 | 48.99752 | 10.10364 | 72° | 40km/h | 16559m | -7.6m/s | -55.5°C | 1.4% | 100.8hPa | 2.7V | 08:13:11 | 02:17:28 | 00:00:00 | |
| SONCRA | 2026-08-30 13:01:50 | 48.99741 | 10.10319 | 68° | 42km/h | 16582m | -7.4m/s | -55.7°C | 1.7% | 100.5hPa | 2.7V | 00:00:00 | 00:00:00 | 00:00:00 | |
| DL1ZP-14 | 2026-08-30 13:01:47 | 48.99733 | 10.10287 | 68° | 44km/h | 16597m | -7.6m/s | -55.8°C | 1.7% | 100.3hPa | 2.7V | 00:00:00 | 00:00:00 | 00:00:00 | |
| DK7TD | 2026-08-30 13:01:42 | 48.99711 | 10.10207 | 66° | 46km/h | 16634m | -7.2m/s | -56.1°C | 1.4% | 99.7hPa | 2.6V | 08:13:11 | 02:17:18 | 00:00:00 | |
| BIOWL1-15 | 2026-08-30 13:01:39 | 48.99696 | 10.10158 | 63° | 47km/h | 16656m | -7.2m/s | -56.1°C | 1.4% | 0hPa | 2.6V | 08:14:02 | 02:17:15 | 00:00:00 | |
| DK5PH-5 | 2026-08-30 13:01:39 | 48.99696 | 10.10158 | 64° | 47km/h | 16657m | -7.2m/s | -56.1°C | 5.3% | 99.3hPa | 2.6V | 00:00:00 | 02:17:15 | 00:00:00 | |
| DL1NUX | 2026-08-30 13:01:38 | 48.99656 | 10.10054 | 56° | 53km/h | 16700m | -7.4m/s | -56.1°C | 5.3% | 98.7hPa | 2.6V | 08:12:53 | 02:17:09 | 00:00:00 | |
| DM0DOS-11 | 2026-08-30 13:01:37 | 48.99663 | 10.10072 | 58° | 53km/h | 16693m | -7.2m/s | -56°C | 5.2% | 98.7hPa | 2.6V | 08:12:52 | 02:17:10 | 00:00:00 | |
| DK7TD | 2026-08-30 13:01:31 | 48.99641 | 10.10020 | 59° | 53km/h | 16714m | -7.1m/s | -56.2°C | 1.4% | 98.4hPa | 2.6V | 08:13:11 | 02:17:07 | 00:00:00 | |
| BIOWL1-15 | 2026-08-30 13:01:28 | 48.99622 | 10.09969 | 60° | 51km/h | 16736m | -7.2m/s | -56.4°C | 1.5% | 0hPa | 2.7V | 08:14:02 | 02:17:04 | 00:00:00 | |
| DM0DOS-11 | 2026-08-30 13:01:27 | 48.99598 | 10.09901 | 62° | 51km/h | 16765m | -6.8m/s | -56.5°C | 5.6% | 97.6hPa | 2.7V | 08:13:02 | 02:17:00 | 00:00:00 | |
| DL1NUX | 2026-08-30 13:01:27 | 48.99586 | 10.09868 | 61° | 49km/h | 16778m | -7m/s | -56.6°C | 5.7% | 97.4hPa | 2.6V | 08:13:04 | 02:16:58 | 00:00:00 | |
| DK7TD | 2026-08-30 13:01:20 | 48.99574 | 10.09835 | 61° | 46km/h | 16792m | -7.1m/s | -56.7°C | 1.5% | 97.2hPa | 2.6V | 08:13:11 | 02:16:56 | 00:00:00 | |
| BIOWL1-15 | 2026-08-30 13:01:17 | 48.99553 | 10.09777 | 59° | 40km/h | 16823m | -7.6m/s | -56.2°C | 1.4% | 0hPa | 2.6V | 08:14:02 | 02:16:52 | 00:00:00 | |
| DM0DOS-11 | 2026-08-30 13:01:17 | 48.99542 | 10.09751 | 55° | 40km/h | 16838m | -7.8m/s | -56°C | 5.3% | 96.5hPa | 2.6V | 08:13:12 | 02:16:50 | 00:00:00 | |
| HSKMA3-T | 2026-08-30 13:01:13 | 48.99537 | 10.09739 | 55° | 37km/h | 16846m | -7.5m/s | -55.9°C | 1.4% | 96.4hPa | 2.7V | 08:14:53 | 02:16:49 | 00:00:00 | |
| DB0ND-19 | 2026-08-30 13:01:13 | 48.99531 | 10.09727 | 53° | 38km/h | 16853m | -7.5m/s | -55.9°C | 1.7% | 96.3hPa | 2.7V | 00:00:00 | 00:00:00 | 00:00:00 | |
| DO3MHA-11 | 2026-08-30 13:01:12 | 48.99531 | 10.09727 | 54° | 38km/h | 16854m | -7.4m/s | -55.8°C | 5.2% | 96.2hPa | 2.7V | 00:00:00 | 02:16:48 | 00:00:00 | |
| DL1NUX | 2026-08-30 13:01:11 | 48.99519 | 10.09704 | 52° | 38km/h | 16869m | -7.7m/s | -55.8°C | 5.2% | 96.1hPa | 2.6V | 08:13:16 | 02:16:46 | 00:00:00 | |
| DK7TD | 2026-08-30 13:01:10 | 48.99519 | 10.09704 | 53° | 38km/h | 16869m | -7.7m/s | -55.8°C | 1.4% | 96.1hPa | 2.6V | 08:14:53 | 02:16:46 | 00:00:00 | |
| HSKMA3-T | 2026-08-30 13:01:02 | 48.99471 | 10.09609 | 53° | 38km/h | 16932m | -8.1m/s | -55.5°C | 1.2% | 95.1hPa | 2.6V | 08:14:53 | 02:16:38 | 00:00:00 | |
| DK7TD | 2026-08-30 13:01:00 | 48.99454 | 10.09573 | 57° | 38km/h | 16956m | -7.6m/s | -55.6°C | 1.3% | 94.8hPa | 2.7V | 08:14:53 | 02:16:35 | 00:00:00 | |
| BIOWL1-15 | 2026-08-30 13:00:53 | 48.99421 | 10.09500 | 54° | 42km/h | 17003m | -8m/s | -55.5°C | 1.3% | 0hPa | 2.6V | 08:14:02 | 02:16:29 | 00:00:00 | |
| HSKMA3-T | 2026-08-30 13:00:52 | 48.99415 | 10.09487 | 56° | 42km/h | 17011m | -8.1m/s | -55.6°C | 1.3% | 93.9hPa | 2.6V | 08:14:53 | 02:16:28 | 00:00:00 | |
| DO3MHA-11 | 2026-08-30 13:00:52 | 48.99415 | 10.09487 | 56° | 42km/h | 17011m | -8.1m/s | -55.5°C | 5.1% | 93.9hPa | 2.6V | 00:00:00 | 02:16:28 | 00:00:00 | |
| DO9HM | 2026-08-30 13:00:51 | 48.99409 | 10.09474 | 54° | 42km/h | 17019m | -8.2m/s | -55.6°C | 1.7% | 93.8hPa | 2.6V | 08:14:00 | 00:00:00 | 00:00:00 | |
| DM0DOS-11 | 2026-08-30 13:00:49 | 48.99366 | 10.09383 | 54° | 42km/h | 17077m | -8.2m/s | -55.7°C | 5% | 93hPa | 2.6V | 08:13:42 | 02:16:20 | 00:00:00 | |
| DK7TD | 2026-08-30 13:00:48 | 48.99390 | 10.09435 | 53° | 42km/h | 17044m | -8.1m/s | -55.8°C | 1.2% | 93.4hPa | 2.7V | 08:14:53 | 02:16:24 | 00:00:00 | |
| SONCRA | 2026-08-30 13:00:48 | 48.99384 | 10.09422 | 55° | 42km/h | 17052m | -8.1m/s | -55.8°C | 1.6% | 93.3hPa | 2.6V | 00:00:00 | 00:00:00 | 00:00:00 | |
| DL1ZP-14 | 2026-08-30 13:00:45 | 48.99372 | 10.09396 | 55° | 42km/h | 17068m | -8.3m/s | -55.8°C | 1.6% | 93.1hPa | 2.6V | 00:00:00 | 00:00:00 | 00:00:00 | |
| AZAK | 2026-08-30 13:00:43 | 48.99360 | 10.09369 | 57° | 42km/h | 17085m | -8.2m/s | -55.7°C | 1.6% | 92.9hPa | 2.7V | 08:14:00 | 00:00:00 | 00:00:00 | |
| DB0ND-19 | 2026-08-30 13:00:42 | 48.99347 | 10.09343 | 55° | 40km/h | 17101m | -7.7m/s | -55.7°C | 1.6% | 92.7hPa | 2.7V | 00:00:00 | 00:00:00 | 00:00:00 | |
| DL1NUX | 2026-08-30 13:00:41 | 48.99323 | 10.09289 | 55° | 44km/h | 17131m | -8m/s | -55.9°C | 5% | 92.1hPa | 2.7V | 08:13:49 | 02:16:13 | 00:00:00 | |
| HSKMA3-T | 2026-08-30 13:00:41 | 48.99347 | 10.09343 | 56° | 42km/h | 17101m | -7.7m/s | -55.7°C | 1.2% | 92.7hPa | 2.6V | 08:14:53 | 02:16:17 | 00:00:00 | |
| BIOWL1-15 | 2026-08-30 13:00:38 | 48.99329 | 10.09303 | 57° | 42km/h | 17124m | -7.7m/s | -55.8°C | 1.2% | 0hPa | 2.6V | 08:14:02 | 02:16:14 | 00:00:00 | |
| DK7TD | 2026-08-30 13:00:37 | 48.99323 | 10.09289 | 55° | 44km/h | 17131m | -8m/s | -55.9°C | 1.2% | 92.1hPa | 2.7V | 08:14:53 | 02:16:13 | 00:00:00 | |
| DM0DOS-11 | 2026-08-30 13:00:36 | 48.99305 | 10.09248 | 54° | 44km/h | 17155m | -7.8m/s | -56.1°C | 5.1% | 91.9hPa | 2.6V | 08:13:52 | 02:16:10 | 00:00:00 | |
| HSKMA3-T | 2026-08-30 13:00:31 | 48.99286 | 10.09207 | 55° | 44km/h | 17178m | -7.8m/s | -56.3°C | 1.3% | 91.5hPa | 2.7V | 08:14:53 | 02:16:07 | 00:00:00 | |
| DL1NUX | 2026-08-30 13:00:30 | 48.99250 | 10.09117 | 63° | 47km/h | 17226m | -8.3m/s | -56.6°C | 5.3% | 90.8hPa | 2.7V | 08:14:01 | 02:16:01 | 00:00:00 | |
| BIOWL1-15 | 2026-08-30 13:00:29 | 48.99261 | 10.09148 | 59° | 47km/h | 17210m | -8.3m/s | 0°C | 0% | 0hPa | 2.6V | 08:14:02 | 02:16:03 | 00:00:00 | |
| DL9SK-14 | 2026-08-30 13:00:29 | 48.99267 | 10.09163 | 58° | 44km/h | 17202m | -7.9m/s | -56.4°C | 1.6% | 91.2hPa | 2.7V | 00:00:00 | 00:00:00 | 00:00:00 | |
| DM0DOS-11 | 2026-08-30 13:00:25 | 48.99244 | 10.09101 | 62° | 46km/h | 17235m | -8.5m/s | -56.7°C | 5.3% | 90.7hPa | 2.7V | 08:14:02 | 02:16:00 | 00:00:00 | |
| DJ8HS-15 | 2026-08-30 13:00:23 | 48.99239 | 10.09085 | 66° | 42km/h | 17243m | -8.3m/s | -56.8°C | 5.4% | 90.5hPa | 2.7V | 00:00:00 | 02:15:59 | 00:00:00 | |
| DO3MHA-11 | 2026-08-30 13:00:22 | 48.99234 | 10.09069 | 64° | 44km/h | 17252m | -8.3m/s | -56.8°C | 5.4% | 90.4hPa | 2.6V | 00:00:00 | 02:15:58 | 00:00:00 | |
| AZAK | 2026-08-30 13:00:21 | 48.99234 | 10.09069 | 64° | 46km/h | 17252m | -8.3m/s | -56.8°C | 1.7% | 90.5hPa | 2.6V | 00:00:00 | 00:00:00 | 00:00:00 | |
| DL1NUX | 2026-08-30 13:00:20 | 48.99198 | 10.08965 | 60° | 42km/h | 17310m | -8.3m/s | -57°C | 5.6% | 89.6hPa | 2.6V | 08:14:11 | 02:15:51 | 00:00:00 | |
| DM0DOS-11 | 2026-08-30 13:00:19 | 48.99193 | 10.08951 | 62° | 42km/h | 17318m | -8.4m/s | -56.9°C | 5.5% | 89.5hPa | 2.6V | 08:14:12 | 02:15:50 | 00:00:00 | |
| BIOWL1-15 | 2026-08-30 13:00:17 | 48.99203 | 10.08979 | 62° | 42km/h | 17302m | -8.5m/s | 0°C | 0% | 0hPa | 2.6V | 18:12:15 | 02:15:52 | 00:00:00 | |
| DL1ZP-14 | 2026-08-30 13:00:14 | 48.99193 | 10.08951 | 62° | 40km/h | 17319m | -8.4m/s | -56.9°C | 1.7% | 89.5hPa | 2.6V | 00:00:00 | 00:00:00 | 00:00:00 | |
| DO3MHA-11 | 2026-08-30 13:00:12 | 48.99183 | 10.08923 | 65° | 40km/h | 17335m | -7.9m/s | -56.7°C | 5.4% | 89.2hPa | 2.7V | 00:00:00 | 02:15:48 | 00:00:00 | |
| DB0ND-19 | 2026-08-30 13:00:11 | 48.99175 | 10.08894 | 65° | 40km/h | 17350m | -7.7m/s | -56.7°C | 1.7% | 89.0hPa | 2.6V | 00:00:00 | 00:00:00 | 00:00:00 | |
| DK5PH-5 | 2026-08-30 13:00:09 | 48.99171 | 10.08880 | 69° | 40km/h | 17358m | -7.8m/s | -56.7°C | 5.5% | 88.9hPa | 2.6V | 00:00:00 | 02:15:45 | 00:00:00 | |
| DJTTGO | 2026-08-30 13:00:08 | 48.99171 | 10.08880 | 70° | 40km/h | 17358m | -7.8m/s | -56.8°C | 1.6% | 88.9hPa | 2.6V | 00:00:00 | 00:00:00 | 00:00:00 | |
| DF7PN | 2026-08-30 13:00:07 | 48.99164 | 10.08851 | 68° | 38km/h | 17373m | -8.1m/s | -56.8°C | 1.7% | 88.7hPa | 2.6V | 00:00:00 | 00:00:00 | 00:00:00 | |
| DM0DOS-11 | 2026-08-30 13:00:05 | 48.99154 | 10.08808 | 69° | 40km/h | 17399m | -8.5m/s | -56.9°C | 5.8% | 88.4hPa | 2.6V | 08:14:22 | 02:15:40 | 00:00:00 | |
| DN1GJH-1 | 2026-08-30 13:00:03 | 48.99153 | 10.08808 | 71° | 40km/h | 17399m | -8.5m/s | -56.9°C | 1.8% | 88.4hPa | 2.7V | 08:14:00 | 00:00:00 | 00:00:00 | |
| DO3MHA-11 | 2026-08-30 13:00:02 | 48.99145 | 10.08779 | 66° | 40km/h | 17416m | -8.5m/s | -56.9°C | 5.9% | 88.1hPa | 2.7V | 00:00:00 | 02:15:38 | 00:00:00 | |
| DG1MJG | 2026-08-30 13:00:01 | 48.99145 | 10.08779 | 67° | 40km/h | 17416m | -8.6m/s | -56.9°C | 1.8% | 88.1hPa | 2.7V | 08:14:00 | 00:00:00 | 00:00:00 | |
| DM0DOS-11 | 2026-08-30 12:59:59 | 48.99110 | 10.08667 | 70° | 37km/h | 17483m | -8.7m/s | -56.8°C | 6.2% | 87.2hPa | 2.7V | 08:14:32 | 02:15:30 | 00:00:00 | |
| DK7TD | 2026-08-30 12:59:57 | 48.99122 | 10.08707 | 64° | 38km/h | 17458m | -8.2m/s | -57.1°C | 1.7% | 87.5hPa | 2.6V | 08:14:53 | 02:15:33 | 00:00:00 | |
| HSKMA3-T | 2026-08-30 12:59:49 | 48.99095 | 10.08598 | 69° | 44km/h | 17526m | -8.2m/s | -55.6°C | 1.5% | 86.7hPa | 2.7V | 08:14:53 | 02:15:25 | 00:00:00 | |
| DK7TD | 2026-08-30 12:59:46 | 48.99083 | 10.08550 | 68° | 46km/h | 17551m | -8.6m/s | -54.2°C | 1.2% | 86.3hPa | 2.6V | 08:14:53 | 02:15:22 | 00:00:00 | |
| DM0DOS-11 | 2026-08-30 12:59:45 | 48.99074 | 10.08517 | 66° | 46km/h | 17569m | -8.7m/s | -53.6°C | 4.9% | 86hPa | 2.7V | 08:14:42 | 02:15:20 | 00:00:00 | |
| DJ8HS-15 | 2026-08-30 12:59:43 | 48.99070 | 10.08501 | 68° | 33km/h | 17578m | -8.7m/s | -53.4°C | 4.9% | 85.9hPa | 2.6V | 00:00:00 | 02:15:19 | 00:00:00 | |
| DO3MHA-11 | 2026-08-30 12:59:42 | 48.99066 | 10.08486 | 66° | 37km/h | 17586m | -8.6m/s | -53.3°C | 4.9% | 85.8hPa | 2.6V | 00:00:00 | 02:15:18 | 00:00:00 | |
| SO1NDE-10 | 2026-08-30 12:59:41 | 48.99062 | 10.08472 | 69° | 26km/h | 17595m | -8.6m/s | -53.2°C | 4.9% | 85.7hPa | 2.6V | 00:00:00 | 02:15:17 | 00:00:00 | |
| DB0ND-19 | 2026-08-30 12:59:40 | 48.99054 | 10.08445 | 69° | 37km/h | 17613m | -9.0m/s | -52.8°C | 1.4% | 85.5hPa | 2.6V | 00:00:00 | 00:00:00 | 00:00:00 | |
| DM0DOS-11 | 2026-08-30 12:59:39 | 48.99040 | 10.08381 | 73° | 35km/h | 17656m | -8.6m/s | -52.4°C | 4.5% | 84.9hPa | 2.6V | 08:14:52 | 02:15:10 | 00:00:00 | |
| HSKMA3-T | 2026-08-30 12:59:37 | 48.99048 | 10.08419 | 72° | 35km/h | 17630m | -8.9m/s | -52.5°C | 0.9% | 85.2hPa | 2.6V | 08:14:53 | 02:15:13 | 00:00:00 | |
| DK7TD | 2026-08-30 12:59:34 | 48.99040 | 10.08381 | 73° | 35km/h | 17656m | -8.6m/s | -52.4°C | 0.9% | 84.9hPa | 2.6V | 08:14:53 | 02:15:10 | 00:00:00 | |
| DB0UT-7 | 2026-08-30 12:59:33 | 48.99037 | 10.08368 | 73° | 20km/h | 17665m | -8.6m/s | -52.3°C | 4.5% | 84.7hPa | 2.7V | 00:00:00 | 00:00:00 | 00:00:00 | |
| DO3MHA-11 | 2026-08-30 12:59:32 | 48.99035 | 10.08356 | 77° | 26km/h | 17674m | -8.5m/s | -52.0°C | 4.5% | 84.6hPa | 2.7V | 00:00:00 | 02:15:08 | 00:00:00 | |
| DG1MJG | 2026-08-30 12:59:31 | 48.99033 | 10.08344 | 75° | 31km/h | 17682m | -8.5m/s | -51.6°C | 1.3% | 84.5hPa | 2.7V | 00:00:00 | 00:00:00 | 00:00:00 | |
| DL1NUX | 2026-08-30 12:59:28 | 48.99022 | 10.08272 | 86° | 18km/h | 17751m | -8.9m/s | -51.1°C | 4% | 83.6hPa | 2.7V | 08:15:03 | 02:14:59 | 00:00:00 | |
| HSKMA3-T | 2026-08-30 12:59:27 | 48.99027 | 10.08304 | 77° | 24km/h | 17716m | -8.8m/s | -51°C | 0.6% | 84.1hPa | 2.6V | 08:15:44 | 02:15:03 | 00:00:00 | |
| DO9HM | 2026-08-30 12:59:26 | 48.99025 | 10.08295 | 76° | 22km/h | 17725m | -8.4m/s | -51.0°C | 1.2% | 84.0hPa | 2.7V | 08:15:00 | 00:00:00 | 00:00:00 | |
| DM0DOS-11 | 2026-08-30 12:59:25 | 48.99023 | 10.08279 | 77° | 20km/h | 17742m | -8.9m/s | -51.1°C | 4% | 83.8hPa | 2.7V | 08:15:02 | 02:15:00 | 00:00:00 | |
| DK7TD | 2026-08-30 12:59:23 | 48.99022 | 10.08272 | 87° | 18km/h | 17751m | -8.9m/s | -51.1°C | 0.6% | 83.6hPa | 2.7V | 08:15:44 | 02:14:59 | 00:00:00 | |
| DJ8HS-15 | 2026-08-30 12:59:23 | 48.99022 | 10.08272 | 87° | 16km/h | 17751m | -8.8m/s | -51.1°C | 4.0% | 83.6hPa | 2.7V | 00:00:00 | 02:14:59 | 00:00:00 | |
| DO3MHA-11 | 2026-08-30 12:59:22 | 48.99022 | 10.08265 | 83° | 16km/h | 17760m | -9.1m/s | -51.2°C | 4.1% | 83.5hPa | 2.6V | 00:00:00 | 02:14:58 | 00:00:00 | |
| DN1GJH-1 | 2026-08-30 12:59:21 | 48.99022 | 10.08265 | 84° | 18km/h | 17760m | -9.2m/s | -51.2°C | 1.3% | 83.5hPa | 2.6V | 08:15:00 | 00:00:00 | 00:00:00 | |
| DG9SBQ-11 | 2026-08-30 12:59:20 | 48.99022 | 10.08258 | 95° | 16km/h | 17770m | -9.1m/s | -51.2°C | 1.2% | 83.4hPa | 2.6V | 08:15:00 | 00:00:00 | 00:00:00 | |
| DM0DOS-11 | 2026-08-30 12:59:19 | 48.99026 | 10.08212 | 97° | 16km/h | 17833m | -9.2m/s | -51.3°C | 4% | 82.6hPa | 2.6V | 08:15:12 | 02:14:50 | 00:00:00 | |
| DL1NUX | 2026-08-30 12:59:18 | 48.99026 | 10.08206 | 90° | 16km/h | 17842m | -9.2m/s | -51.4°C | 4% | 82.5hPa | 2.6V | 08:15:13 | 02:14:49 | 00:00:00 | |
| HSKMA3-T | 2026-08-30 12:59:17 | 48.99024 | 10.08232 | 97° | 16km/h | 17805m | -9m/s | -51.2°C | 0.6% | 83hPa | 2.7V | 08:15:44 | 02:14:53 | 00:00:00 | |
| DK7TD | 2026-08-30 12:59:12 | 48.99026 | 10.08200 | 95° | 15km/h | 17851m | -9m/s | -51.4°C | 0.6% | 82.4hPa | 2.7V | 08:15:44 | 02:14:48 | 00:00:00 | |
| DO3MHA-11 | 2026-08-30 12:59:12 | 48.99026 | 10.08200 | 96° | 15km/h | 17851m | -8.9m/s | -51.3°C | 3.9% | 82.3hPa | 2.7V | 08:15:00 | 02:14:48 | 00:00:00 | |
| SO1NDE-10 | 2026-08-30 12:59:11 | 48.99026 | 10.08194 | 91° | 11km/h | 17860m | -8.9m/s | -51.4°C | 4.0% | 82.2hPa | 2.6V | 00:00:00 | 02:14:47 | 00:00:00 | |
| DB0ND-19 | 2026-08-30 12:59:09 | 48.99027 | 10.08177 | 88° | 13km/h | 17886m | -8.8m/s | -51.6°C | 1.2% | 82.0hPa | 2.6V | 00:00:00 | 00:00:00 | 00:00:00 | |
| DL1NUX | 2026-08-30 12:59:08 | 48.99027 | 10.08150 | 95° | 13km/h | 17930m | -8.9m/s | -52°C | 4.2% | 81.3hPa | 2.6V | 08:15:23 | 02:14:39 | 00:00:00 | |
| HSKMA3-T | 2026-08-30 12:59:06 | 48.99027 | 10.08166 | 88° | 13km/h | 17904m | -8.7m/s | -51.8°C | 0.7% | 81.7hPa | 2.7V | 08:15:44 | 02:14:42 | 00:00:00 | |
| DM0DOS-11 | 2026-08-30 12:59:05 | 48.99027 | 10.08155 | 86° | 13km/h | 17921m | -8.9m/s | -51.9°C | 4.1% | 81.5hPa | 2.6V | 08:15:22 | 02:14:40 | 00:00:00 | |
| DK7TD | 2026-08-30 12:59:01 | 48.99027 | 10.08140 | 96° | 13km/h | 17948m | -8.7m/s | -52.2°C | 0.8% | 81.1hPa | 2.7V | 08:15:44 | 02:14:37 | 00:00:00 | |
| DN1GJH-1 | 2026-08-30 12:59:00 | 48.99027 | 10.08140 | 97° | 13km/h | 17948m | -8.7m/s | -52.2°C | 1.3% | 81.1hPa | 2.6V | 08:15:00 | 00:00:00 | 00:00:00 | |
| DM0DOS-11 | 2026-08-30 12:58:59 | 48.99030 | 10.08106 | 103° | 11km/h | 18012m | -9.4m/s | -52.7°C | 4.3% | 80.3hPa | 2.6V | 08:15:32 | 02:14:30 | 00:00:00 | |
| DL1NUX | 2026-08-30 12:58:58 | 48.99031 | 10.08102 | 90° | 11km/h | 18021m | -9.2m/s | -52.8°C | 4.4% | 80.2hPa | 2.6V | 08:15:33 | 02:14:29 | 00:00:00 | |
| HSKMA3-T | 2026-08-30 12:58:55 | 48.99030 | 10.08110 | 96° | 11km/h | 18002m | -9.2m/s | -52.7°C | 0.8% | 80.5hPa | 2.6V | 08:15:44 | 02:14:31 | 00:00:00 | |
| DK7TD | 2026-08-30 12:58:51 | 48.99031 | 10.08095 | 82° | 9km/h | 18039m | -9.1m/s | -53°C | 0.9% | 80hPa | 2.7V | 08:15:44 | 02:14:27 | 00:00:00 | |
| DL1NUX | 2026-08-30 12:58:48 | 48.99025 | 10.08079 | 21° | 5km/h | 18112m | -9.2m/s | -53.2°C | 4.4% | 79.2hPa | 2.7V | 08:15:43 | 02:14:19 | 00:00:00 | |
| DG9SBQ-11 | 2026-08-30 12:58:47 | 48.99029 | 10.08084 | 65° | 7km/h | 18076m | -9.2m/s | -53.3°C | 1.4% | 79.6hPa | 2.7V | 08:15:00 | 00:00:00 | 00:00:00 | |
| DM0DOS-11 | 2026-08-30 12:58:45 | 48.99026 | 10.08080 | 20° | 7km/h | 18103m | -9.1m/s | -53.2°C | 4.4% | 79.2hPa | 2.7V | 08:15:42 | 02:14:20 | 00:00:00 | |
| HSKMA3-T | 2026-08-30 12:58:45 | 48.99027 | 10.08081 | 49° | 5km/h | 18094m | -9m/s | -53.2°C | 0.9% | 79.3hPa | 2.7V | 08:15:44 | 02:14:21 | 00:00:00 | |
| DK7TD | 2026-08-30 12:58:40 | 48.99020 | 10.08078 | 2° | 7km/h | 18140m | -9.7m/s | -53.1°C | 0.9% | 78.8hPa | 2.6V | 08:16:35 | 02:14:16 | 00:00:00 | |
| DM0DOS-11 | 2026-08-30 12:58:39 | 48.99006 | 10.08081 | 353° | 11km/h | 18197m | -9.3m/s | -53.5°C | 4.4% | 78hPa | 2.6V | 08:15:52 | 02:14:10 | 00:00:00 | |
| DK5PH-5 | 2026-08-30 12:58:39 | 48.99018 | 10.08078 | 353° | 11km/h | 18150m | -9.6m/s | -53.2°C | 4.4% | 78.6hPa | 2.6V | 00:00:00 | 02:14:15 | 00:00:00 | |
| DL1NUX | 2026-08-30 12:58:38 | 48.99003 | 10.08081 | 345° | 11km/h | 18207m | -9.6m/s | -53.6°C | 4.4% | 78hPa | 2.6V | 08:15:53 | 02:14:09 | 00:00:00 | |
| HSKMA3-T | 2026-08-30 12:58:35 | 48.99008 | 10.08080 | 344° | 11km/h | 18188m | -9.5m/s | -53.4°C | 0.9% | 78.2hPa | 2.6V | 08:16:35 | 02:14:11 | 00:00:00 | |
| DK7TD | 2026-08-30 12:58:30 | 48.98995 | 10.08084 | 353° | 11km/h | 18235m | -9.6m/s | -53.8°C | 0.9% | 77.6hPa | 2.7V | 08:16:35 | 02:14:06 | 00:00:00 | |
| DG9SBQ-11 | 2026-08-30 12:58:29 | 48.98994 | 10.08084 | 354° | 11km/h | 18235m | -9.6m/s | -53.8°C | 1.4% | 77.6hPa | 2.7V | 08:16:00 | 00:00:00 | 00:00:00 | |
| DL1NUX | 2026-08-30 12:58:28 | 48.98977 | 10.08087 | 355° | 11km/h | 18302m | -9.5m/s | -54.2°C | 4.6% | 76.8hPa | 2.7V | 08:16:03 | 02:13:59 | 00:00:00 | |
| DJTTGO | 2026-08-30 12:58:27 | 48.98989 | 10.08085 | 356° | 9km/h | 18255m | -9.8m/s | -53.9°C | 1.4% | 77.4hPa | 2.7V | 00:00:00 | 00:00:00 | 00:00:00 | |
| DM0DOS-11 | 2026-08-30 12:58:25 | 48.98979 | 10.08087 | 352° | 9km/h | 18293m | -9.4m/s | -54.1°C | 4.6% | 76.9hPa | 2.7V | 08:16:02 | 02:14:00 | 00:00:00 | |
| HSKMA3-T | 2026-08-30 12:58:25 | 48.98982 | 10.08086 | 354° | 11km/h | 18283m | -9.6m/s | -54.1°C | 1% | 77hPa | 2.6V | 08:16:35 | 02:14:01 | 00:00:00 | |
| DK7TD | 2026-08-30 12:58:20 | 48.98970 | 10.08089 | 349° | 9km/h | 18330m | -9.2m/s | -54.5°C | 1.1% | 76.5hPa | 2.6V | 08:16:35 | 02:13:56 | 00:00:00 | |
| DN1GJH-1 | 2026-08-30 12:58:19 | 48.98969 | 10.08088 | 350° | 9km/h | 18331m | -9.2m/s | -54.5°C | 1.5% | 76.5hPa | 2.6V | 08:16:00 | 00:00:00 | 00:00:00 | |
| OE5DXL-15 | 2026-08-30 12:58:18 | 48.98965 | 10.08089 | 355° | 16km/h | 18350m | -9.4m/s | -54.6°C | 4.7% | 76.2hPa | 2.6V | 00:00:00 | 00:00:00 | 00:00:00 | |
| DL1NUX | 2026-08-30 12:58:16 | 48.98943 | 10.08084 | 17° | 13km/h | 18415m | -9.5m/s | -55.2°C | 4.8% | 75.5hPa | 2.6V | 08:16:15 | 02:13:47 | 00:00:00 | |
| HSKMA3-T | 2026-08-30 12:58:15 | 48.98956 | 10.08088 | 14° | 13km/h | 18378m | -9.5m/s | -54.9°C | 1.1% | 75.9hPa | 2.7V | 08:16:35 | 02:13:51 | 00:00:00 | |
| DK7TD | 2026-08-30 12:58:09 | 48.98937 | 10.08082 | 15° | 13km/h | 18433m | -9.4m/s | -55.4°C | 1.1% | 75.2hPa | 2.7V | 08:16:35 | 02:13:45 | 00:00:00 | |
| HSKMA3-T | 2026-08-30 12:58:04 | 48.98919 | 10.08077 | 11° | 15km/h | 18481m | -9.7m/s | -55.7°C | 1.2% | 74.7hPa | 2.6V | 08:16:35 | 02:13:40 | 00:00:00 | |
| DJ8HS-15 | 2026-08-30 12:58:03 | 48.98916 | 10.08076 | 7° | 20km/h | 18491m | -9.3m/s | -55.8°C | 5.1% | 74.5hPa | 2.6V | 00:00:00 | 02:13:39 | 00:00:00 | |
| DO3MHA-11 | 2026-08-30 12:58:02 | 48.98912 | 10.08075 | 12° | 16km/h | 18500m | -9.5m/s | -55.8°C | 5.1% | 74.4hPa | 2.6V | 00:00:00 | 02:13:38 | 00:00:00 | |
| DL1NUX | 2026-08-30 12:58:00 | 48.98897 | 10.08072 | 6° | 15km/h | 18537m | -9.3m/s | -56.2°C | 5.4% | 74hPa | 2.6V | 08:16:28 | 02:13:34 | 00:00:00 | |
| DK7TD | 2026-08-30 12:57:58 | 48.98897 | 10.08072 | 7° | 15km/h | 18537m | -9.3m/s | -56.2°C | 1.4% | 74hPa | 2.6V | 08:16:35 | 02:13:34 | 00:00:00 | |
| HSKMA3-T | 2026-08-30 12:57:51 | 48.98865 | 10.08074 | 1° | 22km/h | 18603m | -9.3m/s | -56.5°C | 1.4% | 73.3hPa | 2.6V | 08:16:35 | 02:13:27 | 00:00:00 | |
| DL1NUX | 2026-08-30 12:57:50 | 48.98840 | 10.08075 | 359° | 26km/h | 18641m | -9.5m/s | -56.4°C | 5.4% | 72.8hPa | 2.7V | 08:16:39 | 02:13:23 | 00:00:00 | |
| DK7TD | 2026-08-30 12:57:48 | 48.98846 | 10.08075 | 356° | 26km/h | 18632m | -9.7m/s | -56.4°C | 1.4% | 72.9hPa | 2.7V | 08:17:26 | 02:13:24 | 00:00:00 | |
| OE5WHR-10 | 2026-08-30 12:57:46 | 48.98833 | 10.08075 | 358° | 31km/h | 18651m | -9.4m/s | -56.2°C | 5.3% | 72.7hPa | 2.6V | 08:16:00 | 00:00:00 | 00:00:00 | |
| NBG1-10 | 2026-08-30 12:57:45 | 48.98826 | 10.08075 | 1° | 27km/h | 18660m | -9.6m/s | -56.1°C | 5.2% | 72.6hPa | 2.7V | 00:00:00 | 02:13:21 | 00:00:00 | |
| DO9HM | 2026-08-30 12:57:43 | 48.98811 | 10.08075 | 3° | 29km/h | 18680m | -9.5m/s | -56.1°C | 1.7% | 72.4hPa | 2.7V | 08:17:00 | 00:00:00 | 00:00:00 | |
| DO3MHA-11 | 2026-08-30 12:57:42 | 48.98803 | 10.08075 | 4° | 31km/h | 18689m | -9.4m/s | -56.0°C | 5.2% | 72.2hPa | 2.7V | 08:16:00 | 02:13:18 | 00:00:00 | |
| SONCRA | 2026-08-30 12:57:41 | 48.98796 | 10.08074 | 3° | 29km/h | 18699m | -9.5m/s | -56.0°C | 1.6% | 72.2hPa | 2.7V | 00:00:00 | 00:00:00 | 00:00:00 | |
| DM0DOS-11 | 2026-08-30 12:57:39 | 48.98742 | 10.08057 | 20° | 31km/h | 18764m | -9.4m/s | -56.2°C | 5.3% | 71.5hPa | 2.7V | 08:16:52 | 02:13:10 | 00:00:00 | |
| HSKMA3-T | 2026-08-30 12:57:38 | 48.98773 | 10.08069 | 13° | 31km/h | 18727m | -9.1m/s | -55.9°C | 1.3% | 71.9hPa | 2.6V | 08:19:59 | 02:13:14 | 00:00:00 | |
| DK7TD | 2026-08-30 12:57:37 | 48.98765 | 10.08067 | 11° | 31km/h | 18736m | -9.5m/s | -56°C | 1.3% | 71.8hPa | 2.6V | 08:17:26 | 02:13:13 | 00:00:00 | |
| DL1NUX | 2026-08-30 12:57:36 | 48.98720 | 10.08044 | 22° | 31km/h | 18792m | -9.3m/s | -56.1°C | 5.3% | 71.1hPa | 2.6V | 08:16:55 | 02:13:07 | 00:00:00 | |
| HSKMA3-T | 2026-08-30 12:57:28 | 48.98699 | 10.08028 | 27° | 29km/h | 18820m | -9.4m/s | -56.2°C | 1.4% | 70.8hPa | 2.7V | 08:19:59 | 02:13:04 | 00:00:00 | |
| BIOWL1-15 | 2026-08-30 12:57:26 | 48.98675 | 10.08007 | 35° | 26km/h | 18858m | -9.6m/s | 0°C | 0% | 0hPa | 2.6V | 18:12:15 | 02:13:00 | 00:00:00 | |
| DK7TD | 2026-08-30 12:57:26 | 48.98686 | 10.08018 | 29° | 27km/h | 18839m | -9.4m/s | -56.2°C | 1.4% | 70.6hPa | 2.7V | 08:17:26 | 02:13:02 | 00:00:00 | |
| OE9MKV-15 | 2026-08-30 12:57:26 | 48.98686 | 10.08018 | 30° | 18km/h | 18839m | -9.3m/s | -56.1°C | 5.4% | 70.6hPa | 2.7V | 00:00:00 | 02:13:02 | 00:00:00 | |
| OE5WHR-10 | 2026-08-30 12:57:25 | 48.98680 | 10.08012 | 36° | 22km/h | 18849m | -9.4m/s | -56.1°C | 5.4% | 70.4hPa | 2.7V | 00:00:00 | 00:00:00 | 00:00:00 | |
| DM0DOS-11 | 2026-08-30 12:57:25 | 48.98675 | 10.08007 | 34° | 26km/h | 18858m | -9.6m/s | -56.1°C | 5.4% | 70.4hPa | 2.6V | 08:17:02 | 02:13:00 | 00:00:00 | |
| DF3TZ-5 | 2026-08-30 12:57:24 | 48.98670 | 10.08001 | 41° | 24km/h | 18867m | -9.1m/s | -56.1°C | 1.6% | 70.3hPa | 2.7V | 00:00:00 | 00:00:00 | 00:00:00 | |
| DL6DJ-15 | 2026-08-30 12:57:23 | 48.98665 | 10.07994 | 42° | 26km/h | 18877m | -9.8m/s | -56.1°C | 1.6% | 70.2hPa | 2.7V | 00:00:00 | 00:00:00 | 00:00:00 | |
| DO3MHA-11 | 2026-08-30 12:57:22 | 48.98665 | 10.07994 | 43° | 24km/h | 18877m | -9.7m/s | -56.0°C | 5.3% | 70.2hPa | 2.7V | 00:00:00 | 02:12:58 | 00:00:00 | |
| DO9HM | 2026-08-30 12:57:21 | 48.98665 | 10.07994 | 43° | 26km/h | 18877m | -9.8m/s | -56.1°C | 1.6% | 70.2hPa | 2.7V | 08:17:00 | 00:00:00 | 00:00:00 | |
| DG9SBQ-11 | 2026-08-30 12:57:20 | 48.98660 | 10.07987 | 48° | 26km/h | 18886m | -9.6m/s | -56.1°C | 1.6% | 70.1hPa | 2.7V | 08:17:00 | 00:00:00 | 00:00:00 | |
| DM0DOS-11 | 2026-08-30 12:57:19 | 48.98632 | 10.07937 | 51° | 22km/h | 18954m | -9.7m/s | -55.7°C | 5.2% | 69.3hPa | 2.7V | 08:17:12 | 02:12:50 | 00:00:00 | |
| DK7TD | 2026-08-30 12:57:16 | 48.98639 | 10.07950 | 49° | 24km/h | 18934m | -9.8m/s | -55.8°C | 1.3% | 69.6hPa | 2.6V | 08:17:26 | 02:12:52 | 00:00:00 | |
| DG9SBQ-11 | 2026-08-30 12:57:15 | 48.98639 | 10.07950 | 50° | 24km/h | 18935m | -9.8m/s | -55.8°C | 1.6% | 69.6hPa | 2.7V | 08:17:00 | 00:00:00 | 00:00:00 | |
| DO3MHA-11 | 2026-08-30 12:57:12 | 48.98625 | 10.07925 | 54° | 13km/h | 18973m | -9.4m/s | -55.7°C | 5.2% | 69.1hPa | 2.7V | 00:00:00 | 02:12:48 | 00:00:00 | |
| DG9SBQ-11 | 2026-08-30 12:57:10 | 48.98620 | 10.07914 | 59° | 16km/h | 18993m | -9.8m/s | -55.7°C | 1.5% | 69.0hPa | 2.7V | 08:17:00 | 00:00:00 | 00:00:00 | |
| DK5PH-5 | 2026-08-30 12:57:09 | 48.98618 | 10.07909 | 54° | 15km/h | 19002m | -9.6m/s | -55.7°C | 5.2% | 68.8hPa | 2.7V | 00:00:00 | 02:12:45 | 00:00:00 | |
| DL1ZP-14 | 2026-08-30 12:57:08 | 48.98615 | 10.07901 | 55° | 11km/h | 19022m | -9.7m/s | -55.5°C | 1.5% | 68.6hPa | 2.7V | 00:00:00 | 00:00:00 | 00:00:00 | |
| DM0DOS-11 | 2026-08-30 12:57:06 | 48.98610 | 10.07891 | 47° | 9km/h | 19049m | -9.1m/s | -55.6°C | 5.1% | 68.3hPa | 2.6V | 08:17:22 | 02:12:40 | 00:00:00 | |
| DK7TD | 2026-08-30 12:57:05 | 48.98612 | 10.07894 | 52° | 11km/h | 19040m | -9m/s | -55.5°C | 1.2% | 68.4hPa | 2.7V | 08:17:26 | 02:12:41 | 00:00:00 | |
| HSKMA3-T | 2026-08-30 12:57:04 | 48.98610 | 10.07891 | 48° | 9km/h | 19049m | -9.1m/s | -55.6°C | 1.3% | 68.3hPa | 2.6V | 08:19:59 | 02:12:40 | 00:00:00 | |
| DJ8HS-15 | 2026-08-30 12:57:03 | 48.98609 | 10.07888 | 52° | 15km/h | 19059m | -9.5m/s | -55.5°C | 5.2% | 68.2hPa | 2.7V | 00:00:00 | 02:12:39 | 00:00:00 | |
| DO9HM | 2026-08-30 12:57:02 | 48.98607 | 10.07886 | 41° | 7km/h | 19069m | -9.5m/s | -55.6°C | 1.5% | 68.1hPa | 2.7V | 08:17:00 | 00:00:00 | 00:00:00 | |
| DB0UT-7 | 2026-08-30 12:57:01 | 48.98606 | 10.07884 | 43° | 15km/h | 19078m | -9.6m/s | -55.5°C | 5.1% | 68.0hPa | 2.7V | 00:00:00 | 02:12:37 | 00:00:00 | |
| DL1NUX | 2026-08-30 12:57:00 | 48.98594 | 10.07871 | 40° | 11km/h | 19136m | -10m/s | -55.5°C | 5% | 67.4hPa | 2.7V | 08:17:31 | 02:12:31 | 00:00:00 | |
| DN1GJH-1 | 2026-08-30 12:56:57 | 48.98600 | 10.07878 | 29° | 9km/h | 19107m | -9.9m/s | -55.6°C | 1.6% | 67.7hPa | 2.6V | 08:18:00 | 00:00:00 | 00:00:00 | |
| OE9MKV-15 | 2026-08-30 12:56:56 | 48.98596 | 10.07873 | 35° | 16km/h | 19127m | -9.8m/s | -55.6°C | 5.1% | 67.5hPa | 2.6V | 00:00:00 | 02:12:32 | 00:00:00 | |
| DM0DOS-11 | 2026-08-30 12:56:55 | 48.98591 | 10.07868 | 38° | 15km/h | 19146m | -9.8m/s | -55.5°C | 5.1% | 67.3hPa | 2.6V | 08:17:32 | 02:12:30 | 00:00:00 | |
| HSKMA3-T | 2026-08-30 12:56:54 | 48.98591 | 10.07868 | 39° | 15km/h | 19146m | -9.8m/s | -55.5°C | 1.2% | 67.3hPa | 2.6V | 08:19:59 | 02:12:30 | 00:00:00 | |
| DF3TZ-5 | 2026-08-30 12:56:53 | 48.98585 | 10.07859 | 44° | 18km/h | 19166m | -9.2m/s | -55.4°C | 1.5% | 67.1hPa | 2.7V | 00:00:00 | 00:00:00 | 00:00:00 | |
| DL6DJ-15 | 2026-08-30 12:56:52 | 48.98582 | 10.07855 | 41° | 18km/h | 19175m | -9.8m/s | -55.4°C | 1.5% | 67.0hPa | 2.7V | 00:00:00 | 00:00:00 | 00:00:00 | |
| DL9SK-14 | 2026-08-30 12:56:51 | 48.98574 | 10.07844 | 40° | 20km/h | 19195m | -10.1m/s | -55.5°C | 1.5% | 66.8hPa | 2.7V | 00:00:00 | 00:00:00 | 00:00:00 | |
| OE5DXL-15 | 2026-08-30 12:56:48 | 48.98570 | 10.07838 | 46° | 18km/h | 19205m | -9.7m/s | -55.6°C | 5.0% | 66.7hPa | 2.7V | 00:00:00 | 00:00:00 | 00:00:00 | |
| DG9SBQ-11 | 2026-08-30 12:56:46 | 48.98562 | 10.07828 | 44° | 20km/h | 19224m | -9.6m/s | -55.8°C | 1.5% | 66.5hPa | 2.7V | 08:18:00 | 00:00:00 | 00:00:00 | |
| DM0DOS-11 | 2026-08-30 12:56:45 | 48.98555 | 10.07818 | 39° | 18km/h | 19243m | -9.7m/s | -55.9°C | 5.3% | 66.3hPa | 2.7V | 08:17:42 | 02:12:20 | 00:00:00 | |
| DK7TD | 2026-08-30 12:56:44 | 48.98555 | 10.07818 | 39° | 18km/h | 19243m | -9.7m/s | -55.9°C | 1.4% | 66.3hPa | 2.7V | 08:19:08 | 02:12:20 | 00:00:00 | |
| DJ8HS-15 | 2026-08-30 12:56:43 | 48.98552 | 10.07814 | 41° | 15km/h | 19253m | -9.6m/s | -55.8°C | 5.3% | 66.1hPa | 2.7V | 00:00:00 | 02:12:19 | 00:00:00 | |
| DO3MHA-11 | 2026-08-30 12:56:42 | 48.98548 | 10.07809 | 37° | 13km/h | 19263m | -9.7m/s | -55.8°C | 5.3% | 66.0hPa | 2.7V | 00:00:00 | 02:12:18 | 00:00:00 | |
| DO9HM | 2026-08-30 12:56:40 | 48.98545 | 10.07805 | 42° | 16km/h | 19273m | -9.7m/s | -55.9°C | 1.6% | 66.0hPa | 2.6V | 08:18:00 | 00:00:00 | 00:00:00 | |
| DK5PH-5 | 2026-08-30 12:56:39 | 48.98539 | 10.07798 | 46° | 20km/h | 19292m | -9.6m/s | -55.6°C | 5.3% | 65.7hPa | 2.6V | 00:00:00 | 02:12:15 | 00:00:00 | |
| DN1GJH-1 | 2026-08-30 12:56:36 | 48.98534 | 10.07792 | 44° | 11km/h | 19312m | -9.7m/s | -55.6°C | 1.6% | 65.5hPa | 2.6V | 08:18:00 | 00:00:00 | 00:00:00 | |
| DM0DOS-11 | 2026-08-30 12:56:35 | 48.98527 | 10.07785 | 28° | 13km/h | 19340m | -9.6m/s | -55.7°C | 5.3% | 65.3hPa | 2.6V | 08:17:52 | 02:12:10 | 00:00:00 | |
| DK7TD | 2026-08-30 12:56:33 | 48.98524 | 10.07783 | 14° | 13km/h | 19350m | -9.6m/s | -55.8°C | 1.4% | 65.1hPa | 2.6V | 08:19:08 | 02:12:09 | 00:00:00 | |
| DO3MHA-11 | 2026-08-30 12:56:32 | 48.98521 | 10.07781 | 17° | 18km/h | 19360m | -10.1m/s | -55.7°C | 5.3% | 65.0hPa | 2.6V | 00:00:00 | 02:12:08 | 00:00:00 | |
| DB0UT-7 | 2026-08-30 12:56:31 | 48.98517 | 10.07780 | 8° | 26km/h | 19370m | -10.0m/s | -55.8°C | 5.3% | 64.9hPa | 2.6V | 00:00:00 | 00:00:00 | 00:00:00 | |
| DG9SBQ-11 | 2026-08-30 12:56:30 | 48.98513 | 10.07779 | 12° | 15km/h | 19380m | -10.1m/s | -56.0°C | 1.6% | 64.8hPa | 2.6V | 08:18:00 | 00:00:00 | 00:00:00 | |
| DM0DOS-11 | 2026-08-30 12:56:29 | 48.98487 | 10.07768 | 19° | 22km/h | 19440m | -10.4m/s | -55.1°C | 5.1% | 64.2hPa | 2.6V | 08:18:02 | 02:12:00 | 00:00:00 | |
| SO1NDE-10 | 2026-08-30 12:56:29 | 48.98510 | 10.07778 | 10° | 27km/h | 19390m | -10.1m/s | -55.9°C | 5.3% | 64.7hPa | 2.6V | 00:00:00 | 02:12:05 | 00:00:00 | |
| OE9MKV-15 | 2026-08-30 12:56:26 | 48.98497 | 10.07773 | 18° | 26km/h | 19420m | -10.0m/s | -55.3°C | 5.2% | 64.4hPa | 2.7V | 00:00:00 | 02:12:02 | 00:00:00 | |
| DG9SBQ-11 | 2026-08-30 12:56:24 | 48.98492 | 10.07771 | 23° | 22km/h | 19430m | -10.1m/s | -55.3°C | 1.5% | 64.3hPa | 2.6V | 08:18:00 | 00:00:00 | 00:00:00 | |
| IW2NTF | 2026-08-30 12:56:23 | 48.98451 | 10.07748 | 17° | 27km/h | 19501m | -10.1m/s | -54.6°C | 4.9% | 63.6hPa | 2.6V | 08:18:08 | 02:11:54 | 00:00:00 | |
| DK7TD | 2026-08-30 12:56:22 | 48.98476 | 10.07761 | 19° | 24km/h | 19461m | -10.2m/s | -54.9°C | 1.2% | 64hPa | 2.7V | 08:19:08 | 02:11:58 | 00:00:00 | |
| DO3MHA-11 | 2026-08-30 12:56:22 | 48.98476 | 10.07761 | 20° | 26km/h | 19461m | -10.2m/s | -54.9°C | 5.1% | 64.0hPa | 2.6V | 00:00:00 | 02:11:58 | 00:00:00 | |
| DL6DJ-15 | 2026-08-30 12:56:21 | 48.98464 | 10.07755 | 16° | 26km/h | 19481m | -10.1m/s | -54.8°C | 1.5% | 63.8hPa | 2.6V | 00:00:00 | 00:00:00 | 00:00:00 | |
| DL9SK-14 | 2026-08-30 12:56:20 | 48.98458 | 10.07751 | 20° | 26km/h | 19491m | -10.3m/s | -54.6°C | 1.5% | 63.8hPa | 2.6V | 00:00:00 | 00:00:00 | 00:00:00 | |
| OE5DXL-15 | 2026-08-30 12:56:18 | 48.98451 | 10.07748 | 18° | 27km/h | 19502m | -10.1m/s | -54.6°C | 4.9% | 63.6hPa | 2.6V | 00:00:00 | 00:00:00 | 00:00:00 | |
| DM0DOS-11 | 2026-08-30 12:56:15 | 48.98426 | 10.07734 | 24° | 27km/h | 19542m | -10.1m/s | -54.7°C | 4.9% | 63.2hPa | 2.6V | 08:18:12 | 02:11:50 | 00:00:00 | |
| DN1GJH-1 | 2026-08-30 12:56:15 | 48.98438 | 10.07741 | 20° | 27km/h | 19522m | -10.1m/s | -54.7°C | 1.5% | 63.4hPa | 2.6V | 08:18:00 | 00:00:00 | 00:00:00 | |
| OE5WHR-10 | 2026-08-30 12:56:14 | 48.98426 | 10.07734 | 25° | 26km/h | 19542m | -10.0m/s | 0°C | 0% | 0hPa | 2.6V | 00:00:00 | 00:00:00 | 00:00:00 | |
| IW2NTF | 2026-08-30 12:56:13 | 48.98391 | 10.07696 | 48° | 31km/h | 19604m | -10.3m/s | -55°C | 5.1% | 62.6hPa | 2.6V | 08:18:18 | 02:11:44 | 00:00:00 | |
| DK7TD | 2026-08-30 12:56:12 | 48.98414 | 10.07724 | 32° | 29km/h | 19562m | -10.1m/s | -54.9°C | 1.2% | 63hPa | 2.7V | 08:19:08 | 02:11:48 | 00:00:00 | |
| DK7TD | 2026-08-30 12:56:01 | 48.98358 | 10.07625 | 56° | 29km/h | 19678m | -10.3m/s | -55.1°C | 1.3% | 61.9hPa | 2.6V | 08:19:08 | 02:11:37 | 00:00:00 | |
| HSKMA3-T | 2026-08-30 12:55:59 | 48.98351 | 10.07608 | 55° | 26km/h | 19699m | -10.6m/s | -55.1°C | 1.3% | 61.7hPa | 2.7V | 08:19:59 | 02:11:35 | 00:00:00 | |
| DF7PN | 2026-08-30 12:55:59 | 48.98347 | 10.07601 | 56° | 22km/h | 19709m | -10.4m/s | -55.2°C | 1.5% | 61.6hPa | 2.7V | 00:00:00 | 00:00:00 | 00:00:00 | |
| DO9HM | 2026-08-30 12:55:58 | 48.98351 | 10.07608 | 56° | 26km/h | 19699m | -10.6m/s | -55.1°C | 1.6% | 61.7hPa | 2.7V | 08:19:00 | 00:00:00 | 00:00:00 | |
| DG9SBQ-11 | 2026-08-30 12:55:57 | 48.98347 | 10.07601 | 58° | 22km/h | 19709m | -10.4m/s | -55.2°C | 1.5% | 61.6hPa | 2.7V | 08:19:00 | 00:00:00 | 00:00:00 | |
| OE9MKV-15 | 2026-08-30 12:55:56 | 48.98341 | 10.07586 | 61° | 18km/h | 19731m | -10.6m/s | -55.1°C | 5.4% | 61.4hPa | 2.7V | 00:00:00 | 02:11:32 | 00:00:00 | |
| DM0DOS-11 | 2026-08-30 12:55:55 | 48.98336 | 10.07572 | 62° | 20km/h | 19751m | -10.7m/s | -54.7°C | 5.2% | 61.2hPa | 2.7V | 08:18:32 | 02:11:30 | 00:00:00 | |
| DK7TD | 2026-08-30 12:55:50 | 48.98329 | 10.07541 | 76° | 22km/h | 19793m | -10.3m/s | -54.1°C | 1.2% | 60.8hPa | 2.7V | 08:19:08 | 02:11:26 | 00:00:00 | |
| HSKMA3-T | 2026-08-30 12:55:48 | 48.98327 | 10.07523 | 84° | 24km/h | 19814m | -10.4m/s | -53.9°C | 1.1% | 60.6hPa | 2.6V | 08:19:59 | 02:11:24 | 00:00:00 | |
| OE5DXL-15 | 2026-08-30 12:55:48 | 48.98327 | 10.07523 | 84° | 16km/h | 19814m | -10.4m/s | -53.8°C | 4.8% | 60.6hPa | 2.6V | 08:18:00 | 00:00:00 | 00:00:00 | |
| DG9SBQ-11 | 2026-08-30 12:55:46 | 48.98327 | 10.07514 | 92° | 24km/h | 19825m | -10.7m/s | -53.9°C | 1.4% | 60.5hPa | 2.7V | 08:19:00 | 00:00:00 | 00:00:00 | |
| DM0DOS-11 | 2026-08-30 12:55:45 | 48.98327 | 10.07486 | 93° | 24km/h | 19856m | -10.9m/s | -54°C | 4.8% | 60.2hPa | 2.7V | 08:18:42 | 02:11:20 | 00:00:00 | |
| DJ8HS-15 | 2026-08-30 12:55:43 | 48.98328 | 10.07477 | 96° | 16km/h | 19867m | -10.5m/s | -54.1°C | 4.9% | 60.1hPa | 2.7V | 00:00:00 | 02:11:19 | 00:00:00 | |
| DG9SBQ-11 | 2026-08-30 12:55:42 | 48.98328 | 10.07468 | 97° | 24km/h | 19878m | -11.0m/s | -54.3°C | 1.4% | 60.0hPa | 2.7V | 08:19:00 | 00:00:00 | 00:00:00 | |
| DL1NUX | 2026-08-30 12:55:40 | 48.98330 | 10.07452 | 100° | 20km/h | 19899m | -10.9m/s | -54.2°C | 5% | 59.8hPa | 2.7V | 08:18:46 | 02:11:16 | 00:00:00 | |
| DK7TD | 2026-08-30 12:55:40 | 48.98330 | 10.07453 | 101° | 20km/h | 19899m | -10.9m/s | -54.2°C | 1.2% | 59.8hPa | 2.7V | 08:19:08 | 02:11:16 | 00:00:00 | |
| DK5PH-5 | 2026-08-30 12:55:39 | 48.98331 | 10.07445 | 103° | 15km/h | 19910m | -10.7m/s | -54.1°C | 5.0% | 59.7hPa | 2.6V | 00:00:00 | 02:11:15 | 00:00:00 | |
| DO9HM | 2026-08-30 12:55:38 | 48.98331 | 10.07445 | 103° | 18km/h | 19910m | -10.7m/s | -54.2°C | 1.5% | 59.7hPa | 2.6V | 08:19:00 | 00:00:00 | 00:00:00 | |
| DG9SBQ-11 | 2026-08-30 12:55:37 | 48.98333 | 10.07432 | 110° | 16km/h | 19932m | -11.1m/s | -54.1°C | 1.5% | 59.5hPa | 2.6V | 08:19:00 | 00:00:00 | 00:00:00 | |
| DJTTGO | 2026-08-30 12:55:35 | 48.98335 | 10.07426 | 116° | 18km/h | 19943m | -10.9m/s | -53.8°C | 1.4% | 59.4hPa | 2.6V | 08:19:00 | 00:00:00 | 00:00:00 | |
| OE5DRO-10 | 2026-08-30 12:55:34 | 48.98338 | 10.07414 | 116° | 13km/h | 19965m | -11.0m/s | -53.7°C | 4.9% | 59.1hPa | 2.6V | 00:00:00 | 00:00:00 | 00:00:00 | |
| NBG1-10 | 2026-08-30 12:55:33 | 48.98340 | 10.07410 | 110° | 9km/h | 19976m | -10.6m/s | -53.5°C | 4.8% | 59.1hPa | 2.6V | 00:00:00 | 02:11:09 | 00:00:00 | |
| DO3MHA-11 | 2026-08-30 12:55:32 | 48.98341 | 10.07405 | 117° | 15km/h | 19987m | -10.9m/s | -53.4°C | 4.7% | 59.0hPa | 2.7V | 00:00:00 | 02:11:08 | 00:00:00 | |
| DG9SBQ-11 | 2026-08-30 12:55:31 | 48.98342 | 10.07401 | 108° | 13km/h | 19998m | -11.0m/s | -53.4°C | 1.4% | 58.9hPa | 2.7V | 08:19:00 | 00:00:00 | 00:00:00 | |
| DL1NUX | 2026-08-30 12:55:30 | 48.98344 | 10.07392 | 113° | 13km/h | 20019m | -10.8m/s | -53.2°C | 4.6% | 58.7hPa | 2.7V | 08:18:57 | 02:11:05 | 00:00:00 | |
| DM0DOS-11 | 2026-08-30 12:55:29 | 48.98355 | 10.07369 | 135° | 15km/h | 20073m | -10.6m/s | -53.3°C | 4.6% | 58.2hPa | 2.7V | 08:19:02 | 02:11:00 | 00:00:00 | |
| DK7TD | 2026-08-30 12:55:29 | 48.98345 | 10.07392 | 113° | 13km/h | 20019m | -10.8m/s | -53.2°C | 1% | 58.7hPa | 2.7V | 08:19:08 | 02:11:05 | 00:00:00 | |
| SO1NDE-10 | 2026-08-30 12:55:29 | 48.98345 | 10.07392 | 114° | 9km/h | 20019m | -10.7m/s | -53.1°C | 4.6% | 58.7hPa | 2.6V | 00:00:00 | 02:11:05 | 00:00:00 | |
| DF7PN | 2026-08-30 12:55:28 | 48.98348 | 10.07383 | 120° | 15km/h | 20041m | -10.8m/s | -53.2°C | 1.3% | 58.5hPa | 2.6V | 00:00:00 | 00:00:00 | 00:00:00 | |
| OE9MKV-15 | 2026-08-30 12:55:24 | 48.98355 | 10.07369 | 136° | 7km/h | 20073m | -10.6m/s | -53.2°C | 4.6% | 58.2hPa | 2.6V | 00:00:00 | 02:11:00 | 00:00:00 | |
| OE5WHR-10 | 2026-08-30 12:55:23 | 48.98358 | 10.07365 | 135° | 9km/h | 20084m | -10.6m/s | 0°C | 0% | 0hPa | 2.6V | 00:00:00 | 00:00:00 | 00:00:00 | |
| DO3MHA-11 | 2026-08-30 12:55:22 | 48.98361 | 10.07361 | 141° | 11km/h | 20094m | -10.6m/s | -53.3°C | 4.6% | 57.9hPa | 2.6V | 00:00:00 | 02:10:58 | 00:00:00 | |
| DL1NUX | 2026-08-30 12:55:20 | 48.98370 | 10.07352 | 152° | 15km/h | 20126m | -11m/s | -53°C | 4.5% | 57.7hPa | 2.6V | 08:19:07 | 02:10:55 | 00:00:00 | |
| DK7TD | 2026-08-30 12:55:18 | 48.98372 | 10.07350 | 151° | 11km/h | 20137m | -10.9m/s | -53.1°C | 1% | 57.6hPa | 2.7V | 08:19:08 | 02:10:54 | 00:00:00 | |
| DO9HM | 2026-08-30 12:55:18 | 48.98372 | 10.07350 | 152° | 11km/h | 20138m | -10.9m/s | -53.1°C | 1.4% | 57.6hPa | 2.6V | 08:19:00 | 00:00:00 | 00:00:00 | |
| DM0DOS-11 | 2026-08-30 12:55:15 | 48.98382 | 10.07344 | 152° | 9km/h | 20181m | -10.5m/s | -53.2°C | 4.6% | 57.2hPa | 2.6V | 08:19:12 | 02:10:50 | 00:00:00 | |
| OE5DRO-10 | 2026-08-30 12:55:15 | 48.98379 | 10.07345 | 164° | 4km/h | 20170m | -10.4m/s | -53.2°C | 4.6% | 57.3hPa | 2.7V | 00:00:00 | 00:00:00 | 00:00:00 | |
| DN1GJH-1 | 2026-08-30 12:55:13 | 48.98382 | 10.07344 | 154° | 9km/h | 20181m | -10.5m/s | -53.2°C | 1.4% | 57.2hPa | 2.7V | 08:19:00 | 00:00:00 | 00:00:00 | |
| DO3MHA-11 | 2026-08-30 12:55:12 | 48.98385 | 10.07342 | 155° | 4km/h | 20202m | -10.4m/s | -53.1°C | 4.5% | 57.0hPa | 2.7V | 00:00:00 | 02:10:48 | 00:00:00 | |
| DL1NUX | 2026-08-30 12:55:10 | 48.98389 | 10.07339 | 135° | 4km/h | 20233m | -10.3m/s | -53.1°C | 4.4% | 56.8hPa | 2.6V | 08:19:17 | 02:10:45 | 00:00:00 | |
| DM0DOS-11 | 2026-08-30 12:55:09 | 48.98391 | 10.07337 | 228° | 2km/h | 20297m | -10.7m/s | -53.4°C | 4.5% | 56.2hPa | 2.6V | 08:19:23 | 02:10:39 | 00:00:00 | |
| DK7TD | 2026-08-30 12:55:07 | 48.98391 | 10.07338 | 125° | 4km/h | 20254m | -10.6m/s | -53.2°C | 1% | 56.6hPa | 2.6V | 08:19:59 | 02:10:43 | 00:00:00 | |
| DF8AY | 2026-08-30 12:55:06 | 48.98391 | 10.07337 | 159° | 0km/h | 20265m | -10.8m/s | -53.2°C | 0% | 0hPa | 2.7V | 08:20:50 | 02:10:42 | 00:00:00 | |
| DJ8HS-15 | 2026-08-30 12:55:03 | 48.98391 | 10.07337 | 229° | 11km/h | 20298m | -10.7m/s | -53.4°C | 4.5% | 56.2hPa | 2.7V | 00:00:00 | 02:10:39 | 00:00:00 | |
| OE5WHR-10 | 2026-08-30 12:55:02 | 48.98391 | 10.07338 | 310° | 13km/h | 20309m | -11.1m/s | 0°C | 0% | 0hPa | 2.7V | 00:00:00 | 00:00:00 | 00:00:00 | |
| DG9SBQ-11 | 2026-08-30 12:55:01 | 48.98391 | 10.07338 | 276° | 2km/h | 20319m | -11.2m/s | -53.7°C | 1.4% | 56.0hPa | 2.7V | 08:19:00 | 00:00:00 | 00:00:00 | |
| DL1NUX | 2026-08-30 12:55:00 | 48.98390 | 10.07341 | 296° | 5km/h | 20341m | -10.7m/s | -53.8°C | 4.7% | 55.8hPa | 2.7V | 08:19:27 | 02:10:35 | 00:00:00 | |
| NBG1-10 | 2026-08-30 12:55:00 | 48.98391 | 10.07340 | 305° | 15km/h | 20331m | -10.8m/s | -53.7°C | 4.6% | 55.9hPa | 2.7V | 00:00:00 | 02:10:36 | 00:00:00 | |
| SO1NDE-10 | 2026-08-30 12:54:59 | 48.98390 | 10.07341 | 297° | 15km/h | 20341m | -10.7m/s | -53.8°C | 4.7% | 55.8hPa | 2.7V | 08:19:00 | 02:10:35 | 00:00:00 | |
| DM0DOS-11 | 2026-08-30 12:54:58 | 48.98379 | 10.07351 | 343° | 15km/h | 20405m | -10.3m/s | -54.2°C | 4.7% | 55.2hPa | 2.7V | 08:19:33 | 02:10:29 | 00:00:00 | |
| HSKMA3-T | 2026-08-30 12:54:57 | 48.98388 | 10.07344 | 316° | 7km/h | 20362m | -10.9m/s | -54°C | 1.1% | 55.6hPa | 2.6V | 08:19:59 | 02:10:33 | 00:00:00 | |
| DK7TD | 2026-08-30 12:54:56 | 48.98387 | 10.07345 | 331° | 7km/h | 20373m | -10.9m/s | -54°C | 1.1% | 55.5hPa | 2.6V | 08:19:59 | 02:10:32 | 00:00:00 | |
| DF8AY | 2026-08-30 12:54:54 | 48.98382 | 10.07349 | 338° | 11km/h | 20395m | -10.6m/s | -54.2°C | 0% | 0hPa | 2.7V | 08:20:50 | 02:10:30 | 00:00:00 | |
| OE9MKV-15 | 2026-08-30 12:54:53 | 48.98379 | 10.07351 | 344° | 15km/h | 20406m | -10.3m/s | -54.2°C | 4.7% | 55.2hPa | 2.7V | 08:19:00 | 02:10:29 | 00:00:00 | |
| DO3MHA-11 | 2026-08-30 12:54:52 | 48.98376 | 10.07352 | 340° | 16km/h | 20416m | -10.7m/s | -54.2°C | 4.8% | 55.1hPa | 2.6V | 00:00:00 | 02:10:28 | 00:00:00 | |
| PG1ADW-2 | 2026-08-30 12:54:51 | 48.98372 | 10.07354 | 348° | 16km/h | 20427m | -10.9m/s | -54.3°C | 4.8% | 55.0hPa | 2.6V | 08:19:00 | 00:00:00 | 00:00:00 | |
| DL1NUX | 2026-08-30 12:54:50 | 48.98363 | 10.07357 | 352° | 18km/h | 20449m | -11.3m/s | -54.4°C | 4.8% | 54.9hPa | 2.6V | 08:19:37 | 02:10:25 | 00:00:00 | |
| DF3TZ-5 | 2026-08-30 12:54:49 | 48.98359 | 10.07358 | 347° | 15km/h | 20461m | -11.1m/s | -54.4°C | 1.4% | 54.8hPa | 2.6V | 00:00:00 | 00:00:00 | 00:00:00 | |
| DM0DOS-11 | 2026-08-30 12:54:48 | 48.98339 | 10.07362 | 353° | 16km/h | 20517m | -11.3m/s | -54.6°C | 5% | 54.3hPa | 2.6V | 08:19:43 | 02:10:19 | 00:00:00 | |
| DK7TD | 2026-08-30 12:54:45 | 48.98347 | 10.07360 | 355° | 16km/h | 20494m | -11.3m/s | -54.6°C | 1.2% | 54.6hPa | 2.6V | 08:19:59 | 02:10:21 | 00:00:00 | |
| HSKMA3-T | 2026-08-30 12:54:42 | 48.98335 | 10.07364 | 346° | 18km/h | 20528m | -11.1m/s | -54.6°C | 1.3% | 54.2hPa | 2.7V | 08:19:59 | 02:10:18 | 00:00:00 | |
| OE5WHR-10 | 2026-08-30 12:54:41 | 48.98331 | 10.07365 | 348° | 11km/h | 20540m | -11.2m/s | 0°C | 0% | 0hPa | 2.6V | 00:00:00 | 02:10:17 | 00:00:00 | |
| DL1NUX | 2026-08-30 12:54:40 | 48.98322 | 10.07368 | 345° | 16km/h | 20562m | -11.2m/s | -54.4°C | 4.9% | 53.9hPa | 2.6V | 08:19:47 | 02:10:15 | 00:00:00 | |
| DM0DOS-11 | 2026-08-30 12:54:38 | 48.98295 | 10.07376 | 354° | 16km/h | 20630m | -11.4m/s | -54.5°C | 4.9% | 53.3hPa | 2.6V | 08:19:53 | 02:10:09 | 00:00:00 | |
| DK7TD | 2026-08-30 12:54:35 | 48.98304 | 10.07374 | 351° | 18km/h | 20607m | -11.6m/s | -54.6°C | 1.3% | 53.6hPa | 2.7V | 08:19:59 | 02:10:11 | 00:00:00 | |
| DF8AY | 2026-08-30 12:54:32 | 48.98291 | 10.07376 | 0° | 16km/h | 20642m | -11.2m/s | -54.6°C | 0% | 0hPa | 2.6V | 08:20:50 | 02:10:08 | 00:00:00 | |
| DG9SBQ-11 | 2026-08-30 12:54:32 | 48.98291 | 10.07376 | 1° | 16km/h | 20642m | -11.2m/s | -54.6°C | 1.5% | 53.3hPa | 2.6V | 08:19:00 | 00:00:00 | 00:00:00 | |
| DB0UT-7 | 2026-08-30 12:54:31 | 48.98287 | 10.07376 | 1° | 13km/h | 20653m | -11.6m/s | -54.6°C | 5.0% | 53.1hPa | 2.6V | 08:19:00 | 00:00:00 | 00:00:00 | |
| DL1NUX | 2026-08-30 12:54:30 | 48.98281 | 10.07375 | 359° | 9km/h | 20676m | -11.3m/s | -54.6°C | 5% | 53hPa | 2.7V | 08:19:57 | 02:10:05 | 00:00:00 | |
| SO1NDE-10 | 2026-08-30 12:54:29 | 48.98281 | 10.07375 | 360° | 11km/h | 20676m | -11.2m/s | -54.6°C | 5.0% | 52.9hPa | 2.7V | 00:00:00 | 02:10:05 | 00:00:00 | |
| DM0DOS-11 | 2026-08-30 12:54:28 | 48.98271 | 10.07376 | 320° | 5km/h | 20744m | -11.2m/s | -54.4°C | 5% | 52.4hPa | 2.7V | 08:20:03 | 02:09:59 | 00:00:00 | |
| BIOWL1-15 | 2026-08-30 12:54:26 | 48.98273 | 10.07375 | 345° | 5km/h | 20721m | -11.2m/s | 0°C | 0% | 0hPa | 2.6V | 18:12:15 | 02:10:01 | 00:00:00 | |
| DK7TD | 2026-08-30 12:54:24 | 48.98272 | 10.07375 | 346° | 4km/h | 20732m | -11.2m/s | -54.4°C | 1.3% | 52.5hPa | 2.7V | 08:20:50 | 02:10:00 | 00:00:00 | |
| HSKMA3-T | 2026-08-30 12:54:22 | 48.98270 | 10.07377 | 305° | 4km/h | 20755m | -11.4m/s | -54.3°C | 1.2% | 52.3hPa | 2.6V | 08:21:41 | 02:09:58 | 00:00:00 | |
| DG9SBQ-11 | 2026-08-30 12:54:20 | 48.98269 | 10.07378 | 310° | 5km/h | 20767m | -11.6m/s | -54.4°C | 1.5% | 52.2hPa | 2.7V | 08:20:00 | 00:00:00 | 00:00:00 | |
| OE5WHR-10 | 2026-08-30 12:54:19 | 48.98268 | 10.07381 | 309° | 15km/h | 20790m | -11.7m/s | 0°C | 0% | 0hPa | 2.7V | 08:20:00 | 00:00:00 | 00:00:00 | |
| DM0DOS-11 | 2026-08-30 12:54:18 | 48.98261 | 10.07391 | 319° | 11km/h | 20860m | -11.3m/s | -54.3°C | 5% | 51.5hPa | 2.7V | 08:20:13 | 02:09:49 | 00:00:00 | |
| DK7TD | 2026-08-30 12:54:14 | 48.98263 | 10.07389 | 310° | 9km/h | 20848m | -11.4m/s | -54.3°C | 1.2% | 51.6hPa | 2.6V | 08:20:50 | 02:09:50 | 00:00:00 | |
| HSKMA3-T | 2026-08-30 12:54:12 | 48.98259 | 10.07394 | 310° | 13km/h | 20871m | -11.1m/s | -54.3°C | 1.2% | 51.4hPa | 2.7V | 08:21:41 | 02:09:48 | 00:00:00 | |
| DK7TD | 2026-08-30 12:54:03 | 48.98228 | 10.07437 | 325° | 20km/h | 20976m | -11.7m/s | -54.3°C | 1.2% | 50.6hPa | 2.6V | 08:20:50 | 02:09:39 | 00:00:00 | |
| DJ8HS-15 | 2026-08-30 12:54:03 | 48.98228 | 10.07437 | 326° | 15km/h | 20976m | -11.6m/s | -54.2°C | 4.9% | 50.5hPa | 2.7V | 00:00:00 | 02:09:39 | 00:00:00 | |
| DO3MHA-11 | 2026-08-30 12:54:02 | 48.98224 | 10.07441 | 325° | 15km/h | 20988m | -11.7m/s | -54.3°C | 4.9% | 50.4hPa | 2.7V | 00:00:00 | 02:09:38 | 00:00:00 | |
| DB0UT-7 | 2026-08-30 12:54:01 | 48.98219 | 10.07446 | 326° | 9km/h | 20999m | -11.5m/s | -54.2°C | 4.9% | 50.3hPa | 2.7V | 00:00:00 | 02:09:37 | 00:00:00 | |
| DL1NUX | 2026-08-30 12:54:00 | 48.98212 | 10.07453 | 326° | 16km/h | 21022m | -11.3m/s | -54.1°C | 4.8% | 50.2hPa | 2.7V | 08:20:27 | 02:09:35 | 00:00:00 | |
| HSKMA3-T | 2026-08-30 12:54:00 | 48.98216 | 10.07450 | 328° | 18km/h | 21011m | -11.5m/s | -54.1°C | 1.1% | 50.3hPa | 2.7V | 08:21:41 | 02:09:36 | 00:00:00 | |
| DG9SBQ-11 | 2026-08-30 12:53:59 | 48.98212 | 10.07453 | 328° | 16km/h | 21022m | -11.3m/s | -54.1°C | 1.4% | 50.2hPa | 2.6V | 08:20:00 | 00:00:00 | 00:00:00 | |
| DM0DOS-11 | 2026-08-30 12:53:58 | 48.98193 | 10.07463 | 356° | 13km/h | 21092m | -11.7m/s | -53.8°C | 4.7% | 49.7hPa | 2.6V | 08:20:33 | 02:09:29 | 00:00:00 | |
| DK7TD | 2026-08-30 12:53:53 | 48.98193 | 10.07463 | 357° | 13km/h | 21092m | -11.7m/s | -53.8°C | 1.1% | 49.7hPa | 2.6V | 08:20:50 | 02:09:29 | 00:00:00 | |
| DF8AY | 2026-08-30 12:53:52 | 48.98173 | 10.07464 | 347° | 13km/h | 21162m | -11.9m/s | -54.1°C | 0% | 0hPa | 2.6V | 08:20:50 | 02:09:23 | 00:00:00 | |
| DO3MHA-11 | 2026-08-30 12:53:52 | 48.98190 | 10.07462 | 6° | 13km/h | 21104m | -11.8m/s | -53.8°C | 4.7% | 49.5hPa | 2.7V | 00:00:00 | 02:09:28 | 00:00:00 | |
| DJTTGO | 2026-08-30 12:53:51 | 48.98190 | 10.07462 | 7° | 15km/h | 21104m | -11.8m/s | -53.9°C | 1.4% | 49.5hPa | 2.7V | 00:00:00 | 00:00:00 | 00:00:00 | |
| DL1NUX | 2026-08-30 12:53:50 | 48.98179 | 10.07463 | 351° | 15km/h | 21139m | -11.4m/s | -53.9°C | 4.7% | 49.3hPa | 2.7V | 08:20:37 | 02:09:25 | 00:00:00 | |
| DF3TZ-5 | 2026-08-30 12:53:47 | 48.98170 | 10.07465 | 348° | 9km/h | 21174m | -11.8m/s | -54.1°C | 1.4% | 49.0hPa | 2.7V | 00:00:00 | 00:00:00 | 00:00:00 | |
| AZAK | 2026-08-30 12:53:46 | 48.98170 | 10.07465 | 349° | 11km/h | 21174m | -11.8m/s | -54.1°C | 1.4% | 49.0hPa | 2.7V | 08:20:00 | 00:00:00 | 00:00:00 | |
| DM0DOS-11 | 2026-08-30 12:53:45 | 48.98162 | 10.07468 | 339° | 7km/h | 21209m | -11.9m/s | -54.3°C | 4.8% | 48.8hPa | 2.7V | 08:20:43 | 02:09:19 | 00:00:00 | |
| DL9SK-14 | 2026-08-30 12:53:45 | 48.98164 | 10.07467 | 336° | 7km/h | 21197m | -11.6m/s | -54.2°C | 1.4% | 48.9hPa | 2.6V | 00:00:00 | 00:00:00 | 00:00:00 | |
| DK7TD | 2026-08-30 12:53:42 | 48.98161 | 10.07470 | 313° | 4km/h | 21221m | -11.5m/s | -54.3°C | 1.2% | 48.6hPa | 2.6V | 08:20:50 | 02:09:18 | 00:00:00 | |
| HSKMA3-T | 2026-08-30 12:53:41 | 48.98161 | 10.07471 | 322° | 4km/h | 21232m | -11.6m/s | -54.4°C | 1.2% | 48.6hPa | 2.6V | 08:21:41 | 02:09:17 | 00:00:00 | |
| DL1NUX | 2026-08-30 12:53:40 | 48.98160 | 10.07473 | 277° | 2km/h | 21256m | -11.8m/s | -54.4°C | 4.9% | 48.4hPa | 2.7V | 08:20:47 | 02:09:15 | 00:00:00 | |
| DM0DOS-11 | 2026-08-30 12:53:38 | 48.98163 | 10.07483 | 243° | 7km/h | 21329m | -12m/s | -54.3°C | 4.8% | 47.9hPa | 2.7V | 08:20:53 | 02:09:09 | 00:00:00 | |
| DF8AY | 2026-08-30 12:53:36 | 48.98161 | 10.07477 | 244° | 5km/h | 21292m | -12.2m/s | 0°C | 0% | 0hPa | 2.6V | 08:20:50 | 02:09:12 | 00:00:00 | |
| DK7TD | 2026-08-30 12:53:31 | 48.98164 | 10.07489 | 255° | 9km/h | 21352m | -11.4m/s | -54.2°C | 1.1% | 47.7hPa | 2.6V | 08:21:41 | 02:09:07 | 00:00:00 | |
| HSKMA3-T | 2026-08-30 12:53:26 | 48.98165 | 10.07516 | 267° | 16km/h | 21409m | -11.8m/s | -54.4°C | 1.2% | 47.2hPa | 2.7V | 08:21:41 | 02:09:02 | 00:00:00 | |
| PG1ADW-2 | 2026-08-30 12:53:26 | 48.98165 | 10.07516 | 267° | 22km/h | 21409m | -11.7m/s | -54.3°C | 4.8% | 47.2hPa | 2.6V | 00:00:00 | 00:00:00 | 00:00:00 | |
| DM0DOS-11 | 2026-08-30 12:53:25 | 48.98165 | 10.07539 | 276° | 22km/h | 21445m | -12m/s | -54.5°C | 4.8% | 47hPa | 2.6V | 08:21:03 | 02:08:59 | 00:00:00 | |
| DF8AY | 2026-08-30 12:53:24 | 48.98165 | 10.07531 | 272° | 20km/h | 21433m | -12.3m/s | 0°C | 0% | 0hPa | 2.6V | 18:12:15 | 02:09:00 | 00:00:00 | |
| DK7TD | 2026-08-30 12:53:20 | 48.98163 | 10.07562 | 278° | 20km/h | 21481m | -12m/s | -54.6°C | 1.2% | 46.7hPa | 2.6V | 08:21:41 | 02:08:56 | 00:00:00 | |
| DG9SBQ-11 | 2026-08-30 12:53:19 | 48.98162 | 10.07562 | 279° | 20km/h | 21481m | -12.0m/s | -54.6°C | 1.4% | 46.7hPa | 2.6V | 08:21:00 | 00:00:00 | 00:00:00 | |
| DM0DOS-11 | 2026-08-30 12:53:18 | 48.98149 | 10.07614 | 302° | 24km/h | 21567m | -12.5m/s | -54.8°C | 4.9% | 46.1hPa | 2.6V | 08:21:13 | 02:08:49 | 00:00:00 | |
| HSKMA3-T | 2026-08-30 12:53:13 | 48.98149 | 10.07614 | 302° | 24km/h | 21567m | -12.5m/s | -54.8°C | 1.2% | 46.1hPa | 2.6V | 08:21:41 | 02:08:49 | 00:00:00 | |
| DO3MHA-11 | 2026-08-30 12:53:12 | 48.98146 | 10.07621 | 301° | 27km/h | 21580m | -12.4m/s | -54.9°C | 5.0% | 46.0hPa | 2.6V | 08:21:00 | 02:08:48 | 00:00:00 | |
| DL1NUX | 2026-08-30 12:53:10 | 48.98135 | 10.07646 | 307° | 27km/h | 21617m | -12.7m/s | -55.1°C | 5.1% | 45.7hPa | 2.6V | 08:21:17 | 02:08:45 | 00:00:00 | |
| DK7TD | 2026-08-30 12:53:09 | 48.98135 | 10.07646 | 308° | 27km/h | 21617m | -12.7m/s | -55.2°C | 1.3% | 45.8hPa | 2.6V | 08:21:41 | 02:08:45 | 00:00:00 | |
| DK5PH-5 | 2026-08-30 12:53:08 | 48.98130 | 10.07655 | 307° | 24km/h | 21630m | -12.3m/s | -55.0°C | 5.1% | 45.6hPa | 2.6V | 00:00:00 | 02:08:44 | 00:00:00 | |
| AZAK | 2026-08-30 12:53:06 | 48.98116 | 10.07679 | 319° | 29km/h | 21667m | -12.6m/s | -55.3°C | 1.5% | 45.4hPa | 2.6V | 08:21:00 | 00:00:00 | 00:00:00 | |
| DM0DOS-11 | 2026-08-30 12:53:04 | 48.98105 | 10.07694 | 321° | 27km/h | 21692m | -12.8m/s | -55.3°C | 5.1% | 45.2hPa | 2.6V | 08:21:23 | 02:08:39 | 00:00:00 | |
| HSKMA3-T | 2026-08-30 12:53:03 | 48.98105 | 10.07694 | 321° | 27km/h | 21692m | -12.8m/s | -55.3°C | 1.3% | 45.2hPa | 2.6V | 08:21:41 | 02:08:39 | 00:00:00 | |
| DJ8HS-15 | 2026-08-30 12:53:03 | 48.98105 | 10.07694 | 322° | 22km/h | 21693m | -12.7m/s | -55.3°C | 5.1% | 45.2hPa | 2.6V | 00:00:00 | 02:08:39 | 00:00:00 | |
| DO3MHA-11 | 2026-08-30 12:53:02 | 48.98100 | 10.07701 | 318° | 20km/h | 21705m | -12.7m/s | -55.3°C | 5.2% | 45.1hPa | 2.6V | 00:00:00 | 02:08:38 | 00:00:00 | |
| DB0UT-7 | 2026-08-30 12:53:01 | 48.98095 | 10.07707 | 324° | 22km/h | 21718m | -12.5m/s | -55.3°C | 5.1% | 45.0hPa | 2.6V | 00:00:00 | 02:08:37 | 00:00:00 | |
| DL1NUX | 2026-08-30 12:53:00 | 48.98085 | 10.07719 | 326° | 24km/h | 21743m | -12.6m/s | -55.5°C | 5.2% | 44.8hPa | 2.7V | 08:21:27 | 02:08:35 | 00:00:00 | |
| DK7TD | 2026-08-30 12:52:59 | 48.98085 | 10.07719 | 326° | 24km/h | 21743m | -12.6m/s | -55.5°C | 1.4% | 44.8hPa | 2.7V | 08:21:41 | 02:08:35 | 00:00:00 | |
| DM0DOS-11 | 2026-08-30 12:52:58 | 48.98061 | 10.07740 | 345° | 16km/h | 21819m | -12.8m/s | -55.5°C | 5.3% | 44.3hPa | 2.7V | 08:21:33 | 02:08:29 | 00:00:00 | |
| HSKMA3-T | 2026-08-30 12:52:52 | 48.98057 | 10.07742 | 341° | 16km/h | 21832m | -12.7m/s | -55.5°C | 1.5% | 44.2hPa | 2.6V | 08:21:41 | 02:08:28 | 00:00:00 | |
| DL1XH-west | 2026-08-30 12:52:51 | 48.98053 | 10.07743 | 350° | 18km/h | 21845m | -12.6m/s | -55.3°C | 1.4% | 44.1hPa | 2.6V | 08:21:41 | 02:08:27 | 00:00:00 | |
| BIOWL1-15 | 2026-08-30 12:52:50 | 48.98048 | 10.07745 | 344° | 20km/h | 21857m | -12.5m/s | 0°C | 0% | 0hPa | 2.6V | 08:21:41 | 02:08:26 | 00:00:00 | |
| DL1NUX | 2026-08-30 12:52:50 | 48.98043 | 10.07747 | 348° | 20km/h | 21870m | -12.6m/s | -55.2°C | 5.2% | 44hPa | 2.7V | 08:21:37 | 02:08:25 | 00:00:00 | |
| DK7TD | 2026-08-30 12:52:49 | 48.98044 | 10.07747 | 348° | 20km/h | 21870m | -12.6m/s | -55.2°C | 1.3% | 44hPa | 2.7V | 08:21:41 | 02:08:25 | 00:00:00 | |
| NBG1-10 | 2026-08-30 12:52:48 | 48.98038 | 10.07749 | 341° | 18km/h | 21883m | -12.7m/s | -55.0°C | 5.2% | 43.8hPa | 2.6V | 00:00:00 | 02:08:24 | 00:00:00 | |
| DG9SBQ-11 | 2026-08-30 12:52:47 | 48.98038 | 10.07749 | 342° | 22km/h | 21883m | -12.7m/s | -55.1°C | 1.5% | 43.9hPa | 2.6V | 08:21:00 | 00:00:00 | 00:00:00 | |
| PG1ADW-2 | 2026-08-30 12:52:46 | 48.98027 | 10.07754 | 338° | 22km/h | 21908m | -12.8m/s | -55.1°C | 5.2% | 43.7hPa | 2.6V | 00:00:00 | 00:00:00 | 00:00:00 | |
| DM0DOS-11 | 2026-08-30 12:52:44 | 48.98010 | 10.07766 | 336° | 26km/h | 21947m | -12.6m/s | -55.1°C | 5.2% | 43.4hPa | 2.7V | 08:21:43 | 02:08:19 | 00:00:00 | |
| HSKMA3-T | 2026-08-30 12:52:41 | 48.97998 | 10.07775 | 334° | 27km/h | 21972m | -13.2m/s | -55.1°C | 1.4% | 43.3hPa | 2.6V | 08:22:32 | 02:08:17 | 00:00:00 | |
| DL1XH-west | 2026-08-30 12:52:40 | 48.97993 | 10.07780 | 330° | 26km/h | 21986m | -13.1m/s | -55.1°C | 1.4% | 43.2hPa | 2.6V | 08:22:32 | 02:08:16 | 00:00:00 | |
| DL1NUX | 2026-08-30 12:52:40 | 48.97987 | 10.07784 | 333° | 27km/h | 21999m | -13m/s | -55.1°C | 5.3% | 43.1hPa | 2.6V | 08:21:47 | 02:08:15 | 00:00:00 | |
| DF8AY | 2026-08-30 12:52:40 | 48.97970 | 10.07797 | 337° | 24km/h | 22038m | -13m/s | 0°C | 0% | 0hPa | 2.6V | 18:12:15 | 02:08:12 | 00:00:00 | |
| DK7TD | 2026-08-30 12:52:38 | 48.97981 | 10.07789 | 331° | 26km/h | 22012m | -13.2m/s | -55°C | 1.4% | 43hPa | 2.7V | 08:22:32 | 02:08:14 | 00:00:00 | |
| BIOWL1-15 | 2026-08-30 12:52:36 | 48.97964 | 10.07800 | 344° | 24km/h | 22051m | -13.1m/s | 0°C | 0% | 0hPa | 2.6V | 08:25:05 | 02:08:11 | 00:00:00 | |
| DG9SBQ-11 | 2026-08-30 12:52:31 | 48.97943 | 10.07806 | 356° | 18km/h | 22103m | -13.2m/s | -54.9°C | 1.5% | 42.4hPa | 2.7V | 08:22:00 | 00:00:00 | 00:00:00 | |
| DL1NUX | 2026-08-30 12:52:30 | 48.97932 | 10.07807 | 357° | 13km/h | 22142m | -13m/s | -54.9°C | 5.4% | 42.1hPa | 2.7V | 08:21:58 | 02:08:04 | 00:00:00 | |
| HSKMA3-T | 2026-08-30 12:52:30 | 48.97939 | 10.07806 | 355° | 16km/h | 22116m | -13.1m/s | -54.9°C | 1.4% | 42.3hPa | 2.6V | 08:22:32 | 02:08:06 | 00:00:00 | |
| DK7TD | 2026-08-30 12:52:28 | 48.97932 | 10.07807 | 357° | 13km/h | 22142m | -13m/s | -54.9°C | 1.5% | 42.1hPa | 2.7V | 08:22:32 | 02:08:04 | 00:00:00 | |
| DM0DOS-11 | 2026-08-30 12:52:27 | 48.97913 | 10.07812 | 342° | 9km/h | 22221m | -13.4m/s | -54.3°C | 5.2% | 41.6hPa | 2.7V | 08:22:04 | 02:07:58 | 00:00:00 | |
| DG9SBQ-11 | 2026-08-30 12:52:27 | 48.97925 | 10.07808 | 353° | 11km/h | 22168m | -13.0m/s | -54.7°C | 1.6% | 42.0hPa | 2.6V | 08:22:00 | 00:00:00 | 00:00:00 | |
| DL1XH1-15 | 2026-08-30 12:52:25 | 48.97908 | 10.07815 | 346° | 7km/h | 22248m | -13m/s | -54.1°C | 5.2% | 41.4hPa | 2.6V | 08:22:06 | 02:07:56 | 00:00:00 | |
| DF8AY | 2026-08-30 12:52:24 | 48.97919 | 10.07810 | 344° | 11km/h | 22195m | -13.4m/s | 0°C | 0% | 0hPa | 2.6V | 18:12:15 | 02:08:00 | 00:00:00 | |
| DL1XH-west | 2026-08-30 12:52:20 | 48.97909 | 10.07815 | 346° | 7km/h | 22248m | -13m/s | -54.1°C | 1.4% | 41.4hPa | 2.6V | 08:22:32 | 02:07:56 | 00:00:00 | |
| DL1NUX | 2026-08-30 12:52:20 | 48.97905 | 10.07816 | 352° | 5km/h | 22274m | -12.8m/s | -53.8°C | 5% | 41.2hPa | 2.7V | 08:22:08 | 02:07:54 | 00:00:00 | |
| HSKMA3-T | 2026-08-30 12:52:19 | 48.97907 | 10.07816 | 343° | 9km/h | 22261m | -13.1m/s | -53.8°C | 1.3% | 41.3hPa | 2.6V | 08:22:32 | 02:07:55 | 00:00:00 | |
| DK7TD | 2026-08-30 12:52:17 | 48.97903 | 10.07817 | 350° | 7km/h | 22287m | -12.8m/s | -53.7°C | 1.3% | 41.2hPa | 2.7V | 08:22:32 | 02:07:53 | 00:00:00 | |
| DG9SBQ-11 | 2026-08-30 12:52:15 | 48.97899 | 10.07818 | 354° | 7km/h | 22313m | -13.0m/s | -53.5°C | 1.4% | 41.0hPa | 2.7V | 08:22:00 | 00:00:00 | 00:00:00 | |
| DF3TZ-5 | 2026-08-30 12:52:13 | 48.97896 | 10.07819 | 344° | 5km/h | 22339m | -13.6m/s | -53.6°C | 1.4% | 40.8hPa | 2.7V | 00:00:00 | 00:00:00 | 00:00:00 | |
| DL9SK-14 | 2026-08-30 12:52:12 | 48.97894 | 10.07821 | 321° | 4km/h | 22366m | -13.6m/s | -53.4°C | 1.3% | 40.7hPa | 2.7V | 00:00:00 | 00:00:00 | 00:00:00 | |
| DL1NUX | 2026-08-30 12:52:10 | 48.97893 | 10.07826 | 272° | 5km/h | 22406m | -13.5m/s | -53.2°C | 4.7% | 40.4hPa | 2.7V | 08:22:18 | 02:07:44 | 00:00:00 | |
| DL1XH-west | 2026-08-30 12:52:09 | 48.97893 | 10.07824 | 300° | 5km/h | 22392m | -13.5m/s | -53.2°C | 1.1% | 40.5hPa | 2.6V | 08:22:32 | 02:07:45 | 00:00:00 | |
| HSKMA3-T | 2026-08-30 12:52:08 | 48.97893 | 10.07826 | 273° | 5km/h | 22406m | -13.5m/s | -53.2°C | 1.1% | 40.4hPa | 2.7V | 08:22:32 | 02:07:44 | 00:00:00 | |
| DK7TD | 2026-08-30 12:52:07 | 48.97892 | 10.07829 | 287° | 7km/h | 22420m | -13.6m/s | -53°C | 1% | 40.3hPa | 2.7V | 08:22:32 | 02:07:43 | 00:00:00 | |
| DL1XH1-15 | 2026-08-30 12:52:06 | 48.97891 | 10.07835 | 290° | 11km/h | 22446m | -12.8m/s | -53°C | 4.6% | 40.1hPa | 2.6V | 08:22:21 | 02:07:41 | 00:00:00 | |
| PG1ADW-2 | 2026-08-30 12:52:06 | 48.97892 | 10.07832 | 277° | 18km/h | 22433m | -13.6m/s | -52.9°C | 4.6% | 40.1hPa | 2.6V | 00:00:00 | 00:00:00 | 00:00:00 | |
| OE5DRO-10 | 2026-08-30 12:52:05 | 48.97891 | 10.07835 | 291° | 18km/h | 22447m | -12.8m/s | -52.9°C | 4.6% | 40.1hPa | 2.6V | 00:00:00 | 00:00:00 | 00:00:00 | |
| DG9SBQ-11 | 2026-08-30 12:52:04 | 48.97890 | 10.07840 | 286° | 13km/h | 22460m | -13.5m/s | -53.0°C | 1.3% | 40.1hPa | 2.6V | 08:22:00 | 00:00:00 | 00:00:00 | |
| DL1NUX | 2026-08-30 12:52:03 | 48.97881 | 10.07877 | 293° | 18km/h | 22541m | -13.8m/s | -53.1°C | 4.7% | 39.5hPa | 2.6V | 08:22:28 | 02:07:34 | 00:00:00 | |
| BIOWL1-15 | 2026-08-30 12:52:01 | 48.97876 | 10.07890 | 301° | 18km/h | 22570m | -13.9m/s | 0°C | 0% | 0hPa | 2.7V | 08:25:05 | 02:07:32 | 00:00:00 | |
| DL1XH-west | 2026-08-30 12:51:59 | 48.97883 | 10.07870 | 294° | 20km/h | 22528m | -13.8m/s | -53.1°C | 1.1% | 39.7hPa | 2.6V | 08:22:32 | 02:07:35 | 00:00:00 | |
| DL1XH1-15 | 2026-08-30 12:51:58 | 48.97873 | 10.07896 | 305° | 20km/h | 22583m | -13.9m/s | -53.2°C | 4.7% | 39.3hPa | 2.6V | 08:22:31 | 02:07:31 | 00:00:00 | |
| DM0DOS-11 | 2026-08-30 12:51:57 | 48.97864 | 10.07912 | 317° | 18km/h | 22625m | -13.8m/s | -53.1°C | 4.7% | 39.1hPa | 2.7V | 08:22:34 | 02:07:28 | 00:00:00 | |
| DK7TD | 2026-08-30 12:51:57 | 48.97878 | 10.07884 | 298° | 20km/h | 22556m | -14m/s | -53.2°C | 1.1% | 39.5hPa | 2.7V | 08:22:32 | 02:07:33 | 00:00:00 | |
| BIOWL1-15 | 2026-08-30 12:51:50 | 48.97857 | 10.07922 | 322° | 18km/h | 22653m | -13.9m/s | 0°C | 0% | 0hPa | 2.7V | 08:25:05 | 02:07:26 | 00:00:00 | |
| DL1NUX | 2026-08-30 12:51:49 | 48.97850 | 10.07932 | 321° | 20km/h | 22680m | -13.9m/s | -53.2°C | 4.7% | 38.7hPa | 2.6V | 08:22:38 | 02:07:24 | 00:00:00 | |
| DL1XH-west | 2026-08-30 12:51:48 | 48.97850 | 10.07932 | 322° | 20km/h | 22680m | -13.9m/s | -53.2°C | 1.1% | 38.7hPa | 2.6V | 08:23:23 | 02:07:24 | 00:00:00 | |
| DM0DOS-11 | 2026-08-30 12:51:47 | 48.97825 | 10.07961 | 335° | 20km/h | 22765m | -13.8m/s | -53.4°C | 4.8% | 38.2hPa | 2.7V | 08:22:44 | 02:07:18 | 00:00:00 | |
| DK7TD | 2026-08-30 12:51:47 | 48.97846 | 10.07938 | 315° | 22km/h | 22694m | -13.9m/s | -53.2°C | 1.1% | 38.7hPa | 2.6V | 08:23:23 | 02:07:23 | 00:00:00 | |
| HSKMA3-T | 2026-08-30 12:51:46 | 48.97842 | 10.07943 | 323° | 20km/h | 22709m | -14.2m/s | -53.2°C | 1.2% | 38.5hPa | 2.7V | 08:23:23 | 02:07:22 | 00:00:00 | |
| BIOWL1-15 | 2026-08-30 12:51:42 | 48.97817 | 10.07967 | 339° | 20km/h | 22793m | -14.1m/s | 0°C | 0% | 0hPa | 2.6V | 08:25:05 | 02:07:16 | 00:00:00 | |
| DO3MHA-11 | 2026-08-30 12:51:42 | 48.97825 | 10.07960 | 336° | 20km/h | 22765m | -13.8m/s | -53.3°C | 4.8% | 38.2hPa | 2.7V | 08:22:00 | 02:07:18 | 00:00:00 | |
| DL6DJ-15 | 2026-08-30 12:51:41 | 48.97821 | 10.07964 | 331° | 16km/h | 22779m | -14.1m/s | -53.3°C | 1.4% | 38.1hPa | 2.7V | 00:00:00 | 00:00:00 | 00:00:00 | |
| IW2NTF | 2026-08-30 12:51:40 | 48.97794 | 10.07980 | 336° | 18km/h | 22864m | -14.4m/s | -53.1°C | 4.7% | 37.6hPa | 2.7V | 08:22:51 | 02:07:11 | 00:00:00 | |
| DL1NUX | 2026-08-30 12:51:39 | 48.97807 | 10.07972 | 343° | 20km/h | 22821m | -14.2m/s | -53.3°C | 4.8% | 37.9hPa | 2.6V | 08:22:48 | 02:07:14 | 00:00:00 | |
| DL1XH-west | 2026-08-30 12:51:38 | 48.97807 | 10.07972 | 343° | 20km/h | 22821m | -14.2m/s | -53.3°C | 1.2% | 37.9hPa | 2.6V | 08:23:23 | 02:07:14 | 00:00:00 | |
| DK7TD | 2026-08-30 12:51:37 | 48.97803 | 10.07975 | 337° | 18km/h | 22835m | -14m/s | -53.3°C | 1.2% | 37.8hPa | 2.7V | 08:23:23 | 02:07:13 | 00:00:00 | |
| HSKMA3-T | 2026-08-30 12:51:35 | 48.97794 | 10.07980 | 336° | 18km/h | 22864m | -14.4m/s | -53.1°C | 1.1% | 37.6hPa | 2.7V | 08:23:23 | 02:07:11 | 00:00:00 | |
| DJ2DS-15 | 2026-08-30 12:51:35 | 48.97794 | 10.07980 | 337° | 15km/h | 22864m | -14.3m/s | -53.1°C | 4.7% | 37.6hPa | 2.6V | 00:00:00 | 02:07:11 | 00:00:00 | |
| DO3MHA-11 | 2026-08-30 12:51:32 | 48.97780 | 10.07987 | 353° | 18km/h | 22906m | -13.9m/s | -52.9°C | 4.6% | 37.3hPa | 2.6V | 00:00:00 | 02:07:08 | 00:00:00 | |
| DL1NUX | 2026-08-30 12:51:29 | 48.97762 | 10.07988 | 3° | 18km/h | 22962m | -14.5m/s | -52.8°C | 4.5% | 37hPa | 2.6V | 08:22:58 | 02:07:04 | 00:00:00 | |
| DL1XH-west | 2026-08-30 12:51:28 | 48.97762 | 10.07988 | 4° | 18km/h | 22962m | -14.5m/s | -52.8°C | 1% | 37hPa | 2.6V | 08:23:23 | 02:07:04 | 00:00:00 | |
| OE5DRO-10 | 2026-08-30 12:51:27 | 48.97757 | 10.07988 | 1° | 13km/h | 22977m | -14.3m/s | -52.6°C | 4.5% | 36.9hPa | 2.6V | 00:00:00 | 00:00:00 | 00:00:00 | |
| DK7TD | 2026-08-30 12:51:27 | 48.97757 | 10.07988 | 1° | 16km/h | 22977m | -14.3m/s | -52.7°C | 1% | 37hPa | 2.7V | 08:23:23 | 02:07:03 | 00:00:00 | |
| DL1XH1-15 | 2026-08-30 12:51:26 | 48.97749 | 10.07988 | 354° | 16km/h | 23005m | -14.2m/s | -52.5°C | 4.4% | 36.8hPa | 2.6V | 08:23:01 | 02:07:01 | 00:00:00 | |
| HSKMA3-T | 2026-08-30 12:51:25 | 48.97749 | 10.07988 | 354° | 16km/h | 23005m | -14.2m/s | -52.5°C | 1% | 36.8hPa | 2.6V | 08:23:23 | 02:07:01 | 00:00:00 | |
| DG9SBQ-11 | 2026-08-30 12:51:24 | 48.97745 | 10.07988 | 357° | 16km/h | 23020m | -14.4m/s | -52.5°C | 1.2% | 36.7hPa | 2.6V | 08:23:00 | 00:00:00 | 00:00:00 | |
| DJ8HS-15 | 2026-08-30 12:51:23 | 48.97741 | 10.07989 | 346° | 11km/h | 23034m | -13.9m/s | -52.5°C | 4.4% | 36.6hPa | 2.6V | 00:00:00 | 02:06:59 | 00:00:00 | |
| DO3MHA-11 | 2026-08-30 12:51:22 | 48.97737 | 10.07990 | 351° | 9km/h | 23048m | -14.2m/s | -52.6°C | 4.4% | 36.5hPa | 2.6V | 00:00:00 | 02:06:58 | 00:00:00 | |
| AZAK | 2026-08-30 12:51:21 | 48.97737 | 10.07990 | 352° | 15km/h | 23048m | -14.3m/s | -52.6°C | 1.2% | 36.6hPa | 2.6V | 08:23:00 | 00:00:00 | 00:00:00 | |
| DL1NUX | 2026-08-30 12:51:19 | 48.97726 | 10.07994 | 356° | 9km/h | 23106m | -14.3m/s | -52.9°C | 4.5% | 36.2hPa | 2.6V | 08:23:08 | 02:06:54 | 00:00:00 | |
| DL1XH1-15 | 2026-08-30 12:51:18 | 48.97719 | 10.07996 | 356° | 7km/h | 23164m | -14.6m/s | -53°C | 4.6% | 35.9hPa | 2.6V | 08:23:12 | 02:06:50 | 00:00:00 | |
| OE5DXL-15 | 2026-08-30 12:51:18 | 48.97726 | 10.07994 | 357° | 13km/h | 23107m | -14.3m/s | -52.8°C | 4.5% | 36.2hPa | 2.6V | 08:23:00 | 00:00:00 | 00:00:00 | |
| DM0DOS-11 | 2026-08-30 12:51:17 | 48.97715 | 10.07998 | 348° | 11km/h | 23193m | -14.9m/s | -53°C | 4.6% | 35.7hPa | 2.7V | 08:23:14 | 02:06:48 | 00:00:00 | |
| DL1XH-west | 2026-08-30 12:51:17 | 48.97724 | 10.07995 | 341° | 7km/h | 23121m | -14.2m/s | -52.9°C | 1% | 36.2hPa | 2.6V | 08:23:23 | 02:06:53 | 00:00:00 | |
| BIOWL1-15 | 2026-08-30 12:51:16 | 48.97719 | 10.07996 | 356° | 7km/h | 23164m | -14.6m/s | 0°C | 0% | 0hPa | 2.6V | 08:25:05 | 02:06:50 | 00:00:00 | |
| DK7TD | 2026-08-30 12:51:16 | 48.97723 | 10.07996 | 357° | 7km/h | 23135m | -14.3m/s | -53°C | 1.1% | 36.1hPa | 2.7V | 08:23:23 | 02:06:52 | 00:00:00 | |
| HSKMA3-T | 2026-08-30 12:51:15 | 48.97721 | 10.07996 | 344° | 7km/h | 23149m | -14.5m/s | -53°C | 1.1% | 36hPa | 2.7V | 08:23:23 | 02:06:51 | 00:00:00 | |
| DJ2DS-15 | 2026-08-30 12:51:14 | 48.97719 | 10.07996 | 357° | 13km/h | 23164m | -14.6m/s | -52.9°C | 4.6% | 35.9hPa | 2.6V | 00:00:00 | 02:06:50 | 00:00:00 | |
| DG9SBQ-11 | 2026-08-30 12:51:13 | 48.97717 | 10.07997 | 342° | 7km/h | 23179m | -14.8m/s | -53.0°C | 1.3% | 35.8hPa | 2.7V | 08:23:00 | 00:00:00 | 00:00:00 | |
| DO3MHA-11 | 2026-08-30 12:51:12 | 48.97714 | 10.07998 | 349° | 11km/h | 23193m | -14.8m/s | -53.0°C | 4.6% | 35.7hPa | 2.7V | 00:00:00 | 02:06:48 | 00:00:00 | |
| DF3TZ-5 | 2026-08-30 12:51:11 | 48.97712 | 10.07999 | 329° | 9km/h | 23208m | -14.7m/s | -53.1°C | 1.3% | 35.6hPa | 2.6V | 00:00:00 | 00:00:00 | 00:00:00 | |
| DL6DJ-15 | 2026-08-30 12:51:10 | 48.97710 | 10.08001 | 335° | 9km/h | 23223m | -14.4m/s | -53.1°C | 1.3% | 35.6hPa | 2.6V | 00:00:00 | 00:00:00 | 00:00:00 | |
| DL1NUX | 2026-08-30 12:51:09 | 48.97705 | 10.08005 | 334° | 13km/h | 23252m | -14.9m/s | -53.2°C | 4.7% | 35.4hPa | 2.6V | 08:23:18 | 02:06:44 | 00:00:00 | |
| NBG1-10 | 2026-08-30 12:51:09 | 48.97708 | 10.08003 | 331° | 13km/h | 23237m | -14.6m/s | -53.1°C | 4.7% | 35.5hPa | 2.6V | 00:00:00 | 02:06:45 | 00:00:00 | |
| DJ2DS-15 | 2026-08-30 12:51:08 | 48.97703 | 10.08007 | 330° | 9km/h | 23267m | -15.2m/s | -53.2°C | 1.4% | 35.3hPa | 2.6V | 00:00:00 | 00:00:00 | 00:00:00 | |
| DM0DOS-11 | 2026-08-30 12:51:07 | 48.97688 | 10.08014 | 351° | 15km/h | 23341m | -14.8m/s | -53.4°C | 4.9% | 35hPa | 2.6V | 08:23:24 | 02:06:38 | 00:00:00 | |
| DL1XH1-15 | 2026-08-30 12:51:06 | 48.97692 | 10.08014 | 347° | 11km/h | 23326m | -14.8m/s | -53.4°C | 4.8% | 35hPa | 2.6V | 08:23:23 | 02:06:39 | 00:00:00 | |
| DL1XH-west | 2026-08-30 12:51:06 | 48.97700 | 10.08009 | 336° | 13km/h | 23282m | -14.9m/s | -53.3°C | 1.1% | 35.3hPa | 2.7V | 08:23:23 | 02:06:42 | 00:00:00 | |
| HSKMA3-T | 2026-08-30 12:51:04 | 48.97695 | 10.08012 | 341° | 13km/h | 23311m | -14.7m/s | -53.4°C | 1.2% | 35.1hPa | 2.6V | 08:23:23 | 02:06:40 | 00:00:00 | |
| DL8DAS-14 | 2026-08-30 12:51:04 | 48.97692 | 10.08013 | 347° | 11km/h | 23326m | -14.8m/s | -53.4°C | 1.4% | 35.0hPa | 2.6V | 00:00:00 | 00:00:00 | 00:00:00 | |
| DJ8HS-15 | 2026-08-30 12:51:03 | 48.97692 | 10.08013 | 348° | 13km/h | 23326m | -14.8m/s | -53.3°C | 4.8% | 35.0hPa | 2.6V | 00:00:00 | 02:06:39 | 00:00:00 | |
| DO3MHA-11 | 2026-08-30 12:51:02 | 48.97688 | 10.08014 | 352° | 16km/h | 23341m | -14.7m/s | -53.4°C | 4.9% | 34.9hPa | 2.6V | 00:00:00 | 02:06:38 | 00:00:00 | |
| DG9SBQ-11 | 2026-08-30 12:51:01 | 48.97688 | 10.08014 | 352° | 15km/h | 23341m | -14.8m/s | -53.4°C | 1.4% | 35.0hPa | 2.6V | 08:24:00 | 00:00:00 | 00:00:00 | |
| AZAK | 2026-08-30 12:51:00 | 48.97684 | 10.08015 | 353° | 15km/h | 23356m | -15.1m/s | -53.5°C | 1.4% | 34.8hPa | 2.6V | 08:24:00 | 00:00:00 | 00:00:00 | |
| DL1NUX | 2026-08-30 12:50:59 | 48.97671 | 10.08019 | 347° | 18km/h | 23401m | -14.9m/s | -53.4°C | 4.9% | 34.6hPa | 2.6V | 08:23:28 | 02:06:34 | 00:00:00 | |
| DL1XH-west | 2026-08-30 12:50:55 | 48.97658 | 10.08022 | 0° | 16km/h | 23446m | -15.2m/s | -53.3°C | 1.2% | 34.4hPa | 2.6V | 08:24:14 | 02:06:31 | 00:00:00 | |
| HSKMA3-T | 2026-08-30 12:50:54 | 48.97654 | 10.08023 | 352° | 15km/h | 23461m | -15.3m/s | -53.2°C | 1.2% | 34.2hPa | 2.6V | 08:24:14 | 02:06:30 | 00:00:00 | |
| DJ2DS-15 | 2026-08-30 12:50:54 | 48.97654 | 10.08023 | 353° | 13km/h | 23461m | -15.3m/s | -53.2°C | 4.8% | 34.2hPa | 2.7V | 00:00:00 | 02:06:30 | 00:00:00 | |
| DM0DOS-11 | 2026-08-30 12:50:52 | 48.97648 | 10.08022 | 3° | 13km/h | 23491m | -14.8m/s | -53.1°C | 4.8% | 34.1hPa | 2.7V | 08:23:34 | 02:06:28 | 00:00:00 | |
| DO3MHA-11 | 2026-08-30 12:50:52 | 48.97648 | 10.08022 | 4° | 9km/h | 23491m | -14.8m/s | -53.1°C | 4.8% | 34.1hPa | 2.6V | 00:00:00 | 02:06:28 | 00:00:00 | |
| DG9SBQ-11 | 2026-08-30 12:50:51 | 48.97645 | 10.08020 | 30° | 11km/h | 23506m | -15.1m/s | -53.1°C | 1.3% | 34.0hPa | 2.6V | 08:24:00 | 00:00:00 | 00:00:00 | |
| DO9HM | 2026-08-30 12:50:48 | 48.97639 | 10.08014 | 55° | 7km/h | 23552m | -15.2m/s | -52.8°C | 1.4% | 33.8hPa | 2.6V | 08:24:00 | 00:00:00 | 00:00:00 | |
| DM0DOS-11 | 2026-08-30 12:50:47 | 48.97633 | 10.07997 | 67° | 9km/h | 23644m | -15.4m/s | -52.5°C | 4.6% | 33.3hPa | 2.6V | 08:23:44 | 02:06:18 | 00:00:00 | |
| DL1XH-west | 2026-08-30 12:50:44 | 48.97635 | 10.08002 | 67° | 9km/h | 23613m | -15.8m/s | -52.5°C | 1.1% | 33.5hPa | 2.6V | 08:24:14 | 02:06:20 | 00:00:00 | |
| HSKMA3-T | 2026-08-30 12:50:43 | 48.97634 | 10.08000 | 53° | 7km/h | 23629m | -15.6m/s | -52.5°C | 1.1% | 33.4hPa | 2.6V | 08:24:14 | 02:06:19 | 00:00:00 | |
| BIOWL1-15 | 2026-08-30 12:50:41 | 48.97627 | 10.07982 | 77° | 11km/h | 23721m | -16.2m/s | 0°C | 0% | 0hPa | 2.6V | 08:25:05 | 02:06:13 | 00:00:00 | |
| DF3TZ-5 | 2026-08-30 12:50:40 | 48.97630 | 10.07992 | 60° | 9km/h | 23674m | -15.2m/s | -52.5°C | 1.3% | 33.1hPa | 2.6V | 00:00:00 | 00:00:00 | 00:00:00 | |
| IW2NTF | 2026-08-30 12:50:39 | 48.97627 | 10.07982 | 76° | 11km/h | 23721m | -16.2m/s | -52.4°C | 4.5% | 32.9hPa | 2.6V | 08:30:00 | 02:06:13 | 00:00:00 | |
| DK7TD | 2026-08-30 12:50:33 | 48.97627 | 10.07967 | 111° | 11km/h | 23784m | -15.8m/s | -52.5°C | 1% | 32.6hPa | 2.7V | 08:24:14 | 02:06:09 | 00:00:00 | |
| HSKMA3-T | 2026-08-30 12:50:32 | 48.97628 | 10.07963 | 115° | 9km/h | 23800m | -15.6m/s | -52.5°C | 1.1% | 32.5hPa | 2.6V | 08:24:14 | 02:06:08 | 00:00:00 | |
| DM0DOS-11 | 2026-08-30 12:50:32 | 48.97628 | 10.07963 | 115° | 9km/h | 23800m | -15.6m/s | -52.5°C | 4.6% | 32.5hPa | 2.6V | 08:23:54 | 02:06:08 | 00:00:00 | |
| BIOWL1-15 | 2026-08-30 12:50:27 | 48.97636 | 10.07951 | 152° | 7km/h | 23877m | -15.7m/s | 0°C | 0% | 0hPa | 2.6V | 08:25:05 | 02:06:03 | 00:00:00 | |
| DB0UT-7 | 2026-08-30 12:50:26 | 48.97638 | 10.07950 | 183° | 7km/h | 23893m | -15.2m/s | -52.3°C | 4.6% | 32.0hPa | 2.6V | 00:00:00 | 00:00:00 | 00:00:00 | |
| DN1GJH-1 | 2026-08-30 12:50:24 | 48.97640 | 10.07951 | 193° | 5km/h | 23908m | -15.0m/s | -52.4°C | 1.3% | 32.0hPa | 2.6V | 08:24:00 | 00:00:00 | 00:00:00 | |
| DG9SBQ-11 | 2026-08-30 12:50:23 | 48.97642 | 10.07951 | 211° | 7km/h | 23923m | -15.6m/s | -52.3°C | 1.3% | 31.9hPa | 2.6V | 08:24:00 | 00:00:00 | 00:00:00 | |
| DM0DOS-11 | 2026-08-30 12:50:22 | 48.97644 | 10.07955 | 231° | 7km/h | 23955m | -16m/s | -52.2°C | 4.5% | 31.8hPa | 2.6V | 08:24:04 | 02:05:58 | 00:00:00 | |
| DL1XH-west | 2026-08-30 12:50:22 | 48.97644 | 10.07955 | 231° | 7km/h | 23955m | -16m/s | -52.2°C | 1% | 31.8hPa | 2.6V | 08:24:14 | 02:05:58 | 00:00:00 | |
| DO3MHA-11 | 2026-08-30 12:50:22 | 48.97644 | 10.07955 | 232° | 9km/h | 23955m | -15.9m/s | -52.1°C | 4.5% | 31.7hPa | 2.6V | 00:00:00 | 02:05:58 | 00:00:00 | |
| DB0ND-19 | 2026-08-30 12:50:21 | 48.97645 | 10.07958 | 254° | 7km/h | 23970m | -15.4m/s | -52.1°C | 1.3% | 31.7hPa | 2.6V | 00:00:00 | 00:00:00 | 00:00:00 | |
| AZAK | 2026-08-30 12:50:20 | 48.97645 | 10.07961 | 258° | 9km/h | 23986m | -16.0m/s | -52.1°C | 1.3% | 31.6hPa | 2.6V | 08:24:00 | 00:00:00 | 00:00:00 | |
| OE5DXL-15 | 2026-08-30 12:50:18 | 48.97645 | 10.07968 | 276° | 9km/h | 24018m | -16.1m/s | -52.0°C | 4.5% | 31.4hPa | 2.6V | 00:00:00 | 00:00:00 | 00:00:00 | |
| DF7PN | 2026-08-30 12:50:17 | 48.97645 | 10.07971 | 278° | 11km/h | 24034m | -15.6m/s | -52.1°C | 1.3% | 31.4hPa | 2.6V | 00:00:00 | 00:00:00 | 00:00:00 | |
| DM0DOS-11 | 2026-08-30 12:50:12 | 48.97641 | 10.07989 | 294° | 7km/h | 24114m | -16m/s | -52.1°C | 4.5% | 31hPa | 2.6V | 08:24:14 | 02:05:48 | 00:00:00 | |
| DK7TD | 2026-08-30 12:50:12 | 48.97641 | 10.07989 | 294° | 7km/h | 24114m | -16m/s | -52.1°C | 1.1% | 31hPa | 2.6V | 08:24:14 | 02:05:48 | 00:00:00 | |
| DL1XH-west | 2026-08-30 12:50:11 | 48.97640 | 10.07991 | 296° | 9km/h | 24129m | -16m/s | -52.2°C | 1% | 30.9hPa | 2.6V | 08:25:05 | 02:05:47 | 00:00:00 | |
| DL1NUX | 2026-08-30 12:50:09 | 48.97636 | 10.07999 | 321° | 7km/h | 24178m | -16.3m/s | -52.1°C | 4.5% | 30.7hPa | 2.6V | 08:24:18 | 02:05:44 | 00:00:00 | |
| BIOWL1-15 | 2026-08-30 12:50:06 | 48.97632 | 10.08004 | 340° | 4km/h | 24244m | -16.6m/s | 0°C | 0% | 0hPa | 2.7V | 08:25:05 | 02:05:40 | 00:00:00 | |
| DN1GJH-1 | 2026-08-30 12:50:04 | 48.97633 | 10.08003 | 297° | 4km/h | 24228m | -16.4m/s | -51.9°C | 1.3% | 30.5hPa | 2.6V | 08:25:00 | 00:00:00 | 00:00:00 | |
| DM0DOS-11 | 2026-08-30 12:50:02 | 48.97632 | 10.08005 | 284° | 0km/h | 24276m | -15.8m/s | -51.9°C | 4.5% | 30.2hPa | 2.6V | 08:24:24 | 02:05:38 | 00:00:00 | |
| HSKMA3-T | 2026-08-30 12:50:02 | 48.97632 | 10.08005 | 284° | 0km/h | 24276m | -15.8m/s | -51.9°C | 1% | 30.2hPa | 2.6V | 08:25:05 | 02:05:38 | 00:00:00 | |
| DK7TD | 2026-08-30 12:50:01 | 48.97632 | 10.08005 | 200° | 4km/h | 24292m | -15.8m/s | -52°C | 1% | 30.1hPa | 2.6V | 08:25:05 | 02:05:37 | 00:00:00 | |
| DL1XH-west | 2026-08-30 12:50:00 | 48.97633 | 10.08006 | 228° | 4km/h | 24308m | -15.7m/s | -52°C | 1% | 30.1hPa | 2.6V | 08:25:05 | 02:05:36 | 00:00:00 | |
| DL1NUX | 2026-08-30 12:49:59 | 48.97635 | 10.08008 | 227° | 7km/h | 24340m | -16m/s | -52°C | 4.5% | 29.9hPa | 2.7V | 08:24:28 | 02:05:34 | 00:00:00 | |
| SONCRA | 2026-08-30 12:49:56 | 48.97640 | 10.08016 | 230° | 11km/h | 24389m | -16.1m/s | -51.9°C | 1.3% | 29.7hPa | 2.7V | 00:00:00 | 00:00:00 | 00:00:00 | |
| DJ2DS-15 | 2026-08-30 12:49:55 | 48.97643 | 10.08020 | 228° | 15km/h | 24405m | -15.8m/s | -51.8°C | 1.2% | 29.6hPa | 2.7V | 00:00:00 | 00:00:00 | 00:00:00 | |
| DG9SBQ-11 | 2026-08-30 12:49:54 | 48.97640 | 10.08016 | 231° | 11km/h | 24389m | -16.1m/s | -51.9°C | 1.3% | 29.7hPa | 2.7V | 08:25:00 | 00:00:00 | 00:00:00 | |
| DM0DOS-11 | 2026-08-30 12:49:52 | 48.97647 | 10.08030 | 237° | 16km/h | 24437m | -17.1m/s | -51.7°C | 4.4% | 29.5hPa | 2.7V | 08:24:34 | 02:05:28 | 00:00:00 | |
| DL1XH1-15 | 2026-08-30 12:49:52 | 48.97653 | 10.08059 | 265° | 15km/h | 24518m | -16.5m/s | -51.8°C | 4.5% | 29.1hPa | 2.6V | 08:24:39 | 02:05:23 | 00:00:00 | |
| HSKMA3-T | 2026-08-30 12:49:51 | 48.97649 | 10.08036 | 248° | 16km/h | 24454m | -16.6m/s | -51.8°C | 1% | 29.4hPa | 2.6V | 08:25:05 | 02:05:27 | 00:00:00 | |
| DL1XH-west | 2026-08-30 12:49:50 | 48.97651 | 10.08048 | 256° | 16km/h | 24486m | -15.9m/s | -51.8°C | 1% | 29.2hPa | 2.7V | 08:25:05 | 02:05:25 | 00:00:00 | |
| DL1NUX | 2026-08-30 12:49:49 | 48.97652 | 10.08053 | 259° | 15km/h | 24502m | -16.2m/s | -51.8°C | 4.5% | 29.2hPa | 2.7V | 08:24:38 | 02:05:24 | 00:00:00 | |
| OE5DXL-15 | 2026-08-30 12:49:48 | 48.97652 | 10.08053 | 260° | 11km/h | 24502m | -16.2m/s | -51.7°C | 4.5% | 29.1hPa | 2.7V | 00:00:00 | 00:00:00 | 00:00:00 | |
| PG1ADW-2 | 2026-08-30 12:49:46 | 48.97653 | 10.08064 | 271° | 9km/h | 24535m | -15.9m/s | -51.7°C | 4.4% | 29.0hPa | 2.6V | 00:00:00 | 00:00:00 | 00:00:00 | |
| DJ2DS-15 | 2026-08-30 12:49:44 | 48.97652 | 10.08074 | 283° | 9km/h | 24567m | -16.2m/s | -51.7°C | 4.4% | 28.8hPa | 2.7V | 00:00:00 | 02:05:20 | 00:00:00 | |
| DN1GJH-1 | 2026-08-30 12:49:43 | 48.97652 | 10.08074 | 283° | 11km/h | 24567m | -16.2m/s | -51.7°C | 1.3% | 28.9hPa | 2.7V | 08:25:00 | 00:00:00 | 00:00:00 | |
| DM0DOS-11 | 2026-08-30 12:49:42 | 48.97650 | 10.08083 | 303° | 11km/h | 24599m | -16.2m/s | -51.5°C | 4.4% | 28.7hPa | 2.7V | 08:24:44 | 02:05:18 | 00:00:00 | |
| HSKMA3-T | 2026-08-30 12:49:41 | 48.97649 | 10.08086 | 300° | 11km/h | 24616m | -16.7m/s | -51.5°C | 1% | 28.6hPa | 2.6V | 08:25:05 | 02:05:17 | 00:00:00 | |
| DL1NUX | 2026-08-30 12:49:39 | 48.97644 | 10.08095 | 313° | 7km/h | 24666m | -17m/s | -51.6°C | 4.4% | 28.4hPa | 2.7V | 08:24:48 | 02:05:14 | 00:00:00 | |
| DL1XH-west | 2026-08-30 12:49:39 | 48.97645 | 10.08093 | 313° | 7km/h | 24649m | -16.7m/s | -51.6°C | 1% | 28.5hPa | 2.6V | 08:25:05 | 02:05:15 | 00:00:00 | |
| DL1XH1-15 | 2026-08-30 12:49:38 | 48.97643 | 10.08096 | 348° | 7km/h | 24683m | -16.8m/s | -51.5°C | 4.4% | 28.4hPa | 2.7V | 08:24:49 | 02:05:13 | 00:00:00 | |
| DK5PH-5 | 2026-08-30 12:49:38 | 48.97644 | 10.08095 | 314° | 7km/h | 24666m | -16.9m/s | -51.5°C | 4.4% | 28.4hPa | 2.7V | 00:00:00 | 02:05:14 | 00:00:00 | |
| DM0DOS-11 | 2026-08-30 12:49:37 | 48.97635 | 10.08102 | 301° | 7km/h | 24764m | -16.1m/s | -51.5°C | 4.3% | 28hPa | 2.7V | 08:24:54 | 02:05:08 | 00:00:00 | |
| DL6DJ-15 | 2026-08-30 12:49:37 | 48.97641 | 10.08097 | 338° | 5km/h | 24699m | -16.6m/s | -51.5°C | 1.2% | 28.3hPa | 2.7V | 00:00:00 | 00:00:00 | 00:00:00 | |
| DL9SK-14 | 2026-08-30 12:49:36 | 48.97641 | 10.08097 | 338° | 5km/h | 24699m | -16.6m/s | -51.5°C | 1.2% | 28.3hPa | 2.7V | 00:00:00 | 00:00:00 | 00:00:00 | |
| DO9HM | 2026-08-30 12:49:34 | 48.97639 | 10.08097 | 355° | 7km/h | 24716m | -16.2m/s | -51.4°C | 1.2% | 28.2hPa | 2.7V | 00:00:00 | 00:00:00 | 00:00:00 | |
| DL1XH1-15 | 2026-08-30 12:49:32 | 48.97626 | 10.08118 | 312° | 13km/h | 24847m | -16.7m/s | -51.6°C | 4.4% | 27.6hPa | 2.7V | 08:24:59 | 02:05:03 | 00:00:00 | |
| HSKMA3-T | 2026-08-30 12:49:30 | 48.97631 | 10.08106 | 307° | 9km/h | 24798m | -16.5m/s | -51.5°C | 1% | 27.9hPa | 2.6V | 08:25:05 | 02:05:06 | 00:00:00 | |
| DL1XH-west | 2026-08-30 12:49:28 | 48.97628 | 10.08114 | 294° | 13km/h | 24830m | -16.5m/s | -51.6°C | 0.9% | 27.7hPa | 2.7V | 08:25:05 | 02:05:04 | 00:00:00 | |
| HSKMA3-T | 2026-08-30 12:49:20 | 48.97612 | 10.08132 | 8° | 9km/h | 24963m | -16.8m/s | -51.6°C | 1% | 27.2hPa | 2.6V | 08:25:56 | 02:04:56 | 00:00:00 | |
| DK7TD | 2026-08-30 12:49:19 | 48.97610 | 10.08132 | 352° | 9km/h | 24980m | -16.7m/s | -51.6°C | 1% | 27.1hPa | 2.6V | 08:25:56 | 02:04:55 | 00:00:00 | |
| DL1NUX | 2026-08-30 12:49:19 | 48.97607 | 10.08132 | 20° | 9km/h | 24997m | -17.3m/s | -51.5°C | 4.4% | 27hPa | 2.6V | 08:25:08 | 02:04:54 | 00:00:00 | |
| DL1XH1-15 | 2026-08-30 12:49:18 | 48.97606 | 10.08131 | 5° | 7km/h | 25014m | -16.7m/s | -51.4°C | 4.3% | 27hPa | 2.7V | 08:25:09 | 02:04:53 | 00:00:00 | |
| DL1XH-west | 2026-08-30 12:49:17 | 48.97605 | 10.08131 | 6° | 7km/h | 25014m | -16.7m/s | -51.4°C | 0.9% | 27hPa | 2.7V | 08:25:56 | 02:04:53 | 00:00:00 | |
| DM0DOS-11 | 2026-08-30 12:49:17 | 48.97601 | 10.08131 | 288° | 4km/h | 25098m | -16.4m/s | -51.2°C | 4.3% | 26.6hPa | 2.6V | 08:25:14 | 02:04:48 | 00:00:00 | |
| BIOWL1-15 | 2026-08-30 12:49:15 | 48.97601 | 10.08131 | 288° | 4km/h | 25099m | -16.4m/s | 0°C | 0% | 0hPa | 2.6V | 18:12:15 | 02:04:48 | 00:00:00 | |
| DF7PN | 2026-08-30 12:49:15 | 48.97603 | 10.08130 | 52° | 4km/h | 25048m | -17.1m/s | -51.4°C | 1.2% | 26.8hPa | 2.7V | 00:00:00 | 00:00:00 | 00:00:00 | |
| DO9HM | 2026-08-30 12:49:14 | 48.97603 | 10.08130 | 53° | 4km/h | 25048m | -17.1m/s | -51.3°C | 1.2% | 26.8hPa | 2.7V | 08:25:00 | 00:00:00 | 00:00:00 | |
| DL1XH1-15 | 2026-08-30 12:49:12 | 48.97601 | 10.08138 | 284° | 4km/h | 25183m | -16.3m/s | -51.4°C | 4.4% | 26.3hPa | 2.7V | 08:25:19 | 02:04:43 | 00:00:00 | |
| DO3MHA-11 | 2026-08-30 12:49:12 | 48.97601 | 10.08131 | 289° | 4km/h | 25099m | -16.3m/s | -51.2°C | 4.3% | 26.6hPa | 2.6V | 00:00:00 | 02:04:48 | 00:00:00 | |
| DL1NUX | 2026-08-30 12:49:09 | 48.97601 | 10.08136 | 247° | 4km/h | 25166m | -17m/s | -51.4°C | 4.3% | 26.3hPa | 2.6V | 08:25:18 | 02:04:44 | 00:00:00 | |
| HSKMA3-T | 2026-08-30 12:49:09 | 48.97600 | 10.08135 | 287° | 5km/h | 25149m | -16.4m/s | -51.4°C | 1% | 26.4hPa | 2.6V | 08:25:56 | 02:04:45 | 00:00:00 | |
| DK7TD | 2026-08-30 12:49:08 | 48.97600 | 10.08136 | 247° | 4km/h | 25166m | -17m/s | -51.4°C | 1% | 26.3hPa | 2.6V | 08:25:56 | 02:04:44 | 00:00:00 | |
| DK5PH-5 | 2026-08-30 12:49:08 | 48.97600 | 10.08136 | 248° | 13km/h | 25167m | -16.9m/s | -51.3°C | 4.3% | 26.3hPa | 2.6V | 00:00:00 | 02:04:44 | 00:00:00 | |
| DM0DOS-11 | 2026-08-30 12:49:07 | 48.97605 | 10.08139 | 174° | 4km/h | 25269m | -17m/s | -51.4°C | 4.3% | 25.9hPa | 2.7V | 08:25:24 | 02:04:38 | 00:00:00 | |
| DL1XH-west | 2026-08-30 12:49:06 | 48.97601 | 10.08139 | 187° | 2km/h | 25200m | -17.2m/s | -51.4°C | 1% | 26.2hPa | 2.7V | 08:25:56 | 02:04:42 | 00:00:00 | |
| BIOWL1-15 | 2026-08-30 12:49:03 | 48.97604 | 10.08139 | 187° | 7km/h | 25251m | -17.3m/s | 0°C | 0% | 0hPa | 2.7V | 18:12:15 | 02:04:39 | 00:00:00 | |
| DJ8HS-15 | 2026-08-30 12:49:03 | 48.97603 | 10.08139 | 188° | 13km/h | 25252m | -17.3m/s | -51.3°C | 4.4% | 25.9hPa | 2.7V | 00:00:00 | 02:04:39 | 00:00:00 | |
| DO3MHA-11 | 2026-08-30 12:49:02 | 48.97605 | 10.08139 | 175° | 11km/h | 25269m | -16.9m/s | -51.4°C | 4.3% | 25.9hPa | 2.7V | 00:00:00 | 02:04:38 | 00:00:00 | |
| DN1GJH-1 | 2026-08-30 12:49:01 | 48.97605 | 10.08139 | 175° | 4km/h | 25269m | -17.0m/s | -51.4°C | 1.3% | 25.9hPa | 2.7V | 08:25:00 | 00:00:00 | 00:00:00 | |
| DL1NUX | 2026-08-30 12:48:59 | 48.97612 | 10.08143 | 217° | 9km/h | 25337m | -17.5m/s | -51.5°C | 4.3% | 25.6hPa | 2.7V | 08:25:28 | 02:04:34 | 00:00:00 | |
| DG9SBQ-11 | 2026-08-30 12:48:59 | 48.97610 | 10.08141 | 195° | 9km/h | 25320m | -17.4m/s | -51.4°C | 1.2% | 25.7hPa | 2.7V | 08:25:00 | 00:00:00 | 00:00:00 | |
| DL1XH1-15 | 2026-08-30 12:48:58 | 48.97614 | 10.08146 | 227° | 11km/h | 25355m | -16.9m/s | -51.5°C | 4.3% | 25.5hPa | 2.7V | 08:25:29 | 02:04:33 | 00:00:00 | |
| HSKMA3-T | 2026-08-30 12:48:58 | 48.97612 | 10.08143 | 218° | 9km/h | 25337m | -17.5m/s | -51.5°C | 1% | 25.6hPa | 2.7V | 08:25:56 | 02:04:34 | 00:00:00 | |
| DL1XH-west | 2026-08-30 12:48:55 | 48.97618 | 10.08153 | 246° | 11km/h | 25390m | -18.3m/s | -51.6°C | 1% | 25.4hPa | 2.6V | 08:25:56 | 02:04:31 | 00:00:00 | |
| DG9SBQ-11 | 2026-08-30 12:48:54 | 48.97619 | 10.08157 | 242° | 15km/h | 25408m | -17.9m/s | -51.6°C | 1.2% | 25.4hPa | 2.7V | 08:25:00 | 00:00:00 | 00:00:00 | |
| DO9HM | 2026-08-30 12:48:53 | 48.97619 | 10.08157 | 242° | 15km/h | 25408m | -17.9m/s | -51.6°C | 1.3% | 25.4hPa | 2.7V | 08:25:00 | 00:00:00 | 00:00:00 | |
| DM0DOS-11 | 2026-08-30 12:48:52 | 48.97621 | 10.08169 | 259° | 13km/h | 25444m | -18.1m/s | -51.5°C | 4.4% | 25.2hPa | 2.7V | 08:25:34 | 02:04:28 | 00:00:00 | |
| DL1XH1-15 | 2026-08-30 12:48:52 | 48.97622 | 10.08197 | 274° | 15km/h | 25533m | -18.5m/s | -51.7°C | 4.4% | 24.9hPa | 2.6V | 08:25:39 | 02:04:23 | 00:00:00 | |
| DL1ZP-14 | 2026-08-30 12:48:51 | 48.97623 | 10.08180 | 266° | 16km/h | 25480m | -17.2m/s | -51.6°C | 1.2% | 25.1hPa | 2.7V | 00:00:00 | 00:00:00 | 00:00:00 | |
| DJTTGO | 2026-08-30 12:48:50 | 48.97623 | 10.08180 | 268° | 18km/h | 25480m | -17.2m/s | -51.6°C | 1.2% | 25.1hPa | 2.6V | 00:00:00 | 00:00:00 | 00:00:00 | |
| DL1NUX | 2026-08-30 12:48:49 | 48.97622 | 10.08192 | 269° | 15km/h | 25515m | -18.8m/s | -51.7°C | 4.4% | 24.9hPa | 2.6V | 08:25:38 | 02:04:24 | 00:00:00 | |
| HSKMA3-T | 2026-08-30 12:48:48 | 48.97622 | 10.08192 | 270° | 15km/h | 25515m | -18.8m/s | -51.7°C | 1% | 25hPa | 2.6V | 08:25:56 | 02:04:24 | 00:00:00 | |
| DK7TD | 2026-08-30 12:48:47 | 48.97622 | 10.08198 | 275° | 15km/h | 25533m | -18.5m/s | -51.8°C | 1% | 24.9hPa | 2.6V | 08:25:56 | 02:04:23 | 00:00:00 | |
| DL1XH-west | 2026-08-30 12:48:45 | 48.97622 | 10.08210 | 276° | 18km/h | 25569m | -17.8m/s | -51.8°C | 1.1% | 24.8hPa | 2.7V | 08:25:56 | 02:04:21 | 00:00:00 | |
| DJ2DS-15 | 2026-08-30 12:48:44 | 48.97621 | 10.08217 | 279° | 18km/h | 25588m | -18.2m/s | -51.8°C | 4.5% | 24.6hPa | 2.7V | 00:00:00 | 02:04:20 | 00:00:00 | |
| DJ8HS-15 | 2026-08-30 12:48:43 | 48.97621 | 10.08224 | 272° | 18km/h | 25606m | -18.3m/s | -51.9°C | 4.6% | 24.6hPa | 2.7V | 00:00:00 | 02:04:19 | 00:00:00 | |
| DO3MHA-11 | 2026-08-30 12:48:42 | 48.97621 | 10.08231 | 270° | 20km/h | 25624m | -18.9m/s | -51.9°C | 4.6% | 24.5hPa | 2.7V | 08:25:00 | 02:04:18 | 00:00:00 | |
| DN1GJH-1 | 2026-08-30 12:48:41 | 48.97621 | 10.08231 | 271° | 20km/h | 25624m | -18.9m/s | -52.0°C | 1.3% | 24.5hPa | 2.7V | 08:25:00 | 00:00:00 | 00:00:00 | |
| DL1NUX | 2026-08-30 12:48:39 | 48.97620 | 10.08263 | 278° | 20km/h | 25697m | -18.3m/s | -51.9°C | 4.6% | 24.2hPa | 2.7V | 08:25:48 | 02:04:14 | 00:00:00 | |
| AZAK | 2026-08-30 12:48:39 | 48.97621 | 10.08255 | 279° | 24km/h | 25680m | -17.8m/s | -52.0°C | 1.3% | 24.3hPa | 2.7V | 08:25:00 | 00:00:00 | 00:00:00 | |
| DL1XH1-15 | 2026-08-30 12:48:38 | 48.97619 | 10.08271 | 278° | 18km/h | 25716m | -18.7m/s | -51.9°C | 4.6% | 24.2hPa | 2.7V | 08:25:49 | 02:04:13 | 00:00:00 | |
| HSKMA3-T | 2026-08-30 12:48:38 | 48.97620 | 10.08263 | 279° | 20km/h | 25697m | -18.3m/s | -51.9°C | 1.1% | 24.2hPa | 2.7V | 08:25:56 | 02:04:14 | 00:00:00 | |
| DK7TD | 2026-08-30 12:48:37 | 48.97619 | 10.08271 | 278° | 18km/h | 25716m | -18.7m/s | -51.9°C | 1.1% | 24.2hPa | 2.7V | 08:25:56 | 02:04:13 | 00:00:00 | |
| DL1XH-west | 2026-08-30 12:48:34 | 48.97617 | 10.08291 | 266° | 18km/h | 25772m | -18.5m/s | -51.9°C | 1.1% | 24hPa | 2.6V | 08:25:56 | 02:04:10 | 00:00:00 | |
| DL9SK-14 | 2026-08-30 12:48:34 | 48.97617 | 10.08298 | 277° | 16km/h | 25791m | -18.5m/s | -51.7°C | 1.3% | 23.9hPa | 2.7V | 00:00:00 | 00:00:00 | 00:00:00 | |
| DL1XH1-15 | 2026-08-30 12:48:32 | 48.97608 | 10.08333 | 310° | 16km/h | 25903m | -19.1m/s | -51.1°C | 4.4% | 23.5hPa | 2.7V | 08:25:59 | 02:04:03 | 00:00:00 | |
| DM0DOS-11 | 2026-08-30 12:48:32 | 48.97617 | 10.08304 | 276° | 16km/h | 25809m | -18.6m/s | -51.5°C | 4.6% | 23.8hPa | 2.7V | 08:25:54 | 02:04:08 | 00:00:00 | |
| DO3MHA-11 | 2026-08-30 12:48:32 | 48.97616 | 10.08304 | 277° | 18km/h | 25810m | -18.5m/s | -51.5°C | 4.6% | 23.8hPa | 2.6V | 00:00:00 | 02:04:08 | 00:00:00 | |
| DG9SBQ-11 | 2026-08-30 12:48:30 | 48.97615 | 10.08310 | 287° | 18km/h | 25828m | -18.1m/s | -51.4°C | 1.3% | 23.8hPa | 2.6V | 08:25:00 | 00:00:00 | 00:00:00 | |
| DL1NUX | 2026-08-30 12:48:29 | 48.97610 | 10.08328 | 299° | 16km/h | 25883m | -19.2m/s | -51.1°C | 4.4% | 23.6hPa | 2.6V | 08:25:58 | 02:04:04 | 00:00:00 | |
| HSKMA3-T | 2026-08-30 12:48:28 | 48.97610 | 10.08328 | 299° | 16km/h | 25883m | -19.2m/s | -51.2°C | 1% | 23.6hPa | 2.6V | 08:26:47 | 02:04:04 | 00:00:00 | |
| DK7TD | 2026-08-30 12:48:26 | 48.97605 | 10.08338 | 313° | 16km/h | 25922m | -19.1m/s | -51.1°C | 0.9% | 23.4hPa | 2.7V | 08:26:47 | 02:04:02 | 00:00:00 | |
| DL1XH-west | 2026-08-30 12:48:24 | 48.97598 | 10.08348 | 325° | 20km/h | 25960m | -19.5m/s | -51.1°C | 1% | 23.3hPa | 2.6V | 08:26:47 | 02:04:00 | 00:00:00 | |
| DJ2DS-15 | 2026-08-30 12:48:24 | 48.97598 | 10.08348 | 325° | 20km/h | 25961m | -19.5m/s | -51.0°C | 4.4% | 23.3hPa | 2.6V | 00:00:00 | 02:04:00 | 00:00:00 | |
| SONCRA | 2026-08-30 12:48:23 | 48.97590 | 10.08358 | 319° | 20km/h | 26000m | -19.2m/s | -50.9°C | 1.2% | 23.2hPa | 2.6V | 00:00:00 | 00:00:00 | 00:00:00 | |
| DO3MHA-11 | 2026-08-30 12:48:22 | 48.97590 | 10.08358 | 320° | 22km/h | 26000m | -19.2m/s | -50.8°C | 4.4% | 23.1hPa | 2.6V | 00:00:00 | 02:03:58 | 00:00:00 | |
| DN1GJH-1 | 2026-08-30 12:48:20 | 48.97585 | 10.08362 | 330° | 22km/h | 26019m | -19.2m/s | -50.8°C | 1.3% | 23.1hPa | 2.6V | 08:26:00 | 00:00:00 | 00:00:00 | |
| DL1NUX | 2026-08-30 12:48:19 | 48.97570 | 10.08374 | 341° | 24km/h | 26076m | -18.9m/s | -50.8°C | 4.3% | 22.9hPa | 2.6V | 08:26:08 | 02:03:54 | 00:00:00 | |
| AZAK | 2026-08-30 12:48:19 | 48.97575 | 10.08371 | 336° | 24km/h | 26058m | -19.2m/s | -50.8°C | 1.2% | 23.0hPa | 2.7V | 08:26:00 | 00:00:00 | 00:00:00 | |
| DL1XH1-15 | 2026-08-30 12:48:18 | 48.97564 | 10.08377 | 345° | 22km/h | 26095m | -18.9m/s | -50.7°C | 4.4% | 22.8hPa | 2.7V | 08:26:09 | 02:03:53 | 00:00:00 | |
| OE5DXL-15 | 2026-08-30 12:48:18 | 48.97569 | 10.08374 | 342° | 16km/h | 26077m | -18.8m/s | -50.7°C | 4.3% | 22.9hPa | 2.6V | 00:00:00 | 00:00:00 | 00:00:00 | |
| DB0ND-19 | 2026-08-30 12:48:17 | 48.97564 | 10.08377 | 345° | 22km/h | 26095m | -18.9m/s | -50.7°C | 1.2% | 22.8hPa | 2.7V | 00:00:00 | 00:00:00 | 00:00:00 | |
| HSKMA3-T | 2026-08-30 12:48:17 | 48.97564 | 10.08377 | 346° | 22km/h | 26095m | -18.9m/s | -50.7°C | 1% | 22.8hPa | 2.7V | 08:26:47 | 02:03:53 | 00:00:00 | |
| DM0DOS-11 | 2026-08-30 12:48:15 | 48.97536 | 10.08380 | 4° | 20km/h | 26192m | -19.4m/s | -50.5°C | 4.3% | 22.5hPa | 2.7V | 08:26:14 | 02:03:48 | 00:00:00 | |
| DK7TD | 2026-08-30 12:48:15 | 48.97552 | 10.08380 | 358° | 22km/h | 26134m | -19.2m/s | -50.7°C | 1% | 22.7hPa | 2.6V | 08:26:47 | 02:03:51 | 00:00:00 | |
| DL1XH-west | 2026-08-30 12:48:13 | 48.97542 | 10.08380 | 0° | 22km/h | 26173m | -20m/s | -50.6°C | 1% | 22.6hPa | 2.7V | 08:26:47 | 02:03:49 | 00:00:00 | |
| DF7PN | 2026-08-30 12:48:13 | 48.97536 | 10.08380 | 4° | 20km/h | 26193m | -19.4m/s | -50.6°C | 1.2% | 22.5hPa | 2.7V | 00:00:00 | 00:00:00 | 00:00:00 | |
| DL1XH1-15 | 2026-08-30 12:48:12 | 48.97513 | 10.08382 | 353° | 16km/h | 26289m | -19.2m/s | -50.1°C | 4.2% | 22.1hPa | 2.7V | 08:26:19 | 02:03:43 | 00:00:00 | |
| HSKMA3-T | 2026-08-30 12:48:06 | 48.97509 | 10.08382 | 350° | 13km/h | 26308m | -19.3m/s | -50.1°C | 0.9% | 22.1hPa | 2.7V | 08:26:47 | 02:03:42 | 00:00:00 | |
| PG1ADW-2 | 2026-08-30 12:48:06 | 48.97509 | 10.08382 | 351° | 16km/h | 26309m | -19.3m/s | -50.1°C | 4.2% | 22.1hPa | 2.7V | 00:00:00 | 00:00:00 | 00:00:00 | |
| DM0DOS-11 | 2026-08-30 12:48:05 | 48.97497 | 10.08387 | 336° | 11km/h | 26385m | -19.1m/s | -50.1°C | 4.2% | 21.8hPa | 2.7V | 08:26:24 | 02:03:38 | 00:00:00 | |
| DK7TD | 2026-08-30 12:48:04 | 48.97502 | 10.08385 | 350° | 13km/h | 26347m | -19.5m/s | -50.1°C | 0.9% | 21.9hPa | 2.6V | 08:26:47 | 02:03:40 | 00:00:00 | |
| DL1XH-west | 2026-08-30 12:48:03 | 48.97499 | 10.08386 | 341° | 11km/h | 26366m | -19.2m/s | -50.1°C | 0.9% | 21.9hPa | 2.6V | 08:26:47 | 02:03:39 | 00:00:00 | |
| DG9SBQ-11 | 2026-08-30 12:48:03 | 48.97499 | 10.08386 | 342° | 11km/h | 26366m | -19.2m/s | -50.1°C | 1.2% | 21.9hPa | 2.6V | 08:26:00 | 00:00:00 | 00:00:00 | |
| DO3MHA-11 | 2026-08-30 12:48:02 | 48.97497 | 10.08387 | 337° | 13km/h | 26386m | -19.0m/s | -50.0°C | 4.2% | 21.8hPa | 2.6V | 00:00:00 | 02:03:38 | 00:00:00 | |
| SO1NDE-10 | 2026-08-30 12:47:59 | 48.97491 | 10.08394 | 310° | 26km/h | 26442m | -19.0m/s | -49.8°C | 4.1% | 21.6hPa | 2.6V | 00:00:00 | 02:03:35 | 00:00:00 | |
| DL1XH1-15 | 2026-08-30 12:47:58 | 48.97490 | 10.08402 | 283° | 13km/h | 26480m | -19.1m/s | -49.8°C | 4.1% | 21.5hPa | 2.6V | 08:26:29 | 02:03:33 | 00:00:00 | |
| HSKMA3-T | 2026-08-30 12:47:55 | 48.97489 | 10.08413 | 269° | 16km/h | 26519m | -19.7m/s | -50°C | 0.9% | 21.3hPa | 2.7V | 08:26:47 | 02:03:31 | 00:00:00 | |
| DM0DOS-11 | 2026-08-30 12:47:55 | 48.97486 | 10.08433 | 281° | 20km/h | 26580m | -20.2m/s | -49.8°C | 4.1% | 21.2hPa | 2.6V | 08:26:34 | 02:03:28 | 00:00:00 | |
| DK7TD | 2026-08-30 12:47:53 | 48.97488 | 10.08426 | 284° | 18km/h | 26560m | -20.8m/s | -49.9°C | 0.9% | 21.2hPa | 2.6V | 08:26:47 | 02:03:29 | 00:00:00 | |
| DL1XH-west | 2026-08-30 12:47:52 | 48.97487 | 10.08433 | 282° | 20km/h | 26580m | -20.2m/s | -49.8°C | 0.8% | 21.2hPa | 2.6V | 08:26:47 | 02:03:28 | 00:00:00 | |
| HSKMA3-T | 2026-08-30 12:47:45 | 48.97466 | 10.08502 | 304° | 35km/h | 26720m | -20.9m/s | -49.5°C | 0.8% | 20.7hPa | 2.7V | 08:26:47 | 02:03:21 | 00:00:00 | |
| DK7TD | 2026-08-30 12:47:43 | 48.97456 | 10.08525 | 301° | 37km/h | 26761m | -20.4m/s | -49.5°C | 0.8% | 20.6hPa | 2.6V | 08:26:47 | 02:03:19 | 00:00:00 | |
| DL1XH-west | 2026-08-30 12:47:42 | 48.97451 | 10.08536 | 305° | 35km/h | 26781m | -20.4m/s | -49.6°C | 0.8% | 20.5hPa | 2.7V | 08:26:47 | 02:03:18 | 00:00:00 | |
| HSKMA3-T | 2026-08-30 12:47:34 | 48.97404 | 10.08603 | 328° | 31km/h | 26943m | -20.1m/s | -49.7°C | 0.9% | 20hPa | 2.6V | 08:27:38 | 02:03:10 | 00:00:00 | |
| DK7TD | 2026-08-30 12:47:32 | 48.97392 | 10.08613 | 335° | 26km/h | 26983m | -20m/s | -49.7°C | 0.9% | 19.9hPa | 2.6V | 08:27:38 | 02:03:08 | 00:00:00 | |
| DL1XH1-15 | 2026-08-30 12:47:32 | 48.97363 | 10.08638 | 330° | 26km/h | 27086m | -21.3m/s | -49.4°C | 4.1% | 19.6hPa | 2.6V | 08:26:59 | 02:03:03 | 00:00:00 | |
| DL1XH-west | 2026-08-30 12:47:31 | 48.97385 | 10.08618 | 329° | 27km/h | 27003m | -19.8m/s | -49.6°C | 0.9% | 19.8hPa | 2.7V | 08:27:38 | 02:03:07 | 00:00:00 | |
| DG9SBQ-11 | 2026-08-30 12:47:31 | 48.97385 | 10.08618 | 330° | 27km/h | 27004m | -19.8m/s | -49.6°C | 1.2% | 19.8hPa | 2.7V | 08:27:00 | 00:00:00 | 00:00:00 | |
| DO9HM | 2026-08-30 12:47:30 | 48.97385 | 10.08618 | 330° | 27km/h | 27004m | -19.8m/s | -49.6°C | 1.2% | 19.8hPa | 2.7V | 08:27:00 | 00:00:00 | 00:00:00 | |
| DM0DOS-11 | 2026-08-30 12:47:29 | 48.97374 | 10.08627 | 328° | 27km/h | 27044m | -20.5m/s | 0°C | 0% | 0hPa | 2.7V | 08:30:00 | 02:03:05 | 00:00:00 | |
| SO1NDE-10 | 2026-08-30 12:47:29 | 48.97374 | 10.08627 | 329° | 20km/h | 27045m | -20.5m/s | -49.5°C | 4.1% | 19.7hPa | 2.7V | 00:00:00 | 02:03:05 | 00:00:00 | |
| DL8DAS-14 | 2026-08-30 12:47:27 | 48.97358 | 10.08643 | 319° | 26km/h | 27108m | -20.9m/s | -49.3°C | 1.1% | 19.5hPa | 2.7V | 00:00:00 | 00:00:00 | 00:00:00 | |
| DB0UT-7 | 2026-08-30 12:47:26 | 48.97358 | 10.08643 | 320° | 20km/h | 27108m | -20.9m/s | -49.3°C | 4.1% | 19.5hPa | 2.7V | 00:00:00 | 00:00:00 | 00:00:00 | |
| DG9SBQ-11 | 2026-08-30 12:47:25 | 48.97352 | 10.08649 | 327° | 29km/h | 27129m | -21.2m/s | -49.3°C | 1.1% | 19.5hPa | 2.7V | 08:27:00 | 00:00:00 | 00:00:00 | |
| DM0DOS-11 | 2026-08-30 12:47:24 | 48.97314 | 10.08682 | 339° | 27km/h | 27253m | -20.3m/s | 0°C | 0% | 0hPa | 2.7V | 08:30:00 | 02:02:55 | 00:00:00 | |
| HSKMA3-T | 2026-08-30 12:47:23 | 48.97341 | 10.08662 | 326° | 27km/h | 27170m | -21.4m/s | -49.3°C | 0.8% | 19.4hPa | 2.7V | 08:27:38 | 02:02:59 | 00:00:00 | |
| DL1NUX | 2026-08-30 12:47:23 | 48.97308 | 10.08685 | 351° | 26km/h | 27274m | -20.2m/s | -49.4°C | 4.2% | 19hPa | 2.7V | 08:27:08 | 02:02:54 | 00:00:00 | |
| DK7TD | 2026-08-30 12:47:22 | 48.97334 | 10.08668 | 329° | 33km/h | 27192m | -20.4m/s | -49.3°C | 0.8% | 19.3hPa | 2.6V | 08:27:38 | 02:02:58 | 00:00:00 | |
| DL1XH-west | 2026-08-30 12:47:21 | 48.97328 | 10.08674 | 334° | 27km/h | 27212m | -20.9m/s | -49.3°C | 0.8% | 19.2hPa | 2.6V | 08:27:38 | 02:02:57 | 00:00:00 | |
| SONCRA | 2026-08-30 12:47:20 | 48.97321 | 10.08678 | 339° | 29km/h | 27233m | -20.6m/s | -49.3°C | 1.1% | 19.1hPa | 2.6V | 00:00:00 | 00:00:00 | 00:00:00 | |
| DG9SBQ-11 | 2026-08-30 12:47:19 | 48.97321 | 10.08678 | 341° | 29km/h | 27233m | -20.6m/s | -49.3°C | 1.1% | 19.1hPa | 2.6V | 08:27:00 | 00:00:00 | 00:00:00 | |
| OE5DXL-15 | 2026-08-30 12:47:18 | 48.97308 | 10.08684 | 352° | 16km/h | 27274m | -20.1m/s | -49.3°C | 4.2% | 19.0hPa | 2.6V | 00:00:00 | 00:00:00 | 00:00:00 | |
| DL1ZP-14 | 2026-08-30 12:47:17 | 48.97301 | 10.08686 | 345° | 22km/h | 27294m | -21.0m/s | -49.4°C | 1.2% | 19.0hPa | 2.6V | 00:00:00 | 00:00:00 | 00:00:00 | |
| AZAK | 2026-08-30 12:47:16 | 48.97301 | 10.08686 | 347° | 22km/h | 27294m | -21.0m/s | -49.4°C | 1.2% | 19.0hPa | 2.6V | 08:27:00 | 00:00:00 | 00:00:00 | |
| DL1NUX | 2026-08-30 12:47:13 | 48.97270 | 10.08687 | 345° | 11km/h | 27487m | -21.7m/s | -48.7°C | 4% | 18.4hPa | 2.6V | 08:27:18 | 02:02:44 | 00:00:00 | |
| HSKMA3-T | 2026-08-30 12:47:12 | 48.97279 | 10.08687 | 19° | 13km/h | 27400m | -21.8m/s | -49.3°C | 0.9% | 18.7hPa | 2.6V | 08:27:38 | 02:02:48 | 00:00:00 | |
| DL1XH-west | 2026-08-30 12:47:10 | 48.97274 | 10.08686 | 6° | 11km/h | 27443m | -22.2m/s | -49.1°C | 0.9% | 18.6hPa | 2.7V | 08:27:38 | 02:02:46 | 00:00:00 | |
| DO9HM | 2026-08-30 12:47:10 | 48.97274 | 10.08686 | 7° | 11km/h | 27443m | -22.2m/s | -49.1°C | 1.2% | 18.6hPa | 2.6V | 08:27:00 | 00:00:00 | 00:00:00 | |
| DK5PH-5 | 2026-08-30 12:47:08 | 48.97270 | 10.08687 | 346° | 16km/h | 27487m | -21.7m/s | -48.7°C | 4.0% | 18.4hPa | 2.6V | 00:00:00 | 02:02:44 | 00:00:00 | |
| PG1ADW-2 | 2026-08-30 12:47:06 | 48.97265 | 10.08690 | 326° | 16km/h | 27531m | -21.5m/s | -48.4°C | 3.9% | 18.3hPa | 2.6V | 00:00:00 | 00:00:00 | 00:00:00 | |
| DJ2DS-15 | 2026-08-30 12:47:04 | 48.97260 | 10.08697 | 311° | 18km/h | 27574m | -21.5m/s | -48.3°C | 3.9% | 18.1hPa | 2.6V | 00:00:00 | 02:02:40 | 00:00:00 | |
| DL1NUX | 2026-08-30 12:47:03 | 48.97240 | 10.08726 | 321° | 20km/h | 27708m | -22.3m/s | -48.5°C | 4% | 17.8hPa | 2.6V | 08:27:28 | 02:02:34 | 00:00:00 | |
| DK7TD | 2026-08-30 12:47:01 | 48.97252 | 10.08711 | 317° | 18km/h | 27641m | -22.6m/s | -48.5°C | 0.8% | 18hPa | 2.7V | 08:27:38 | 02:02:37 | 00:00:00 | |
| DL1XH-west | 2026-08-30 12:46:59 | 48.97244 | 10.08721 | 329° | 20km/h | 27685m | -22.6m/s | -48.6°C | 0.8% | 17.9hPa | 2.6V | 08:27:38 | 02:02:35 | 00:00:00 | |
| DL1XH1-15 | 2026-08-30 12:46:58 | 48.97235 | 10.08730 | 331° | 20km/h | 27730m | -23.1m/s | -48.4°C | 0% | 17.8hPa | 2.6V | 08:27:29 | 02:02:33 | 00:00:00 | |
| DL8DAS-14 | 2026-08-30 12:46:55 | 48.97226 | 10.08737 | 344° | 18km/h | 27776m | -22.5m/s | -48.2°C | 1.1% | 17.6hPa | 2.7V | 00:00:00 | 00:00:00 | 00:00:00 | |
| DO9LL-15 | 2026-08-30 12:46:54 | 48.97222 | 10.08739 | 335° | 16km/h | 27798m | -22.4m/s | 0°C | 0% | 0hPa | 2.7V | 00:00:00 | 02:02:30 | 00:00:00 | |
| DL1NUX | 2026-08-30 12:46:53 | 48.97197 | 10.08748 | 355° | 15km/h | 27934m | -22.9m/s | -47.9°C | 3.9% | 17.2hPa | 2.7V | 08:27:38 | 02:02:24 | 00:00:00 | |
| DL1XH1-15 | 2026-08-30 12:46:52 | 48.97191 | 10.08750 | 345° | 16km/h | 27980m | -22.5m/s | -47.9°C | 0% | 17.1hPa | 2.6V | 08:27:40 | 02:02:22 | 00:00:00 | |
| HSKMA3-T | 2026-08-30 12:46:51 | 48.97209 | 10.08744 | 345° | 16km/h | 27866m | -22.6m/s | -48°C | 0.7% | 17.4hPa | 2.6V | 08:27:38 | 02:02:27 | 00:00:00 | |
| DK7TD | 2026-08-30 12:46:50 | 48.97205 | 10.08745 | 352° | 16km/h | 27889m | -22.7m/s | -48°C | 0.7% | 17.3hPa | 2.7V | 08:27:38 | 02:02:26 | 00:00:00 | |
| DL1XH-west | 2026-08-30 12:46:49 | 48.97201 | 10.08747 | 342° | 16km/h | 27912m | -22.2m/s | -47.9°C | 0.7% | 17.3hPa | 2.7V | 08:27:38 | 02:02:25 | 00:00:00 | |
| DL1ZP-14 | 2026-08-30 12:46:47 | 48.97191 | 10.08750 | 345° | 16km/h | 27980m | -22.5m/s | -47.9°C | 1.1% | 17.1hPa | 2.6V | 00:00:00 | 00:00:00 | 00:00:00 | |
| PG1ADW-2 | 2026-08-30 12:46:46 | 48.97191 | 10.08750 | 346° | 15km/h | 27980m | -22.5m/s | -47.8°C | 3.9% | 17.0hPa | 2.6V | 00:00:00 | 00:00:00 | 00:00:00 | |
| NBG1-10 | 2026-08-30 12:46:45 | 48.97187 | 10.08751 | 357° | 16km/h | 28003m | -23.8m/s | -47.8°C | 3.9% | 17.0hPa | 2.6V | 00:00:00 | 02:02:21 | 00:00:00 | |
| DJ8HS-15 | 2026-08-30 12:46:44 | 48.97179 | 10.08752 | 360° | 15km/h | 28050m | -23.5m/s | -47.8°C | 3.9% | 16.8hPa | 2.6V | 00:00:00 | 02:02:19 | 00:00:00 | |
| DL1NUX | 2026-08-30 12:46:43 | 48.97158 | 10.08753 | 358° | 16km/h | 28167m | -22.6m/s | -47.6°C | 3.9% | 16.6hPa | 2.6V | 08:27:48 | 02:02:14 | 00:00:00 | |
| DO3MHA-11 | 2026-08-30 12:46:42 | 48.97175 | 10.08753 | 350° | 15km/h | 28073m | -23.0m/s | -47.7°C | 4.0% | 16.8hPa | 2.6V | 00:00:00 | 02:02:18 | 00:00:00 | |
| DL1XH1-15 | 2026-08-30 12:46:41 | 48.97153 | 10.08752 | 12° | 16km/h | 28189m | -22.6m/s | -47.6°C | 0% | 16.6hPa | 2.6V | 08:27:49 | 02:02:13 | 00:00:00 | |
| HSKMA3-T | 2026-08-30 12:46:40 | 48.97166 | 10.08753 | 357° | 15km/h | 28120m | -23.5m/s | -47.7°C | 0.7% | 16.7hPa | 2.7V | 08:28:29 | 02:02:16 | 00:00:00 | |
| DK7TD | 2026-08-30 12:46:39 | 48.97162 | 10.08753 | 3° | 18km/h | 28143m | -23.8m/s | -47.6°C | 0.7% | 16.7hPa | 2.7V | 08:28:29 | 02:02:15 | 00:00:00 | |
| DL1XH-west | 2026-08-30 12:46:38 | 48.97158 | 10.08753 | 359° | 16km/h | 28167m | -22.6m/s | -47.6°C | 0.7% | 16.6hPa | 2.6V | 08:28:29 | 02:02:14 | 00:00:00 | |
| DK5PH-5 | 2026-08-30 12:46:38 | 48.97158 | 10.08753 | 359° | 18km/h | 28167m | -22.5m/s | -47.5°C | 3.9% | 16.6hPa | 2.6V | 00:00:00 | 02:02:14 | 00:00:00 | |
| AZAK | 2026-08-30 12:46:36 | 48.97150 | 10.08752 | 3° | 11km/h | 28212m | -22.8m/s | -47.5°C | 1.1% | 16.5hPa | 2.6V | 08:28:00 | 00:00:00 | 00:00:00 | |
| DL1NUX | 2026-08-30 12:46:33 | 48.97128 | 10.08764 | 317° | 15km/h | 28396m | -23.6m/s | -46.5°C | 3.5% | 16hPa | 2.6V | 08:27:58 | 02:02:04 | 00:00:00 | |
| DF3TZ-5 | 2026-08-30 12:46:32 | 48.97135 | 10.08754 | 334° | 13km/h | 28328m | -23.2m/s | -46.7°C | 1.0% | 16.2hPa | 2.7V | 00:00:00 | 00:00:00 | 00:00:00 | |
| DL1XH1-15 | 2026-08-30 12:46:31 | 48.97124 | 10.08769 | 318° | 18km/h | 28420m | -23.7m/s | -46.6°C | 0% | 0hPa | 2.7V | 08:27:59 | 02:02:03 | 00:00:00 | |
| HSKMA3-T | 2026-08-30 12:46:30 | 48.97133 | 10.08757 | 316° | 11km/h | 28350m | -23.3m/s | -46.5°C | 0.5% | 16.1hPa | 2.6V | 08:28:29 | 02:02:06 | 00:00:00 | |
| DK7TD | 2026-08-30 12:46:29 | 48.97130 | 10.08760 | 317° | 16km/h | 28374m | -22.6m/s | -46.5°C | 0.5% | 16.1hPa | 2.6V | 08:28:29 | 02:02:05 | 00:00:00 | |
| DL1XH-west | 2026-08-30 12:46:28 | 48.97127 | 10.08764 | 317° | 15km/h | 28397m | -23.6m/s | -46.5°C | 0.5% | 16hPa | 2.6V | 08:28:29 | 02:02:04 | 00:00:00 | |
| DB0UT-7 | 2026-08-30 12:46:26 | 48.97121 | 10.08773 | 314° | 16km/h | 28444m | -23.8m/s | -46.6°C | 3.6% | 15.9hPa | 2.6V | 00:00:00 | 00:00:00 | 00:00:00 | |
| DJ2DS-15 | 2026-08-30 12:46:24 | 48.97113 | 10.08783 | 336° | 18km/h | 28490m | -23.4m/s | -46.7°C | 3.6% | 15.7hPa | 2.6V | 08:28:00 | 02:02:00 | 00:00:00 | |
| DL1NUX | 2026-08-30 12:46:23 | 48.97082 | 10.08796 | 359° | 18km/h | 28637m | -25.1m/s | -46.6°C | 3.6% | 15.4hPa | 2.6V | 08:28:08 | 02:01:54 | 00:00:00 | |
| DJ8HS-15 | 2026-08-30 12:46:23 | 48.97109 | 10.08786 | 329° | 18km/h | 28514m | -24.6m/s | -46.7°C | 3.6% | 15.7hPa | 2.6V | 08:28:00 | 02:01:59 | 00:00:00 | |
| DO3MHA-11 | 2026-08-30 12:46:22 | 48.97104 | 10.08790 | 336° | 22km/h | 28538m | -24.6m/s | -46.6°C | 3.6% | 15.6hPa | 2.6V | 00:00:00 | 02:01:58 | 00:00:00 | |
| DL1XH1-15 | 2026-08-30 12:46:21 | 48.97077 | 10.08796 | 1° | 24km/h | 28662m | -24m/s | -46.7°C | 0% | 0hPa | 2.6V | 08:28:09 | 02:01:53 | 00:00:00 | |
| HSKMA3-T | 2026-08-30 12:46:20 | 48.97093 | 10.08794 | 348° | 22km/h | 28588m | -24.8m/s | -46.5°C | 0.5% | 15.6hPa | 2.7V | 08:28:29 | 02:01:56 | 00:00:00 | |
| DK7TD | 2026-08-30 12:46:18 | 48.97082 | 10.08796 | 360° | 18km/h | 28637m | -25.1m/s | -46.6°C | 0.5% | 15.4hPa | 2.6V | 08:28:29 | 02:01:54 | 00:00:00 | |
| DL1XH-west | 2026-08-30 12:46:17 | 48.97077 | 10.08796 | 2° | 24km/h | 28662m | -24m/s | -46.7°C | 0.6% | 15.4hPa | 2.6V | 08:28:29 | 02:01:53 | 00:00:00 | |
| AZAK | 2026-08-30 12:46:15 | 48.97066 | 10.08792 | 17° | 20km/h | 28711m | -24.3m/s | -47.0°C | 1.1% | 15.3hPa | 2.7V | 08:28:00 | 00:00:00 | 00:00:00 | |
| DL1NUX | 2026-08-30 12:46:13 | 48.97039 | 10.08766 | 31° | 15km/h | 28884m | -24.4m/s | -46.9°C | 3.9% | 14.8hPa | 2.7V | 08:28:18 | 02:01:44 | 00:00:00 | |
| NBG1-10 | 2026-08-30 12:46:13 | 48.97053 | 10.08781 | 42° | 13km/h | 28785m | -25.2m/s | -47.2°C | 4.0% | 15.1hPa | 2.6V | 00:00:00 | 02:01:48 | 00:00:00 | |
| DO3MHA-11 | 2026-08-30 12:46:12 | 48.97053 | 10.08781 | 42° | 15km/h | 28785m | -25.2m/s | -47.2°C | 4.0% | 15.1hPa | 2.6V | 00:00:00 | 02:01:48 | 00:00:00 | |
| DL1XH1-15 | 2026-08-30 12:46:11 | 48.97037 | 10.08763 | 38° | 13km/h | 28908m | -25.4m/s | -46.9°C | 0% | 0hPa | 2.6V | 08:28:19 | 02:01:43 | 00:00:00 | |
| HSKMA3-T | 2026-08-30 12:46:09 | 48.97042 | 10.08769 | 37° | 15km/h | 28859m | -24.7m/s | -47.1°C | 0.7% | 14.9hPa | 2.7V | 08:28:29 | 02:01:45 | 00:00:00 | |
| DL1XH-west | 2026-08-30 12:46:07 | 48.97037 | 10.08763 | 39° | 13km/h | 28908m | -25.4m/s | -46.9°C | 0.8% | 14.8hPa | 2.6V | 08:28:29 | 02:01:43 | 00:00:00 | |
| PG1ADW-2 | 2026-08-30 12:46:06 | 48.97034 | 10.08760 | 48° | 11km/h | 28934m | -24.9m/s | -46.7°C | 3.9% | 14.7hPa | 2.6V | 00:00:00 | 00:00:00 | 00:00:00 | |
| DJ2DS-15 | 2026-08-30 12:46:04 | 48.97031 | 10.08754 | 70° | 11km/h | 28985m | -26.5m/s | -46.2°C | 3.7% | 14.6hPa | 2.6V | 00:00:00 | 02:01:40 | 00:00:00 | |
| DL1NUX | 2026-08-30 12:46:03 | 48.97028 | 10.08727 | 84° | 15km/h | 29143m | -26.9m/s | -45.1°C | 3.4% | 14.3hPa | 2.6V | 08:28:28 | 02:01:34 | 00:00:00 | |
| DJ8HS-15 | 2026-08-30 12:46:03 | 48.97031 | 10.08751 | 100° | 11km/h | 29011m | -26.2m/s | -46.0°C | 3.7% | 14.6hPa | 2.7V | 00:00:00 | 02:01:39 | 00:00:00 | |
| DO3MHA-11 | 2026-08-30 12:46:02 | 48.97031 | 10.08747 | 69° | 13km/h | 29037m | -26.0m/s | -45.8°C | 3.6% | 14.5hPa | 2.7V | 00:00:00 | 02:01:38 | 00:00:00 | |
| DG9SBQ-11 | 2026-08-30 12:46:00 | 48.97030 | 10.08743 | 83° | 15km/h | 29064m | -27.6m/s | -45.6°C | 1.0% | 14.5hPa | 2.7V | 08:28:00 | 00:00:00 | 00:00:00 | |
| DL1XH1-15 | 2026-08-30 12:45:59 | 48.97028 | 10.08722 | 63° | 11km/h | 29170m | -26.7m/s | 0°C | 0% | 0hPa | 2.7V | 08:28:29 | 02:01:33 | 00:00:00 | |
| HSKMA3-T | 2026-08-30 12:45:59 | 48.97029 | 10.08733 | 77° | 15km/h | 29117m | -26.6m/s | -45.2°C | 0.4% | 14.4hPa | 2.6V | 08:28:29 | 02:01:35 | 00:00:00 | |
| DK7TD | 2026-08-30 12:45:57 | 48.97028 | 10.08722 | 63° | 11km/h | 29170m | -26.7m/s | -45°C | 0.4% | 14.2hPa | 2.7V | 08:28:29 | 02:01:33 | 00:00:00 | |
| DL1XH-west | 2026-08-30 12:45:56 | 48.97026 | 10.08718 | 63° | 15km/h | 29197m | -27.3m/s | -44.9°C | 0.4% | 14.2hPa | 2.7V | 08:29:20 | 02:01:32 | 00:00:00 | |
| DB0UT-7 | 2026-08-30 12:45:56 | 48.97026 | 10.08718 | 64° | 11km/h | 29197m | -27.3m/s | -44.9°C | 3.4% | 14.1hPa | 2.6V | 00:00:00 | 02:01:32 | 00:00:00 | |
| DG9SBQ-11 | 2026-08-30 12:45:55 | 48.97026 | 10.08718 | 64° | 15km/h | 29197m | -27.3m/s | -44.9°C | 0.9% | 14.2hPa | 2.6V | 08:29:00 | 00:00:00 | 00:00:00 | |
| AZAK | 2026-08-30 12:45:54 | 48.97023 | 10.08710 | 51° | 11km/h | 29251m | -26.2m/s | -45.0°C | 1.0% | 14.1hPa | 2.6V | 08:29:00 | 00:00:00 | 00:00:00 | |
| DL1NUX | 2026-08-30 12:45:53 | 48.97013 | 10.08692 | 62° | 9km/h | 29411m | -27.2m/s | -44.9°C | 3.4% | 13.8hPa | 2.6V | 08:28:38 | 02:01:24 | 00:00:00 | |
| DL1XH1-15 | 2026-08-30 12:45:52 | 48.97012 | 10.08689 | 30° | 11km/h | 29438m | -25.7m/s | 0°C | 0% | 0hPa | 2.6V | 00:00:00 | 02:01:23 | 00:00:00 | |
| HSKMA3-T | 2026-08-30 12:45:48 | 48.97013 | 10.08692 | 63° | 9km/h | 29411m | -27.2m/s | -44.9°C | 0.4% | 13.8hPa | 2.6V | 08:29:20 | 02:01:24 | 00:00:00 | |
| DK7TD | 2026-08-30 12:45:47 | 48.97012 | 10.08689 | 31° | 11km/h | 29438m | -25.7m/s | -44.9°C | 0.4% | 13.7hPa | 2.6V | 08:29:20 | 02:01:23 | 00:00:00 | |
| DL1XH-west | 2026-08-30 12:45:45 | 48.97007 | 10.08682 | 55° | 11km/h | 29490m | -26.2m/s | -45°C | 0.5% | 13.6hPa | 2.7V | 08:29:20 | 02:01:21 | 00:00:00 | |
| DJ2DS-15 | 2026-08-30 12:45:44 | 48.97005 | 10.08678 | 56° | 9km/h | 29516m | -26.2m/s | -44.9°C | 3.5% | 13.5hPa | 2.7V | 00:00:00 | 02:01:20 | 00:00:00 | |
| DL1NUX | 2026-08-30 12:45:43 | 48.96997 | 10.08655 | 48° | 7km/h | 29677m | -26.9m/s | -44.5°C | 3.4% | 13.2hPa | 2.7V | 08:28:48 | 02:01:14 | 00:00:00 | |
| HSKMA3-T | 2026-08-30 12:45:38 | 48.96997 | 10.08655 | 49° | 7km/h | 29677m | -26.9m/s | -44.5°C | 0.4% | 13.2hPa | 2.7V | 08:29:20 | 02:01:14 | 00:00:00 | |
| DK7TD | 2026-08-30 12:45:36 | 48.96995 | 10.08649 | 88° | 5km/h | 29731m | -27.2m/s | -44.4°C | 0.4% | 13.1hPa | 2.6V | 08:29:20 | 02:01:12 | 00:00:00 | |
| DL1XH-west | 2026-08-30 12:45:34 | 48.96993 | 10.08646 | 73° | 7km/h | 29784m | -27.6m/s | -44.3°C | 0.4% | 13hPa | 2.7V | 08:29:20 | 02:01:10 | 00:00:00 | |
| DL1NUX | 2026-08-30 12:45:33 | 48.97001 | 10.08649 | 195° | 11km/h | 29952m | -29.9m/s | -43.2°C | 3.1% | 12.7hPa | 2.6V | 08:28:58 | 02:01:04 | 00:00:00 | |
| HSKMA3-T | 2026-08-30 12:45:28 | 48.97001 | 10.08649 | 196° | 11km/h | 29952m | -29.9m/s | -43.2°C | 0.2% | 12.7hPa | 2.6V | 08:29:20 | 02:01:04 | 00:00:00 | |
| DK7TD | 2026-08-30 12:45:26 | 48.97007 | 10.08653 | 209° | 9km/h | 30010m | -28.7m/s | -43.1°C | 0.2% | 12.6hPa | 2.7V | 08:29:20 | 02:01:02 | 00:00:00 | |
| DL1XH-west | 2026-08-30 12:45:23 | 48.97011 | 10.08656 | 164° | 2km/h | 30097m | -28.6m/s | -42.9°C | 0.1% | 12.4hPa | 2.6V | 08:29:20 | 02:00:59 | 00:00:00 | |
| HSKMA3-T | 2026-08-30 12:45:18 | 48.97009 | 10.08654 | 23° | 4km/h | 30272m | -29.7m/s | -43.4°C | 0.2% | 12.1hPa | 2.7V | 08:29:20 | 02:00:53 | 00:00:00 | |
| DK7TD | 2026-08-30 12:45:18 | 48.97008 | 10.08654 | 305° | 4km/h | 30301m | -29.4m/s | -43.4°C | 0.2% | 12hPa | 2.7V | 08:29:20 | 02:00:52 | 00:00:00 | |
| DL1XH-west | 2026-08-30 12:45:13 | 48.97005 | 10.08660 | 302° | 9km/h | 30390m | -29.1m/s | -43.4°C | 0.2% | 11.9hPa | 2.6V | 08:29:20 | 02:00:49 | 00:00:00 | |
| HSKMA3-T | 2026-08-30 12:45:07 | 48.96987 | 10.08666 | 5° | 22km/h | 30567m | -29.3m/s | -43.2°C | 0.3% | 11.6hPa | 2.6V | 08:29:20 | 02:00:43 | 00:00:00 | |
| DK7TD | 2026-08-30 12:45:05 | 48.96976 | 10.08661 | 19° | 24km/h | 30626m | -30.2m/s | -43°C | 0.3% | 11.4hPa | 2.7V | 18:12:15 | 02:00:41 | 00:00:00 | |
| DK5PH-5 | 2026-08-30 12:45:04 | 48.96969 | 10.08658 | 17° | 22km/h | 30656m | -29.7m/s | -43.0°C | 3.2% | 11.3hPa | 2.7V | 00:00:00 | 02:00:40 | 00:00:00 | |
| DL1NUX | 2026-08-30 12:45:03 | 48.96936 | 10.08631 | 41° | 22km/h | 30837m | -30.1m/s | -42.2°C | 2.9% | 11.1hPa | 2.7V | 08:30:00 | 02:00:34 | 00:00:00 | |
| DL1XH-west | 2026-08-30 12:45:02 | 48.96957 | 10.08650 | 22° | 26km/h | 30716m | -30.2m/s | -42.9°C | 0.2% | 11.3hPa | 2.6V | 18:12:15 | 02:00:38 | 00:00:00 | |
| HSKMA3-T | 2026-08-30 12:44:56 | 48.96930 | 10.08620 | 50° | 18km/h | 30898m | -29.8m/s | -42.1°C | 0% | 11hPa | 2.6V | 18:12:15 | 02:00:32 | 00:00:00 | |
| DK7TD | 2026-08-30 12:44:55 | 48.96927 | 10.08614 | 55° | 20km/h | 30927m | -30.5m/s | -42.1°C | 0% | 10.9hPa | 2.7V | 18:12:15 | 02:00:31 | 00:00:00 | |
| DG9SBQ-11 | 2026-08-30 12:44:54 | 48.96925 | 10.08607 | 68° | 20km/h | 30958m | -31.4m/s | -42.0°C | 0.8% | 10.9hPa | 2.6V | 00:00:00 | 00:00:00 | 00:00:00 | |
| DL1NUX | 2026-08-30 12:44:53 | 48.96911 | 10.08569 | 55° | 24km/h | 31143m | -32.1m/s | -42°C | 2.9% | 10.6hPa | 2.6V | 08:30:00 | 02:00:24 | 00:00:00 | |
| BIOWL1-15 | 2026-08-30 12:44:53 | 48.96923 | 10.08601 | 67° | 16km/h | 30989m | -30.9m/s | 0°C | 0% | 0hPa | 2.6V | 18:12:15 | 02:00:29 | 00:00:00 | |
| DL1XH-west | 2026-08-30 12:44:52 | 48.96921 | 10.08595 | 63° | 18km/h | 31019m | -30.8m/s | -41.9°C | 0% | 0hPa | 2.6V | 18:12:15 | 02:00:28 | 00:00:00 | |
| AZAK | 2026-08-30 12:44:52 | 48.96921 | 10.08595 | 64° | 18km/h | 31020m | -30.8m/s | -41.9°C | 0.8% | 10.8hPa | 2.6V | 00:00:00 | 00:00:00 | 00:00:00 | |
| DL1XH-15 | 2026-08-30 12:44:49 | 48.96914 | 10.08576 | 53° | 20km/h | 31112m | -31m/s | 0°C | 0% | 0hPa | 2.6V | 00:00:00 | 02:00:25 | 00:00:00 | |
| DK7TD | 2026-08-30 12:44:45 | 48.96900 | 10.08550 | 50° | 22km/h | 31236m | -31.5m/s | -42.3°C | 0.1% | 10.4hPa | 2.7V | 18:12:15 | 02:00:21 | 00:00:00 | |
| DL1XH-west | 2026-08-30 12:44:41 | 48.96883 | 10.08524 | 57° | 20km/h | 31360m | -31.6m/s | -42.3°C | 0.1% | 0hPa | 2.6V | 18:12:15 | 02:00:17 | 00:00:00 | |
| HSKMA3-T | 2026-08-30 12:44:35 | 48.96867 | 10.08471 | 69° | 27km/h | 31550m | -31m/s | -42.3°C | 0.1% | 9.9hPa | 2.6V | 18:12:15 | 02:00:11 | 00:00:00 | |
| DK7TD | 2026-08-30 12:44:34 | 48.96865 | 10.08462 | 76° | 26km/h | 31581m | -31.5m/s | -42.2°C | 0.1% | 9.9hPa | 2.7V | 18:12:15 | 02:00:10 | 00:00:00 | |
| DL1XH-west | 2026-08-30 12:44:30 | 48.96856 | 10.08427 | 65° | 22km/h | 31705m | -30m/s | -42°C | 0% | 0hPa | 2.6V | 18:12:15 | 02:00:06 | 00:00:00 | |
| HSKMA3-T | 2026-08-30 12:44:25 | 48.96840 | 10.08395 | 52° | 26km/h | 31853m | -30.1m/s | -42.3°C | 0.1% | 9.5hPa | 2.6V | 18:12:15 | 02:00:01 | 00:00:00 | |
| DK7TD | 2026-08-30 12:44:23 | 48.96832 | 10.08379 | 52° | 26km/h | 31914m | -30.4m/s | -42.3°C | 0.1% | 9.4hPa | 2.7V | 18:12:15 | 01:59:59 | 00:00:00 | |
| DL1NUX | 2026-08-30 12:44:23 | 48.96823 | 10.08337 | 88° | 26km/h | 32061m | -29.9m/s | -42.4°C | 3.1% | 9.2hPa | 2.6V | 08:30:00 | 01:59:54 | 00:00:00 | |
| BIOWL1-15 | 2026-08-30 12:44:22 | 48.96829 | 10.08371 | 62° | 24km/h | 31944m | -28.6m/s | 0°C | 0% | 0hPa | 2.6V | 18:12:15 | 01:59:58 | 00:00:00 | |
| DL1XH-west | 2026-08-30 12:44:20 | 48.96824 | 10.08356 | 72° | 24km/h | 32002m | -29.3m/s | 0°C | 0% | 0hPa | 2.7V | 18:12:15 | 01:59:56 | 00:00:00 | |
| HSKMA3-T | 2026-08-30 12:44:14 | 48.96825 | 10.08309 | 92° | 9km/h | 32184m | -34m/s | -42.4°C | 0.2% | 9.1hPa | 2.7V | 18:12:15 | 01:59:50 | 00:00:00 | |
| DK7TD | 2026-08-30 12:44:12 | 48.96825 | 10.08306 | 324° | 2km/h | 32252m | -33.9m/s | -42.2°C | 0.1% | 9hPa | 2.6V | 18:12:15 | 01:59:48 | 00:00:00 | |
| DL1NUX | 2026-08-30 12:44:12 | 48.96819 | 10.08302 | 57° | 16km/h | 32383m | -30m/s | -42.1°C | 3% | 8.8hPa | 2.7V | 08:30:00 | 01:59:44 | 00:00:00 | |
| DL1XH-west | 2026-08-30 12:44:09 | 48.96821 | 10.08305 | 37° | 11km/h | 32352m | -33.1m/s | 0°C | 0% | 0hPa | 2.7V | 18:12:15 | 01:59:45 | 00:00:00 | |
| HSKMA3-T | 2026-08-30 12:44:04 | 48.96816 | 10.08245 | 99° | 55km/h | 32501m | -30.5m/s | -41.7°C | 0% | 8.6hPa | 2.6V | 18:12:15 | 01:59:40 | 00:00:00 | |
| DK5PH-5 | 2026-08-30 12:44:04 | 48.96816 | 10.08245 | 100° | 31km/h | 32501m | -30.5m/s | -41.6°C | 2.9% | 8.6hPa | 2.7V | 00:00:00 | 01:59:40 | 00:00:00 | |
| DO9HM | 2026-08-30 12:44:03 | 48.96818 | 10.08225 | 102° | 51km/h | 32536m | -37.9m/s | -41.3°C | 0.8% | 8.6hPa | 2.7V | 00:00:00 | 00:00:00 | 00:00:00 | |
| DL1NUX | 2026-08-30 12:44:02 | 48.96820 | 10.08169 | 75° | 18km/h | 32699m | -19.2m/s | -40.8°C | 2.8% | 8.3hPa | 2.7V | 08:30:00 | 01:59:34 | 00:00:00 | |
| DK7TD | 2026-08-30 12:44:01 | 48.96821 | 10.08195 | 94° | 27km/h | 32611m | -38.3m/s | -41°C | 0% | 8.5hPa | 2.6V | 18:12:15 | 01:59:37 | 00:00:00 | |
| BIOWL1-15 | 2026-08-30 12:43:59 | 48.96821 | 10.08177 | 81° | 22km/h | 32677m | -26.2m/s | 0°C | 0% | 0hPa | 2.7V | 18:12:15 | 01:59:35 | 00:00:00 | |
| DL1XH-west | 2026-08-30 12:43:58 | 48.96820 | 10.08169 | 75° | 18km/h | 32699m | -19.2m/s | 0°C | 0% | 0hPa | 2.7V | 18:12:15 | 01:59:34 | 00:00:00 | |
| HSKMA3-T | 2026-08-30 12:43:53 | 48.96813 | 10.08138 | 51° | 24km/h | 32701m | 5m/s | -41.1°C | 0% | 8.3hPa | 2.6V | 18:12:15 | 01:59:29 | 00:00:00 | |
| DL1NUX | 2026-08-30 12:43:52 | 48.96783 | 10.08079 | 56° | 42km/h | 32672m | 4.3m/s | -41.1°C | 2.9% | 8.4hPa | 2.7V | 08:30:00 | 01:59:24 | 00:00:00 | |
| DK7TD | 2026-08-30 12:43:51 | 48.96803 | 10.08119 | 50° | 38km/h | 32689m | 7.8m/s | -41.2°C | 0% | 8.3hPa | 2.6V | 18:12:15 | 01:59:27 | 00:00:00 | |
| DL1XH-west | 2026-08-30 12:43:45 | 48.96773 | 10.08049 | 87° | 15km/h | 32653m | 6.8m/s | -40.9°C | 0% | 8.4hPa | 2.6V | 18:12:15 | 01:59:21 | 00:00:00 | |
| HSKMA3-T | 2026-08-30 12:43:43 | 48.96776 | 10.08040 | 123° | 15km/h | 32641m | 5.1m/s | -40.9°C | 0% | 8.4hPa | 2.7V | 18:12:15 | 01:59:19 | 00:00:00 | |
| DK7TD | 2026-08-30 12:43:40 | 48.96778 | 10.08017 | 80° | 29km/h | 32623m | 6.3m/s | -41°C | 0% | 8.5hPa | 2.6V | 18:12:15 | 01:59:16 | 00:00:00 | |
| DL1XH-west | 2026-08-30 12:43:35 | 48.96760 | 10.07962 | 49° | 26km/h | 32591m | 6m/s | -41°C | 0% | 8.5hPa | 2.6V | 18:12:15 | 01:59:11 | 00:00:00 | |
| HSKMA3-T | 2026-08-30 12:43:33 | 48.96752 | 10.07951 | 35° | 18km/h | 32580m | 5.7m/s | -41.2°C | 0% | 8.4hPa | 2.6V | 18:12:15 | 01:59:09 | 00:00:00 | |
| BIOWL1-15 | 2026-08-30 12:43:30 | 48.96743 | 10.07937 | 57° | 18km/h | 32561m | 6.2m/s | 0°C | 0% | 0hPa | 2.6V | 18:12:15 | 01:59:06 | 00:00:00 | |
| DL1XH-west | 2026-08-30 12:43:25 | 48.96744 | 10.07910 | 130° | 15km/h | 32530m | 5.8m/s | -41.7°C | 0.1% | 8.5hPa | 2.6V | 18:12:15 | 01:59:01 | 00:00:00 | |
| DL6DJ-15 | 2026-08-30 12:43:24 | 48.96747 | 10.07901 | 90° | 13km/h | 32519m | 6.6m/s | -42.0°C | 0.8% | 8.6hPa | 2.7V | 00:00:00 | 00:00:00 | 00:00:00 | |
| DL1NUX | 2026-08-30 12:43:23 | 48.96729 | 10.07875 | 15° | 18km/h | 32486m | 7.1m/s | -42.1°C | 3% | 8.6hPa | 2.7V | 08:30:00 | 01:58:54 | 00:00:00 | |
| HSKMA3-T | 2026-08-30 12:43:22 | 48.96746 | 10.07895 | 67° | 18km/h | 32511m | 7.1m/s | -42.1°C | 0.1% | 8.6hPa | 2.6V | 18:12:15 | 01:58:58 | 00:00:00 | |
| DK7TD | 2026-08-30 12:43:20 | 48.96739 | 10.07882 | 36° | 24km/h | 32499m | 5.7m/s | -42°C | 0.1% | 8.6hPa | 2.6V | 18:12:15 | 01:58:56 | 00:00:00 | |
| DL1XH-west | 2026-08-30 12:43:15 | 48.96721 | 10.07874 | 355° | 4km/h | 32467m | 6.2m/s | -41.8°C | 0.1% | 8.6hPa | 2.6V | 18:12:15 | 01:58:51 | 00:00:00 | |
| DL1NUX | 2026-08-30 12:43:13 | 48.96730 | 10.07855 | 126° | 11km/h | 32422m | 4.6m/s | -42°C | 3% | 8.7hPa | 2.6V | 08:30:00 | 01:58:44 | 00:00:00 | |
| HSKMA3-T | 2026-08-30 12:43:12 | 48.96721 | 10.07869 | 120° | 11km/h | 32447m | 6.1m/s | -41.8°C | 0.1% | 8.7hPa | 2.7V | 18:12:15 | 01:58:48 | 00:00:00 | |
| DK7TD | 2026-08-30 12:43:09 | 48.96728 | 10.07858 | 142° | 15km/h | 32428m | 5.8m/s | -41.9°C | 0.1% | 8.7hPa | 2.6V | 18:12:15 | 01:58:45 | 00:00:00 | |
| DL1XH-west | 2026-08-30 12:43:04 | 48.96724 | 10.07837 | 33° | 22km/h | 32397m | 5.6m/s | -42.1°C | 0.2% | 8.7hPa | 2.6V | 18:12:15 | 01:58:40 | 00:00:00 | |
| DL1NUX | 2026-08-30 12:43:03 | 48.96714 | 10.07838 | 204° | 15km/h | 32363m | 5.3m/s | -41.9°C | 3% | 8.8hPa | 2.7V | 08:30:00 | 01:58:34 | 00:00:00 | |
| HSKMA3-T | 2026-08-30 12:43:01 | 48.96711 | 10.07831 | 349° | 9km/h | 32381m | 6.9m/s | -41.9°C | 0.1% | 8.8hPa | 2.6V | 18:12:15 | 01:58:37 | 00:00:00 | |
| DK7TD | 2026-08-30 12:42:59 | 48.96711 | 10.07835 | 225° | 11km/h | 32368m | 5.8m/s | -41.9°C | 0.1% | 8.8hPa | 2.7V | 18:12:15 | 01:58:35 | 00:00:00 | |
| DL1XH-west | 2026-08-30 12:42:54 | 48.96723 | 10.07830 | 95° | 16km/h | 32337m | 6.8m/s | -42.1°C | 0.1% | 8.8hPa | 2.7V | 18:12:15 | 01:58:30 | 00:00:00 | |
| DG9SBQ-11 | 2026-08-30 12:42:54 | 48.96723 | 10.07830 | 96° | 16km/h | 32338m | 6.8m/s | -42.1°C | 0.8% | 8.8hPa | 2.7V | 00:00:00 | 00:00:00 | 00:00:00 | |
| DL1NUX | 2026-08-30 12:42:53 | 48.96727 | 10.07789 | 109° | 11km/h | 32299m | 6.6m/s | -41.9°C | 3.1% | 8.9hPa | 2.7V | 08:30:00 | 01:58:24 | 00:00:00 | |
| HSKMA3-T | 2026-08-30 12:42:50 | 48.96724 | 10.07799 | 105° | 18km/h | 32311m | 5.9m/s | -42.1°C | 0.2% | 8.8hPa | 2.6V | 18:12:15 | 01:58:26 | 00:00:00 | |
| DK7TD | 2026-08-30 12:42:48 | 48.96727 | 10.07789 | 109° | 11km/h | 32299m | 6.6m/s | -41.9°C | 0.1% | 8.9hPa | 2.7V | 18:12:15 | 01:58:24 | 00:00:00 | |
| DL8DAS-14 | 2026-08-30 12:42:47 | 48.96727 | 10.07786 | 102° | 7km/h | 32293m | 7.6m/s | -41.9°C | 0.8% | 8.9hPa | 2.6V | 00:00:00 | 00:00:00 | 00:00:00 | |
| DL1XH-west | 2026-08-30 12:42:43 | 48.96729 | 10.07781 | 175° | 5km/h | 32267m | 6.9m/s | -41.9°C | 0.1% | 8.9hPa | 2.6V | 18:12:15 | 01:58:19 | 00:00:00 | |
| HSKMA3-T | 2026-08-30 12:42:40 | 48.96735 | 10.07777 | 119° | 11km/h | 32250m | 4.6m/s | -41.9°C | 0.1% | 8.9hPa | 2.6V | 18:12:15 | 01:58:16 | 00:00:00 | |
| DK7TD | 2026-08-30 12:42:37 | 48.96732 | 10.07754 | 65° | 33km/h | 32229m | 8m/s | -41.9°C | 0.1% | 8.9hPa | 2.7V | 18:12:15 | 01:58:13 | 00:00:00 | |
| DL1XH-west | 2026-08-30 12:42:33 | 48.96718 | 10.07704 | 79° | 27km/h | 32204m | 6.7m/s | -42.1°C | 0.1% | 9hPa | 2.7V | 18:12:15 | 01:58:09 | 00:00:00 | |
| HSKMA3-T | 2026-08-30 12:42:29 | 48.96720 | 10.07681 | 111° | 7km/h | 32178m | 6.9m/s | -42.1°C | 0.2% | 9hPa | 2.7V | 18:12:15 | 01:58:05 | 00:00:00 | |
| DK7TD | 2026-08-30 12:42:27 | 48.96720 | 10.07675 | 68° | 9km/h | 32166m | 5.5m/s | -42°C | 0.1% | 9hPa | 2.7V | 18:12:15 | 01:58:03 | 00:00:00 | |
| DG9SBQ-11 | 2026-08-30 12:42:27 | 48.96719 | 10.07672 | 67° | 11km/h | 32160m | 5.2m/s | -42.0°C | 0.9% | 9.0hPa | 2.7V | 00:00:00 | 00:00:00 | 00:00:00 | |
| DL1NUX | 2026-08-30 12:42:25 | 48.96717 | 10.07658 | 78° | 16km/h | 32141m | 6m/s | -42.1°C | 3.1% | 9.1hPa | 2.7V | 08:30:00 | 01:57:59 | 00:00:00 | |
| DL1XH-west | 2026-08-30 12:42:22 | 48.96715 | 10.07651 | 71° | 20km/h | 32135m | 5.4m/s | -42.1°C | 0.1% | 9.1hPa | 2.7V | 18:12:15 | 01:57:58 | 00:00:00 | |
| HSKMA3-T | 2026-08-30 12:42:19 | 48.96705 | 10.07627 | 48° | 33km/h | 32116m | 6.9m/s | -42.1°C | 0.2% | 9.1hPa | 2.6V | 18:12:15 | 01:57:55 | 00:00:00 | |
| DK7TD | 2026-08-30 12:42:16 | 48.96690 | 10.07599 | 59° | 26km/h | 32098m | 7.1m/s | -41.9°C | 0.1% | 9.2hPa | 2.7V | 18:12:15 | 01:57:52 | 00:00:00 | |
| DL8DAS-14 | 2026-08-30 12:42:16 | 48.96690 | 10.07599 | 59° | 26km/h | 32098m | 7.1m/s | -41.9°C | 0.8% | 9.2hPa | 2.6V | 00:00:00 | 00:00:00 | 00:00:00 | |
| DL1NUX | 2026-08-30 12:42:15 | 48.96682 | 10.07559 | 56° | 22km/h | 32059m | 6m/s | -42°C | 3% | 9.2hPa | 2.6V | 08:30:00 | 01:57:46 | 00:00:00 | |
| DL1XH-west | 2026-08-30 12:42:09 | 48.96679 | 10.07552 | 56° | 26km/h | 32053m | 5.6m/s | -42.1°C | 0.1% | 9.2hPa | 2.7V | 18:12:15 | 01:57:45 | 00:00:00 | |
| HSKMA3-T | 2026-08-30 12:42:08 | 48.96675 | 10.07543 | 59° | 27km/h | 32047m | 6.9m/s | -42.2°C | 0.2% | 9.2hPa | 2.7V | 18:12:15 | 01:57:44 | 00:00:00 | |
| DK7TD | 2026-08-30 12:42:06 | 48.96669 | 10.07523 | 68° | 31km/h | 32033m | 6.2m/s | -42.1°C | 0.2% | 9.2hPa | 2.6V | 18:12:15 | 01:57:42 | 00:00:00 | |
| DL1ZP-14 | 2026-08-30 12:42:06 | 48.96669 | 10.07523 | 67° | 31km/h | 32033m | 6.2m/s | -42.1°C | 0.9% | 9.2hPa | 2.6V | 00:00:00 | 00:00:00 | 00:00:00 | |
| DK5PH-5 | 2026-08-30 12:42:04 | 48.96662 | 10.07500 | 60° | 26km/h | 32022m | 6.2m/s | -42.1°C | 3.1% | 9.2hPa | 2.7V | 00:00:00 | 01:57:40 | 00:00:00 | |
| DJ8HS-15 | 2026-08-30 12:42:03 | 48.96657 | 10.07490 | 53° | 27km/h | 32015m | 7.3m/s | -42.0°C | 3.1% | 9.2hPa | 2.7V | 00:00:00 | 01:57:39 | 00:00:00 | |
| DG9SBQ-11 | 2026-08-30 12:42:02 | 48.96652 | 10.07480 | 47° | 33km/h | 32008m | 6.2m/s | -42.1°C | 0.9% | 9.2hPa | 2.7V | 00:00:00 | 00:00:00 | 00:00:00 | |
| DL1NUX | 2026-08-30 12:42:01 | 48.96634 | 10.07431 | 78° | 27km/h | 31970m | 5.7m/s | -41.6°C | 3% | 9.3hPa | 2.7V | 08:30:00 | 01:57:32 | 00:00:00 | |
| DL1XH-west | 2026-08-30 12:41:58 | 48.96636 | 10.07449 | 76° | 22km/h | 31982m | 6.6m/s | -41.7°C | 0.1% | 9.3hPa | 2.7V | 18:12:15 | 01:57:34 | 00:00:00 | |
| DK7TD | 2026-08-30 12:41:56 | 48.96634 | 10.07431 | 78° | 27km/h | 31970m | 5.7m/s | -41.6°C | 0% | 9.3hPa | 2.7V | 18:12:15 | 01:57:32 | 00:00:00 | |
| DB0UT-7 | 2026-08-30 12:41:56 | 48.96634 | 10.07431 | 79° | 24km/h | 31971m | 5.7m/s | -41.6°C | 3.0% | 9.3hPa | 2.6V | 00:00:00 | 01:57:32 | 00:00:00 | |
| DG9SBQ-11 | 2026-08-30 12:41:55 | 48.96634 | 10.07431 | 79° | 27km/h | 31971m | 5.7m/s | -41.6°C | 0.8% | 9.3hPa | 2.6V | 00:00:00 | 00:00:00 | 00:00:00 | |
| DO3MHA-11 | 2026-08-30 12:41:52 | 48.96619 | 10.07386 | 57° | 26km/h | 31946m | 5.6m/s | -41.7°C | 3.1% | 9.3hPa | 2.6V | 00:00:00 | 01:57:28 | 00:00:00 | |
| DL1NUX | 2026-08-30 12:41:51 | 48.96598 | 10.07337 | 43° | 20km/h | 31908m | 7.1m/s | -41.8°C | 3.1% | 9.4hPa | 2.6V | 08:30:00 | 01:57:22 | 00:00:00 | |
| DL1XH-west | 2026-08-30 12:41:47 | 48.96601 | 10.07343 | 52° | 20km/h | 31914m | 6.1m/s | -41.7°C | 0.1% | 9.3hPa | 2.7V | 18:12:15 | 01:57:23 | 00:00:00 | |
| DK7TD | 2026-08-30 12:41:45 | 48.96594 | 10.07332 | 37° | 24km/h | 31901m | 6.4m/s | -41.7°C | 0.2% | 9.4hPa | 2.6V | 18:12:15 | 01:57:21 | 00:00:00 | |
| DG9SBQ-11 | 2026-08-30 12:41:44 | 48.96589 | 10.07326 | 40° | 26km/h | 31896m | 5.1m/s | -41.6°C | 0.9% | 9.4hPa | 2.6V | 00:00:00 | 00:00:00 | 00:00:00 | |
| DJ8HS-15 | 2026-08-30 12:41:43 | 48.96584 | 10.07320 | 45° | 22km/h | 31891m | 4.6m/s | -41.6°C | 3.0% | 9.4hPa | 2.6V | 00:00:00 | 01:57:19 | 00:00:00 | |
| DO3MHA-11 | 2026-08-30 12:41:42 | 48.96580 | 10.07313 | 53° | 20km/h | 31886m | 5.7m/s | -41.6°C | 3.0% | 9.4hPa | 2.6V | 00:00:00 | 01:57:18 | 00:00:00 | |
| DL1NUX | 2026-08-30 12:41:41 | 48.96570 | 10.07278 | 34° | 20km/h | 31847m | 7.1m/s | -41.8°C | 3.1% | 9.5hPa | 2.6V | 08:30:00 | 01:57:12 | 00:00:00 | |
| HSKMA3-T | 2026-08-30 12:41:36 | 48.96570 | 10.07278 | 34° | 20km/h | 31847m | 7.1m/s | -41.8°C | 0.2% | 9.5hPa | 2.6V | 18:12:15 | 01:57:12 | 00:00:00 | |
| DK7TD | 2026-08-30 12:41:35 | 48.96565 | 10.07274 | 22° | 24km/h | 31840m | 6.2m/s | -41.8°C | 0.1% | 9.5hPa | 2.6V | 18:12:15 | 01:57:11 | 00:00:00 | |
| DB0ND-19 | 2026-08-30 12:41:34 | 48.96553 | 10.07269 | 11° | 22km/h | 31829m | 6.4m/s | -42.0°C | 0.9% | 9.5hPa | 2.7V | 00:00:00 | 00:00:00 | 00:00:00 | |
| DG9SBQ-11 | 2026-08-30 12:41:32 | 48.96548 | 10.07267 | 13° | 18km/h | 31823m | 6.7m/s | -42.0°C | 0.9% | 9.5hPa | 2.7V | 00:00:00 | 00:00:00 | 00:00:00 | |
| DL1NUX | 2026-08-30 12:41:31 | 48.96529 | 10.07236 | 63° | 29km/h | 31786m | 5.7m/s | -41.4°C | 3% | 9.6hPa | 2.7V | 08:30:00 | 01:57:02 | 00:00:00 | |
| HSKMA3-T | 2026-08-30 12:41:25 | 48.96526 | 10.07226 | 70° | 31km/h | 31780m | 5.3m/s | -41.5°C | 0.1% | 9.6hPa | 2.6V | 18:12:15 | 01:57:01 | 00:00:00 | |
| DK7TD | 2026-08-30 12:41:24 | 48.96524 | 10.07215 | 78° | 29km/h | 31774m | 6.1m/s | -41.5°C | 0.1% | 9.6hPa | 2.6V | 18:12:15 | 01:57:00 | 00:00:00 | |
| DJ8HS-15 | 2026-08-30 12:41:23 | 48.96523 | 10.07204 | 87° | 27km/h | 31768m | 7.0m/s | -41.4°C | 3.0% | 9.5hPa | 2.7V | 00:00:00 | 01:56:59 | 00:00:00 | |
| DO3MHA-11 | 2026-08-30 12:41:22 | 48.96523 | 10.07195 | 93° | 24km/h | 31762m | 5.8m/s | -41.4°C | 3.0% | 9.6hPa | 2.7V | 00:00:00 | 01:56:58 | 00:00:00 | |
| DL1NUX | 2026-08-30 12:41:21 | 48.96506 | 10.07160 | 36° | 26km/h | 31725m | 5.8m/s | -41.5°C | 3% | 9.6hPa | 2.7V | 08:30:00 | 01:56:52 | 00:00:00 | |
| HSKMA3-T | 2026-08-30 12:41:15 | 48.96501 | 10.07153 | 46° | 27km/h | 31719m | 6.7m/s | -41.4°C | 0% | 9.7hPa | 2.6V | 18:12:15 | 01:56:51 | 00:00:00 | |
| DK7TD | 2026-08-30 12:41:14 | 48.96497 | 10.07145 | 62° | 27km/h | 31713m | 6.1m/s | -41.3°C | 0.1% | 9.7hPa | 2.6V | 18:12:15 | 01:56:50 | 00:00:00 | |
| DO3MHA-11 | 2026-08-30 12:41:12 | 48.96491 | 10.07121 | 77° | 31km/h | 31701m | 6.5m/s | -41.3°C | 2.9% | 9.6hPa | 2.7V | 00:00:00 | 01:56:48 | 08:30:00 | |
| OE5DRO-10 | 2026-08-30 12:41:10 | 48.96486 | 10.07089 | 79° | 31km/h | 31687m | 5.9m/s | -41.4°C | 2.9% | 9.6hPa | 2.7V | 00:00:00 | 00:00:00 | 00:00:00 | |
| DG9SBQ-11 | 2026-08-30 12:41:09 | 48.96486 | 10.07089 | 79° | 46km/h | 31687m | 6.0m/s | -41.4°C | 0.8% | 9.7hPa | 2.7V | 00:00:00 | 00:00:00 | 00:00:00 | |
| DL1NUX | 2026-08-30 12:41:07 | 48.96483 | 10.07032 | 95° | 26km/h | 31663m | 6.4m/s | -41.2°C | 2.9% | 9.7hPa | 2.7V | 08:30:00 | 01:56:42 | 00:00:00 | |
| DL1XH-west | 2026-08-30 12:41:04 | 48.96483 | 10.07018 | 68° | 13km/h | 31653m | 4.7m/s | -41.3°C | 0.1% | 9.8hPa | 2.6V | 18:12:15 | 01:56:40 | 00:00:00 | |
| DK7TD | 2026-08-30 12:41:03 | 48.96481 | 10.07013 | 43° | 16km/h | 31647m | 6m/s | -41.3°C | 0% | 9.8hPa | 2.6V | 18:12:15 | 01:56:39 | 00:00:00 | |
| DJ8HS-15 | 2026-08-30 12:41:03 | 48.96481 | 10.07013 | 44° | 31km/h | 31648m | 6.0m/s | -41.3°C | 2.9% | 9.7hPa | 2.7V | 00:00:00 | 01:56:39 | 00:00:00 | |
| DB0ND-19 | 2026-08-30 12:41:02 | 48.96477 | 10.07009 | 34° | 24km/h | 31641m | 6.9m/s | -41.3°C | 0.8% | 9.8hPa | 2.7V | 00:00:00 | 00:00:00 | 00:00:00 | |
| DL1NUX | 2026-08-30 12:41:01 | 48.96450 | 10.06940 | 94° | 35km/h | 31606m | 5.8m/s | -41.2°C | 2.9% | 9.8hPa | 2.7V | 08:30:00 | 01:56:32 | 00:00:00 | |
| HSKMA3-T | 2026-08-30 12:40:54 | 48.96453 | 10.06917 | 108° | 26km/h | 31595m | 5.9m/s | -41.5°C | 0.1% | 9.8hPa | 2.6V | 18:12:15 | 01:56:30 | 00:00:00 | |
| DL1XH-west | 2026-08-30 12:40:53 | 48.96455 | 10.06909 | 101° | 20km/h | 31589m | 6m/s | -41.5°C | 0.1% | 9.9hPa | 2.6V | 18:12:15 | 01:56:29 | 00:00:00 | |
| DK7TD | 2026-08-30 12:40:52 | 48.96455 | 10.06902 | 78° | 18km/h | 31583m | 5.8m/s | -41.5°C | 0.2% | 9.9hPa | 2.6V | 18:12:15 | 01:56:28 | 00:00:00 | |
| DL6DJ-15 | 2026-08-30 12:40:49 | 48.96441 | 10.06869 | 58° | 33km/h | 31560m | 6.5m/s | -41.5°C | 0.9% | 9.9hPa | 2.6V | 00:00:00 | 00:00:00 | 00:00:00 | |
| OE5DXL-15 | 2026-08-30 12:40:48 | 48.96441 | 10.06869 | 59° | 26km/h | 31560m | 6.5m/s | -41.5°C | 3.0% | 9.8hPa | 2.6V | 00:00:00 | 00:00:00 | 00:00:00 | |
| DL1NUX | 2026-08-30 12:40:47 | 48.96433 | 10.06845 | 70° | 37km/h | 31547m | 5.6m/s | -41.7°C | 3% | 9.9hPa | 2.6V | 08:30:00 | 01:56:22 | 00:00:00 | |
| DG9SBQ-11 | 2026-08-30 12:40:46 | 48.96437 | 10.06858 | 66° | 35km/h | 31553m | 6.1m/s | -41.6°C | 0.8% | 9.9hPa | 2.6V | 00:00:00 | 00:00:00 | 00:00:00 | |
| IW2NTF | 2026-08-30 12:40:45 | 48.96424 | 10.06808 | 64° | 29km/h | 31529m | 7.2m/s | -41.7°C | 3% | 9.9hPa | 2.6V | 08:30:00 | 01:56:19 | 00:00:00 | |
| HSKMA3-T | 2026-08-30 12:40:44 | 48.96428 | 10.06820 | 70° | 33km/h | 31536m | 5.9m/s | -41.8°C | 0.2% | 9.9hPa | 2.7V | 18:12:15 | 01:56:20 | 00:00:00 | |
| DJ8HS-15 | 2026-08-30 12:40:43 | 48.96425 | 10.06808 | 65° | 24km/h | 31530m | 7.1m/s | -41.7°C | 3.0% | 9.9hPa | 2.6V | 00:00:00 | 01:56:19 | 00:00:00 | |
| DO3MHA-11 | 2026-08-30 12:40:42 | 48.96421 | 10.06799 | 60° | 26km/h | 31523m | 6.2m/s | -41.6°C | 3.1% | 9.9hPa | 2.6V | 00:00:00 | 01:56:18 | 00:00:00 | |
| DL1NUX | 2026-08-30 12:40:41 | 48.96409 | 10.06750 | 67° | 27km/h | 31488m | 6.1m/s | -42°C | 3.1% | 10hPa | 2.7V | 08:30:00 | 01:56:12 | 00:00:00 | |
| DK7TD | 2026-08-30 12:40:41 | 48.96418 | 10.06791 | 59° | 24km/h | 31517m | 5.5m/s | -41.7°C | 0.1% | 10hPa | 2.7V | 18:12:15 | 01:56:17 | 00:00:00 | |
| DL1XH-west | 2026-08-30 12:40:39 | 48.96414 | 10.06776 | 74° | 22km/h | 31504m | 6.8m/s | -41.8°C | 0.1% | 10hPa | 2.6V | 18:12:15 | 01:56:15 | 00:00:00 | |
| HSKMA3-T | 2026-08-30 12:40:34 | 48.96401 | 10.06731 | 49° | 33km/h | 31475m | 6.7m/s | -41.9°C | 0.2% | 10hPa | 2.7V | 18:12:15 | 01:56:10 | 00:00:00 | |
| DK5PH-5 | 2026-08-30 12:40:34 | 48.96401 | 10.06731 | 49° | 26km/h | 31475m | 6.7m/s | -41.9°C | 3.1% | 10.0hPa | 2.6V | 00:00:00 | 01:56:10 | 00:00:00 | |
| DL1ZP-14 | 2026-08-30 12:40:33 | 48.96395 | 10.06722 | 46° | 33km/h | 31468m | 5.9m/s | -41.9°C | 0.9% | 10.1hPa | 2.6V | 00:00:00 | 00:00:00 | 00:00:00 | |
| DO3MHA-11 | 2026-08-30 12:40:32 | 48.96390 | 10.06712 | 50° | 22km/h | 31463m | 5.5m/s | -41.7°C | 3.1% | 10.0hPa | 2.6V | 00:00:00 | 01:56:08 | 00:00:00 | |
| DL1NUX | 2026-08-30 12:40:31 | 48.96372 | 10.06668 | 42° | 16km/h | 31425m | 6.3m/s | -41.8°C | 3.1% | 10.1hPa | 2.6V | 08:30:00 | 01:56:02 | 00:00:00 | |
| DK7TD | 2026-08-30 12:40:30 | 48.96379 | 10.06686 | 68° | 22km/h | 31444m | 5.4m/s | -41.6°C | 0.2% | 10.1hPa | 2.7V | 18:12:15 | 01:56:05 | 00:00:00 | |
| DJTTGO | 2026-08-30 12:40:30 | 48.96382 | 10.06694 | 65° | 26km/h | 31450m | 6.0m/s | -41.6°C | 0.9% | 10.0hPa | 2.6V | 00:00:00 | 00:00:00 | 00:00:00 | |
| IW2NTF | 2026-08-30 12:40:29 | 48.96375 | 10.06673 | 53° | 16km/h | 31432m | 7.2m/s | -41.7°C | 3.1% | 10.1hPa | 2.6V | 08:30:00 | 01:56:03 | 00:00:00 | |
| HSKMA3-T | 2026-08-30 12:40:23 | 48.96363 | 10.06654 | 58° | 20km/h | 31408m | 6.8m/s | -41.8°C | 0.2% | 10.2hPa | 2.7V | 18:12:15 | 01:55:59 | 00:00:00 | |
| AZAK | 2026-08-30 12:40:23 | 48.96363 | 10.06653 | 59° | 20km/h | 31408m | 6.8m/s | -41.8°C | 0.9% | 10.1hPa | 2.6V | 00:00:00 | 00:00:00 | 00:00:00 | |
| DO3MHA-11 | 2026-08-30 12:40:22 | 48.96361 | 10.06646 | 62° | 29km/h | 31401m | 5.6m/s | -41.8°C | 3.1% | 10.1hPa | 2.6V | 00:00:00 | 01:55:58 | 00:00:00 | |
| DL1NUX | 2026-08-30 12:40:21 | 48.96329 | 10.06595 | 41° | 31km/h | 31365m | 6.9m/s | -41.6°C | 3.1% | 10.2hPa | 2.6V | 08:30:00 | 01:55:52 | 00:00:00 | |
| DK7TD | 2026-08-30 12:40:19 | 48.96348 | 10.06620 | 44° | 33km/h | 31383m | 7.1m/s | -41.9°C | 0.2% | 10.2hPa | 2.7V | 18:12:15 | 01:55:55 | 00:00:00 | |
| HSKMA3-T | 2026-08-30 12:40:12 | 48.96311 | 10.06567 | 40° | 20km/h | 31340m | 6.5m/s | -41.9°C | 0.2% | 10.2hPa | 2.6V | 18:12:15 | 01:55:48 | 00:00:00 | |
| DO3MHA-11 | 2026-08-30 12:40:12 | 48.96311 | 10.06567 | 40° | 24km/h | 31341m | 6.4m/s | -41.8°C | 3.1% | 10.2hPa | 2.6V | 00:00:00 | 01:55:48 | 00:00:00 | |
| DL1NUX | 2026-08-30 12:40:09 | 48.96287 | 10.06536 | 67° | 26km/h | 31304m | 6.8m/s | -41.9°C | 3.2% | 10.3hPa | 2.6V | 08:30:00 | 01:55:42 | 00:00:00 | |
| DK7TD | 2026-08-30 12:40:09 | 48.96298 | 10.06555 | 30° | 20km/h | 31322m | 4.4m/s | -41.7°C | 0.2% | 10.2hPa | 2.7V | 18:12:15 | 01:55:45 | 00:00:00 | |
| NBG1-10 | 2026-08-30 12:40:09 | 48.96297 | 10.06555 | 30° | 22km/h | 31323m | 4.3m/s | -41.7°C | 3.1% | 10.2hPa | 2.6V | 00:00:00 | 01:55:45 | 00:00:00 | |
| DG9SBQ-11 | 2026-08-30 12:40:08 | 48.96297 | 10.06555 | 31° | 20km/h | 31323m | 4.4m/s | -41.7°C | 0.9% | 10.3hPa | 2.6V | 00:00:00 | 00:00:00 | 00:00:00 | |
| SONCRA | 2026-08-30 12:40:05 | 48.96284 | 10.06526 | 70° | 27km/h | 31298m | 5.6m/s | -41.8°C | 0.9% | 10.3hPa | 2.6V | 00:00:00 | 00:00:00 | 00:00:00 | |
| DK5PH-5 | 2026-08-30 12:40:04 | 48.96282 | 10.06516 | 67° | 20km/h | 31293m | 5.2m/s | -41.7°C | 3.1% | 10.2hPa | 2.6V | 00:00:00 | 01:55:40 | 00:00:00 | |
| DG9SBQ-11 | 2026-08-30 12:40:03 | 48.96282 | 10.06516 | 68° | 27km/h | 31293m | 5.2m/s | -41.7°C | 0.9% | 10.3hPa | 2.7V | 00:00:00 | 00:00:00 | 00:00:00 | |
| IW2NTF | 2026-08-30 12:40:02 | 48.96252 | 10.06474 | 40° | 18km/h | 31249m | 5.3m/s | -41.9°C | 3.2% | 10.4hPa | 2.7V | 08:30:00 | 01:55:33 | 00:00:00 | |
| HSKMA3-T | 2026-08-30 12:40:01 | 48.96270 | 10.06494 | 35° | 24km/h | 31274m | 5.8m/s | -41.8°C | 0.2% | 10.3hPa | 2.6V | 18:12:15 | 01:55:37 | 00:00:00 | |
| DK7TD | 2026-08-30 12:39:59 | 48.96260 | 10.06484 | 35° | 24km/h | 31261m | 6.9m/s | -41.9°C | 0.3% | 10.4hPa | 2.6V | 18:12:15 | 01:55:35 | 00:00:00 | |
| DL1XH-west | 2026-08-30 12:39:57 | 48.96252 | 10.06474 | 40° | 18km/h | 31249m | 5.3m/s | -41.9°C | 0.3% | 10.4hPa | 2.7V | 18:12:15 | 01:55:33 | 00:00:00 | |
| DF7PN | 2026-08-30 12:39:56 | 48.96245 | 10.06466 | 33° | 15km/h | 31237m | 7.1m/s | -41.7°C | 0.9% | 10.4hPa | 2.6V | 00:00:00 | 00:00:00 | 00:00:00 | |
| DO9HM | 2026-08-30 12:39:54 | 48.96242 | 10.06462 | 39° | 15km/h | 31231m | 5.6m/s | -41.7°C | 0.9% | 10.4hPa | 2.6V | 00:00:00 | 00:00:00 | 00:00:00 | |
| OE5WHR-10 | 2026-08-30 12:39:53 | 48.96239 | 10.06458 | 56° | 24km/h | 31226m | 5.1m/s | 0°C | 0% | 0hPa | 2.6V | 00:00:00 | 00:00:00 | 00:00:00 | |
| IW2NTF | 2026-08-30 12:39:52 | 48.96233 | 10.06403 | 62° | 27km/h | 31190m | 6.8m/s | -41.4°C | 3.1% | 10.5hPa | 2.6V | 08:30:00 | 01:55:23 | 00:00:00 | |
| HSKMA3-T | 2026-08-30 12:39:51 | 48.96237 | 10.06446 | 85° | 22km/h | 31213m | 7.5m/s | -41.6°C | 0.2% | 10.4hPa | 2.7V | 18:12:15 | 01:55:27 | 00:00:00 | |
| DK7TD | 2026-08-30 12:39:48 | 48.96235 | 10.06413 | 76° | 29km/h | 31195m | 4.7m/s | -41.4°C | 0.2% | 10.4hPa | 2.6V | 18:12:15 | 01:55:24 | 00:00:00 | |
| DL9SK-14 | 2026-08-30 12:39:46 | 48.96223 | 10.06389 | 26° | 26km/h | 31176m | 6.2m/s | -41.3°C | 0.9% | 10.5hPa | 2.7V | 00:00:00 | 00:00:00 | 00:00:00 | |
| HSKMA3-T | 2026-08-30 12:39:40 | 48.96202 | 10.06371 | 73° | 15km/h | 31147m | 5.2m/s | -41.4°C | 0.2% | 10.5hPa | 2.7V | 18:12:15 | 01:55:16 | 00:00:00 | |
| DL1XH-west | 2026-08-30 12:39:38 | 48.96201 | 10.06360 | 84° | 16km/h | 31135m | 6.7m/s | -41.4°C | 0.1% | 10.6hPa | 2.6V | 18:12:15 | 01:55:14 | 00:00:00 | |
| DK7TD | 2026-08-30 12:39:37 | 48.96200 | 10.06354 | 80° | 15km/h | 31128m | 6.3m/s | -41.3°C | 0.1% | 10.6hPa | 2.6V | 18:12:15 | 01:55:13 | 00:00:00 | |
| DG9SBQ-11 | 2026-08-30 12:39:36 | 48.96199 | 10.06349 | 76° | 15km/h | 31123m | 5.9m/s | -41.3°C | 0.8% | 10.6hPa | 2.6V | 00:00:00 | 00:00:00 | 00:00:00 | |
| SONCRA | 2026-08-30 12:39:35 | 48.96197 | 10.06337 | 78° | 16km/h | 31111m | 5.9m/s | -41.3°C | 0.9% | 10.6hPa | 2.6V | 00:00:00 | 00:00:00 | 00:00:00 | |
| DK5PH-5 | 2026-08-30 12:39:34 | 48.96197 | 10.06337 | 79° | 20km/h | 31111m | 5.9m/s | -41.2°C | 3.0% | 10.5hPa | 2.6V | 00:00:00 | 01:55:10 | 00:00:00 | |
| IW2NTF | 2026-08-30 12:39:32 | 48.96177 | 10.06279 | 30° | 29km/h | 31068m | 5.6m/s | -41.4°C | 2.9% | 10.7hPa | 2.6V | 08:30:00 | 01:55:03 | 00:00:00 | |
| DL1NUX | 2026-08-30 12:39:31 | 48.96171 | 10.06274 | 27° | 26km/h | 31062m | 4.7m/s | -41.4°C | 2.9% | 10.6hPa | 2.6V | 08:30:00 | 01:55:02 | 00:00:00 | |
| HSKMA3-T | 2026-08-30 12:39:30 | 48.96192 | 10.06303 | 64° | 29km/h | 31087m | 5.2m/s | -41.3°C | 0% | 10.6hPa | 2.6V | 18:12:15 | 01:55:06 | 00:00:00 | |
| DL1XH-west | 2026-08-30 12:39:28 | 48.96183 | 10.06286 | 40° | 31km/h | 31074m | 7.4m/s | -41.4°C | 0% | 10.7hPa | 2.7V | 18:12:15 | 01:55:04 | 00:00:00 | |
| DK7TD | 2026-08-30 12:39:27 | 48.96177 | 10.06279 | 31° | 29km/h | 31068m | 5.6m/s | -41.4°C | 0% | 10.7hPa | 2.6V | 18:12:15 | 01:55:03 | 00:00:00 | |
| HSKMA3-T | 2026-08-30 12:39:19 | 48.96176 | 10.06245 | 104° | 16km/h | 31021m | 6.2m/s | -41.4°C | 0% | 10.7hPa | 2.7V | 18:12:15 | 01:54:55 | 00:00:00 | |
| DL1XH-west | 2026-08-30 12:39:17 | 48.96174 | 10.06230 | 59° | 26km/h | 31009m | 6m/s | -41.4°C | 0.1% | 10.8hPa | 2.6V | 18:12:15 | 01:54:53 | 00:00:00 | |
| DK7TD | 2026-08-30 12:39:16 | 48.96170 | 10.06221 | 53° | 31km/h | 31003m | 6.3m/s | -41.5°C | 0.1% | 10.8hPa | 2.6V | 18:12:15 | 01:54:52 | 00:00:00 | |
| OE5DRO-10 | 2026-08-30 12:39:16 | 48.96169 | 10.06221 | 54° | 24km/h | 31003m | 6.2m/s | -41.4°C | 3.0% | 10.7hPa | 2.7V | 00:00:00 | 00:00:00 | 00:00:00 | |
| DL9SK-14 | 2026-08-30 12:39:15 | 48.96160 | 10.06200 | 56° | 35km/h | 30990m | 6.3m/s | -41.5°C | 0.9% | 10.8hPa | 2.7V | 00:00:00 | 00:00:00 | 00:00:00 | |
| OM5KV | 2026-08-30 12:39:13 | 48.96155 | 10.06188 | 61° | 37km/h | 30984m | 5.6m/s | -41.3°C | 0.8% | 10.8hPa | 2.7V | 00:00:00 | 00:00:00 | 00:00:00 | |
| DO9HM | 2026-08-30 12:39:11 | 48.96150 | 10.06176 | 61° | 35km/h | 30979m | 4.8m/s | -41.3°C | 0.9% | 10.8hPa | 2.7V | 00:00:00 | 00:00:00 | 00:00:00 | |
| DL8DAS-14 | 2026-08-30 12:39:10 | 48.96142 | 10.06156 | 56° | 26km/h | 30966m | 6.4m/s | -41.3°C | 0.8% | 10.8hPa | 2.7V | 00:00:00 | 00:00:00 | 00:00:00 | |
| IW2NTF | 2026-08-30 12:39:09 | 48.96143 | 10.06135 | 35° | 9km/h | 30923m | 6.8m/s | -41.5°C | 2.9% | 10.9hPa | 2.7V | 08:30:00 | 01:54:39 | 00:00:00 | |
| HSKMA3-T | 2026-08-30 12:39:08 | 48.96138 | 10.06144 | 80° | 11km/h | 30955m | 6.3m/s | -41.4°C | 0.1% | 10.8hPa | 2.6V | 18:12:15 | 01:54:44 | 00:00:00 | |
| DK7TD | 2026-08-30 12:39:06 | 48.96140 | 10.06139 | 156° | 9km/h | 30940m | 6.5m/s | -41.5°C | 0.1% | 10.9hPa | 2.6V | 18:12:15 | 01:54:42 | 00:00:00 | |
| DL1NUX | 2026-08-30 12:39:05 | 48.96143 | 10.06136 | 119° | 4km/h | 30929m | 5.5m/s | -41.5°C | 3% | 10.9hPa | 2.7V | 08:30:00 | 01:54:40 | 00:00:00 | |
| HSKMA3-T | 2026-08-30 12:38:57 | 48.96112 | 10.06097 | 56° | 29km/h | 30885m | 5.9m/s | -41.7°C | 0.1% | 10.9hPa | 2.6V | 18:12:15 | 01:54:33 | 00:00:00 | |
| OE5DRO-10 | 2026-08-30 12:38:57 | 48.96112 | 10.06097 | 57° | 24km/h | 30886m | 5.8m/s | -41.7°C | 3.0% | 10.9hPa | 2.6V | 00:00:00 | 00:00:00 | 00:00:00 | |
| DG9SBQ-11 | 2026-08-30 12:38:56 | 48.96112 | 10.06097 | 57° | 29km/h | 30886m | 5.9m/s | -41.7°C | 0.8% | 10.9hPa | 2.6V | 00:00:00 | 00:00:00 | 00:00:00 | |
| DL1NUX | 2026-08-30 12:38:55 | 48.96096 | 10.06067 | 22° | 15km/h | 30853m | 6.1m/s | -41.7°C | 2.9% | 11hPa | 2.6V | 08:30:00 | 01:54:28 | 00:00:00 | |
| DL1XH-west | 2026-08-30 12:38:55 | 48.96105 | 10.06080 | 58° | 22km/h | 30873m | 6m/s | -41.6°C | 0.1% | 11hPa | 2.7V | 18:12:15 | 01:54:31 | 00:00:00 | |
| DF7PN | 2026-08-30 12:38:53 | 48.96099 | 10.06069 | 36° | 16km/h | 30860m | 6.7m/s | -41.7°C | 0.9% | 11.0hPa | 2.6V | 00:00:00 | 00:00:00 | 00:00:00 | |
| DF3TZ-5 | 2026-08-30 12:38:46 | 48.96067 | 10.06051 | 32° | 35km/h | 30809m | 6.2m/s | -41.9°C | 0.8% | 11.1hPa | 2.6V | 00:00:00 | 00:00:00 | 00:00:00 | |
| DL1NUX | 2026-08-30 12:38:45 | 48.96040 | 10.06014 | 49° | 29km/h | 30784m | 5.1m/s | -41.9°C | 3% | 11.1hPa | 2.6V | 08:30:00 | 01:54:17 | 00:00:00 | |
| HSKMA3-T | 2026-08-30 12:38:45 | 48.96067 | 10.06051 | 32° | 37km/h | 30809m | 6.2m/s | -41.9°C | 0.1% | 11.1hPa | 2.6V | 18:12:15 | 01:54:21 | 00:00:00 | |
| DL1XH-west | 2026-08-30 12:38:44 | 48.96060 | 10.06043 | 38° | 38km/h | 30803m | 6.3m/s | -41.9°C | 0.1% | 11.1hPa | 2.7V | 18:12:15 | 01:54:20 | 00:00:00 | |
| DL9SK-14 | 2026-08-30 12:38:44 | 48.96052 | 10.06033 | 42° | 37km/h | 30796m | 7.1m/s | -41.9°C | 0.8% | 11.1hPa | 2.6V | 00:00:00 | 00:00:00 | 00:00:00 | |
| DJ8HS-15 | 2026-08-30 12:38:43 | 48.96052 | 10.06033 | 43° | 27km/h | 30796m | 7.1m/s | -41.9°C | 3.0% | 11.0hPa | 2.6V | 00:00:00 | 01:54:19 | 00:00:00 | |
| OM5KV | 2026-08-30 12:38:42 | 48.96052 | 10.06033 | 44° | 38km/h | 30796m | 7.1m/s | -41.9°C | 0% | 0hPa | 2.6V | 00:00:00 | 00:00:00 | 00:00:00 | |
| DG9SBQ-11 | 2026-08-30 12:38:40 | 48.96040 | 10.06014 | 50° | 29km/h | 30784m | 5.1m/s | -41.9°C | 0.8% | 11.1hPa | 2.6V | 00:00:00 | 00:00:00 | 00:00:00 | |
| DL8DAS-14 | 2026-08-30 12:38:39 | 48.96026 | 10.05997 | 18° | 20km/h | 30766m | 7.0m/s | -42.0°C | 0.8% | 11.1hPa | 2.6V | 00:00:00 | 00:00:00 | 00:00:00 | |
| OE5DRO-10 | 2026-08-30 12:38:38 | 48.96026 | 10.05997 | 19° | 27km/h | 30766m | 6.9m/s | -42.0°C | 2.9% | 11.1hPa | 2.6V | 00:00:00 | 00:00:00 | 00:00:00 | |
| DO3MHA-11 | 2026-08-30 12:38:37 | 48.96021 | 10.05995 | 7° | 26km/h | 30759m | 6.4m/s | -42.0°C | 2.9% | 11.1hPa | 2.6V | 00:00:00 | 01:54:13 | 00:00:00 | |
| OM5KV | 2026-08-30 12:38:36 | 48.96021 | 10.05995 | 7° | 20km/h | 30759m | 6.4m/s | -42.0°C | 0% | 0hPa | 2.6V | 00:00:00 | 00:00:00 | 00:00:00 | |
| DL1NUX | 2026-08-30 12:38:35 | 48.95994 | 10.05987 | 14° | 31km/h | 30721m | 7.2m/s | -42.2°C | 2.9% | 11.2hPa | 2.6V | 08:30:00 | 01:54:07 | 00:00:00 | |
| DK7TD | 2026-08-30 12:38:35 | 48.96013 | 10.05994 | 3° | 15km/h | 30745m | 7.3m/s | -42°C | 0.1% | 11.2hPa | 2.7V | 18:12:15 | 01:54:11 | 00:00:00 | |
| DL1XH-west | 2026-08-30 12:38:34 | 48.96009 | 10.05994 | 12° | 15km/h | 30739m | 5.5m/s | -42°C | 0.1% | 11.2hPa | 2.7V | 18:12:15 | 01:54:10 | 00:00:00 | |
| DK7TD | 2026-08-30 12:38:24 | 48.95936 | 10.05950 | 32° | 29km/h | 30679m | 5.9m/s | -42.8°C | 0.2% | 11.3hPa | 2.7V | 18:12:15 | 01:54:00 | 00:00:00 | |
| DL1NUX | 2026-08-30 12:38:23 | 48.95898 | 10.05942 | 355° | 18km/h | 30641m | 7.1m/s | -42.7°C | 3.1% | 11.4hPa | 2.7V | 08:30:00 | 01:53:54 | 00:00:00 | |
| HSKMA3-T | 2026-08-30 12:38:23 | 48.95930 | 10.05945 | 24° | 29km/h | 30673m | 7.1m/s | -42.8°C | 0.2% | 11.3hPa | 2.6V | 18:12:15 | 01:53:59 | 00:00:00 | |
| DK7TD | 2026-08-30 12:38:14 | 48.95879 | 10.05939 | 9° | 26km/h | 30618m | 7.5m/s | -42.8°C | 0.2% | 11.4hPa | 2.7V | 18:12:15 | 01:53:50 | 00:00:00 | |
| DL1NUX | 2026-08-30 12:38:13 | 48.95840 | 10.05933 | 7° | 9km/h | 30580m | 6.7m/s | -42.5°C | 3.1% | 11.4hPa | 2.6V | 08:30:00 | 01:53:44 | 00:00:00 | |
| DL1XH-west | 2026-08-30 12:38:13 | 48.95872 | 10.05937 | 6° | 31km/h | 30611m | 6.4m/s | -42.7°C | 0.2% | 11.4hPa | 2.7V | 18:12:15 | 01:53:49 | 00:00:00 | |
| HSKMA3-T | 2026-08-30 12:38:03 | 48.95832 | 10.05944 | 319° | 15km/h | 30548m | 5.8m/s | -42.7°C | 0.3% | 11.5hPa | 2.7V | 18:12:15 | 01:53:39 | 00:00:00 | |
| DL1XH-west | 2026-08-30 12:38:02 | 48.95827 | 10.05949 | 336° | 13km/h | 30535m | 7.1m/s | -42.8°C | 0.3% | 11.5hPa | 2.6V | 18:12:15 | 01:53:37 | 00:00:00 | |
| DK7TD | 2026-08-30 12:37:53 | 48.95800 | 10.05958 | 274° | 5km/h | 30485m | 6.3m/s | -42.6°C | 0.2% | 11.6hPa | 2.6V | 18:12:15 | 01:53:29 | 00:00:00 | |
| DL1XH-west | 2026-08-30 12:37:52 | 48.95800 | 10.05965 | 261° | 11km/h | 30472m | 7m/s | -42.6°C | 0.2% | 11.7hPa | 2.6V | 18:12:15 | 01:53:27 | 00:00:00 | |
| DF7PN | 2026-08-30 12:37:52 | 48.95800 | 10.05965 | 261° | 11km/h | 30472m | 7.0m/s | -42.6°C | 0.9% | 11.7hPa | 2.7V | 00:00:00 | 00:00:00 | 00:00:00 | |
| HSKMA3-T | 2026-08-30 12:37:43 | 48.95792 | 10.06008 | 314° | 9km/h | 30423m | 5.7m/s | -42.6°C | 0.2% | 11.7hPa | 2.7V | 18:12:15 | 01:53:19 | 00:00:00 | |
| DK7TD | 2026-08-30 12:37:42 | 48.95790 | 10.06010 | 331° | 11km/h | 30417m | 7.3m/s | -42.6°C | 0.2% | 11.7hPa | 2.6V | 18:12:15 | 01:53:18 | 00:00:00 | |
| DL1XH-west | 2026-08-30 12:37:40 | 48.95783 | 10.06014 | 350° | 15km/h | 30405m | 4.8m/s | -42.6°C | 0.2% | 11.8hPa | 2.7V | 18:12:15 | 01:53:16 | 00:00:00 | |
| DO3MHA-11 | 2026-08-30 12:37:37 | 48.95777 | 10.06015 | 221° | 11km/h | 30387m | 7.1m/s | -42.7°C | 3.1% | 11.8hPa | 2.6V | 00:00:00 | 01:53:13 | 00:00:00 | |
| OM5KV | 2026-08-30 12:37:36 | 48.95777 | 10.06015 | 0° | 0km/h | 30387m | 7.2m/s | -42.8°C | 0% | 0hPa | 2.7V | 00:00:00 | 00:00:00 | 00:00:00 | |
| DL1NUX | 2026-08-30 12:37:35 | 48.95781 | 10.06016 | 214° | 5km/h | 30371m | 5m/s | -42.8°C | 3.1% | 11.8hPa | 2.7V | 08:30:00 | 01:53:10 | 00:00:00 | |
| HSKMA3-T | 2026-08-30 12:37:32 | 48.95781 | 10.06021 | 303° | 11km/h | 30358m | 6.9m/s | -42.7°C | 0.2% | 11.8hPa | 2.6V | 18:12:15 | 01:53:08 | 00:00:00 | |
| DK7TD | 2026-08-30 12:37:31 | 48.95779 | 10.06025 | 313° | 18km/h | 30351m | 5.9m/s | -42.7°C | 0.2% | 11.8hPa | 2.6V | 18:12:15 | 01:53:07 | 00:00:00 | |
| DL1XH-west | 2026-08-30 12:37:29 | 48.95773 | 10.06036 | 305° | 18km/h | 30341m | 5.4m/s | -42.7°C | 0.2% | 11.9hPa | 2.7V | 18:12:15 | 01:53:05 | 00:00:00 | |
| DO9HM | 2026-08-30 12:37:29 | 48.95773 | 10.06036 | 305° | 18km/h | 30341m | 5.4m/s | -42.7°C | 0.9% | 11.9hPa | 2.6V | 00:00:00 | 00:00:00 | 00:00:00 | |
| DL1ZP-14 | 2026-08-30 12:37:27 | 48.95772 | 10.06050 | 212° | 11km/h | 30322m | 5.9m/s | -42.8°C | 0.9% | 11.9hPa | 2.6V | 00:00:00 | 00:00:00 | 00:00:00 | |
| DB0UT-7 | 2026-08-30 12:37:26 | 48.95772 | 10.06050 | 213° | 11km/h | 30323m | 5.8m/s | -42.8°C | 3.2% | 11.9hPa | 2.7V | 00:00:00 | 00:00:00 | 00:00:00 | |
| DL1NUX | 2026-08-30 12:37:25 | 48.95782 | 10.06048 | 144° | 13km/h | 30304m | 6.9m/s | -42.9°C | 3.1% | 11.9hPa | 2.7V | 08:30:00 | 01:52:59 | 00:00:00 | |
| BIOWL1-15 | 2026-08-30 12:37:22 | 48.95784 | 10.06045 | 120° | 11km/h | 30298m | 5.9m/s | 0°C | 0% | 0hPa | 2.7V | 18:12:15 | 01:52:58 | 00:00:00 | |
| DK7TD | 2026-08-30 12:37:20 | 48.95785 | 10.06040 | 68° | 4km/h | 30287m | 5.3m/s | -42.8°C | 0.3% | 12hPa | 2.6V | 18:12:15 | 01:52:56 | 00:00:00 | |
| DL1XH-west | 2026-08-30 12:37:19 | 48.95784 | 10.06039 | 329° | 2km/h | 30281m | 6.5m/s | -42.7°C | 0.2% | 12hPa | 2.6V | 18:12:15 | 01:52:55 | 00:00:00 | |
| OE5DXL-15 | 2026-08-30 12:37:18 | 48.95784 | 10.06040 | 280° | 11km/h | 30275m | 6.9m/s | -42.7°C | 3.1% | 11.9hPa | 2.7V | 00:00:00 | 00:00:00 | 00:00:00 | |
| DO3MHA-11 | 2026-08-30 12:37:17 | 48.95784 | 10.06044 | 274° | 13km/h | 30268m | 6.0m/s | -42.7°C | 3.1% | 12.0hPa | 2.7V | 00:00:00 | 01:52:53 | 00:00:00 | |
| DL1NUX | 2026-08-30 12:37:15 | 48.95778 | 10.06060 | 346° | 15km/h | 30244m | 6.5m/s | -42.7°C | 3.1% | 12.1hPa | 2.7V | 08:30:00 | 01:52:49 | 00:00:00 | |
| HSKMA3-T | 2026-08-30 12:37:12 | 48.95774 | 10.06060 | 10° | 15km/h | 30238m | 5.4m/s | -42.7°C | 0.2% | 12.1hPa | 2.6V | 18:12:15 | 01:52:48 | 00:00:00 | |
| DL1XH-west | 2026-08-30 12:37:09 | 48.95768 | 10.06051 | 86° | 11km/h | 30219m | 6.6m/s | -42.8°C | 0.2% | 12.1hPa | 2.7V | 18:12:15 | 01:52:45 | 00:00:00 | |
| HSKMA3-T | 2026-08-30 12:37:02 | 48.95765 | 10.06046 | 272° | 13km/h | 30177m | 7.5m/s | -42.5°C | 0.1% | 12.2hPa | 2.7V | 18:12:15 | 01:52:38 | 00:00:00 | |
| DL1XH-west | 2026-08-30 12:36:58 | 48.95767 | 10.06069 | 266° | 9km/h | 30153m | 6.9m/s | -42.3°C | 0.1% | 12.2hPa | 2.7V | 18:12:15 | 01:52:34 | 00:00:00 | |
| HSKMA3-T | 2026-08-30 12:36:49 | 48.95782 | 10.06057 | 212° | 11km/h | 30098m | 5m/s | -42.5°C | 0.1% | 12.3hPa | 2.6V | 18:12:15 | 01:52:25 | 00:00:00 | |
| DK7TD | 2026-08-30 12:36:48 | 48.95785 | 10.06061 | 223° | 18km/h | 30092m | 6.5m/s | -42.5°C | 0.1% | 12.3hPa | 2.7V | 18:12:15 | 01:52:24 | 00:00:00 | |
| DL1XH-west | 2026-08-30 12:36:47 | 48.95789 | 10.06066 | 226° | 24km/h | 30085m | 7.4m/s | -42.6°C | 0.1% | 12.3hPa | 2.7V | 18:12:15 | 01:52:23 | 00:00:00 | |
| HSKMA3-T | 2026-08-30 12:36:39 | 48.95816 | 10.06099 | 182° | 15km/h | 30037m | 5.7m/s | -42.8°C | 0.1% | 12.4hPa | 2.6V | 18:12:15 | 01:52:15 | 00:00:00 | |
| DK7TD | 2026-08-30 12:36:37 | 48.95824 | 10.06100 | 190° | 15km/h | 30026m | 5.7m/s | -42.9°C | 0.1% | 12.4hPa | 2.7V | 18:12:15 | 01:52:13 | 00:00:00 | |
| DL1XH-west | 2026-08-30 12:36:36 | 48.95827 | 10.06102 | 198° | 13km/h | 30020m | 6.7m/s | -42.9°C | 0.1% | 12.5hPa | 2.7V | 18:12:15 | 01:52:12 | 00:00:00 | |
| DL1NUX | 2026-08-30 12:36:35 | 48.95835 | 10.06109 | 213° | 15km/h | 30003m | 5m/s | -42.9°C | 3% | 12.5hPa | 2.6V | 08:30:00 | 01:52:09 | 00:00:00 | |
| HSKMA3-T | 2026-08-30 12:36:27 | 48.95857 | 10.06124 | 209° | 4km/h | 29967m | 6m/s | -43°C | 0.1% | 12.5hPa | 2.6V | 18:12:15 | 01:52:03 | 00:00:00 | |
| DK7TD | 2026-08-30 12:36:26 | 48.95857 | 10.06125 | 47° | 0km/h | 29962m | 5.1m/s | -43°C | 0.1% | 12.6hPa | 2.7V | 18:12:15 | 01:52:02 | 00:00:00 | |
| DB0UT-7 | 2026-08-30 12:36:26 | 48.95857 | 10.06125 | 48° | 7km/h | 29962m | 5.1m/s | -43.0°C | 3.0% | 12.5hPa | 2.7V | 00:00:00 | 00:00:00 | 08:30:00 | |
| DL1NUX | 2026-08-30 12:36:25 | 48.95858 | 10.06124 | 185° | 5km/h | 29944m | 5.6m/s | -43.2°C | 3% | 12.6hPa | 2.6V | 08:30:00 | 01:51:59 | 00:00:00 | |
| DL1XH-west | 2026-08-30 12:36:25 | 48.95857 | 10.06124 | 104° | 2km/h | 29956m | 6m/s | -43.1°C | 0.1% | 12.6hPa | 2.7V | 18:12:15 | 01:52:01 | 00:00:00 | |
| DK7TD | 2026-08-30 12:36:16 | 48.95866 | 10.06134 | 203° | 11km/h | 29903m | 6.6m/s | -43.4°C | 0.2% | 12.7hPa | 2.6V | 18:12:15 | 01:51:52 | 00:00:00 | |
| DL1NUX | 2026-08-30 12:36:15 | 48.95873 | 10.06134 | 145° | 7km/h | 29886m | 6.7m/s | -43.9°C | 3.2% | 12.7hPa | 2.6V | 08:30:00 | 01:51:49 | 00:00:00 | |
| DL1XH-west | 2026-08-30 12:36:15 | 48.95868 | 10.06135 | 187° | 11km/h | 29897m | 5.4m/s | -43.5°C | 0.2% | 12.7hPa | 2.7V | 18:12:15 | 01:51:51 | 00:00:00 | |
| HSKMA3-T | 2026-08-30 12:36:13 | 48.95873 | 10.06134 | 146° | 7km/h | 29886m | 6.7m/s | -43.9°C | 0.3% | 12.7hPa | 2.6V | 18:12:15 | 01:51:49 | 00:00:00 | |
| DK7TD | 2026-08-30 12:36:06 | 48.95875 | 10.06115 | 161° | 4km/h | 29845m | 5.3m/s | -44.2°C | 0.3% | 12.8hPa | 2.7V | 18:12:15 | 01:51:42 | 00:00:00 | |
| DL1XH-west | 2026-08-30 12:36:04 | 48.95876 | 10.06116 | 308° | 5km/h | 29832m | 6.9m/s | -44.3°C | 0.3% | 12.8hPa | 2.7V | 18:12:15 | 01:51:40 | 00:00:00 | |
| HSKMA3-T | 2026-08-30 12:36:00 | 48.95870 | 10.06127 | 280° | 7km/h | 29810m | 6.5m/s | -44.5°C | 0.4% | 12.9hPa | 2.7V | 18:12:15 | 01:51:36 | 00:00:00 | |
| DK7TD | 2026-08-30 12:35:55 | 48.95876 | 10.06127 | 102° | 5km/h | 29782m | 6.5m/s | -44.4°C | 0.3% | 12.9hPa | 2.7V | 18:12:15 | 01:51:31 | 00:00:00 | |
| DL1XH-west | 2026-08-30 12:35:54 | 48.95876 | 10.06125 | 62° | 5km/h | 29775m | 6.1m/s | -44.4°C | 0.4% | 12.9hPa | 2.7V | 18:12:15 | 01:51:30 | 00:00:00 | |
| HSKMA3-T | 2026-08-30 12:35:49 | 48.95873 | 10.06119 | 38° | 5km/h | 29747m | 5.2m/s | -44.6°C | 0.4% | 13hPa | 2.7V | 18:12:15 | 01:51:25 | 00:00:00 | |
| DO3MHA-11 | 2026-08-30 12:35:47 | 48.95869 | 10.06116 | 35° | 13km/h | 29735m | 5.9m/s | -44.6°C | 3.4% | 13.0hPa | 2.6V | 00:00:00 | 01:51:23 | 00:00:00 | |
| DG9SBQ-11 | 2026-08-30 12:35:46 | 48.95869 | 10.06116 | 35° | 11km/h | 29735m | 6.0m/s | -44.7°C | 1.0% | 13.1hPa | 2.6V | 00:00:00 | 00:00:00 | 00:00:00 | |
| DL1NUX | 2026-08-30 12:35:45 | 48.95866 | 10.06080 | 64° | 13km/h | 29694m | 5.7m/s | -44.8°C | 3.3% | 13.1hPa | 2.6V | 08:30:00 | 01:51:16 | 00:00:00 | |
| DK7TD | 2026-08-30 12:35:44 | 48.95866 | 10.06104 | 92° | 15km/h | 29716m | 6.5m/s | -44.7°C | 0.3% | 13.1hPa | 2.7V | 18:12:15 | 01:51:20 | 00:00:00 | |
| HSKMA3-T | 2026-08-30 12:35:38 | 48.95862 | 10.06074 | 31° | 9km/h | 29683m | 5.9m/s | -44.9°C | 0.4% | 13.1hPa | 2.7V | 18:12:15 | 01:51:14 | 00:00:00 | |
| DL9SK-14 | 2026-08-30 12:35:38 | 48.95860 | 10.06073 | 26° | 5km/h | 29677m | 6.6m/s | -44.9°C | 1.0% | 13.1hPa | 2.7V | 00:00:00 | 00:00:00 | 00:00:00 | |
| DO3MHA-11 | 2026-08-30 12:35:37 | 48.95860 | 10.06073 | 27° | 15km/h | 29677m | 6.5m/s | -44.9°C | 3.4% | 13.1hPa | 2.7V | 00:00:00 | 01:51:13 | 00:00:00 | |
| DL1NUX | 2026-08-30 12:35:35 | 48.95847 | 10.06042 | 69° | 24km/h | 29637m | 5.6m/s | -45°C | 3.4% | 13.2hPa | 2.6V | 08:30:00 | 01:51:06 | 00:00:00 | |
| DK7TD | 2026-08-30 12:35:34 | 48.95857 | 10.06067 | 57° | 11km/h | 29660m | 4.9m/s | -44.9°C | 0.4% | 13.2hPa | 2.6V | 18:12:15 | 01:51:10 | 00:00:00 | |
| DL1XH-west | 2026-08-30 12:35:34 | 48.95855 | 10.06063 | 53° | 15km/h | 29654m | 7.1m/s | -45°C | 0.4% | 13.2hPa | 2.7V | 18:12:15 | 01:51:09 | 00:00:00 | |
| HSKMA3-T | 2026-08-30 12:35:28 | 48.95845 | 10.06026 | 89° | 18km/h | 29625m | 5.7m/s | -45°C | 0.4% | 13.2hPa | 2.6V | 18:12:15 | 01:51:04 | 00:00:00 | |
| DO3MHA-11 | 2026-08-30 12:35:27 | 48.95845 | 10.06019 | 94° | 9km/h | 29620m | 5.3m/s | -44.9°C | 3.4% | 13.2hPa | 2.6V | 00:00:00 | 01:51:03 | 00:00:00 | |
| DB0UT-7 | 2026-08-30 12:35:26 | 48.95845 | 10.06014 | 86° | 13km/h | 29614m | 6.3m/s | -45.0°C | 3.4% | 13.2hPa | 2.6V | 00:00:00 | 00:00:00 | 00:00:00 | |
| DL1NUX | 2026-08-30 12:35:25 | 48.95836 | 10.06012 | 292° | 5km/h | 29579m | 5.5m/s | -45.2°C | 3.5% | 13.3hPa | 2.6V | 08:30:00 | 01:50:56 | 00:00:00 | |
| DK7TD | 2026-08-30 12:35:23 | 48.95840 | 10.06008 | 357° | 9km/h | 29596m | 4.7m/s | -45°C | 0.4% | 13.2hPa | 2.7V | 18:12:15 | 01:50:59 | 00:00:00 | |
| HSKMA3-T | 2026-08-30 12:35:16 | 48.95830 | 10.06012 | 38° | 13km/h | 29556m | 5.6m/s | -45.3°C | 0.5% | 13.4hPa | 2.7V | 18:12:15 | 01:50:52 | 00:00:00 | |
| DL1NUX | 2026-08-30 12:35:15 | 48.95828 | 10.05991 | 126° | 7km/h | 29521m | 6.3m/s | -45.1°C | 3.4% | 13.4hPa | 2.6V | 08:30:00 | 01:50:46 | 00:00:00 | |
| DK7TD | 2026-08-30 12:35:13 | 48.95825 | 10.06000 | 87° | 11km/h | 29539m | 6.9m/s | -45.2°C | 0.5% | 13.4hPa | 2.6V | 18:12:15 | 01:50:49 | 00:00:00 | |
| NBG1-10 | 2026-08-30 12:35:12 | 48.95825 | 10.05996 | 117° | 11km/h | 29533m | 5.8m/s | -45.2°C | 3.4% | 13.4hPa | 2.6V | 00:00:00 | 01:50:48 | 00:00:00 | |
| IW2NTF | 2026-08-30 12:35:10 | 48.95824 | 10.05990 | 358° | 4km/h | 29485m | 4.9m/s | -45.1°C | 3.4% | 13.5hPa | 2.6V | 08:30:00 | 01:50:40 | 00:00:00 | |
| HSKMA3-T | 2026-08-30 12:35:06 | 48.95826 | 10.05989 | 324° | 4km/h | 29497m | 6.9m/s | -45.3°C | 0.5% | 13.5hPa | 2.7V | 18:12:15 | 01:50:42 | 00:00:00 | |
| DK7TD | 2026-08-30 12:35:02 | 48.95821 | 10.05987 | 41° | 11km/h | 29474m | 6.8m/s | -45.2°C | 0.4% | 13.5hPa | 2.6V | 18:12:15 | 01:50:38 | 00:00:00 | |
| HSKMA3-T | 2026-08-30 12:34:56 | 48.95815 | 10.05958 | 135° | 11km/h | 29441m | 5.1m/s | -45.2°C | 0.4% | 13.6hPa | 2.7V | 18:12:15 | 01:50:32 | 00:00:00 | |
| DK7TD | 2026-08-30 12:34:51 | 48.95811 | 10.05954 | 6° | 18km/h | 29413m | 4.3m/s | -45.2°C | 0.4% | 13.7hPa | 2.6V | 18:12:15 | 01:50:27 | 00:00:00 | |
| IW2NTF | 2026-08-30 12:34:50 | 48.95799 | 10.05950 | 27° | 13km/h | 29396m | 5.2m/s | -45.3°C | 3.4% | 13.7hPa | 2.6V | 08:30:00 | 01:50:24 | 00:00:00 | |
| DB0ND-19 | 2026-08-30 12:34:50 | 48.95806 | 10.05953 | 7° | 16km/h | 29408m | 5.8m/s | -45.3°C | 1.0% | 13.7hPa | 2.6V | 00:00:00 | 00:00:00 | 00:00:00 | |
| SO1NDE-10 | 2026-08-30 12:34:49 | 48.95802 | 10.05952 | 13° | 13km/h | 29402m | 6.3m/s | -45.3°C | 3.4% | 13.6hPa | 2.6V | 00:00:00 | 01:50:25 | 00:00:00 | |
| DO3MHA-11 | 2026-08-30 12:34:47 | 48.95797 | 10.05947 | 46° | 13km/h | 29392m | 4.4m/s | -45.2°C | 3.3% | 13.7hPa | 2.6V | 00:00:00 | 01:50:23 | 00:00:00 | |
| DG9SBQ-11 | 2026-08-30 12:34:46 | 48.95795 | 10.05943 | 57° | 15km/h | 29387m | 5.4m/s | -45.2°C | 0.9% | 13.7hPa | 2.6V | 00:00:00 | 00:00:00 | 00:00:00 | |
| DL1NUX | 2026-08-30 12:34:45 | 48.95784 | 10.05910 | 98° | 11km/h | 29351m | 7m/s | -45.6°C | 3.4% | 13.8hPa | 2.6V | 08:30:00 | 01:50:16 | 00:00:00 | |
| HSKMA3-T | 2026-08-30 12:34:45 | 48.95792 | 10.05939 | 59° | 16km/h | 29380m | 6.7m/s | -45.3°C | 0.4% | 13.7hPa | 2.7V | 18:12:15 | 01:50:21 | 00:00:00 | |
| DL1XH-west | 2026-08-30 12:34:44 | 48.95790 | 10.05933 | 59° | 18km/h | 29374m | 5.9m/s | -45.4°C | 0.3% | 13.8hPa | 2.7V | 18:12:15 | 01:50:20 | 00:00:00 | |
| DK7TD | 2026-08-30 12:34:40 | 48.95784 | 10.05910 | 99° | 11km/h | 29351m | 7m/s | -45.6°C | 0.4% | 13.8hPa | 2.6V | 18:12:15 | 01:50:16 | 00:00:00 | |
| NBG1-10 | 2026-08-30 12:34:39 | 48.95785 | 10.05906 | 122° | 13km/h | 29345m | 5.8m/s | -45.4°C | 3.4% | 13.7hPa | 2.6V | 00:00:00 | 01:50:15 | 00:00:00 | |
| DF3TZ-5 | 2026-08-30 12:34:38 | 48.95786 | 10.05904 | 349° | 0km/h | 29333m | 6.9m/s | -45.5°C | 1.0% | 13.9hPa | 2.6V | 00:00:00 | 00:00:00 | 00:00:00 | |
| AU51GT2 | 2026-08-30 12:34:37 | 48.95779 | 10.05904 | 72° | 7km/h | 29304m | 5.5m/s | -45.4°C | 0.9% | 13.9hPa | 2.6V | 00:00:00 | 00:00:00 | 00:00:00 | |
| DL1NUX | 2026-08-30 12:34:35 | 48.95778 | 10.05894 | 80° | 20km/h | 29293m | 5.3m/s | -45.5°C | 3.3% | 13.9hPa | 2.6V | 08:30:00 | 01:50:06 | 00:00:00 | |
| DL1XH-west | 2026-08-30 12:34:34 | 48.95782 | 10.05906 | 348° | 7km/h | 29316m | 5.6m/s | -45.5°C | 0.4% | 13.9hPa | 2.7V | 18:12:15 | 01:50:10 | 00:00:00 | |
| DK7TD | 2026-08-30 12:34:30 | 48.95778 | 10.05894 | 81° | 20km/h | 29293m | 5.3m/s | -45.5°C | 0.4% | 13.9hPa | 2.6V | 18:12:15 | 01:50:06 | 00:00:00 | |
| HSKMA3-T | 2026-08-30 12:34:23 | 48.95768 | 10.05835 | 107° | 11km/h | 29253m | 5.1m/s | -45.8°C | 0.4% | 14hPa | 2.7V | 18:12:15 | 01:49:59 | 00:00:00 | |
| DL1XH-west | 2026-08-30 12:34:22 | 48.95768 | 10.05832 | 126° | 4km/h | 29248m | 6.2m/s | -45.9°C | 0.4% | 14hPa | 2.7V | 18:12:15 | 01:49:58 | 00:00:00 | |
| DO9HM | 2026-08-30 12:34:21 | 48.95769 | 10.05832 | 0° | 0km/h | 29241m | 7.1m/s | -45.9°C | 1.0% | 14.0hPa | 2.6V | 00:00:00 | 00:00:00 | 00:00:00 | |
| IW2NTF | 2026-08-30 12:34:20 | 48.95768 | 10.05835 | 314° | 5km/h | 29229m | 4.7m/s | -45.8°C | 3.4% | 14.1hPa | 2.6V | 08:30:00 | 01:49:55 | 00:00:00 | |
| DK7TD | 2026-08-30 12:34:19 | 48.95768 | 10.05835 | 315° | 5km/h | 29229m | 4.7m/s | -45.9°C | 0.4% | 14.1hPa | 2.6V | 18:12:15 | 01:49:55 | 00:00:00 | |
| SO1NDE-10 | 2026-08-30 12:34:19 | 48.95768 | 10.05835 | 315° | 15km/h | 29229m | 4.7m/s | -45.8°C | 3.4% | 14.0hPa | 2.6V | 00:00:00 | 01:49:55 | 00:00:00 | |
| DG9SBQ-11 | 2026-08-30 12:34:18 | 48.95767 | 10.05835 | 26° | 2km/h | 29225m | 4.6m/s | -45.9°C | 0.9% | 14.1hPa | 2.6V | 00:00:00 | 00:00:00 | 00:00:00 | |
| DO3MHA-11 | 2026-08-30 12:34:17 | 48.95767 | 10.05834 | 109° | 18km/h | 29219m | 6.4m/s | -45.9°C | 3.4% | 14.0hPa | 2.6V | 00:00:00 | 01:49:53 | 00:00:00 | |
| DF7PN | 2026-08-30 12:34:14 | 48.95774 | 10.05804 | 100° | 27km/h | 29195m | 6.3m/s | -46.2°C | 1.0% | 14.1hPa | 2.6V | 00:00:00 | 00:00:00 | 00:00:00 | |
| DG9SBQ-11 | 2026-08-30 12:34:11 | 48.95775 | 10.05794 | 90° | 24km/h | 29189m | 5.6m/s | -46.3°C | 1.0% | 14.1hPa | 2.6V | 00:00:00 | 00:00:00 | 00:00:00 | |
| IW2NTF | 2026-08-30 12:34:10 | 48.95762 | 10.05783 | 335° | 16km/h | 29144m | 6.8m/s | -46.6°C | 3.5% | 14.2hPa | 2.6V | 08:30:00 | 01:49:40 | 00:00:00 | |
| DK7TD | 2026-08-30 12:34:09 | 48.95772 | 10.05775 | 57° | 9km/h | 29173m | 6.7m/s | -46.3°C | 0.5% | 14.2hPa | 2.6V | 18:12:15 | 01:49:45 | 00:00:00 | |
| DL1XH-west | 2026-08-30 12:34:05 | 48.95765 | 10.05780 | 321° | 15km/h | 29150m | 6m/s | -46.6°C | 0.5% | 14.2hPa | 2.7V | 18:12:15 | 01:49:41 | 00:00:00 | |
| HSKMA3-T | 2026-08-30 12:34:04 | 48.95762 | 10.05783 | 336° | 16km/h | 29144m | 6.8m/s | -46.6°C | 0.5% | 14.2hPa | 2.6V | 18:12:15 | 01:49:40 | 00:00:00 | |
| DK7TD | 2026-08-30 12:33:58 | 48.95746 | 10.05763 | 84° | 22km/h | 29107m | 5.4m/s | -46.8°C | 0.5% | 14.3hPa | 2.6V | 18:12:15 | 01:49:34 | 00:00:00 | |
| DL1XH-west | 2026-08-30 12:33:55 | 48.95742 | 10.05739 | 64° | 16km/h | 29090m | 5.1m/s | -47.1°C | 0.7% | 14.4hPa | 2.7V | 18:12:15 | 01:49:31 | 00:00:00 | |
| DL1NUX | 2026-08-30 12:33:54 | 48.95734 | 10.05738 | 333° | 15km/h | 29059m | 6.9m/s | -47.2°C | 3.7% | 14.4hPa | 2.7V | 08:30:00 | 01:49:26 | 00:00:00 | |
| HSKMA3-T | 2026-08-30 12:33:54 | 48.95740 | 10.05735 | 57° | 11km/h | 29084m | 6.3m/s | -47.2°C | 0.7% | 14.4hPa | 2.7V | 18:12:15 | 01:49:30 | 00:00:00 | |
| DK7TD | 2026-08-30 12:33:47 | 48.95720 | 10.05738 | 20° | 18km/h | 29043m | 5.6m/s | -47.5°C | 0.7% | 14.5hPa | 2.6V | 18:12:15 | 01:49:23 | 00:00:00 | |
| DO3MHA-11 | 2026-08-30 12:33:47 | 48.95720 | 10.05738 | 20° | 16km/h | 29043m | 5.5m/s | -47.5°C | 3.8% | 14.4hPa | 2.6V | 00:00:00 | 01:49:23 | 00:00:00 | |
| DL1NUX | 2026-08-30 12:33:44 | 48.95707 | 10.05694 | 50° | 16km/h | 29001m | 5.5m/s | -47.7°C | 3.9% | 14.6hPa | 2.6V | 08:30:00 | 01:49:16 | 00:00:00 | |
| HSKMA3-T | 2026-08-30 12:33:44 | 48.95713 | 10.05723 | 80° | 20km/h | 29024m | 5.9m/s | -47.7°C | 0.7% | 0hPa | 2.7V | 18:12:15 | 01:49:20 | 00:00:00 | |
| DL1XH-west | 2026-08-30 12:33:41 | 48.95710 | 10.05700 | 66° | 20km/h | 29007m | 6.3m/s | -47.8°C | 0.8% | 14.5hPa | 2.6V | 18:12:15 | 01:49:17 | 00:00:00 | |
| IW2NTF | 2026-08-30 12:33:38 | 48.95687 | 10.05683 | 28° | 22km/h | 28959m | 6m/s | -47.9°C | 3.9% | 14.6hPa | 2.7V | 08:30:00 | 01:49:09 | 00:00:00 | |
| DK7TD | 2026-08-30 12:33:37 | 48.95700 | 10.05688 | 4° | 7km/h | 28982m | 5.7m/s | -47.6°C | 0.7% | 14.6hPa | 2.7V | 18:12:15 | 01:49:13 | 00:00:00 | |
| DF3TZ-5 | 2026-08-30 12:33:36 | 48.95696 | 10.05687 | 8° | 11km/h | 28972m | 6.0m/s | -47.7°C | 1.1% | 14.6hPa | 2.6V | 00:00:00 | 00:00:00 | 00:00:00 | |
| AU51GT2 | 2026-08-30 12:33:35 | 48.95688 | 10.05683 | 28° | 22km/h | 28959m | 6.0m/s | -47.9°C | 1.1% | 14.7hPa | 2.6V | 00:00:00 | 00:00:00 | 00:00:00 | |
| DL1NUX | 2026-08-30 12:33:34 | 48.95674 | 10.05664 | 54° | 26km/h | 28940m | 6.5m/s | -48°C | 4% | 14.7hPa | 2.6V | 08:30:00 | 01:49:06 | 00:00:00 | |
| HSKMA3-T | 2026-08-30 12:33:33 | 48.95688 | 10.05683 | 28° | 22km/h | 28959m | 6m/s | -47.9°C | 0.7% | 0hPa | 2.7V | 18:12:15 | 01:49:09 | 00:00:00 | |
| DL1XH-west | 2026-08-30 12:33:31 | 48.95678 | 10.05671 | 46° | 26km/h | 28947m | 6.9m/s | -48°C | 0.8% | 14.7hPa | 2.6V | 18:12:15 | 01:49:07 | 00:00:00 | |
| DK7TD | 2026-08-30 12:33:26 | 48.95657 | 10.05632 | 36° | 29km/h | 28917m | 6.7m/s | -47.9°C | 0.8% | 14.7hPa | 2.7V | 18:12:15 | 01:49:02 | 00:00:00 | |
| HSKMA3-T | 2026-08-30 12:33:23 | 48.95632 | 10.05621 | 358° | 20km/h | 28894m | 6.2m/s | -47.8°C | 0.8% | 0hPa | 2.7V | 18:12:15 | 01:48:58 | 00:00:00 | |
| DL1XH-west | 2026-08-30 12:33:20 | 48.95622 | 10.05623 | 348° | 22km/h | 28884m | 4.4m/s | -47.9°C | 0.8% | 14.8hPa | 2.6V | 18:12:15 | 01:48:56 | 00:00:00 | |
| DK7TD | 2026-08-30 12:33:16 | 48.95584 | 10.05624 | 13° | 31km/h | 28856m | 4.7m/s | -47.5°C | 0.7% | 14.9hPa | 2.7V | 18:12:15 | 01:48:51 | 00:00:00 | |
| HSKMA3-T | 2026-08-30 12:33:11 | 48.95566 | 10.05609 | 41° | 13km/h | 28833m | 5.4m/s | -47.6°C | 0.8% | 0hPa | 2.7V | 18:12:15 | 01:48:47 | 00:00:00 | |
| DL1XH-west | 2026-08-30 12:33:09 | 48.95560 | 10.05603 | 18° | 18km/h | 28821m | 6.1m/s | -47.6°C | 0.7% | 15hPa | 2.6V | 18:12:15 | 01:48:45 | 00:00:00 | |
| DO3MHA-11 | 2026-08-30 12:33:07 | 48.95549 | 10.05601 | 4° | 27km/h | 28810m | 5.3m/s | -47.3°C | 3.8% | 14.9hPa | 2.6V | 00:00:00 | 01:48:43 | 00:00:00 | |
| HEMX73-6 | 2026-08-30 12:33:06 | 48.95542 | 10.05600 | 360° | 26km/h | 28804m | 6.8m/s | 0°C | 0% | 0hPa | 2.7V | 00:00:00 | 01:48:42 | 00:00:00 | |
| DF3TZ-5 | 2026-08-30 12:33:05 | 48.95530 | 10.05602 | 352° | 27km/h | 28791m | 5.1m/s | -47.3°C | 1.1% | 15.0hPa | 2.7V | 00:00:00 | 00:00:00 | 00:00:00 | |
| DL1NUX | 2026-08-30 12:33:04 | 48.95498 | 10.05609 | 350° | 29km/h | 28767m | 5m/s | -47.2°C | 3.7% | 15.1hPa | 2.7V | 08:30:00 | 01:48:36 | 00:00:00 | |
| DK7TD | 2026-08-30 12:33:04 | 48.95530 | 10.05602 | 353° | 27km/h | 28791m | 5.1m/s | -47.3°C | 0.7% | 15hPa | 2.7V | 18:12:15 | 01:48:40 | 00:00:00 | |
| DL1XH-west | 2026-08-30 12:32:58 | 48.95486 | 10.05612 | 352° | 16km/h | 28755m | 6.7m/s | -47.3°C | 0.7% | 15.1hPa | 2.6V | 18:12:15 | 01:48:34 | 00:00:00 | |
| HSKMA3-T | 2026-08-30 12:32:56 | 48.95480 | 10.05613 | 358° | 11km/h | 28743m | 5.5m/s | -47.1°C | 0.6% | 0hPa | 2.6V | 18:12:15 | 01:48:32 | 00:00:00 | |
| DO9HM | 2026-08-30 12:32:55 | 48.95480 | 10.05613 | 359° | 11km/h | 28743m | 5.5m/s | -47.1°C | 1.1% | 15.1hPa | 2.6V | 00:00:00 | 00:00:00 | 00:00:00 | |
| DL1NUX | 2026-08-30 12:32:54 | 48.95448 | 10.05613 | 351° | 24km/h | 28707m | 6.2m/s | -47°C | 3.7% | 15.2hPa | 2.6V | 08:30:00 | 01:48:26 | 00:00:00 | |
| DK7TD | 2026-08-30 12:32:54 | 48.95473 | 10.05613 | 4° | 20km/h | 28730m | 6.2m/s | -46.9°C | 0.6% | 15.2hPa | 2.7V | 18:12:15 | 01:48:30 | 00:00:00 | |
| DL1XH-west | 2026-08-30 12:32:46 | 48.95423 | 10.05630 | 330° | 35km/h | 28682m | 6.2m/s | -47°C | 0.6% | 15.3hPa | 2.6V | 18:12:15 | 01:48:22 | 00:00:00 | |
| DL1NUX | 2026-08-30 12:32:44 | 48.95391 | 10.05656 | 349° | 15km/h | 28647m | 6.7m/s | -47.4°C | 3.7% | 15.4hPa | 2.6V | 08:30:00 | 01:48:16 | 00:00:00 | |
| HSKMA3-T | 2026-08-30 12:32:43 | 48.95403 | 10.05648 | 327° | 24km/h | 28665m | 7.1m/s | -47.2°C | 0.6% | 0hPa | 2.7V | 18:12:15 | 01:48:19 | 00:00:00 | |
| DK7TD | 2026-08-30 12:32:33 | 48.95361 | 10.05682 | 300° | 27km/h | 28606m | 5.5m/s | -47.4°C | 0.7% | 15.5hPa | 2.7V | 18:12:15 | 01:48:09 | 00:00:00 | |
| IW2NTF | 2026-08-30 12:32:33 | 48.95352 | 10.05703 | 304° | 35km/h | 28593m | 6.2m/s | -47.2°C | 3.7% | 15.5hPa | 2.7V | 08:30:00 | 01:48:07 | 00:00:00 | |
| DL6DJ-15 | 2026-08-30 12:32:32 | 48.95352 | 10.05703 | 304° | 35km/h | 28593m | 6.2m/s | -47.2°C | 1.1% | 15.5hPa | 2.6V | 00:00:00 | 00:00:00 | 00:00:00 | |
| DL9SK-14 | 2026-08-30 12:32:31 | 48.95347 | 10.05713 | 308° | 35km/h | 28588m | 4.7m/s | -47.2°C | 1.1% | 15.5hPa | 2.6V | 00:00:00 | 00:00:00 | 00:00:00 | |
| DK5PH-5 | 2026-08-30 12:32:29 | 48.95341 | 10.05723 | 310° | 18km/h | 28583m | 4.6m/s | -47.2°C | 3.8% | 15.5hPa | 2.6V | 00:00:00 | 01:48:05 | 08:30:00 | |
| IW2NTF | 2026-08-30 12:32:27 | 48.95314 | 10.05757 | 330° | 15km/h | 28534m | 7.1m/s | -47°C | 3.7% | 15.6hPa | 2.7V | 08:30:00 | 01:47:57 | 00:00:00 | |
| DG9SBQ-11 | 2026-08-30 12:32:26 | 48.95333 | 10.05738 | 312° | 20km/h | 28571m | 6.7m/s | -47.3°C | 1.1% | 15.6hPa | 2.6V | 00:00:00 | 00:00:00 | 00:00:00 | |
| DL1NUX | 2026-08-30 12:32:24 | 48.95308 | 10.05765 | 314° | 20km/h | 28522m | 5.2m/s | -47°C | 3.7% | 15.7hPa | 2.6V | 08:30:00 | 01:47:55 | 00:00:00 | |
| DK7TD | 2026-08-30 12:32:23 | 48.95321 | 10.05752 | 337° | 16km/h | 28545m | 5.7m/s | -47°C | 0.6% | 15.6hPa | 2.6V | 18:12:15 | 01:47:59 | 00:00:00 | |
| DJ8HS-15 | 2026-08-30 12:32:23 | 48.95321 | 10.05752 | 337° | 16km/h | 28546m | 5.7m/s | -47.0°C | 3.6% | 15.6hPa | 2.6V | 00:00:00 | 01:47:59 | 00:00:00 | |
| DG9SBQ-11 | 2026-08-30 12:32:21 | 48.95317 | 10.05754 | 335° | 16km/h | 28541m | 5.3m/s | -47.0°C | 1.0% | 15.6hPa | 2.6V | 00:00:00 | 00:00:00 | 00:00:00 | |
| SONCRA | 2026-08-30 12:32:20 | 48.95308 | 10.05765 | 314° | 18km/h | 28522m | 5.2m/s | -47.0°C | 1.1% | 15.7hPa | 2.6V | 00:00:00 | 00:00:00 | 00:00:00 | |
| OE5DXL-15 | 2026-08-30 12:32:19 | 48.95308 | 10.05765 | 315° | 18km/h | 28522m | 5.2m/s | -47.0°C | 3.7% | 15.6hPa | 2.6V | 00:00:00 | 00:00:00 | 00:00:00 | |
| SO1NDE-10 | 2026-08-30 12:32:18 | 48.95304 | 10.05771 | 314° | 18km/h | 28516m | 7.3m/s | -47.0°C | 3.6% | 15.6hPa | 2.6V | 00:00:00 | 01:47:54 | 08:30:00 | |
| DO3MHA-11 | 2026-08-30 12:32:17 | 48.95299 | 10.05778 | 314° | 18km/h | 28509m | 6.8m/s | -47.0°C | 3.6% | 15.6hPa | 2.7V | 00:00:00 | 01:47:53 | 00:00:00 | |
| DL1ZP-14 | 2026-08-30 12:32:16 | 48.95294 | 10.05787 | 312° | 31km/h | 28502m | 5.2m/s | -47.0°C | 1.1% | 15.7hPa | 2.7V | 00:00:00 | 00:00:00 | 00:00:00 | |
| DB0ND-19 | 2026-08-30 12:32:15 | 48.95289 | 10.05796 | 311° | 27km/h | 28497m | 5.7m/s | -46.9°C | 1.0% | 15.7hPa | 2.7V | 00:00:00 | 00:00:00 | 00:00:00 | |
| DL1NUX | 2026-08-30 12:32:14 | 48.95271 | 10.05816 | 358° | 13km/h | 28461m | 5.8m/s | -47.1°C | 3.6% | 15.8hPa | 2.7V | 08:30:00 | 01:47:45 | 00:00:00 | |
| DL1XH-west | 2026-08-30 12:32:13 | 48.95281 | 10.05809 | 312° | 16km/h | 28485m | 5.1m/s | -47°C | 0.6% | 15.8hPa | 2.6V | 18:12:15 | 01:47:49 | 00:00:00 | |
| DK7TD | 2026-08-30 12:32:12 | 48.95279 | 10.05812 | 323° | 11km/h | 28480m | 4.9m/s | -47°C | 0.5% | 15.8hPa | 2.6V | 18:12:15 | 01:47:48 | 00:00:00 | |
| HSKMA3-T | 2026-08-30 12:32:02 | 48.95253 | 10.05824 | 317° | 22km/h | 28419m | 5.5m/s | -47.3°C | 0% | 0hPa | 2.6V | 18:12:15 | 01:47:38 | 00:00:00 | |
| DL1NUX | 2026-08-30 12:32:01 | 48.95241 | 10.05838 | 331° | 15km/h | 28402m | 6.2m/s | -47.4°C | 3.7% | 16hPa | 2.7V | 08:30:00 | 01:47:35 | 00:00:00 | |
| DK7TD | 2026-08-30 12:32:01 | 48.95249 | 10.05829 | 319° | 22km/h | 28414m | 4.5m/s | -47.3°C | 0.6% | 15.9hPa | 2.6V | 18:12:15 | 01:47:37 | 00:00:00 | |
| DL6DJ-15 | 2026-08-30 12:32:00 | 48.95245 | 10.05835 | 321° | 18km/h | 28408m | 6.7m/s | -47.4°C | 1.0% | 15.9hPa | 2.7V | 00:00:00 | 00:00:00 | 00:00:00 | |
| DL8DAS-14 | 2026-08-30 12:31:56 | 48.95225 | 10.05835 | 17° | 24km/h | 28377m | 6.8m/s | -47.6°C | 1.1% | 16.0hPa | 2.7V | 00:00:00 | 00:00:00 | 00:00:00 | |
| DL1NUX | 2026-08-30 12:31:54 | 48.95194 | 10.05825 | 342° | 16km/h | 28342m | 5.8m/s | -48°C | 3.8% | 16.1hPa | 2.7V | 08:30:00 | 01:47:25 | 00:00:00 | |
| DK7TD | 2026-08-30 12:31:50 | 48.95198 | 10.05824 | 1° | 15km/h | 28348m | 5.1m/s | -48°C | 0.7% | 16.1hPa | 2.6V | 18:12:15 | 01:47:26 | 00:00:00 | |
| DL1XH-west | 2026-08-30 12:31:49 | 48.95194 | 10.05825 | 343° | 16km/h | 28342m | 5.8m/s | -48°C | 0.7% | 16.1hPa | 2.7V | 18:12:15 | 01:47:25 | 00:00:00 | |
| DL1ZP-14 | 2026-08-30 12:31:45 | 48.95175 | 10.05844 | 317° | 24km/h | 28317m | 6.5m/s | -47.7°C | 1.1% | 16.2hPa | 2.6V | 00:00:00 | 00:00:00 | 00:00:00 | |
| DB0UT-7 | 2026-08-30 12:31:44 | 48.95171 | 10.05850 | 318° | 20km/h | 28311m | 6.5m/s | -47.6°C | 3.8% | 16.2hPa | 2.6V | 00:00:00 | 01:47:20 | 08:30:00 | |
| IW2NTF | 2026-08-30 12:31:43 | 48.95147 | 10.05858 | 5° | 29km/h | 28280m | 5.4m/s | -47.7°C | 3.7% | 16.3hPa | 2.6V | 00:00:00 | 01:47:15 | 00:00:00 | |
| HSKMA3-T | 2026-08-30 12:31:40 | 48.95154 | 10.05859 | 1° | 26km/h | 28287m | 7.1m/s | -47.7°C | 0% | 0hPa | 2.6V | 18:12:15 | 01:47:16 | 00:00:00 | |
| DK7TD | 2026-08-30 12:31:39 | 48.95147 | 10.05858 | 6° | 29km/h | 28280m | 5.4m/s | -47.7°C | 0.7% | 16.3hPa | 2.6V | 18:12:15 | 01:47:15 | 00:00:00 | |
| DF7PN | 2026-08-30 12:31:39 | 48.95140 | 10.05857 | 8° | 27km/h | 28275m | 5.6m/s | -47.7°C | 1.0% | 16.3hPa | 2.7V | 00:00:00 | 00:00:00 | 00:00:00 | |
| DO3MHA-11 | 2026-08-30 12:31:37 | 48.95150 | 10.05855 | 11° | 18km/h | 28269m | 6.8m/s | -47.7°C | 3.7% | 16.3hPa | 2.7V | 00:00:00 | 01:47:13 | 00:00:00 | |
| DO9HM | 2026-08-30 12:31:34 | 48.95116 | 10.05854 | 353° | 22km/h | 28250m | 7.0m/s | -48.1°C | 1.1% | 16.3hPa | 2.7V | 00:00:00 | 00:00:00 | 00:00:00 | |
| IW2NTF | 2026-08-30 12:31:33 | 48.95096 | 10.05867 | 328° | 9km/h | 28220m | 5.6m/s | -47.8°C | 3.8% | 16.4hPa | 2.7V | 00:00:00 | 01:47:05 | 00:00:00 | |
| DL1XH-west | 2026-08-30 12:31:32 | 48.95106 | 10.05858 | 337° | 20km/h | 28239m | 4.9m/s | -48°C | 0.7% | 16.4hPa | 2.6V | 18:12:15 | 01:47:08 | 00:00:00 | |
| HSKMA3-T | 2026-08-30 12:31:29 | 48.95096 | 10.05867 | 328° | 9km/h | 28220m | 5.6m/s | 0°C | 0% | 0hPa | 2.7V | 18:12:15 | 01:47:05 | 00:00:00 | |
| DK7TD | 2026-08-30 12:31:28 | 48.95094 | 10.05868 | 342° | 11km/h | 28215m | 4.8m/s | -47.8°C | 0.7% | 16.4hPa | 2.6V | 18:12:15 | 01:47:04 | 00:00:00 | |
| DG9SBQ-11 | 2026-08-30 12:31:27 | 48.95091 | 10.05869 | 352° | 15km/h | 28210m | 5.6m/s | -47.8°C | 1.1% | 16.4hPa | 2.7V | 00:00:00 | 00:00:00 | 00:00:00 | |
| IW2NTF | 2026-08-30 12:31:24 | 48.95045 | 10.05862 | 10° | 15km/h | 28163m | 4.9m/s | -48°C | 3.8% | 16.6hPa | 2.7V | 00:00:00 | 01:46:55 | 00:00:00 | |
| DL1XH-west | 2026-08-30 12:31:22 | 48.95059 | 10.05868 | 11° | 26km/h | 28179m | 7m/s | -47.8°C | 0.7% | 16.5hPa | 2.6V | 18:12:15 | 01:46:58 | 00:00:00 | |
| DK7TD | 2026-08-30 12:31:18 | 48.95041 | 10.05862 | 352° | 15km/h | 28157m | 6.7m/s | -48°C | 0.7% | 16.6hPa | 2.7V | 18:12:15 | 01:46:54 | 00:00:00 | |
| HSKMA3-T | 2026-08-30 12:31:15 | 48.95030 | 10.05873 | 311° | 22km/h | 28139m | 4.7m/s | 0°C | 0% | 0hPa | 2.6V | 18:12:15 | 01:46:51 | 00:00:00 | |
| DL1NUX | 2026-08-30 12:31:15 | 48.95009 | 10.05885 | 16° | 26km/h | 28105m | 6.5m/s | -48.2°C | 3.9% | 16.7hPa | 2.7V | 08:30:00 | 01:46:45 | 00:00:00 | |
| DL1XH-west | 2026-08-30 12:31:11 | 48.95018 | 10.05888 | 5° | 15km/h | 28117m | 5.2m/s | -48.2°C | 0.7% | 16.7hPa | 2.6V | 18:12:15 | 01:46:47 | 00:00:00 | |
| DK7TD | 2026-08-30 12:31:07 | 48.94996 | 10.05880 | 11° | 27km/h | 28094m | 4.4m/s | -48.1°C | 0.7% | 16.7hPa | 2.7V | 18:12:15 | 01:46:43 | 00:00:00 | |
| DO3MHA-11 | 2026-08-30 12:31:07 | 48.94995 | 10.05880 | 11° | 18km/h | 28095m | 4.4m/s | -48.0°C | 3.8% | 16.7hPa | 2.7V | 00:00:00 | 01:46:43 | 00:00:00 | |
| DL1NUX | 2026-08-30 12:31:04 | 48.94967 | 10.05900 | 326° | 22km/h | 28048m | 4.6m/s | -48°C | 3.8% | 16.9hPa | 2.6V | 08:30:00 | 01:46:35 | 00:00:00 | |
| DL1XH-west | 2026-08-30 12:31:01 | 48.94975 | 10.05889 | 305° | 18km/h | 28059m | 6.8m/s | -48.2°C | 0.8% | 16.8hPa | 2.6V | 18:12:15 | 01:46:37 | 00:00:00 | |
| IW2NTF | 2026-08-30 12:31:01 | 48.94948 | 10.05906 | 11° | 18km/h | 28024m | 5.4m/s | -48.1°C | 3.8% | 16.9hPa | 2.6V | 00:00:00 | 01:46:31 | 00:00:00 | |
| DK7TD | 2026-08-30 12:30:56 | 48.94953 | 10.05907 | 2° | 18km/h | 28030m | 6m/s | -48.1°C | 0.8% | 16.9hPa | 2.7V | 18:12:15 | 01:46:32 | 00:00:00 | |
| DL1XH-west | 2026-08-30 12:30:51 | 48.94926 | 10.05904 | 355° | 24km/h | 28000m | 5.6m/s | -48°C | 0.7% | 17hPa | 2.7V | 18:12:15 | 01:46:27 | 00:00:00 | |
| IW2NTF | 2026-08-30 12:30:50 | 48.94897 | 10.05913 | 337° | 22km/h | 27963m | 5.6m/s | -48.1°C | 3.8% | 17.1hPa | 2.7V | 00:00:00 | 01:46:21 | 00:00:00 | |
| DL1NUX | 2026-08-30 12:30:49 | 48.94915 | 10.05905 | 354° | 18km/h | 27987m | 6.2m/s | -48.1°C | 3.8% | 17hPa | 2.6V | 08:30:00 | 01:46:25 | 00:00:00 | |
| DK7TD | 2026-08-30 12:30:45 | 48.94897 | 10.05913 | 337° | 22km/h | 27963m | 5.6m/s | -48.1°C | 0.8% | 17.1hPa | 2.7V | 18:12:15 | 01:46:21 | 00:00:00 | |
| DL1NUX | 2026-08-30 12:30:44 | 48.94868 | 10.05920 | 352° | 22km/h | 27928m | 6.9m/s | -48.1°C | 3.9% | 17.2hPa | 2.6V | 08:30:00 | 01:46:15 | 00:00:00 | |
| DL1XH-west | 2026-08-30 12:30:41 | 48.94878 | 10.05919 | 3° | 18km/h | 27939m | 5.7m/s | -48.3°C | 0.8% | 17.1hPa | 2.7V | 18:12:15 | 01:46:17 | 00:00:00 | |
| DO3MHA-11 | 2026-08-30 12:30:37 | 48.94856 | 10.05925 | 339° | 22km/h | 27916m | 5.0m/s | -48.1°C | 3.9% | 17.1hPa | 2.6V | 00:00:00 | 01:46:13 | 08:30:00 | |
| IW2NTF | 2026-08-30 12:30:36 | 48.94841 | 10.05936 | 326° | 20km/h | 27897m | 5.6m/s | -48.3°C | 3.9% | 17.2hPa | 2.7V | 00:00:00 | 01:46:10 | 00:00:00 | |
| DK7TD | 2026-08-30 12:30:35 | 48.94845 | 10.05932 | 331° | 22km/h | 27903m | 6.5m/s | -48.3°C | 0.8% | 17.2hPa | 2.7V | 18:12:15 | 01:46:11 | 00:00:00 | |
| DL1NUX | 2026-08-30 12:30:34 | 48.94817 | 10.05963 | 328° | 22km/h | 27868m | 6.4m/s | -48.2°C | 3.8% | 17.3hPa | 2.7V | 08:30:00 | 01:46:05 | 00:00:00 | |
| DL1XH-west | 2026-08-30 12:30:30 | 48.94822 | 10.05958 | 326° | 24km/h | 27874m | 4.5m/s | -48.1°C | 0.7% | 17.3hPa | 2.6V | 18:12:15 | 01:46:06 | 00:00:00 | |
| IW2NTF | 2026-08-30 12:30:30 | 48.94794 | 10.05974 | 343° | 26km/h | 27838m | 6.7m/s | -48°C | 3.8% | 17.4hPa | 2.6V | 00:00:00 | 01:46:00 | 00:00:00 | |
| DK7TD | 2026-08-30 12:30:24 | 48.94794 | 10.05974 | 343° | 26km/h | 27838m | 6.7m/s | -48°C | 0.7% | 17.4hPa | 2.6V | 18:12:15 | 01:46:00 | 00:00:00 | |
| DL1XH-west | 2026-08-30 12:30:20 | 48.94766 | 10.05991 | 338° | 27km/h | 27816m | 6.2m/s | -47.9°C | 0.7% | 17.5hPa | 2.6V | 18:12:15 | 01:45:56 | 00:00:00 | |
| OE5DXL-15 | 2026-08-30 12:30:19 | 48.94760 | 10.05995 | 341° | 24km/h | 27810m | 5.5m/s | -48.0°C | 3.7% | 17.4hPa | 2.6V | 00:00:00 | 00:00:00 | 00:00:00 | |
| SO1NDE-10 | 2026-08-30 12:30:18 | 48.94754 | 10.05998 | 343° | 24km/h | 27804m | 5.9m/s | -48.0°C | 3.8% | 17.4hPa | 2.6V | 00:00:00 | 01:45:54 | 00:00:00 | |
| DO3MHA-11 | 2026-08-30 12:30:17 | 48.94748 | 10.06000 | 344° | 26km/h | 27798m | 6.3m/s | -48.0°C | 3.8% | 17.5hPa | 2.6V | 00:00:00 | 01:45:53 | 00:00:00 | |
| NBG1-10 | 2026-08-30 12:30:16 | 48.94736 | 10.06006 | 341° | 20km/h | 27786m | 5.2m/s | -47.9°C | 3.8% | 17.5hPa | 2.6V | 00:00:00 | 01:45:51 | 00:00:00 | |
| DL1NUX | 2026-08-30 12:30:14 | 48.94708 | 10.06043 | 312° | 31km/h | 27749m | 6.6m/s | -48.6°C | 4% | 17.6hPa | 2.6V | 08:30:00 | 01:45:45 | 00:00:00 | |
| DK7TD | 2026-08-30 12:30:14 | 48.94730 | 10.06010 | 334° | 26km/h | 27780m | 5.4m/s | -48.1°C | 0.7% | 17.6hPa | 2.6V | 18:12:15 | 01:45:50 | 00:00:00 | |
| DL1XH-west | 2026-08-30 12:30:09 | 48.94708 | 10.06043 | 313° | 31km/h | 27749m | 6.6m/s | -48.6°C | 0.8% | 17.6hPa | 2.6V | 18:12:15 | 01:45:45 | 00:00:00 | |
| DO9HM | 2026-08-30 12:30:07 | 48.94695 | 10.06061 | 317° | 35km/h | 27738m | 5.3m/s | -48.5°C | 1.1% | 17.7hPa | 2.6V | 00:00:00 | 00:00:00 | 00:00:00 | |
| DF7PN | 2026-08-30 12:30:05 | 48.94685 | 10.06079 | 308° | 26km/h | 27726m | 6.7m/s | -48.5°C | 1.1% | 17.7hPa | 2.6V | 00:00:00 | 00:00:00 | 00:00:00 | |
| DL1NUX | 2026-08-30 12:30:04 | 48.94669 | 10.06105 | 328° | 11km/h | 27689m | 5.9m/s | -48.3°C | 3.9% | 17.8hPa | 2.6V | 08:30:00 | 01:45:35 | 00:00:00 | |
| DK7TD | 2026-08-30 12:30:03 | 48.94679 | 10.06092 | 303° | 16km/h | 27714m | 5.7m/s | -48.5°C | 0.8% | 17.7hPa | 2.6V | 18:12:15 | 01:45:39 | 00:00:00 | |
| IW2NTF | 2026-08-30 12:30:02 | 48.94671 | 10.06103 | 332° | 13km/h | 27694m | 5.5m/s | -48.3°C | 0% | 17.8hPa | 2.7V | 00:00:00 | 01:45:36 | 00:00:00 | |
| DL1XH-west | 2026-08-30 12:29:58 | 48.94666 | 10.06108 | 315° | 11km/h | 27683m | 6.7m/s | -48.3°C | 0.8% | 17.8hPa | 2.6V | 18:12:15 | 01:45:34 | 00:00:00 | |
| AU51GT2 | 2026-08-30 12:29:57 | 48.94664 | 10.06111 | 302° | 13km/h | 27677m | 5.0m/s | -48.4°C | 1.1% | 17.8hPa | 2.7V | 00:00:00 | 00:00:00 | 00:00:00 | |
| DL9SK-14 | 2026-08-30 12:29:56 | 48.94660 | 10.06122 | 308° | 20km/h | 27667m | 5.9m/s | -48.5°C | 1.1% | 17.9hPa | 2.7V | 00:00:00 | 00:00:00 | 00:00:00 | |
| DL1NUX | 2026-08-30 12:29:55 | 48.94633 | 10.06164 | 296° | 16km/h | 27631m | 6m/s | -48.2°C | 3.9% | 18hPa | 2.7V | 08:30:00 | 01:45:25 | 00:00:00 | |
| IW2NTF | 2026-08-30 12:29:54 | 48.94635 | 10.06158 | 309° | 22km/h | 27637m | 6.7m/s | -48.2°C | 0% | 17.9hPa | 2.6V | 00:00:00 | 01:45:26 | 00:00:00 | |
| DK7TD | 2026-08-30 12:29:52 | 48.94645 | 10.06143 | 320° | 31km/h | 27648m | 5m/s | -48.5°C | 0.8% | 17.9hPa | 2.6V | 18:12:15 | 01:45:28 | 00:00:00 | |
| DL1XH-west | 2026-08-30 12:29:47 | 48.94631 | 10.06171 | 280° | 5km/h | 27620m | 5.8m/s | -48.1°C | 0.7% | 18hPa | 2.7V | 18:12:15 | 01:45:23 | 00:00:00 | |
| SONCRA | 2026-08-30 12:29:45 | 48.94627 | 10.06172 | 7° | 9km/h | 27601m | 5.5m/s | -48.0°C | 1.1% | 18.1hPa | 2.6V | 00:00:00 | 00:00:00 | 00:00:00 | |
| DL1NUX | 2026-08-30 12:29:44 | 48.94611 | 10.06183 | 324° | 24km/h | 27571m | 7.3m/s | -48°C | 3.7% | 18.1hPa | 2.6V | 08:30:00 | 01:45:15 | 00:00:00 | |
| DB0UT-7 | 2026-08-30 12:29:44 | 48.94627 | 10.06172 | 8° | 13km/h | 27601m | 5.5m/s | -48.0°C | 3.8% | 18.0hPa | 2.6V | 00:00:00 | 01:45:20 | 00:00:00 | |
| DJ8HS-15 | 2026-08-30 12:29:43 | 48.94625 | 10.06172 | 360° | 13km/h | 27596m | 5.8m/s | -48.0°C | 3.7% | 18.0hPa | 2.6V | 00:00:00 | 01:45:19 | 00:00:00 | |
| IW2NTF | 2026-08-30 12:29:42 | 48.94616 | 10.06178 | 324° | 20km/h | 27577m | 5.6m/s | -48°C | 0% | 18.1hPa | 2.6V | 00:00:00 | 01:45:16 | 00:00:00 | |
| DK7TD | 2026-08-30 12:29:41 | 48.94619 | 10.06174 | 328° | 15km/h | 27583m | 5.4m/s | -48°C | 0.7% | 18.1hPa | 2.6V | 18:12:15 | 01:45:17 | 00:00:00 | |
| DL1XH-west | 2026-08-30 12:29:36 | 48.94596 | 10.06201 | 316° | 22km/h | 27553m | 6.7m/s | -48.2°C | 0.8% | 18.2hPa | 2.7V | 18:12:15 | 01:45:12 | 00:00:00 | |
| IW2NTF | 2026-08-30 12:29:36 | 48.94587 | 10.06210 | 21° | 9km/h | 27517m | 5.5m/s | -48.3°C | 0% | 18.3hPa | 2.6V | 00:00:00 | 01:45:06 | 00:00:00 | |
| DG9SBQ-11 | 2026-08-30 12:29:35 | 48.94596 | 10.06201 | 317° | 22km/h | 27553m | 6.7m/s | -48.2°C | 1.1% | 18.2hPa | 2.6V | 00:00:00 | 00:00:00 | 00:00:00 | |
| DL1NUX | 2026-08-30 12:29:34 | 48.94585 | 10.06209 | 26° | 9km/h | 27511m | 5.4m/s | -48.3°C | 3.8% | 18.3hPa | 2.6V | 08:30:00 | 01:45:05 | 00:00:00 | |
| DK7TD | 2026-08-30 12:29:31 | 48.94588 | 10.06211 | 14° | 7km/h | 27523m | 6.4m/s | -48.3°C | 0.7% | 18.3hPa | 2.7V | 18:12:15 | 01:45:07 | 00:00:00 | |
| DL1XH-west | 2026-08-30 12:29:26 | 48.94580 | 10.06205 | 15° | 7km/h | 27493m | 5.8m/s | -48.5°C | 0.8% | 18.4hPa | 2.7V | 18:12:15 | 01:45:02 | 00:00:00 | |
| DL9SK-14 | 2026-08-30 12:29:25 | 48.94575 | 10.06205 | 351° | 13km/h | 27480m | 6.5m/s | -48.7°C | 1.2% | 18.4hPa | 2.6V | 00:00:00 | 00:00:00 | 00:00:00 | |
| DJ8HS-15 | 2026-08-30 12:29:23 | 48.94571 | 10.06206 | 347° | 18km/h | 27474m | 5.3m/s | -48.6°C | 4.0% | 18.4hPa | 2.6V | 00:00:00 | 01:44:59 | 00:00:00 | |
| IW2NTF | 2026-08-30 12:29:22 | 48.94562 | 10.06209 | 358° | 7km/h | 27455m | 6m/s | -48.8°C | 0% | 18.4hPa | 2.7V | 00:00:00 | 01:44:56 | 00:00:00 | |
| DL1NUX | 2026-08-30 12:29:21 | 48.94560 | 10.06209 | 17° | 7km/h | 27449m | 5.7m/s | -48.9°C | 4% | 18.5hPa | 2.7V | 08:30:00 | 01:44:55 | 00:00:00 | |
| DK7TD | 2026-08-30 12:29:21 | 48.94562 | 10.06209 | 358° | 7km/h | 27455m | 6m/s | -48.8°C | 0.8% | 18.4hPa | 2.7V | 18:12:15 | 01:44:56 | 00:00:00 | |
| DL1XH-west | 2026-08-30 12:29:15 | 48.94549 | 10.06202 | 26° | 15km/h | 27424m | 6m/s | -49°C | 0.9% | 18.6hPa | 2.6V | 18:12:15 | 01:44:51 | 00:00:00 | |
| DL1NUX | 2026-08-30 12:29:15 | 48.94519 | 10.06197 | 352° | 31km/h | 27387m | 5.3m/s | -48.9°C | 4% | 18.6hPa | 2.7V | 08:30:00 | 01:44:45 | 00:00:00 | |
| DL1XH-west | 2026-08-30 12:29:05 | 48.94493 | 10.06200 | 10° | 16km/h | 27364m | 4.9m/s | -49°C | 0.8% | 18.7hPa | 2.6V | 18:12:15 | 01:44:41 | 00:00:00 | |
| DL1NUX | 2026-08-30 12:29:04 | 48.94463 | 10.06199 | 345° | 26km/h | 27330m | 5.4m/s | -49.1°C | 4.1% | 18.8hPa | 2.6V | 08:30:00 | 01:44:35 | 00:00:00 | |
| DJ8HS-15 | 2026-08-30 12:29:03 | 48.94486 | 10.06197 | 13° | 22km/h | 27354m | 6.3m/s | -49.0°C | 4.0% | 18.7hPa | 2.7V | 00:00:00 | 01:44:39 | 00:00:00 | |
| IW2NTF | 2026-08-30 12:29:02 | 48.94457 | 10.06202 | 343° | 24km/h | 27324m | 5.9m/s | -49°C | 0% | 18.8hPa | 2.7V | 00:00:00 | 01:44:34 | 00:00:00 | |
| DK7TD | 2026-08-30 12:28:58 | 48.94457 | 10.06202 | 343° | 24km/h | 27324m | 5.9m/s | -49°C | 0.8% | 18.8hPa | 2.7V | 18:12:15 | 01:44:34 | 00:00:00 | |
| DL1XH-west | 2026-08-30 12:28:55 | 48.94436 | 10.06210 | 347° | 24km/h | 27300m | 6.9m/s | -49.2°C | 0.9% | 18.9hPa | 2.6V | 18:12:15 | 01:44:30 | 00:00:00 | |
| AU51GT2 | 2026-08-30 12:28:55 | 48.94441 | 10.06208 | 346° | 20km/h | 27306m | 5.3m/s | -49.2°C | 1.2% | 18.9hPa | 2.6V | 00:00:00 | 00:00:00 | 00:00:00 | |
| DL9SK-14 | 2026-08-30 12:28:54 | 48.94413 | 10.06220 | 341° | 18km/h | 27276m | 6.6m/s | -49.2°C | 1.2% | 19.0hPa | 2.6V | 00:00:00 | 00:00:00 | 00:00:00 | |
| DG9SBQ-11 | 2026-08-30 12:28:51 | 48.94424 | 10.06215 | 345° | 26km/h | 27288m | 5.0m/s | -49.1°C | 1.2% | 18.9hPa | 2.6V | 00:00:00 | 00:00:00 | 00:00:00 | |
| IW2NTF | 2026-08-30 12:28:49 | 48.94404 | 10.06225 | 341° | 18km/h | 27264m | 5.6m/s | -49°C | 0% | 19hPa | 2.6V | 00:00:00 | 01:44:24 | 00:00:00 | |
| DK7TD | 2026-08-30 12:28:47 | 48.94399 | 10.06227 | 344° | 20km/h | 27258m | 6.6m/s | -49°C | 0.9% | 19hPa | 2.6V | 18:12:15 | 01:44:23 | 00:00:00 | |
| DL1XH-west | 2026-08-30 12:28:44 | 48.94383 | 10.06236 | 330° | 24km/h | 27240m | 6.9m/s | -49.1°C | 0.8% | 19.1hPa | 2.7V | 18:12:15 | 01:44:20 | 00:00:00 | |
| DB0UT-7 | 2026-08-30 12:28:44 | 48.94383 | 10.06236 | 330° | 26km/h | 27240m | 6.9m/s | -49.0°C | 4.0% | 19.0hPa | 2.7V | 00:00:00 | 01:44:20 | 00:00:00 | |
| SONCRA | 2026-08-30 12:28:43 | 48.94373 | 10.06249 | 314° | 29km/h | 27228m | 4.9m/s | -48.9°C | 1.2% | 19.1hPa | 2.7V | 00:00:00 | 00:00:00 | 00:00:00 | |
| OE5DXL-15 | 2026-08-30 12:28:41 | 48.94368 | 10.06257 | 316° | 26km/h | 27223m | 6.2m/s | -48.8°C | 4.0% | 19.1hPa | 2.7V | 00:00:00 | 00:00:00 | 00:00:00 | |
| DL1NUX | 2026-08-30 12:28:40 | 48.94354 | 10.06275 | 321° | 37km/h | 27210m | 5.2m/s | -48.9°C | 4% | 19.1hPa | 2.7V | 08:30:00 | 01:44:15 | 00:00:00 | |
| DK7TD | 2026-08-30 12:28:36 | 48.94336 | 10.06298 | 322° | 24km/h | 27192m | 5.5m/s | -48.8°C | 0.9% | 19.2hPa | 2.6V | 18:12:15 | 01:44:12 | 00:00:00 | |
| DL1XH-west | 2026-08-30 12:28:33 | 48.94323 | 10.06310 | 335° | 20km/h | 27176m | 6.2m/s | -48.7°C | 0.8% | 19.2hPa | 2.7V | 18:12:15 | 01:44:09 | 00:00:00 | |
| DF7PN | 2026-08-30 12:28:32 | 48.94319 | 10.06313 | 333° | 20km/h | 27170m | 5.5m/s | -48.7°C | 1.1% | 19.3hPa | 2.6V | 00:00:00 | 00:00:00 | 00:00:00 | |
| DL1NUX | 2026-08-30 12:28:30 | 48.94305 | 10.06328 | 311° | 22km/h | 27152m | 6.8m/s | -48.7°C | 4% | 19.3hPa | 2.6V | 08:30:00 | 01:44:05 | 00:00:00 | |
| DK7TD | 2026-08-30 12:28:26 | 48.94294 | 10.06348 | 314° | 26km/h | 27135m | 7m/s | -48.6°C | 0.8% | 19.4hPa | 2.7V | 18:12:15 | 01:44:02 | 00:00:00 | |
| DL1XH-west | 2026-08-30 12:28:22 | 48.94272 | 10.06372 | 327° | 24km/h | 27112m | 6.6m/s | -48.6°C | 0.8% | 19.5hPa | 2.7V | 18:12:15 | 01:43:58 | 00:00:00 | |
| DL1NUX | 2026-08-30 12:28:20 | 48.94262 | 10.06385 | 313° | 16km/h | 27095m | 5.4m/s | -48.7°C | 3.9% | 19.5hPa | 2.6V | 08:30:00 | 01:43:55 | 00:00:00 | |
| DK7TD | 2026-08-30 12:28:15 | 48.94244 | 10.06407 | 322° | 29km/h | 27071m | 4.9m/s | -48.8°C | 0.8% | 19.6hPa | 2.7V | 18:12:15 | 01:43:51 | 00:00:00 | |
| DB0UT-7 | 2026-08-30 12:28:14 | 48.94238 | 10.06414 | 319° | 26km/h | 27066m | 6.5m/s | -48.6°C | 3.9% | 19.6hPa | 2.7V | 00:00:00 | 00:00:00 | 00:00:00 | |
| DL1NUX | 2026-08-30 12:28:12 | 48.94214 | 10.06446 | 333° | 27km/h | 27036m | 6m/s | -48.8°C | 4% | 19.7hPa | 2.7V | 08:30:00 | 01:43:45 | 00:00:00 | |
| DL1XH-west | 2026-08-30 12:28:12 | 48.94229 | 10.06428 | 312° | 24km/h | 27053m | 5.2m/s | -48.8°C | 0.8% | 19.6hPa | 2.6V | 18:12:15 | 01:43:48 | 00:00:00 | |
| DK7TD | 2026-08-30 12:28:04 | 48.94188 | 10.06466 | 323° | 20km/h | 27008m | 4.6m/s | -48.8°C | 0.8% | 19.8hPa | 2.7V | 18:12:15 | 01:43:40 | 00:00:00 | |
| DL1XH-west | 2026-08-30 12:28:01 | 48.94174 | 10.06481 | 329° | 27km/h | 26990m | 5.3m/s | -48.7°C | 0.8% | 19.8hPa | 2.6V | 18:12:15 | 01:43:37 | 00:00:00 | |
| DG9SBQ-11 | 2026-08-30 12:28:00 | 48.94173 | 10.06480 | 330° | 27km/h | 26991m | 5.3m/s | -48.7°C | 1.1% | 19.8hPa | 2.6V | 00:00:00 | 00:00:00 | 00:00:00 | |
| DK5PH-5 | 2026-08-30 12:27:59 | 48.94162 | 10.06492 | 323° | 27km/h | 26980m | 5.9m/s | -48.6°C | 3.9% | 19.8hPa | 2.6V | 00:00:00 | 01:43:35 | 08:30:00 | |
| DO3MHA-11 | 2026-08-30 12:27:57 | 48.94154 | 10.06503 | 311° | 24km/h | 26968m | 5.5m/s | -48.7°C | 3.9% | 19.8hPa | 2.6V | 00:00:00 | 01:43:33 | 00:00:00 | |
| DG9SBQ-11 | 2026-08-30 12:27:55 | 48.94147 | 10.06515 | 321° | 24km/h | 26957m | 6.7m/s | -48.8°C | 1.1% | 19.9hPa | 2.6V | 00:00:00 | 00:00:00 | 00:00:00 | |
| DL1NUX | 2026-08-30 12:27:54 | 48.94115 | 10.06544 | 328° | 26km/h | 26922m | 5.6m/s | -48.9°C | 4% | 20hPa | 2.6V | 08:30:00 | 01:43:25 | 00:00:00 | |
| DK7TD | 2026-08-30 12:27:54 | 48.94142 | 10.06521 | 327° | 26km/h | 26950m | 6m/s | -48.9°C | 0.8% | 20hPa | 2.6V | 18:12:15 | 01:43:30 | 00:00:00 | |
| DL1XH-west | 2026-08-30 12:27:50 | 48.94120 | 10.06539 | 330° | 24km/h | 26927m | 5.3m/s | -48.9°C | 0.8% | 20hPa | 2.6V | 18:12:15 | 01:43:26 | 00:00:00 | |
| DK7TD | 2026-08-30 12:27:43 | 48.94084 | 10.06588 | 300° | 26km/h | 26886m | 5.6m/s | -48.8°C | 0.9% | 20.1hPa | 2.6V | 18:12:15 | 01:43:19 | 00:00:00 | |
| DJ8HS-15 | 2026-08-30 12:27:43 | 48.94084 | 10.06588 | 301° | 27km/h | 26886m | 5.6m/s | -48.8°C | 4.0% | 20.1hPa | 2.7V | 00:00:00 | 01:43:19 | 00:00:00 | |
| DL1NUX | 2026-08-30 12:27:42 | 48.94068 | 10.06620 | 311° | 26km/h | 26864m | 4.9m/s | -48.9°C | 4% | 20.2hPa | 2.7V | 08:30:00 | 01:43:15 | 00:00:00 | |
| DL1XH-west | 2026-08-30 12:27:38 | 48.94064 | 10.06627 | 310° | 24km/h | 26858m | 6.8m/s | -48.8°C | 0.8% | 20.2hPa | 2.6V | 18:12:15 | 01:43:14 | 00:00:00 | |
| DK7TD | 2026-08-30 12:27:32 | 48.94040 | 10.06679 | 310° | 37km/h | 26824m | 5m/s | -48.7°C | 0.8% | 20.3hPa | 2.6V | 18:12:15 | 01:43:08 | 00:00:00 | |
| DL1NUX | 2026-08-30 12:27:29 | 48.94024 | 10.06710 | 301° | 27km/h | 26809m | 6.2m/s | -48.8°C | 4% | 20.4hPa | 2.6V | 08:30:00 | 01:43:05 | 00:00:00 | |
| DL1XH-west | 2026-08-30 12:27:28 | 48.94021 | 10.06718 | 296° | 22km/h | 26803m | 5.7m/s | -48.8°C | 0.9% | 20.4hPa | 2.7V | 18:12:15 | 01:43:04 | 00:00:00 | |
| DO3MHA-11 | 2026-08-30 12:27:27 | 48.94019 | 10.06726 | 294° | 29km/h | 26798m | 5.3m/s | -48.7°C | 4.0% | 20.4hPa | 2.6V | 00:00:00 | 01:43:03 | 00:00:00 | |
| DG9SBQ-11 | 2026-08-30 12:27:26 | 48.94019 | 10.06726 | 294° | 22km/h | 26798m | 5.3m/s | -48.7°C | 1.2% | 20.4hPa | 2.6V | 00:00:00 | 00:00:00 | 00:00:00 | |
| DF3TZ-5 | 2026-08-30 12:27:23 | 48.94001 | 10.06784 | 293° | 31km/h | 26764m | 6.3m/s | -48.8°C | 1.1% | 20.5hPa | 2.6V | 00:00:00 | 00:00:00 | 00:00:00 | |
| DL1NUX | 2026-08-30 12:27:22 | 48.93995 | 10.06807 | 293° | 33km/h | 26752m | 6.2m/s | -48.8°C | 3.9% | 20.6hPa | 2.6V | 08:30:00 | 01:42:55 | 00:00:00 | |
| DK7TD | 2026-08-30 12:27:21 | 48.94001 | 10.06784 | 293° | 31km/h | 26764m | 6.3m/s | -48.8°C | 0.7% | 20.5hPa | 2.7V | 18:12:15 | 01:42:57 | 00:00:00 | |
| DL1XH-west | 2026-08-30 12:27:17 | 48.93987 | 10.06831 | 297° | 35km/h | 26740m | 4.7m/s | -48.8°C | 0.8% | 20.6hPa | 2.7V | 18:12:15 | 01:42:53 | 00:00:00 | |
| DK7TD | 2026-08-30 12:27:11 | 48.93976 | 10.06895 | 277° | 29km/h | 26707m | 6.3m/s | -48.7°C | 0.8% | 20.7hPa | 2.6V | 18:12:15 | 01:42:47 | 00:00:00 | |
| DL1NUX | 2026-08-30 12:27:09 | 48.93973 | 10.06919 | 284° | 37km/h | 26696m | 4.6m/s | -48.7°C | 3.9% | 20.7hPa | 2.7V | 08:30:00 | 01:42:45 | 00:00:00 | |
| DL1XH-west | 2026-08-30 12:27:06 | 48.93966 | 10.06959 | 285° | 31km/h | 26681m | 5.9m/s | -49°C | 0.9% | 20.8hPa | 2.6V | 18:12:15 | 01:42:42 | 00:00:00 | |
| DB0ND-19 | 2026-08-30 12:27:05 | 48.93962 | 10.06978 | 290° | 20km/h | 26670m | 5.2m/s | -48.8°C | 1.1% | 20.8hPa | 2.7V | 00:00:00 | 00:00:00 | 00:00:00 | |
| DL1NUX | 2026-08-30 12:27:04 | 48.93950 | 10.07016 | 282° | 24km/h | 26643m | 5.8m/s | -49.2°C | 4% | 20.9hPa | 2.7V | 08:30:00 | 01:42:35 | 00:00:00 | |
| DK7TD | 2026-08-30 12:27:00 | 48.93951 | 10.07008 | 294° | 24km/h | 26648m | 4.4m/s | -49.2°C | 0.8% | 20.9hPa | 2.6V | 18:12:15 | 01:42:36 | 00:00:00 | |
| DG9SBQ-11 | 2026-08-30 12:26:59 | 48.93949 | 10.07016 | 283° | 24km/h | 26644m | 5.9m/s | -49.2°C | 1.1% | 20.9hPa | 2.6V | 00:00:00 | 00:00:00 | 00:00:00 | |
| DO3MHA-11 | 2026-08-30 12:26:57 | 48.93950 | 10.07034 | 257° | 26km/h | 26631m | 5.9m/s | -49.0°C | 4.0% | 20.9hPa | 2.6V | 00:00:00 | 01:42:33 | 00:00:00 | |
| DO9HM | 2026-08-30 12:26:55 | 48.93954 | 10.07056 | 258° | 31km/h | 26619m | 6.5m/s | -49.2°C | 1.2% | 21.0hPa | 2.6V | 00:00:00 | 00:00:00 | 00:00:00 | |
| DL1NUX | 2026-08-30 12:26:54 | 48.93962 | 10.07114 | 256° | 22km/h | 26588m | 5.3m/s | -49.4°C | 4.1% | 21.1hPa | 2.6V | 08:30:00 | 01:42:25 | 00:00:00 | |
| DK7TD | 2026-08-30 12:26:50 | 48.93961 | 10.07106 | 252° | 22km/h | 26593m | 4.8m/s | -49.4°C | 0.9% | 21.1hPa | 2.7V | 18:12:15 | 01:42:26 | 00:00:00 | |
| DL6DJ-15 | 2026-08-30 12:26:50 | 48.93963 | 10.07114 | 256° | 20km/h | 26588m | 5.3m/s | -49.4°C | 1.2% | 21.1hPa | 2.7V | 00:00:00 | 00:00:00 | 00:00:00 | |
| DL9SK-14 | 2026-08-30 12:26:49 | 48.93963 | 10.07114 | 256° | 20km/h | 26588m | 5.3m/s | -49.4°C | -1.0% | -1.0hPa | 2.7V | 00:00:00 | 00:00:00 | 00:00:00 | |
| SO1NDE-10 | 2026-08-30 12:26:48 | 48.93963 | 10.07122 | 267° | 11km/h | 26582m | 6.6m/s | -49.3°C | 4.1% | 21.1hPa | 2.7V | 00:00:00 | 01:42:24 | 00:00:00 | |
| DG9SBQ-11 | 2026-08-30 12:26:47 | 48.93963 | 10.07130 | 278° | 22km/h | 26576m | 5.3m/s | -49.2°C | 1.2% | 21.1hPa | 2.7V | 00:00:00 | 00:00:00 | 00:00:00 | |
| DJ8HS-15 | 2026-08-30 12:26:43 | 48.93962 | 10.07154 | 246° | 11km/h | 26554m | 5.4m/s | -49.2°C | 4.1% | 21.2hPa | 2.7V | 00:00:00 | 01:42:19 | 00:00:00 | |
| DL1NUX | 2026-08-30 12:26:42 | 48.93966 | 10.07169 | 260° | 13km/h | 26532m | 4.7m/s | -49.3°C | 4% | 21.3hPa | 2.7V | 08:30:00 | 01:42:15 | 00:00:00 | |
| DK7TD | 2026-08-30 12:26:39 | 48.93966 | 10.07169 | 261° | 13km/h | 26532m | 4.7m/s | -49.3°C | 0.8% | 21.3hPa | 2.7V | 18:12:15 | 01:42:15 | 00:00:00 | |
| DL1XH-west | 2026-08-30 12:26:37 | 48.93968 | 10.07179 | 247° | 13km/h | 26520m | 6.2m/s | -49.4°C | 0.9% | 21.3hPa | 2.6V | 18:12:15 | 01:42:13 | 00:00:00 | |
| DG9SBQ-11 | 2026-08-30 12:26:36 | 48.93968 | 10.07179 | 248° | 13km/h | 26520m | 6.2m/s | -49.4°C | 1.2% | 21.3hPa | 2.6V | 00:00:00 | 00:00:00 | 00:00:00 | |
| DL1NUX | 2026-08-30 12:26:34 | 48.93970 | 10.07219 | 244° | 4km/h | 26474m | 4.6m/s | -49.2°C | 4% | 21.4hPa | 2.6V | 08:30:00 | 01:42:05 | 00:00:00 | |
| DK7TD | 2026-08-30 12:26:29 | 48.93970 | 10.07219 | 244° | 4km/h | 26474m | 4.6m/s | -49.2°C | 0.8% | 21.5hPa | 2.6V | 18:12:15 | 01:42:05 | 00:00:00 | |
| DK5PH-5 | 2026-08-30 12:26:29 | 48.93970 | 10.07219 | 245° | 9km/h | 26475m | 4.5m/s | -49.2°C | 4.0% | 21.4hPa | 2.6V | 00:00:00 | 01:42:05 | 00:00:00 | |
| DF7PN | 2026-08-30 12:26:28 | 48.93970 | 10.07221 | 297° | 4km/h | 26464m | 6.5m/s | -49.3°C | 1.1% | 21.5hPa | 2.7V | 00:00:00 | 00:00:00 | 00:00:00 | |
| DO3MHA-11 | 2026-08-30 12:26:27 | 48.93970 | 10.07221 | 298° | 7km/h | 26464m | 6.4m/s | -49.3°C | 4.0% | 21.5hPa | 2.7V | 00:00:00 | 01:42:03 | 00:00:00 | |
| DG9SBQ-11 | 2026-08-30 12:26:25 | 48.93969 | 10.07223 | 309° | 7km/h | 26458m | 5.9m/s | -49.4°C | 1.1% | 21.5hPa | 2.7V | 00:00:00 | 00:00:00 | 00:00:00 | |
| NBG1-10 | 2026-08-30 12:26:24 | 48.93967 | 10.07227 | 303° | 11km/h | 26447m | 6.0m/s | -49.3°C | 4.0% | 21.5hPa | 2.7V | 00:00:00 | 01:42:00 | 00:00:00 | |
| DJ8HS-15 | 2026-08-30 12:26:23 | 48.93967 | 10.07229 | 285° | 7km/h | 26441m | 6.3m/s | -49.4°C | 4.0% | 21.5hPa | 2.7V | 00:00:00 | 01:41:59 | 00:00:00 | |
| DL1NUX | 2026-08-30 12:26:22 | 48.93964 | 10.07236 | 324° | 9km/h | 26418m | 5.7m/s | -49.6°C | 4.1% | 21.6hPa | 2.6V | 08:30:00 | 01:41:55 | 00:00:00 | |
| DK7TD | 2026-08-30 12:26:18 | 48.93961 | 10.07238 | 328° | 9km/h | 26412m | 5m/s | -49.6°C | 0.9% | 21.7hPa | 2.6V | 18:12:15 | 01:41:54 | 00:00:00 | |
| SO1NDE-10 | 2026-08-30 12:26:18 | 48.93961 | 10.07238 | 329° | 13km/h | 26412m | 5.0m/s | -49.6°C | 4.1% | 21.6hPa | 2.6V | 00:00:00 | 01:41:54 | 00:00:00 | |
| DO3MHA-11 | 2026-08-30 12:26:17 | 48.93959 | 10.07240 | 330° | 7km/h | 26407m | 6.5m/s | -49.6°C | 4.1% | 21.6hPa | 2.7V | 00:00:00 | 01:41:53 | 00:00:00 | |
| DO9HM | 2026-08-30 12:26:15 | 48.93957 | 10.07241 | 350° | 4km/h | 26395m | 4.8m/s | -49.7°C | 1.2% | 21.7hPa | 2.7V | 00:00:00 | 00:00:00 | 00:00:00 | |
| DL1NUX | 2026-08-30 12:26:14 | 48.93948 | 10.07246 | 334° | 5km/h | 26360m | 5.2m/s | -49.9°C | 4.1% | 21.8hPa | 2.7V | 08:30:00 | 01:41:45 | 00:00:00 | |
| DK7TD | 2026-08-30 12:26:08 | 48.93946 | 10.07247 | 332° | 7km/h | 26355m | 4.5m/s | -49.8°C | 0.9% | 21.9hPa | 2.6V | 18:12:15 | 01:41:44 | 00:00:00 | |
| DO3MHA-11 | 2026-08-30 12:26:07 | 48.93944 | 10.07249 | 334° | 16km/h | 26350m | 6.7m/s | -49.8°C | 4.1% | 21.8hPa | 2.6V | 00:00:00 | 01:41:43 | 08:30:00 | |
| DJ8HS-15 | 2026-08-30 12:26:03 | 48.93929 | 10.07257 | 350° | 18km/h | 26325m | 5.6m/s | -49.8°C | 4.1% | 21.9hPa | 2.6V | 00:00:00 | 01:41:39 | 00:00:00 | |
| DL1NUX | 2026-08-30 12:26:02 | 48.93911 | 10.07261 | 345° | 20km/h | 26303m | 4.9m/s | -49.8°C | 4.1% | 22hPa | 2.6V | 08:30:00 | 01:41:35 | 00:00:00 | |
| DK7TD | 2026-08-30 12:25:59 | 48.93907 | 10.07263 | 343° | 16km/h | 26298m | 5.1m/s | -49.8°C | 0.8% | 22hPa | 2.7V | 18:12:15 | 01:41:34 | 00:00:00 | |
| DF7PN | 2026-08-30 12:25:57 | 48.93901 | 10.07267 | 328° | 9km/h | 26286m | 5.9m/s | -49.9°C | 1.2% | 22.1hPa | 2.6V | 00:00:00 | 00:00:00 | 00:00:00 | |
| DL1NUX | 2026-08-30 12:25:54 | 48.93869 | 10.07266 | 26° | 20km/h | 26241m | 5.5m/s | -50.1°C | 4.1% | 22.3hPa | 2.6V | 08:30:00 | 01:41:24 | 00:00:00 | |
| DL1XH-west | 2026-08-30 12:25:50 | 48.93879 | 10.07271 | 9° | 22km/h | 26253m | 6.3m/s | -50°C | 0.9% | 22.2hPa | 2.6V | 18:12:15 | 01:41:26 | 00:00:00 | |
| DK7TD | 2026-08-30 12:25:47 | 48.93864 | 10.07262 | 28° | 22km/h | 26236m | 4.8m/s | -50.1°C | 0.9% | 22.3hPa | 2.7V | 18:12:15 | 01:41:23 | 00:00:00 | |
| DO3MHA-11 | 2026-08-30 12:25:47 | 48.93864 | 10.07262 | 28° | 18km/h | 26236m | 4.7m/s | -50.0°C | 4.1% | 22.2hPa | 2.7V | 00:00:00 | 01:41:23 | 00:00:00 | |
| HEMX73-6 | 2026-08-30 12:25:44 | 48.93848 | 10.07253 | 11° | 18km/h | 26218m | 4.9m/s | 0°C | 0% | 0hPa | 2.7V | 00:00:00 | 01:41:20 | 00:00:00 | |
| DL1NUX | 2026-08-30 12:25:43 | 48.93827 | 10.07265 | 330° | 20km/h | 26183m | 5.5m/s | -50.4°C | 4.3% | 22.4hPa | 2.7V | 08:30:00 | 01:41:14 | 00:00:00 | |
| DK7TD | 2026-08-30 12:25:37 | 48.93823 | 10.07268 | 336° | 22km/h | 26177m | 5.2m/s | -50.4°C | 1% | 22.5hPa | 2.6V | 18:12:15 | 01:41:13 | 00:00:00 | |
| DO3MHA-11 | 2026-08-30 12:25:37 | 48.93823 | 10.07268 | 336° | 22km/h | 26177m | 5.2m/s | -50.4°C | 4.2% | 22.4hPa | 2.6V | 00:00:00 | 01:41:13 | 00:00:00 | |
| SONCRA | 2026-08-30 12:25:36 | 48.93818 | 10.07271 | 341° | 20km/h | 26171m | 6.7m/s | -50.5°C | 1.2% | 22.5hPa | 2.7V | 00:00:00 | 00:00:00 | 00:00:00 | |
| DL1NUX | 2026-08-30 12:25:33 | 48.93774 | 10.07275 | 358° | 15km/h | 26123m | 5.9m/s | -50.5°C | 4.2% | 22.6hPa | 2.7V | 08:30:00 | 01:41:04 | 00:00:00 | |
| DL1XH-west | 2026-08-30 12:25:27 | 48.93771 | 10.07276 | 348° | 15km/h | 26118m | 5.1m/s | -50.6°C | 0.9% | 22.7hPa | 2.7V | 18:12:15 | 01:41:03 | 00:00:00 | |
| DK7TD | 2026-08-30 12:25:26 | 48.93767 | 10.07277 | 340° | 16km/h | 26112m | 6.6m/s | -50.7°C | 1.1% | 22.6hPa | 2.6V | 18:12:15 | 01:41:02 | 00:00:00 | |
| DF7PN | 2026-08-30 12:25:25 | 48.93763 | 10.07280 | 335° | 20km/h | 26106m | 6.0m/s | -50.7°C | 1.2% | 22.7hPa | 2.7V | 00:00:00 | 00:00:00 | 00:00:00 | |
| DJ8HS-15 | 2026-08-30 12:25:23 | 48.93753 | 10.07287 | 337° | 18km/h | 26095m | 5.7m/s | -50.5°C | 4.2% | 22.7hPa | 2.7V | 00:00:00 | 01:40:59 | 08:30:00 | |
| DL1NUX | 2026-08-30 12:25:21 | 48.93731 | 10.07299 | 338° | 22km/h | 26063m | 6.1m/s | -50.8°C | 4.2% | 22.9hPa | 2.7V | 08:30:00 | 01:40:54 | 00:00:00 | |
| DK7TD | 2026-08-30 12:25:15 | 48.93717 | 10.07309 | 330° | 16km/h | 26047m | 6.6m/s | -50.8°C | 1% | 22.9hPa | 2.6V | 18:12:15 | 01:40:51 | 00:00:00 | |
| DL1XH-west | 2026-08-30 12:25:14 | 48.93713 | 10.07312 | 327° | 16km/h | 26041m | 5.8m/s | -50.8°C | 1% | 22.9hPa | 2.7V | 18:12:15 | 01:40:50 | 00:00:00 | |
| DO9HM | 2026-08-30 12:25:13 | 48.93713 | 10.07312 | 328° | 16km/h | 26041m | 5.8m/s | -50.8°C | 1.3% | 22.9hPa | 2.7V | 00:00:00 | 00:00:00 | 00:00:00 | |
| DG9SBQ-11 | 2026-08-30 12:25:12 | 48.93706 | 10.07319 | 329° | 20km/h | 26028m | 6.4m/s | -50.7°C | 1.2% | 23.0hPa | 2.7V | 00:00:00 | 00:00:00 | 00:00:00 | |
| DL1NUX | 2026-08-30 12:25:08 | 48.93690 | 10.07333 | 334° | 13km/h | 26004m | 5.9m/s | -50.9°C | 4.3% | 23.1hPa | 2.7V | 08:30:00 | 01:40:44 | 00:00:00 | |
| DK7TD | 2026-08-30 12:25:04 | 48.93677 | 10.07342 | 336° | 15km/h | 25981m | 4.9m/s | -51.1°C | 1% | 23.1hPa | 2.7V | 18:12:15 | 01:40:40 | 00:00:00 | |
| DL1XH-west | 2026-08-30 12:25:03 | 48.93674 | 10.07344 | 334° | 13km/h | 25975m | 6.4m/s | -51.1°C | 1% | 23.2hPa | 2.6V | 18:12:15 | 01:40:39 | 00:00:00 | |
| DK7TD | 2026-08-30 12:24:54 | 48.93656 | 10.07385 | 284° | 15km/h | 25921m | 4.9m/s | -51.1°C | 1% | 23.4hPa | 2.7V | 18:12:15 | 01:40:30 | 00:00:00 | |
| DL1XH-west | 2026-08-30 12:24:53 | 48.93655 | 10.07390 | 290° | 13km/h | 25916m | 6.3m/s | -51°C | 1% | 23.4hPa | 2.7V | 18:12:15 | 01:40:29 | 00:00:00 | |
| DF3TZ-5 | 2026-08-30 12:24:47 | 48.93650 | 10.07412 | 271° | 9km/h | 25881m | 5.1m/s | -51.0°C | 1.2% | 23.5hPa | 2.6V | 00:00:00 | 00:00:00 | 00:00:00 | |
| DL6DJ-15 | 2026-08-30 12:24:46 | 48.93648 | 10.07421 | 297° | 15km/h | 25868m | 5.8m/s | -51.1°C | 1.2% | 23.6hPa | 2.6V | 00:00:00 | 00:00:00 | 00:00:00 | |
| DL9SK-14 | 2026-08-30 12:24:45 | 48.93646 | 10.07427 | 299° | 16km/h | 25862m | 5.3m/s | -51.2°C | 1.2% | 23.6hPa | 2.6V | 00:00:00 | 00:00:00 | 00:00:00 | |
| DK7TD | 2026-08-30 12:24:43 | 48.93644 | 10.07433 | 293° | 18km/h | 25857m | 5.7m/s | -51.3°C | 1% | 23.6hPa | 2.6V | 18:12:15 | 01:40:19 | 00:00:00 | |
| DL1XH-west | 2026-08-30 12:24:42 | 48.93643 | 10.07439 | 283° | 16km/h | 25850m | 6.9m/s | -51.4°C | 1% | 23.6hPa | 2.7V | 18:12:15 | 01:40:18 | 00:00:00 | |
| DK7TD | 2026-08-30 12:24:33 | 48.93634 | 10.07465 | 297° | 13km/h | 25798m | 5m/s | -51.6°C | 1.1% | 23.8hPa | 2.6V | 18:12:15 | 01:40:09 | 00:00:00 | |
| DL1XH-west | 2026-08-30 12:24:32 | 48.93632 | 10.07470 | 301° | 16km/h | 25792m | 6.7m/s | -51.7°C | 1.2% | 23.9hPa | 2.6V | 18:12:15 | 01:40:08 | 00:00:00 | |
| DO9HM | 2026-08-30 12:24:31 | 48.93632 | 10.07470 | 302° | 16km/h | 25792m | 6.7m/s | -51.7°C | 1.4% | 23.9hPa | 2.7V | 00:00:00 | 00:00:00 | 00:00:00 | |
| DL1ZP-14 | 2026-08-30 12:24:30 | 48.93624 | 10.07492 | 288° | 24km/h | 25775m | 5.0m/s | -51.8°C | 1.3% | 23.9hPa | 2.7V | 00:00:00 | 00:00:00 | 00:00:00 | |
| DK5PH-5 | 2026-08-30 12:24:29 | 48.93624 | 10.07492 | 289° | 18km/h | 25776m | 5.0m/s | -51.7°C | 4.5% | 23.8hPa | 2.7V | 00:00:00 | 01:40:05 | 00:00:00 | |
| DO3MHA-11 | 2026-08-30 12:24:27 | 48.93623 | 10.07509 | 261° | 18km/h | 25763m | 6.1m/s | -51.8°C | 4.5% | 23.9hPa | 2.7V | 00:00:00 | 01:40:03 | 00:00:00 | |
| DF7PN | 2026-08-30 12:24:24 | 48.93629 | 10.07537 | 254° | 13km/h | 25739m | 5.8m/s | -51.8°C | 1.3% | 24.0hPa | 2.7V | 00:00:00 | 00:00:00 | 00:00:00 | |
| DL1NUX | 2026-08-30 12:24:23 | 48.93631 | 10.07568 | 279° | 22km/h | 25710m | 6.5m/s | -52°C | 4.5% | 24.1hPa | 2.7V | 08:30:00 | 01:39:54 | 00:00:00 | |
| DK7TD | 2026-08-30 12:24:22 | 48.93630 | 10.07543 | 256° | 13km/h | 25733m | 5.7m/s | -51.9°C | 1.2% | 24.1hPa | 2.6V | 18:12:15 | 01:39:58 | 00:00:00 | |
| DL1XH-west | 2026-08-30 12:24:21 | 48.93631 | 10.07548 | 255° | 15km/h | 25727m | 6.8m/s | -51.8°C | 1.1% | 24.1hPa | 2.6V | 18:12:15 | 01:39:57 | 00:00:00 | |
| OE9MKV-15 | 2026-08-30 12:24:19 | 48.93632 | 10.07560 | 271° | 15km/h | 25716m | 4.1m/s | -51.9°C | 4.5% | 24.1hPa | 2.7V | 00:00:00 | 01:39:55 | 00:00:00 | |
| SO1NDE-10 | 2026-08-30 12:24:18 | 48.93631 | 10.07568 | 280° | 16km/h | 25710m | 6.5m/s | -52.0°C | 4.5% | 24.1hPa | 2.7V | 00:00:00 | 01:39:54 | 00:00:00 | |
| DO3MHA-11 | 2026-08-30 12:24:17 | 48.93630 | 10.07577 | 288° | 16km/h | 25704m | 6.5m/s | -52.0°C | 4.5% | 24.1hPa | 2.7V | 00:00:00 | 01:39:53 | 00:00:00 | |
| AU51GT2 | 2026-08-30 12:24:16 | 48.93626 | 10.07596 | 284° | 26km/h | 25693m | 5.2m/s | -52.0°C | 1.3% | 24.2hPa | 2.7V | 00:00:00 | 00:00:00 | 00:00:00 | |
| DL6DJ-15 | 2026-08-30 12:24:14 | 48.93625 | 10.07606 | 276° | 22km/h | 25687m | 6.6m/s | -52.1°C | 1.3% | 24.2hPa | 2.7V | 00:00:00 | 00:00:00 | 00:00:00 | |
| DL1NUX | 2026-08-30 12:24:13 | 48.93625 | 10.07634 | 291° | 9km/h | 25653m | 5.6m/s | -51.9°C | 4.6% | 24.4hPa | 2.7V | 08:30:00 | 01:39:44 | 00:00:00 | |
| DK7TD | 2026-08-30 12:24:12 | 48.93625 | 10.07620 | 253° | 15km/h | 25676m | 5m/s | -52°C | 1.2% | 24.3hPa | 2.7V | 18:12:15 | 01:39:48 | 00:00:00 | |
| DL1XH-west | 2026-08-30 12:24:11 | 48.93626 | 10.07624 | 256° | 11km/h | 25671m | 6m/s | -52°C | 1.2% | 24.3hPa | 2.6V | 18:12:15 | 01:39:47 | 00:00:00 | |
| OE5DXL-15 | 2026-08-30 12:24:09 | 48.93626 | 10.07631 | 290° | 15km/h | 25659m | 5.6m/s | -51.8°C | 4.7% | 24.3hPa | 2.7V | 00:00:00 | 00:00:00 | 00:00:00 | |
| DL1NUX | 2026-08-30 12:24:03 | 48.93616 | 10.07700 | 260° | 16km/h | 25595m | 5.3m/s | -51.6°C | 4.5% | 24.6hPa | 2.7V | 08:30:00 | 01:39:34 | 00:00:00 | |
| DK7TD | 2026-08-30 12:24:01 | 48.93616 | 10.07679 | 284° | 20km/h | 25611m | 6.6m/s | -51.7°C | 1.1% | 24.5hPa | 2.6V | 18:12:15 | 01:39:37 | 00:00:00 | |
| DL1XH-west | 2026-08-30 12:24:00 | 48.93615 | 10.07686 | 270° | 20km/h | 25605m | 5.7m/s | -51.7°C | 1.1% | 24.6hPa | 2.6V | 18:12:15 | 01:39:36 | 00:00:00 | |
| DL1ZP-14 | 2026-08-30 12:23:59 | 48.93616 | 10.07700 | 260° | 15km/h | 25595m | 5.3m/s | -51.6°C | 1.3% | 24.6hPa | 2.7V | 00:00:00 | 00:00:00 | 00:00:00 | |
| DB0ND-19 | 2026-08-30 12:23:58 | 48.93616 | 10.07700 | 260° | 15km/h | 25595m | 5.3m/s | -51.6°C | 1.3% | 24.6hPa | 2.6V | 00:00:00 | 00:00:00 | 00:00:00 | |
| DO3MHA-11 | 2026-08-30 12:23:57 | 48.93616 | 10.07705 | 265° | 15km/h | 25589m | 6.3m/s | -51.6°C | 4.5% | 24.5hPa | 2.6V | 00:00:00 | 01:39:33 | 00:00:00 | |
| HEMX73-6 | 2026-08-30 12:23:54 | 48.93617 | 10.07714 | 248° | 7km/h | 25572m | 5.4m/s | 0°C | 0% | 0hPa | 2.6V | 00:00:00 | 01:39:30 | 00:00:00 | |
| DJTTGO | 2026-08-30 12:23:53 | 48.93617 | 10.07714 | 249° | 5km/h | 25572m | 5.4m/s | -51.6°C | 1.3% | 24.6hPa | 2.6V | 00:00:00 | 00:00:00 | 00:00:00 | |
| DL1NUX | 2026-08-30 12:23:52 | 48.93624 | 10.07738 | 264° | 16km/h | 25537m | 5.7m/s | -51.5°C | 4.6% | 24.8hPa | 2.6V | 08:30:00 | 01:39:24 | 00:00:00 | |
| DK7TD | 2026-08-30 12:23:50 | 48.93622 | 10.07728 | 247° | 13km/h | 25549m | 6.8m/s | -51.6°C | 1.2% | 24.7hPa | 2.7V | 18:12:15 | 01:39:26 | 00:00:00 | |
| DL1XH-west | 2026-08-30 12:23:48 | 48.93624 | 10.07738 | 264° | 16km/h | 25537m | 5.7m/s | -51.5°C | 1.2% | 24.8hPa | 2.6V | 18:12:15 | 01:39:24 | 00:00:00 | |
| DF3TZ-5 | 2026-08-30 12:23:46 | 48.93626 | 10.07760 | 262° | 18km/h | 25519m | 4.7m/s | -51.5°C | 1.3% | 24.9hPa | 2.7V | 00:00:00 | 00:00:00 | 00:00:00 | |
| DO3MHA-11 | 2026-08-30 12:23:44 | 48.93626 | 10.07767 | 268° | 11km/h | 25515m | 5.6m/s | -51.3°C | 4.4% | 24.8hPa | 2.7V | 00:00:00 | 01:39:20 | 00:00:00 | |
| DJ8HS-15 | 2026-08-30 12:23:43 | 48.93626 | 10.07772 | 277° | 11km/h | 25508m | 6.6m/s | -51.3°C | 4.4% | 24.8hPa | 2.7V | 00:00:00 | 01:39:19 | 00:00:00 | |
| DL1NUX | 2026-08-30 12:23:42 | 48.93628 | 10.07790 | 228° | 11km/h | 25479m | 4.8m/s | -51.4°C | 4.4% | 25hPa | 2.7V | 08:30:00 | 01:39:14 | 00:00:00 | |
| DK7TD | 2026-08-30 12:23:40 | 48.93625 | 10.07783 | 259° | 9km/h | 25490m | 6.4m/s | -51.4°C | 1.1% | 25hPa | 2.6V | 18:12:15 | 01:39:16 | 00:00:00 | |
| DL1XH-west | 2026-08-30 12:23:36 | 48.93632 | 10.07795 | 219° | 11km/h | 25467m | 5.7m/s | -51.3°C | 1.1% | 0hPa | 2.7V | 18:12:15 | 01:39:12 | 00:00:00 | |
| DO3MHA-11 | 2026-08-30 12:23:34 | 48.93637 | 10.07803 | 229° | 11km/h | 25456m | 6.5m/s | -51.3°C | 4.5% | 25.1hPa | 2.6V | 00:00:00 | 01:39:10 | 00:00:00 | |
| DL1NUX | 2026-08-30 12:23:32 | 48.93642 | 10.07828 | 325° | 5km/h | 25422m | 4.6m/s | -51.3°C | 4.4% | 25.2hPa | 2.6V | 08:30:00 | 01:39:04 | 00:00:00 | |
| DK7TD | 2026-08-30 12:23:30 | 48.93643 | 10.07824 | 278° | 9km/h | 25433m | 6.3m/s | -51.4°C | 1.1% | 25.2hPa | 2.6V | 18:12:15 | 01:39:06 | 00:00:00 | |
| DL1XH-west | 2026-08-30 12:23:26 | 48.93640 | 10.07831 | 257° | 5km/h | 25411m | 5.6m/s | -51.4°C | 1.1% | 0hPa | 2.7V | 18:12:15 | 01:39:02 | 00:00:00 | |
| DK7TD | 2026-08-30 12:23:19 | 48.93657 | 10.07834 | 191° | 13km/h | 25373m | 6.8m/s | -51.3°C | 1.1% | 25.4hPa | 2.7V | 18:12:15 | 01:38:55 | 00:00:00 | |
| DL1NUX | 2026-08-30 12:23:18 | 48.93660 | 10.07836 | 205° | 15km/h | 25367m | 5.5m/s | -51.3°C | 4.5% | 25.5hPa | 2.7V | 08:30:00 | 01:38:54 | 00:00:00 | |
| DL1XH-west | 2026-08-30 12:23:15 | 48.93667 | 10.07840 | 174° | 4km/h | 25351m | 6.4m/s | -51.2°C | 1.1% | 0hPa | 2.6V | 18:12:15 | 01:38:51 | 00:00:00 | |
| DO3MHA-11 | 2026-08-30 12:23:14 | 48.93667 | 10.07839 | 105° | 7km/h | 25345m | 5.1m/s | -51.2°C | 4.5% | 25.5hPa | 2.7V | 00:00:00 | 01:38:50 | 00:00:00 | |
| DL1NUX | 2026-08-30 12:23:13 | 48.93672 | 10.07828 | 152° | 5km/h | 25313m | 5.8m/s | -51.3°C | 4.3% | 25.7hPa | 2.7V | 08:30:00 | 01:38:44 | 00:00:00 | |
| DK7TD | 2026-08-30 12:23:08 | 48.93672 | 10.07828 | 153° | 5km/h | 25313m | 5.8m/s | -51.3°C | 1% | 25.7hPa | 2.7V | 18:12:15 | 01:38:44 | 00:00:00 | |
| DL1XH-west | 2026-08-30 12:23:04 | 48.93678 | 10.07824 | 188° | 9km/h | 25290m | 6.5m/s | -51.2°C | 1% | 0hPa | 2.7V | 18:12:15 | 01:38:40 | 00:00:00 | |
| DO3MHA-11 | 2026-08-30 12:23:04 | 48.93678 | 10.07824 | 188° | 5km/h | 25290m | 6.5m/s | -51.2°C | 4.3% | 25.7hPa | 2.7V | 00:00:00 | 01:38:40 | 08:30:00 | |
| DJ8HS-15 | 2026-08-30 12:23:03 | 48.93680 | 10.07825 | 204° | 5km/h | 25284m | 5.0m/s | -51.2°C | 4.4% | 25.8hPa | 2.6V | 00:00:00 | 01:38:39 | 00:00:00 | |
| DL1NUX | 2026-08-30 12:23:02 | 48.93682 | 10.07825 | 29° | 7km/h | 25257m | 4.8m/s | -51.1°C | 4.4% | 25.9hPa | 2.6V | 08:30:00 | 01:38:34 | 00:00:00 | |
| DK7TD | 2026-08-30 12:22:58 | 48.93683 | 10.07825 | 30° | 7km/h | 25257m | 4.8m/s | -51.1°C | 1.1% | 25.9hPa | 2.6V | 18:12:15 | 01:38:34 | 00:00:00 | |
| DB0ND-19 | 2026-08-30 12:22:56 | 48.93680 | 10.07824 | 350° | 4km/h | 25245m | 5.6m/s | -51.1°C | 1.3% | 25.9hPa | 2.7V | 00:00:00 | 00:00:00 | 00:00:00 | |
| DF7PN | 2026-08-30 12:22:50 | 48.93676 | 10.07825 | 215° | 2km/h | 25212m | 6.3m/s | -51.3°C | 1.3% | 26.1hPa | 2.7V | 00:00:00 | 00:00:00 | 00:00:00 | |
| DL1NUX | 2026-08-30 12:22:48 | 48.93678 | 10.07827 | 215° | 7km/h | 25200m | 5m/s | -51.2°C | 4.4% | 26.1hPa | 2.7V | 08:30:00 | 01:38:24 | 00:00:00 | |
| DK7TD | 2026-08-30 12:22:47 | 48.93679 | 10.07828 | 215° | 5km/h | 25195m | 5m/s | -51.2°C | 1.1% | 26.2hPa | 2.7V | 18:12:15 | 01:38:23 | 00:00:00 | |
| DO9HM | 2026-08-30 12:22:45 | 48.93680 | 10.07829 | 0° | 0km/h | 25190m | 6.6m/s | -51.3°C | 1.4% | 26.2hPa | 2.6V | 00:00:00 | 00:00:00 | 00:00:00 | |
| DL1NUX | 2026-08-30 12:22:43 | 48.93671 | 10.07816 | 44° | 9km/h | 25144m | 5.2m/s | -51.1°C | 4.4% | 26.4hPa | 2.6V | 08:30:00 | 01:38:14 | 00:00:00 | |
| DK7TD | 2026-08-30 12:22:36 | 48.93669 | 10.07813 | 115° | 2km/h | 25133m | 6.2m/s | -51°C | 1% | 26.4hPa | 2.7V | 18:12:15 | 01:38:12 | 00:00:00 | |
| NBG1-10 | 2026-08-30 12:22:33 | 48.93671 | 10.07811 | 87° | 11km/h | 25118m | 6.2m/s | -51.1°C | 4.4% | 26.4hPa | 2.7V | 00:00:00 | 01:38:09 | 00:00:00 | |
| DL1NUX | 2026-08-30 12:22:32 | 48.93661 | 10.07809 | 1° | 9km/h | 25090m | 5.2m/s | -51.1°C | 4.3% | 26.6hPa | 2.7V | 08:30:00 | 01:38:04 | 00:00:00 | |
| DK7TD | 2026-08-30 12:22:25 | 48.93653 | 10.07805 | 27° | 16km/h | 25073m | 5.9m/s | -51.2°C | 1% | 26.7hPa | 2.6V | 18:12:15 | 01:38:01 | 00:00:00 | |
| DL1XH-west | 2026-08-30 12:22:20 | 48.93641 | 10.07794 | 7° | 5km/h | 25047m | 4.1m/s | -51.2°C | 1.1% | 0hPa | 2.6V | 18:12:15 | 01:37:56 | 00:00:00 | |
| DL1NUX | 2026-08-30 12:22:19 | 48.93637 | 10.07794 | 7° | 11km/h | 25036m | 5.9m/s | -51.2°C | 4.4% | 26.8hPa | 2.6V | 08:30:00 | 01:37:54 | 00:00:00 | |
| DK7TD | 2026-08-30 12:22:14 | 48.93624 | 10.07792 | 3° | 13km/h | 25013m | 4.7m/s | -51.3°C | 1% | 26.9hPa | 2.7V | 18:12:15 | 01:37:50 | 00:00:00 | |
| DL1XH-west | 2026-08-30 12:22:07 | 48.93602 | 10.07785 | 273° | 5km/h | 24977m | 6.2m/s | -51.6°C | 1.1% | 0hPa | 2.6V | 18:12:15 | 01:37:43 | 00:00:00 | |
| DK7TD | 2026-08-30 12:22:04 | 48.93605 | 10.07793 | 243° | 5km/h | 24960m | 6m/s | -51.8°C | 1.2% | 27.1hPa | 2.7V | 18:12:15 | 01:37:40 | 00:00:00 | |
| DL1NUX | 2026-08-30 12:22:03 | 48.93591 | 10.07799 | 349° | 16km/h | 24927m | 6m/s | -51.6°C | 4.4% | 27.3hPa | 2.6V | 08:30:00 | 01:37:34 | 00:00:00 | |
| DK7TD | 2026-08-30 12:21:53 | 48.93575 | 10.07811 | 294° | 15km/h | 24900m | 5m/s | -51.6°C | 1.2% | 27.4hPa | 2.6V | 18:12:15 | 01:37:29 | 00:00:00 | |
| DL1XH-west | 2026-08-30 12:21:52 | 48.93573 | 10.07816 | 289° | 13km/h | 24895m | 5.3m/s | -51.7°C | 1.1% | 0hPa | 2.6V | 18:12:15 | 01:37:28 | 00:00:00 | |
| DF7PN | 2026-08-30 12:21:48 | 48.93570 | 10.07825 | 319° | 2km/h | 24872m | 6.3m/s | -51.6°C | 1.3% | 27.5hPa | 2.7V | 00:00:00 | 00:00:00 | 00:00:00 | |
| DK7TD | 2026-08-30 12:21:43 | 48.93563 | 10.07823 | 29° | 11km/h | 24845m | 4.3m/s | -51.6°C | 1.2% | 27.6hPa | 2.7V | 18:12:15 | 01:37:19 | 00:00:00 | |
| DJ8HS-15 | 2026-08-30 12:21:43 | 48.93563 | 10.07823 | 29° | 9km/h | 24845m | 4.2m/s | -51.5°C | 4.5% | 27.6hPa | 2.7V | 00:00:00 | 01:37:19 | 00:00:00 | |
| DL1NUX | 2026-08-30 12:21:42 | 48.93554 | 10.07827 | 306° | 7km/h | 24819m | 5.9m/s | -51.5°C | 4.5% | 27.7hPa | 2.7V | 08:30:00 | 01:37:14 | 00:00:00 | |
| DL1XH-west | 2026-08-30 12:21:41 | 48.93559 | 10.07821 | 355° | 9km/h | 24835m | 6.2m/s | -51.4°C | 1.1% | 0hPa | 2.6V | 18:12:15 | 01:37:17 | 00:00:00 | |
| DF3TZ-5 | 2026-08-30 12:21:41 | 48.93559 | 10.07821 | 354° | 7km/h | 24835m | 6.2m/s | -51.4°C | 1.3% | 27.7hPa | 2.6V | 00:00:00 | 00:00:00 | 00:00:00 | |
| OE5DXL-15 | 2026-08-30 12:21:39 | 48.93555 | 10.07824 | 309° | 7km/h | 24824m | 4.4m/s | -51.4°C | 4.5% | 27.6hPa | 2.6V | 00:00:00 | 00:00:00 | 08:30:00 | |
| DO9HM | 2026-08-30 12:21:38 | 48.93554 | 10.07827 | 308° | 7km/h | 24819m | 5.9m/s | -51.5°C | 1.3% | 27.7hPa | 2.7V | 00:00:00 | 00:00:00 | 00:00:00 | |
| DO3MHA-11 | 2026-08-30 12:21:37 | 48.93553 | 10.07829 | 318° | 7km/h | 24813m | 5.7m/s | -51.5°C | 4.5% | 27.7hPa | 2.7V | 00:00:00 | 01:37:13 | 00:00:00 | |
| DL1NUX | 2026-08-30 12:21:32 | 48.93538 | 10.07834 | 6° | 15km/h | 24765m | 5.4m/s | -51.2°C | 4.4% | 27.9hPa | 2.7V | 08:30:00 | 01:37:04 | 00:00:00 | |
| DK7TD | 2026-08-30 12:21:32 | 48.93549 | 10.07837 | 327° | 5km/h | 24787m | 4.5m/s | -51.4°C | 1.1% | 27.9hPa | 2.7V | 18:12:15 | 01:37:08 | 00:00:00 | |
| DL1XH-west | 2026-08-30 12:21:31 | 48.93547 | 10.07837 | 359° | 7km/h | 24781m | 6.5m/s | -51.5°C | 1.1% | 0hPa | 2.6V | 18:12:15 | 01:37:07 | 00:00:00 | |
| DK5PH-5 | 2026-08-30 12:21:29 | 48.93541 | 10.07835 | 15° | 9km/h | 24770m | 4.2m/s | -51.2°C | 4.3% | 27.9hPa | 2.7V | 00:00:00 | 01:37:05 | 00:00:00 | |
| SONCRA | 2026-08-30 12:21:28 | 48.93534 | 10.07835 | 351° | 13km/h | 24760m | 6.1m/s | -51.3°C | 1.3% | 28.0hPa | 2.7V | 00:00:00 | 00:00:00 | 00:00:00 | |
| DO3MHA-11 | 2026-08-30 12:21:27 | 48.93534 | 10.07834 | 352° | 9km/h | 24760m | 6.1m/s | -51.2°C | 4.4% | 27.9hPa | 2.7V | 00:00:00 | 01:37:03 | 08:30:00 | |
| DJ8HS-15 | 2026-08-30 12:21:23 | 48.93526 | 10.07843 | 317° | 9km/h | 24737m | 5.2m/s | -51.2°C | 4.3% | 28.0hPa | 2.6V | 00:00:00 | 01:36:59 | 00:00:00 | |
| DL1NUX | 2026-08-30 12:21:22 | 48.93518 | 10.07856 | 330° | 11km/h | 24711m | 5.3m/s | -51.4°C | 4.4% | 28.2hPa | 2.6V | 08:30:00 | 01:36:54 | 00:00:00 | |
| DK7TD | 2026-08-30 12:21:21 | 48.93523 | 10.07847 | 308° | 9km/h | 24727m | 5.8m/s | -51.3°C | 1% | 28.1hPa | 2.7V | 18:12:15 | 01:36:57 | 00:00:00 | |
| DK7TD | 2026-08-30 12:21:11 | 48.93513 | 10.07859 | 240° | 7km/h | 24673m | 4.9m/s | -51.7°C | 1.2% | 28.4hPa | 2.6V | 18:12:15 | 01:36:47 | 00:00:00 | |
| DL1XH-west | 2026-08-30 12:21:10 | 48.93514 | 10.07861 | 247° | 5km/h | 24668m | 6m/s | -51.7°C | 0% | 0hPa | 2.7V | 18:12:15 | 01:36:46 | 00:00:00 | |
| DB0UT-7 | 2026-08-30 12:21:10 | 48.93514 | 10.07861 | 248° | 13km/h | 24668m | 6.0m/s | -51.7°C | 4.6% | 28.3hPa | 2.7V | 00:00:00 | 00:00:00 | 00:00:00 | |
| OE5DXL-15 | 2026-08-30 12:21:09 | 48.93514 | 10.07863 | 284° | 15km/h | 24663m | 5.1m/s | -51.7°C | 4.6% | 28.4hPa | 2.6V | 00:00:00 | 01:36:45 | 00:00:00 | |
| DL6DJ-15 | 2026-08-30 12:21:08 | 48.93512 | 10.07868 | 315° | 11km/h | 24652m | 5.4m/s | -51.7°C | 1.3% | 28.5hPa | 2.6V | 00:00:00 | 00:00:00 | 00:00:00 | |
| DO3MHA-11 | 2026-08-30 12:21:07 | 48.93512 | 10.07868 | 316° | 13km/h | 24653m | 5.4m/s | -51.6°C | 4.5% | 28.4hPa | 2.6V | 00:00:00 | 01:36:43 | 00:00:00 | |
| DJ8HS-15 | 2026-08-30 12:21:03 | 48.93499 | 10.07886 | 321° | 13km/h | 24629m | 6.2m/s | -51.5°C | 4.4% | 28.5hPa | 2.6V | 00:00:00 | 01:36:39 | 00:00:00 | |
| DL1NUX | 2026-08-30 12:21:02 | 48.93496 | 10.07900 | 239° | 13km/h | 24602m | 6.2m/s | -51.5°C | 4.5% | 28.7hPa | 2.6V | 08:30:00 | 01:36:34 | 00:00:00 | |
| DK7TD | 2026-08-30 12:21:00 | 48.93494 | 10.07894 | 284° | 5km/h | 24614m | 6.2m/s | -51.5°C | 1.1% | 28.6hPa | 2.7V | 18:12:15 | 01:36:36 | 00:00:00 | |
| DL1XH-west | 2026-08-30 12:20:52 | 48.93505 | 10.07924 | 264° | 15km/h | 24568m | 6.3m/s | -51.8°C | 0% | 0hPa | 2.6V | 18:12:15 | 01:36:28 | 00:00:00 | |
| DL1NUX | 2026-08-30 12:20:51 | 48.93503 | 10.07950 | 288° | 13km/h | 24545m | 5.3m/s | -51.7°C | 4.4% | 28.9hPa | 2.7V | 08:30:00 | 01:36:24 | 00:00:00 | |
| DK7TD | 2026-08-30 12:20:50 | 48.93505 | 10.07938 | 278° | 18km/h | 24557m | 5.1m/s | -51.7°C | 1.1% | 28.9hPa | 2.6V | 18:12:15 | 01:36:26 | 00:00:00 | |
| DF7PN | 2026-08-30 12:20:46 | 48.93502 | 10.07959 | 266° | 11km/h | 24536m | 5.3m/s | -51.9°C | 1.3% | 29.0hPa | 2.7V | 00:00:00 | 00:00:00 | 00:00:00 | |
| DJ8HS-15 | 2026-08-30 12:20:43 | 48.93507 | 10.07974 | 220° | 13km/h | 24519m | 5.4m/s | -51.7°C | 4.5% | 29.0hPa | 2.7V | 00:00:00 | 01:36:19 | 00:00:00 | |
| DL1NUX | 2026-08-30 12:20:42 | 48.93528 | 10.07990 | 222° | 15km/h | 24490m | 4.8m/s | -51.7°C | 4.5% | 29.2hPa | 2.7V | 08:30:00 | 01:36:14 | 00:00:00 | |
| DK7TD | 2026-08-30 12:20:39 | 48.93524 | 10.07986 | 209° | 18km/h | 24496m | 6.2m/s | -51.7°C | 1.2% | 29.2hPa | 2.6V | 18:12:15 | 01:36:15 | 00:00:00 | |
| DL1XH-west | 2026-08-30 12:20:37 | 48.93530 | 10.07993 | 232° | 11km/h | 24486m | 4.8m/s | -51.7°C | 0% | 0hPa | 2.7V | 18:12:15 | 01:36:13 | 00:00:00 | |
| DO3MHA-11 | 2026-08-30 12:20:37 | 48.93530 | 10.07993 | 233° | 7km/h | 24486m | 4.8m/s | -51.7°C | 4.5% | 29.2hPa | 2.6V | 00:00:00 | 01:36:13 | 00:00:00 | |
| DO9HM | 2026-08-30 12:20:35 | 48.93531 | 10.07996 | 239° | 7km/h | 24480m | 6.8m/s | -51.6°C | 1.3% | 29.2hPa | 2.6V | 00:00:00 | 00:00:00 | 00:00:00 | |
| DG9SBQ-11 | 2026-08-30 12:20:34 | 48.93532 | 10.07998 | 246° | 4km/h | 24474m | 5.9m/s | -51.6°C | 1.3% | 29.2hPa | 2.6V | 00:00:00 | 00:00:00 | 00:00:00 | |
| DL1NUX | 2026-08-30 12:20:32 | 48.93541 | 10.08011 | 192° | 13km/h | 24435m | 5m/s | -51.5°C | 4.4% | 29.4hPa | 2.6V | 08:30:00 | 01:36:04 | 00:00:00 | |
| DK7TD | 2026-08-30 12:20:29 | 48.93538 | 10.08009 | 203° | 11km/h | 24440m | 6.7m/s | -51.6°C | 1.1% | 29.4hPa | 2.6V | 18:12:15 | 01:36:05 | 00:00:00 | |
| DL1XH-west | 2026-08-30 12:20:25 | 48.93550 | 10.08017 | 216° | 16km/h | 24419m | 5.8m/s | 0°C | 0% | 0hPa | 2.7V | 18:12:15 | 01:36:01 | 00:00:00 | |
| DJ8HS-15 | 2026-08-30 12:20:23 | 48.93556 | 10.08024 | 220° | 7km/h | 24410m | 4.2m/s | -51.6°C | 4.5% | 29.5hPa | 2.6V | 00:00:00 | 01:35:59 | 00:00:00 | |
| DL1NUX | 2026-08-30 12:20:22 | 48.93566 | 10.08021 | 132° | 7km/h | 24382m | 6.3m/s | -51.9°C | 4.5% | 29.7hPa | 2.6V | 08:30:00 | 01:35:54 | 00:00:00 | |
| DK7TD | 2026-08-30 12:20:18 | 48.93566 | 10.08021 | 132° | 7km/h | 24382m | 6.3m/s | -51.9°C | 1.2% | 29.7hPa | 2.6V | 18:12:15 | 01:35:54 | 00:00:00 | |
| DO3MHA-11 | 2026-08-30 12:20:17 | 48.93567 | 10.08019 | 137° | 7km/h | 24376m | 5.1m/s | -51.8°C | 4.5% | 29.6hPa | 2.7V | 00:00:00 | 01:35:53 | 00:00:00 | |
| DO9HM | 2026-08-30 12:20:16 | 48.93567 | 10.08019 | 141° | 4km/h | 24372m | 4.4m/s | -51.9°C | 1.4% | 29.7hPa | 2.7V | 00:00:00 | 00:00:00 | 00:00:00 | |
| DL8DAS-15 | 2026-08-30 12:20:14 | 48.93568 | 10.08018 | 131° | 4km/h | 24366m | 6.3m/s | -51.8°C | 0% | 29.7hPa | 2.7V | 00:00:00 | 00:00:00 | 00:00:00 | |
| DL1NUX | 2026-08-30 12:20:13 | 48.93581 | 10.08014 | 195° | 9km/h | 24326m | 6m/s | -52°C | 4.6% | 29.9hPa | 2.7V | 08:30:00 | 01:35:44 | 00:00:00 | |
| DM0DOS-11 | 2026-08-30 12:20:13 | 48.93574 | 10.08011 | 174° | 9km/h | 24343m | 6.6m/s | 0°C | 0% | 0hPa | 2.6V | 08:30:00 | 01:35:47 | 00:00:00 | |
| DK7TD | 2026-08-30 12:20:08 | 48.93582 | 10.08014 | 195° | 9km/h | 24326m | 6m/s | -52°C | 1.2% | 29.9hPa | 2.7V | 18:12:15 | 01:35:44 | 00:00:00 | |
| DO3MHA-11 | 2026-08-30 12:20:07 | 48.93583 | 10.08014 | 172° | 5km/h | 24321m | 5.8m/s | -51.8°C | 4.6% | 29.9hPa | 2.6V | 00:00:00 | 01:35:43 | 00:00:00 | |
| DL6DJ-15 | 2026-08-30 12:20:06 | 48.93585 | 10.08012 | 95° | 4km/h | 24311m | 4.8m/s | -52.0°C | 1.3% | 30.0hPa | 2.6V | 00:00:00 | 00:00:00 | 00:00:00 | |
| DJ8HS-15 | 2026-08-30 12:20:03 | 48.93584 | 10.08011 | 344° | 7km/h | 24299m | 5.9m/s | -51.8°C | 4.6% | 30.0hPa | 2.6V | 00:00:00 | 01:35:39 | 00:00:00 | |
| DL1NUX | 2026-08-30 12:20:02 | 48.93576 | 10.08013 | 0° | 5km/h | 24271m | 4.9m/s | -51.9°C | 4.5% | 30.2hPa | 2.6V | 08:30:00 | 01:35:34 | 00:00:00 | |
| DK7TD | 2026-08-30 12:19:57 | 48.93575 | 10.08013 | 336° | 5km/h | 24266m | 6.6m/s | -51.9°C | 1.1% | 30.2hPa | 2.7V | 18:12:15 | 01:35:33 | 00:00:00 | |
| SONCRA | 2026-08-30 12:19:55 | 48.93573 | 10.08018 | 296° | 2km/h | 24249m | 5.7m/s | -51.8°C | 1.3% | 30.3hPa | 2.6V | 00:00:00 | 00:00:00 | 00:00:00 | |
| DL1NUX | 2026-08-30 12:19:52 | 48.93565 | 10.08018 | 320° | 11km/h | 24216m | 5.4m/s | -52°C | 4.6% | 30.4hPa | 2.6V | 08:30:00 | 01:35:24 | 00:00:00 | |
| DK7TD | 2026-08-30 12:19:46 | 48.93561 | 10.08023 | 331° | 9km/h | 24204m | 6.1m/s | -52.1°C | 1.2% | 30.5hPa | 2.7V | 18:12:15 | 01:35:22 | 00:00:00 | |
| DF7PN | 2026-08-30 12:19:44 | 48.93556 | 10.08027 | 305° | 5km/h | 24188m | 6.4m/s | -52.0°C | 1.3% | 30.6hPa | 2.7V | 00:00:00 | 00:00:00 | 00:00:00 | |
| DJ8HS-15 | 2026-08-30 12:19:43 | 48.93556 | 10.08027 | 306° | 11km/h | 24188m | 6.4m/s | -52.0°C | 4.5% | 30.5hPa | 2.7V | 00:00:00 | 01:35:19 | 00:00:00 | |
| DL1NUX | 2026-08-30 12:19:42 | 48.93558 | 10.08036 | 188° | 5km/h | 24159m | 4.2m/s | -52°C | 4.7% | 30.7hPa | 2.7V | 08:30:00 | 01:35:14 | 00:00:00 | |
| DK7TD | 2026-08-30 12:19:35 | 48.93561 | 10.08041 | 280° | 9km/h | 24143m | 5.6m/s | -51.9°C | 1.1% | 30.8hPa | 2.6V | 18:12:15 | 01:35:11 | 00:00:00 | |
| DO9HM | 2026-08-30 12:19:34 | 48.93560 | 10.08041 | 281° | 9km/h | 24143m | 5.6m/s | -51.9°C | 1.4% | 30.8hPa | 2.7V | 00:00:00 | 00:00:00 | 00:00:00 | |
| DL1NUX | 2026-08-30 12:19:32 | 48.93539 | 10.08067 | 309° | 16km/h | 24103m | 4.3m/s | -51.9°C | 4.4% | 31hPa | 2.7V | 08:30:00 | 01:35:04 | 00:00:00 | |
| DK7TD | 2026-08-30 12:19:25 | 48.93536 | 10.08077 | 236° | 4km/h | 24087m | 5.2m/s | -51.8°C | 1.1% | 31.1hPa | 2.6V | 18:12:15 | 01:35:01 | 00:00:00 | |
| HEMX73-6 | 2026-08-30 12:19:24 | 48.93536 | 10.08078 | 210° | 13km/h | 24082m | 5.1m/s | 0°C | 0% | 0hPa | 2.7V | 00:00:00 | 01:35:00 | 00:00:00 | |
| DJ8HS-15 | 2026-08-30 12:19:23 | 48.93538 | 10.08080 | 215° | 7km/h | 24076m | 6.6m/s | -51.8°C | 4.6% | 31.1hPa | 2.7V | 00:00:00 | 01:34:59 | 08:30:00 | |
| DL1NUX | 2026-08-30 12:19:22 | 48.93542 | 10.08091 | 302° | 7km/h | 24048m | 5.2m/s | -51.8°C | 4.4% | 31.3hPa | 2.6V | 08:30:00 | 01:34:54 | 00:00:00 | |
| DL1XH-west | 2026-08-30 12:19:17 | 48.93541 | 10.08094 | 303° | 13km/h | 24041m | 6.7m/s | 0°C | 0% | 0hPa | 2.7V | 18:12:15 | 01:34:53 | 00:00:00 | |
| DK7TD | 2026-08-30 12:19:14 | 48.93535 | 10.08108 | 302° | 13km/h | 24026m | 6.5m/s | -51.8°C | 1.1% | 31.4hPa | 2.6V | 18:12:15 | 01:34:50 | 00:00:00 | |
| DK7TD | 2026-08-30 12:19:03 | 48.93537 | 10.08130 | 276° | 5km/h | 23965m | 5.3m/s | -52.1°C | 1.1% | 31.6hPa | 2.7V | 18:12:15 | 01:34:39 | 00:00:00 | |
| DJ8HS-15 | 2026-08-30 12:19:03 | 48.93536 | 10.08130 | 276° | 7km/h | 23965m | 5.3m/s | -52.0°C | 4.5% | 31.6hPa | 2.7V | 00:00:00 | 01:34:39 | 00:00:00 | |
| DL1NUX | 2026-08-30 12:19:02 | 48.93543 | 10.08127 | 148° | 13km/h | 23938m | 5.1m/s | -52.1°C | 4.5% | 31.8hPa | 2.7V | 08:30:00 | 01:34:34 | 00:00:00 | |
| DL1XH-west | 2026-08-30 12:18:57 | 48.93553 | 10.08124 | 163° | 7km/h | 23916m | 6.4m/s | 0°C | 0% | 0hPa | 2.7V | 18:12:15 | 01:34:30 | 00:00:00 | |
| DO3MHA-11 | 2026-08-30 12:18:57 | 48.93546 | 10.08125 | 162° | 7km/h | 23933m | 6.3m/s | -52.2°C | 4.5% | 31.7hPa | 2.6V | 00:00:00 | 01:34:33 | 00:00:00 | |
| DG1MJG | 2026-08-30 12:18:55 | 48.93549 | 10.08124 | 177° | 11km/h | 23927m | 5.2m/s | -52.3°C | 1.4% | 31.8hPa | 2.6V | 00:00:00 | 00:00:00 | 00:00:00 | |
| DO9HM | 2026-08-30 12:18:54 | 48.93551 | 10.08124 | 177° | 9km/h | 23922m | 5.2m/s | -52.3°C | 1.4% | 31.9hPa | 2.6V | 00:00:00 | 00:00:00 | 00:00:00 | |
| DL1NUX | 2026-08-30 12:18:52 | 48.93557 | 10.08117 | 73° | 7km/h | 23884m | 6.5m/s | -52.5°C | 4.7% | 32.1hPa | 2.6V | 08:30:00 | 01:34:24 | 00:00:00 | |
| DK7TD | 2026-08-30 12:18:52 | 48.93556 | 10.08121 | 136° | 5km/h | 23905m | 4.5m/s | -52.4°C | 1.2% | 31.9hPa | 2.7V | 18:12:15 | 01:34:28 | 00:00:00 | |
| DM0DOS-11 | 2026-08-30 12:18:48 | 48.93556 | 10.08109 | 78° | 15km/h | 23873m | 4.2m/s | 0°C | 0% | 0hPa | 2.7V | 08:30:00 | 01:34:22 | 00:00:00 | |
| DL1XH-west | 2026-08-30 12:18:44 | 48.93555 | 10.08099 | 95° | 11km/h | 23862m | 6.1m/s | 0°C | 0% | 0hPa | 2.6V | 18:12:15 | 01:34:20 | 00:00:00 | |
| DK7TD | 2026-08-30 12:18:41 | 48.93557 | 10.08089 | 100° | 11km/h | 23846m | 5.5m/s | -52.5°C | 1.3% | 32.3hPa | 2.6V | 18:12:15 | 01:34:17 | 00:00:00 | |
| DL1NUX | 2026-08-30 12:18:39 | 48.93555 | 10.08068 | 84° | 15km/h | 23825m | 5.7m/s | -52.4°C | 4.7% | 32.3hPa | 2.6V | 08:30:00 | 01:34:13 | 00:00:00 | |
| DB0UT-7 | 2026-08-30 12:18:39 | 48.93556 | 10.08079 | 78° | 13km/h | 23835m | 4.7m/s | -52.4°C | 4.6% | 32.3hPa | 2.6V | 00:00:00 | 01:34:15 | 00:00:00 | |
| DO3MHA-11 | 2026-08-30 12:18:37 | 48.93555 | 10.08068 | 85° | 15km/h | 23825m | 5.6m/s | -52.4°C | 4.7% | 32.3hPa | 2.6V | 00:00:00 | 01:34:13 | 00:00:00 | |
| DF3TZ-5 | 2026-08-30 12:18:35 | 48.93554 | 10.08051 | 80° | 16km/h | 23809m | 6.3m/s | -52.4°C | 1.4% | 32.4hPa | 2.6V | 00:00:00 | 00:00:00 | 00:00:00 | |
| DL1NUX | 2026-08-30 12:18:33 | 48.93539 | 10.08022 | 14° | 13km/h | 23770m | 5.8m/s | -52.2°C | 4.5% | 32.6hPa | 2.6V | 08:30:00 | 01:34:03 | 00:00:00 | |
| DM0DOS-11 | 2026-08-30 12:18:32 | 48.93544 | 10.08025 | 27° | 11km/h | 23781m | 4.2m/s | 0°C | 0% | 0hPa | 2.7V | 08:30:00 | 01:34:05 | 00:00:00 | |
| DK7TD | 2026-08-30 12:18:31 | 48.93549 | 10.08031 | 56° | 16km/h | 23792m | 6.1m/s | -52.3°C | 1.2% | 32.5hPa | 2.6V | 18:12:15 | 01:34:07 | 00:00:00 | |
| DK5PH-5 | 2026-08-30 12:18:29 | 48.93544 | 10.08025 | 28° | 13km/h | 23782m | 4.2m/s | -52.3°C | 4.6% | 32.5hPa | 2.6V | 00:00:00 | 01:34:05 | 00:00:00 | |
| DO3MHA-11 | 2026-08-30 12:18:27 | 48.93539 | 10.08022 | 15° | 11km/h | 23771m | 5.8m/s | -52.2°C | 4.5% | 32.6hPa | 2.6V | 00:00:00 | 01:34:03 | 08:30:00 | |
| DJ8HS-15 | 2026-08-30 12:18:23 | 48.93529 | 10.08019 | 9° | 11km/h | 23750m | 5.7m/s | -52.2°C | 4.5% | 32.7hPa | 2.7V | 00:00:00 | 01:33:59 | 00:00:00 | |
| DL1NUX | 2026-08-30 12:18:22 | 48.93521 | 10.07996 | 60° | 20km/h | 23718m | 5.3m/s | -52.3°C | 4.7% | 32.9hPa | 2.7V | 08:30:00 | 01:33:53 | 00:00:00 | |
| DK7TD | 2026-08-30 12:18:20 | 48.93527 | 10.08014 | 71° | 11km/h | 23734m | 6.4m/s | -52.3°C | 1.2% | 32.8hPa | 2.6V | 18:12:15 | 01:33:56 | 00:00:00 | |
| DK7TD | 2026-08-30 12:18:09 | 48.93503 | 10.07964 | 73° | 9km/h | 23677m | 6.2m/s | -52.5°C | 1.1% | 33.1hPa | 2.7V | 18:12:15 | 01:33:45 | 00:00:00 | |
| DB0UT-7 | 2026-08-30 12:18:09 | 48.93503 | 10.07964 | 73° | 13km/h | 23678m | 6.2m/s | -52.5°C | 4.5% | 33.1hPa | 2.7V | 00:00:00 | 00:00:00 | 08:30:00 | |
| DO3MHA-11 | 2026-08-30 12:18:07 | 48.93503 | 10.07958 | 107° | 15km/h | 23667m | 4.7m/s | -52.5°C | 4.5% | 33.1hPa | 2.6V | 00:00:00 | 01:33:43 | 00:00:00 | |
| DF3TZ-5 | 2026-08-30 12:18:04 | 48.93498 | 10.07943 | 49° | 18km/h | 23645m | 4.8m/s | -52.5°C | 1.4% | 33.2hPa | 2.6V | 00:00:00 | 00:00:00 | 00:00:00 | |
| DJ8HS-15 | 2026-08-30 12:18:03 | 48.93498 | 10.07943 | 50° | 15km/h | 23645m | 4.8m/s | -52.5°C | 4.6% | 33.2hPa | 2.6V | 00:00:00 | 01:33:39 | 00:00:00 | |
| DL1NUX | 2026-08-30 12:18:02 | 48.93489 | 10.07928 | 38° | 15km/h | 23629m | 4.8m/s | -52.7°C | 4.7% | 33.4hPa | 2.6V | 08:30:00 | 01:33:36 | 00:00:00 | |
| DK7TD | 2026-08-30 12:17:58 | 48.93482 | 10.07922 | 29° | 16km/h | 23618m | 5.7m/s | -52.9°C | 1.3% | 33.4hPa | 2.7V | 18:12:15 | 01:33:34 | 00:00:00 | |
| DO3MHA-11 | 2026-08-30 12:17:57 | 48.93479 | 10.07919 | 25° | 11km/h | 23613m | 4.7m/s | -52.8°C | 4.8% | 33.4hPa | 2.6V | 00:00:00 | 01:33:33 | 00:00:00 | |
| DG9SBQ-11 | 2026-08-30 12:17:55 | 48.93474 | 10.07916 | 25° | 5km/h | 23602m | 6.3m/s | -52.9°C | 1.4% | 33.5hPa | 2.7V | 00:00:00 | 00:00:00 | 00:00:00 | |
| DL1NUX | 2026-08-30 12:17:50 | 48.93469 | 10.07899 | 42° | 18km/h | 23571m | 4.7m/s | -53.1°C | 4.7% | 33.7hPa | 2.7V | 08:30:00 | 01:33:25 | 00:00:00 | |
| DK7TD | 2026-08-30 12:17:48 | 48.93466 | 10.07895 | 32° | 18km/h | 23567m | 5.4m/s | -53.1°C | 1.3% | 33.7hPa | 2.6V | 18:12:15 | 01:33:24 | 00:00:00 | |
| DL1ZP-14 | 2026-08-30 12:17:46 | 48.93457 | 10.07891 | 7° | 18km/h | 23556m | 5.2m/s | -53.1°C | 1.4% | 33.7hPa | 2.6V | 00:00:00 | 00:00:00 | 00:00:00 | |
| DL8DAS-15 | 2026-08-30 12:17:44 | 48.93452 | 10.07890 | 2° | 20km/h | 23550m | 5.6m/s | 0°C | 0% | 0hPa | 2.6V | 00:00:00 | 00:00:00 | 00:00:00 | |
| DL1NUX | 2026-08-30 12:17:43 | 48.93428 | 10.07898 | 322° | 11km/h | 23518m | 4.4m/s | -53.1°C | 4.8% | 33.9hPa | 2.6V | 08:30:00 | 01:33:15 | 00:00:00 | |
| DK7TD | 2026-08-30 12:17:37 | 48.93423 | 10.07901 | 1° | 15km/h | 23507m | 5.7m/s | -53.1°C | 1.3% | 34hPa | 2.7V | 18:12:15 | 01:33:13 | 00:00:00 | |
| DO3MHA-11 | 2026-08-30 12:17:37 | 48.93423 | 10.07901 | 1° | 24km/h | 23508m | 5.7m/s | -53.1°C | 4.7% | 33.9hPa | 2.7V | 00:00:00 | 01:33:13 | 00:00:00 | |
| NBG1-10 | 2026-08-30 12:17:36 | 48.93419 | 10.07900 | 8° | 18km/h | 23503m | 4.3m/s | -53.1°C | 4.6% | 34.0hPa | 2.7V | 00:00:00 | 01:33:12 | 00:00:00 | |
| OE5DRO-10 | 2026-08-30 12:17:35 | 48.93413 | 10.07899 | 6° | 22km/h | 23498m | 4.7m/s | -53.2°C | 4.7% | 34.0hPa | 2.6V | 00:00:00 | 00:00:00 | 08:30:00 | |
| DG1MJG | 2026-08-30 12:17:34 | 48.93413 | 10.07899 | 6° | 24km/h | 23498m | 4.8m/s | 0°C | 0% | 0hPa | 2.6V | 00:00:00 | 00:00:00 | 00:00:00 | |
| DF3TZ-5 | 2026-08-30 12:17:33 | 48.93393 | 10.07902 | 346° | 29km/h | 23481m | 5.0m/s | -53.4°C | 1.4% | 34.1hPa | 2.6V | 00:00:00 | 00:00:00 | 00:00:00 | |
| DL1NUX | 2026-08-30 12:17:32 | 48.93368 | 10.07909 | 347° | 18km/h | 23460m | 5.6m/s | -53.4°C | 5% | 34.2hPa | 2.6V | 08:30:00 | 01:33:04 | 00:00:00 | |
| DK7TD | 2026-08-30 12:17:26 | 48.93360 | 10.07913 | 341° | 15km/h | 23449m | 4.5m/s | -53.4°C | 1.3% | 34.3hPa | 2.6V | 18:12:15 | 01:33:02 | 00:00:00 | |
| DJ8HS-15 | 2026-08-30 12:17:23 | 48.93349 | 10.07913 | 14° | 16km/h | 23434m | 4.8m/s | -53.4°C | 4.9% | 34.3hPa | 2.6V | 00:00:00 | 01:32:59 | 00:00:00 | |
| DL1NUX | 2026-08-30 12:17:22 | 48.93325 | 10.07916 | 343° | 20km/h | 23407m | 6.1m/s | -53.4°C | 4.8% | 34.5hPa | 2.6V | 08:30:00 | 01:32:54 | 00:00:00 | |
| DK7TD | 2026-08-30 12:17:16 | 48.93316 | 10.07921 | 339° | 20km/h | 23397m | 4.3m/s | -53.4°C | 1.3% | 34.6hPa | 2.6V | 18:12:15 | 01:32:52 | 00:00:00 | |
| OE5DRO-10 | 2026-08-30 12:17:16 | 48.93316 | 10.07921 | 340° | 15km/h | 23397m | 4.3m/s | -53.3°C | 4.8% | 34.5hPa | 2.7V | 00:00:00 | 00:00:00 | 00:00:00 | |
| DL1ZP-14 | 2026-08-30 12:17:15 | 48.93307 | 10.07928 | 319° | 18km/h | 23386m | 5.8m/s | -53.4°C | 1.4% | 34.6hPa | 2.7V | 00:00:00 | 00:00:00 | 00:00:00 | |
| DL1NUX | 2026-08-30 12:17:12 | 48.93295 | 10.07948 | 313° | 7km/h | 23354m | 5.5m/s | -53.3°C | 4.9% | 34.8hPa | 2.7V | 08:30:00 | 01:32:44 | 00:00:00 | |
| DK7TD | 2026-08-30 12:17:06 | 48.93291 | 10.07951 | 346° | 11km/h | 23344m | 5.2m/s | -53.4°C | 1.4% | 34.9hPa | 2.7V | 18:12:15 | 01:32:42 | 00:00:00 | |
| DO3MHA-11 | 2026-08-30 12:17:06 | 48.93291 | 10.07951 | 346° | 16km/h | 23344m | 5.2m/s | -53.3°C | 4.9% | 34.8hPa | 2.6V | 00:00:00 | 01:32:42 | 00:00:00 | |
| NBG1-10 | 2026-08-30 12:17:03 | 48.93279 | 10.07953 | 351° | 13km/h | 23329m | 4.8m/s | -53.3°C | 4.7% | 34.9hPa | 2.6V | 00:00:00 | 01:32:39 | 00:00:00 | |
| DF3TZ-5 | 2026-08-30 12:17:02 | 48.93269 | 10.07959 | 329° | 22km/h | 23318m | 4.7m/s | -53.5°C | 1.5% | 35.0hPa | 2.6V | 00:00:00 | 00:00:00 | 00:00:00 | |
| DL6DJ-15 | 2026-08-30 12:17:00 | 48.93260 | 10.07967 | 324° | 16km/h | 23307m | 6.1m/s | -53.2°C | 1.4% | 35.1hPa | 2.6V | 00:00:00 | 00:00:00 | 00:00:00 | |
| DL1NUX | 2026-08-30 12:16:59 | 48.93253 | 10.07976 | 306° | 9km/h | 23293m | 5.6m/s | -53.1°C | 4.9% | 35.1hPa | 2.6V | 08:30:00 | 01:32:32 | 00:00:00 | |
| DK7TD | 2026-08-30 12:16:55 | 48.93252 | 10.07979 | 302° | 9km/h | 23287m | 5.4m/s | -53.1°C | 1.3% | 35.2hPa | 2.7V | 18:12:15 | 01:32:31 | 00:00:00 | |
| OE5DRO-10 | 2026-08-30 12:16:54 | 48.93251 | 10.07982 | 310° | 9km/h | 23282m | 4.5m/s | -53.1°C | 4.9% | 35.2hPa | 2.7V | 00:00:00 | 00:00:00 | 00:00:00 | |
| DG9SBQ-11 | 2026-08-30 12:16:52 | 48.93249 | 10.07983 | 340° | 7km/h | 23278m | 4.6m/s | -53.2°C | 1.4% | 35.2hPa | 2.7V | 00:00:00 | 00:00:00 | 00:00:00 | |
| DL1NUX | 2026-08-30 12:16:51 | 48.93225 | 10.07981 | 351° | 13km/h | 23241m | 5.7m/s | -53.2°C | 4.8% | 35.4hPa | 2.7V | 08:30:00 | 01:32:22 | 00:00:00 | |
| DK7TD | 2026-08-30 12:16:44 | 48.93221 | 10.07983 | 330° | 5km/h | 23230m | 4.8m/s | -53.1°C | 1.3% | 35.5hPa | 2.6V | 18:12:15 | 01:32:20 | 00:00:00 | |
| DL1ZP-14 | 2026-08-30 12:16:44 | 48.93220 | 10.07984 | 291° | 4km/h | 23225m | 5.3m/s | -53.1°C | 0% | 35.5hPa | 2.6V | 00:00:00 | 00:00:00 | 00:00:00 | |
| DJ8HS-15 | 2026-08-30 12:16:42 | 48.93220 | 10.07987 | 275° | 11km/h | 23220m | 6.1m/s | -53.0°C | 4.9% | 35.5hPa | 2.6V | 00:00:00 | 01:32:18 | 00:00:00 | |
| DG9SBQ-11 | 2026-08-30 12:16:41 | 48.93220 | 10.07990 | 277° | 9km/h | 23214m | 4.7m/s | -53.1°C | 1.4% | 35.6hPa | 2.6V | 00:00:00 | 00:00:00 | 00:00:00 | |
| OE5DXL-15 | 2026-08-30 12:16:40 | 48.93219 | 10.07993 | 279° | 13km/h | 23210m | 5.3m/s | -53.1°C | 4.9% | 35.6hPa | 2.6V | 00:00:00 | 00:00:00 | 00:00:00 | |
| DB0UT-7 | 2026-08-30 12:16:39 | 48.93219 | 10.07995 | 308° | 13km/h | 23204m | 5.4m/s | -53.1°C | 4.9% | 35.6hPa | 2.6V | 00:00:00 | 01:32:15 | 00:00:00 | |
| DL1NUX | 2026-08-30 12:16:38 | 48.93210 | 10.07996 | 355° | 16km/h | 23182m | 5.2m/s | -53.2°C | 4.9% | 35.8hPa | 2.7V | 08:30:00 | 01:32:11 | 00:00:00 | |
| DK7TD | 2026-08-30 12:16:33 | 48.93201 | 10.07997 | 359° | 16km/h | 23171m | 5.1m/s | -53.2°C | 1.3% | 35.8hPa | 2.6V | 18:12:15 | 01:32:09 | 00:00:00 | |
| DK7TD | 2026-08-30 12:16:23 | 48.93184 | 10.08021 | 343° | 9km/h | 23119m | 4.4m/s | -52.8°C | 1.2% | 36.1hPa | 2.6V | 18:12:15 | 01:31:59 | 00:00:00 | |
| DK7TD | 2026-08-30 12:16:12 | 48.93145 | 10.08035 | 316° | 11km/h | 23062m | 5.1m/s | -52.9°C | 1.2% | 36.4hPa | 2.6V | 18:12:15 | 01:31:48 | 00:00:00 | |
| DK7TD | 2026-08-30 12:16:02 | 48.93105 | 10.08039 | 340° | 24km/h | 23009m | 6.3m/s | -53.1°C | 1.2% | 36.7hPa | 2.6V | 18:12:15 | 01:31:38 | 00:00:00 | |
| DJ8HS-15 | 2026-08-30 12:16:02 | 48.93105 | 10.08039 | 341° | 20km/h | 23010m | 6.3m/s | -53.1°C | 4.7% | 36.7hPa | 2.7V | 00:00:00 | 01:31:38 | 00:00:00 | |
| DF3TZ-5 | 2026-08-30 12:16:00 | 48.93090 | 10.08052 | 320° | 24km/h | 22993m | 6.3m/s | -53.2°C | 1.4% | 36.8hPa | 2.7V | 00:00:00 | 00:00:00 | 00:00:00 | |
| DL1NUX | 2026-08-30 12:15:58 | 48.93062 | 10.08079 | 336° | 16km/h | 22956m | 5.1m/s | -53.2°C | 4.7% | 37hPa | 2.7V | 08:30:00 | 01:31:28 | 00:00:00 | |
| DK7TD | 2026-08-30 12:15:51 | 48.93058 | 10.08082 | 332° | 18km/h | 22951m | 4.6m/s | -53.3°C | 1.2% | 37.1hPa | 2.7V | 18:12:15 | 01:31:27 | 00:00:00 | |
| OE9MKV-15 | 2026-08-30 12:15:48 | 48.93046 | 10.08090 | 340° | 22km/h | 22936m | 4.8m/s | -53.2°C | 4.7% | 37.1hPa | 2.6V | 00:00:00 | 01:31:24 | 08:30:00 | |
| DL1NUX | 2026-08-30 12:15:46 | 48.93022 | 10.08107 | 343° | 22km/h | 22910m | 6.1m/s | -53.4°C | 4.9% | 37.3hPa | 2.6V | 08:30:00 | 01:31:19 | 00:00:00 | |
| DK7TD | 2026-08-30 12:15:41 | 48.93012 | 10.08108 | 359° | 20km/h | 22900m | 4.1m/s | -53.5°C | 1.4% | 37.4hPa | 2.7V | 18:12:15 | 01:31:17 | 00:00:00 | |
| PG1ADW-2 | 2026-08-30 12:15:40 | 48.93000 | 10.08109 | 353° | 22km/h | 22890m | 5.4m/s | -53.4°C | 4.9% | 37.4hPa | 2.6V | 00:00:00 | 01:31:15 | 00:00:00 | |
| DL1NUX | 2026-08-30 12:15:38 | 48.92970 | 10.08131 | 310° | 26km/h | 22858m | 5.7m/s | -53.6°C | 4.9% | 37.6hPa | 2.6V | 08:30:00 | 01:31:09 | 00:00:00 | |
| DK7TD | 2026-08-30 12:15:30 | 48.92960 | 10.08155 | 295° | 22km/h | 22842m | 5.3m/s | -53.6°C | 1.4% | 37.7hPa | 2.6V | 18:12:15 | 01:31:06 | 00:00:00 | |
| DG9SBQ-11 | 2026-08-30 12:15:28 | 48.92957 | 10.08162 | 299° | 20km/h | 22837m | 5.0m/s | -53.5°C | 1.4% | 37.7hPa | 2.6V | 00:00:00 | 00:00:00 | 00:00:00 | |
| DO3MHA-11 | 2026-08-30 12:15:26 | 48.92946 | 10.08180 | 327° | 24km/h | 22821m | 4.6m/s | -53.4°C | 4.9% | 37.8hPa | 2.6V | 00:00:00 | 01:31:02 | 08:30:00 | |
| DL1NUX | 2026-08-30 12:15:25 | 48.92933 | 10.08191 | 330° | 18km/h | 22805m | 4.5m/s | -53.4°C | 4.9% | 37.9hPa | 2.6V | 08:30:00 | 01:30:59 | 00:00:00 | |
| DK7TD | 2026-08-30 12:15:19 | 48.92915 | 10.08213 | 314° | 27km/h | 22784m | 4.9m/s | -53.3°C | 1.3% | 38hPa | 2.6V | 18:12:15 | 01:30:55 | 00:00:00 | |
| DK7TD | 2026-08-30 12:15:08 | 48.92869 | 10.08260 | 323° | 22km/h | 22727m | 5.8m/s | -53.2°C | 1.3% | 38.4hPa | 2.6V | 18:12:15 | 01:30:44 | 00:00:00 | |
| DB0UT-7 | 2026-08-30 12:15:08 | 48.92869 | 10.08260 | 324° | 22km/h | 22728m | 5.7m/s | -53.1°C | 4.8% | 38.3hPa | 2.6V | 00:00:00 | 00:00:00 | 00:00:00 | |
| DO3MHA-11 | 2026-08-30 12:15:06 | 48.92861 | 10.08273 | 304° | 18km/h | 22718m | 4.7m/s | -53.2°C | 4.8% | 38.4hPa | 2.6V | 00:00:00 | 01:30:42 | 00:00:00 | |
| DJ8HS-15 | 2026-08-30 12:15:02 | 48.92851 | 10.08298 | 319° | 20km/h | 22698m | 4.3m/s | -53.1°C | 4.9% | 38.5hPa | 2.6V | 00:00:00 | 01:30:38 | 00:00:00 | |
| PG1ADW-2 | 2026-08-30 12:15:00 | 48.92844 | 10.08304 | 335° | 22km/h | 22687m | 4.9m/s | -53.1°C | 4.8% | 38.6hPa | 2.6V | 00:00:00 | 00:00:00 | 00:00:00 | |
| DL1NUX | 2026-08-30 12:14:59 | 48.92819 | 10.08351 | 287° | 29km/h | 22651m | 4.9m/s | -53.2°C | 4.7% | 38.8hPa | 2.6V | 08:30:00 | 01:30:29 | 00:00:00 | |
| DK7TD | 2026-08-30 12:14:57 | 48.92832 | 10.08317 | 313° | 20km/h | 22672m | 4.7m/s | -53.1°C | 1.2% | 38.7hPa | 2.7V | 18:12:15 | 01:30:33 | 00:00:00 | |
| DK7TD | 2026-08-30 12:14:47 | 48.92810 | 10.08399 | 311° | 20km/h | 22621m | 4.4m/s | -53.3°C | 1.4% | 39hPa | 2.6V | 18:12:15 | 01:30:23 | 00:00:00 | |
| DO3MHA-11 | 2026-08-30 12:14:46 | 48.92807 | 10.08404 | 313° | 22km/h | 22616m | 4.7m/s | -53.1°C | 4.9% | 39.0hPa | 2.7V | 00:00:00 | 01:30:22 | 00:00:00 | |
| DL1NUX | 2026-08-30 12:14:45 | 48.92799 | 10.08420 | 296° | 16km/h | 22600m | 5.3m/s | -53.2°C | 4.8% | 39.1hPa | 2.7V | 08:30:00 | 01:30:19 | 00:00:00 | |
| SONCRA | 2026-08-30 12:14:45 | 48.92801 | 10.08415 | 303° | 15km/h | 22605m | 5.5m/s | -53.2°C | 1.4% | 39.1hPa | 2.7V | 00:00:00 | 00:00:00 | 00:00:00 | |
| DJ8HS-15 | 2026-08-30 12:14:42 | 48.92797 | 10.08426 | 295° | 18km/h | 22595m | 5.2m/s | -53.3°C | 4.9% | 39.2hPa | 2.7V | 00:00:00 | 01:30:18 | 00:00:00 | |
| DL1ZP-14 | 2026-08-30 12:14:40 | 48.92790 | 10.08451 | 286° | 26km/h | 22578m | 5.3m/s | -53.3°C | 1.4% | 39.3hPa | 2.7V | 00:00:00 | 00:00:00 | 00:00:00 | |
| OE5DRO-10 | 2026-08-30 12:14:39 | 48.92790 | 10.08451 | 287° | 15km/h | 22579m | 5.3m/s | -53.2°C | 4.8% | 39.2hPa | 2.7V | 00:00:00 | 00:00:00 | 08:30:00 | |
| DL1NUX | 2026-08-30 12:14:38 | 48.92786 | 10.08502 | 286° | 13km/h | 22547m | 4m/s | -53°C | 4.8% | 39.5hPa | 2.7V | 08:30:00 | 01:30:09 | 00:00:00 | |
| DK7TD | 2026-08-30 12:14:36 | 48.92788 | 10.08481 | 271° | 24km/h | 22562m | 4.7m/s | -53.2°C | 1.2% | 39.4hPa | 2.6V | 18:12:15 | 01:30:12 | 00:00:00 | |
| DK7TD | 2026-08-30 12:14:26 | 48.92786 | 10.08528 | 290° | 16km/h | 22510m | 4.4m/s | -52.9°C | 1.2% | 39.7hPa | 2.6V | 18:12:15 | 01:30:02 | 00:00:00 | |
| DO3MHA-11 | 2026-08-30 12:14:26 | 48.92786 | 10.08528 | 291° | 13km/h | 22510m | 4.3m/s | -52.9°C | 4.6% | 39.6hPa | 2.6V | 00:00:00 | 01:30:02 | 00:00:00 | |
| DL6DJ-15 | 2026-08-30 12:14:24 | 48.92784 | 10.08541 | 279° | 16km/h | 22499m | 5.8m/s | -53.0°C | 1.4% | 39.8hPa | 2.7V | 00:00:00 | 00:00:00 | 00:00:00 | |
| DL1NUX | 2026-08-30 12:14:22 | 48.92781 | 10.08560 | 283° | 15km/h | 22482m | 5.4m/s | -52.8°C | 4.6% | 39.9hPa | 2.7V | 08:30:00 | 01:29:57 | 00:00:00 | |
| DJ8HS-15 | 2026-08-30 12:14:22 | 48.92782 | 10.08554 | 282° | 9km/h | 22488m | 6.0m/s | -52.7°C | 4.6% | 39.8hPa | 2.7V | 00:00:00 | 01:29:58 | 00:00:00 | |
| DG9SBQ-11 | 2026-08-30 12:14:21 | 48.92782 | 10.08554 | 282° | 16km/h | 22488m | 6.1m/s | -52.8°C | 1.4% | 39.8hPa | 2.7V | 00:00:00 | 00:00:00 | 00:00:00 | |
| PG1ADW-2 | 2026-08-30 12:14:20 | 48.92781 | 10.08565 | 275° | 9km/h | 22477m | 4.6m/s | -52.7°C | 4.6% | 39.9hPa | 2.7V | 00:00:00 | 01:29:56 | 00:00:00 | |
| NBG1-10 | 2026-08-30 12:14:18 | 48.92782 | 10.08572 | 228° | 7km/h | 22467m | 4.8m/s | -52.7°C | 4.7% | 39.9hPa | 2.6V | 00:00:00 | 01:29:54 | 08:30:00 | |
| DM0DOS-11 | 2026-08-30 12:14:17 | 48.92781 | 10.08582 | 294° | 9km/h | 22434m | 5.9m/s | 0°C | 0% | 0hPa | 2.6V | 08:30:00 | 01:29:48 | 00:00:00 | |
| DG9SBQ-11 | 2026-08-30 12:14:17 | 48.92783 | 10.08574 | 211° | 5km/h | 22462m | 3.8m/s | -52.8°C | 1.5% | 40.0hPa | 2.6V | 00:00:00 | 00:00:00 | 00:00:00 | |
| DL1NUX | 2026-08-30 12:14:16 | 48.92780 | 10.08586 | 294° | 13km/h | 22429m | 4.5m/s | -53°C | 4.7% | 40.2hPa | 2.6V | 08:30:00 | 01:29:47 | 00:00:00 | |
| DK7TD | 2026-08-30 12:14:15 | 48.92784 | 10.08576 | 299° | 4km/h | 22452m | 5.6m/s | -52.8°C | 1.2% | 40.1hPa | 2.7V | 18:12:15 | 01:29:51 | 00:00:00 | |
| SONCRA | 2026-08-30 12:14:13 | 48.92782 | 10.08579 | 306° | 7km/h | 22441m | 5.8m/s | -52.9°C | 1.4% | 40.2hPa | 2.7V | 00:00:00 | 00:00:00 | 00:00:00 | |
| DG9SBQ-11 | 2026-08-30 12:14:10 | 48.92780 | 10.08586 | 295° | 13km/h | 22430m | 4.5m/s | -53.0°C | 1.4% | 40.2hPa | 2.7V | 00:00:00 | 00:00:00 | 00:00:00 | |
| DB0ND-19 | 2026-08-30 12:14:09 | 48.92774 | 10.08600 | 304° | 13km/h | 22413m | 5.1m/s | -53.2°C | 1.4% | 40.3hPa | 2.7V | 00:00:00 | 00:00:00 | 00:00:00 | |
| OE5DXL-15 | 2026-08-30 12:14:08 | 48.92774 | 10.08600 | 305° | 5km/h | 22414m | 5.1m/s | -53.1°C | 4.7% | 40.2hPa | 2.7V | 00:00:00 | 00:00:00 | 00:00:00 | |
| DL1NUX | 2026-08-30 12:14:06 | 48.92769 | 10.08611 | 2° | 4km/h | 22377m | 4.7m/s | -53.2°C | 4.8% | 40.6hPa | 2.7V | 08:30:00 | 01:29:37 | 00:00:00 | |
| DK7TD | 2026-08-30 12:14:04 | 48.92772 | 10.08611 | 309° | 2km/h | 22392m | 5.7m/s | -53.1°C | 1.2% | 40.4hPa | 2.6V | 18:12:15 | 01:29:40 | 00:00:00 | |
| DB0UT-7 | 2026-08-30 12:14:04 | 48.92771 | 10.08611 | 309° | 7km/h | 22392m | 5.6m/s | -53.0°C | 4.7% | 40.4hPa | 2.7V | 00:00:00 | 00:00:00 | 00:00:00 | |
| DM0DOS-11 | 2026-08-30 12:14:02 | 48.92767 | 10.08612 | 7° | 2km/h | 22356m | 4.5m/s | 0°C | 0% | 0hPa | 2.7V | 08:30:00 | 01:29:33 | 00:00:00 | |
| DJ8HS-15 | 2026-08-30 12:14:02 | 48.92770 | 10.08611 | 7° | 5km/h | 22381m | 4.3m/s | -53.1°C | 4.8% | 40.5hPa | 2.7V | 00:00:00 | 01:29:38 | 00:00:00 | |
| PG1ADW-2 | 2026-08-30 12:14:00 | 48.92768 | 10.08611 | 357° | 5km/h | 22372m | 5.9m/s | -53.2°C | 4.8% | 40.5hPa | 2.7V | 00:00:00 | 00:00:00 | 00:00:00 | |
| DG9SBQ-11 | 2026-08-30 12:13:59 | 48.92768 | 10.08611 | 357° | 2km/h | 22372m | 6.0m/s | -53.2°C | 1.5% | 40.6hPa | 2.7V | 00:00:00 | 00:00:00 | 00:00:00 | |
| DO9HM | 2026-08-30 12:13:58 | 48.92768 | 10.08612 | 0° | 0km/h | 22361m | 4.3m/s | -53.2°C | 1.5% | 40.6hPa | 2.7V | 00:00:00 | 00:00:00 | 00:00:00 | |
| KANTATE | 2026-08-30 12:13:57 | 48.92768 | 10.08612 | 0° | 0km/h | 22361m | 4.3m/s | -53.2°C | 1.4% | 40.6hPa | 2.7V | 00:00:00 | 00:00:00 | 00:00:00 | |
| DL1NUX | 2026-08-30 12:13:56 | 48.92757 | 10.08613 | 335° | 5km/h | 22323m | 4.4m/s | -53.2°C | 4.7% | 40.9hPa | 2.7V | 08:30:00 | 01:29:27 | 00:00:00 | |
| DK7TD | 2026-08-30 12:13:53 | 48.92760 | 10.08611 | 355° | 9km/h | 22334m | 6.2m/s | -53.2°C | 1.2% | 40.8hPa | 2.6V | 18:12:15 | 01:29:29 | 00:00:00 | |
| DM0DOS-11 | 2026-08-30 12:13:48 | 48.92747 | 10.08612 | 4° | 7km/h | 22280m | 5.8m/s | 0°C | 0% | 0hPa | 2.7V | 08:30:00 | 01:29:19 | 00:00:00 | |
| OE9MKV-15 | 2026-08-30 12:13:48 | 48.92752 | 10.08614 | 4° | 9km/h | 22307m | 4.9m/s | -53.3°C | 4.7% | 40.9hPa | 2.6V | 00:00:00 | 01:29:24 | 00:00:00 | |
| DK5PH-5 | 2026-08-30 12:13:47 | 48.92751 | 10.08614 | 14° | 9km/h | 22302m | 6.3m/s | -53.2°C | 4.7% | 40.9hPa | 2.6V | 00:00:00 | 01:29:23 | 00:00:00 | |
| DL1NUX | 2026-08-30 12:13:46 | 48.92742 | 10.08613 | 341° | 11km/h | 22270m | 5.5m/s | -53.4°C | 4.7% | 41.2hPa | 2.6V | 08:30:00 | 01:29:17 | 00:00:00 | |
| DK7TD | 2026-08-30 12:13:43 | 48.92747 | 10.08612 | 5° | 7km/h | 22280m | 5.8m/s | -53.5°C | 1.3% | 41.1hPa | 2.7V | 18:12:15 | 01:29:19 | 00:00:00 | |
| DJ8HS-15 | 2026-08-30 12:13:42 | 48.92745 | 10.08612 | 354° | 11km/h | 22275m | 4.7m/s | -53.3°C | 4.7% | 41.1hPa | 2.6V | 00:00:00 | 01:29:18 | 00:00:00 | |
| PG1ADW-2 | 2026-08-30 12:13:40 | 48.92739 | 10.08615 | 329° | 16km/h | 22264m | 5.8m/s | -53.3°C | 4.7% | 41.2hPa | 2.6V | 00:00:00 | 00:00:00 | 00:00:00 | |
| OE5DRO-10 | 2026-08-30 12:13:39 | 48.92737 | 10.08617 | 321° | 9km/h | 22259m | 4.6m/s | -53.4°C | 4.7% | 41.2hPa | 2.6V | 00:00:00 | 00:00:00 | 00:00:00 | |
| DB0ND-19 | 2026-08-30 12:13:38 | 48.92731 | 10.08624 | 322° | 15km/h | 22248m | 5.4m/s | -53.4°C | 1.4% | 41.4hPa | 2.6V | 00:00:00 | 00:00:00 | 00:00:00 | |
| DM0DOS-11 | 2026-08-30 12:13:37 | 48.92723 | 10.08638 | 298° | 9km/h | 22226m | 4.4m/s | 0°C | 0% | 0hPa | 2.6V | 08:30:00 | 01:29:09 | 00:00:00 | |
| DO3MHA-11 | 2026-08-30 12:13:36 | 48.92729 | 10.08627 | 318° | 11km/h | 22243m | 4.8m/s | -53.4°C | 4.7% | 41.4hPa | 2.7V | 00:00:00 | 01:29:12 | 00:00:00 | |
| DL1NUX | 2026-08-30 12:13:35 | 48.92720 | 10.08642 | 338° | 9km/h | 22216m | 5.8m/s | -53.7°C | 4.9% | 41.6hPa | 2.7V | 08:30:00 | 01:29:07 | 00:00:00 | |
| DK7TD | 2026-08-30 12:13:32 | 48.92722 | 10.08641 | 315° | 7km/h | 22221m | 5.7m/s | -53.7°C | 1.3% | 41.5hPa | 2.6V | 18:12:15 | 01:29:08 | 00:00:00 | |
| DJTTGO | 2026-08-30 12:13:31 | 48.92718 | 10.08643 | 357° | 11km/h | 22211m | 4.8m/s | -53.8°C | 1.5% | 41.6hPa | 2.6V | 00:00:00 | 00:00:00 | 00:00:00 | |
| DG9SBQ-11 | 2026-08-30 12:13:27 | 48.92713 | 10.08643 | 12° | 9km/h | 22200m | 5.8m/s | -54.0°C | 1.5% | 41.7hPa | 2.6V | 00:00:00 | 00:00:00 | 00:00:00 | |
| DO3MHA-11 | 2026-08-30 12:13:26 | 48.92709 | 10.08641 | 9° | 5km/h | 22189m | 5.9m/s | -53.9°C | 4.9% | 41.7hPa | 2.6V | 00:00:00 | 01:29:02 | 00:00:00 | |
| DM0DOS-11 | 2026-08-30 12:13:25 | 48.92700 | 10.08644 | 340° | 2km/h | 22156m | 6.2m/s | 0°C | 0% | 0hPa | 2.7V | 08:30:00 | 01:28:56 | 00:00:00 | |
| DF3TZ-5 | 2026-08-30 12:13:25 | 48.92704 | 10.08641 | 349° | 9km/h | 22178m | 4.6m/s | -53.9°C | 1.4% | 41.8hPa | 2.6V | 00:00:00 | 00:00:00 | 00:00:00 | |
| DL1NUX | 2026-08-30 12:13:23 | 48.92701 | 10.08644 | 299° | 2km/h | 22162m | 4.9m/s | -54.1°C | 5% | 41.9hPa | 2.6V | 08:30:00 | 01:28:57 | 00:00:00 | |
| DK7TD | 2026-08-30 12:13:21 | 48.92701 | 10.08644 | 299° | 2km/h | 22162m | 4.9m/s | -54.1°C | 1.4% | 41.9hPa | 2.6V | 18:12:15 | 01:28:57 | 00:00:00 | |
| OE5DRO-10 | 2026-08-30 12:13:20 | 48.92700 | 10.08644 | 341° | 13km/h | 22157m | 6.2m/s | -54.2°C | 5.0% | 41.9hPa | 2.6V | 00:00:00 | 00:00:00 | 00:00:00 | |
| OE9MKV-15 | 2026-08-30 12:13:18 | 48.92697 | 10.08644 | 11° | 16km/h | 22146m | 4.1m/s | -54.2°C | 5.1% | 42.0hPa | 2.6V | 00:00:00 | 01:28:54 | 00:00:00 | |
| DK5PH-5 | 2026-08-30 12:13:17 | 48.92695 | 10.08643 | 14° | 16km/h | 22141m | 5.7m/s | -54.2°C | 5.1% | 42.0hPa | 2.6V | 00:00:00 | 01:28:53 | 00:00:00 | |
| DO3MHA-11 | 2026-08-30 12:13:16 | 48.92693 | 10.08642 | 13° | 16km/h | 22135m | 5.5m/s | -54.2°C | 5.1% | 42.1hPa | 2.6V | 00:00:00 | 01:28:52 | 00:00:00 | |
| DL1NUX | 2026-08-30 12:13:15 | 48.92674 | 10.08646 | 343° | 24km/h | 22109m | 4.1m/s | -54.1°C | 4.9% | 42.3hPa | 2.6V | 08:30:00 | 01:28:47 | 00:00:00 | |
| DK7TD | 2026-08-30 12:13:11 | 48.92674 | 10.08646 | 343° | 24km/h | 22109m | 4.1m/s | -54.1°C | 1.4% | 42.3hPa | 2.6V | 18:12:15 | 01:28:47 | 00:00:00 | |
| SONCRA | 2026-08-30 12:13:11 | 48.92668 | 10.08649 | 339° | 22km/h | 22104m | 5.4m/s | -54.2°C | 1.5% | 42.3hPa | 2.7V | 00:00:00 | 00:00:00 | 00:00:00 | |
| DG9SBQ-11 | 2026-08-30 12:13:09 | 48.92669 | 10.08648 | 341° | 22km/h | 22105m | 5.4m/s | -54.2°C | 1.5% | 42.3hPa | 2.7V | 00:00:00 | 00:00:00 | 00:00:00 | |
| OE5DXL-15 | 2026-08-30 12:13:08 | 48.92660 | 10.08654 | 340° | 18km/h | 22094m | 4.6m/s | -54.1°C | 4.9% | 42.3hPa | 2.7V | 00:00:00 | 00:00:00 | 00:00:00 | |
| DB0ND-19 | 2026-08-30 12:13:07 | 48.92653 | 10.08656 | 353° | 11km/h | 22083m | 5.6m/s | -54.3°C | 1.5% | 42.4hPa | 2.7V | 00:00:00 | 00:00:00 | 00:00:00 | |
| DO3MHA-11 | 2026-08-30 12:13:06 | 48.92653 | 10.08656 | 354° | 16km/h | 22084m | 5.6m/s | -54.2°C | 5.0% | 42.4hPa | 2.7V | 00:00:00 | 01:28:42 | 00:00:00 | |
| DB0UT-7 | 2026-08-30 12:13:04 | 48.92648 | 10.08657 | 351° | 20km/h | 22073m | 5.3m/s | -54.1°C | 5.1% | 42.5hPa | 2.7V | 00:00:00 | 00:00:00 | 00:00:00 | |
| DL1NUX | 2026-08-30 12:13:02 | 48.92641 | 10.08661 | 340° | 13km/h | 22057m | 5.3m/s | -54.2°C | 5% | 42.6hPa | 2.7V | 08:30:00 | 01:28:37 | 00:00:00 | |
| DK7TD | 2026-08-30 12:13:01 | 48.92641 | 10.08661 | 340° | 13km/h | 22057m | 5.3m/s | -54.2°C | 1.4% | 42.6hPa | 2.7V | 18:12:15 | 01:28:37 | 00:00:00 | |
| DF7PN | 2026-08-30 12:13:00 | 48.92632 | 10.08665 | 341° | 22km/h | 22046m | 5.1m/s | -54.2°C | 1.5% | 42.7hPa | 2.6V | 00:00:00 | 00:00:00 | 00:00:00 | |
| DG9SBQ-11 | 2026-08-30 12:12:59 | 48.92632 | 10.08665 | 343° | 24km/h | 22047m | 5.1m/s | -54.2°C | 1.5% | 42.7hPa | 2.6V | 00:00:00 | 00:00:00 | 00:00:00 | |
| DL1NUX | 2026-08-30 12:12:56 | 48.92595 | 10.08702 | 315° | 15km/h | 22004m | 6.4m/s | -54.3°C | 5% | 43hPa | 2.6V | 08:30:00 | 01:28:27 | 00:00:00 | |
| DK7TD | 2026-08-30 12:12:50 | 48.92593 | 10.08706 | 309° | 13km/h | 21998m | 4.6m/s | -54.2°C | 1.4% | 43hPa | 2.7V | 18:12:15 | 01:28:26 | 00:00:00 | |
| OE9MKV-15 | 2026-08-30 12:12:48 | 48.92588 | 10.08713 | 326° | 22km/h | 21988m | 6.1m/s | -54.3°C | 5.1% | 43.0hPa | 2.6V | 00:00:00 | 01:28:24 | 00:00:00 | |
| DK5PH-5 | 2026-08-30 12:12:47 | 48.92584 | 10.08716 | 336° | 22km/h | 21983m | 4.9m/s | -54.3°C | 5.1% | 43.1hPa | 2.6V | 00:00:00 | 01:28:23 | 00:00:00 | |
| DO3MHA-11 | 2026-08-30 12:12:46 | 48.92580 | 10.08719 | 334° | 24km/h | 21978m | 4.4m/s | -54.4°C | 5.1% | 43.1hPa | 2.6V | 00:00:00 | 01:28:22 | 00:00:00 | |
| DL1NUX | 2026-08-30 12:12:45 | 48.92557 | 10.08747 | 320° | 27km/h | 21951m | 5.8m/s | -54.5°C | 5% | 43.3hPa | 2.6V | 08:30:00 | 01:28:17 | 00:00:00 | |
| DK7TD | 2026-08-30 12:12:40 | 48.92552 | 10.08753 | 321° | 29km/h | 21946m | 4.1m/s | -54.6°C | 1.4% | 43.4hPa | 2.6V | 18:12:15 | 01:28:16 | 00:00:00 | |
| NBG1-10 | 2026-08-30 12:12:39 | 48.92546 | 10.08760 | 317° | 18km/h | 21942m | 5.1m/s | -54.5°C | 5.0% | 43.3hPa | 2.6V | 00:00:00 | 01:28:15 | 00:00:00 | |
| DM0DOS-11 | 2026-08-30 12:12:37 | 48.92517 | 10.08799 | 328° | 26km/h | 21912m | 4.8m/s | 0°C | 0% | 0hPa | 2.6V | 08:30:00 | 01:28:09 | 00:00:00 | |
| OE5DXL-15 | 2026-08-30 12:12:37 | 48.92537 | 10.08776 | 311° | 18km/h | 21931m | 3.9m/s | -54.4°C | 5.1% | 43.4hPa | 2.7V | 00:00:00 | 00:00:00 | 08:30:00 | |
| DB0ND-19 | 2026-08-30 12:12:36 | 48.92528 | 10.08789 | 322° | 24km/h | 21922m | 5.3m/s | -54.4°C | 1.5% | 43.5hPa | 2.6V | 00:00:00 | 00:00:00 | 00:00:00 | |
| DL1ZP-14 | 2026-08-30 12:12:35 | 48.92528 | 10.08789 | 322° | 24km/h | 21922m | 5.3m/s | -54.4°C | 1.5% | 43.5hPa | 2.6V | 00:00:00 | 00:00:00 | 00:00:00 | |
| DB0UT-7 | 2026-08-30 12:12:34 | 48.92523 | 10.08795 | 329° | 18km/h | 21917m | 4.8m/s | -54.3°C | 5.1% | 43.5hPa | 2.7V | 00:00:00 | 01:28:10 | 00:00:00 | |
| DO3MHA-11 | 2026-08-30 12:12:33 | 48.92517 | 10.08799 | 329° | 26km/h | 21912m | 4.8m/s | -54.3°C | 5.1% | 43.5hPa | 2.7V | 00:00:00 | 01:28:09 | 00:00:00 | |
| DL1NUX | 2026-08-30 12:12:32 | 48.92507 | 10.08810 | 322° | 24km/h | 21901m | 4.4m/s | -54.4°C | 5% | 43.7hPa | 2.7V | 08:30:00 | 01:28:07 | 00:00:00 | |
| DK7TD | 2026-08-30 12:12:29 | 48.92499 | 10.08820 | 328° | 18km/h | 21892m | 6.1m/s | -54.6°C | 1.4% | 43.7hPa | 2.7V | 18:12:15 | 01:28:05 | 00:00:00 | |
| DF7PN | 2026-08-30 12:12:29 | 48.92495 | 10.08822 | 335° | 13km/h | 21886m | 5.2m/s | -54.6°C | 1.5% | 43.8hPa | 2.6V | 00:00:00 | 00:00:00 | 00:00:00 | |
| SO1NDE-10 | 2026-08-30 12:12:28 | 48.92495 | 10.08822 | 336° | 16km/h | 21886m | 5.1m/s | -54.5°C | 5.1% | 43.7hPa | 2.6V | 00:00:00 | 01:28:04 | 00:00:00 | |
| DL1NUX | 2026-08-30 12:12:26 | 48.92474 | 10.08843 | 332° | 24km/h | 21851m | 4.7m/s | -54.6°C | 5% | 44hPa | 2.6V | 08:30:00 | 01:27:57 | 00:00:00 | |
| DK7TD | 2026-08-30 12:12:19 | 48.92463 | 10.08853 | 327° | 26km/h | 21840m | 4.4m/s | -54.7°C | 1.4% | 44.1hPa | 2.6V | 18:12:15 | 01:27:55 | 00:00:00 | |
| DG9SBQ-11 | 2026-08-30 12:12:19 | 48.92463 | 10.08853 | 328° | 26km/h | 21841m | 4.4m/s | -54.7°C | 1.5% | 44.1hPa | 2.6V | 00:00:00 | 00:00:00 | 00:00:00 | |
| OE9MKV-15 | 2026-08-30 12:12:18 | 48.92458 | 10.08858 | 331° | 16km/h | 21836m | 3.9m/s | -54.7°C | 5.1% | 44.1hPa | 2.6V | 00:00:00 | 01:27:54 | 00:00:00 | |
| DK5PH-5 | 2026-08-30 12:12:17 | 48.92453 | 10.08861 | 338° | 16km/h | 21832m | 5.8m/s | -54.7°C | 5.1% | 44.1hPa | 2.6V | 00:00:00 | 01:27:53 | 00:00:00 | |
| DG9SBQ-11 | 2026-08-30 12:12:13 | 48.92442 | 10.08865 | 344° | 9km/h | 21816m | 5.7m/s | -54.9°C | 1.6% | 44.3hPa | 2.6V | 00:00:00 | 00:00:00 | 00:00:00 | |
| DL1NUX | 2026-08-30 12:12:12 | 48.92438 | 10.08871 | 313° | 9km/h | 21801m | 5.7m/s | -55°C | 5.3% | 44.4hPa | 2.6V | 08:30:00 | 01:27:47 | 00:00:00 | |
| DK7TD | 2026-08-30 12:12:09 | 48.92434 | 10.08877 | 314° | 15km/h | 21792m | 4.3m/s | -55°C | 1.5% | 44.4hPa | 2.6V | 18:12:15 | 01:27:45 | 00:00:00 | |
| DO3MHA-11 | 2026-08-30 12:12:09 | 48.92434 | 10.08877 | 315° | 16km/h | 21792m | 4.2m/s | -54.9°C | 5.3% | 44.4hPa | 2.7V | 00:00:00 | 01:27:45 | 00:00:00 | |
| DG1MJG | 2026-08-30 12:12:08 | 48.92431 | 10.08881 | 310° | 18km/h | 21787m | 6.1m/s | -55.0°C | 1.6% | 44.5hPa | 2.7V | 00:00:00 | 00:00:00 | 00:00:00 | |
| OE5DXL-15 | 2026-08-30 12:12:07 | 48.92428 | 10.08887 | 306° | 22km/h | 21781m | 5.0m/s | -54.9°C | 5.3% | 44.5hPa | 2.7V | 00:00:00 | 00:00:00 | 00:00:00 | |
| NBG1-10 | 2026-08-30 12:12:06 | 48.92425 | 10.08894 | 310° | 22km/h | 21776m | 4.4m/s | -54.9°C | 5.3% | 44.5hPa | 2.7V | 00:00:00 | 01:27:42 | 00:00:00 | |
| DL1NUX | 2026-08-30 12:12:05 | 48.92406 | 10.08922 | 307° | 18km/h | 21752m | 4.9m/s | -54.7°C | 5.2% | 44.7hPa | 2.7V | 08:30:00 | 01:27:37 | 00:00:00 | |
| DK7TD | 2026-08-30 12:11:58 | 48.92398 | 10.08936 | 319° | 16km/h | 21737m | 5m/s | -54.8°C | 1.4% | 44.8hPa | 2.6V | 18:12:15 | 01:27:34 | 00:00:00 | |
| SO1NDE-10 | 2026-08-30 12:11:58 | 48.92398 | 10.08936 | 319° | 22km/h | 21737m | 4.9m/s | -54.7°C | 5.1% | 44.8hPa | 2.6V | 00:00:00 | 01:27:34 | 00:00:00 | |
| DO3MHA-11 | 2026-08-30 12:11:56 | 48.92392 | 10.08945 | 308° | 18km/h | 21728m | 5.4m/s | -54.6°C | 5.0% | 44.8hPa | 2.6V | 00:00:00 | 01:27:32 | 00:00:00 | |
| DL1NUX | 2026-08-30 12:11:52 | 48.92381 | 10.08973 | 301° | 16km/h | 21701m | 4.7m/s | -54.7°C | 5.2% | 45hPa | 2.6V | 08:30:00 | 01:27:27 | 00:00:00 | |
| DK7TD | 2026-08-30 12:11:48 | 48.92375 | 10.08992 | 298° | 20km/h | 21685m | 5.1m/s | -54.9°C | 1.6% | 45.2hPa | 2.6V | 18:12:15 | 01:27:24 | 00:00:00 | |
| OE9MKV-15 | 2026-08-30 12:11:48 | 48.92375 | 10.08992 | 299° | 24km/h | 21686m | 5.0m/s | -54.9°C | 5.4% | 45.1hPa | 2.7V | 00:00:00 | 01:27:24 | 00:00:00 | |
| DK5PH-5 | 2026-08-30 12:11:47 | 48.92372 | 10.08999 | 304° | 26km/h | 21680m | 5.4m/s | -54.8°C | 5.3% | 45.2hPa | 2.7V | 00:00:00 | 01:27:23 | 00:00:00 | |
| DL1NUX | 2026-08-30 12:11:45 | 48.92352 | 10.09049 | 306° | 29km/h | 21651m | 5.5m/s | -54.9°C | 5.1% | 45.4hPa | 2.7V | 08:30:00 | 01:27:17 | 00:00:00 | |
| DK7TD | 2026-08-30 12:11:37 | 48.92335 | 10.09086 | 296° | 29km/h | 21631m | 4.4m/s | -54.7°C | 1.6% | 45.6hPa | 2.6V | 18:12:15 | 01:27:13 | 00:00:00 | |
| OE5DXL-15 | 2026-08-30 12:11:37 | 48.92334 | 10.09086 | 297° | 24km/h | 21631m | 4.4m/s | -54.6°C | 5.3% | 45.5hPa | 2.7V | 00:00:00 | 00:00:00 | 00:00:00 | |
| DG1MJG | 2026-08-30 12:11:36 | 48.92334 | 10.09086 | 297° | 29km/h | 21631m | 4.4m/s | -54.7°C | 1.6% | 45.6hPa | 2.7V | 00:00:00 | 00:00:00 | 00:00:00 | |
| DB0ND-19 | 2026-08-30 12:11:34 | 48.92324 | 10.09122 | 287° | 22km/h | 21612m | 5.3m/s | -54.6°C | 1.6% | 45.7hPa | 2.7V | 00:00:00 | 00:00:00 | 00:00:00 | |
| NBG1-10 | 2026-08-30 12:11:33 | 48.92324 | 10.09122 | 288° | 22km/h | 21612m | 5.2m/s | -54.6°C | 5.3% | 45.6hPa | 2.7V | 00:00:00 | 01:27:09 | 00:00:00 | |
| DL1NUX | 2026-08-30 12:11:32 | 48.92321 | 10.09140 | 283° | 24km/h | 21602m | 4.1m/s | -54.7°C | 5.2% | 45.8hPa | 2.7V | 08:30:00 | 01:27:07 | 00:00:00 | |
| DK7TD | 2026-08-30 12:11:27 | 48.92313 | 10.09171 | 297° | 22km/h | 21582m | 5.1m/s | -54.7°C | 1.4% | 45.9hPa | 2.6V | 18:12:15 | 01:27:03 | 00:00:00 | |
| DL1NUX | 2026-08-30 12:11:26 | 48.92306 | 10.09221 | 263° | 22km/h | 21551m | 5.7m/s | -54.5°C | 5.1% | 46.1hPa | 2.6V | 08:30:00 | 01:26:57 | 00:00:00 | |
| DK7TD | 2026-08-30 12:11:17 | 48.92311 | 10.09257 | 259° | 20km/h | 21533m | 5.4m/s | -54.3°C | 1.4% | 46.3hPa | 2.7V | 18:12:15 | 01:26:53 | 00:00:00 | |
| DK5PH-5 | 2026-08-30 12:11:17 | 48.92311 | 10.09256 | 260° | 20km/h | 21533m | 5.4m/s | -54.2°C | 5.1% | 46.2hPa | 2.7V | 00:00:00 | 01:26:53 | 00:00:00 | |
| DL1NUX | 2026-08-30 12:11:15 | 48.92310 | 10.09308 | 266° | 27km/h | 21505m | 4.5m/s | -54.3°C | 5.1% | 46.5hPa | 2.6V | 08:30:00 | 01:26:47 | 00:00:00 | |
| DK7TD | 2026-08-30 12:11:06 | 48.92317 | 10.09351 | 257° | 20km/h | 21479m | 4.9m/s | -54.2°C | 1.4% | 46.7hPa | 2.7V | 18:12:15 | 01:26:42 | 00:00:00 | |
| DK7TD | 2026-08-30 12:10:56 | 48.92322 | 10.09427 | 248° | 18km/h | 21430m | 4.2m/s | -54.1°C | 1.4% | 47hPa | 2.6V | 18:12:15 | 01:26:32 | 00:00:00 | |
| DL1NUX | 2026-08-30 12:10:56 | 48.92334 | 10.09461 | 225° | 18km/h | 21406m | 5.8m/s | -53.8°C | 5% | 47.2hPa | 2.6V | 08:30:00 | 01:26:27 | 00:00:00 | |
| DK7TD | 2026-08-30 12:10:45 | 48.92347 | 10.09491 | 245° | 16km/h | 21378m | 4.9m/s | -54°C | 1.4% | 47.4hPa | 2.6V | 18:12:15 | 01:26:21 | 00:00:00 | |
| DL1NUX | 2026-08-30 12:10:42 | 48.92354 | 10.09506 | 237° | 11km/h | 21357m | 5.8m/s | -54.1°C | 4.9% | 47.5hPa | 2.6V | 08:30:00 | 01:26:17 | 00:00:00 | |
| DJ8HS-15 | 2026-08-30 12:10:42 | 48.92352 | 10.09503 | 232° | 11km/h | 21363m | 4.6m/s | -54.1°C | 4.9% | 47.5hPa | 2.7V | 00:00:00 | 01:26:18 | 00:00:00 | |
| DG9SBQ-11 | 2026-08-30 12:10:41 | 48.92352 | 10.09503 | 232° | 11km/h | 21363m | 4.7m/s | -54.1°C | 1.5% | 47.5hPa | 2.7V | 00:00:00 | 00:00:00 | 00:00:00 | |
| DL8DAS-15 | 2026-08-30 12:10:39 | 48.92355 | 10.09510 | 242° | 13km/h | 21352m | 4.3m/s | 0°C | 0% | 0hPa | 2.7V | 00:00:00 | 00:00:00 | 00:00:00 | |
| OE5DXL-15 | 2026-08-30 12:10:38 | 48.92359 | 10.09518 | 221° | 9km/h | 21343m | 6.0m/s | -54.2°C | 4.9% | 47.6hPa | 2.7V | 00:00:00 | 00:00:00 | 00:00:00 | |
| SONCRA | 2026-08-30 12:10:36 | 48.92373 | 10.09532 | 216° | 18km/h | 21322m | 3.8m/s | -54.3°C | 1.6% | 47.8hPa | 2.7V | 00:00:00 | 00:00:00 | 00:00:00 | |
| DL1NUX | 2026-08-30 12:10:35 | 48.92383 | 10.09540 | 182° | 11km/h | 21308m | 4.6m/s | -54.3°C | 5.2% | 48hPa | 2.7V | 08:30:00 | 01:26:07 | 00:00:00 | |
| DK7TD | 2026-08-30 12:10:34 | 48.92373 | 10.09532 | 217° | 18km/h | 21322m | 3.8m/s | -54.3°C | 1.5% | 47.8hPa | 2.6V | 18:12:15 | 01:26:10 | 00:00:00 | |
| DK7TD | 2026-08-30 12:10:23 | 48.92391 | 10.09550 | 232° | 7km/h | 21269m | 5m/s | -54.4°C | 1.5% | 48.2hPa | 2.7V | 18:12:15 | 01:25:59 | 00:00:00 | |
| DL1NUX | 2026-08-30 12:10:22 | 48.92394 | 10.09555 | 228° | 11km/h | 21258m | 5.2m/s | -54.3°C | 5.1% | 48.3hPa | 2.6V | 08:30:00 | 01:25:57 | 00:00:00 | |
| DJ8HS-15 | 2026-08-30 12:10:22 | 48.92392 | 10.09552 | 229° | 7km/h | 21264m | 5.4m/s | -54.3°C | 5.1% | 48.2hPa | 2.7V | 00:00:00 | 01:25:58 | 08:30:00 | |
| DG9SBQ-11 | 2026-08-30 12:10:20 | 48.92394 | 10.09555 | 230° | 11km/h | 21258m | 5.2m/s | -54.3°C | 1.5% | 48.3hPa | 2.6V | 00:00:00 | 00:00:00 | 00:00:00 | |
| OE9MKV-15 | 2026-08-30 12:10:18 | 48.92399 | 10.09562 | 188° | 7km/h | 21244m | 5.3m/s | -54.1°C | 5.1% | 48.4hPa | 2.6V | 00:00:00 | 01:25:54 | 00:00:00 | |
| DK5PH-5 | 2026-08-30 12:10:17 | 48.92399 | 10.09562 | 112° | 7km/h | 21239m | 4.8m/s | -54.0°C | 5.0% | 48.4hPa | 2.6V | 00:00:00 | 01:25:53 | 00:00:00 | |
| DL1NUX | 2026-08-30 12:10:16 | 48.92391 | 10.09566 | 317° | 7km/h | 21207m | 4.8m/s | -54.1°C | 5% | 48.6hPa | 2.6V | 08:30:00 | 01:25:47 | 00:00:00 | |
| DK7TD | 2026-08-30 12:10:13 | 48.92395 | 10.09563 | 346° | 9km/h | 21218m | 6.1m/s | -54.2°C | 1.4% | 48.6hPa | 2.7V | 18:12:15 | 01:25:49 | 00:00:00 | |
| DK7TD | 2026-08-30 12:10:02 | 48.92390 | 10.09585 | 347° | 11km/h | 21163m | 4.5m/s | -53.9°C | 1.4% | 49hPa | 2.6V | 18:12:15 | 01:25:38 | 00:00:00 | |
| DL1NUX | 2026-08-30 12:10:02 | 48.92387 | 10.09585 | 359° | 15km/h | 21158m | 6.2m/s | -53.9°C | 4.9% | 49hPa | 2.7V | 08:30:00 | 01:25:37 | 00:00:00 | |
| DJ8HS-15 | 2026-08-30 12:10:02 | 48.92390 | 10.09585 | 348° | 9km/h | 21163m | 4.4m/s | -53.8°C | 5.0% | 49.0hPa | 2.7V | 00:00:00 | 01:25:38 | 00:00:00 | |
| DL1ZP-14 | 2026-08-30 12:10:00 | 48.92378 | 10.09585 | 0° | 16km/h | 21147m | 4.8m/s | -53.9°C | 1.5% | 49.1hPa | 2.7V | 00:00:00 | 00:00:00 | 00:00:00 | |
| DG9SBQ-11 | 2026-08-30 12:09:59 | 48.92382 | 10.09585 | 6° | 16km/h | 21152m | 5.0m/s | -53.9°C | 1.5% | 49.1hPa | 2.6V | 00:00:00 | 00:00:00 | 00:00:00 | |
| SO1NDE-10 | 2026-08-30 12:09:58 | 48.92374 | 10.09585 | 350° | 11km/h | 21142m | 5.7m/s | -53.8°C | 4.9% | 49.1hPa | 2.6V | 00:00:00 | 01:25:34 | 00:00:00 | |
| DL1NUX | 2026-08-30 12:09:55 | 48.92365 | 10.09599 | 259° | 5km/h | 21105m | 4.1m/s | -53.6°C | 4.9% | 49.5hPa | 2.6V | 08:30:00 | 01:25:27 | 00:00:00 | |
| DK7TD | 2026-08-30 12:09:52 | 48.92365 | 10.09597 | 256° | 7km/h | 21110m | 5.4m/s | -53.6°C | 1.4% | 49.5hPa | 2.7V | 18:12:15 | 01:25:28 | 00:00:00 | |
| OE5DRO-10 | 2026-08-30 12:09:50 | 48.92366 | 10.09601 | 264° | 11km/h | 21101m | 5.0m/s | -53.6°C | 4.9% | 49.5hPa | 2.6V | 00:00:00 | 00:00:00 | 00:00:00 | |
| DG9SBQ-11 | 2026-08-30 12:09:49 | 48.92366 | 10.09601 | 264° | 4km/h | 21101m | 5.1m/s | -53.7°C | 1.5% | 49.5hPa | 2.7V | 00:00:00 | 00:00:00 | 00:00:00 | |
| OE9MKV-15 | 2026-08-30 12:09:48 | 48.92365 | 10.09602 | 12° | 16km/h | 21091m | 4.3m/s | -53.5°C | 4.8% | 49.5hPa | 2.7V | 00:00:00 | 01:25:24 | 00:00:00 | |
| PG1ADW-2 | 2026-08-30 12:09:47 | 48.92363 | 10.09601 | 1° | 15km/h | 21086m | 5.4m/s | -53.6°C | 4.9% | 49.6hPa | 2.6V | 00:00:00 | 01:25:23 | 00:00:00 | |
| DO9HM | 2026-08-30 12:09:45 | 48.92358 | 10.09603 | 341° | 15km/h | 21075m | 4.6m/s | -53.7°C | 1.5% | 49.7hPa | 2.6V | 00:00:00 | 00:00:00 | 00:00:00 | |
| DL1NUX | 2026-08-30 12:09:44 | 48.92346 | 10.09611 | 322° | 9km/h | 21056m | 4.3m/s | -53.8°C | 4.9% | 49.9hPa | 2.6V | 08:30:00 | 01:25:17 | 00:00:00 | |
| DK7TD | 2026-08-30 12:09:41 | 48.92346 | 10.09611 | 322° | 9km/h | 21056m | 4.3m/s | -53.8°C | 1.4% | 49.9hPa | 2.6V | 18:12:15 | 01:25:17 | 00:00:00 | |
| DO3MHA-11 | 2026-08-30 12:09:39 | 48.92343 | 10.09618 | 289° | 15km/h | 21045m | 5.3m/s | -53.7°C | 4.9% | 49.9hPa | 2.6V | 00:00:00 | 01:25:15 | 08:30:00 | |
| OE5DXL-15 | 2026-08-30 12:09:38 | 48.92342 | 10.09623 | 284° | 18km/h | 21040m | 4.9m/s | -53.7°C | 4.8% | 49.9hPa | 2.7V | 00:00:00 | 00:00:00 | 00:00:00 | |
| DL1NUX | 2026-08-30 12:09:34 | 48.92327 | 10.09652 | 334° | 18km/h | 21003m | 5.8m/s | -54°C | 4.9% | 50.3hPa | 2.7V | 08:30:00 | 01:25:07 | 00:00:00 | |
| DK7TD | 2026-08-30 12:09:31 | 48.92328 | 10.09652 | 334° | 18km/h | 21003m | 5.8m/s | -54°C | 1.3% | 50.3hPa | 2.7V | 18:12:15 | 01:25:07 | 00:00:00 | |
| DB0UT-7 | 2026-08-30 12:09:31 | 48.92328 | 10.09652 | 335° | 16km/h | 21003m | 5.7m/s | -54.0°C | 4.9% | 50.2hPa | 2.6V | 00:00:00 | 01:25:07 | 00:00:00 | |
| DB0ND-19 | 2026-08-30 12:09:30 | 48.92319 | 10.09658 | 333° | 20km/h | 20993m | 5.3m/s | -54.1°C | 1.5% | 50.3hPa | 2.6V | 00:00:00 | 00:00:00 | 00:00:00 | |
| DG9SBQ-11 | 2026-08-30 12:09:29 | 48.92319 | 10.09658 | 334° | 20km/h | 20993m | 5.3m/s | -54.1°C | 1.5% | 50.3hPa | 2.6V | 00:00:00 | 00:00:00 | 00:00:00 | |
| SO1NDE-10 | 2026-08-30 12:09:28 | 48.92314 | 10.09662 | 326° | 15km/h | 20988m | 5.5m/s | -54.0°C | 4.9% | 50.4hPa | 2.6V | 00:00:00 | 01:25:04 | 00:00:00 | |
| PG1ADW-2 | 2026-08-30 12:09:27 | 48.92310 | 10.09667 | 319° | 16km/h | 20983m | 4.5m/s | -54.0°C | 4.8% | 50.4hPa | 2.6V | 00:00:00 | 00:00:00 | 00:00:00 | |
| DO9HM | 2026-08-30 12:09:25 | 48.92300 | 10.09685 | 297° | 20km/h | 20967m | 4.1m/s | -54.0°C | 1.5% | 50.5hPa | 2.6V | 00:00:00 | 00:00:00 | 00:00:00 | |
| DL1NUX | 2026-08-30 12:09:24 | 48.92294 | 10.09711 | 284° | 24km/h | 20952m | 3.5m/s | -54.1°C | 5% | 50.7hPa | 2.6V | 08:30:00 | 01:24:57 | 00:00:00 | |
| DK7TD | 2026-08-30 12:09:20 | 48.92293 | 10.09719 | 286° | 22km/h | 20948m | 5.3m/s | -54.1°C | 1.4% | 50.7hPa | 2.6V | 18:12:15 | 01:24:56 | 00:00:00 | |
| DO3MHA-11 | 2026-08-30 12:09:19 | 48.92291 | 10.09726 | 293° | 15km/h | 20943m | 5.6m/s | -54.1°C | 5.1% | 50.7hPa | 2.6V | 00:00:00 | 01:24:55 | 00:00:00 | |
| OE9MKV-15 | 2026-08-30 12:09:18 | 48.92289 | 10.09730 | 310° | 11km/h | 20938m | 4.7m/s | -54.1°C | 5.0% | 50.7hPa | 2.6V | 00:00:00 | 01:24:54 | 00:00:00 | |
| DK5PH-5 | 2026-08-30 12:09:17 | 48.92287 | 10.09734 | 325° | 9km/h | 20932m | 5.3m/s | -54.1°C | 5.0% | 50.8hPa | 2.6V | 00:00:00 | 01:24:53 | 00:00:00 | |
| DG9SBQ-11 | 2026-08-30 12:09:16 | 48.92287 | 10.09734 | 325° | 15km/h | 20932m | 5.3m/s | -54.2°C | 1.5% | 50.8hPa | 2.6V | 00:00:00 | 00:00:00 | 00:00:00 | |
| DL1NUX | 2026-08-30 12:09:14 | 48.92266 | 10.09750 | 315° | 15km/h | 20901m | 5.7m/s | -54.3°C | 5% | 51.1hPa | 2.6V | 08:30:00 | 01:24:47 | 00:00:00 | |
| DK7TD | 2026-08-30 12:09:10 | 48.92264 | 10.09755 | 303° | 18km/h | 20896m | 5.2m/s | -54.4°C | 1.4% | 51.1hPa | 2.6V | 18:12:15 | 01:24:46 | 00:00:00 | |
| DO3MHA-11 | 2026-08-30 12:09:09 | 48.92261 | 10.09761 | 294° | 9km/h | 20891m | 4.5m/s | -54.3°C | 5.0% | 51.1hPa | 2.6V | 00:00:00 | 01:24:45 | 00:00:00 | |
| OE5DXL-15 | 2026-08-30 12:09:08 | 48.92260 | 10.09767 | 291° | 7km/h | 20886m | 5.8m/s | -54.3°C | 5.1% | 51.2hPa | 2.7V | 00:00:00 | 00:00:00 | 00:00:00 | |
| DG9SBQ-11 | 2026-08-30 12:09:05 | 48.92258 | 10.09777 | 285° | 9km/h | 20875m | 4.7m/s | -54.3°C | 1.6% | 51.3hPa | 2.7V | 00:00:00 | 00:00:00 | 00:00:00 | |
| DL1NUX | 2026-08-30 12:09:04 | 48.92255 | 10.09783 | 63° | 5km/h | 20848m | 4.8m/s | -54.1°C | 5% | 51.5hPa | 2.7V | 08:30:00 | 01:24:37 | 00:00:00 | |
| DK7TD | 2026-08-30 12:08:59 | 48.92253 | 10.09780 | 10° | 5km/h | 20839m | 5.5m/s | -54.3°C | 1.4% | 51.6hPa | 2.7V | 18:12:15 | 01:24:35 | 00:00:00 | |
| DB0ND-19 | 2026-08-30 12:08:58 | 48.92251 | 10.09781 | 319° | 7km/h | 20834m | 5.2m/s | -54.2°C | 1.5% | 51.6hPa | 2.6V | 00:00:00 | 00:00:00 | 00:00:00 | |
| DL1ZP-14 | 2026-08-30 12:08:57 | 48.92250 | 10.09784 | 294° | 11km/h | 20829m | 4.1m/s | -54.2°C | 1.5% | 51.7hPa | 2.6V | 00:00:00 | 00:00:00 | 00:00:00 | |
| DL1NUX | 2026-08-30 12:08:54 | 48.92251 | 10.09804 | 240° | 0km/h | 20799m | 5.2m/s | -54.1°C | 5% | 51.9hPa | 2.6V | 08:30:00 | 01:24:27 | 00:00:00 | |
| DK7TD | 2026-08-30 12:08:48 | 48.92252 | 10.09799 | 101° | 7km/h | 20782m | 4m/s | -54.1°C | 1.4% | 52hPa | 2.7V | 18:12:15 | 01:24:24 | 00:00:00 | |
| DF3TZ-5 | 2026-08-30 12:08:45 | 48.92250 | 10.09792 | 34° | 5km/h | 20768m | 4.4m/s | -54.1°C | 1.6% | 52.1hPa | 2.6V | 00:00:00 | 00:00:00 | 00:00:00 | |
| Es werden nur die letzten 3500 von 4278 Frames angezeigt. GPX/KML und Diagramme bleiben verfügbar. | |||||||||||||||